<?xml version="1.0" encoding="UTF-8" standalone="no" ?>
<gpx xmlns="http://www.topografix.com/GPX/1/1" xmlns:xsi="http://www.w3.org/2001/XMLSchema-instance" xsi:schemaLocation="http://www.topografix.com/GPX/1/1 http://www.topografix.com/GPX/1/1/gpx.xsd" version="1.1" creator="VisuGPX - https://www.visugpx.com">
  <metadata>
    <name>Montcy-Vieilles Forges</name>
  </metadata>
  <trk>
    <name><![CDATA[Montcy-Vieilles Forges_1]]></name>
    <trkseg>
      <trkpt lat="49.77375" lon="4.7426">
        <ele>159</ele>
        <time>2022-05-17T12:39:21.533Z</time>
      </trkpt>
      <trkpt lat="49.77377" lon="4.74265">
        <ele>160</ele>
        <time>2022-05-17T12:39:22.556Z</time>
      </trkpt>
      <trkpt lat="49.77377" lon="4.74265">
        <ele>160</ele>
        <time>2022-05-17T12:39:23.551Z</time>
      </trkpt>
      <trkpt lat="49.77378" lon="4.7427">
        <ele>160</ele>
        <time>2022-05-17T12:39:24.534Z</time>
      </trkpt>
      <trkpt lat="49.77378" lon="4.74273">
        <ele>160</ele>
        <time>2022-05-17T12:39:25.559Z</time>
      </trkpt>
      <trkpt lat="49.77378" lon="4.74273">
        <ele>160</ele>
        <time>2022-05-17T12:39:26.528Z</time>
      </trkpt>
      <trkpt lat="49.7738" lon="4.74277">
        <ele>160</ele>
        <time>2022-05-17T12:39:27.558Z</time>
      </trkpt>
      <trkpt lat="49.7738" lon="4.74277">
        <ele>160</ele>
        <time>2022-05-17T12:39:28.529Z</time>
      </trkpt>
      <trkpt lat="49.77384" lon="4.74278">
        <ele>161</ele>
        <time>2022-05-17T12:39:29.553Z</time>
      </trkpt>
      <trkpt lat="49.77384" lon="4.74278">
        <ele>161</ele>
        <time>2022-05-17T12:39:30.563Z</time>
      </trkpt>
      <trkpt lat="49.77386" lon="4.74278">
        <ele>162</ele>
        <time>2022-05-17T12:39:31.541Z</time>
      </trkpt>
      <trkpt lat="49.77386" lon="4.74278">
        <ele>162</ele>
        <time>2022-05-17T12:39:32.559Z</time>
      </trkpt>
      <trkpt lat="49.77388" lon="4.7428">
        <ele>162</ele>
        <time>2022-05-17T12:39:33.562Z</time>
      </trkpt>
      <trkpt lat="49.7739" lon="4.74282">
        <ele>162</ele>
        <time>2022-05-17T12:39:34.541Z</time>
      </trkpt>
      <trkpt lat="49.7739" lon="4.74282">
        <ele>162</ele>
        <time>2022-05-17T12:39:35.554Z</time>
      </trkpt>
      <trkpt lat="49.77391" lon="4.7429">
        <ele>162</ele>
        <time>2022-05-17T12:39:36.544Z</time>
      </trkpt>
      <trkpt lat="49.77392" lon="4.74294">
        <ele>162</ele>
        <time>2022-05-17T12:39:37.527Z</time>
      </trkpt>
      <trkpt lat="49.77392" lon="4.74294">
        <ele>162</ele>
        <time>2022-05-17T12:39:38.539Z</time>
      </trkpt>
      <trkpt lat="49.77393" lon="4.74302">
        <ele>162</ele>
        <time>2022-05-17T12:39:39.525Z</time>
      </trkpt>
      <trkpt lat="49.77394" lon="4.74306">
        <ele>162</ele>
        <time>2022-05-17T12:39:40.555Z</time>
      </trkpt>
      <trkpt lat="49.77394" lon="4.74306">
        <ele>162</ele>
        <time>2022-05-17T12:39:41.563Z</time>
      </trkpt>
      <trkpt lat="49.77396" lon="4.74313">
        <ele>162</ele>
        <time>2022-05-17T12:39:42.551Z</time>
      </trkpt>
      <trkpt lat="49.77397" lon="4.74317">
        <ele>163</ele>
        <time>2022-05-17T12:39:43.538Z</time>
      </trkpt>
      <trkpt lat="49.77397" lon="4.74317">
        <ele>163</ele>
        <time>2022-05-17T12:39:44.547Z</time>
      </trkpt>
      <trkpt lat="49.77398" lon="4.74325">
        <ele>163</ele>
        <time>2022-05-17T12:39:45.532Z</time>
      </trkpt>
      <trkpt lat="49.77398" lon="4.74325">
        <ele>163</ele>
        <time>2022-05-17T12:39:46.540Z</time>
      </trkpt>
      <trkpt lat="49.77399" lon="4.74334">
        <ele>164</ele>
        <time>2022-05-17T12:39:47.561Z</time>
      </trkpt>
      <trkpt lat="49.77398" lon="4.74338">
        <ele>164</ele>
        <time>2022-05-17T12:39:48.560Z</time>
      </trkpt>
      <trkpt lat="49.77398" lon="4.74338">
        <ele>164</ele>
        <time>2022-05-17T12:39:49.527Z</time>
      </trkpt>
      <trkpt lat="49.77396" lon="4.74346">
        <ele>164</ele>
        <time>2022-05-17T12:39:50.554Z</time>
      </trkpt>
      <trkpt lat="49.77396" lon="4.74346">
        <ele>164</ele>
        <time>2022-05-17T12:39:51.529Z</time>
      </trkpt>
      <trkpt lat="49.77393" lon="4.74353">
        <ele>164</ele>
        <time>2022-05-17T12:39:52.560Z</time>
      </trkpt>
      <trkpt lat="49.77391" lon="4.74357">
        <ele>163</ele>
        <time>2022-05-17T12:39:53.535Z</time>
      </trkpt>
      <trkpt lat="49.77389" lon="4.74361">
        <ele>163</ele>
        <time>2022-05-17T12:39:54.555Z</time>
      </trkpt>
      <trkpt lat="49.77387" lon="4.74365">
        <ele>163</ele>
        <time>2022-05-17T12:39:55.528Z</time>
      </trkpt>
      <trkpt lat="49.77387" lon="4.74365">
        <ele>163</ele>
        <time>2022-05-17T12:39:56.540Z</time>
      </trkpt>
      <trkpt lat="49.77383" lon="4.74373">
        <ele>162</ele>
        <time>2022-05-17T12:39:57.555Z</time>
      </trkpt>
      <trkpt lat="49.77383" lon="4.74373">
        <ele>162</ele>
        <time>2022-05-17T12:39:58.562Z</time>
      </trkpt>
      <trkpt lat="49.77379" lon="4.74382">
        <ele>161</ele>
        <time>2022-05-17T12:39:59.536Z</time>
      </trkpt>
      <trkpt lat="49.77377" lon="4.74386">
        <ele>161</ele>
        <time>2022-05-17T12:40:00.525Z</time>
      </trkpt>
      <trkpt lat="49.77377" lon="4.74386">
        <ele>161</ele>
        <time>2022-05-17T12:40:01.532Z</time>
      </trkpt>
      <trkpt lat="49.77375" lon="4.74396">
        <ele>160</ele>
        <time>2022-05-17T12:40:02.559Z</time>
      </trkpt>
      <trkpt lat="49.77375" lon="4.74396">
        <ele>160</ele>
        <time>2022-05-17T12:40:03.525Z</time>
      </trkpt>
      <trkpt lat="49.77373" lon="4.74406">
        <ele>160</ele>
        <time>2022-05-17T12:40:04.562Z</time>
      </trkpt>
      <trkpt lat="49.77373" lon="4.74406">
        <ele>160</ele>
        <time>2022-05-17T12:40:05.528Z</time>
      </trkpt>
      <trkpt lat="49.77373" lon="4.74416">
        <ele>160</ele>
        <time>2022-05-17T12:40:06.537Z</time>
      </trkpt>
      <trkpt lat="49.77373" lon="4.74421">
        <ele>160</ele>
        <time>2022-05-17T12:40:07.563Z</time>
      </trkpt>
      <trkpt lat="49.77373" lon="4.74421">
        <ele>160</ele>
        <time>2022-05-17T12:40:08.530Z</time>
      </trkpt>
      <trkpt lat="49.77373" lon="4.74432">
        <ele>160</ele>
        <time>2022-05-17T12:40:09.555Z</time>
      </trkpt>
      <trkpt lat="49.77374" lon="4.74437">
        <ele>160</ele>
        <time>2022-05-17T12:40:10.535Z</time>
      </trkpt>
      <trkpt lat="49.77374" lon="4.74437">
        <ele>160</ele>
        <time>2022-05-17T12:40:11.544Z</time>
      </trkpt>
      <trkpt lat="49.77375" lon="4.74446">
        <ele>160</ele>
        <time>2022-05-17T12:40:12.560Z</time>
      </trkpt>
      <trkpt lat="49.77376" lon="4.74451">
        <ele>160</ele>
        <time>2022-05-17T12:40:13.538Z</time>
      </trkpt>
      <trkpt lat="49.77376" lon="4.74451">
        <ele>160</ele>
        <time>2022-05-17T12:40:14.544Z</time>
      </trkpt>
      <trkpt lat="49.77378" lon="4.7446">
        <ele>160</ele>
        <time>2022-05-17T12:40:15.563Z</time>
      </trkpt>
      <trkpt lat="49.77379" lon="4.74465">
        <ele>160</ele>
        <time>2022-05-17T12:40:16.539Z</time>
      </trkpt>
      <trkpt lat="49.77379" lon="4.74465">
        <ele>160</ele>
        <time>2022-05-17T12:40:17.545Z</time>
      </trkpt>
      <trkpt lat="49.77381" lon="4.74475">
        <ele>160</ele>
        <time>2022-05-17T12:40:18.535Z</time>
      </trkpt>
      <trkpt lat="49.77382" lon="4.7448">
        <ele>160</ele>
        <time>2022-05-17T12:40:19.561Z</time>
      </trkpt>
      <trkpt lat="49.77382" lon="4.7448">
        <ele>160</ele>
        <time>2022-05-17T12:40:20.526Z</time>
      </trkpt>
      <trkpt lat="49.77385" lon="4.7449">
        <ele>161</ele>
        <time>2022-05-17T12:40:21.546Z</time>
      </trkpt>
      <trkpt lat="49.77385" lon="4.7449">
        <ele>161</ele>
        <time>2022-05-17T12:40:22.553Z</time>
      </trkpt>
      <trkpt lat="49.77387" lon="4.74501">
        <ele>161</ele>
        <time>2022-05-17T12:40:23.535Z</time>
      </trkpt>
      <trkpt lat="49.77389" lon="4.74506">
        <ele>161</ele>
        <time>2022-05-17T12:40:24.549Z</time>
      </trkpt>
      <trkpt lat="49.77389" lon="4.74506">
        <ele>161</ele>
        <time>2022-05-17T12:40:25.555Z</time>
      </trkpt>
      <trkpt lat="49.77392" lon="4.74516">
        <ele>161</ele>
        <time>2022-05-17T12:40:26.530Z</time>
      </trkpt>
      <trkpt lat="49.77394" lon="4.74521">
        <ele>162</ele>
        <time>2022-05-17T12:40:27.525Z</time>
      </trkpt>
      <trkpt lat="49.77396" lon="4.74526">
        <ele>162</ele>
        <time>2022-05-17T12:40:28.535Z</time>
      </trkpt>
      <trkpt lat="49.77396" lon="4.74526">
        <ele>162</ele>
        <time>2022-05-17T12:40:29.541Z</time>
      </trkpt>
      <trkpt lat="49.77399" lon="4.74535">
        <ele>162</ele>
        <time>2022-05-17T12:40:30.556Z</time>
      </trkpt>
      <trkpt lat="49.77401" lon="4.7454">
        <ele>162</ele>
        <time>2022-05-17T12:40:31.526Z</time>
      </trkpt>
      <trkpt lat="49.77401" lon="4.7454">
        <ele>162</ele>
        <time>2022-05-17T12:40:32.532Z</time>
      </trkpt>
      <trkpt lat="49.77404" lon="4.7455">
        <ele>162</ele>
        <time>2022-05-17T12:40:33.560Z</time>
      </trkpt>
      <trkpt lat="49.77404" lon="4.7455">
        <ele>162</ele>
        <time>2022-05-17T12:40:34.526Z</time>
      </trkpt>
      <trkpt lat="49.77408" lon="4.74559">
        <ele>162</ele>
        <time>2022-05-17T12:40:35.543Z</time>
      </trkpt>
      <trkpt lat="49.77408" lon="4.74559">
        <ele>162</ele>
        <time>2022-05-17T12:40:36.549Z</time>
      </trkpt>
      <trkpt lat="49.77415" lon="4.7456">
        <ele>162</ele>
        <time>2022-05-17T12:40:37.563Z</time>
      </trkpt>
      <trkpt lat="49.77415" lon="4.7456">
        <ele>162</ele>
        <time>2022-05-17T12:40:38.559Z</time>
      </trkpt>
      <trkpt lat="49.77422" lon="4.74555">
        <ele>162</ele>
        <time>2022-05-17T12:40:39.533Z</time>
      </trkpt>
      <trkpt lat="49.77422" lon="4.74555">
        <ele>162</ele>
        <time>2022-05-17T12:40:40.543Z</time>
      </trkpt>
      <trkpt lat="49.77428" lon="4.74549">
        <ele>162</ele>
        <time>2022-05-17T12:40:41.524Z</time>
      </trkpt>
      <trkpt lat="49.77428" lon="4.74549">
        <ele>162</ele>
        <time>2022-05-17T12:40:42.530Z</time>
      </trkpt>
      <trkpt lat="49.77434" lon="4.74545">
        <ele>163</ele>
        <time>2022-05-17T12:40:43.555Z</time>
      </trkpt>
      <trkpt lat="49.77434" lon="4.74545">
        <ele>163</ele>
        <time>2022-05-17T12:40:44.537Z</time>
      </trkpt>
      <trkpt lat="49.7744" lon="4.74539">
        <ele>163</ele>
        <time>2022-05-17T12:40:45.561Z</time>
      </trkpt>
      <trkpt lat="49.7744" lon="4.74539">
        <ele>163</ele>
        <time>2022-05-17T12:40:46.551Z</time>
      </trkpt>
      <trkpt lat="49.77446" lon="4.74532">
        <ele>164</ele>
        <time>2022-05-17T12:40:47.541Z</time>
      </trkpt>
      <trkpt lat="49.77446" lon="4.74532">
        <ele>164</ele>
        <time>2022-05-17T12:40:48.557Z</time>
      </trkpt>
      <trkpt lat="49.77451" lon="4.74526">
        <ele>164</ele>
        <time>2022-05-17T12:40:49.526Z</time>
      </trkpt>
      <trkpt lat="49.77451" lon="4.74526">
        <ele>164</ele>
        <time>2022-05-17T12:40:50.554Z</time>
      </trkpt>
      <trkpt lat="49.77457" lon="4.7452">
        <ele>165</ele>
        <time>2022-05-17T12:40:51.527Z</time>
      </trkpt>
      <trkpt lat="49.77457" lon="4.7452">
        <ele>165</ele>
        <time>2022-05-17T12:40:52.551Z</time>
      </trkpt>
      <trkpt lat="49.77463" lon="4.74515">
        <ele>166</ele>
        <time>2022-05-17T12:40:53.538Z</time>
      </trkpt>
      <trkpt lat="49.77466" lon="4.74513">
        <ele>167</ele>
        <time>2022-05-17T12:40:54.558Z</time>
      </trkpt>
      <trkpt lat="49.77469" lon="4.74511">
        <ele>166</ele>
        <time>2022-05-17T12:40:55.561Z</time>
      </trkpt>
      <trkpt lat="49.77469" lon="4.74511">
        <ele>166</ele>
        <time>2022-05-17T12:40:56.555Z</time>
      </trkpt>
      <trkpt lat="49.77475" lon="4.74506">
        <ele>167</ele>
        <time>2022-05-17T12:40:57.537Z</time>
      </trkpt>
      <trkpt lat="49.77475" lon="4.74506">
        <ele>167</ele>
        <time>2022-05-17T12:40:58.554Z</time>
      </trkpt>
      <trkpt lat="49.77481" lon="4.74502">
        <ele>167</ele>
        <time>2022-05-17T12:40:59.563Z</time>
      </trkpt>
      <trkpt lat="49.77481" lon="4.74502">
        <ele>167</ele>
        <time>2022-05-17T12:41:00.556Z</time>
      </trkpt>
      <trkpt lat="49.77486" lon="4.74498">
        <ele>167</ele>
        <time>2022-05-17T12:41:01.526Z</time>
      </trkpt>
      <trkpt lat="49.77489" lon="4.74496">
        <ele>168</ele>
        <time>2022-05-17T12:41:02.546Z</time>
      </trkpt>
      <trkpt lat="49.77489" lon="4.74496">
        <ele>168</ele>
        <time>2022-05-17T12:41:03.561Z</time>
      </trkpt>
      <trkpt lat="49.77495" lon="4.74492">
        <ele>168</ele>
        <time>2022-05-17T12:41:04.563Z</time>
      </trkpt>
      <trkpt lat="49.77498" lon="4.74489">
        <ele>168</ele>
        <time>2022-05-17T12:41:05.564Z</time>
      </trkpt>
      <trkpt lat="49.77498" lon="4.74489">
        <ele>168</ele>
        <time>2022-05-17T12:41:06.553Z</time>
      </trkpt>
      <trkpt lat="49.77504" lon="4.74485">
        <ele>168</ele>
        <time>2022-05-17T12:41:07.532Z</time>
      </trkpt>
      <trkpt lat="49.77504" lon="4.74485">
        <ele>168</ele>
        <time>2022-05-17T12:41:08.556Z</time>
      </trkpt>
      <trkpt lat="49.77511" lon="4.74482">
        <ele>169</ele>
        <time>2022-05-17T12:41:09.528Z</time>
      </trkpt>
      <trkpt lat="49.77511" lon="4.74482">
        <ele>169</ele>
        <time>2022-05-17T12:41:10.557Z</time>
      </trkpt>
      <trkpt lat="49.77517" lon="4.74483">
        <ele>169</ele>
        <time>2022-05-17T12:41:11.527Z</time>
      </trkpt>
      <trkpt lat="49.77519" lon="4.74486">
        <ele>169</ele>
        <time>2022-05-17T12:41:12.562Z</time>
      </trkpt>
      <trkpt lat="49.77519" lon="4.74486">
        <ele>169</ele>
        <time>2022-05-17T12:41:13.556Z</time>
      </trkpt>
      <trkpt lat="49.77523" lon="4.74494">
        <ele>169</ele>
        <time>2022-05-17T12:41:14.560Z</time>
      </trkpt>
      <trkpt lat="49.77523" lon="4.74494">
        <ele>169</ele>
        <time>2022-05-17T12:41:15.554Z</time>
      </trkpt>
      <trkpt lat="49.77526" lon="4.74503">
        <ele>169</ele>
        <time>2022-05-17T12:41:16.528Z</time>
      </trkpt>
      <trkpt lat="49.77526" lon="4.74503">
        <ele>169</ele>
        <time>2022-05-17T12:41:17.552Z</time>
      </trkpt>
      <trkpt lat="49.77529" lon="4.74513">
        <ele>169</ele>
        <time>2022-05-17T12:41:18.558Z</time>
      </trkpt>
      <trkpt lat="49.77531" lon="4.74517">
        <ele>169</ele>
        <time>2022-05-17T12:41:19.525Z</time>
      </trkpt>
      <trkpt lat="49.77531" lon="4.74517">
        <ele>169</ele>
        <time>2022-05-17T12:41:20.524Z</time>
      </trkpt>
      <trkpt lat="49.77534" lon="4.74526">
        <ele>169</ele>
        <time>2022-05-17T12:41:21.531Z</time>
      </trkpt>
      <trkpt lat="49.77535" lon="4.74531">
        <ele>169</ele>
        <time>2022-05-17T12:41:22.561Z</time>
      </trkpt>
      <trkpt lat="49.77537" lon="4.74535">
        <ele>169</ele>
        <time>2022-05-17T12:41:23.556Z</time>
      </trkpt>
      <trkpt lat="49.77537" lon="4.74535">
        <ele>169</ele>
        <time>2022-05-17T12:41:24.556Z</time>
      </trkpt>
      <trkpt lat="49.7754" lon="4.74544">
        <ele>169</ele>
        <time>2022-05-17T12:41:25.526Z</time>
      </trkpt>
      <trkpt lat="49.7754" lon="4.74544">
        <ele>169</ele>
        <time>2022-05-17T12:41:26.556Z</time>
      </trkpt>
      <trkpt lat="49.77543" lon="4.74554">
        <ele>169</ele>
        <time>2022-05-17T12:41:27.562Z</time>
      </trkpt>
      <trkpt lat="49.77543" lon="4.74554">
        <ele>169</ele>
        <time>2022-05-17T12:41:28.557Z</time>
      </trkpt>
      <trkpt lat="49.77546" lon="4.74563">
        <ele>169</ele>
        <time>2022-05-17T12:41:29.525Z</time>
      </trkpt>
      <trkpt lat="49.77546" lon="4.74563">
        <ele>169</ele>
        <time>2022-05-17T12:41:30.563Z</time>
      </trkpt>
      <trkpt lat="49.77549" lon="4.74572">
        <ele>168</ele>
        <time>2022-05-17T12:41:31.527Z</time>
      </trkpt>
      <trkpt lat="49.77549" lon="4.74572">
        <ele>168</ele>
        <time>2022-05-17T12:41:32.547Z</time>
      </trkpt>
      <trkpt lat="49.77552" lon="4.74581">
        <ele>169</ele>
        <time>2022-05-17T12:41:33.540Z</time>
      </trkpt>
      <trkpt lat="49.77552" lon="4.74581">
        <ele>169</ele>
        <time>2022-05-17T12:41:34.524Z</time>
      </trkpt>
      <trkpt lat="49.77556" lon="4.7459">
        <ele>169</ele>
        <time>2022-05-17T12:41:35.562Z</time>
      </trkpt>
      <trkpt lat="49.77556" lon="4.7459">
        <ele>169</ele>
        <time>2022-05-17T12:41:36.557Z</time>
      </trkpt>
      <trkpt lat="49.77559" lon="4.74598">
        <ele>169</ele>
        <time>2022-05-17T12:41:37.562Z</time>
      </trkpt>
      <trkpt lat="49.7756" lon="4.74603">
        <ele>169</ele>
        <time>2022-05-17T12:41:38.525Z</time>
      </trkpt>
      <trkpt lat="49.7756" lon="4.74603">
        <ele>169</ele>
        <time>2022-05-17T12:41:39.525Z</time>
      </trkpt>
      <trkpt lat="49.77564" lon="4.74612">
        <ele>169</ele>
        <time>2022-05-17T12:41:40.560Z</time>
      </trkpt>
      <trkpt lat="49.77565" lon="4.74616">
        <ele>169</ele>
        <time>2022-05-17T12:41:41.525Z</time>
      </trkpt>
      <trkpt lat="49.77565" lon="4.74616">
        <ele>169</ele>
        <time>2022-05-17T12:41:42.552Z</time>
      </trkpt>
      <trkpt lat="49.77568" lon="4.74625">
        <ele>169</ele>
        <time>2022-05-17T12:41:43.534Z</time>
      </trkpt>
      <trkpt lat="49.7757" lon="4.74629">
        <ele>169</ele>
        <time>2022-05-17T12:41:44.561Z</time>
      </trkpt>
      <trkpt lat="49.7757" lon="4.74629">
        <ele>169</ele>
        <time>2022-05-17T12:41:45.554Z</time>
      </trkpt>
      <trkpt lat="49.77573" lon="4.74639">
        <ele>169</ele>
        <time>2022-05-17T12:41:46.562Z</time>
      </trkpt>
      <trkpt lat="49.77573" lon="4.74639">
        <ele>169</ele>
        <time>2022-05-17T12:41:47.556Z</time>
      </trkpt>
      <trkpt lat="49.77577" lon="4.74648">
        <ele>168</ele>
        <time>2022-05-17T12:41:48.560Z</time>
      </trkpt>
      <trkpt lat="49.77579" lon="4.74653">
        <ele>168</ele>
        <time>2022-05-17T12:41:49.524Z</time>
      </trkpt>
      <trkpt lat="49.77579" lon="4.74653">
        <ele>168</ele>
        <time>2022-05-17T12:41:50.556Z</time>
      </trkpt>
      <trkpt lat="49.77583" lon="4.74662">
        <ele>168</ele>
        <time>2022-05-17T12:41:51.561Z</time>
      </trkpt>
      <trkpt lat="49.77583" lon="4.74662">
        <ele>168</ele>
        <time>2022-05-17T12:41:52.557Z</time>
      </trkpt>
      <trkpt lat="49.77588" lon="4.74669">
        <ele>167</ele>
        <time>2022-05-17T12:41:53.560Z</time>
      </trkpt>
      <trkpt lat="49.77588" lon="4.74669">
        <ele>167</ele>
        <time>2022-05-17T12:41:54.556Z</time>
      </trkpt>
      <trkpt lat="49.77592" lon="4.74676">
        <ele>168</ele>
        <time>2022-05-17T12:41:55.561Z</time>
      </trkpt>
      <trkpt lat="49.77595" lon="4.7468">
        <ele>168</ele>
        <time>2022-05-17T12:41:56.559Z</time>
      </trkpt>
      <trkpt lat="49.77597" lon="4.74684">
        <ele>168</ele>
        <time>2022-05-17T12:41:57.529Z</time>
      </trkpt>
      <trkpt lat="49.77597" lon="4.74684">
        <ele>168</ele>
        <time>2022-05-17T12:41:58.553Z</time>
      </trkpt>
      <trkpt lat="49.77601" lon="4.74691">
        <ele>168</ele>
        <time>2022-05-17T12:41:59.535Z</time>
      </trkpt>
      <trkpt lat="49.77601" lon="4.74691">
        <ele>168</ele>
        <time>2022-05-17T12:42:00.537Z</time>
      </trkpt>
      <trkpt lat="49.77606" lon="4.74699">
        <ele>168</ele>
        <time>2022-05-17T12:42:01.562Z</time>
      </trkpt>
      <trkpt lat="49.77606" lon="4.74699">
        <ele>168</ele>
        <time>2022-05-17T12:42:02.557Z</time>
      </trkpt>
      <trkpt lat="49.7761" lon="4.74706">
        <ele>168</ele>
        <time>2022-05-17T12:42:03.559Z</time>
      </trkpt>
      <trkpt lat="49.7761" lon="4.74706">
        <ele>168</ele>
        <time>2022-05-17T12:42:04.553Z</time>
      </trkpt>
      <trkpt lat="49.77615" lon="4.74712">
        <ele>168</ele>
        <time>2022-05-17T12:42:05.556Z</time>
      </trkpt>
      <trkpt lat="49.77615" lon="4.74712">
        <ele>168</ele>
        <time>2022-05-17T12:42:06.552Z</time>
      </trkpt>
      <trkpt lat="49.7762" lon="4.74719">
        <ele>168</ele>
        <time>2022-05-17T12:42:07.560Z</time>
      </trkpt>
      <trkpt lat="49.7762" lon="4.74719">
        <ele>168</ele>
        <time>2022-05-17T12:42:08.532Z</time>
      </trkpt>
      <trkpt lat="49.77625" lon="4.74725">
        <ele>168</ele>
        <time>2022-05-17T12:42:09.561Z</time>
      </trkpt>
      <trkpt lat="49.77625" lon="4.74725">
        <ele>168</ele>
        <time>2022-05-17T12:42:10.529Z</time>
      </trkpt>
      <trkpt lat="49.7763" lon="4.74731">
        <ele>168</ele>
        <time>2022-05-17T12:42:11.593Z</time>
      </trkpt>
      <trkpt lat="49.77633" lon="4.74735">
        <ele>168</ele>
        <time>2022-05-17T12:42:12.562Z</time>
      </trkpt>
      <trkpt lat="49.77635" lon="4.74738">
        <ele>168</ele>
        <time>2022-05-17T12:42:13.533Z</time>
      </trkpt>
      <trkpt lat="49.77635" lon="4.74738">
        <ele>168</ele>
        <time>2022-05-17T12:42:14.542Z</time>
      </trkpt>
      <trkpt lat="49.7764" lon="4.74743">
        <ele>168</ele>
        <time>2022-05-17T12:42:15.563Z</time>
      </trkpt>
      <trkpt lat="49.7764" lon="4.74743">
        <ele>168</ele>
        <time>2022-05-17T12:42:16.530Z</time>
      </trkpt>
      <trkpt lat="49.77645" lon="4.74746">
        <ele>169</ele>
        <time>2022-05-17T12:42:17.552Z</time>
      </trkpt>
      <trkpt lat="49.77646" lon="4.74748">
        <ele>169</ele>
        <time>2022-05-17T12:42:18.558Z</time>
      </trkpt>
      <trkpt lat="49.77646" lon="4.74748">
        <ele>169</ele>
        <time>2022-05-17T12:42:19.525Z</time>
      </trkpt>
      <trkpt lat="49.77645" lon="4.74752">
        <ele>169</ele>
        <time>2022-05-17T12:42:20.537Z</time>
      </trkpt>
      <trkpt lat="49.77645" lon="4.74752">
        <ele>169</ele>
        <time>2022-05-17T12:42:21.554Z</time>
      </trkpt>
      <trkpt lat="49.77641" lon="4.74757">
        <ele>168</ele>
        <time>2022-05-17T12:42:22.543Z</time>
      </trkpt>
      <trkpt lat="49.7764" lon="4.7476">
        <ele>168</ele>
        <time>2022-05-17T12:42:23.552Z</time>
      </trkpt>
      <trkpt lat="49.7764" lon="4.7476">
        <ele>168</ele>
        <time>2022-05-17T12:42:24.559Z</time>
      </trkpt>
      <trkpt lat="49.77643" lon="4.74766">
        <ele>168</ele>
        <time>2022-05-17T12:42:25.538Z</time>
      </trkpt>
      <trkpt lat="49.77643" lon="4.74766">
        <ele>168</ele>
        <time>2022-05-17T12:42:26.546Z</time>
      </trkpt>
      <trkpt lat="49.77648" lon="4.74769">
        <ele>168</ele>
        <time>2022-05-17T12:42:27.552Z</time>
      </trkpt>
      <trkpt lat="49.77651" lon="4.7477">
        <ele>168</ele>
        <time>2022-05-17T12:42:28.542Z</time>
      </trkpt>
      <trkpt lat="49.77651" lon="4.7477">
        <ele>168</ele>
        <time>2022-05-17T12:42:29.550Z</time>
      </trkpt>
      <trkpt lat="49.77656" lon="4.74773">
        <ele>168</ele>
        <time>2022-05-17T12:42:30.532Z</time>
      </trkpt>
      <trkpt lat="49.77659" lon="4.74774">
        <ele>169</ele>
        <time>2022-05-17T12:42:31.547Z</time>
      </trkpt>
      <trkpt lat="49.77659" lon="4.74774">
        <ele>169</ele>
        <time>2022-05-17T12:42:32.555Z</time>
      </trkpt>
      <trkpt lat="49.77665" lon="4.74777">
        <ele>169</ele>
        <time>2022-05-17T12:42:33.548Z</time>
      </trkpt>
      <trkpt lat="49.77665" lon="4.74777">
        <ele>169</ele>
        <time>2022-05-17T12:42:34.555Z</time>
      </trkpt>
      <trkpt lat="49.7767" lon="4.74779">
        <ele>170</ele>
        <time>2022-05-17T12:42:35.530Z</time>
      </trkpt>
      <trkpt lat="49.7767" lon="4.74779">
        <ele>170</ele>
        <time>2022-05-17T12:42:36.543Z</time>
      </trkpt>
      <trkpt lat="49.77676" lon="4.74782">
        <ele>170</ele>
        <time>2022-05-17T12:42:37.526Z</time>
      </trkpt>
      <trkpt lat="49.77679" lon="4.74783">
        <ele>171</ele>
        <time>2022-05-17T12:42:38.563Z</time>
      </trkpt>
      <trkpt lat="49.77679" lon="4.74783">
        <ele>171</ele>
        <time>2022-05-17T12:42:39.529Z</time>
      </trkpt>
      <trkpt lat="49.77684" lon="4.74785">
        <ele>171</ele>
        <time>2022-05-17T12:42:40.554Z</time>
      </trkpt>
      <trkpt lat="49.77684" lon="4.74785">
        <ele>171</ele>
        <time>2022-05-17T12:42:41.561Z</time>
      </trkpt>
      <trkpt lat="49.7769" lon="4.74787">
        <ele>171</ele>
        <time>2022-05-17T12:42:42.540Z</time>
      </trkpt>
      <trkpt lat="49.7769" lon="4.74787">
        <ele>171</ele>
        <time>2022-05-17T12:42:43.554Z</time>
      </trkpt>
      <trkpt lat="49.77695" lon="4.74789">
        <ele>171</ele>
        <time>2022-05-17T12:42:44.550Z</time>
      </trkpt>
      <trkpt lat="49.77695" lon="4.74789">
        <ele>171</ele>
        <time>2022-05-17T12:42:45.556Z</time>
      </trkpt>
      <trkpt lat="49.77701" lon="4.74791">
        <ele>172</ele>
        <time>2022-05-17T12:42:46.538Z</time>
      </trkpt>
      <trkpt lat="49.77701" lon="4.74791">
        <ele>172</ele>
        <time>2022-05-17T12:42:47.544Z</time>
      </trkpt>
      <trkpt lat="49.77707" lon="4.74792">
        <ele>172</ele>
        <time>2022-05-17T12:42:48.524Z</time>
      </trkpt>
      <trkpt lat="49.7771" lon="4.74794">
        <ele>172</ele>
        <time>2022-05-17T12:42:49.542Z</time>
      </trkpt>
      <trkpt lat="49.7771" lon="4.74794">
        <ele>172</ele>
        <time>2022-05-17T12:42:50.547Z</time>
      </trkpt>
      <trkpt lat="49.77714" lon="4.74801">
        <ele>171</ele>
        <time>2022-05-17T12:42:51.524Z</time>
      </trkpt>
      <trkpt lat="49.77715" lon="4.74806">
        <ele>171</ele>
        <time>2022-05-17T12:42:52.542Z</time>
      </trkpt>
      <trkpt lat="49.77715" lon="4.74806">
        <ele>171</ele>
        <time>2022-05-17T12:42:53.547Z</time>
      </trkpt>
      <trkpt lat="49.77717" lon="4.74815">
        <ele>171</ele>
        <time>2022-05-17T12:42:54.535Z</time>
      </trkpt>
      <trkpt lat="49.7772" lon="4.74819">
        <ele>171</ele>
        <time>2022-05-17T12:42:55.552Z</time>
      </trkpt>
      <trkpt lat="49.7772" lon="4.74819">
        <ele>171</ele>
        <time>2022-05-17T12:42:56.558Z</time>
      </trkpt>
      <trkpt lat="49.77725" lon="4.74825">
        <ele>170</ele>
        <time>2022-05-17T12:42:57.537Z</time>
      </trkpt>
      <trkpt lat="49.77728" lon="4.74828">
        <ele>170</ele>
        <time>2022-05-17T12:42:58.557Z</time>
      </trkpt>
      <trkpt lat="49.77728" lon="4.74828">
        <ele>170</ele>
        <time>2022-05-17T12:42:59.563Z</time>
      </trkpt>
      <trkpt lat="49.77735" lon="4.74834">
        <ele>170</ele>
        <time>2022-05-17T12:43:00.529Z</time>
      </trkpt>
      <trkpt lat="49.77738" lon="4.74837">
        <ele>170</ele>
        <time>2022-05-17T12:43:01.545Z</time>
      </trkpt>
      <trkpt lat="49.77738" lon="4.74837">
        <ele>170</ele>
        <time>2022-05-17T12:43:02.551Z</time>
      </trkpt>
      <trkpt lat="49.77743" lon="4.74842">
        <ele>170</ele>
        <time>2022-05-17T12:43:03.545Z</time>
      </trkpt>
      <trkpt lat="49.77746" lon="4.74844">
        <ele>170</ele>
        <time>2022-05-17T12:43:04.536Z</time>
      </trkpt>
      <trkpt lat="49.77746" lon="4.74844">
        <ele>170</ele>
        <time>2022-05-17T12:43:05.544Z</time>
      </trkpt>
      <trkpt lat="49.77752" lon="4.74848">
        <ele>170</ele>
        <time>2022-05-17T12:43:06.524Z</time>
      </trkpt>
      <trkpt lat="49.77755" lon="4.7485">
        <ele>171</ele>
        <time>2022-05-17T12:43:07.537Z</time>
      </trkpt>
      <trkpt lat="49.77755" lon="4.7485">
        <ele>171</ele>
        <time>2022-05-17T12:43:08.544Z</time>
      </trkpt>
      <trkpt lat="49.77761" lon="4.74854">
        <ele>171</ele>
        <time>2022-05-17T12:43:09.525Z</time>
      </trkpt>
      <trkpt lat="49.77761" lon="4.74854">
        <ele>171</ele>
        <time>2022-05-17T12:43:10.531Z</time>
      </trkpt>
      <trkpt lat="49.77766" lon="4.74859">
        <ele>171</ele>
        <time>2022-05-17T12:43:11.545Z</time>
      </trkpt>
      <trkpt lat="49.77769" lon="4.74862">
        <ele>171</ele>
        <time>2022-05-17T12:43:12.524Z</time>
      </trkpt>
      <trkpt lat="49.77771" lon="4.74865">
        <ele>171</ele>
        <time>2022-05-17T12:43:13.543Z</time>
      </trkpt>
      <trkpt lat="49.77771" lon="4.74865">
        <ele>171</ele>
        <time>2022-05-17T12:43:14.549Z</time>
      </trkpt>
      <trkpt lat="49.77777" lon="4.7487">
        <ele>171</ele>
        <time>2022-05-17T12:43:15.533Z</time>
      </trkpt>
      <trkpt lat="49.77777" lon="4.7487">
        <ele>171</ele>
        <time>2022-05-17T12:43:16.540Z</time>
      </trkpt>
      <trkpt lat="49.77783" lon="4.74874">
        <ele>171</ele>
        <time>2022-05-17T12:43:17.533Z</time>
      </trkpt>
      <trkpt lat="49.77783" lon="4.74874">
        <ele>171</ele>
        <time>2022-05-17T12:43:18.544Z</time>
      </trkpt>
      <trkpt lat="49.77788" lon="4.74875">
        <ele>170</ele>
        <time>2022-05-17T12:43:19.560Z</time>
      </trkpt>
      <trkpt lat="49.77788" lon="4.74875">
        <ele>170</ele>
        <time>2022-05-17T12:43:20.528Z</time>
      </trkpt>
      <trkpt lat="49.77794" lon="4.74877">
        <ele>170</ele>
        <time>2022-05-17T12:43:21.524Z</time>
      </trkpt>
      <trkpt lat="49.77794" lon="4.74877">
        <ele>170</ele>
        <time>2022-05-17T12:43:22.530Z</time>
      </trkpt>
      <trkpt lat="49.77799" lon="4.74879">
        <ele>170</ele>
        <time>2022-05-17T12:43:23.557Z</time>
      </trkpt>
      <trkpt lat="49.77801" lon="4.7488">
        <ele>169</ele>
        <time>2022-05-17T12:43:24.529Z</time>
      </trkpt>
      <trkpt lat="49.77804" lon="4.74881">
        <ele>169</ele>
        <time>2022-05-17T12:43:25.561Z</time>
      </trkpt>
      <trkpt lat="49.77806" lon="4.74882">
        <ele>169</ele>
        <time>2022-05-17T12:43:26.535Z</time>
      </trkpt>
      <trkpt lat="49.77806" lon="4.74882">
        <ele>169</ele>
        <time>2022-05-17T12:43:27.545Z</time>
      </trkpt>
      <trkpt lat="49.7781" lon="4.74884">
        <ele>169</ele>
        <time>2022-05-17T12:43:28.560Z</time>
      </trkpt>
      <trkpt lat="49.77813" lon="4.74886">
        <ele>169</ele>
        <time>2022-05-17T12:43:29.539Z</time>
      </trkpt>
      <trkpt lat="49.77813" lon="4.74886">
        <ele>169</ele>
        <time>2022-05-17T12:43:30.556Z</time>
      </trkpt>
      <trkpt lat="49.77817" lon="4.74888">
        <ele>169</ele>
        <time>2022-05-17T12:43:31.527Z</time>
      </trkpt>
      <trkpt lat="49.77817" lon="4.74888">
        <ele>169</ele>
        <time>2022-05-17T12:43:32.533Z</time>
      </trkpt>
      <trkpt lat="49.77823" lon="4.74889">
        <ele>170</ele>
        <time>2022-05-17T12:43:33.550Z</time>
      </trkpt>
      <trkpt lat="49.77826" lon="4.7489">
        <ele>170</ele>
        <time>2022-05-17T12:43:34.562Z</time>
      </trkpt>
      <trkpt lat="49.77826" lon="4.7489">
        <ele>170</ele>
        <time>2022-05-17T12:43:35.527Z</time>
      </trkpt>
      <trkpt lat="49.77832" lon="4.74891">
        <ele>172</ele>
        <time>2022-05-17T12:43:36.539Z</time>
      </trkpt>
      <trkpt lat="49.77835" lon="4.74892">
        <ele>173</ele>
        <time>2022-05-17T12:43:37.549Z</time>
      </trkpt>
      <trkpt lat="49.77837" lon="4.74893">
        <ele>173</ele>
        <time>2022-05-17T12:43:38.525Z</time>
      </trkpt>
      <trkpt lat="49.77837" lon="4.74893">
        <ele>173</ele>
        <time>2022-05-17T12:43:39.531Z</time>
      </trkpt>
      <trkpt lat="49.77842" lon="4.74894">
        <ele>174</ele>
        <time>2022-05-17T12:43:40.552Z</time>
      </trkpt>
      <trkpt lat="49.77842" lon="4.74894">
        <ele>174</ele>
        <time>2022-05-17T12:43:41.558Z</time>
      </trkpt>
      <trkpt lat="49.77847" lon="4.74895">
        <ele>175</ele>
        <time>2022-05-17T12:43:42.547Z</time>
      </trkpt>
      <trkpt lat="49.77849" lon="4.74896">
        <ele>176</ele>
        <time>2022-05-17T12:43:43.536Z</time>
      </trkpt>
      <trkpt lat="49.77849" lon="4.74896">
        <ele>176</ele>
        <time>2022-05-17T12:43:44.544Z</time>
      </trkpt>
      <trkpt lat="49.77854" lon="4.74897">
        <ele>177</ele>
        <time>2022-05-17T12:43:45.556Z</time>
      </trkpt>
      <trkpt lat="49.77854" lon="4.74897">
        <ele>177</ele>
        <time>2022-05-17T12:43:46.563Z</time>
      </trkpt>
      <trkpt lat="49.77859" lon="4.74898">
        <ele>178</ele>
        <time>2022-05-17T12:43:47.540Z</time>
      </trkpt>
      <trkpt lat="49.77862" lon="4.74899">
        <ele>178</ele>
        <time>2022-05-17T12:43:48.550Z</time>
      </trkpt>
      <trkpt lat="49.77864" lon="4.74899">
        <ele>178</ele>
        <time>2022-05-17T12:43:49.526Z</time>
      </trkpt>
      <trkpt lat="49.77864" lon="4.74899">
        <ele>178</ele>
        <time>2022-05-17T12:43:50.551Z</time>
      </trkpt>
      <trkpt lat="49.77869" lon="4.749">
        <ele>179</ele>
        <time>2022-05-17T12:43:51.526Z</time>
      </trkpt>
      <trkpt lat="49.77871" lon="4.749">
        <ele>179</ele>
        <time>2022-05-17T12:43:52.535Z</time>
      </trkpt>
      <trkpt lat="49.77873" lon="4.74901">
        <ele>178</ele>
        <time>2022-05-17T12:43:53.524Z</time>
      </trkpt>
      <trkpt lat="49.77873" lon="4.74901">
        <ele>178</ele>
        <time>2022-05-17T12:43:54.530Z</time>
      </trkpt>
      <trkpt lat="49.77878" lon="4.74902">
        <ele>179</ele>
        <time>2022-05-17T12:43:55.552Z</time>
      </trkpt>
      <trkpt lat="49.77878" lon="4.74902">
        <ele>179</ele>
        <time>2022-05-17T12:43:56.558Z</time>
      </trkpt>
      <trkpt lat="49.77882" lon="4.74902">
        <ele>179</ele>
        <time>2022-05-17T12:43:57.538Z</time>
      </trkpt>
      <trkpt lat="49.77882" lon="4.74902">
        <ele>179</ele>
        <time>2022-05-17T12:43:58.544Z</time>
      </trkpt>
      <trkpt lat="49.77887" lon="4.74903">
        <ele>179</ele>
        <time>2022-05-17T12:43:59.529Z</time>
      </trkpt>
      <trkpt lat="49.77889" lon="4.74903">
        <ele>179</ele>
        <time>2022-05-17T12:44:00.540Z</time>
      </trkpt>
      <trkpt lat="49.77891" lon="4.74903">
        <ele>179</ele>
        <time>2022-05-17T12:44:01.556Z</time>
      </trkpt>
      <trkpt lat="49.77891" lon="4.74903">
        <ele>179</ele>
        <time>2022-05-17T12:44:02.562Z</time>
      </trkpt>
      <trkpt lat="49.77895" lon="4.74904">
        <ele>180</ele>
        <time>2022-05-17T12:44:03.561Z</time>
      </trkpt>
      <trkpt lat="49.77895" lon="4.74904">
        <ele>180</ele>
        <time>2022-05-17T12:44:04.527Z</time>
      </trkpt>
      <trkpt lat="49.779" lon="4.74905">
        <ele>181</ele>
        <time>2022-05-17T12:44:05.544Z</time>
      </trkpt>
      <trkpt lat="49.77902" lon="4.74905">
        <ele>181</ele>
        <time>2022-05-17T12:44:06.524Z</time>
      </trkpt>
      <trkpt lat="49.77904" lon="4.74905">
        <ele>182</ele>
        <time>2022-05-17T12:44:07.537Z</time>
      </trkpt>
      <trkpt lat="49.77904" lon="4.74905">
        <ele>182</ele>
        <time>2022-05-17T12:44:08.544Z</time>
      </trkpt>
      <trkpt lat="49.77908" lon="4.74906">
        <ele>182</ele>
        <time>2022-05-17T12:44:09.562Z</time>
      </trkpt>
      <trkpt lat="49.77908" lon="4.74906">
        <ele>182</ele>
        <time>2022-05-17T12:44:10.528Z</time>
      </trkpt>
      <trkpt lat="49.77913" lon="4.74906">
        <ele>183</ele>
        <time>2022-05-17T12:44:11.552Z</time>
      </trkpt>
      <trkpt lat="49.77913" lon="4.74906">
        <ele>183</ele>
        <time>2022-05-17T12:44:12.559Z</time>
      </trkpt>
      <trkpt lat="49.77917" lon="4.74906">
        <ele>184</ele>
        <time>2022-05-17T12:44:13.524Z</time>
      </trkpt>
      <trkpt lat="49.77917" lon="4.74906">
        <ele>184</ele>
        <time>2022-05-17T12:44:14.525Z</time>
      </trkpt>
      <trkpt lat="49.77921" lon="4.74906">
        <ele>184</ele>
        <time>2022-05-17T12:44:15.527Z</time>
      </trkpt>
      <trkpt lat="49.77921" lon="4.74906">
        <ele>184</ele>
        <time>2022-05-17T12:44:16.534Z</time>
      </trkpt>
      <trkpt lat="49.77925" lon="4.74907">
        <ele>184</ele>
        <time>2022-05-17T12:44:17.556Z</time>
      </trkpt>
      <trkpt lat="49.77927" lon="4.74907">
        <ele>185</ele>
        <time>2022-05-17T12:44:18.557Z</time>
      </trkpt>
      <trkpt lat="49.77927" lon="4.74907">
        <ele>185</ele>
        <time>2022-05-17T12:44:19.563Z</time>
      </trkpt>
      <trkpt lat="49.77931" lon="4.74908">
        <ele>185</ele>
        <time>2022-05-17T12:44:20.544Z</time>
      </trkpt>
      <trkpt lat="49.77931" lon="4.74908">
        <ele>185</ele>
        <time>2022-05-17T12:44:21.561Z</time>
      </trkpt>
      <trkpt lat="49.77935" lon="4.74908">
        <ele>186</ele>
        <time>2022-05-17T12:44:22.541Z</time>
      </trkpt>
      <trkpt lat="49.77937" lon="4.74909">
        <ele>186</ele>
        <time>2022-05-17T12:44:23.529Z</time>
      </trkpt>
      <trkpt lat="49.77937" lon="4.74909">
        <ele>186</ele>
        <time>2022-05-17T12:44:24.537Z</time>
      </trkpt>
      <trkpt lat="49.77942" lon="4.7491">
        <ele>187</ele>
        <time>2022-05-17T12:44:25.562Z</time>
      </trkpt>
      <trkpt lat="49.77942" lon="4.7491">
        <ele>187</ele>
        <time>2022-05-17T12:44:26.528Z</time>
      </trkpt>
      <trkpt lat="49.77946" lon="4.7491">
        <ele>188</ele>
        <time>2022-05-17T12:44:27.562Z</time>
      </trkpt>
      <trkpt lat="49.77948" lon="4.7491">
        <ele>188</ele>
        <time>2022-05-17T12:44:28.562Z</time>
      </trkpt>
      <trkpt lat="49.77948" lon="4.7491">
        <ele>188</ele>
        <time>2022-05-17T12:44:29.528Z</time>
      </trkpt>
      <trkpt lat="49.77952" lon="4.7491">
        <ele>188</ele>
        <time>2022-05-17T12:44:30.538Z</time>
      </trkpt>
      <trkpt lat="49.77954" lon="4.7491">
        <ele>188</ele>
        <time>2022-05-17T12:44:31.560Z</time>
      </trkpt>
      <trkpt lat="49.77954" lon="4.7491">
        <ele>188</ele>
        <time>2022-05-17T12:44:32.526Z</time>
      </trkpt>
      <trkpt lat="49.77958" lon="4.74909">
        <ele>188</ele>
        <time>2022-05-17T12:44:33.525Z</time>
      </trkpt>
      <trkpt lat="49.77958" lon="4.74909">
        <ele>188</ele>
        <time>2022-05-17T12:44:34.531Z</time>
      </trkpt>
      <trkpt lat="49.77962" lon="4.74909">
        <ele>188</ele>
        <time>2022-05-17T12:44:35.555Z</time>
      </trkpt>
      <trkpt lat="49.77962" lon="4.74909">
        <ele>188</ele>
        <time>2022-05-17T12:44:36.562Z</time>
      </trkpt>
      <trkpt lat="49.77965" lon="4.74908">
        <ele>189</ele>
        <time>2022-05-17T12:44:37.536Z</time>
      </trkpt>
      <trkpt lat="49.77967" lon="4.74907">
        <ele>190</ele>
        <time>2022-05-17T12:44:38.527Z</time>
      </trkpt>
      <trkpt lat="49.77967" lon="4.74907">
        <ele>190</ele>
        <time>2022-05-17T12:44:39.532Z</time>
      </trkpt>
      <trkpt lat="49.7797" lon="4.74904">
        <ele>190</ele>
        <time>2022-05-17T12:44:40.562Z</time>
      </trkpt>
      <trkpt lat="49.7797" lon="4.74904">
        <ele>190</ele>
        <time>2022-05-17T12:44:41.528Z</time>
      </trkpt>
      <trkpt lat="49.77974" lon="4.74901">
        <ele>191</ele>
        <time>2022-05-17T12:44:42.544Z</time>
      </trkpt>
      <trkpt lat="49.77975" lon="4.74898">
        <ele>192</ele>
        <time>2022-05-17T12:44:43.553Z</time>
      </trkpt>
      <trkpt lat="49.77975" lon="4.74898">
        <ele>192</ele>
        <time>2022-05-17T12:44:44.559Z</time>
      </trkpt>
      <trkpt lat="49.77977" lon="4.74893">
        <ele>192</ele>
        <time>2022-05-17T12:44:45.535Z</time>
      </trkpt>
      <trkpt lat="49.77978" lon="4.74891">
        <ele>192</ele>
        <time>2022-05-17T12:44:46.546Z</time>
      </trkpt>
      <trkpt lat="49.77979" lon="4.74889">
        <ele>192</ele>
        <time>2022-05-17T12:44:47.558Z</time>
      </trkpt>
      <trkpt lat="49.77979" lon="4.74889">
        <ele>192</ele>
        <time>2022-05-17T12:44:48.563Z</time>
      </trkpt>
      <trkpt lat="49.77982" lon="4.74886">
        <ele>192</ele>
        <time>2022-05-17T12:44:49.558Z</time>
      </trkpt>
      <trkpt lat="49.77982" lon="4.74886">
        <ele>192</ele>
        <time>2022-05-17T12:44:50.529Z</time>
      </trkpt>
      <trkpt lat="49.77986" lon="4.74886">
        <ele>192</ele>
        <time>2022-05-17T12:44:51.545Z</time>
      </trkpt>
      <trkpt lat="49.77986" lon="4.74886">
        <ele>192</ele>
        <time>2022-05-17T12:44:52.550Z</time>
      </trkpt>
      <trkpt lat="49.77991" lon="4.74888">
        <ele>192</ele>
        <time>2022-05-17T12:44:53.534Z</time>
      </trkpt>
      <trkpt lat="49.77991" lon="4.74888">
        <ele>192</ele>
        <time>2022-05-17T12:44:54.542Z</time>
      </trkpt>
      <trkpt lat="49.77995" lon="4.74891">
        <ele>191</ele>
        <time>2022-05-17T12:44:55.560Z</time>
      </trkpt>
      <trkpt lat="49.77995" lon="4.74891">
        <ele>191</ele>
        <time>2022-05-17T12:44:56.526Z</time>
      </trkpt>
      <trkpt lat="49.78" lon="4.74894">
        <ele>191</ele>
        <time>2022-05-17T12:44:57.540Z</time>
      </trkpt>
      <trkpt lat="49.78" lon="4.74894">
        <ele>191</ele>
        <time>2022-05-17T12:44:58.546Z</time>
      </trkpt>
      <trkpt lat="49.78006" lon="4.74898">
        <ele>191</ele>
        <time>2022-05-17T12:44:59.530Z</time>
      </trkpt>
      <trkpt lat="49.78006" lon="4.74898">
        <ele>191</ele>
        <time>2022-05-17T12:45:00.540Z</time>
      </trkpt>
      <trkpt lat="49.78012" lon="4.74901">
        <ele>191</ele>
        <time>2022-05-17T12:45:01.533Z</time>
      </trkpt>
      <trkpt lat="49.78012" lon="4.74901">
        <ele>191</ele>
        <time>2022-05-17T12:45:02.549Z</time>
      </trkpt>
      <trkpt lat="49.7802" lon="4.74903">
        <ele>192</ele>
        <time>2022-05-17T12:45:03.561Z</time>
      </trkpt>
      <trkpt lat="49.7802" lon="4.74903">
        <ele>192</ele>
        <time>2022-05-17T12:45:04.526Z</time>
      </trkpt>
      <trkpt lat="49.78026" lon="4.74903">
        <ele>192</ele>
        <time>2022-05-17T12:45:05.542Z</time>
      </trkpt>
      <trkpt lat="49.78026" lon="4.74903">
        <ele>192</ele>
        <time>2022-05-17T12:45:06.549Z</time>
      </trkpt>
      <trkpt lat="49.78032" lon="4.74905">
        <ele>192</ele>
        <time>2022-05-17T12:45:07.563Z</time>
      </trkpt>
      <trkpt lat="49.78035" lon="4.74906">
        <ele>192</ele>
        <time>2022-05-17T12:45:08.539Z</time>
      </trkpt>
      <trkpt lat="49.78035" lon="4.74906">
        <ele>192</ele>
        <time>2022-05-17T12:45:09.546Z</time>
      </trkpt>
      <trkpt lat="49.7804" lon="4.74909">
        <ele>192</ele>
        <time>2022-05-17T12:45:10.558Z</time>
      </trkpt>
      <trkpt lat="49.78042" lon="4.7491">
        <ele>191</ele>
        <time>2022-05-17T12:45:11.529Z</time>
      </trkpt>
      <trkpt lat="49.78042" lon="4.7491">
        <ele>191</ele>
        <time>2022-05-17T12:45:12.542Z</time>
      </trkpt>
      <trkpt lat="49.78046" lon="4.74912">
        <ele>191</ele>
        <time>2022-05-17T12:45:13.555Z</time>
      </trkpt>
      <trkpt lat="49.78046" lon="4.74912">
        <ele>191</ele>
        <time>2022-05-17T12:45:14.526Z</time>
      </trkpt>
      <trkpt lat="49.78052" lon="4.74915">
        <ele>191</ele>
        <time>2022-05-17T12:45:15.535Z</time>
      </trkpt>
      <trkpt lat="49.78052" lon="4.74915">
        <ele>191</ele>
        <time>2022-05-17T12:45:16.545Z</time>
      </trkpt>
      <trkpt lat="49.78058" lon="4.74916">
        <ele>192</ele>
        <time>2022-05-17T12:45:17.563Z</time>
      </trkpt>
      <trkpt lat="49.7806" lon="4.74917">
        <ele>192</ele>
        <time>2022-05-17T12:45:18.549Z</time>
      </trkpt>
      <trkpt lat="49.7806" lon="4.74917">
        <ele>192</ele>
        <time>2022-05-17T12:45:19.553Z</time>
      </trkpt>
      <trkpt lat="49.78066" lon="4.74919">
        <ele>193</ele>
        <time>2022-05-17T12:45:20.532Z</time>
      </trkpt>
      <trkpt lat="49.78069" lon="4.7492">
        <ele>193</ele>
        <time>2022-05-17T12:45:21.525Z</time>
      </trkpt>
      <trkpt lat="49.78069" lon="4.7492">
        <ele>193</ele>
        <time>2022-05-17T12:45:22.531Z</time>
      </trkpt>
      <trkpt lat="49.78076" lon="4.74923">
        <ele>193</ele>
        <time>2022-05-17T12:45:23.555Z</time>
      </trkpt>
      <trkpt lat="49.78076" lon="4.74923">
        <ele>193</ele>
        <time>2022-05-17T12:45:24.561Z</time>
      </trkpt>
      <trkpt lat="49.78084" lon="4.74926">
        <ele>193</ele>
        <time>2022-05-17T12:45:25.538Z</time>
      </trkpt>
      <trkpt lat="49.78084" lon="4.74926">
        <ele>193</ele>
        <time>2022-05-17T12:45:26.547Z</time>
      </trkpt>
      <trkpt lat="49.7809" lon="4.74927">
        <ele>193</ele>
        <time>2022-05-17T12:45:27.537Z</time>
      </trkpt>
      <trkpt lat="49.7809" lon="4.74927">
        <ele>193</ele>
        <time>2022-05-17T12:45:28.526Z</time>
      </trkpt>
      <trkpt lat="49.78095" lon="4.74928">
        <ele>193</ele>
        <time>2022-05-17T12:45:29.548Z</time>
      </trkpt>
      <trkpt lat="49.78095" lon="4.74928">
        <ele>193</ele>
        <time>2022-05-17T12:45:30.553Z</time>
      </trkpt>
      <trkpt lat="49.781" lon="4.7493">
        <ele>194</ele>
        <time>2022-05-17T12:45:31.533Z</time>
      </trkpt>
      <trkpt lat="49.781" lon="4.7493">
        <ele>194</ele>
        <time>2022-05-17T12:45:32.543Z</time>
      </trkpt>
      <trkpt lat="49.78105" lon="4.74931">
        <ele>194</ele>
        <time>2022-05-17T12:45:33.531Z</time>
      </trkpt>
      <trkpt lat="49.78107" lon="4.74932">
        <ele>194</ele>
        <time>2022-05-17T12:45:34.541Z</time>
      </trkpt>
      <trkpt lat="49.78107" lon="4.74932">
        <ele>194</ele>
        <time>2022-05-17T12:45:35.545Z</time>
      </trkpt>
      <trkpt lat="49.78113" lon="4.74934">
        <ele>194</ele>
        <time>2022-05-17T12:45:36.559Z</time>
      </trkpt>
      <trkpt lat="49.78117" lon="4.74935">
        <ele>195</ele>
        <time>2022-05-17T12:45:37.545Z</time>
      </trkpt>
      <trkpt lat="49.78117" lon="4.74935">
        <ele>195</ele>
        <time>2022-05-17T12:45:38.551Z</time>
      </trkpt>
      <trkpt lat="49.78124" lon="4.74936">
        <ele>195</ele>
        <time>2022-05-17T12:45:39.543Z</time>
      </trkpt>
      <trkpt lat="49.78124" lon="4.74936">
        <ele>195</ele>
        <time>2022-05-17T12:45:40.548Z</time>
      </trkpt>
      <trkpt lat="49.78129" lon="4.74937">
        <ele>194</ele>
        <time>2022-05-17T12:45:41.533Z</time>
      </trkpt>
      <trkpt lat="49.78129" lon="4.74937">
        <ele>194</ele>
        <time>2022-05-17T12:45:42.542Z</time>
      </trkpt>
      <trkpt lat="49.78135" lon="4.74938">
        <ele>193</ele>
        <time>2022-05-17T12:45:43.534Z</time>
      </trkpt>
      <trkpt lat="49.78135" lon="4.74938">
        <ele>193</ele>
        <time>2022-05-17T12:45:44.539Z</time>
      </trkpt>
      <trkpt lat="49.7814" lon="4.74939">
        <ele>193</ele>
        <time>2022-05-17T12:45:45.558Z</time>
      </trkpt>
      <trkpt lat="49.78142" lon="4.74939">
        <ele>194</ele>
        <time>2022-05-17T12:45:46.530Z</time>
      </trkpt>
      <trkpt lat="49.78142" lon="4.74939">
        <ele>194</ele>
        <time>2022-05-17T12:45:47.539Z</time>
      </trkpt>
      <trkpt lat="49.78147" lon="4.74941">
        <ele>194</ele>
        <time>2022-05-17T12:45:48.551Z</time>
      </trkpt>
      <trkpt lat="49.78149" lon="4.74943">
        <ele>194</ele>
        <time>2022-05-17T12:45:49.527Z</time>
      </trkpt>
      <trkpt lat="49.78149" lon="4.74943">
        <ele>194</ele>
        <time>2022-05-17T12:45:50.540Z</time>
      </trkpt>
      <trkpt lat="49.78154" lon="4.74947">
        <ele>194</ele>
        <time>2022-05-17T12:45:51.554Z</time>
      </trkpt>
      <trkpt lat="49.78154" lon="4.74947">
        <ele>194</ele>
        <time>2022-05-17T12:45:52.560Z</time>
      </trkpt>
      <trkpt lat="49.78158" lon="4.74953">
        <ele>194</ele>
        <time>2022-05-17T12:45:53.554Z</time>
      </trkpt>
      <trkpt lat="49.78158" lon="4.74953">
        <ele>194</ele>
        <time>2022-05-17T12:45:54.560Z</time>
      </trkpt>
      <trkpt lat="49.78164" lon="4.74963">
        <ele>194</ele>
        <time>2022-05-17T12:45:55.533Z</time>
      </trkpt>
      <trkpt lat="49.78167" lon="4.74969">
        <ele>193</ele>
        <time>2022-05-17T12:45:56.545Z</time>
      </trkpt>
      <trkpt lat="49.78167" lon="4.74969">
        <ele>193</ele>
        <time>2022-05-17T12:45:57.551Z</time>
      </trkpt>
      <trkpt lat="49.78174" lon="4.74979">
        <ele>193</ele>
        <time>2022-05-17T12:45:58.534Z</time>
      </trkpt>
      <trkpt lat="49.78178" lon="4.74984">
        <ele>193</ele>
        <time>2022-05-17T12:45:59.548Z</time>
      </trkpt>
      <trkpt lat="49.78178" lon="4.74984">
        <ele>193</ele>
        <time>2022-05-17T12:46:00.555Z</time>
      </trkpt>
      <trkpt lat="49.78185" lon="4.74992">
        <ele>193</ele>
        <time>2022-05-17T12:46:01.527Z</time>
      </trkpt>
      <trkpt lat="49.78185" lon="4.74992">
        <ele>193</ele>
        <time>2022-05-17T12:46:02.533Z</time>
      </trkpt>
      <trkpt lat="49.78192" lon="4.74999">
        <ele>193</ele>
        <time>2022-05-17T12:46:03.534Z</time>
      </trkpt>
      <trkpt lat="49.78192" lon="4.74999">
        <ele>193</ele>
        <time>2022-05-17T12:46:04.547Z</time>
      </trkpt>
      <trkpt lat="49.78198" lon="4.75005">
        <ele>193</ele>
        <time>2022-05-17T12:46:05.558Z</time>
      </trkpt>
      <trkpt lat="49.78198" lon="4.75005">
        <ele>193</ele>
        <time>2022-05-17T12:46:06.563Z</time>
      </trkpt>
      <trkpt lat="49.78205" lon="4.75013">
        <ele>192</ele>
        <time>2022-05-17T12:46:07.538Z</time>
      </trkpt>
      <trkpt lat="49.78205" lon="4.75013">
        <ele>192</ele>
        <time>2022-05-17T12:46:08.556Z</time>
      </trkpt>
      <trkpt lat="49.78212" lon="4.7502">
        <ele>193</ele>
        <time>2022-05-17T12:46:09.554Z</time>
      </trkpt>
      <trkpt lat="49.78212" lon="4.7502">
        <ele>193</ele>
        <time>2022-05-17T12:46:10.559Z</time>
      </trkpt>
      <trkpt lat="49.78217" lon="4.75024">
        <ele>192</ele>
        <time>2022-05-17T12:46:11.538Z</time>
      </trkpt>
      <trkpt lat="49.7822" lon="4.75027">
        <ele>192</ele>
        <time>2022-05-17T12:46:12.553Z</time>
      </trkpt>
      <trkpt lat="49.78222" lon="4.75029">
        <ele>191</ele>
        <time>2022-05-17T12:46:13.539Z</time>
      </trkpt>
      <trkpt lat="49.78222" lon="4.75029">
        <ele>191</ele>
        <time>2022-05-17T12:46:14.545Z</time>
      </trkpt>
      <trkpt lat="49.78227" lon="4.75033">
        <ele>192</ele>
        <time>2022-05-17T12:46:15.525Z</time>
      </trkpt>
      <trkpt lat="49.78227" lon="4.75033">
        <ele>192</ele>
        <time>2022-05-17T12:46:16.531Z</time>
      </trkpt>
      <trkpt lat="49.78232" lon="4.75037">
        <ele>192</ele>
        <time>2022-05-17T12:46:17.554Z</time>
      </trkpt>
      <trkpt lat="49.78235" lon="4.75039">
        <ele>192</ele>
        <time>2022-05-17T12:46:18.532Z</time>
      </trkpt>
      <trkpt lat="49.78238" lon="4.75041">
        <ele>192</ele>
        <time>2022-05-17T12:46:19.548Z</time>
      </trkpt>
      <trkpt lat="49.78238" lon="4.75041">
        <ele>192</ele>
        <time>2022-05-17T12:46:20.553Z</time>
      </trkpt>
      <trkpt lat="49.78243" lon="4.75043">
        <ele>193</ele>
        <time>2022-05-17T12:46:21.560Z</time>
      </trkpt>
      <trkpt lat="49.78243" lon="4.75043">
        <ele>193</ele>
        <time>2022-05-17T12:46:22.526Z</time>
      </trkpt>
      <trkpt lat="49.78248" lon="4.75045">
        <ele>193</ele>
        <time>2022-05-17T12:46:23.555Z</time>
      </trkpt>
      <trkpt lat="49.78248" lon="4.75045">
        <ele>193</ele>
        <time>2022-05-17T12:46:24.562Z</time>
      </trkpt>
      <trkpt lat="49.78254" lon="4.75048">
        <ele>195</ele>
        <time>2022-05-17T12:46:25.534Z</time>
      </trkpt>
      <trkpt lat="49.78256" lon="4.7505">
        <ele>196</ele>
        <time>2022-05-17T12:46:26.536Z</time>
      </trkpt>
      <trkpt lat="49.78256" lon="4.7505">
        <ele>196</ele>
        <time>2022-05-17T12:46:27.545Z</time>
      </trkpt>
      <trkpt lat="49.7826" lon="4.75053">
        <ele>196</ele>
        <time>2022-05-17T12:46:28.558Z</time>
      </trkpt>
      <trkpt lat="49.78263" lon="4.75054">
        <ele>196</ele>
        <time>2022-05-17T12:46:29.545Z</time>
      </trkpt>
      <trkpt lat="49.78263" lon="4.75054">
        <ele>196</ele>
        <time>2022-05-17T12:46:30.550Z</time>
      </trkpt>
      <trkpt lat="49.78267" lon="4.75056">
        <ele>196</ele>
        <time>2022-05-17T12:46:31.527Z</time>
      </trkpt>
      <trkpt lat="49.78267" lon="4.75056">
        <ele>196</ele>
        <time>2022-05-17T12:46:32.533Z</time>
      </trkpt>
      <trkpt lat="49.78271" lon="4.75059">
        <ele>197</ele>
        <time>2022-05-17T12:46:33.525Z</time>
      </trkpt>
      <trkpt lat="49.78271" lon="4.75059">
        <ele>197</ele>
        <time>2022-05-17T12:46:34.531Z</time>
      </trkpt>
      <trkpt lat="49.78277" lon="4.75063">
        <ele>197</ele>
        <time>2022-05-17T12:46:35.551Z</time>
      </trkpt>
      <trkpt lat="49.78279" lon="4.75065">
        <ele>198</ele>
        <time>2022-05-17T12:46:36.525Z</time>
      </trkpt>
      <trkpt lat="49.78282" lon="4.75066">
        <ele>198</ele>
        <time>2022-05-17T12:46:37.546Z</time>
      </trkpt>
      <trkpt lat="49.78282" lon="4.75066">
        <ele>198</ele>
        <time>2022-05-17T12:46:38.551Z</time>
      </trkpt>
      <trkpt lat="49.78287" lon="4.7507">
        <ele>199</ele>
        <time>2022-05-17T12:46:39.532Z</time>
      </trkpt>
      <trkpt lat="49.7829" lon="4.75073">
        <ele>200</ele>
        <time>2022-05-17T12:46:40.549Z</time>
      </trkpt>
      <trkpt lat="49.7829" lon="4.75073">
        <ele>200</ele>
        <time>2022-05-17T12:46:41.554Z</time>
      </trkpt>
      <trkpt lat="49.78297" lon="4.75078">
        <ele>201</ele>
        <time>2022-05-17T12:46:42.537Z</time>
      </trkpt>
      <trkpt lat="49.78299" lon="4.7508">
        <ele>201</ele>
        <time>2022-05-17T12:46:43.557Z</time>
      </trkpt>
      <trkpt lat="49.78299" lon="4.7508">
        <ele>201</ele>
        <time>2022-05-17T12:46:44.563Z</time>
      </trkpt>
      <trkpt lat="49.78304" lon="4.75083">
        <ele>202</ele>
        <time>2022-05-17T12:46:45.542Z</time>
      </trkpt>
      <trkpt lat="49.78306" lon="4.75085">
        <ele>202</ele>
        <time>2022-05-17T12:46:46.527Z</time>
      </trkpt>
      <trkpt lat="49.78306" lon="4.75085">
        <ele>202</ele>
        <time>2022-05-17T12:46:47.533Z</time>
      </trkpt>
      <trkpt lat="49.78311" lon="4.75089">
        <ele>202</ele>
        <time>2022-05-17T12:46:48.558Z</time>
      </trkpt>
      <trkpt lat="49.78313" lon="4.7509">
        <ele>203</ele>
        <time>2022-05-17T12:46:49.547Z</time>
      </trkpt>
      <trkpt lat="49.78313" lon="4.7509">
        <ele>203</ele>
        <time>2022-05-17T12:46:50.554Z</time>
      </trkpt>
      <trkpt lat="49.78318" lon="4.75093">
        <ele>203</ele>
        <time>2022-05-17T12:46:51.531Z</time>
      </trkpt>
      <trkpt lat="49.78318" lon="4.75093">
        <ele>203</ele>
        <time>2022-05-17T12:46:52.546Z</time>
      </trkpt>
      <trkpt lat="49.78323" lon="4.75096">
        <ele>204</ele>
        <time>2022-05-17T12:46:53.527Z</time>
      </trkpt>
      <trkpt lat="49.78325" lon="4.75097">
        <ele>204</ele>
        <time>2022-05-17T12:46:54.560Z</time>
      </trkpt>
      <trkpt lat="49.78325" lon="4.75097">
        <ele>204</ele>
        <time>2022-05-17T12:46:55.525Z</time>
      </trkpt>
      <trkpt lat="49.7833" lon="4.751">
        <ele>204</ele>
        <time>2022-05-17T12:46:56.539Z</time>
      </trkpt>
      <trkpt lat="49.78332" lon="4.75102">
        <ele>204</ele>
        <time>2022-05-17T12:46:57.550Z</time>
      </trkpt>
      <trkpt lat="49.78332" lon="4.75102">
        <ele>204</ele>
        <time>2022-05-17T12:46:58.556Z</time>
      </trkpt>
      <trkpt lat="49.78336" lon="4.75106">
        <ele>204</ele>
        <time>2022-05-17T12:46:59.557Z</time>
      </trkpt>
      <trkpt lat="49.78336" lon="4.75106">
        <ele>204</ele>
        <time>2022-05-17T12:47:00.524Z</time>
      </trkpt>
      <trkpt lat="49.78341" lon="4.75109">
        <ele>205</ele>
        <time>2022-05-17T12:47:01.539Z</time>
      </trkpt>
      <trkpt lat="49.78341" lon="4.75109">
        <ele>205</ele>
        <time>2022-05-17T12:47:02.548Z</time>
      </trkpt>
      <trkpt lat="49.78346" lon="4.75112">
        <ele>205</ele>
        <time>2022-05-17T12:47:03.531Z</time>
      </trkpt>
      <trkpt lat="49.78346" lon="4.75112">
        <ele>205</ele>
        <time>2022-05-17T12:47:04.561Z</time>
      </trkpt>
      <trkpt lat="49.78352" lon="4.75114">
        <ele>205</ele>
        <time>2022-05-17T12:47:05.534Z</time>
      </trkpt>
      <trkpt lat="49.78352" lon="4.75114">
        <ele>205</ele>
        <time>2022-05-17T12:47:06.545Z</time>
      </trkpt>
      <trkpt lat="49.78357" lon="4.75117">
        <ele>205</ele>
        <time>2022-05-17T12:47:07.563Z</time>
      </trkpt>
      <trkpt lat="49.78359" lon="4.75118">
        <ele>205</ele>
        <time>2022-05-17T12:47:08.538Z</time>
      </trkpt>
      <trkpt lat="49.78359" lon="4.75118">
        <ele>205</ele>
        <time>2022-05-17T12:47:09.544Z</time>
      </trkpt>
      <trkpt lat="49.78365" lon="4.75122">
        <ele>205</ele>
        <time>2022-05-17T12:47:10.556Z</time>
      </trkpt>
      <trkpt lat="49.78365" lon="4.75122">
        <ele>205</ele>
        <time>2022-05-17T12:47:11.562Z</time>
      </trkpt>
      <trkpt lat="49.7837" lon="4.75127">
        <ele>204</ele>
        <time>2022-05-17T12:47:12.531Z</time>
      </trkpt>
      <trkpt lat="49.78373" lon="4.75128">
        <ele>204</ele>
        <time>2022-05-17T12:47:13.546Z</time>
      </trkpt>
      <trkpt lat="49.78373" lon="4.75128">
        <ele>204</ele>
        <time>2022-05-17T12:47:14.551Z</time>
      </trkpt>
      <trkpt lat="49.78378" lon="4.75133">
        <ele>203</ele>
        <time>2022-05-17T12:47:15.537Z</time>
      </trkpt>
      <trkpt lat="49.7838" lon="4.75135">
        <ele>203</ele>
        <time>2022-05-17T12:47:16.556Z</time>
      </trkpt>
      <trkpt lat="49.7838" lon="4.75135">
        <ele>203</ele>
        <time>2022-05-17T12:47:17.561Z</time>
      </trkpt>
      <trkpt lat="49.78384" lon="4.75138">
        <ele>203</ele>
        <time>2022-05-17T12:47:18.538Z</time>
      </trkpt>
      <trkpt lat="49.78387" lon="4.7514">
        <ele>203</ele>
        <time>2022-05-17T12:47:19.562Z</time>
      </trkpt>
      <trkpt lat="49.78387" lon="4.7514">
        <ele>203</ele>
        <time>2022-05-17T12:47:20.528Z</time>
      </trkpt>
      <trkpt lat="49.78391" lon="4.75143">
        <ele>203</ele>
        <time>2022-05-17T12:47:21.536Z</time>
      </trkpt>
      <trkpt lat="49.78391" lon="4.75143">
        <ele>203</ele>
        <time>2022-05-17T12:47:22.543Z</time>
      </trkpt>
      <trkpt lat="49.78396" lon="4.75147">
        <ele>203</ele>
        <time>2022-05-17T12:47:23.529Z</time>
      </trkpt>
      <trkpt lat="49.78399" lon="4.7515">
        <ele>203</ele>
        <time>2022-05-17T12:47:24.543Z</time>
      </trkpt>
      <trkpt lat="49.78399" lon="4.7515">
        <ele>203</ele>
        <time>2022-05-17T12:47:25.549Z</time>
      </trkpt>
      <trkpt lat="49.78405" lon="4.75153">
        <ele>202</ele>
        <time>2022-05-17T12:47:26.531Z</time>
      </trkpt>
      <trkpt lat="49.78405" lon="4.75153">
        <ele>202</ele>
        <time>2022-05-17T12:47:27.556Z</time>
      </trkpt>
      <trkpt lat="49.7841" lon="4.75157">
        <ele>202</ele>
        <time>2022-05-17T12:47:28.535Z</time>
      </trkpt>
      <trkpt lat="49.7841" lon="4.75157">
        <ele>202</ele>
        <time>2022-05-17T12:47:29.549Z</time>
      </trkpt>
      <trkpt lat="49.78415" lon="4.7516">
        <ele>202</ele>
        <time>2022-05-17T12:47:30.563Z</time>
      </trkpt>
      <trkpt lat="49.78418" lon="4.75161">
        <ele>202</ele>
        <time>2022-05-17T12:47:31.538Z</time>
      </trkpt>
      <trkpt lat="49.78418" lon="4.75161">
        <ele>202</ele>
        <time>2022-05-17T12:47:32.544Z</time>
      </trkpt>
      <trkpt lat="49.78423" lon="4.75165">
        <ele>202</ele>
        <time>2022-05-17T12:47:33.544Z</time>
      </trkpt>
      <trkpt lat="49.78423" lon="4.75165">
        <ele>202</ele>
        <time>2022-05-17T12:47:34.550Z</time>
      </trkpt>
      <trkpt lat="49.78428" lon="4.75168">
        <ele>202</ele>
        <time>2022-05-17T12:47:35.525Z</time>
      </trkpt>
      <trkpt lat="49.78428" lon="4.75168">
        <ele>202</ele>
        <time>2022-05-17T12:47:36.530Z</time>
      </trkpt>
      <trkpt lat="49.78434" lon="4.75172">
        <ele>202</ele>
        <time>2022-05-17T12:47:37.551Z</time>
      </trkpt>
      <trkpt lat="49.78434" lon="4.75172">
        <ele>202</ele>
        <time>2022-05-17T12:47:38.529Z</time>
      </trkpt>
      <trkpt lat="49.7844" lon="4.75176">
        <ele>202</ele>
        <time>2022-05-17T12:47:39.540Z</time>
      </trkpt>
      <trkpt lat="49.7844" lon="4.75176">
        <ele>202</ele>
        <time>2022-05-17T12:47:40.553Z</time>
      </trkpt>
      <trkpt lat="49.78446" lon="4.7518">
        <ele>202</ele>
        <time>2022-05-17T12:47:41.537Z</time>
      </trkpt>
      <trkpt lat="49.78446" lon="4.7518">
        <ele>202</ele>
        <time>2022-05-17T12:47:42.545Z</time>
      </trkpt>
      <trkpt lat="49.78452" lon="4.75185">
        <ele>201</ele>
        <time>2022-05-17T12:47:43.525Z</time>
      </trkpt>
      <trkpt lat="49.78452" lon="4.75185">
        <ele>201</ele>
        <time>2022-05-17T12:47:44.542Z</time>
      </trkpt>
      <trkpt lat="49.78458" lon="4.7519">
        <ele>201</ele>
        <time>2022-05-17T12:47:45.562Z</time>
      </trkpt>
      <trkpt lat="49.78458" lon="4.7519">
        <ele>201</ele>
        <time>2022-05-17T12:47:46.528Z</time>
      </trkpt>
      <trkpt lat="49.78465" lon="4.75195">
        <ele>201</ele>
        <time>2022-05-17T12:47:47.557Z</time>
      </trkpt>
      <trkpt lat="49.78465" lon="4.75195">
        <ele>201</ele>
        <time>2022-05-17T12:47:48.533Z</time>
      </trkpt>
      <trkpt lat="49.78475" lon="4.75201">
        <ele>202</ele>
        <time>2022-05-17T12:47:49.556Z</time>
      </trkpt>
      <trkpt lat="49.78475" lon="4.75201">
        <ele>202</ele>
        <time>2022-05-17T12:47:50.528Z</time>
      </trkpt>
      <trkpt lat="49.78483" lon="4.75206">
        <ele>203</ele>
        <time>2022-05-17T12:47:51.546Z</time>
      </trkpt>
      <trkpt lat="49.78483" lon="4.75206">
        <ele>203</ele>
        <time>2022-05-17T12:47:52.551Z</time>
      </trkpt>
      <trkpt lat="49.78491" lon="4.7521">
        <ele>203</ele>
        <time>2022-05-17T12:47:53.554Z</time>
      </trkpt>
      <trkpt lat="49.78491" lon="4.7521">
        <ele>203</ele>
        <time>2022-05-17T12:47:54.561Z</time>
      </trkpt>
      <trkpt lat="49.78499" lon="4.75213">
        <ele>204</ele>
        <time>2022-05-17T12:47:55.563Z</time>
      </trkpt>
      <trkpt lat="49.78503" lon="4.75215">
        <ele>204</ele>
        <time>2022-05-17T12:47:56.547Z</time>
      </trkpt>
      <trkpt lat="49.78503" lon="4.75215">
        <ele>204</ele>
        <time>2022-05-17T12:47:57.552Z</time>
      </trkpt>
      <trkpt lat="49.7851" lon="4.75219">
        <ele>204</ele>
        <time>2022-05-17T12:47:58.525Z</time>
      </trkpt>
      <trkpt lat="49.7851" lon="4.75219">
        <ele>204</ele>
        <time>2022-05-17T12:47:59.531Z</time>
      </trkpt>
      <trkpt lat="49.78517" lon="4.75223">
        <ele>205</ele>
        <time>2022-05-17T12:48:00.532Z</time>
      </trkpt>
      <trkpt lat="49.78517" lon="4.75223">
        <ele>205</ele>
        <time>2022-05-17T12:48:01.538Z</time>
      </trkpt>
      <trkpt lat="49.78524" lon="4.75227">
        <ele>205</ele>
        <time>2022-05-17T12:48:02.557Z</time>
      </trkpt>
      <trkpt lat="49.78524" lon="4.75227">
        <ele>205</ele>
        <time>2022-05-17T12:48:03.562Z</time>
      </trkpt>
      <trkpt lat="49.78532" lon="4.7523">
        <ele>206</ele>
        <time>2022-05-17T12:48:04.543Z</time>
      </trkpt>
      <trkpt lat="49.78532" lon="4.7523">
        <ele>206</ele>
        <time>2022-05-17T12:48:05.548Z</time>
      </trkpt>
      <trkpt lat="49.78539" lon="4.75233">
        <ele>206</ele>
        <time>2022-05-17T12:48:06.528Z</time>
      </trkpt>
      <trkpt lat="49.78543" lon="4.75235">
        <ele>206</ele>
        <time>2022-05-17T12:48:07.541Z</time>
      </trkpt>
      <trkpt lat="49.78547" lon="4.75236">
        <ele>206</ele>
        <time>2022-05-17T12:48:08.559Z</time>
      </trkpt>
      <trkpt lat="49.78547" lon="4.75236">
        <ele>206</ele>
        <time>2022-05-17T12:48:09.524Z</time>
      </trkpt>
      <trkpt lat="49.78554" lon="4.75239">
        <ele>206</ele>
        <time>2022-05-17T12:48:10.561Z</time>
      </trkpt>
      <trkpt lat="49.78554" lon="4.75239">
        <ele>206</ele>
        <time>2022-05-17T12:48:11.526Z</time>
      </trkpt>
      <trkpt lat="49.78561" lon="4.75242">
        <ele>206</ele>
        <time>2022-05-17T12:48:12.544Z</time>
      </trkpt>
      <trkpt lat="49.78564" lon="4.75244">
        <ele>206</ele>
        <time>2022-05-17T12:48:13.535Z</time>
      </trkpt>
      <trkpt lat="49.78564" lon="4.75244">
        <ele>206</ele>
        <time>2022-05-17T12:48:14.547Z</time>
      </trkpt>
      <trkpt lat="49.78571" lon="4.75247">
        <ele>205</ele>
        <time>2022-05-17T12:48:15.544Z</time>
      </trkpt>
      <trkpt lat="49.78571" lon="4.75247">
        <ele>205</ele>
        <time>2022-05-17T12:48:16.550Z</time>
      </trkpt>
      <trkpt lat="49.78577" lon="4.7525">
        <ele>205</ele>
        <time>2022-05-17T12:48:17.533Z</time>
      </trkpt>
      <trkpt lat="49.78577" lon="4.7525">
        <ele>205</ele>
        <time>2022-05-17T12:48:18.541Z</time>
      </trkpt>
      <trkpt lat="49.78584" lon="4.75253">
        <ele>205</ele>
        <time>2022-05-17T12:48:19.540Z</time>
      </trkpt>
      <trkpt lat="49.78584" lon="4.75253">
        <ele>205</ele>
        <time>2022-05-17T12:48:20.526Z</time>
      </trkpt>
      <trkpt lat="49.78589" lon="4.75258">
        <ele>205</ele>
        <time>2022-05-17T12:48:21.527Z</time>
      </trkpt>
      <trkpt lat="49.78589" lon="4.75258">
        <ele>205</ele>
        <time>2022-05-17T12:48:22.532Z</time>
      </trkpt>
      <trkpt lat="49.78595" lon="4.75262">
        <ele>205</ele>
        <time>2022-05-17T12:48:23.550Z</time>
      </trkpt>
      <trkpt lat="49.78597" lon="4.75264">
        <ele>205</ele>
        <time>2022-05-17T12:48:24.558Z</time>
      </trkpt>
      <trkpt lat="49.78599" lon="4.75265">
        <ele>205</ele>
        <time>2022-05-17T12:48:25.533Z</time>
      </trkpt>
      <trkpt lat="49.78599" lon="4.75265">
        <ele>205</ele>
        <time>2022-05-17T12:48:26.542Z</time>
      </trkpt>
      <trkpt lat="49.78604" lon="4.75268">
        <ele>205</ele>
        <time>2022-05-17T12:48:27.556Z</time>
      </trkpt>
      <trkpt lat="49.78604" lon="4.75268">
        <ele>205</ele>
        <time>2022-05-17T12:48:28.561Z</time>
      </trkpt>
      <trkpt lat="49.7861" lon="4.7527">
        <ele>205</ele>
        <time>2022-05-17T12:48:29.531Z</time>
      </trkpt>
      <trkpt lat="49.7861" lon="4.7527">
        <ele>205</ele>
        <time>2022-05-17T12:48:30.544Z</time>
      </trkpt>
      <trkpt lat="49.78615" lon="4.75271">
        <ele>206</ele>
        <time>2022-05-17T12:48:31.532Z</time>
      </trkpt>
      <trkpt lat="49.78615" lon="4.75271">
        <ele>206</ele>
        <time>2022-05-17T12:48:32.539Z</time>
      </trkpt>
      <trkpt lat="49.78621" lon="4.75273">
        <ele>206</ele>
        <time>2022-05-17T12:48:33.556Z</time>
      </trkpt>
      <trkpt lat="49.78621" lon="4.75273">
        <ele>206</ele>
        <time>2022-05-17T12:48:34.547Z</time>
      </trkpt>
      <trkpt lat="49.78626" lon="4.75275">
        <ele>206</ele>
        <time>2022-05-17T12:48:35.559Z</time>
      </trkpt>
      <trkpt lat="49.78626" lon="4.75275">
        <ele>206</ele>
        <time>2022-05-17T12:48:36.525Z</time>
      </trkpt>
      <trkpt lat="49.78633" lon="4.75278">
        <ele>207</ele>
        <time>2022-05-17T12:48:37.539Z</time>
      </trkpt>
      <trkpt lat="49.78637" lon="4.75279">
        <ele>207</ele>
        <time>2022-05-17T12:48:38.562Z</time>
      </trkpt>
      <trkpt lat="49.78637" lon="4.75279">
        <ele>207</ele>
        <time>2022-05-17T12:48:39.528Z</time>
      </trkpt>
      <trkpt lat="49.78644" lon="4.75281">
        <ele>207</ele>
        <time>2022-05-17T12:48:40.555Z</time>
      </trkpt>
      <trkpt lat="49.78644" lon="4.75281">
        <ele>207</ele>
        <time>2022-05-17T12:48:41.561Z</time>
      </trkpt>
      <trkpt lat="49.78649" lon="4.75283">
        <ele>207</ele>
        <time>2022-05-17T12:48:42.545Z</time>
      </trkpt>
      <trkpt lat="49.78652" lon="4.75283">
        <ele>206</ele>
        <time>2022-05-17T12:48:43.546Z</time>
      </trkpt>
      <trkpt lat="49.78652" lon="4.75283">
        <ele>206</ele>
        <time>2022-05-17T12:48:44.552Z</time>
      </trkpt>
      <trkpt lat="49.78657" lon="4.75284">
        <ele>206</ele>
        <time>2022-05-17T12:48:45.536Z</time>
      </trkpt>
      <trkpt lat="49.7866" lon="4.75286">
        <ele>206</ele>
        <time>2022-05-17T12:48:46.552Z</time>
      </trkpt>
      <trkpt lat="49.7866" lon="4.75286">
        <ele>206</ele>
        <time>2022-05-17T12:48:47.560Z</time>
      </trkpt>
      <trkpt lat="49.78666" lon="4.75289">
        <ele>206</ele>
        <time>2022-05-17T12:48:48.540Z</time>
      </trkpt>
      <trkpt lat="49.7867" lon="4.7529">
        <ele>206</ele>
        <time>2022-05-17T12:48:49.531Z</time>
      </trkpt>
      <trkpt lat="49.7867" lon="4.7529">
        <ele>206</ele>
        <time>2022-05-17T12:48:50.536Z</time>
      </trkpt>
      <trkpt lat="49.78676" lon="4.75292">
        <ele>205</ele>
        <time>2022-05-17T12:48:51.556Z</time>
      </trkpt>
      <trkpt lat="49.78676" lon="4.75292">
        <ele>205</ele>
        <time>2022-05-17T12:48:52.562Z</time>
      </trkpt>
      <trkpt lat="49.78682" lon="4.75294">
        <ele>206</ele>
        <time>2022-05-17T12:48:53.540Z</time>
      </trkpt>
      <trkpt lat="49.78685" lon="4.75295">
        <ele>206</ele>
        <time>2022-05-17T12:48:54.534Z</time>
      </trkpt>
      <trkpt lat="49.78685" lon="4.75295">
        <ele>206</ele>
        <time>2022-05-17T12:48:55.539Z</time>
      </trkpt>
      <trkpt lat="49.78692" lon="4.75297">
        <ele>206</ele>
        <time>2022-05-17T12:48:56.557Z</time>
      </trkpt>
      <trkpt lat="49.78692" lon="4.75297">
        <ele>206</ele>
        <time>2022-05-17T12:48:57.562Z</time>
      </trkpt>
      <trkpt lat="49.78698" lon="4.75297">
        <ele>207</ele>
        <time>2022-05-17T12:48:58.561Z</time>
      </trkpt>
      <trkpt lat="49.787" lon="4.75296">
        <ele>206</ele>
        <time>2022-05-17T12:48:59.535Z</time>
      </trkpt>
      <trkpt lat="49.787" lon="4.75296">
        <ele>206</ele>
        <time>2022-05-17T12:49:00.546Z</time>
      </trkpt>
      <trkpt lat="49.78705" lon="4.75295">
        <ele>207</ele>
        <time>2022-05-17T12:49:01.524Z</time>
      </trkpt>
      <trkpt lat="49.78705" lon="4.75295">
        <ele>207</ele>
        <time>2022-05-17T12:49:02.530Z</time>
      </trkpt>
      <trkpt lat="49.78711" lon="4.75294">
        <ele>207</ele>
        <time>2022-05-17T12:49:03.527Z</time>
      </trkpt>
      <trkpt lat="49.78714" lon="4.75294">
        <ele>207</ele>
        <time>2022-05-17T12:49:04.540Z</time>
      </trkpt>
      <trkpt lat="49.78714" lon="4.75294">
        <ele>207</ele>
        <time>2022-05-17T12:49:05.547Z</time>
      </trkpt>
      <trkpt lat="49.78721" lon="4.75294">
        <ele>207</ele>
        <time>2022-05-17T12:49:06.561Z</time>
      </trkpt>
      <trkpt lat="49.78724" lon="4.75294">
        <ele>208</ele>
        <time>2022-05-17T12:49:07.538Z</time>
      </trkpt>
      <trkpt lat="49.78724" lon="4.75294">
        <ele>208</ele>
        <time>2022-05-17T12:49:08.547Z</time>
      </trkpt>
      <trkpt lat="49.7873" lon="4.75296">
        <ele>208</ele>
        <time>2022-05-17T12:49:09.535Z</time>
      </trkpt>
      <trkpt lat="49.78734" lon="4.75295">
        <ele>208</ele>
        <time>2022-05-17T12:49:10.552Z</time>
      </trkpt>
      <trkpt lat="49.78738" lon="4.75296">
        <ele>208</ele>
        <time>2022-05-17T12:49:11.536Z</time>
      </trkpt>
      <trkpt lat="49.78738" lon="4.75296">
        <ele>208</ele>
        <time>2022-05-17T12:49:12.550Z</time>
      </trkpt>
      <trkpt lat="49.78745" lon="4.75296">
        <ele>210</ele>
        <time>2022-05-17T12:49:13.535Z</time>
      </trkpt>
      <trkpt lat="49.78745" lon="4.75296">
        <ele>210</ele>
        <time>2022-05-17T12:49:14.542Z</time>
      </trkpt>
      <trkpt lat="49.78751" lon="4.75295">
        <ele>210</ele>
        <time>2022-05-17T12:49:15.557Z</time>
      </trkpt>
      <trkpt lat="49.78754" lon="4.75296">
        <ele>211</ele>
        <time>2022-05-17T12:49:16.535Z</time>
      </trkpt>
      <trkpt lat="49.78754" lon="4.75296">
        <ele>211</ele>
        <time>2022-05-17T12:49:17.543Z</time>
      </trkpt>
      <trkpt lat="49.78761" lon="4.75296">
        <ele>212</ele>
        <time>2022-05-17T12:49:18.555Z</time>
      </trkpt>
      <trkpt lat="49.78761" lon="4.75296">
        <ele>212</ele>
        <time>2022-05-17T12:49:19.561Z</time>
      </trkpt>
      <trkpt lat="49.78767" lon="4.75294">
        <ele>212</ele>
        <time>2022-05-17T12:49:20.537Z</time>
      </trkpt>
      <trkpt lat="49.78767" lon="4.75294">
        <ele>212</ele>
        <time>2022-05-17T12:49:21.549Z</time>
      </trkpt>
      <trkpt lat="49.78772" lon="4.75291">
        <ele>212</ele>
        <time>2022-05-17T12:49:22.526Z</time>
      </trkpt>
      <trkpt lat="49.78775" lon="4.75289">
        <ele>213</ele>
        <time>2022-05-17T12:49:23.534Z</time>
      </trkpt>
      <trkpt lat="49.78775" lon="4.75289">
        <ele>213</ele>
        <time>2022-05-17T12:49:24.541Z</time>
      </trkpt>
      <trkpt lat="49.78781" lon="4.75287">
        <ele>214</ele>
        <time>2022-05-17T12:49:25.558Z</time>
      </trkpt>
      <trkpt lat="49.78781" lon="4.75287">
        <ele>214</ele>
        <time>2022-05-17T12:49:26.563Z</time>
      </trkpt>
      <trkpt lat="49.78787" lon="4.75285">
        <ele>215</ele>
        <time>2022-05-17T12:49:27.536Z</time>
      </trkpt>
      <trkpt lat="49.78787" lon="4.75285">
        <ele>215</ele>
        <time>2022-05-17T12:49:28.561Z</time>
      </trkpt>
      <trkpt lat="49.78791" lon="4.75283">
        <ele>216</ele>
        <time>2022-05-17T12:49:29.528Z</time>
      </trkpt>
      <trkpt lat="49.78791" lon="4.75283">
        <ele>216</ele>
        <time>2022-05-17T12:49:30.541Z</time>
      </trkpt>
      <trkpt lat="49.78797" lon="4.7528">
        <ele>216</ele>
        <time>2022-05-17T12:49:31.560Z</time>
      </trkpt>
      <trkpt lat="49.78797" lon="4.7528">
        <ele>216</ele>
        <time>2022-05-17T12:49:32.525Z</time>
      </trkpt>
      <trkpt lat="49.78803" lon="4.75278">
        <ele>217</ele>
        <time>2022-05-17T12:49:33.533Z</time>
      </trkpt>
      <trkpt lat="49.78806" lon="4.75277">
        <ele>217</ele>
        <time>2022-05-17T12:49:34.537Z</time>
      </trkpt>
      <trkpt lat="49.78806" lon="4.75277">
        <ele>217</ele>
        <time>2022-05-17T12:49:35.543Z</time>
      </trkpt>
      <trkpt lat="49.78813" lon="4.75273">
        <ele>218</ele>
        <time>2022-05-17T12:49:36.564Z</time>
      </trkpt>
      <trkpt lat="49.78817" lon="4.75272">
        <ele>218</ele>
        <time>2022-05-17T12:49:37.536Z</time>
      </trkpt>
      <trkpt lat="49.78817" lon="4.75272">
        <ele>218</ele>
        <time>2022-05-17T12:49:38.542Z</time>
      </trkpt>
      <trkpt lat="49.78823" lon="4.7527">
        <ele>218</ele>
        <time>2022-05-17T12:49:39.556Z</time>
      </trkpt>
      <trkpt lat="49.78826" lon="4.75268">
        <ele>218</ele>
        <time>2022-05-17T12:49:40.536Z</time>
      </trkpt>
      <trkpt lat="49.78826" lon="4.75268">
        <ele>218</ele>
        <time>2022-05-17T12:49:41.547Z</time>
      </trkpt>
      <trkpt lat="49.78832" lon="4.75263">
        <ele>218</ele>
        <time>2022-05-17T12:49:42.525Z</time>
      </trkpt>
      <trkpt lat="49.78832" lon="4.75263">
        <ele>218</ele>
        <time>2022-05-17T12:49:43.531Z</time>
      </trkpt>
      <trkpt lat="49.78836" lon="4.75256">
        <ele>218</ele>
        <time>2022-05-17T12:49:44.557Z</time>
      </trkpt>
      <trkpt lat="49.78836" lon="4.75256">
        <ele>218</ele>
        <time>2022-05-17T12:49:45.562Z</time>
      </trkpt>
      <trkpt lat="49.78837" lon="4.75251">
        <ele>220</ele>
        <time>2022-05-17T12:49:46.538Z</time>
      </trkpt>
      <trkpt lat="49.78837" lon="4.75251">
        <ele>220</ele>
        <time>2022-05-17T12:49:47.545Z</time>
      </trkpt>
      <trkpt lat="49.78838" lon="4.75245">
        <ele>221</ele>
        <time>2022-05-17T12:49:48.563Z</time>
      </trkpt>
      <trkpt lat="49.78839" lon="4.75241">
        <ele>222</ele>
        <time>2022-05-17T12:49:49.550Z</time>
      </trkpt>
      <trkpt lat="49.78839" lon="4.75241">
        <ele>222</ele>
        <time>2022-05-17T12:49:50.556Z</time>
      </trkpt>
      <trkpt lat="49.78839" lon="4.75232">
        <ele>223</ele>
        <time>2022-05-17T12:49:51.536Z</time>
      </trkpt>
      <trkpt lat="49.78839" lon="4.75228">
        <ele>224</ele>
        <time>2022-05-17T12:49:52.555Z</time>
      </trkpt>
      <trkpt lat="49.78839" lon="4.75228">
        <ele>224</ele>
        <time>2022-05-17T12:49:53.561Z</time>
      </trkpt>
      <trkpt lat="49.78841" lon="4.75219">
        <ele>225</ele>
        <time>2022-05-17T12:49:54.536Z</time>
      </trkpt>
      <trkpt lat="49.78841" lon="4.75219">
        <ele>225</ele>
        <time>2022-05-17T12:49:55.559Z</time>
      </trkpt>
      <trkpt lat="49.78842" lon="4.7521">
        <ele>226</ele>
        <time>2022-05-17T12:49:56.529Z</time>
      </trkpt>
      <trkpt lat="49.78842" lon="4.7521">
        <ele>226</ele>
        <time>2022-05-17T12:49:57.535Z</time>
      </trkpt>
      <trkpt lat="49.78844" lon="4.75199">
        <ele>228</ele>
        <time>2022-05-17T12:49:58.556Z</time>
      </trkpt>
      <trkpt lat="49.78844" lon="4.75194">
        <ele>228</ele>
        <time>2022-05-17T12:49:59.526Z</time>
      </trkpt>
      <trkpt lat="49.78844" lon="4.75194">
        <ele>228</ele>
        <time>2022-05-17T12:50:00.526Z</time>
      </trkpt>
      <trkpt lat="49.78846" lon="4.75183">
        <ele>230</ele>
        <time>2022-05-17T12:50:01.563Z</time>
      </trkpt>
      <trkpt lat="49.78845" lon="4.75178">
        <ele>230</ele>
        <time>2022-05-17T12:50:02.559Z</time>
      </trkpt>
      <trkpt lat="49.78845" lon="4.75178">
        <ele>230</ele>
        <time>2022-05-17T12:50:03.553Z</time>
      </trkpt>
      <trkpt lat="49.78848" lon="4.75168">
        <ele>230</ele>
        <time>2022-05-17T12:50:04.537Z</time>
      </trkpt>
      <trkpt lat="49.78852" lon="4.75163">
        <ele>230</ele>
        <time>2022-05-17T12:50:05.557Z</time>
      </trkpt>
      <trkpt lat="49.78852" lon="4.75163">
        <ele>230</ele>
        <time>2022-05-17T12:50:06.536Z</time>
      </trkpt>
      <trkpt lat="49.78861" lon="4.7516">
        <ele>229</ele>
        <time>2022-05-17T12:50:07.545Z</time>
      </trkpt>
      <trkpt lat="49.78865" lon="4.7516">
        <ele>229</ele>
        <time>2022-05-17T12:50:08.560Z</time>
      </trkpt>
      <trkpt lat="49.78869" lon="4.7516">
        <ele>227</ele>
        <time>2022-05-17T12:50:09.524Z</time>
      </trkpt>
      <trkpt lat="49.78869" lon="4.7516">
        <ele>227</ele>
        <time>2022-05-17T12:50:10.562Z</time>
      </trkpt>
      <trkpt lat="49.78878" lon="4.7516">
        <ele>225</ele>
        <time>2022-05-17T12:50:11.561Z</time>
      </trkpt>
      <trkpt lat="49.78878" lon="4.7516">
        <ele>225</ele>
        <time>2022-05-17T12:50:12.526Z</time>
      </trkpt>
      <trkpt lat="49.78885" lon="4.75161">
        <ele>225</ele>
        <time>2022-05-17T12:50:13.562Z</time>
      </trkpt>
      <trkpt lat="49.78885" lon="4.75161">
        <ele>225</ele>
        <time>2022-05-17T12:50:14.560Z</time>
      </trkpt>
      <trkpt lat="49.78892" lon="4.75162">
        <ele>224</ele>
        <time>2022-05-17T12:50:15.561Z</time>
      </trkpt>
      <trkpt lat="49.78892" lon="4.75162">
        <ele>224</ele>
        <time>2022-05-17T12:50:16.557Z</time>
      </trkpt>
      <trkpt lat="49.78899" lon="4.75163">
        <ele>224</ele>
        <time>2022-05-17T12:50:17.538Z</time>
      </trkpt>
      <trkpt lat="49.78899" lon="4.75163">
        <ele>224</ele>
        <time>2022-05-17T12:50:18.554Z</time>
      </trkpt>
      <trkpt lat="49.78907" lon="4.75165">
        <ele>223</ele>
        <time>2022-05-17T12:50:19.540Z</time>
      </trkpt>
      <trkpt lat="49.78907" lon="4.75165">
        <ele>223</ele>
        <time>2022-05-17T12:50:20.560Z</time>
      </trkpt>
      <trkpt lat="49.78915" lon="4.75166">
        <ele>223</ele>
        <time>2022-05-17T12:50:21.563Z</time>
      </trkpt>
      <trkpt lat="49.78915" lon="4.75166">
        <ele>223</ele>
        <time>2022-05-17T12:50:22.558Z</time>
      </trkpt>
      <trkpt lat="49.78923" lon="4.75168">
        <ele>222</ele>
        <time>2022-05-17T12:50:23.556Z</time>
      </trkpt>
      <trkpt lat="49.78923" lon="4.75168">
        <ele>222</ele>
        <time>2022-05-17T12:50:24.546Z</time>
      </trkpt>
      <trkpt lat="49.78932" lon="4.75169">
        <ele>221</ele>
        <time>2022-05-17T12:50:25.524Z</time>
      </trkpt>
      <trkpt lat="49.78932" lon="4.75169">
        <ele>221</ele>
        <time>2022-05-17T12:50:26.554Z</time>
      </trkpt>
      <trkpt lat="49.7894" lon="4.75172">
        <ele>220</ele>
        <time>2022-05-17T12:50:27.542Z</time>
      </trkpt>
      <trkpt lat="49.7894" lon="4.75172">
        <ele>220</ele>
        <time>2022-05-17T12:50:28.557Z</time>
      </trkpt>
      <trkpt lat="49.78949" lon="4.75174">
        <ele>219</ele>
        <time>2022-05-17T12:50:29.547Z</time>
      </trkpt>
      <trkpt lat="49.78949" lon="4.75174">
        <ele>219</ele>
        <time>2022-05-17T12:50:30.562Z</time>
      </trkpt>
      <trkpt lat="49.78957" lon="4.75176">
        <ele>218</ele>
        <time>2022-05-17T12:50:31.525Z</time>
      </trkpt>
      <trkpt lat="49.78957" lon="4.75176">
        <ele>218</ele>
        <time>2022-05-17T12:50:32.558Z</time>
      </trkpt>
      <trkpt lat="49.78965" lon="4.75177">
        <ele>218</ele>
        <time>2022-05-17T12:50:33.539Z</time>
      </trkpt>
      <trkpt lat="49.78965" lon="4.75177">
        <ele>218</ele>
        <time>2022-05-17T12:50:34.554Z</time>
      </trkpt>
      <trkpt lat="49.78973" lon="4.75178">
        <ele>217</ele>
        <time>2022-05-17T12:50:35.539Z</time>
      </trkpt>
      <trkpt lat="49.78977" lon="4.75178">
        <ele>217</ele>
        <time>2022-05-17T12:50:36.561Z</time>
      </trkpt>
      <trkpt lat="49.78981" lon="4.75179">
        <ele>217</ele>
        <time>2022-05-17T12:50:37.552Z</time>
      </trkpt>
      <trkpt lat="49.78981" lon="4.75179">
        <ele>217</ele>
        <time>2022-05-17T12:50:38.527Z</time>
      </trkpt>
      <trkpt lat="49.78989" lon="4.75181">
        <ele>216</ele>
        <time>2022-05-17T12:50:39.526Z</time>
      </trkpt>
      <trkpt lat="49.78989" lon="4.75181">
        <ele>216</ele>
        <time>2022-05-17T12:50:40.558Z</time>
      </trkpt>
      <trkpt lat="49.78998" lon="4.75182">
        <ele>216</ele>
        <time>2022-05-17T12:50:41.527Z</time>
      </trkpt>
      <trkpt lat="49.79002" lon="4.75183">
        <ele>216</ele>
        <time>2022-05-17T12:50:42.547Z</time>
      </trkpt>
      <trkpt lat="49.79002" lon="4.75183">
        <ele>216</ele>
        <time>2022-05-17T12:50:43.555Z</time>
      </trkpt>
      <trkpt lat="49.7901" lon="4.75184">
        <ele>216</ele>
        <time>2022-05-17T12:50:44.538Z</time>
      </trkpt>
      <trkpt lat="49.7901" lon="4.75184">
        <ele>216</ele>
        <time>2022-05-17T12:50:45.545Z</time>
      </trkpt>
      <trkpt lat="49.7902" lon="4.75186">
        <ele>215</ele>
        <time>2022-05-17T12:50:46.556Z</time>
      </trkpt>
      <trkpt lat="49.7902" lon="4.75186">
        <ele>215</ele>
        <time>2022-05-17T12:50:47.561Z</time>
      </trkpt>
      <trkpt lat="49.79029" lon="4.75189">
        <ele>214</ele>
        <time>2022-05-17T12:50:48.544Z</time>
      </trkpt>
      <trkpt lat="49.79033" lon="4.75191">
        <ele>214</ele>
        <time>2022-05-17T12:50:49.524Z</time>
      </trkpt>
      <trkpt lat="49.79033" lon="4.75191">
        <ele>214</ele>
        <time>2022-05-17T12:50:50.529Z</time>
      </trkpt>
      <trkpt lat="49.79043" lon="4.75194">
        <ele>213</ele>
        <time>2022-05-17T12:50:51.545Z</time>
      </trkpt>
      <trkpt lat="49.79043" lon="4.75194">
        <ele>213</ele>
        <time>2022-05-17T12:50:52.551Z</time>
      </trkpt>
      <trkpt lat="49.79054" lon="4.75197">
        <ele>213</ele>
        <time>2022-05-17T12:50:53.556Z</time>
      </trkpt>
      <trkpt lat="49.79054" lon="4.75197">
        <ele>213</ele>
        <time>2022-05-17T12:50:54.561Z</time>
      </trkpt>
      <trkpt lat="49.79064" lon="4.752">
        <ele>213</ele>
        <time>2022-05-17T12:50:55.542Z</time>
      </trkpt>
      <trkpt lat="49.79064" lon="4.752">
        <ele>213</ele>
        <time>2022-05-17T12:50:56.548Z</time>
      </trkpt>
      <trkpt lat="49.79075" lon="4.75204">
        <ele>213</ele>
        <time>2022-05-17T12:50:57.528Z</time>
      </trkpt>
      <trkpt lat="49.7908" lon="4.75206">
        <ele>213</ele>
        <time>2022-05-17T12:50:58.525Z</time>
      </trkpt>
      <trkpt lat="49.79086" lon="4.75208">
        <ele>212</ele>
        <time>2022-05-17T12:50:59.559Z</time>
      </trkpt>
      <trkpt lat="49.79086" lon="4.75208">
        <ele>212</ele>
        <time>2022-05-17T12:51:00.525Z</time>
      </trkpt>
      <trkpt lat="49.79097" lon="4.7521">
        <ele>212</ele>
        <time>2022-05-17T12:51:01.544Z</time>
      </trkpt>
      <trkpt lat="49.79097" lon="4.7521">
        <ele>212</ele>
        <time>2022-05-17T12:51:02.550Z</time>
      </trkpt>
      <trkpt lat="49.79106" lon="4.75212">
        <ele>212</ele>
        <time>2022-05-17T12:51:03.531Z</time>
      </trkpt>
      <trkpt lat="49.79106" lon="4.75212">
        <ele>212</ele>
        <time>2022-05-17T12:51:04.537Z</time>
      </trkpt>
      <trkpt lat="49.79115" lon="4.75214">
        <ele>212</ele>
        <time>2022-05-17T12:51:05.557Z</time>
      </trkpt>
      <trkpt lat="49.7912" lon="4.75215">
        <ele>212</ele>
        <time>2022-05-17T12:51:06.525Z</time>
      </trkpt>
      <trkpt lat="49.7912" lon="4.75215">
        <ele>212</ele>
        <time>2022-05-17T12:51:07.531Z</time>
      </trkpt>
      <trkpt lat="49.79129" lon="4.75218">
        <ele>213</ele>
        <time>2022-05-17T12:51:08.528Z</time>
      </trkpt>
      <trkpt lat="49.79129" lon="4.75218">
        <ele>213</ele>
        <time>2022-05-17T12:51:09.534Z</time>
      </trkpt>
      <trkpt lat="49.79138" lon="4.7522">
        <ele>212</ele>
        <time>2022-05-17T12:51:10.525Z</time>
      </trkpt>
      <trkpt lat="49.79142" lon="4.75221">
        <ele>212</ele>
        <time>2022-05-17T12:51:11.540Z</time>
      </trkpt>
      <trkpt lat="49.79142" lon="4.75221">
        <ele>212</ele>
        <time>2022-05-17T12:51:12.546Z</time>
      </trkpt>
      <trkpt lat="49.79151" lon="4.75224">
        <ele>212</ele>
        <time>2022-05-17T12:51:13.556Z</time>
      </trkpt>
      <trkpt lat="49.79151" lon="4.75224">
        <ele>212</ele>
        <time>2022-05-17T12:51:14.561Z</time>
      </trkpt>
      <trkpt lat="49.7916" lon="4.75227">
        <ele>211</ele>
        <time>2022-05-17T12:51:15.556Z</time>
      </trkpt>
      <trkpt lat="49.7916" lon="4.75227">
        <ele>211</ele>
        <time>2022-05-17T12:51:16.527Z</time>
      </trkpt>
      <trkpt lat="49.79169" lon="4.7523">
        <ele>211</ele>
        <time>2022-05-17T12:51:17.555Z</time>
      </trkpt>
      <trkpt lat="49.79169" lon="4.7523">
        <ele>211</ele>
        <time>2022-05-17T12:51:18.527Z</time>
      </trkpt>
      <trkpt lat="49.79177" lon="4.75232">
        <ele>211</ele>
        <time>2022-05-17T12:51:19.558Z</time>
      </trkpt>
      <trkpt lat="49.79177" lon="4.75232">
        <ele>211</ele>
        <time>2022-05-17T12:51:20.563Z</time>
      </trkpt>
      <trkpt lat="49.79186" lon="4.75235">
        <ele>211</ele>
        <time>2022-05-17T12:51:21.562Z</time>
      </trkpt>
      <trkpt lat="49.79186" lon="4.75235">
        <ele>211</ele>
        <time>2022-05-17T12:51:22.528Z</time>
      </trkpt>
      <trkpt lat="49.79194" lon="4.75238">
        <ele>211</ele>
        <time>2022-05-17T12:51:23.545Z</time>
      </trkpt>
      <trkpt lat="49.79199" lon="4.75238">
        <ele>212</ele>
        <time>2022-05-17T12:51:24.555Z</time>
      </trkpt>
      <trkpt lat="49.79199" lon="4.75238">
        <ele>212</ele>
        <time>2022-05-17T12:51:25.561Z</time>
      </trkpt>
      <trkpt lat="49.79208" lon="4.75239">
        <ele>213</ele>
        <time>2022-05-17T12:51:26.540Z</time>
      </trkpt>
      <trkpt lat="49.79208" lon="4.75239">
        <ele>213</ele>
        <time>2022-05-17T12:51:27.546Z</time>
      </trkpt>
      <trkpt lat="49.79217" lon="4.75241">
        <ele>214</ele>
        <time>2022-05-17T12:51:28.546Z</time>
      </trkpt>
      <trkpt lat="49.79221" lon="4.75241">
        <ele>215</ele>
        <time>2022-05-17T12:51:29.531Z</time>
      </trkpt>
      <trkpt lat="49.79221" lon="4.75241">
        <ele>215</ele>
        <time>2022-05-17T12:51:30.544Z</time>
      </trkpt>
      <trkpt lat="49.79229" lon="4.75239">
        <ele>215</ele>
        <time>2022-05-17T12:51:31.562Z</time>
      </trkpt>
      <trkpt lat="49.79229" lon="4.75239">
        <ele>215</ele>
        <time>2022-05-17T12:51:32.528Z</time>
      </trkpt>
      <trkpt lat="49.79237" lon="4.75235">
        <ele>216</ele>
        <time>2022-05-17T12:51:33.545Z</time>
      </trkpt>
      <trkpt lat="49.7924" lon="4.75232">
        <ele>216</ele>
        <time>2022-05-17T12:51:34.556Z</time>
      </trkpt>
      <trkpt lat="49.7924" lon="4.75232">
        <ele>216</ele>
        <time>2022-05-17T12:51:35.561Z</time>
      </trkpt>
      <trkpt lat="49.79247" lon="4.75228">
        <ele>217</ele>
        <time>2022-05-17T12:51:36.524Z</time>
      </trkpt>
      <trkpt lat="49.79251" lon="4.75227">
        <ele>217</ele>
        <time>2022-05-17T12:51:37.533Z</time>
      </trkpt>
      <trkpt lat="49.79251" lon="4.75227">
        <ele>217</ele>
        <time>2022-05-17T12:51:38.542Z</time>
      </trkpt>
      <trkpt lat="49.79258" lon="4.75222">
        <ele>217</ele>
        <time>2022-05-17T12:51:39.556Z</time>
      </trkpt>
      <trkpt lat="49.79261" lon="4.7522">
        <ele>217</ele>
        <time>2022-05-17T12:51:40.530Z</time>
      </trkpt>
      <trkpt lat="49.79261" lon="4.7522">
        <ele>217</ele>
        <time>2022-05-17T12:51:41.535Z</time>
      </trkpt>
      <trkpt lat="49.79268" lon="4.75216">
        <ele>218</ele>
        <time>2022-05-17T12:51:42.550Z</time>
      </trkpt>
      <trkpt lat="49.79272" lon="4.75214">
        <ele>217</ele>
        <time>2022-05-17T12:51:43.527Z</time>
      </trkpt>
      <trkpt lat="49.79272" lon="4.75214">
        <ele>217</ele>
        <time>2022-05-17T12:51:44.532Z</time>
      </trkpt>
      <trkpt lat="49.79279" lon="4.75209">
        <ele>218</ele>
        <time>2022-05-17T12:51:45.559Z</time>
      </trkpt>
      <trkpt lat="49.79282" lon="4.75205">
        <ele>218</ele>
        <time>2022-05-17T12:51:46.557Z</time>
      </trkpt>
      <trkpt lat="49.79282" lon="4.75205">
        <ele>218</ele>
        <time>2022-05-17T12:51:47.563Z</time>
      </trkpt>
      <trkpt lat="49.79289" lon="4.752">
        <ele>219</ele>
        <time>2022-05-17T12:51:48.552Z</time>
      </trkpt>
      <trkpt lat="49.79292" lon="4.75198">
        <ele>219</ele>
        <time>2022-05-17T12:51:49.541Z</time>
      </trkpt>
      <trkpt lat="49.79292" lon="4.75198">
        <ele>219</ele>
        <time>2022-05-17T12:51:50.547Z</time>
      </trkpt>
      <trkpt lat="49.79299" lon="4.7519">
        <ele>220</ele>
        <time>2022-05-17T12:51:51.524Z</time>
      </trkpt>
      <trkpt lat="49.79299" lon="4.7519">
        <ele>220</ele>
        <time>2022-05-17T12:51:52.529Z</time>
      </trkpt>
      <trkpt lat="49.79302" lon="4.75183">
        <ele>220</ele>
        <time>2022-05-17T12:51:53.562Z</time>
      </trkpt>
      <trkpt lat="49.79302" lon="4.75183">
        <ele>220</ele>
        <time>2022-05-17T12:51:54.528Z</time>
      </trkpt>
      <trkpt lat="49.79307" lon="4.75177">
        <ele>221</ele>
        <time>2022-05-17T12:51:55.541Z</time>
      </trkpt>
      <trkpt lat="49.79307" lon="4.75177">
        <ele>221</ele>
        <time>2022-05-17T12:51:56.547Z</time>
      </trkpt>
      <trkpt lat="49.79312" lon="4.7517">
        <ele>220</ele>
        <time>2022-05-17T12:51:57.531Z</time>
      </trkpt>
      <trkpt lat="49.79312" lon="4.7517">
        <ele>220</ele>
        <time>2022-05-17T12:51:58.537Z</time>
      </trkpt>
      <trkpt lat="49.79317" lon="4.75162">
        <ele>219</ele>
        <time>2022-05-17T12:51:59.536Z</time>
      </trkpt>
      <trkpt lat="49.79317" lon="4.75162">
        <ele>219</ele>
        <time>2022-05-17T12:52:00.546Z</time>
      </trkpt>
      <trkpt lat="49.79323" lon="4.75156">
        <ele>218</ele>
        <time>2022-05-17T12:52:01.540Z</time>
      </trkpt>
      <trkpt lat="49.79323" lon="4.75156">
        <ele>218</ele>
        <time>2022-05-17T12:52:02.558Z</time>
      </trkpt>
      <trkpt lat="49.7933" lon="4.75148">
        <ele>218</ele>
        <time>2022-05-17T12:52:03.558Z</time>
      </trkpt>
      <trkpt lat="49.7933" lon="4.75148">
        <ele>218</ele>
        <time>2022-05-17T12:52:04.524Z</time>
      </trkpt>
      <trkpt lat="49.79336" lon="4.75141">
        <ele>217</ele>
        <time>2022-05-17T12:52:05.537Z</time>
      </trkpt>
      <trkpt lat="49.79336" lon="4.75141">
        <ele>217</ele>
        <time>2022-05-17T12:52:06.544Z</time>
      </trkpt>
      <trkpt lat="49.79341" lon="4.75134">
        <ele>217</ele>
        <time>2022-05-17T12:52:07.527Z</time>
      </trkpt>
      <trkpt lat="49.79344" lon="4.75131">
        <ele>216</ele>
        <time>2022-05-17T12:52:08.547Z</time>
      </trkpt>
      <trkpt lat="49.79344" lon="4.75131">
        <ele>216</ele>
        <time>2022-05-17T12:52:09.552Z</time>
      </trkpt>
      <trkpt lat="49.79349" lon="4.75124">
        <ele>216</ele>
        <time>2022-05-17T12:52:10.542Z</time>
      </trkpt>
      <trkpt lat="49.79349" lon="4.75124">
        <ele>216</ele>
        <time>2022-05-17T12:52:11.548Z</time>
      </trkpt>
      <trkpt lat="49.79354" lon="4.75119">
        <ele>216</ele>
        <time>2022-05-17T12:52:12.528Z</time>
      </trkpt>
      <trkpt lat="49.79356" lon="4.75116">
        <ele>216</ele>
        <time>2022-05-17T12:52:13.542Z</time>
      </trkpt>
      <trkpt lat="49.79356" lon="4.75116">
        <ele>216</ele>
        <time>2022-05-17T12:52:14.548Z</time>
      </trkpt>
      <trkpt lat="49.7936" lon="4.75111">
        <ele>216</ele>
        <time>2022-05-17T12:52:15.524Z</time>
      </trkpt>
      <trkpt lat="49.79362" lon="4.75107">
        <ele>216</ele>
        <time>2022-05-17T12:52:16.542Z</time>
      </trkpt>
      <trkpt lat="49.79362" lon="4.75107">
        <ele>216</ele>
        <time>2022-05-17T12:52:17.550Z</time>
      </trkpt>
      <trkpt lat="49.79367" lon="4.75103">
        <ele>216</ele>
        <time>2022-05-17T12:52:18.563Z</time>
      </trkpt>
      <trkpt lat="49.79369" lon="4.75099">
        <ele>216</ele>
        <time>2022-05-17T12:52:19.545Z</time>
      </trkpt>
      <trkpt lat="49.79369" lon="4.75099">
        <ele>216</ele>
        <time>2022-05-17T12:52:20.555Z</time>
      </trkpt>
      <trkpt lat="49.79374" lon="4.75093">
        <ele>216</ele>
        <time>2022-05-17T12:52:21.550Z</time>
      </trkpt>
      <trkpt lat="49.79374" lon="4.75093">
        <ele>216</ele>
        <time>2022-05-17T12:52:22.556Z</time>
      </trkpt>
      <trkpt lat="49.79379" lon="4.75087">
        <ele>216</ele>
        <time>2022-05-17T12:52:23.545Z</time>
      </trkpt>
      <trkpt lat="49.79379" lon="4.75087">
        <ele>216</ele>
        <time>2022-05-17T12:52:24.551Z</time>
      </trkpt>
      <trkpt lat="49.79383" lon="4.7508">
        <ele>216</ele>
        <time>2022-05-17T12:52:25.536Z</time>
      </trkpt>
      <trkpt lat="49.79383" lon="4.7508">
        <ele>216</ele>
        <time>2022-05-17T12:52:26.542Z</time>
      </trkpt>
      <trkpt lat="49.79387" lon="4.75075">
        <ele>216</ele>
        <time>2022-05-17T12:52:27.560Z</time>
      </trkpt>
      <trkpt lat="49.79389" lon="4.75072">
        <ele>216</ele>
        <time>2022-05-17T12:52:28.535Z</time>
      </trkpt>
      <trkpt lat="49.79391" lon="4.7507">
        <ele>216</ele>
        <time>2022-05-17T12:52:29.548Z</time>
      </trkpt>
      <trkpt lat="49.79391" lon="4.7507">
        <ele>216</ele>
        <time>2022-05-17T12:52:30.553Z</time>
      </trkpt>
      <trkpt lat="49.79395" lon="4.75065">
        <ele>216</ele>
        <time>2022-05-17T12:52:31.525Z</time>
      </trkpt>
      <trkpt lat="49.79395" lon="4.75065">
        <ele>216</ele>
        <time>2022-05-17T12:52:32.531Z</time>
      </trkpt>
      <trkpt lat="49.79402" lon="4.75059">
        <ele>215</ele>
        <time>2022-05-17T12:52:33.556Z</time>
      </trkpt>
      <trkpt lat="49.79405" lon="4.75056">
        <ele>215</ele>
        <time>2022-05-17T12:52:34.525Z</time>
      </trkpt>
      <trkpt lat="49.79407" lon="4.75054">
        <ele>215</ele>
        <time>2022-05-17T12:52:35.538Z</time>
      </trkpt>
      <trkpt lat="49.79407" lon="4.75054">
        <ele>215</ele>
        <time>2022-05-17T12:52:36.545Z</time>
      </trkpt>
      <trkpt lat="49.79412" lon="4.75049">
        <ele>214</ele>
        <time>2022-05-17T12:52:37.526Z</time>
      </trkpt>
      <trkpt lat="49.79412" lon="4.75049">
        <ele>214</ele>
        <time>2022-05-17T12:52:38.531Z</time>
      </trkpt>
      <trkpt lat="49.79416" lon="4.75042">
        <ele>214</ele>
        <time>2022-05-17T12:52:39.549Z</time>
      </trkpt>
      <trkpt lat="49.79416" lon="4.75042">
        <ele>214</ele>
        <time>2022-05-17T12:52:40.554Z</time>
      </trkpt>
      <trkpt lat="49.79419" lon="4.75036">
        <ele>213</ele>
        <time>2022-05-17T12:52:41.531Z</time>
      </trkpt>
      <trkpt lat="49.79419" lon="4.75036">
        <ele>213</ele>
        <time>2022-05-17T12:52:42.537Z</time>
      </trkpt>
      <trkpt lat="49.79425" lon="4.75031">
        <ele>213</ele>
        <time>2022-05-17T12:52:43.563Z</time>
      </trkpt>
      <trkpt lat="49.79428" lon="4.75029">
        <ele>213</ele>
        <time>2022-05-17T12:52:44.549Z</time>
      </trkpt>
      <trkpt lat="49.79428" lon="4.75029">
        <ele>213</ele>
        <time>2022-05-17T12:52:45.555Z</time>
      </trkpt>
      <trkpt lat="49.79433" lon="4.75024">
        <ele>213</ele>
        <time>2022-05-17T12:52:46.534Z</time>
      </trkpt>
      <trkpt lat="49.79433" lon="4.75024">
        <ele>213</ele>
        <time>2022-05-17T12:52:47.541Z</time>
      </trkpt>
      <trkpt lat="49.79438" lon="4.75021">
        <ele>213</ele>
        <time>2022-05-17T12:52:48.562Z</time>
      </trkpt>
      <trkpt lat="49.7944" lon="4.75018">
        <ele>213</ele>
        <time>2022-05-17T12:52:49.535Z</time>
      </trkpt>
      <trkpt lat="49.7944" lon="4.75018">
        <ele>213</ele>
        <time>2022-05-17T12:52:50.541Z</time>
      </trkpt>
      <trkpt lat="49.79445" lon="4.75012">
        <ele>213</ele>
        <time>2022-05-17T12:52:51.531Z</time>
      </trkpt>
      <trkpt lat="49.79445" lon="4.75012">
        <ele>213</ele>
        <time>2022-05-17T12:52:52.537Z</time>
      </trkpt>
      <trkpt lat="49.79449" lon="4.75007">
        <ele>213</ele>
        <time>2022-05-17T12:52:53.559Z</time>
      </trkpt>
      <trkpt lat="49.79449" lon="4.75007">
        <ele>213</ele>
        <time>2022-05-17T12:52:54.558Z</time>
      </trkpt>
      <trkpt lat="49.79453" lon="4.75003">
        <ele>213</ele>
        <time>2022-05-17T12:52:55.545Z</time>
      </trkpt>
      <trkpt lat="49.79453" lon="4.75003">
        <ele>213</ele>
        <time>2022-05-17T12:52:56.551Z</time>
      </trkpt>
      <trkpt lat="49.79457" lon="4.74998">
        <ele>214</ele>
        <time>2022-05-17T12:52:57.528Z</time>
      </trkpt>
      <trkpt lat="49.79459" lon="4.74995">
        <ele>214</ele>
        <time>2022-05-17T12:52:58.543Z</time>
      </trkpt>
      <trkpt lat="49.79459" lon="4.74995">
        <ele>214</ele>
        <time>2022-05-17T12:52:59.549Z</time>
      </trkpt>
      <trkpt lat="49.79463" lon="4.74988">
        <ele>214</ele>
        <time>2022-05-17T12:53:00.560Z</time>
      </trkpt>
      <trkpt lat="49.79463" lon="4.74988">
        <ele>214</ele>
        <time>2022-05-17T12:53:01.525Z</time>
      </trkpt>
      <trkpt lat="49.79466" lon="4.74981">
        <ele>214</ele>
        <time>2022-05-17T12:53:02.525Z</time>
      </trkpt>
      <trkpt lat="49.79466" lon="4.74981">
        <ele>214</ele>
        <time>2022-05-17T12:53:03.530Z</time>
      </trkpt>
      <trkpt lat="49.79468" lon="4.74974">
        <ele>214</ele>
        <time>2022-05-17T12:53:04.545Z</time>
      </trkpt>
      <trkpt lat="49.79468" lon="4.74974">
        <ele>214</ele>
        <time>2022-05-17T12:53:05.551Z</time>
      </trkpt>
      <trkpt lat="49.79473" lon="4.74966">
        <ele>215</ele>
        <time>2022-05-17T12:53:06.536Z</time>
      </trkpt>
      <trkpt lat="49.79473" lon="4.74966">
        <ele>215</ele>
        <time>2022-05-17T12:53:07.547Z</time>
      </trkpt>
      <trkpt lat="49.79476" lon="4.74957">
        <ele>216</ele>
        <time>2022-05-17T12:53:08.535Z</time>
      </trkpt>
      <trkpt lat="49.79476" lon="4.74957">
        <ele>216</ele>
        <time>2022-05-17T12:53:09.547Z</time>
      </trkpt>
      <trkpt lat="49.79477" lon="4.74949">
        <ele>216</ele>
        <time>2022-05-17T12:53:10.530Z</time>
      </trkpt>
      <trkpt lat="49.79477" lon="4.74949">
        <ele>216</ele>
        <time>2022-05-17T12:53:11.535Z</time>
      </trkpt>
      <trkpt lat="49.79476" lon="4.7494">
        <ele>216</ele>
        <time>2022-05-17T12:53:12.525Z</time>
      </trkpt>
      <trkpt lat="49.79476" lon="4.74936">
        <ele>216</ele>
        <time>2022-05-17T12:53:13.558Z</time>
      </trkpt>
      <trkpt lat="49.79476" lon="4.74936">
        <ele>216</ele>
        <time>2022-05-17T12:53:14.524Z</time>
      </trkpt>
      <trkpt lat="49.79474" lon="4.74928">
        <ele>217</ele>
        <time>2022-05-17T12:53:15.545Z</time>
      </trkpt>
      <trkpt lat="49.79473" lon="4.74924">
        <ele>217</ele>
        <time>2022-05-17T12:53:16.562Z</time>
      </trkpt>
      <trkpt lat="49.79473" lon="4.74924">
        <ele>217</ele>
        <time>2022-05-17T12:53:17.527Z</time>
      </trkpt>
      <trkpt lat="49.79472" lon="4.74916">
        <ele>217</ele>
        <time>2022-05-17T12:53:18.545Z</time>
      </trkpt>
      <trkpt lat="49.79472" lon="4.74916">
        <ele>217</ele>
        <time>2022-05-17T12:53:19.551Z</time>
      </trkpt>
      <trkpt lat="49.79471" lon="4.74906">
        <ele>217</ele>
        <time>2022-05-17T12:53:20.558Z</time>
      </trkpt>
      <trkpt lat="49.79471" lon="4.74906">
        <ele>217</ele>
        <time>2022-05-17T12:53:21.537Z</time>
      </trkpt>
      <trkpt lat="49.7947" lon="4.74895">
        <ele>217</ele>
        <time>2022-05-17T12:53:22.562Z</time>
      </trkpt>
      <trkpt lat="49.7947" lon="4.74895">
        <ele>217</ele>
        <time>2022-05-17T12:53:23.527Z</time>
      </trkpt>
      <trkpt lat="49.7947" lon="4.74882">
        <ele>218</ele>
        <time>2022-05-17T12:53:24.542Z</time>
      </trkpt>
      <trkpt lat="49.79469" lon="4.74876">
        <ele>217</ele>
        <time>2022-05-17T12:53:25.558Z</time>
      </trkpt>
      <trkpt lat="49.79469" lon="4.74876">
        <ele>217</ele>
        <time>2022-05-17T12:53:26.563Z</time>
      </trkpt>
      <trkpt lat="49.79468" lon="4.74861">
        <ele>218</ele>
        <time>2022-05-17T12:53:27.554Z</time>
      </trkpt>
      <trkpt lat="49.79468" lon="4.74861">
        <ele>218</ele>
        <time>2022-05-17T12:53:28.559Z</time>
      </trkpt>
      <trkpt lat="49.79467" lon="4.74845">
        <ele>218</ele>
        <time>2022-05-17T12:53:29.544Z</time>
      </trkpt>
      <trkpt lat="49.79466" lon="4.74836">
        <ele>219</ele>
        <time>2022-05-17T12:53:30.526Z</time>
      </trkpt>
      <trkpt lat="49.79466" lon="4.74836">
        <ele>219</ele>
        <time>2022-05-17T12:53:31.531Z</time>
      </trkpt>
      <trkpt lat="49.79465" lon="4.7482">
        <ele>220</ele>
        <time>2022-05-17T12:53:32.551Z</time>
      </trkpt>
      <trkpt lat="49.79465" lon="4.7482">
        <ele>220</ele>
        <time>2022-05-17T12:53:33.557Z</time>
      </trkpt>
      <trkpt lat="49.79467" lon="4.74805">
        <ele>220</ele>
        <time>2022-05-17T12:53:34.533Z</time>
      </trkpt>
      <trkpt lat="49.79467" lon="4.74805">
        <ele>220</ele>
        <time>2022-05-17T12:53:35.548Z</time>
      </trkpt>
      <trkpt lat="49.79472" lon="4.74794">
        <ele>218</ele>
        <time>2022-05-17T12:53:36.525Z</time>
      </trkpt>
      <trkpt lat="49.79474" lon="4.74789">
        <ele>218</ele>
        <time>2022-05-17T12:53:37.543Z</time>
      </trkpt>
      <trkpt lat="49.79474" lon="4.74789">
        <ele>218</ele>
        <time>2022-05-17T12:53:38.549Z</time>
      </trkpt>
      <trkpt lat="49.79477" lon="4.74777">
        <ele>216</ele>
        <time>2022-05-17T12:53:39.558Z</time>
      </trkpt>
      <trkpt lat="49.79476" lon="4.74773">
        <ele>216</ele>
        <time>2022-05-17T12:53:40.537Z</time>
      </trkpt>
      <trkpt lat="49.79476" lon="4.74773">
        <ele>216</ele>
        <time>2022-05-17T12:53:41.547Z</time>
      </trkpt>
      <trkpt lat="49.7947" lon="4.74773">
        <ele>215</ele>
        <time>2022-05-17T12:53:42.550Z</time>
      </trkpt>
      <trkpt lat="49.7947" lon="4.74775">
        <ele>214</ele>
        <time>2022-05-17T12:53:43.525Z</time>
      </trkpt>
      <trkpt lat="49.7947" lon="4.74775">
        <ele>214</ele>
        <time>2022-05-17T12:53:44.531Z</time>
      </trkpt>
      <trkpt lat="49.79473" lon="4.74778">
        <ele>213</ele>
        <time>2022-05-17T12:53:45.531Z</time>
      </trkpt>
      <trkpt lat="49.79473" lon="4.74778">
        <ele>213</ele>
        <time>2022-05-17T12:53:46.536Z</time>
      </trkpt>
      <trkpt lat="49.79476" lon="4.74783">
        <ele>213</ele>
        <time>2022-05-17T12:53:47.542Z</time>
      </trkpt>
      <trkpt lat="49.79476" lon="4.74783">
        <ele>213</ele>
        <time>2022-05-17T12:53:48.561Z</time>
      </trkpt>
      <trkpt lat="49.79475" lon="4.74788">
        <ele>212</ele>
        <time>2022-05-17T12:53:49.535Z</time>
      </trkpt>
      <trkpt lat="49.79475" lon="4.74788">
        <ele>212</ele>
        <time>2022-05-17T12:53:50.559Z</time>
      </trkpt>
      <trkpt lat="49.79473" lon="4.74785">
        <ele>212</ele>
        <time>2022-05-17T12:53:51.561Z</time>
      </trkpt>
      <trkpt lat="49.79473" lon="4.74785">
        <ele>212</ele>
        <time>2022-05-17T12:53:52.556Z</time>
      </trkpt>
      <trkpt lat="49.79473" lon="4.74777">
        <ele>212</ele>
        <time>2022-05-17T12:53:53.533Z</time>
      </trkpt>
      <trkpt lat="49.79473" lon="4.74777">
        <ele>212</ele>
        <time>2022-05-17T12:53:54.559Z</time>
      </trkpt>
      <trkpt lat="49.79475" lon="4.74766">
        <ele>211</ele>
        <time>2022-05-17T12:53:55.531Z</time>
      </trkpt>
      <trkpt lat="49.79475" lon="4.74766">
        <ele>211</ele>
        <time>2022-05-17T12:53:56.536Z</time>
      </trkpt>
      <trkpt lat="49.79479" lon="4.74752">
        <ele>210</ele>
        <time>2022-05-17T12:53:57.559Z</time>
      </trkpt>
      <trkpt lat="49.7948" lon="4.74743">
        <ele>210</ele>
        <time>2022-05-17T12:53:58.544Z</time>
      </trkpt>
      <trkpt lat="49.7948" lon="4.74743">
        <ele>210</ele>
        <time>2022-05-17T12:53:59.566Z</time>
      </trkpt>
      <trkpt lat="49.7948" lon="4.74725">
        <ele>209</ele>
        <time>2022-05-17T12:54:00.546Z</time>
      </trkpt>
      <trkpt lat="49.7948" lon="4.74725">
        <ele>209</ele>
        <time>2022-05-17T12:54:01.552Z</time>
      </trkpt>
      <trkpt lat="49.79477" lon="4.74706">
        <ele>209</ele>
        <time>2022-05-17T12:54:02.555Z</time>
      </trkpt>
      <trkpt lat="49.79477" lon="4.74706">
        <ele>209</ele>
        <time>2022-05-17T12:54:03.560Z</time>
      </trkpt>
      <trkpt lat="49.79474" lon="4.74686">
        <ele>208</ele>
        <time>2022-05-17T12:54:04.540Z</time>
      </trkpt>
      <trkpt lat="49.79474" lon="4.74686">
        <ele>208</ele>
        <time>2022-05-17T12:54:05.546Z</time>
      </trkpt>
      <trkpt lat="49.79471" lon="4.74666">
        <ele>208</ele>
        <time>2022-05-17T12:54:06.525Z</time>
      </trkpt>
      <trkpt lat="49.79471" lon="4.74666">
        <ele>208</ele>
        <time>2022-05-17T12:54:07.531Z</time>
      </trkpt>
      <trkpt lat="49.79473" lon="4.7465">
        <ele>206</ele>
        <time>2022-05-17T12:54:08.547Z</time>
      </trkpt>
      <trkpt lat="49.79476" lon="4.74645">
        <ele>206</ele>
        <time>2022-05-17T12:54:09.558Z</time>
      </trkpt>
      <trkpt lat="49.79476" lon="4.74645">
        <ele>206</ele>
        <time>2022-05-17T12:54:10.563Z</time>
      </trkpt>
      <trkpt lat="49.79479" lon="4.74639">
        <ele>205</ele>
        <time>2022-05-17T12:54:11.543Z</time>
      </trkpt>
      <trkpt lat="49.79479" lon="4.74639">
        <ele>205</ele>
        <time>2022-05-17T12:54:12.549Z</time>
      </trkpt>
      <trkpt lat="49.79481" lon="4.74636">
        <ele>205</ele>
        <time>2022-05-17T12:54:13.546Z</time>
      </trkpt>
      <trkpt lat="49.79481" lon="4.74636">
        <ele>205</ele>
        <time>2022-05-17T12:54:14.552Z</time>
      </trkpt>
      <trkpt lat="49.79483" lon="4.74635">
        <ele>204</ele>
        <time>2022-05-17T12:54:15.531Z</time>
      </trkpt>
      <trkpt lat="49.79483" lon="4.74637">
        <ele>204</ele>
        <time>2022-05-17T12:54:16.537Z</time>
      </trkpt>
      <trkpt lat="49.79483" lon="4.74637">
        <ele>204</ele>
        <time>2022-05-17T12:54:17.558Z</time>
      </trkpt>
      <trkpt lat="49.79483" lon="4.74642">
        <ele>204</ele>
        <time>2022-05-17T12:54:18.534Z</time>
      </trkpt>
      <trkpt lat="49.79484" lon="4.74645">
        <ele>204</ele>
        <time>2022-05-17T12:54:19.562Z</time>
      </trkpt>
      <trkpt lat="49.79484" lon="4.74645">
        <ele>204</ele>
        <time>2022-05-17T12:54:20.556Z</time>
      </trkpt>
      <trkpt lat="49.79484" lon="4.74648">
        <ele>204</ele>
        <time>2022-05-17T12:54:21.562Z</time>
      </trkpt>
      <trkpt lat="49.79484" lon="4.74648">
        <ele>204</ele>
        <time>2022-05-17T12:54:22.556Z</time>
      </trkpt>
      <trkpt lat="49.79484" lon="4.74654">
        <ele>203</ele>
        <time>2022-05-17T12:54:23.532Z</time>
      </trkpt>
      <trkpt lat="49.79484" lon="4.74654">
        <ele>203</ele>
        <time>2022-05-17T12:54:24.558Z</time>
      </trkpt>
      <trkpt lat="49.79485" lon="4.74658">
        <ele>203</ele>
        <time>2022-05-17T12:54:25.551Z</time>
      </trkpt>
      <trkpt lat="49.79485" lon="4.74658">
        <ele>203</ele>
        <time>2022-05-17T12:54:26.557Z</time>
      </trkpt>
      <trkpt lat="49.79485" lon="4.7466">
        <ele>202</ele>
        <time>2022-05-17T12:54:27.528Z</time>
      </trkpt>
      <trkpt lat="49.79485" lon="4.74662">
        <ele>202</ele>
        <time>2022-05-17T12:54:28.554Z</time>
      </trkpt>
      <trkpt lat="49.79485" lon="4.74662">
        <ele>202</ele>
        <time>2022-05-17T12:54:29.560Z</time>
      </trkpt>
      <trkpt lat="49.79485" lon="4.74666">
        <ele>202</ele>
        <time>2022-05-17T12:54:30.538Z</time>
      </trkpt>
      <trkpt lat="49.79486" lon="4.74668">
        <ele>202</ele>
        <time>2022-05-17T12:54:31.553Z</time>
      </trkpt>
      <trkpt lat="49.79487" lon="4.7467">
        <ele>202</ele>
        <time>2022-05-17T12:54:32.550Z</time>
      </trkpt>
      <trkpt lat="49.79487" lon="4.7467">
        <ele>202</ele>
        <time>2022-05-17T12:54:33.556Z</time>
      </trkpt>
      <trkpt lat="49.79488" lon="4.74674">
        <ele>202</ele>
        <time>2022-05-17T12:54:34.541Z</time>
      </trkpt>
      <trkpt lat="49.79488" lon="4.74674">
        <ele>202</ele>
        <time>2022-05-17T12:54:35.549Z</time>
      </trkpt>
      <trkpt lat="49.79489" lon="4.74678">
        <ele>201</ele>
        <time>2022-05-17T12:54:36.536Z</time>
      </trkpt>
      <trkpt lat="49.7949" lon="4.7468">
        <ele>201</ele>
        <time>2022-05-17T12:54:37.553Z</time>
      </trkpt>
      <trkpt lat="49.7949" lon="4.7468">
        <ele>201</ele>
        <time>2022-05-17T12:54:38.559Z</time>
      </trkpt>
      <trkpt lat="49.79491" lon="4.74684">
        <ele>201</ele>
        <time>2022-05-17T12:54:39.539Z</time>
      </trkpt>
      <trkpt lat="49.79492" lon="4.74687">
        <ele>201</ele>
        <time>2022-05-17T12:54:40.563Z</time>
      </trkpt>
      <trkpt lat="49.79492" lon="4.74687">
        <ele>201</ele>
        <time>2022-05-17T12:54:41.529Z</time>
      </trkpt>
      <trkpt lat="49.79494" lon="4.74694">
        <ele>201</ele>
        <time>2022-05-17T12:54:42.545Z</time>
      </trkpt>
      <trkpt lat="49.79495" lon="4.74697">
        <ele>201</ele>
        <time>2022-05-17T12:54:43.532Z</time>
      </trkpt>
      <trkpt lat="49.79495" lon="4.74697">
        <ele>201</ele>
        <time>2022-05-17T12:54:44.537Z</time>
      </trkpt>
      <trkpt lat="49.79497" lon="4.74702">
        <ele>201</ele>
        <time>2022-05-17T12:54:45.559Z</time>
      </trkpt>
      <trkpt lat="49.79497" lon="4.74704">
        <ele>200</ele>
        <time>2022-05-17T12:54:46.533Z</time>
      </trkpt>
      <trkpt lat="49.79498" lon="4.74706">
        <ele>200</ele>
        <time>2022-05-17T12:54:47.548Z</time>
      </trkpt>
      <trkpt lat="49.79498" lon="4.74708">
        <ele>200</ele>
        <time>2022-05-17T12:54:48.524Z</time>
      </trkpt>
      <trkpt lat="49.79498" lon="4.74708">
        <ele>200</ele>
        <time>2022-05-17T12:54:49.530Z</time>
      </trkpt>
      <trkpt lat="49.79499" lon="4.7471">
        <ele>200</ele>
        <time>2022-05-17T12:54:50.562Z</time>
      </trkpt>
      <trkpt lat="49.79499" lon="4.74713">
        <ele>200</ele>
        <time>2022-05-17T12:54:51.543Z</time>
      </trkpt>
      <trkpt lat="49.79499" lon="4.74713">
        <ele>200</ele>
        <time>2022-05-17T12:54:52.550Z</time>
      </trkpt>
      <trkpt lat="49.795" lon="4.74715">
        <ele>200</ele>
        <time>2022-05-17T12:54:53.528Z</time>
      </trkpt>
      <trkpt lat="49.795" lon="4.74715">
        <ele>200</ele>
        <time>2022-05-17T12:54:54.558Z</time>
      </trkpt>
      <trkpt lat="49.79501" lon="4.74719">
        <ele>201</ele>
        <time>2022-05-17T12:54:55.547Z</time>
      </trkpt>
      <trkpt lat="49.79501" lon="4.74719">
        <ele>201</ele>
        <time>2022-05-17T12:54:56.553Z</time>
      </trkpt>
      <trkpt lat="49.79503" lon="4.74723">
        <ele>201</ele>
        <time>2022-05-17T12:54:57.527Z</time>
      </trkpt>
      <trkpt lat="49.79503" lon="4.74723">
        <ele>201</ele>
        <time>2022-05-17T12:54:58.533Z</time>
      </trkpt>
      <trkpt lat="49.79504" lon="4.74726">
        <ele>201</ele>
        <time>2022-05-17T12:54:59.558Z</time>
      </trkpt>
      <trkpt lat="49.79504" lon="4.74726">
        <ele>201</ele>
        <time>2022-05-17T12:55:00.561Z</time>
      </trkpt>
      <trkpt lat="49.79505" lon="4.7473">
        <ele>201</ele>
        <time>2022-05-17T12:55:01.561Z</time>
      </trkpt>
      <trkpt lat="49.79505" lon="4.7473">
        <ele>201</ele>
        <time>2022-05-17T12:55:02.526Z</time>
      </trkpt>
      <trkpt lat="49.79506" lon="4.74734">
        <ele>202</ele>
        <time>2022-05-17T12:55:03.563Z</time>
      </trkpt>
      <trkpt lat="49.79506" lon="4.74734">
        <ele>202</ele>
        <time>2022-05-17T12:55:04.528Z</time>
      </trkpt>
      <trkpt lat="49.79507" lon="4.74738">
        <ele>202</ele>
        <time>2022-05-17T12:55:05.542Z</time>
      </trkpt>
      <trkpt lat="49.79508" lon="4.7474">
        <ele>202</ele>
        <time>2022-05-17T12:55:06.531Z</time>
      </trkpt>
      <trkpt lat="49.79509" lon="4.74742">
        <ele>203</ele>
        <time>2022-05-17T12:55:07.553Z</time>
      </trkpt>
      <trkpt lat="49.79509" lon="4.74742">
        <ele>203</ele>
        <time>2022-05-17T12:55:08.559Z</time>
      </trkpt>
      <trkpt lat="49.7951" lon="4.74745">
        <ele>203</ele>
        <time>2022-05-17T12:55:09.535Z</time>
      </trkpt>
      <trkpt lat="49.79511" lon="4.74746">
        <ele>203</ele>
        <time>2022-05-17T12:55:10.545Z</time>
      </trkpt>
      <trkpt lat="49.79511" lon="4.74746">
        <ele>203</ele>
        <time>2022-05-17T12:55:11.551Z</time>
      </trkpt>
      <trkpt lat="49.79512" lon="4.74751">
        <ele>204</ele>
        <time>2022-05-17T12:55:12.528Z</time>
      </trkpt>
      <trkpt lat="49.79513" lon="4.74754">
        <ele>204</ele>
        <time>2022-05-17T12:55:13.549Z</time>
      </trkpt>
      <trkpt lat="49.79513" lon="4.74754">
        <ele>204</ele>
        <time>2022-05-17T12:55:14.555Z</time>
      </trkpt>
      <trkpt lat="49.79514" lon="4.74759">
        <ele>204</ele>
        <time>2022-05-17T12:55:15.555Z</time>
      </trkpt>
      <trkpt lat="49.79514" lon="4.74759">
        <ele>204</ele>
        <time>2022-05-17T12:55:16.562Z</time>
      </trkpt>
      <trkpt lat="49.79516" lon="4.74762">
        <ele>205</ele>
        <time>2022-05-17T12:55:17.563Z</time>
      </trkpt>
      <trkpt lat="49.79516" lon="4.74763">
        <ele>205</ele>
        <time>2022-05-17T12:55:18.548Z</time>
      </trkpt>
      <trkpt lat="49.79516" lon="4.74763">
        <ele>205</ele>
        <time>2022-05-17T12:55:19.554Z</time>
      </trkpt>
      <trkpt lat="49.79518" lon="4.74766">
        <ele>205</ele>
        <time>2022-05-17T12:55:20.553Z</time>
      </trkpt>
      <trkpt lat="49.79518" lon="4.74766">
        <ele>205</ele>
        <time>2022-05-17T12:55:21.552Z</time>
      </trkpt>
      <trkpt lat="49.79519" lon="4.74769">
        <ele>206</ele>
        <time>2022-05-17T12:55:22.528Z</time>
      </trkpt>
      <trkpt lat="49.7952" lon="4.74771">
        <ele>206</ele>
        <time>2022-05-17T12:55:23.542Z</time>
      </trkpt>
      <trkpt lat="49.7952" lon="4.74771">
        <ele>206</ele>
        <time>2022-05-17T12:55:24.549Z</time>
      </trkpt>
      <trkpt lat="49.79521" lon="4.74776">
        <ele>207</ele>
        <time>2022-05-17T12:55:25.562Z</time>
      </trkpt>
      <trkpt lat="49.79521" lon="4.74776">
        <ele>207</ele>
        <time>2022-05-17T12:55:26.528Z</time>
      </trkpt>
      <trkpt lat="49.79523" lon="4.74779">
        <ele>207</ele>
        <time>2022-05-17T12:55:27.542Z</time>
      </trkpt>
      <trkpt lat="49.79524" lon="4.74781">
        <ele>208</ele>
        <time>2022-05-17T12:55:28.554Z</time>
      </trkpt>
      <trkpt lat="49.79524" lon="4.74781">
        <ele>208</ele>
        <time>2022-05-17T12:55:29.560Z</time>
      </trkpt>
      <trkpt lat="49.79526" lon="4.74785">
        <ele>209</ele>
        <time>2022-05-17T12:55:30.557Z</time>
      </trkpt>
      <trkpt lat="49.79526" lon="4.74786">
        <ele>209</ele>
        <time>2022-05-17T12:55:31.532Z</time>
      </trkpt>
      <trkpt lat="49.79526" lon="4.74786">
        <ele>209</ele>
        <time>2022-05-17T12:55:32.538Z</time>
      </trkpt>
      <trkpt lat="49.79528" lon="4.74789">
        <ele>210</ele>
        <time>2022-05-17T12:55:33.538Z</time>
      </trkpt>
      <trkpt lat="49.79529" lon="4.74791">
        <ele>210</ele>
        <time>2022-05-17T12:55:34.524Z</time>
      </trkpt>
      <trkpt lat="49.79529" lon="4.74791">
        <ele>210</ele>
        <time>2022-05-17T12:55:35.530Z</time>
      </trkpt>
      <trkpt lat="49.7953" lon="4.74795">
        <ele>211</ele>
        <time>2022-05-17T12:55:36.559Z</time>
      </trkpt>
      <trkpt lat="49.79531" lon="4.74796">
        <ele>211</ele>
        <time>2022-05-17T12:55:37.545Z</time>
      </trkpt>
      <trkpt lat="49.79531" lon="4.74796">
        <ele>211</ele>
        <time>2022-05-17T12:55:38.551Z</time>
      </trkpt>
      <trkpt lat="49.79532" lon="4.748">
        <ele>211</ele>
        <time>2022-05-17T12:55:39.526Z</time>
      </trkpt>
      <trkpt lat="49.79533" lon="4.74801">
        <ele>212</ele>
        <time>2022-05-17T12:55:40.547Z</time>
      </trkpt>
      <trkpt lat="49.79534" lon="4.74803">
        <ele>212</ele>
        <time>2022-05-17T12:55:41.532Z</time>
      </trkpt>
      <trkpt lat="49.79534" lon="4.74803">
        <ele>212</ele>
        <time>2022-05-17T12:55:42.538Z</time>
      </trkpt>
      <trkpt lat="49.79537" lon="4.74806">
        <ele>213</ele>
        <time>2022-05-17T12:55:43.561Z</time>
      </trkpt>
      <trkpt lat="49.79538" lon="4.74807">
        <ele>213</ele>
        <time>2022-05-17T12:55:44.530Z</time>
      </trkpt>
      <trkpt lat="49.79538" lon="4.74807">
        <ele>213</ele>
        <time>2022-05-17T12:55:45.535Z</time>
      </trkpt>
      <trkpt lat="49.79541" lon="4.7481">
        <ele>213</ele>
        <time>2022-05-17T12:55:46.555Z</time>
      </trkpt>
      <trkpt lat="49.79542" lon="4.74812">
        <ele>214</ele>
        <time>2022-05-17T12:55:47.526Z</time>
      </trkpt>
      <trkpt lat="49.79542" lon="4.74815">
        <ele>214</ele>
        <time>2022-05-17T12:55:48.544Z</time>
      </trkpt>
      <trkpt lat="49.79542" lon="4.74815">
        <ele>214</ele>
        <time>2022-05-17T12:55:49.550Z</time>
      </trkpt>
      <trkpt lat="49.79544" lon="4.74818">
        <ele>214</ele>
        <time>2022-05-17T12:55:50.526Z</time>
      </trkpt>
      <trkpt lat="49.79545" lon="4.7482">
        <ele>215</ele>
        <time>2022-05-17T12:55:51.543Z</time>
      </trkpt>
      <trkpt lat="49.79545" lon="4.7482">
        <ele>215</ele>
        <time>2022-05-17T12:55:52.549Z</time>
      </trkpt>
      <trkpt lat="49.79547" lon="4.74823">
        <ele>215</ele>
        <time>2022-05-17T12:55:53.545Z</time>
      </trkpt>
      <trkpt lat="49.79548" lon="4.74825">
        <ele>216</ele>
        <time>2022-05-17T12:55:54.563Z</time>
      </trkpt>
      <trkpt lat="49.7955" lon="4.74826">
        <ele>216</ele>
        <time>2022-05-17T12:55:55.539Z</time>
      </trkpt>
      <trkpt lat="49.7955" lon="4.74826">
        <ele>216</ele>
        <time>2022-05-17T12:55:56.548Z</time>
      </trkpt>
      <trkpt lat="49.79552" lon="4.74829">
        <ele>216</ele>
        <time>2022-05-17T12:55:57.529Z</time>
      </trkpt>
      <trkpt lat="49.79553" lon="4.74831">
        <ele>217</ele>
        <time>2022-05-17T12:55:58.550Z</time>
      </trkpt>
      <trkpt lat="49.79553" lon="4.74831">
        <ele>217</ele>
        <time>2022-05-17T12:55:59.556Z</time>
      </trkpt>
      <trkpt lat="49.79555" lon="4.74835">
        <ele>217</ele>
        <time>2022-05-17T12:56:00.534Z</time>
      </trkpt>
      <trkpt lat="49.79556" lon="4.74837">
        <ele>217</ele>
        <time>2022-05-17T12:56:01.555Z</time>
      </trkpt>
      <trkpt lat="49.79556" lon="4.74837">
        <ele>217</ele>
        <time>2022-05-17T12:56:02.561Z</time>
      </trkpt>
      <trkpt lat="49.79559" lon="4.7484">
        <ele>218</ele>
        <time>2022-05-17T12:56:03.556Z</time>
      </trkpt>
      <trkpt lat="49.7956" lon="4.74842">
        <ele>218</ele>
        <time>2022-05-17T12:56:04.538Z</time>
      </trkpt>
      <trkpt lat="49.7956" lon="4.74842">
        <ele>218</ele>
        <time>2022-05-17T12:56:05.549Z</time>
      </trkpt>
      <trkpt lat="49.79563" lon="4.74845">
        <ele>219</ele>
        <time>2022-05-17T12:56:06.528Z</time>
      </trkpt>
      <trkpt lat="49.79564" lon="4.74847">
        <ele>219</ele>
        <time>2022-05-17T12:56:07.554Z</time>
      </trkpt>
      <trkpt lat="49.79564" lon="4.74847">
        <ele>219</ele>
        <time>2022-05-17T12:56:08.559Z</time>
      </trkpt>
      <trkpt lat="49.79567" lon="4.7485">
        <ele>220</ele>
        <time>2022-05-17T12:56:09.536Z</time>
      </trkpt>
      <trkpt lat="49.79569" lon="4.74852">
        <ele>220</ele>
        <time>2022-05-17T12:56:10.556Z</time>
      </trkpt>
      <trkpt lat="49.79569" lon="4.74852">
        <ele>220</ele>
        <time>2022-05-17T12:56:11.562Z</time>
      </trkpt>
      <trkpt lat="49.79572" lon="4.74855">
        <ele>221</ele>
        <time>2022-05-17T12:56:12.542Z</time>
      </trkpt>
      <trkpt lat="49.79574" lon="4.74857">
        <ele>221</ele>
        <time>2022-05-17T12:56:13.556Z</time>
      </trkpt>
      <trkpt lat="49.79574" lon="4.74857">
        <ele>221</ele>
        <time>2022-05-17T12:56:14.562Z</time>
      </trkpt>
      <trkpt lat="49.79576" lon="4.74862">
        <ele>222</ele>
        <time>2022-05-17T12:56:15.551Z</time>
      </trkpt>
      <trkpt lat="49.79578" lon="4.74864">
        <ele>222</ele>
        <time>2022-05-17T12:56:16.536Z</time>
      </trkpt>
      <trkpt lat="49.79579" lon="4.74866">
        <ele>223</ele>
        <time>2022-05-17T12:56:17.558Z</time>
      </trkpt>
      <trkpt lat="49.79579" lon="4.74866">
        <ele>223</ele>
        <time>2022-05-17T12:56:18.531Z</time>
      </trkpt>
      <trkpt lat="49.79581" lon="4.7487">
        <ele>223</ele>
        <time>2022-05-17T12:56:19.550Z</time>
      </trkpt>
      <trkpt lat="49.79581" lon="4.7487">
        <ele>223</ele>
        <time>2022-05-17T12:56:20.555Z</time>
      </trkpt>
      <trkpt lat="49.79584" lon="4.74873">
        <ele>223</ele>
        <time>2022-05-17T12:56:21.543Z</time>
      </trkpt>
      <trkpt lat="49.79584" lon="4.74873">
        <ele>223</ele>
        <time>2022-05-17T12:56:22.550Z</time>
      </trkpt>
      <trkpt lat="49.79587" lon="4.74875">
        <ele>223</ele>
        <time>2022-05-17T12:56:23.525Z</time>
      </trkpt>
      <trkpt lat="49.79587" lon="4.74875">
        <ele>223</ele>
        <time>2022-05-17T12:56:24.531Z</time>
      </trkpt>
      <trkpt lat="49.79591" lon="4.74877">
        <ele>224</ele>
        <time>2022-05-17T12:56:25.550Z</time>
      </trkpt>
      <trkpt lat="49.79591" lon="4.74877">
        <ele>224</ele>
        <time>2022-05-17T12:56:26.556Z</time>
      </trkpt>
      <trkpt lat="49.79594" lon="4.74879">
        <ele>224</ele>
        <time>2022-05-17T12:56:27.542Z</time>
      </trkpt>
      <trkpt lat="49.79594" lon="4.74879">
        <ele>224</ele>
        <time>2022-05-17T12:56:28.548Z</time>
      </trkpt>
      <trkpt lat="49.79597" lon="4.7488">
        <ele>224</ele>
        <time>2022-05-17T12:56:29.533Z</time>
      </trkpt>
      <trkpt lat="49.79597" lon="4.7488">
        <ele>224</ele>
        <time>2022-05-17T12:56:30.551Z</time>
      </trkpt>
      <trkpt lat="49.79602" lon="4.7488">
        <ele>225</ele>
        <time>2022-05-17T12:56:31.528Z</time>
      </trkpt>
      <trkpt lat="49.79602" lon="4.7488">
        <ele>225</ele>
        <time>2022-05-17T12:56:32.534Z</time>
      </trkpt>
      <trkpt lat="49.79605" lon="4.7488">
        <ele>225</ele>
        <time>2022-05-17T12:56:33.563Z</time>
      </trkpt>
      <trkpt lat="49.79605" lon="4.7488">
        <ele>225</ele>
        <time>2022-05-17T12:56:34.557Z</time>
      </trkpt>
      <trkpt lat="49.79608" lon="4.74879">
        <ele>226</ele>
        <time>2022-05-17T12:56:35.560Z</time>
      </trkpt>
      <trkpt lat="49.79608" lon="4.74879">
        <ele>226</ele>
        <time>2022-05-17T12:56:36.526Z</time>
      </trkpt>
      <trkpt lat="49.79611" lon="4.74878">
        <ele>226</ele>
        <time>2022-05-17T12:56:37.545Z</time>
      </trkpt>
      <trkpt lat="49.79611" lon="4.74878">
        <ele>226</ele>
        <time>2022-05-17T12:56:38.551Z</time>
      </trkpt>
      <trkpt lat="49.79614" lon="4.74876">
        <ele>227</ele>
        <time>2022-05-17T12:56:39.528Z</time>
      </trkpt>
      <trkpt lat="49.79614" lon="4.74876">
        <ele>227</ele>
        <time>2022-05-17T12:56:40.546Z</time>
      </trkpt>
      <trkpt lat="49.79617" lon="4.74874">
        <ele>228</ele>
        <time>2022-05-17T12:56:41.525Z</time>
      </trkpt>
      <trkpt lat="49.79617" lon="4.74874">
        <ele>228</ele>
        <time>2022-05-17T12:56:42.530Z</time>
      </trkpt>
      <trkpt lat="49.7962" lon="4.7487">
        <ele>229</ele>
        <time>2022-05-17T12:56:43.544Z</time>
      </trkpt>
      <trkpt lat="49.7962" lon="4.7487">
        <ele>229</ele>
        <time>2022-05-17T12:56:44.551Z</time>
      </trkpt>
      <trkpt lat="49.79624" lon="4.74868">
        <ele>230</ele>
        <time>2022-05-17T12:56:45.532Z</time>
      </trkpt>
      <trkpt lat="49.79624" lon="4.74868">
        <ele>230</ele>
        <time>2022-05-17T12:56:46.537Z</time>
      </trkpt>
      <trkpt lat="49.79626" lon="4.74866">
        <ele>232</ele>
        <time>2022-05-17T12:56:47.545Z</time>
      </trkpt>
      <trkpt lat="49.79626" lon="4.74866">
        <ele>232</ele>
        <time>2022-05-17T12:56:48.551Z</time>
      </trkpt>
      <trkpt lat="49.79629" lon="4.74863">
        <ele>233</ele>
        <time>2022-05-17T12:56:49.563Z</time>
      </trkpt>
      <trkpt lat="49.79631" lon="4.74862">
        <ele>233</ele>
        <time>2022-05-17T12:56:50.543Z</time>
      </trkpt>
      <trkpt lat="49.79631" lon="4.74862">
        <ele>233</ele>
        <time>2022-05-17T12:56:51.549Z</time>
      </trkpt>
      <trkpt lat="49.79634" lon="4.7486">
        <ele>234</ele>
        <time>2022-05-17T12:56:52.532Z</time>
      </trkpt>
      <trkpt lat="49.79635" lon="4.74858">
        <ele>234</ele>
        <time>2022-05-17T12:56:53.552Z</time>
      </trkpt>
      <trkpt lat="49.79635" lon="4.74858">
        <ele>234</ele>
        <time>2022-05-17T12:56:54.558Z</time>
      </trkpt>
      <trkpt lat="49.79637" lon="4.74855">
        <ele>236</ele>
        <time>2022-05-17T12:56:55.537Z</time>
      </trkpt>
      <trkpt lat="49.79637" lon="4.74855">
        <ele>236</ele>
        <time>2022-05-17T12:56:56.546Z</time>
      </trkpt>
      <trkpt lat="49.79639" lon="4.74851">
        <ele>237</ele>
        <time>2022-05-17T12:56:57.564Z</time>
      </trkpt>
      <trkpt lat="49.79641" lon="4.7485">
        <ele>237</ele>
        <time>2022-05-17T12:56:58.537Z</time>
      </trkpt>
      <trkpt lat="49.79641" lon="4.7485">
        <ele>237</ele>
        <time>2022-05-17T12:56:59.552Z</time>
      </trkpt>
      <trkpt lat="49.79644" lon="4.74848">
        <ele>238</ele>
        <time>2022-05-17T12:57:00.533Z</time>
      </trkpt>
      <trkpt lat="49.79645" lon="4.74847">
        <ele>239</ele>
        <time>2022-05-17T12:57:01.560Z</time>
      </trkpt>
      <trkpt lat="49.79645" lon="4.74847">
        <ele>239</ele>
        <time>2022-05-17T12:57:02.525Z</time>
      </trkpt>
      <trkpt lat="49.79647" lon="4.74845">
        <ele>240</ele>
        <time>2022-05-17T12:57:03.540Z</time>
      </trkpt>
      <trkpt lat="49.79647" lon="4.74845">
        <ele>240</ele>
        <time>2022-05-17T12:57:04.547Z</time>
      </trkpt>
      <trkpt lat="49.79651" lon="4.74843">
        <ele>240</ele>
        <time>2022-05-17T12:57:05.559Z</time>
      </trkpt>
      <trkpt lat="49.79653" lon="4.74841">
        <ele>241</ele>
        <time>2022-05-17T12:57:06.539Z</time>
      </trkpt>
      <trkpt lat="49.79653" lon="4.74841">
        <ele>241</ele>
        <time>2022-05-17T12:57:07.545Z</time>
      </trkpt>
      <trkpt lat="49.79656" lon="4.74838">
        <ele>242</ele>
        <time>2022-05-17T12:57:08.532Z</time>
      </trkpt>
      <trkpt lat="49.79657" lon="4.74837">
        <ele>243</ele>
        <time>2022-05-17T12:57:09.543Z</time>
      </trkpt>
      <trkpt lat="49.79657" lon="4.74837">
        <ele>243</ele>
        <time>2022-05-17T12:57:10.550Z</time>
      </trkpt>
      <trkpt lat="49.79659" lon="4.74835">
        <ele>244</ele>
        <time>2022-05-17T12:57:11.534Z</time>
      </trkpt>
      <trkpt lat="49.79659" lon="4.74835">
        <ele>244</ele>
        <time>2022-05-17T12:57:12.539Z</time>
      </trkpt>
      <trkpt lat="49.79661" lon="4.74832">
        <ele>245</ele>
        <time>2022-05-17T12:57:13.550Z</time>
      </trkpt>
      <trkpt lat="49.79661" lon="4.74832">
        <ele>245</ele>
        <time>2022-05-17T12:57:14.556Z</time>
      </trkpt>
      <trkpt lat="49.79664" lon="4.74829">
        <ele>245</ele>
        <time>2022-05-17T12:57:15.532Z</time>
      </trkpt>
      <trkpt lat="49.79665" lon="4.74826">
        <ele>246</ele>
        <time>2022-05-17T12:57:16.553Z</time>
      </trkpt>
      <trkpt lat="49.79665" lon="4.74826">
        <ele>246</ele>
        <time>2022-05-17T12:57:17.559Z</time>
      </trkpt>
      <trkpt lat="49.79668" lon="4.74823">
        <ele>247</ele>
        <time>2022-05-17T12:57:18.546Z</time>
      </trkpt>
      <trkpt lat="49.79668" lon="4.74823">
        <ele>247</ele>
        <time>2022-05-17T12:57:19.552Z</time>
      </trkpt>
      <trkpt lat="49.7967" lon="4.74818">
        <ele>248</ele>
        <time>2022-05-17T12:57:20.542Z</time>
      </trkpt>
      <trkpt lat="49.7967" lon="4.74818">
        <ele>248</ele>
        <time>2022-05-17T12:57:21.563Z</time>
      </trkpt>
      <trkpt lat="49.79673" lon="4.74814">
        <ele>249</ele>
        <time>2022-05-17T12:57:22.542Z</time>
      </trkpt>
      <trkpt lat="49.79673" lon="4.74814">
        <ele>249</ele>
        <time>2022-05-17T12:57:23.549Z</time>
      </trkpt>
      <trkpt lat="49.79674" lon="4.7481">
        <ele>250</ele>
        <time>2022-05-17T12:57:24.524Z</time>
      </trkpt>
      <trkpt lat="49.79676" lon="4.74808">
        <ele>250</ele>
        <time>2022-05-17T12:57:25.540Z</time>
      </trkpt>
      <trkpt lat="49.79677" lon="4.74806">
        <ele>251</ele>
        <time>2022-05-17T12:57:26.526Z</time>
      </trkpt>
      <trkpt lat="49.79677" lon="4.74806">
        <ele>251</ele>
        <time>2022-05-17T12:57:27.531Z</time>
      </trkpt>
      <trkpt lat="49.79679" lon="4.74802">
        <ele>251</ele>
        <time>2022-05-17T12:57:28.545Z</time>
      </trkpt>
      <trkpt lat="49.79679" lon="4.74802">
        <ele>251</ele>
        <time>2022-05-17T12:57:29.527Z</time>
      </trkpt>
      <trkpt lat="49.7968" lon="4.74799">
        <ele>252</ele>
        <time>2022-05-17T12:57:30.525Z</time>
      </trkpt>
      <trkpt lat="49.7968" lon="4.74799">
        <ele>252</ele>
        <time>2022-05-17T12:57:31.530Z</time>
      </trkpt>
      <trkpt lat="49.79681" lon="4.74797">
        <ele>253</ele>
        <time>2022-05-17T12:57:32.544Z</time>
      </trkpt>
      <trkpt lat="49.79681" lon="4.74797">
        <ele>253</ele>
        <time>2022-05-17T12:57:33.550Z</time>
      </trkpt>
      <trkpt lat="49.79683" lon="4.74793">
        <ele>254</ele>
        <time>2022-05-17T12:57:34.531Z</time>
      </trkpt>
      <trkpt lat="49.79684" lon="4.74791">
        <ele>254</ele>
        <time>2022-05-17T12:57:35.552Z</time>
      </trkpt>
      <trkpt lat="49.79685" lon="4.7479">
        <ele>255</ele>
        <time>2022-05-17T12:57:36.528Z</time>
      </trkpt>
      <trkpt lat="49.79685" lon="4.7479">
        <ele>255</ele>
        <time>2022-05-17T12:57:37.533Z</time>
      </trkpt>
      <trkpt lat="49.79687" lon="4.74787">
        <ele>255</ele>
        <time>2022-05-17T12:57:38.527Z</time>
      </trkpt>
      <trkpt lat="49.79687" lon="4.74786">
        <ele>256</ele>
        <time>2022-05-17T12:57:39.546Z</time>
      </trkpt>
      <trkpt lat="49.79689" lon="4.74784">
        <ele>256</ele>
        <time>2022-05-17T12:57:40.527Z</time>
      </trkpt>
      <trkpt lat="49.79689" lon="4.74784">
        <ele>256</ele>
        <time>2022-05-17T12:57:41.532Z</time>
      </trkpt>
      <trkpt lat="49.7969" lon="4.74781">
        <ele>257</ele>
        <time>2022-05-17T12:57:42.553Z</time>
      </trkpt>
      <trkpt lat="49.79692" lon="4.7478">
        <ele>257</ele>
        <time>2022-05-17T12:57:43.536Z</time>
      </trkpt>
      <trkpt lat="49.79692" lon="4.7478">
        <ele>257</ele>
        <time>2022-05-17T12:57:44.547Z</time>
      </trkpt>
      <trkpt lat="49.79694" lon="4.74777">
        <ele>258</ele>
        <time>2022-05-17T12:57:45.560Z</time>
      </trkpt>
      <trkpt lat="49.79694" lon="4.74777">
        <ele>258</ele>
        <time>2022-05-17T12:57:46.525Z</time>
      </trkpt>
      <trkpt lat="49.79698" lon="4.74772">
        <ele>259</ele>
        <time>2022-05-17T12:57:47.544Z</time>
      </trkpt>
      <trkpt lat="49.79698" lon="4.74772">
        <ele>259</ele>
        <time>2022-05-17T12:57:48.551Z</time>
      </trkpt>
      <trkpt lat="49.79701" lon="4.74769">
        <ele>259</ele>
        <time>2022-05-17T12:57:49.563Z</time>
      </trkpt>
      <trkpt lat="49.79701" lon="4.74769">
        <ele>259</ele>
        <time>2022-05-17T12:57:50.529Z</time>
      </trkpt>
      <trkpt lat="49.79703" lon="4.74767">
        <ele>260</ele>
        <time>2022-05-17T12:57:51.540Z</time>
      </trkpt>
      <trkpt lat="49.79703" lon="4.74767">
        <ele>260</ele>
        <time>2022-05-17T12:57:52.546Z</time>
      </trkpt>
      <trkpt lat="49.79706" lon="4.74764">
        <ele>261</ele>
        <time>2022-05-17T12:57:53.532Z</time>
      </trkpt>
      <trkpt lat="49.79707" lon="4.74762">
        <ele>261</ele>
        <time>2022-05-17T12:57:54.553Z</time>
      </trkpt>
      <trkpt lat="49.79707" lon="4.74762">
        <ele>261</ele>
        <time>2022-05-17T12:57:55.559Z</time>
      </trkpt>
      <trkpt lat="49.79708" lon="4.74757">
        <ele>262</ele>
        <time>2022-05-17T12:57:56.546Z</time>
      </trkpt>
      <trkpt lat="49.79709" lon="4.74754">
        <ele>263</ele>
        <time>2022-05-17T12:57:57.563Z</time>
      </trkpt>
      <trkpt lat="49.79709" lon="4.74754">
        <ele>263</ele>
        <time>2022-05-17T12:57:58.529Z</time>
      </trkpt>
      <trkpt lat="49.79711" lon="4.7475">
        <ele>263</ele>
        <time>2022-05-17T12:57:59.543Z</time>
      </trkpt>
      <trkpt lat="49.79711" lon="4.7475">
        <ele>263</ele>
        <time>2022-05-17T12:58:00.553Z</time>
      </trkpt>
      <trkpt lat="49.79713" lon="4.74748">
        <ele>264</ele>
        <time>2022-05-17T12:58:01.533Z</time>
      </trkpt>
      <trkpt lat="49.79713" lon="4.74748">
        <ele>264</ele>
        <time>2022-05-17T12:58:02.554Z</time>
      </trkpt>
      <trkpt lat="49.79715" lon="4.74745">
        <ele>265</ele>
        <time>2022-05-17T12:58:03.545Z</time>
      </trkpt>
      <trkpt lat="49.79716" lon="4.74742">
        <ele>265</ele>
        <time>2022-05-17T12:58:04.526Z</time>
      </trkpt>
      <trkpt lat="49.79716" lon="4.74742">
        <ele>265</ele>
        <time>2022-05-17T12:58:05.532Z</time>
      </trkpt>
      <trkpt lat="49.79719" lon="4.74739">
        <ele>266</ele>
        <time>2022-05-17T12:58:06.556Z</time>
      </trkpt>
      <trkpt lat="49.79721" lon="4.74737">
        <ele>266</ele>
        <time>2022-05-17T12:58:07.543Z</time>
      </trkpt>
      <trkpt lat="49.79721" lon="4.74737">
        <ele>266</ele>
        <time>2022-05-17T12:58:08.550Z</time>
      </trkpt>
      <trkpt lat="49.79723" lon="4.74732">
        <ele>267</ele>
        <time>2022-05-17T12:58:09.553Z</time>
      </trkpt>
      <trkpt lat="49.79723" lon="4.74732">
        <ele>267</ele>
        <time>2022-05-17T12:58:10.558Z</time>
      </trkpt>
      <trkpt lat="49.79726" lon="4.7473">
        <ele>268</ele>
        <time>2022-05-17T12:58:11.537Z</time>
      </trkpt>
      <trkpt lat="49.79727" lon="4.74728">
        <ele>268</ele>
        <time>2022-05-17T12:58:12.526Z</time>
      </trkpt>
      <trkpt lat="49.79729" lon="4.74727">
        <ele>268</ele>
        <time>2022-05-17T12:58:13.544Z</time>
      </trkpt>
      <trkpt lat="49.79729" lon="4.74727">
        <ele>268</ele>
        <time>2022-05-17T12:58:14.550Z</time>
      </trkpt>
      <trkpt lat="49.79732" lon="4.74725">
        <ele>269</ele>
        <time>2022-05-17T12:58:15.545Z</time>
      </trkpt>
      <trkpt lat="49.79732" lon="4.74725">
        <ele>269</ele>
        <time>2022-05-17T12:58:16.551Z</time>
      </trkpt>
      <trkpt lat="49.79737" lon="4.74723">
        <ele>270</ele>
        <time>2022-05-17T12:58:17.541Z</time>
      </trkpt>
      <trkpt lat="49.79739" lon="4.74721">
        <ele>271</ele>
        <time>2022-05-17T12:58:18.553Z</time>
      </trkpt>
      <trkpt lat="49.79739" lon="4.74721">
        <ele>271</ele>
        <time>2022-05-17T12:58:19.559Z</time>
      </trkpt>
      <trkpt lat="49.79742" lon="4.74719">
        <ele>271</ele>
        <time>2022-05-17T12:58:20.560Z</time>
      </trkpt>
      <trkpt lat="49.79742" lon="4.74719">
        <ele>271</ele>
        <time>2022-05-17T12:58:21.540Z</time>
      </trkpt>
      <trkpt lat="49.79745" lon="4.74715">
        <ele>272</ele>
        <time>2022-05-17T12:58:22.534Z</time>
      </trkpt>
      <trkpt lat="49.79745" lon="4.74715">
        <ele>272</ele>
        <time>2022-05-17T12:58:23.548Z</time>
      </trkpt>
      <trkpt lat="49.79748" lon="4.74711">
        <ele>273</ele>
        <time>2022-05-17T12:58:24.562Z</time>
      </trkpt>
      <trkpt lat="49.79749" lon="4.74709">
        <ele>273</ele>
        <time>2022-05-17T12:58:25.558Z</time>
      </trkpt>
      <trkpt lat="49.79749" lon="4.74709">
        <ele>273</ele>
        <time>2022-05-17T12:58:26.524Z</time>
      </trkpt>
      <trkpt lat="49.79752" lon="4.74706">
        <ele>274</ele>
        <time>2022-05-17T12:58:27.546Z</time>
      </trkpt>
      <trkpt lat="49.79754" lon="4.74705">
        <ele>275</ele>
        <time>2022-05-17T12:58:28.559Z</time>
      </trkpt>
      <trkpt lat="49.79754" lon="4.74705">
        <ele>275</ele>
        <time>2022-05-17T12:58:29.525Z</time>
      </trkpt>
      <trkpt lat="49.79757" lon="4.74702">
        <ele>275</ele>
        <time>2022-05-17T12:58:30.562Z</time>
      </trkpt>
      <trkpt lat="49.79758" lon="4.74701">
        <ele>276</ele>
        <time>2022-05-17T12:58:31.540Z</time>
      </trkpt>
      <trkpt lat="49.79758" lon="4.74701">
        <ele>276</ele>
        <time>2022-05-17T12:58:32.546Z</time>
      </trkpt>
      <trkpt lat="49.7976" lon="4.74697">
        <ele>276</ele>
        <time>2022-05-17T12:58:33.539Z</time>
      </trkpt>
      <trkpt lat="49.7976" lon="4.74697">
        <ele>276</ele>
        <time>2022-05-17T12:58:34.550Z</time>
      </trkpt>
      <trkpt lat="49.79762" lon="4.74694">
        <ele>277</ele>
        <time>2022-05-17T12:58:35.524Z</time>
      </trkpt>
      <trkpt lat="49.79762" lon="4.74694">
        <ele>277</ele>
        <time>2022-05-17T12:58:36.530Z</time>
      </trkpt>
      <trkpt lat="49.79764" lon="4.7469">
        <ele>278</ele>
        <time>2022-05-17T12:58:37.540Z</time>
      </trkpt>
      <trkpt lat="49.79764" lon="4.7469">
        <ele>278</ele>
        <time>2022-05-17T12:58:38.545Z</time>
      </trkpt>
      <trkpt lat="49.79767" lon="4.74686">
        <ele>278</ele>
        <time>2022-05-17T12:58:39.545Z</time>
      </trkpt>
      <trkpt lat="49.79767" lon="4.74686">
        <ele>278</ele>
        <time>2022-05-17T12:58:40.551Z</time>
      </trkpt>
      <trkpt lat="49.79769" lon="4.74682">
        <ele>279</ele>
        <time>2022-05-17T12:58:41.539Z</time>
      </trkpt>
      <trkpt lat="49.79769" lon="4.74682">
        <ele>279</ele>
        <time>2022-05-17T12:58:42.544Z</time>
      </trkpt>
      <trkpt lat="49.79771" lon="4.74679">
        <ele>280</ele>
        <time>2022-05-17T12:58:43.559Z</time>
      </trkpt>
      <trkpt lat="49.79772" lon="4.74678">
        <ele>280</ele>
        <time>2022-05-17T12:58:44.560Z</time>
      </trkpt>
      <trkpt lat="49.79772" lon="4.74678">
        <ele>280</ele>
        <time>2022-05-17T12:58:45.526Z</time>
      </trkpt>
      <trkpt lat="49.79775" lon="4.74676">
        <ele>281</ele>
        <time>2022-05-17T12:58:46.537Z</time>
      </trkpt>
      <trkpt lat="49.79775" lon="4.74676">
        <ele>281</ele>
        <time>2022-05-17T12:58:47.544Z</time>
      </trkpt>
      <trkpt lat="49.7978" lon="4.74674">
        <ele>282</ele>
        <time>2022-05-17T12:58:48.535Z</time>
      </trkpt>
      <trkpt lat="49.79782" lon="4.74673">
        <ele>282</ele>
        <time>2022-05-17T12:58:49.557Z</time>
      </trkpt>
      <trkpt lat="49.79782" lon="4.74673">
        <ele>282</ele>
        <time>2022-05-17T12:58:50.563Z</time>
      </trkpt>
      <trkpt lat="49.79785" lon="4.74671">
        <ele>283</ele>
        <time>2022-05-17T12:58:51.538Z</time>
      </trkpt>
      <trkpt lat="49.79785" lon="4.74671">
        <ele>283</ele>
        <time>2022-05-17T12:58:52.549Z</time>
      </trkpt>
      <trkpt lat="49.79789" lon="4.74668">
        <ele>283</ele>
        <time>2022-05-17T12:58:53.524Z</time>
      </trkpt>
      <trkpt lat="49.79789" lon="4.74668">
        <ele>283</ele>
        <time>2022-05-17T12:58:54.530Z</time>
      </trkpt>
      <trkpt lat="49.79792" lon="4.74666">
        <ele>284</ele>
        <time>2022-05-17T12:58:55.543Z</time>
      </trkpt>
      <trkpt lat="49.79792" lon="4.74666">
        <ele>284</ele>
        <time>2022-05-17T12:58:56.550Z</time>
      </trkpt>
      <trkpt lat="49.79795" lon="4.74664">
        <ele>284</ele>
        <time>2022-05-17T12:58:57.536Z</time>
      </trkpt>
      <trkpt lat="49.79795" lon="4.74664">
        <ele>284</ele>
        <time>2022-05-17T12:58:58.545Z</time>
      </trkpt>
      <trkpt lat="49.79799" lon="4.74661">
        <ele>285</ele>
        <time>2022-05-17T12:58:59.524Z</time>
      </trkpt>
      <trkpt lat="49.798" lon="4.74659">
        <ele>285</ele>
        <time>2022-05-17T12:59:00.555Z</time>
      </trkpt>
      <trkpt lat="49.79802" lon="4.74657">
        <ele>285</ele>
        <time>2022-05-17T12:59:01.531Z</time>
      </trkpt>
      <trkpt lat="49.79802" lon="4.74657">
        <ele>285</ele>
        <time>2022-05-17T12:59:02.536Z</time>
      </trkpt>
      <trkpt lat="49.79807" lon="4.74652">
        <ele>285</ele>
        <time>2022-05-17T12:59:03.525Z</time>
      </trkpt>
      <trkpt lat="49.79809" lon="4.7465">
        <ele>286</ele>
        <time>2022-05-17T12:59:04.545Z</time>
      </trkpt>
      <trkpt lat="49.79809" lon="4.7465">
        <ele>286</ele>
        <time>2022-05-17T12:59:05.551Z</time>
      </trkpt>
      <trkpt lat="49.79813" lon="4.74646">
        <ele>286</ele>
        <time>2022-05-17T12:59:06.528Z</time>
      </trkpt>
      <trkpt lat="49.79815" lon="4.74644">
        <ele>286</ele>
        <time>2022-05-17T12:59:07.547Z</time>
      </trkpt>
      <trkpt lat="49.79815" lon="4.74644">
        <ele>286</ele>
        <time>2022-05-17T12:59:08.553Z</time>
      </trkpt>
      <trkpt lat="49.79818" lon="4.74642">
        <ele>286</ele>
        <time>2022-05-17T12:59:09.531Z</time>
      </trkpt>
      <trkpt lat="49.7982" lon="4.74642">
        <ele>286</ele>
        <time>2022-05-17T12:59:10.563Z</time>
      </trkpt>
      <trkpt lat="49.7982" lon="4.74642">
        <ele>286</ele>
        <time>2022-05-17T12:59:11.529Z</time>
      </trkpt>
      <trkpt lat="49.79826" lon="4.7464">
        <ele>286</ele>
        <time>2022-05-17T12:59:12.549Z</time>
      </trkpt>
      <trkpt lat="49.79829" lon="4.74639">
        <ele>286</ele>
        <time>2022-05-17T12:59:13.526Z</time>
      </trkpt>
      <trkpt lat="49.79832" lon="4.74638">
        <ele>286</ele>
        <time>2022-05-17T12:59:14.546Z</time>
      </trkpt>
      <trkpt lat="49.79832" lon="4.74638">
        <ele>286</ele>
        <time>2022-05-17T12:59:15.552Z</time>
      </trkpt>
      <trkpt lat="49.79836" lon="4.74635">
        <ele>286</ele>
        <time>2022-05-17T12:59:16.528Z</time>
      </trkpt>
      <trkpt lat="49.79838" lon="4.74634">
        <ele>285</ele>
        <time>2022-05-17T12:59:17.543Z</time>
      </trkpt>
      <trkpt lat="49.79838" lon="4.74634">
        <ele>285</ele>
        <time>2022-05-17T12:59:18.549Z</time>
      </trkpt>
      <trkpt lat="49.79844" lon="4.74629">
        <ele>285</ele>
        <time>2022-05-17T12:59:19.525Z</time>
      </trkpt>
      <trkpt lat="49.79844" lon="4.74629">
        <ele>285</ele>
        <time>2022-05-17T12:59:20.542Z</time>
      </trkpt>
      <trkpt lat="49.79849" lon="4.74627">
        <ele>285</ele>
        <time>2022-05-17T12:59:21.531Z</time>
      </trkpt>
      <trkpt lat="49.79852" lon="4.74625">
        <ele>285</ele>
        <time>2022-05-17T12:59:22.545Z</time>
      </trkpt>
      <trkpt lat="49.79852" lon="4.74625">
        <ele>285</ele>
        <time>2022-05-17T12:59:23.551Z</time>
      </trkpt>
      <trkpt lat="49.79857" lon="4.74622">
        <ele>284</ele>
        <time>2022-05-17T12:59:24.529Z</time>
      </trkpt>
      <trkpt lat="49.7986" lon="4.74621">
        <ele>284</ele>
        <time>2022-05-17T12:59:25.544Z</time>
      </trkpt>
      <trkpt lat="49.7986" lon="4.74621">
        <ele>284</ele>
        <time>2022-05-17T12:59:26.550Z</time>
      </trkpt>
      <trkpt lat="49.79864" lon="4.7462">
        <ele>284</ele>
        <time>2022-05-17T12:59:27.538Z</time>
      </trkpt>
      <trkpt lat="49.79864" lon="4.7462">
        <ele>284</ele>
        <time>2022-05-17T12:59:28.546Z</time>
      </trkpt>
      <trkpt lat="49.79868" lon="4.74617">
        <ele>283</ele>
        <time>2022-05-17T12:59:29.560Z</time>
      </trkpt>
      <trkpt lat="49.7987" lon="4.74617">
        <ele>283</ele>
        <time>2022-05-17T12:59:30.538Z</time>
      </trkpt>
      <trkpt lat="49.79872" lon="4.74616">
        <ele>283</ele>
        <time>2022-05-17T12:59:31.525Z</time>
      </trkpt>
      <trkpt lat="49.79872" lon="4.74616">
        <ele>283</ele>
        <time>2022-05-17T12:59:32.530Z</time>
      </trkpt>
      <trkpt lat="49.79876" lon="4.74612">
        <ele>283</ele>
        <time>2022-05-17T12:59:33.555Z</time>
      </trkpt>
      <trkpt lat="49.79876" lon="4.74612">
        <ele>283</ele>
        <time>2022-05-17T12:59:34.562Z</time>
      </trkpt>
      <trkpt lat="49.7988" lon="4.7461">
        <ele>282</ele>
        <time>2022-05-17T12:59:35.537Z</time>
      </trkpt>
      <trkpt lat="49.7988" lon="4.7461">
        <ele>282</ele>
        <time>2022-05-17T12:59:36.543Z</time>
      </trkpt>
      <trkpt lat="49.79885" lon="4.74607">
        <ele>282</ele>
        <time>2022-05-17T12:59:37.558Z</time>
      </trkpt>
      <trkpt lat="49.79885" lon="4.74607">
        <ele>282</ele>
        <time>2022-05-17T12:59:38.531Z</time>
      </trkpt>
      <trkpt lat="49.79889" lon="4.74606">
        <ele>282</ele>
        <time>2022-05-17T12:59:39.530Z</time>
      </trkpt>
      <trkpt lat="49.79889" lon="4.74606">
        <ele>282</ele>
        <time>2022-05-17T12:59:40.552Z</time>
      </trkpt>
      <trkpt lat="49.79895" lon="4.74604">
        <ele>281</ele>
        <time>2022-05-17T12:59:41.532Z</time>
      </trkpt>
      <trkpt lat="49.79897" lon="4.74603">
        <ele>281</ele>
        <time>2022-05-17T12:59:42.549Z</time>
      </trkpt>
      <trkpt lat="49.79899" lon="4.74601">
        <ele>281</ele>
        <time>2022-05-17T12:59:43.526Z</time>
      </trkpt>
      <trkpt lat="49.79899" lon="4.74601">
        <ele>281</ele>
        <time>2022-05-17T12:59:44.532Z</time>
      </trkpt>
      <trkpt lat="49.79903" lon="4.74599">
        <ele>280</ele>
        <time>2022-05-17T12:59:45.555Z</time>
      </trkpt>
      <trkpt lat="49.79903" lon="4.74599">
        <ele>280</ele>
        <time>2022-05-17T12:59:46.562Z</time>
      </trkpt>
      <trkpt lat="49.79907" lon="4.74597">
        <ele>280</ele>
        <time>2022-05-17T12:59:47.532Z</time>
      </trkpt>
      <trkpt lat="49.79909" lon="4.74595">
        <ele>279</ele>
        <time>2022-05-17T12:59:48.557Z</time>
      </trkpt>
      <trkpt lat="49.79909" lon="4.74595">
        <ele>279</ele>
        <time>2022-05-17T12:59:49.563Z</time>
      </trkpt>
      <trkpt lat="49.79915" lon="4.74594">
        <ele>279</ele>
        <time>2022-05-17T12:59:50.548Z</time>
      </trkpt>
      <trkpt lat="49.79915" lon="4.74594">
        <ele>279</ele>
        <time>2022-05-17T12:59:51.554Z</time>
      </trkpt>
      <trkpt lat="49.7992" lon="4.74589">
        <ele>278</ele>
        <time>2022-05-17T12:59:52.531Z</time>
      </trkpt>
      <trkpt lat="49.79921" lon="4.74587">
        <ele>278</ele>
        <time>2022-05-17T12:59:53.554Z</time>
      </trkpt>
      <trkpt lat="49.79921" lon="4.74587">
        <ele>278</ele>
        <time>2022-05-17T12:59:54.561Z</time>
      </trkpt>
      <trkpt lat="49.79925" lon="4.74583">
        <ele>278</ele>
        <time>2022-05-17T12:59:55.534Z</time>
      </trkpt>
      <trkpt lat="49.79925" lon="4.74583">
        <ele>278</ele>
        <time>2022-05-17T12:59:56.540Z</time>
      </trkpt>
      <trkpt lat="49.79929" lon="4.74577">
        <ele>278</ele>
        <time>2022-05-17T12:59:57.546Z</time>
      </trkpt>
      <trkpt lat="49.79931" lon="4.74574">
        <ele>278</ele>
        <time>2022-05-17T12:59:58.551Z</time>
      </trkpt>
      <trkpt lat="49.79931" lon="4.74574">
        <ele>278</ele>
        <time>2022-05-17T12:59:59.557Z</time>
      </trkpt>
      <trkpt lat="49.79935" lon="4.74569">
        <ele>278</ele>
        <time>2022-05-17T13:00:00.531Z</time>
      </trkpt>
      <trkpt lat="49.79937" lon="4.74567">
        <ele>277</ele>
        <time>2022-05-17T13:00:01.544Z</time>
      </trkpt>
      <trkpt lat="49.79937" lon="4.74567">
        <ele>277</ele>
        <time>2022-05-17T13:00:02.550Z</time>
      </trkpt>
      <trkpt lat="49.7994" lon="4.74562">
        <ele>277</ele>
        <time>2022-05-17T13:00:03.539Z</time>
      </trkpt>
      <trkpt lat="49.7994" lon="4.74562">
        <ele>277</ele>
        <time>2022-05-17T13:00:04.557Z</time>
      </trkpt>
      <trkpt lat="49.79943" lon="4.7456">
        <ele>277</ele>
        <time>2022-05-17T13:00:05.531Z</time>
      </trkpt>
      <trkpt lat="49.79945" lon="4.74558">
        <ele>277</ele>
        <time>2022-05-17T13:00:06.554Z</time>
      </trkpt>
      <trkpt lat="49.79945" lon="4.74558">
        <ele>277</ele>
        <time>2022-05-17T13:00:07.560Z</time>
      </trkpt>
      <trkpt lat="49.7995" lon="4.74556">
        <ele>278</ele>
        <time>2022-05-17T13:00:08.536Z</time>
      </trkpt>
      <trkpt lat="49.7995" lon="4.74556">
        <ele>278</ele>
        <time>2022-05-17T13:00:09.549Z</time>
      </trkpt>
      <trkpt lat="49.79953" lon="4.74551">
        <ele>278</ele>
        <time>2022-05-17T13:00:10.549Z</time>
      </trkpt>
      <trkpt lat="49.79953" lon="4.74551">
        <ele>278</ele>
        <time>2022-05-17T13:00:11.556Z</time>
      </trkpt>
      <trkpt lat="49.79957" lon="4.74546">
        <ele>278</ele>
        <time>2022-05-17T13:00:12.527Z</time>
      </trkpt>
      <trkpt lat="49.79959" lon="4.74545">
        <ele>278</ele>
        <time>2022-05-17T13:00:13.544Z</time>
      </trkpt>
      <trkpt lat="49.79959" lon="4.74545">
        <ele>278</ele>
        <time>2022-05-17T13:00:14.550Z</time>
      </trkpt>
      <trkpt lat="49.79963" lon="4.74543">
        <ele>278</ele>
        <time>2022-05-17T13:00:15.562Z</time>
      </trkpt>
      <trkpt lat="49.79963" lon="4.74543">
        <ele>278</ele>
        <time>2022-05-17T13:00:16.528Z</time>
      </trkpt>
      <trkpt lat="49.79968" lon="4.74539">
        <ele>278</ele>
        <time>2022-05-17T13:00:17.525Z</time>
      </trkpt>
      <trkpt lat="49.79969" lon="4.74537">
        <ele>278</ele>
        <time>2022-05-17T13:00:18.546Z</time>
      </trkpt>
      <trkpt lat="49.79971" lon="4.74535">
        <ele>278</ele>
        <time>2022-05-17T13:00:19.524Z</time>
      </trkpt>
      <trkpt lat="49.79971" lon="4.74535">
        <ele>278</ele>
        <time>2022-05-17T13:00:20.530Z</time>
      </trkpt>
      <trkpt lat="49.79976" lon="4.74529">
        <ele>278</ele>
        <time>2022-05-17T13:00:21.561Z</time>
      </trkpt>
      <trkpt lat="49.79976" lon="4.74529">
        <ele>278</ele>
        <time>2022-05-17T13:00:22.529Z</time>
      </trkpt>
      <trkpt lat="49.79981" lon="4.74522">
        <ele>278</ele>
        <time>2022-05-17T13:00:23.561Z</time>
      </trkpt>
      <trkpt lat="49.79981" lon="4.74522">
        <ele>278</ele>
        <time>2022-05-17T13:00:24.526Z</time>
      </trkpt>
      <trkpt lat="49.79985" lon="4.74516">
        <ele>278</ele>
        <time>2022-05-17T13:00:25.546Z</time>
      </trkpt>
      <trkpt lat="49.79985" lon="4.74516">
        <ele>278</ele>
        <time>2022-05-17T13:00:26.553Z</time>
      </trkpt>
      <trkpt lat="49.79989" lon="4.74511">
        <ele>278</ele>
        <time>2022-05-17T13:00:27.528Z</time>
      </trkpt>
      <trkpt lat="49.79989" lon="4.74511">
        <ele>278</ele>
        <time>2022-05-17T13:00:28.533Z</time>
      </trkpt>
      <trkpt lat="49.79994" lon="4.74508">
        <ele>279</ele>
        <time>2022-05-17T13:00:29.549Z</time>
      </trkpt>
      <trkpt lat="49.79994" lon="4.74508">
        <ele>279</ele>
        <time>2022-05-17T13:00:30.556Z</time>
      </trkpt>
      <trkpt lat="49.79999" lon="4.74507">
        <ele>279</ele>
        <time>2022-05-17T13:00:31.533Z</time>
      </trkpt>
      <trkpt lat="49.79999" lon="4.74507">
        <ele>279</ele>
        <time>2022-05-17T13:00:32.540Z</time>
      </trkpt>
      <trkpt lat="49.80004" lon="4.74505">
        <ele>279</ele>
        <time>2022-05-17T13:00:33.525Z</time>
      </trkpt>
      <trkpt lat="49.80007" lon="4.74505">
        <ele>279</ele>
        <time>2022-05-17T13:00:34.539Z</time>
      </trkpt>
      <trkpt lat="49.8001" lon="4.74505">
        <ele>280</ele>
        <time>2022-05-17T13:00:35.556Z</time>
      </trkpt>
      <trkpt lat="49.8001" lon="4.74505">
        <ele>280</ele>
        <time>2022-05-17T13:00:36.562Z</time>
      </trkpt>
      <trkpt lat="49.80016" lon="4.74505">
        <ele>280</ele>
        <time>2022-05-17T13:00:37.540Z</time>
      </trkpt>
      <trkpt lat="49.80016" lon="4.74505">
        <ele>280</ele>
        <time>2022-05-17T13:00:38.546Z</time>
      </trkpt>
      <trkpt lat="49.8002" lon="4.74502">
        <ele>280</ele>
        <time>2022-05-17T13:00:39.541Z</time>
      </trkpt>
      <trkpt lat="49.8002" lon="4.74502">
        <ele>280</ele>
        <time>2022-05-17T13:00:40.548Z</time>
      </trkpt>
      <trkpt lat="49.80025" lon="4.74497">
        <ele>280</ele>
        <time>2022-05-17T13:00:41.527Z</time>
      </trkpt>
      <trkpt lat="49.80028" lon="4.74496">
        <ele>280</ele>
        <time>2022-05-17T13:00:42.543Z</time>
      </trkpt>
      <trkpt lat="49.80028" lon="4.74496">
        <ele>280</ele>
        <time>2022-05-17T13:00:43.550Z</time>
      </trkpt>
      <trkpt lat="49.80031" lon="4.74492">
        <ele>280</ele>
        <time>2022-05-17T13:00:44.531Z</time>
      </trkpt>
      <trkpt lat="49.80031" lon="4.74492">
        <ele>280</ele>
        <time>2022-05-17T13:00:45.537Z</time>
      </trkpt>
      <trkpt lat="49.80036" lon="4.74487">
        <ele>280</ele>
        <time>2022-05-17T13:00:46.548Z</time>
      </trkpt>
      <trkpt lat="49.80036" lon="4.74487">
        <ele>280</ele>
        <time>2022-05-17T13:00:47.554Z</time>
      </trkpt>
      <trkpt lat="49.80041" lon="4.74483">
        <ele>280</ele>
        <time>2022-05-17T13:00:48.532Z</time>
      </trkpt>
      <trkpt lat="49.80043" lon="4.74482">
        <ele>280</ele>
        <time>2022-05-17T13:00:49.540Z</time>
      </trkpt>
      <trkpt lat="49.80043" lon="4.74482">
        <ele>280</ele>
        <time>2022-05-17T13:00:50.548Z</time>
      </trkpt>
      <trkpt lat="49.80049" lon="4.74476">
        <ele>280</ele>
        <time>2022-05-17T13:00:51.526Z</time>
      </trkpt>
      <trkpt lat="49.80054" lon="4.74471">
        <ele>280</ele>
        <time>2022-05-17T13:00:52.544Z</time>
      </trkpt>
      <trkpt lat="49.80054" lon="4.74471">
        <ele>280</ele>
        <time>2022-05-17T13:00:53.550Z</time>
      </trkpt>
      <trkpt lat="49.8006" lon="4.74465">
        <ele>280</ele>
        <time>2022-05-17T13:00:54.530Z</time>
      </trkpt>
      <trkpt lat="49.80063" lon="4.74463">
        <ele>280</ele>
        <time>2022-05-17T13:00:55.543Z</time>
      </trkpt>
      <trkpt lat="49.80063" lon="4.74463">
        <ele>280</ele>
        <time>2022-05-17T13:00:56.549Z</time>
      </trkpt>
      <trkpt lat="49.80068" lon="4.74458">
        <ele>280</ele>
        <time>2022-05-17T13:00:57.538Z</time>
      </trkpt>
      <trkpt lat="49.8007" lon="4.74455">
        <ele>280</ele>
        <time>2022-05-17T13:00:58.562Z</time>
      </trkpt>
      <trkpt lat="49.8007" lon="4.74455">
        <ele>280</ele>
        <time>2022-05-17T13:00:59.528Z</time>
      </trkpt>
      <trkpt lat="49.80075" lon="4.74449">
        <ele>280</ele>
        <time>2022-05-17T13:01:00.563Z</time>
      </trkpt>
      <trkpt lat="49.80075" lon="4.74449">
        <ele>280</ele>
        <time>2022-05-17T13:01:01.529Z</time>
      </trkpt>
      <trkpt lat="49.80078" lon="4.74443">
        <ele>280</ele>
        <time>2022-05-17T13:01:02.549Z</time>
      </trkpt>
      <trkpt lat="49.8008" lon="4.7444">
        <ele>280</ele>
        <time>2022-05-17T13:01:03.524Z</time>
      </trkpt>
      <trkpt lat="49.8008" lon="4.7444">
        <ele>280</ele>
        <time>2022-05-17T13:01:04.530Z</time>
      </trkpt>
      <trkpt lat="49.80083" lon="4.74436">
        <ele>280</ele>
        <time>2022-05-17T13:01:05.545Z</time>
      </trkpt>
      <trkpt lat="49.80083" lon="4.74436">
        <ele>280</ele>
        <time>2022-05-17T13:01:06.550Z</time>
      </trkpt>
      <trkpt lat="49.80087" lon="4.74431">
        <ele>281</ele>
        <time>2022-05-17T13:01:07.550Z</time>
      </trkpt>
      <trkpt lat="49.80087" lon="4.74431">
        <ele>281</ele>
        <time>2022-05-17T13:01:08.556Z</time>
      </trkpt>
      <trkpt lat="49.8009" lon="4.74425">
        <ele>281</ele>
        <time>2022-05-17T13:01:09.544Z</time>
      </trkpt>
      <trkpt lat="49.8009" lon="4.74425">
        <ele>281</ele>
        <time>2022-05-17T13:01:10.550Z</time>
      </trkpt>
      <trkpt lat="49.80094" lon="4.74419">
        <ele>281</ele>
        <time>2022-05-17T13:01:11.537Z</time>
      </trkpt>
      <trkpt lat="49.80096" lon="4.74415">
        <ele>281</ele>
        <time>2022-05-17T13:01:12.528Z</time>
      </trkpt>
      <trkpt lat="49.80096" lon="4.74415">
        <ele>281</ele>
        <time>2022-05-17T13:01:13.533Z</time>
      </trkpt>
      <trkpt lat="49.80099" lon="4.74408">
        <ele>280</ele>
        <time>2022-05-17T13:01:14.537Z</time>
      </trkpt>
      <trkpt lat="49.80099" lon="4.74408">
        <ele>280</ele>
        <time>2022-05-17T13:01:15.543Z</time>
      </trkpt>
      <trkpt lat="49.80102" lon="4.74402">
        <ele>280</ele>
        <time>2022-05-17T13:01:16.564Z</time>
      </trkpt>
      <trkpt lat="49.80102" lon="4.74402">
        <ele>280</ele>
        <time>2022-05-17T13:01:17.529Z</time>
      </trkpt>
      <trkpt lat="49.80104" lon="4.74393">
        <ele>280</ele>
        <time>2022-05-17T13:01:18.533Z</time>
      </trkpt>
      <trkpt lat="49.80104" lon="4.74393">
        <ele>280</ele>
        <time>2022-05-17T13:01:19.541Z</time>
      </trkpt>
      <trkpt lat="49.80107" lon="4.74384">
        <ele>280</ele>
        <time>2022-05-17T13:01:20.526Z</time>
      </trkpt>
      <trkpt lat="49.80107" lon="4.74384">
        <ele>280</ele>
        <time>2022-05-17T13:01:21.545Z</time>
      </trkpt>
      <trkpt lat="49.8011" lon="4.74377">
        <ele>281</ele>
        <time>2022-05-17T13:01:22.525Z</time>
      </trkpt>
      <trkpt lat="49.80113" lon="4.74371">
        <ele>280</ele>
        <time>2022-05-17T13:01:23.560Z</time>
      </trkpt>
      <trkpt lat="49.80113" lon="4.74371">
        <ele>280</ele>
        <time>2022-05-17T13:01:24.526Z</time>
      </trkpt>
      <trkpt lat="49.80118" lon="4.74364">
        <ele>281</ele>
        <time>2022-05-17T13:01:25.544Z</time>
      </trkpt>
      <trkpt lat="49.80118" lon="4.74364">
        <ele>281</ele>
        <time>2022-05-17T13:01:26.551Z</time>
      </trkpt>
      <trkpt lat="49.80121" lon="4.74358">
        <ele>281</ele>
        <time>2022-05-17T13:01:27.532Z</time>
      </trkpt>
      <trkpt lat="49.80122" lon="4.74355">
        <ele>281</ele>
        <time>2022-05-17T13:01:28.556Z</time>
      </trkpt>
      <trkpt lat="49.80122" lon="4.74355">
        <ele>281</ele>
        <time>2022-05-17T13:01:29.561Z</time>
      </trkpt>
      <trkpt lat="49.80125" lon="4.7435">
        <ele>281</ele>
        <time>2022-05-17T13:01:30.538Z</time>
      </trkpt>
      <trkpt lat="49.80125" lon="4.74347">
        <ele>281</ele>
        <time>2022-05-17T13:01:31.555Z</time>
      </trkpt>
      <trkpt lat="49.80125" lon="4.74347">
        <ele>281</ele>
        <time>2022-05-17T13:01:32.561Z</time>
      </trkpt>
      <trkpt lat="49.80126" lon="4.74341">
        <ele>281</ele>
        <time>2022-05-17T13:01:33.532Z</time>
      </trkpt>
      <trkpt lat="49.80127" lon="4.74337">
        <ele>281</ele>
        <time>2022-05-17T13:01:34.553Z</time>
      </trkpt>
      <trkpt lat="49.80127" lon="4.74337">
        <ele>281</ele>
        <time>2022-05-17T13:01:35.559Z</time>
      </trkpt>
      <trkpt lat="49.8013" lon="4.74331">
        <ele>281</ele>
        <time>2022-05-17T13:01:36.530Z</time>
      </trkpt>
      <trkpt lat="49.80132" lon="4.74328">
        <ele>281</ele>
        <time>2022-05-17T13:01:37.546Z</time>
      </trkpt>
      <trkpt lat="49.80132" lon="4.74328">
        <ele>281</ele>
        <time>2022-05-17T13:01:38.552Z</time>
      </trkpt>
      <trkpt lat="49.80135" lon="4.74323">
        <ele>281</ele>
        <time>2022-05-17T13:01:39.545Z</time>
      </trkpt>
      <trkpt lat="49.80135" lon="4.74323">
        <ele>281</ele>
        <time>2022-05-17T13:01:40.550Z</time>
      </trkpt>
      <trkpt lat="49.80137" lon="4.74318">
        <ele>282</ele>
        <time>2022-05-17T13:01:41.526Z</time>
      </trkpt>
      <trkpt lat="49.80137" lon="4.74318">
        <ele>282</ele>
        <time>2022-05-17T13:01:42.532Z</time>
      </trkpt>
      <trkpt lat="49.80139" lon="4.74313">
        <ele>282</ele>
        <time>2022-05-17T13:01:43.557Z</time>
      </trkpt>
      <trkpt lat="49.8014" lon="4.7431">
        <ele>282</ele>
        <time>2022-05-17T13:01:44.545Z</time>
      </trkpt>
      <trkpt lat="49.8014" lon="4.7431">
        <ele>282</ele>
        <time>2022-05-17T13:01:45.551Z</time>
      </trkpt>
      <trkpt lat="49.80142" lon="4.74303">
        <ele>283</ele>
        <time>2022-05-17T13:01:46.533Z</time>
      </trkpt>
      <trkpt lat="49.80142" lon="4.74303">
        <ele>283</ele>
        <time>2022-05-17T13:01:47.544Z</time>
      </trkpt>
      <trkpt lat="49.80145" lon="4.74297">
        <ele>283</ele>
        <time>2022-05-17T13:01:48.524Z</time>
      </trkpt>
      <trkpt lat="49.80146" lon="4.74295">
        <ele>284</ele>
        <time>2022-05-17T13:01:49.555Z</time>
      </trkpt>
      <trkpt lat="49.80146" lon="4.74295">
        <ele>284</ele>
        <time>2022-05-17T13:01:50.560Z</time>
      </trkpt>
      <trkpt lat="49.80148" lon="4.74289">
        <ele>284</ele>
        <time>2022-05-17T13:01:51.538Z</time>
      </trkpt>
      <trkpt lat="49.80148" lon="4.74289">
        <ele>284</ele>
        <time>2022-05-17T13:01:52.551Z</time>
      </trkpt>
      <trkpt lat="49.80149" lon="4.74285">
        <ele>284</ele>
        <time>2022-05-17T13:01:53.528Z</time>
      </trkpt>
      <trkpt lat="49.80149" lon="4.74285">
        <ele>284</ele>
        <time>2022-05-17T13:01:54.536Z</time>
      </trkpt>
      <trkpt lat="49.80152" lon="4.74279">
        <ele>284</ele>
        <time>2022-05-17T13:01:55.538Z</time>
      </trkpt>
      <trkpt lat="49.80152" lon="4.74279">
        <ele>284</ele>
        <time>2022-05-17T13:01:56.544Z</time>
      </trkpt>
      <trkpt lat="49.80154" lon="4.74274">
        <ele>285</ele>
        <time>2022-05-17T13:01:57.561Z</time>
      </trkpt>
      <trkpt lat="49.80156" lon="4.74272">
        <ele>285</ele>
        <time>2022-05-17T13:01:58.536Z</time>
      </trkpt>
      <trkpt lat="49.80156" lon="4.74272">
        <ele>285</ele>
        <time>2022-05-17T13:01:59.541Z</time>
      </trkpt>
      <trkpt lat="49.80158" lon="4.74268">
        <ele>285</ele>
        <time>2022-05-17T13:02:00.526Z</time>
      </trkpt>
      <trkpt lat="49.8016" lon="4.74264">
        <ele>286</ele>
        <time>2022-05-17T13:02:01.542Z</time>
      </trkpt>
      <trkpt lat="49.8016" lon="4.74264">
        <ele>286</ele>
        <time>2022-05-17T13:02:02.549Z</time>
      </trkpt>
      <trkpt lat="49.80162" lon="4.74258">
        <ele>286</ele>
        <time>2022-05-17T13:02:03.538Z</time>
      </trkpt>
      <trkpt lat="49.80162" lon="4.74256">
        <ele>287</ele>
        <time>2022-05-17T13:02:04.558Z</time>
      </trkpt>
      <trkpt lat="49.80164" lon="4.74253">
        <ele>287</ele>
        <time>2022-05-17T13:02:05.529Z</time>
      </trkpt>
      <trkpt lat="49.80164" lon="4.74253">
        <ele>287</ele>
        <time>2022-05-17T13:02:06.535Z</time>
      </trkpt>
      <trkpt lat="49.80166" lon="4.74247">
        <ele>288</ele>
        <time>2022-05-17T13:02:07.525Z</time>
      </trkpt>
      <trkpt lat="49.80166" lon="4.74247">
        <ele>288</ele>
        <time>2022-05-17T13:02:08.530Z</time>
      </trkpt>
      <trkpt lat="49.80168" lon="4.74242">
        <ele>289</ele>
        <time>2022-05-17T13:02:09.549Z</time>
      </trkpt>
      <trkpt lat="49.8017" lon="4.7424">
        <ele>289</ele>
        <time>2022-05-17T13:02:10.535Z</time>
      </trkpt>
      <trkpt lat="49.8017" lon="4.7424">
        <ele>289</ele>
        <time>2022-05-17T13:02:11.541Z</time>
      </trkpt>
      <trkpt lat="49.80172" lon="4.74235">
        <ele>290</ele>
        <time>2022-05-17T13:02:12.561Z</time>
      </trkpt>
      <trkpt lat="49.80173" lon="4.74232">
        <ele>290</ele>
        <time>2022-05-17T13:02:13.535Z</time>
      </trkpt>
      <trkpt lat="49.80173" lon="4.74232">
        <ele>290</ele>
        <time>2022-05-17T13:02:14.541Z</time>
      </trkpt>
      <trkpt lat="49.80176" lon="4.74227">
        <ele>291</ele>
        <time>2022-05-17T13:02:15.527Z</time>
      </trkpt>
      <trkpt lat="49.80177" lon="4.74224">
        <ele>292</ele>
        <time>2022-05-17T13:02:16.543Z</time>
      </trkpt>
      <trkpt lat="49.80177" lon="4.74224">
        <ele>292</ele>
        <time>2022-05-17T13:02:17.549Z</time>
      </trkpt>
      <trkpt lat="49.8018" lon="4.7422">
        <ele>293</ele>
        <time>2022-05-17T13:02:18.534Z</time>
      </trkpt>
      <trkpt lat="49.80182" lon="4.74217">
        <ele>293</ele>
        <time>2022-05-17T13:02:19.561Z</time>
      </trkpt>
      <trkpt lat="49.80182" lon="4.74217">
        <ele>293</ele>
        <time>2022-05-17T13:02:20.526Z</time>
      </trkpt>
      <trkpt lat="49.80186" lon="4.74212">
        <ele>294</ele>
        <time>2022-05-17T13:02:21.559Z</time>
      </trkpt>
      <trkpt lat="49.80188" lon="4.74209">
        <ele>294</ele>
        <time>2022-05-17T13:02:22.533Z</time>
      </trkpt>
      <trkpt lat="49.80188" lon="4.74209">
        <ele>294</ele>
        <time>2022-05-17T13:02:23.539Z</time>
      </trkpt>
      <trkpt lat="49.8019" lon="4.74202">
        <ele>295</ele>
        <time>2022-05-17T13:02:24.524Z</time>
      </trkpt>
      <trkpt lat="49.80193" lon="4.74196">
        <ele>295</ele>
        <time>2022-05-17T13:02:25.544Z</time>
      </trkpt>
      <trkpt lat="49.80193" lon="4.74196">
        <ele>295</ele>
        <time>2022-05-17T13:02:26.550Z</time>
      </trkpt>
      <trkpt lat="49.80197" lon="4.74186">
        <ele>296</ele>
        <time>2022-05-17T13:02:27.527Z</time>
      </trkpt>
      <trkpt lat="49.80197" lon="4.74186">
        <ele>296</ele>
        <time>2022-05-17T13:02:28.532Z</time>
      </trkpt>
      <trkpt lat="49.802" lon="4.7418">
        <ele>297</ele>
        <time>2022-05-17T13:02:29.550Z</time>
      </trkpt>
      <trkpt lat="49.802" lon="4.7418">
        <ele>297</ele>
        <time>2022-05-17T13:02:30.559Z</time>
      </trkpt>
      <trkpt lat="49.80202" lon="4.74175">
        <ele>298</ele>
        <time>2022-05-17T13:02:31.540Z</time>
      </trkpt>
      <trkpt lat="49.80202" lon="4.74175">
        <ele>298</ele>
        <time>2022-05-17T13:02:32.549Z</time>
      </trkpt>
      <trkpt lat="49.80204" lon="4.7417">
        <ele>299</ele>
        <time>2022-05-17T13:02:33.531Z</time>
      </trkpt>
      <trkpt lat="49.80204" lon="4.7417">
        <ele>299</ele>
        <time>2022-05-17T13:02:34.537Z</time>
      </trkpt>
      <trkpt lat="49.80206" lon="4.74163">
        <ele>300</ele>
        <time>2022-05-17T13:02:35.553Z</time>
      </trkpt>
      <trkpt lat="49.80208" lon="4.7416">
        <ele>300</ele>
        <time>2022-05-17T13:02:36.540Z</time>
      </trkpt>
      <trkpt lat="49.80209" lon="4.74157">
        <ele>301</ele>
        <time>2022-05-17T13:02:37.559Z</time>
      </trkpt>
      <trkpt lat="49.80209" lon="4.74157">
        <ele>301</ele>
        <time>2022-05-17T13:02:38.525Z</time>
      </trkpt>
      <trkpt lat="49.80212" lon="4.74151">
        <ele>301</ele>
        <time>2022-05-17T13:02:39.551Z</time>
      </trkpt>
      <trkpt lat="49.80212" lon="4.74151">
        <ele>301</ele>
        <time>2022-05-17T13:02:40.557Z</time>
      </trkpt>
      <trkpt lat="49.80215" lon="4.74145">
        <ele>302</ele>
        <time>2022-05-17T13:02:41.542Z</time>
      </trkpt>
      <trkpt lat="49.80215" lon="4.74145">
        <ele>302</ele>
        <time>2022-05-17T13:02:42.550Z</time>
      </trkpt>
      <trkpt lat="49.80218" lon="4.74139">
        <ele>302</ele>
        <time>2022-05-17T13:02:43.542Z</time>
      </trkpt>
      <trkpt lat="49.80218" lon="4.74139">
        <ele>302</ele>
        <time>2022-05-17T13:02:44.548Z</time>
      </trkpt>
      <trkpt lat="49.80223" lon="4.74134">
        <ele>303</ele>
        <time>2022-05-17T13:02:45.528Z</time>
      </trkpt>
      <trkpt lat="49.80225" lon="4.74132">
        <ele>303</ele>
        <time>2022-05-17T13:02:46.542Z</time>
      </trkpt>
      <trkpt lat="49.80225" lon="4.74132">
        <ele>303</ele>
        <time>2022-05-17T13:02:47.550Z</time>
      </trkpt>
      <trkpt lat="49.80229" lon="4.74126">
        <ele>303</ele>
        <time>2022-05-17T13:02:48.535Z</time>
      </trkpt>
      <trkpt lat="49.80232" lon="4.74122">
        <ele>303</ele>
        <time>2022-05-17T13:02:49.549Z</time>
      </trkpt>
      <trkpt lat="49.80232" lon="4.74122">
        <ele>303</ele>
        <time>2022-05-17T13:02:50.556Z</time>
      </trkpt>
      <trkpt lat="49.80237" lon="4.74118">
        <ele>303</ele>
        <time>2022-05-17T13:02:51.528Z</time>
      </trkpt>
      <trkpt lat="49.80237" lon="4.74118">
        <ele>303</ele>
        <time>2022-05-17T13:02:52.534Z</time>
      </trkpt>
      <trkpt lat="49.80243" lon="4.74114">
        <ele>304</ele>
        <time>2022-05-17T13:02:53.556Z</time>
      </trkpt>
      <trkpt lat="49.80245" lon="4.74112">
        <ele>304</ele>
        <time>2022-05-17T13:02:54.535Z</time>
      </trkpt>
      <trkpt lat="49.80249" lon="4.7411">
        <ele>305</ele>
        <time>2022-05-17T13:02:55.525Z</time>
      </trkpt>
      <trkpt lat="49.80249" lon="4.7411">
        <ele>305</ele>
        <time>2022-05-17T13:02:56.530Z</time>
      </trkpt>
      <trkpt lat="49.80256" lon="4.74101">
        <ele>305</ele>
        <time>2022-05-17T13:02:57.551Z</time>
      </trkpt>
      <trkpt lat="49.80256" lon="4.74101">
        <ele>305</ele>
        <time>2022-05-17T13:02:58.556Z</time>
      </trkpt>
      <trkpt lat="49.80259" lon="4.74092">
        <ele>305</ele>
        <time>2022-05-17T13:02:59.532Z</time>
      </trkpt>
      <trkpt lat="49.80259" lon="4.74092">
        <ele>305</ele>
        <time>2022-05-17T13:03:00.554Z</time>
      </trkpt>
      <trkpt lat="49.80259" lon="4.74085">
        <ele>306</ele>
        <time>2022-05-17T13:03:01.535Z</time>
      </trkpt>
      <trkpt lat="49.80259" lon="4.74085">
        <ele>306</ele>
        <time>2022-05-17T13:03:02.541Z</time>
      </trkpt>
      <trkpt lat="49.80262" lon="4.74077">
        <ele>306</ele>
        <time>2022-05-17T13:03:03.556Z</time>
      </trkpt>
      <trkpt lat="49.80262" lon="4.74077">
        <ele>306</ele>
        <time>2022-05-17T13:03:04.528Z</time>
      </trkpt>
      <trkpt lat="49.80266" lon="4.7407">
        <ele>307</ele>
        <time>2022-05-17T13:03:05.545Z</time>
      </trkpt>
      <trkpt lat="49.80266" lon="4.7407">
        <ele>307</ele>
        <time>2022-05-17T13:03:06.550Z</time>
      </trkpt>
      <trkpt lat="49.8027" lon="4.74062">
        <ele>308</ele>
        <time>2022-05-17T13:03:07.536Z</time>
      </trkpt>
      <trkpt lat="49.8027" lon="4.74062">
        <ele>308</ele>
        <time>2022-05-17T13:03:08.542Z</time>
      </trkpt>
      <trkpt lat="49.80272" lon="4.74054">
        <ele>308</ele>
        <time>2022-05-17T13:03:09.555Z</time>
      </trkpt>
      <trkpt lat="49.80274" lon="4.74051">
        <ele>308</ele>
        <time>2022-05-17T13:03:10.553Z</time>
      </trkpt>
      <trkpt lat="49.80274" lon="4.74051">
        <ele>308</ele>
        <time>2022-05-17T13:03:11.559Z</time>
      </trkpt>
      <trkpt lat="49.80277" lon="4.74043">
        <ele>308</ele>
        <time>2022-05-17T13:03:12.533Z</time>
      </trkpt>
      <trkpt lat="49.80279" lon="4.74038">
        <ele>308</ele>
        <time>2022-05-17T13:03:13.548Z</time>
      </trkpt>
      <trkpt lat="49.80279" lon="4.74038">
        <ele>308</ele>
        <time>2022-05-17T13:03:14.554Z</time>
      </trkpt>
      <trkpt lat="49.80282" lon="4.7403">
        <ele>308</ele>
        <time>2022-05-17T13:03:15.534Z</time>
      </trkpt>
      <trkpt lat="49.80282" lon="4.7403">
        <ele>308</ele>
        <time>2022-05-17T13:03:16.540Z</time>
      </trkpt>
      <trkpt lat="49.80284" lon="4.74021">
        <ele>308</ele>
        <time>2022-05-17T13:03:17.542Z</time>
      </trkpt>
      <trkpt lat="49.80284" lon="4.74021">
        <ele>308</ele>
        <time>2022-05-17T13:03:18.548Z</time>
      </trkpt>
      <trkpt lat="49.80286" lon="4.74013">
        <ele>309</ele>
        <time>2022-05-17T13:03:19.532Z</time>
      </trkpt>
      <trkpt lat="49.80286" lon="4.74013">
        <ele>309</ele>
        <time>2022-05-17T13:03:20.548Z</time>
      </trkpt>
      <trkpt lat="49.80289" lon="4.74007">
        <ele>309</ele>
        <time>2022-05-17T13:03:21.550Z</time>
      </trkpt>
      <trkpt lat="49.80289" lon="4.74003">
        <ele>309</ele>
        <time>2022-05-17T13:03:22.533Z</time>
      </trkpt>
      <trkpt lat="49.80291" lon="4.74001">
        <ele>309</ele>
        <time>2022-05-17T13:03:23.549Z</time>
      </trkpt>
      <trkpt lat="49.80292" lon="4.73997">
        <ele>309</ele>
        <time>2022-05-17T13:03:24.525Z</time>
      </trkpt>
      <trkpt lat="49.80293" lon="4.73993">
        <ele>309</ele>
        <time>2022-05-17T13:03:25.552Z</time>
      </trkpt>
      <trkpt lat="49.80293" lon="4.73993">
        <ele>309</ele>
        <time>2022-05-17T13:03:26.557Z</time>
      </trkpt>
      <trkpt lat="49.80296" lon="4.73985">
        <ele>310</ele>
        <time>2022-05-17T13:03:27.539Z</time>
      </trkpt>
      <trkpt lat="49.80296" lon="4.73985">
        <ele>310</ele>
        <time>2022-05-17T13:03:28.549Z</time>
      </trkpt>
      <trkpt lat="49.80299" lon="4.73974">
        <ele>310</ele>
        <time>2022-05-17T13:03:29.541Z</time>
      </trkpt>
      <trkpt lat="49.80299" lon="4.73974">
        <ele>310</ele>
        <time>2022-05-17T13:03:30.553Z</time>
      </trkpt>
      <trkpt lat="49.80302" lon="4.73965">
        <ele>310</ele>
        <time>2022-05-17T13:03:31.524Z</time>
      </trkpt>
      <trkpt lat="49.80302" lon="4.73965">
        <ele>310</ele>
        <time>2022-05-17T13:03:32.531Z</time>
      </trkpt>
      <trkpt lat="49.80306" lon="4.73956">
        <ele>310</ele>
        <time>2022-05-17T13:03:33.549Z</time>
      </trkpt>
      <trkpt lat="49.80306" lon="4.73956">
        <ele>310</ele>
        <time>2022-05-17T13:03:34.556Z</time>
      </trkpt>
      <trkpt lat="49.80309" lon="4.73947">
        <ele>309</ele>
        <time>2022-05-17T13:03:35.552Z</time>
      </trkpt>
      <trkpt lat="49.80309" lon="4.73947">
        <ele>309</ele>
        <time>2022-05-17T13:03:36.557Z</time>
      </trkpt>
      <trkpt lat="49.80312" lon="4.73939">
        <ele>309</ele>
        <time>2022-05-17T13:03:37.536Z</time>
      </trkpt>
      <trkpt lat="49.80312" lon="4.73939">
        <ele>309</ele>
        <time>2022-05-17T13:03:38.542Z</time>
      </trkpt>
      <trkpt lat="49.80315" lon="4.73932">
        <ele>310</ele>
        <time>2022-05-17T13:03:39.556Z</time>
      </trkpt>
      <trkpt lat="49.80316" lon="4.73928">
        <ele>310</ele>
        <time>2022-05-17T13:03:40.529Z</time>
      </trkpt>
      <trkpt lat="49.80316" lon="4.73928">
        <ele>310</ele>
        <time>2022-05-17T13:03:41.535Z</time>
      </trkpt>
      <trkpt lat="49.80319" lon="4.73922">
        <ele>310</ele>
        <time>2022-05-17T13:03:42.526Z</time>
      </trkpt>
      <trkpt lat="49.8032" lon="4.73919">
        <ele>311</ele>
        <time>2022-05-17T13:03:43.541Z</time>
      </trkpt>
      <trkpt lat="49.8032" lon="4.73919">
        <ele>311</ele>
        <time>2022-05-17T13:03:44.549Z</time>
      </trkpt>
      <trkpt lat="49.80324" lon="4.73913">
        <ele>312</ele>
        <time>2022-05-17T13:03:45.525Z</time>
      </trkpt>
      <trkpt lat="49.80324" lon="4.73913">
        <ele>312</ele>
        <time>2022-05-17T13:03:46.531Z</time>
      </trkpt>
      <trkpt lat="49.80328" lon="4.73907">
        <ele>312</ele>
        <time>2022-05-17T13:03:47.544Z</time>
      </trkpt>
      <trkpt lat="49.80328" lon="4.73907">
        <ele>312</ele>
        <time>2022-05-17T13:03:48.550Z</time>
      </trkpt>
      <trkpt lat="49.80331" lon="4.73902">
        <ele>313</ele>
        <time>2022-05-17T13:03:49.532Z</time>
      </trkpt>
      <trkpt lat="49.80331" lon="4.73902">
        <ele>313</ele>
        <time>2022-05-17T13:03:50.552Z</time>
      </trkpt>
      <trkpt lat="49.80335" lon="4.73895">
        <ele>314</ele>
        <time>2022-05-17T13:03:51.527Z</time>
      </trkpt>
      <trkpt lat="49.80335" lon="4.73895">
        <ele>314</ele>
        <time>2022-05-17T13:03:52.532Z</time>
      </trkpt>
      <trkpt lat="49.80338" lon="4.73887">
        <ele>314</ele>
        <time>2022-05-17T13:03:53.555Z</time>
      </trkpt>
      <trkpt lat="49.8034" lon="4.73882">
        <ele>314</ele>
        <time>2022-05-17T13:03:54.539Z</time>
      </trkpt>
      <trkpt lat="49.8034" lon="4.73882">
        <ele>314</ele>
        <time>2022-05-17T13:03:55.553Z</time>
      </trkpt>
      <trkpt lat="49.80343" lon="4.73876">
        <ele>314</ele>
        <time>2022-05-17T13:03:56.524Z</time>
      </trkpt>
      <trkpt lat="49.80345" lon="4.73873">
        <ele>315</ele>
        <time>2022-05-17T13:03:57.536Z</time>
      </trkpt>
      <trkpt lat="49.80345" lon="4.73873">
        <ele>315</ele>
        <time>2022-05-17T13:03:58.549Z</time>
      </trkpt>
      <trkpt lat="49.8035" lon="4.73863">
        <ele>315</ele>
        <time>2022-05-17T13:03:59.527Z</time>
      </trkpt>
      <trkpt lat="49.80352" lon="4.73859">
        <ele>315</ele>
        <time>2022-05-17T13:04:00.556Z</time>
      </trkpt>
      <trkpt lat="49.80352" lon="4.73859">
        <ele>315</ele>
        <time>2022-05-17T13:04:01.561Z</time>
      </trkpt>
      <trkpt lat="49.80357" lon="4.73854">
        <ele>315</ele>
        <time>2022-05-17T13:04:02.530Z</time>
      </trkpt>
      <trkpt lat="49.80357" lon="4.73854">
        <ele>315</ele>
        <time>2022-05-17T13:04:03.536Z</time>
      </trkpt>
      <trkpt lat="49.80362" lon="4.73848">
        <ele>315</ele>
        <time>2022-05-17T13:04:04.525Z</time>
      </trkpt>
      <trkpt lat="49.80362" lon="4.73848">
        <ele>315</ele>
        <time>2022-05-17T13:04:05.531Z</time>
      </trkpt>
      <trkpt lat="49.80365" lon="4.73841">
        <ele>316</ele>
        <time>2022-05-17T13:04:06.544Z</time>
      </trkpt>
      <trkpt lat="49.80368" lon="4.73838">
        <ele>316</ele>
        <time>2022-05-17T13:04:07.529Z</time>
      </trkpt>
      <trkpt lat="49.80368" lon="4.73838">
        <ele>316</ele>
        <time>2022-05-17T13:04:08.535Z</time>
      </trkpt>
      <trkpt lat="49.80372" lon="4.73831">
        <ele>317</ele>
        <time>2022-05-17T13:04:09.554Z</time>
      </trkpt>
      <trkpt lat="49.80374" lon="4.73827">
        <ele>318</ele>
        <time>2022-05-17T13:04:10.535Z</time>
      </trkpt>
      <trkpt lat="49.80374" lon="4.73827">
        <ele>318</ele>
        <time>2022-05-17T13:04:11.541Z</time>
      </trkpt>
      <trkpt lat="49.80378" lon="4.73819">
        <ele>318</ele>
        <time>2022-05-17T13:04:12.556Z</time>
      </trkpt>
      <trkpt lat="49.80381" lon="4.73814">
        <ele>318</ele>
        <time>2022-05-17T13:04:13.541Z</time>
      </trkpt>
      <trkpt lat="49.80381" lon="4.73814">
        <ele>318</ele>
        <time>2022-05-17T13:04:14.548Z</time>
      </trkpt>
      <trkpt lat="49.80384" lon="4.73807">
        <ele>318</ele>
        <time>2022-05-17T13:04:15.524Z</time>
      </trkpt>
      <trkpt lat="49.80386" lon="4.73804">
        <ele>318</ele>
        <time>2022-05-17T13:04:16.544Z</time>
      </trkpt>
      <trkpt lat="49.80386" lon="4.73804">
        <ele>318</ele>
        <time>2022-05-17T13:04:17.550Z</time>
      </trkpt>
      <trkpt lat="49.80389" lon="4.73798">
        <ele>319</ele>
        <time>2022-05-17T13:04:18.525Z</time>
      </trkpt>
      <trkpt lat="49.80391" lon="4.73795">
        <ele>319</ele>
        <time>2022-05-17T13:04:19.548Z</time>
      </trkpt>
      <trkpt lat="49.80391" lon="4.73795">
        <ele>319</ele>
        <time>2022-05-17T13:04:20.553Z</time>
      </trkpt>
      <trkpt lat="49.80395" lon="4.73787">
        <ele>320</ele>
        <time>2022-05-17T13:04:21.549Z</time>
      </trkpt>
      <trkpt lat="49.80397" lon="4.73783">
        <ele>320</ele>
        <time>2022-05-17T13:04:22.563Z</time>
      </trkpt>
      <trkpt lat="49.80397" lon="4.73783">
        <ele>320</ele>
        <time>2022-05-17T13:04:23.529Z</time>
      </trkpt>
      <trkpt lat="49.804" lon="4.73775">
        <ele>321</ele>
        <time>2022-05-17T13:04:24.557Z</time>
      </trkpt>
      <trkpt lat="49.80402" lon="4.73772">
        <ele>321</ele>
        <time>2022-05-17T13:04:25.553Z</time>
      </trkpt>
      <trkpt lat="49.80402" lon="4.73772">
        <ele>321</ele>
        <time>2022-05-17T13:04:26.559Z</time>
      </trkpt>
      <trkpt lat="49.80407" lon="4.73764">
        <ele>322</ele>
        <time>2022-05-17T13:04:27.539Z</time>
      </trkpt>
      <trkpt lat="49.80407" lon="4.73764">
        <ele>322</ele>
        <time>2022-05-17T13:04:28.551Z</time>
      </trkpt>
      <trkpt lat="49.80413" lon="4.73747">
        <ele>322</ele>
        <time>2022-05-17T13:04:29.527Z</time>
      </trkpt>
      <trkpt lat="49.80413" lon="4.73747">
        <ele>322</ele>
        <time>2022-05-17T13:04:30.548Z</time>
      </trkpt>
      <trkpt lat="49.80417" lon="4.73731">
        <ele>321</ele>
        <time>2022-05-17T13:04:31.546Z</time>
      </trkpt>
      <trkpt lat="49.80417" lon="4.73731">
        <ele>321</ele>
        <time>2022-05-17T13:04:32.553Z</time>
      </trkpt>
      <trkpt lat="49.8042" lon="4.7372">
        <ele>322</ele>
        <time>2022-05-17T13:04:33.524Z</time>
      </trkpt>
      <trkpt lat="49.8042" lon="4.7372">
        <ele>322</ele>
        <time>2022-05-17T13:04:34.530Z</time>
      </trkpt>
      <trkpt lat="49.80423" lon="4.7371">
        <ele>322</ele>
        <time>2022-05-17T13:04:35.542Z</time>
      </trkpt>
      <trkpt lat="49.80423" lon="4.7371">
        <ele>322</ele>
        <time>2022-05-17T13:04:36.550Z</time>
      </trkpt>
      <trkpt lat="49.80425" lon="4.73701">
        <ele>322</ele>
        <time>2022-05-17T13:04:37.538Z</time>
      </trkpt>
      <trkpt lat="49.80425" lon="4.73701">
        <ele>322</ele>
        <time>2022-05-17T13:04:38.551Z</time>
      </trkpt>
      <trkpt lat="49.80428" lon="4.73691">
        <ele>322</ele>
        <time>2022-05-17T13:04:39.526Z</time>
      </trkpt>
      <trkpt lat="49.80429" lon="4.73686">
        <ele>322</ele>
        <time>2022-05-17T13:04:40.563Z</time>
      </trkpt>
      <trkpt lat="49.80429" lon="4.73686">
        <ele>322</ele>
        <time>2022-05-17T13:04:41.530Z</time>
      </trkpt>
      <trkpt lat="49.80431" lon="4.73677">
        <ele>323</ele>
        <time>2022-05-17T13:04:42.550Z</time>
      </trkpt>
      <trkpt lat="49.80433" lon="4.73672">
        <ele>323</ele>
        <time>2022-05-17T13:04:43.530Z</time>
      </trkpt>
      <trkpt lat="49.80433" lon="4.73672">
        <ele>323</ele>
        <time>2022-05-17T13:04:44.535Z</time>
      </trkpt>
      <trkpt lat="49.80437" lon="4.73663">
        <ele>322</ele>
        <time>2022-05-17T13:04:45.551Z</time>
      </trkpt>
      <trkpt lat="49.80439" lon="4.7366">
        <ele>322</ele>
        <time>2022-05-17T13:04:46.536Z</time>
      </trkpt>
      <trkpt lat="49.80439" lon="4.7366">
        <ele>322</ele>
        <time>2022-05-17T13:04:47.541Z</time>
      </trkpt>
      <trkpt lat="49.80442" lon="4.73651">
        <ele>322</ele>
        <time>2022-05-17T13:04:48.529Z</time>
      </trkpt>
      <trkpt lat="49.80444" lon="4.73646">
        <ele>323</ele>
        <time>2022-05-17T13:04:49.550Z</time>
      </trkpt>
      <trkpt lat="49.80444" lon="4.73646">
        <ele>323</ele>
        <time>2022-05-17T13:04:50.555Z</time>
      </trkpt>
      <trkpt lat="49.80447" lon="4.73638">
        <ele>323</ele>
        <time>2022-05-17T13:04:51.530Z</time>
      </trkpt>
      <trkpt lat="49.80447" lon="4.73638">
        <ele>323</ele>
        <time>2022-05-17T13:04:52.536Z</time>
      </trkpt>
      <trkpt lat="49.80451" lon="4.7363">
        <ele>324</ele>
        <time>2022-05-17T13:04:53.552Z</time>
      </trkpt>
      <trkpt lat="49.80451" lon="4.7363">
        <ele>324</ele>
        <time>2022-05-17T13:04:54.557Z</time>
      </trkpt>
      <trkpt lat="49.80455" lon="4.7362">
        <ele>324</ele>
        <time>2022-05-17T13:04:55.532Z</time>
      </trkpt>
      <trkpt lat="49.80455" lon="4.7362">
        <ele>324</ele>
        <time>2022-05-17T13:04:56.537Z</time>
      </trkpt>
      <trkpt lat="49.80458" lon="4.7361">
        <ele>325</ele>
        <time>2022-05-17T13:04:57.526Z</time>
      </trkpt>
      <trkpt lat="49.80459" lon="4.73605">
        <ele>325</ele>
        <time>2022-05-17T13:04:58.528Z</time>
      </trkpt>
      <trkpt lat="49.80459" lon="4.73605">
        <ele>325</ele>
        <time>2022-05-17T13:04:59.533Z</time>
      </trkpt>
      <trkpt lat="49.80464" lon="4.73593">
        <ele>325</ele>
        <time>2022-05-17T13:05:00.553Z</time>
      </trkpt>
      <trkpt lat="49.80466" lon="4.73585">
        <ele>325</ele>
        <time>2022-05-17T13:05:01.525Z</time>
      </trkpt>
      <trkpt lat="49.80466" lon="4.73585">
        <ele>325</ele>
        <time>2022-05-17T13:05:02.531Z</time>
      </trkpt>
      <trkpt lat="49.80471" lon="4.73576">
        <ele>325</ele>
        <time>2022-05-17T13:05:03.555Z</time>
      </trkpt>
      <trkpt lat="49.80471" lon="4.73576">
        <ele>325</ele>
        <time>2022-05-17T13:05:04.561Z</time>
      </trkpt>
      <trkpt lat="49.80475" lon="4.73569">
        <ele>326</ele>
        <time>2022-05-17T13:05:05.534Z</time>
      </trkpt>
      <trkpt lat="49.80475" lon="4.73569">
        <ele>326</ele>
        <time>2022-05-17T13:05:06.541Z</time>
      </trkpt>
      <trkpt lat="49.8048" lon="4.7356">
        <ele>326</ele>
        <time>2022-05-17T13:05:07.534Z</time>
      </trkpt>
      <trkpt lat="49.8048" lon="4.7356">
        <ele>326</ele>
        <time>2022-05-17T13:05:08.559Z</time>
      </trkpt>
      <trkpt lat="49.80485" lon="4.73547">
        <ele>327</ele>
        <time>2022-05-17T13:05:09.550Z</time>
      </trkpt>
      <trkpt lat="49.80485" lon="4.73547">
        <ele>327</ele>
        <time>2022-05-17T13:05:10.555Z</time>
      </trkpt>
      <trkpt lat="49.8049" lon="4.73537">
        <ele>327</ele>
        <time>2022-05-17T13:05:11.525Z</time>
      </trkpt>
      <trkpt lat="49.80492" lon="4.73532">
        <ele>328</ele>
        <time>2022-05-17T13:05:12.539Z</time>
      </trkpt>
      <trkpt lat="49.80492" lon="4.73532">
        <ele>328</ele>
        <time>2022-05-17T13:05:13.554Z</time>
      </trkpt>
      <trkpt lat="49.80495" lon="4.73519">
        <ele>328</ele>
        <time>2022-05-17T13:05:14.534Z</time>
      </trkpt>
      <trkpt lat="49.80497" lon="4.73513">
        <ele>328</ele>
        <time>2022-05-17T13:05:15.562Z</time>
      </trkpt>
      <trkpt lat="49.80497" lon="4.73513">
        <ele>328</ele>
        <time>2022-05-17T13:05:16.527Z</time>
      </trkpt>
      <trkpt lat="49.80502" lon="4.735">
        <ele>329</ele>
        <time>2022-05-17T13:05:17.548Z</time>
      </trkpt>
      <trkpt lat="49.80502" lon="4.735">
        <ele>329</ele>
        <time>2022-05-17T13:05:18.554Z</time>
      </trkpt>
      <trkpt lat="49.80505" lon="4.73488">
        <ele>329</ele>
        <time>2022-05-17T13:05:19.536Z</time>
      </trkpt>
      <trkpt lat="49.80505" lon="4.73488">
        <ele>329</ele>
        <time>2022-05-17T13:05:20.549Z</time>
      </trkpt>
      <trkpt lat="49.8051" lon="4.73471">
        <ele>328</ele>
        <time>2022-05-17T13:05:21.549Z</time>
      </trkpt>
      <trkpt lat="49.8051" lon="4.73471">
        <ele>328</ele>
        <time>2022-05-17T13:05:22.557Z</time>
      </trkpt>
      <trkpt lat="49.80512" lon="4.73456">
        <ele>327</ele>
        <time>2022-05-17T13:05:23.542Z</time>
      </trkpt>
      <trkpt lat="49.80512" lon="4.73456">
        <ele>327</ele>
        <time>2022-05-17T13:05:24.549Z</time>
      </trkpt>
      <trkpt lat="49.80515" lon="4.73447">
        <ele>328</ele>
        <time>2022-05-17T13:05:25.525Z</time>
      </trkpt>
      <trkpt lat="49.80515" lon="4.73447">
        <ele>328</ele>
        <time>2022-05-17T13:05:26.533Z</time>
      </trkpt>
      <trkpt lat="49.80519" lon="4.73437">
        <ele>329</ele>
        <time>2022-05-17T13:05:27.545Z</time>
      </trkpt>
      <trkpt lat="49.80519" lon="4.73431">
        <ele>329</ele>
        <time>2022-05-17T13:05:28.563Z</time>
      </trkpt>
      <trkpt lat="49.8052" lon="4.73424">
        <ele>329</ele>
        <time>2022-05-17T13:05:29.535Z</time>
      </trkpt>
      <trkpt lat="49.8052" lon="4.73424">
        <ele>329</ele>
        <time>2022-05-17T13:05:30.550Z</time>
      </trkpt>
      <trkpt lat="49.80524" lon="4.73409">
        <ele>329</ele>
        <time>2022-05-17T13:05:31.524Z</time>
      </trkpt>
      <trkpt lat="49.80524" lon="4.73409">
        <ele>329</ele>
        <time>2022-05-17T13:05:32.532Z</time>
      </trkpt>
      <trkpt lat="49.80527" lon="4.73395">
        <ele>330</ele>
        <time>2022-05-17T13:05:33.559Z</time>
      </trkpt>
      <trkpt lat="49.80528" lon="4.7339">
        <ele>330</ele>
        <time>2022-05-17T13:05:34.531Z</time>
      </trkpt>
      <trkpt lat="49.80529" lon="4.73385">
        <ele>330</ele>
        <time>2022-05-17T13:05:35.542Z</time>
      </trkpt>
      <trkpt lat="49.80529" lon="4.73385">
        <ele>330</ele>
        <time>2022-05-17T13:05:36.548Z</time>
      </trkpt>
      <trkpt lat="49.80533" lon="4.73378">
        <ele>329</ele>
        <time>2022-05-17T13:05:37.534Z</time>
      </trkpt>
      <trkpt lat="49.80533" lon="4.73378">
        <ele>329</ele>
        <time>2022-05-17T13:05:38.540Z</time>
      </trkpt>
      <trkpt lat="49.80534" lon="4.73367">
        <ele>328</ele>
        <time>2022-05-17T13:05:39.538Z</time>
      </trkpt>
      <trkpt lat="49.80534" lon="4.73367">
        <ele>328</ele>
        <time>2022-05-17T13:05:40.550Z</time>
      </trkpt>
      <trkpt lat="49.80535" lon="4.73356">
        <ele>328</ele>
        <time>2022-05-17T13:05:41.527Z</time>
      </trkpt>
      <trkpt lat="49.80535" lon="4.73356">
        <ele>328</ele>
        <time>2022-05-17T13:05:42.533Z</time>
      </trkpt>
      <trkpt lat="49.80536" lon="4.73342">
        <ele>328</ele>
        <time>2022-05-17T13:05:43.550Z</time>
      </trkpt>
      <trkpt lat="49.80536" lon="4.73342">
        <ele>328</ele>
        <time>2022-05-17T13:05:44.535Z</time>
      </trkpt>
      <trkpt lat="49.80537" lon="4.73325">
        <ele>327</ele>
        <time>2022-05-17T13:05:45.535Z</time>
      </trkpt>
      <trkpt lat="49.80537" lon="4.73325">
        <ele>327</ele>
        <time>2022-05-17T13:05:46.540Z</time>
      </trkpt>
      <trkpt lat="49.80538" lon="4.73307">
        <ele>325</ele>
        <time>2022-05-17T13:05:47.531Z</time>
      </trkpt>
      <trkpt lat="49.80539" lon="4.73296">
        <ele>324</ele>
        <time>2022-05-17T13:05:48.545Z</time>
      </trkpt>
      <trkpt lat="49.80541" lon="4.73287">
        <ele>323</ele>
        <time>2022-05-17T13:05:49.561Z</time>
      </trkpt>
      <trkpt lat="49.80541" lon="4.73287">
        <ele>323</ele>
        <time>2022-05-17T13:05:50.526Z</time>
      </trkpt>
      <trkpt lat="49.80544" lon="4.73271">
        <ele>322</ele>
        <time>2022-05-17T13:05:51.547Z</time>
      </trkpt>
      <trkpt lat="49.80544" lon="4.73271">
        <ele>322</ele>
        <time>2022-05-17T13:05:52.553Z</time>
      </trkpt>
      <trkpt lat="49.80545" lon="4.73253">
        <ele>321</ele>
        <time>2022-05-17T13:05:53.539Z</time>
      </trkpt>
      <trkpt lat="49.80546" lon="4.73244">
        <ele>320</ele>
        <time>2022-05-17T13:05:54.557Z</time>
      </trkpt>
      <trkpt lat="49.80548" lon="4.73235">
        <ele>319</ele>
        <time>2022-05-17T13:05:55.535Z</time>
      </trkpt>
      <trkpt lat="49.80548" lon="4.73235">
        <ele>319</ele>
        <time>2022-05-17T13:05:56.542Z</time>
      </trkpt>
      <trkpt lat="49.80552" lon="4.73218">
        <ele>316</ele>
        <time>2022-05-17T13:05:57.541Z</time>
      </trkpt>
      <trkpt lat="49.80552" lon="4.73218">
        <ele>316</ele>
        <time>2022-05-17T13:05:58.549Z</time>
      </trkpt>
      <trkpt lat="49.80556" lon="4.73202">
        <ele>315</ele>
        <time>2022-05-17T13:05:59.532Z</time>
      </trkpt>
      <trkpt lat="49.80556" lon="4.73202">
        <ele>315</ele>
        <time>2022-05-17T13:06:00.547Z</time>
      </trkpt>
      <trkpt lat="49.8056" lon="4.73187">
        <ele>314</ele>
        <time>2022-05-17T13:06:01.562Z</time>
      </trkpt>
      <trkpt lat="49.8056" lon="4.73187">
        <ele>314</ele>
        <time>2022-05-17T13:06:02.530Z</time>
      </trkpt>
      <trkpt lat="49.80565" lon="4.73172">
        <ele>313</ele>
        <time>2022-05-17T13:06:03.555Z</time>
      </trkpt>
      <trkpt lat="49.80569" lon="4.73164">
        <ele>312</ele>
        <time>2022-05-17T13:06:04.525Z</time>
      </trkpt>
      <trkpt lat="49.80569" lon="4.73164">
        <ele>312</ele>
        <time>2022-05-17T13:06:05.530Z</time>
      </trkpt>
      <trkpt lat="49.80574" lon="4.73149">
        <ele>311</ele>
        <time>2022-05-17T13:06:06.556Z</time>
      </trkpt>
      <trkpt lat="49.80574" lon="4.73149">
        <ele>311</ele>
        <time>2022-05-17T13:06:07.563Z</time>
      </trkpt>
      <trkpt lat="49.80578" lon="4.73135">
        <ele>310</ele>
        <time>2022-05-17T13:06:08.540Z</time>
      </trkpt>
      <trkpt lat="49.80579" lon="4.73128">
        <ele>310</ele>
        <time>2022-05-17T13:06:09.547Z</time>
      </trkpt>
      <trkpt lat="49.80579" lon="4.73128">
        <ele>310</ele>
        <time>2022-05-17T13:06:10.552Z</time>
      </trkpt>
      <trkpt lat="49.80583" lon="4.73111">
        <ele>307</ele>
        <time>2022-05-17T13:06:11.536Z</time>
      </trkpt>
      <trkpt lat="49.80583" lon="4.73111">
        <ele>307</ele>
        <time>2022-05-17T13:06:12.544Z</time>
      </trkpt>
      <trkpt lat="49.80588" lon="4.73097">
        <ele>306</ele>
        <time>2022-05-17T13:06:13.530Z</time>
      </trkpt>
      <trkpt lat="49.80588" lon="4.73097">
        <ele>306</ele>
        <time>2022-05-17T13:06:14.560Z</time>
      </trkpt>
      <trkpt lat="49.80592" lon="4.73085">
        <ele>305</ele>
        <time>2022-05-17T13:06:15.548Z</time>
      </trkpt>
      <trkpt lat="49.80592" lon="4.73085">
        <ele>305</ele>
        <time>2022-05-17T13:06:16.554Z</time>
      </trkpt>
      <trkpt lat="49.80596" lon="4.7307">
        <ele>305</ele>
        <time>2022-05-17T13:06:17.559Z</time>
      </trkpt>
      <trkpt lat="49.80596" lon="4.7307">
        <ele>305</ele>
        <time>2022-05-17T13:06:18.525Z</time>
      </trkpt>
      <trkpt lat="49.80599" lon="4.73055">
        <ele>304</ele>
        <time>2022-05-17T13:06:19.542Z</time>
      </trkpt>
      <trkpt lat="49.80599" lon="4.73055">
        <ele>304</ele>
        <time>2022-05-17T13:06:20.554Z</time>
      </trkpt>
      <trkpt lat="49.80604" lon="4.73046">
        <ele>304</ele>
        <time>2022-05-17T13:06:21.555Z</time>
      </trkpt>
      <trkpt lat="49.80605" lon="4.73039">
        <ele>303</ele>
        <time>2022-05-17T13:06:22.540Z</time>
      </trkpt>
      <trkpt lat="49.80607" lon="4.73032">
        <ele>303</ele>
        <time>2022-05-17T13:06:23.552Z</time>
      </trkpt>
      <trkpt lat="49.80607" lon="4.73032">
        <ele>303</ele>
        <time>2022-05-17T13:06:24.558Z</time>
      </trkpt>
      <trkpt lat="49.80609" lon="4.7302">
        <ele>303</ele>
        <time>2022-05-17T13:06:25.533Z</time>
      </trkpt>
      <trkpt lat="49.80609" lon="4.7302">
        <ele>303</ele>
        <time>2022-05-17T13:06:26.538Z</time>
      </trkpt>
      <trkpt lat="49.80613" lon="4.7301">
        <ele>303</ele>
        <time>2022-05-17T13:06:27.543Z</time>
      </trkpt>
      <trkpt lat="49.80614" lon="4.73006">
        <ele>303</ele>
        <time>2022-05-17T13:06:28.538Z</time>
      </trkpt>
      <trkpt lat="49.80614" lon="4.73006">
        <ele>303</ele>
        <time>2022-05-17T13:06:29.545Z</time>
      </trkpt>
      <trkpt lat="49.80617" lon="4.72997">
        <ele>303</ele>
        <time>2022-05-17T13:06:30.528Z</time>
      </trkpt>
      <trkpt lat="49.80618" lon="4.72994">
        <ele>302</ele>
        <time>2022-05-17T13:06:31.542Z</time>
      </trkpt>
      <trkpt lat="49.80618" lon="4.72994">
        <ele>302</ele>
        <time>2022-05-17T13:06:32.549Z</time>
      </trkpt>
      <trkpt lat="49.8062" lon="4.72986">
        <ele>302</ele>
        <time>2022-05-17T13:06:33.562Z</time>
      </trkpt>
      <trkpt lat="49.8062" lon="4.72986">
        <ele>302</ele>
        <time>2022-05-17T13:06:34.527Z</time>
      </trkpt>
      <trkpt lat="49.80624" lon="4.72982">
        <ele>302</ele>
        <time>2022-05-17T13:06:35.562Z</time>
      </trkpt>
      <trkpt lat="49.80624" lon="4.72982">
        <ele>302</ele>
        <time>2022-05-17T13:06:36.529Z</time>
      </trkpt>
      <trkpt lat="49.80629" lon="4.72979">
        <ele>302</ele>
        <time>2022-05-17T13:06:37.562Z</time>
      </trkpt>
      <trkpt lat="49.80629" lon="4.72979">
        <ele>302</ele>
        <time>2022-05-17T13:06:38.527Z</time>
      </trkpt>
      <trkpt lat="49.80634" lon="4.72972">
        <ele>302</ele>
        <time>2022-05-17T13:06:39.534Z</time>
      </trkpt>
      <trkpt lat="49.80634" lon="4.72972">
        <ele>302</ele>
        <time>2022-05-17T13:06:40.551Z</time>
      </trkpt>
      <trkpt lat="49.80639" lon="4.72965">
        <ele>302</ele>
        <time>2022-05-17T13:06:41.538Z</time>
      </trkpt>
      <trkpt lat="49.80639" lon="4.72965">
        <ele>302</ele>
        <time>2022-05-17T13:06:42.544Z</time>
      </trkpt>
      <trkpt lat="49.80643" lon="4.72957">
        <ele>301</ele>
        <time>2022-05-17T13:06:43.561Z</time>
      </trkpt>
      <trkpt lat="49.80643" lon="4.72957">
        <ele>301</ele>
        <time>2022-05-17T13:06:44.557Z</time>
      </trkpt>
      <trkpt lat="49.80646" lon="4.72952">
        <ele>301</ele>
        <time>2022-05-17T13:06:45.537Z</time>
      </trkpt>
      <trkpt lat="49.80646" lon="4.72952">
        <ele>301</ele>
        <time>2022-05-17T13:06:46.542Z</time>
      </trkpt>
      <trkpt lat="49.80649" lon="4.72947">
        <ele>301</ele>
        <time>2022-05-17T13:06:47.536Z</time>
      </trkpt>
      <trkpt lat="49.80651" lon="4.72944">
        <ele>301</ele>
        <time>2022-05-17T13:06:48.551Z</time>
      </trkpt>
      <trkpt lat="49.80652" lon="4.72941">
        <ele>301</ele>
        <time>2022-05-17T13:06:49.562Z</time>
      </trkpt>
      <trkpt lat="49.80652" lon="4.72941">
        <ele>301</ele>
        <time>2022-05-17T13:06:50.532Z</time>
      </trkpt>
      <trkpt lat="49.80654" lon="4.72935">
        <ele>302</ele>
        <time>2022-05-17T13:06:51.550Z</time>
      </trkpt>
      <trkpt lat="49.80654" lon="4.72935">
        <ele>302</ele>
        <time>2022-05-17T13:06:52.555Z</time>
      </trkpt>
      <trkpt lat="49.80657" lon="4.7293">
        <ele>302</ele>
        <time>2022-05-17T13:06:53.532Z</time>
      </trkpt>
      <trkpt lat="49.80658" lon="4.72928">
        <ele>302</ele>
        <time>2022-05-17T13:06:54.540Z</time>
      </trkpt>
      <trkpt lat="49.80658" lon="4.72928">
        <ele>302</ele>
        <time>2022-05-17T13:06:55.549Z</time>
      </trkpt>
      <trkpt lat="49.80662" lon="4.72924">
        <ele>302</ele>
        <time>2022-05-17T13:06:56.544Z</time>
      </trkpt>
      <trkpt lat="49.80662" lon="4.72924">
        <ele>302</ele>
        <time>2022-05-17T13:06:57.551Z</time>
      </trkpt>
      <trkpt lat="49.80664" lon="4.72919">
        <ele>302</ele>
        <time>2022-05-17T13:06:58.548Z</time>
      </trkpt>
      <trkpt lat="49.80665" lon="4.72917">
        <ele>302</ele>
        <time>2022-05-17T13:06:59.529Z</time>
      </trkpt>
      <trkpt lat="49.80666" lon="4.72914">
        <ele>302</ele>
        <time>2022-05-17T13:07:00.526Z</time>
      </trkpt>
      <trkpt lat="49.80667" lon="4.72912">
        <ele>302</ele>
        <time>2022-05-17T13:07:01.553Z</time>
      </trkpt>
      <trkpt lat="49.80667" lon="4.72912">
        <ele>302</ele>
        <time>2022-05-17T13:07:02.559Z</time>
      </trkpt>
      <trkpt lat="49.80669" lon="4.7291">
        <ele>302</ele>
        <time>2022-05-17T13:07:03.536Z</time>
      </trkpt>
      <trkpt lat="49.8067" lon="4.72908">
        <ele>302</ele>
        <time>2022-05-17T13:07:04.543Z</time>
      </trkpt>
      <trkpt lat="49.80672" lon="4.72904">
        <ele>302</ele>
        <time>2022-05-17T13:07:05.524Z</time>
      </trkpt>
      <trkpt lat="49.80672" lon="4.72904">
        <ele>302</ele>
        <time>2022-05-17T13:07:06.558Z</time>
      </trkpt>
      <trkpt lat="49.80675" lon="4.72897">
        <ele>302</ele>
        <time>2022-05-17T13:07:07.539Z</time>
      </trkpt>
      <trkpt lat="49.80675" lon="4.72897">
        <ele>302</ele>
        <time>2022-05-17T13:07:08.562Z</time>
      </trkpt>
      <trkpt lat="49.80677" lon="4.72892">
        <ele>302</ele>
        <time>2022-05-17T13:07:09.525Z</time>
      </trkpt>
      <trkpt lat="49.80677" lon="4.72892">
        <ele>302</ele>
        <time>2022-05-17T13:07:10.562Z</time>
      </trkpt>
      <trkpt lat="49.8068" lon="4.72887">
        <ele>302</ele>
        <time>2022-05-17T13:07:11.563Z</time>
      </trkpt>
      <trkpt lat="49.8068" lon="4.72887">
        <ele>302</ele>
        <time>2022-05-17T13:07:12.554Z</time>
      </trkpt>
      <trkpt lat="49.80681" lon="4.72882">
        <ele>302</ele>
        <time>2022-05-17T13:07:13.547Z</time>
      </trkpt>
      <trkpt lat="49.80681" lon="4.72882">
        <ele>302</ele>
        <time>2022-05-17T13:07:14.562Z</time>
      </trkpt>
      <trkpt lat="49.80683" lon="4.72878">
        <ele>303</ele>
        <time>2022-05-17T13:07:15.529Z</time>
      </trkpt>
      <trkpt lat="49.80683" lon="4.72878">
        <ele>303</ele>
        <time>2022-05-17T13:07:16.558Z</time>
      </trkpt>
      <trkpt lat="49.80685" lon="4.72873">
        <ele>303</ele>
        <time>2022-05-17T13:07:17.538Z</time>
      </trkpt>
      <trkpt lat="49.80686" lon="4.7287">
        <ele>303</ele>
        <time>2022-05-17T13:07:18.563Z</time>
      </trkpt>
      <trkpt lat="49.80687" lon="4.72867">
        <ele>303</ele>
        <time>2022-05-17T13:07:19.535Z</time>
      </trkpt>
      <trkpt lat="49.80687" lon="4.72867">
        <ele>303</ele>
        <time>2022-05-17T13:07:20.562Z</time>
      </trkpt>
      <trkpt lat="49.80689" lon="4.72861">
        <ele>303</ele>
        <time>2022-05-17T13:07:21.528Z</time>
      </trkpt>
      <trkpt lat="49.8069" lon="4.72858">
        <ele>303</ele>
        <time>2022-05-17T13:07:22.547Z</time>
      </trkpt>
      <trkpt lat="49.8069" lon="4.72858">
        <ele>303</ele>
        <time>2022-05-17T13:07:23.562Z</time>
      </trkpt>
      <trkpt lat="49.80692" lon="4.72855">
        <ele>304</ele>
        <time>2022-05-17T13:07:24.526Z</time>
      </trkpt>
      <trkpt lat="49.80692" lon="4.72853">
        <ele>304</ele>
        <time>2022-05-17T13:07:25.526Z</time>
      </trkpt>
      <trkpt lat="49.80692" lon="4.72853">
        <ele>304</ele>
        <time>2022-05-17T13:07:26.557Z</time>
      </trkpt>
      <trkpt lat="49.80694" lon="4.72848">
        <ele>304</ele>
        <time>2022-05-17T13:07:27.546Z</time>
      </trkpt>
      <trkpt lat="49.80695" lon="4.72846">
        <ele>304</ele>
        <time>2022-05-17T13:07:28.541Z</time>
      </trkpt>
      <trkpt lat="49.80695" lon="4.72846">
        <ele>304</ele>
        <time>2022-05-17T13:07:29.525Z</time>
      </trkpt>
      <trkpt lat="49.80697" lon="4.72841">
        <ele>304</ele>
        <time>2022-05-17T13:07:30.529Z</time>
      </trkpt>
      <trkpt lat="49.80698" lon="4.72839">
        <ele>304</ele>
        <time>2022-05-17T13:07:31.524Z</time>
      </trkpt>
      <trkpt lat="49.80698" lon="4.72839">
        <ele>304</ele>
        <time>2022-05-17T13:07:32.558Z</time>
      </trkpt>
      <trkpt lat="49.80701" lon="4.72835">
        <ele>304</ele>
        <time>2022-05-17T13:07:33.542Z</time>
      </trkpt>
      <trkpt lat="49.80701" lon="4.72835">
        <ele>304</ele>
        <time>2022-05-17T13:07:34.559Z</time>
      </trkpt>
      <trkpt lat="49.80705" lon="4.7283">
        <ele>304</ele>
        <time>2022-05-17T13:07:35.537Z</time>
      </trkpt>
      <trkpt lat="49.80708" lon="4.72827">
        <ele>304</ele>
        <time>2022-05-17T13:07:36.526Z</time>
      </trkpt>
      <trkpt lat="49.80708" lon="4.72827">
        <ele>304</ele>
        <time>2022-05-17T13:07:37.524Z</time>
      </trkpt>
      <trkpt lat="49.80713" lon="4.72824">
        <ele>305</ele>
        <time>2022-05-17T13:07:38.531Z</time>
      </trkpt>
      <trkpt lat="49.80713" lon="4.72824">
        <ele>305</ele>
        <time>2022-05-17T13:07:39.525Z</time>
      </trkpt>
      <trkpt lat="49.80716" lon="4.72818">
        <ele>304</ele>
        <time>2022-05-17T13:07:40.532Z</time>
      </trkpt>
      <trkpt lat="49.80716" lon="4.72818">
        <ele>304</ele>
        <time>2022-05-17T13:07:41.538Z</time>
      </trkpt>
      <trkpt lat="49.80719" lon="4.72812">
        <ele>304</ele>
        <time>2022-05-17T13:07:42.561Z</time>
      </trkpt>
      <trkpt lat="49.8072" lon="4.72809">
        <ele>304</ele>
        <time>2022-05-17T13:07:43.527Z</time>
      </trkpt>
      <trkpt lat="49.8072" lon="4.72809">
        <ele>304</ele>
        <time>2022-05-17T13:07:44.532Z</time>
      </trkpt>
      <trkpt lat="49.80723" lon="4.72805">
        <ele>305</ele>
        <time>2022-05-17T13:07:45.539Z</time>
      </trkpt>
      <trkpt lat="49.80725" lon="4.72802">
        <ele>305</ele>
        <time>2022-05-17T13:07:46.563Z</time>
      </trkpt>
      <trkpt lat="49.80725" lon="4.72802">
        <ele>305</ele>
        <time>2022-05-17T13:07:47.540Z</time>
      </trkpt>
      <trkpt lat="49.80729" lon="4.72797">
        <ele>305</ele>
        <time>2022-05-17T13:07:48.563Z</time>
      </trkpt>
      <trkpt lat="49.80731" lon="4.72794">
        <ele>305</ele>
        <time>2022-05-17T13:07:49.527Z</time>
      </trkpt>
      <trkpt lat="49.80731" lon="4.72794">
        <ele>305</ele>
        <time>2022-05-17T13:07:50.560Z</time>
      </trkpt>
      <trkpt lat="49.80737" lon="4.72788">
        <ele>305</ele>
        <time>2022-05-17T13:07:51.543Z</time>
      </trkpt>
      <trkpt lat="49.8074" lon="4.72784">
        <ele>306</ele>
        <time>2022-05-17T13:07:52.529Z</time>
      </trkpt>
      <trkpt lat="49.80743" lon="4.72781">
        <ele>306</ele>
        <time>2022-05-17T13:07:53.524Z</time>
      </trkpt>
      <trkpt lat="49.80743" lon="4.72781">
        <ele>306</ele>
        <time>2022-05-17T13:07:54.561Z</time>
      </trkpt>
      <trkpt lat="49.80749" lon="4.72775">
        <ele>306</ele>
        <time>2022-05-17T13:07:55.548Z</time>
      </trkpt>
      <trkpt lat="49.80749" lon="4.72775">
        <ele>306</ele>
        <time>2022-05-17T13:07:56.563Z</time>
      </trkpt>
      <trkpt lat="49.80755" lon="4.72766">
        <ele>306</ele>
        <time>2022-05-17T13:07:57.527Z</time>
      </trkpt>
      <trkpt lat="49.80755" lon="4.72766">
        <ele>306</ele>
        <time>2022-05-17T13:07:58.553Z</time>
      </trkpt>
      <trkpt lat="49.8076" lon="4.72761">
        <ele>306</ele>
        <time>2022-05-17T13:07:59.539Z</time>
      </trkpt>
      <trkpt lat="49.80762" lon="4.72758">
        <ele>307</ele>
        <time>2022-05-17T13:08:00.530Z</time>
      </trkpt>
      <trkpt lat="49.80762" lon="4.72758">
        <ele>307</ele>
        <time>2022-05-17T13:08:01.561Z</time>
      </trkpt>
      <trkpt lat="49.80766" lon="4.72753">
        <ele>307</ele>
        <time>2022-05-17T13:08:02.540Z</time>
      </trkpt>
      <trkpt lat="49.80766" lon="4.72753">
        <ele>307</ele>
        <time>2022-05-17T13:08:03.558Z</time>
      </trkpt>
      <trkpt lat="49.80771" lon="4.72747">
        <ele>307</ele>
        <time>2022-05-17T13:08:04.541Z</time>
      </trkpt>
      <trkpt lat="49.80771" lon="4.72747">
        <ele>307</ele>
        <time>2022-05-17T13:08:05.561Z</time>
      </trkpt>
      <trkpt lat="49.80775" lon="4.72741">
        <ele>308</ele>
        <time>2022-05-17T13:08:06.524Z</time>
      </trkpt>
      <trkpt lat="49.80777" lon="4.72738">
        <ele>308</ele>
        <time>2022-05-17T13:08:07.531Z</time>
      </trkpt>
      <trkpt lat="49.80777" lon="4.72738">
        <ele>308</ele>
        <time>2022-05-17T13:08:08.527Z</time>
      </trkpt>
      <trkpt lat="49.80781" lon="4.72731">
        <ele>308</ele>
        <time>2022-05-17T13:08:09.528Z</time>
      </trkpt>
      <trkpt lat="49.80782" lon="4.72728">
        <ele>309</ele>
        <time>2022-05-17T13:08:10.527Z</time>
      </trkpt>
      <trkpt lat="49.80784" lon="4.72725">
        <ele>309</ele>
        <time>2022-05-17T13:08:11.524Z</time>
      </trkpt>
      <trkpt lat="49.80784" lon="4.72725">
        <ele>309</ele>
        <time>2022-05-17T13:08:12.546Z</time>
      </trkpt>
      <trkpt lat="49.80787" lon="4.72719">
        <ele>309</ele>
        <time>2022-05-17T13:08:13.526Z</time>
      </trkpt>
      <trkpt lat="49.80787" lon="4.72719">
        <ele>309</ele>
        <time>2022-05-17T13:08:14.561Z</time>
      </trkpt>
      <trkpt lat="49.80791" lon="4.72714">
        <ele>309</ele>
        <time>2022-05-17T13:08:15.525Z</time>
      </trkpt>
      <trkpt lat="49.80791" lon="4.72714">
        <ele>309</ele>
        <time>2022-05-17T13:08:16.562Z</time>
      </trkpt>
      <trkpt lat="49.80793" lon="4.72707">
        <ele>310</ele>
        <time>2022-05-17T13:08:17.563Z</time>
      </trkpt>
      <trkpt lat="49.80793" lon="4.72707">
        <ele>310</ele>
        <time>2022-05-17T13:08:18.559Z</time>
      </trkpt>
      <trkpt lat="49.80796" lon="4.72701">
        <ele>310</ele>
        <time>2022-05-17T13:08:19.542Z</time>
      </trkpt>
      <trkpt lat="49.80796" lon="4.72701">
        <ele>310</ele>
        <time>2022-05-17T13:08:20.526Z</time>
      </trkpt>
      <trkpt lat="49.80799" lon="4.72696">
        <ele>310</ele>
        <time>2022-05-17T13:08:21.543Z</time>
      </trkpt>
      <trkpt lat="49.808" lon="4.72693">
        <ele>310</ele>
        <time>2022-05-17T13:08:22.524Z</time>
      </trkpt>
      <trkpt lat="49.808" lon="4.72693">
        <ele>310</ele>
        <time>2022-05-17T13:08:23.559Z</time>
      </trkpt>
      <trkpt lat="49.80803" lon="4.72687">
        <ele>311</ele>
        <time>2022-05-17T13:08:24.552Z</time>
      </trkpt>
      <trkpt lat="49.80804" lon="4.72684">
        <ele>311</ele>
        <time>2022-05-17T13:08:25.529Z</time>
      </trkpt>
      <trkpt lat="49.80804" lon="4.72684">
        <ele>311</ele>
        <time>2022-05-17T13:08:26.558Z</time>
      </trkpt>
      <trkpt lat="49.80807" lon="4.7268">
        <ele>311</ele>
        <time>2022-05-17T13:08:27.538Z</time>
      </trkpt>
      <trkpt lat="49.80807" lon="4.7268">
        <ele>311</ele>
        <time>2022-05-17T13:08:28.559Z</time>
      </trkpt>
      <trkpt lat="49.8081" lon="4.72674">
        <ele>312</ele>
        <time>2022-05-17T13:08:29.539Z</time>
      </trkpt>
      <trkpt lat="49.8081" lon="4.72674">
        <ele>312</ele>
        <time>2022-05-17T13:08:30.563Z</time>
      </trkpt>
      <trkpt lat="49.80813" lon="4.72667">
        <ele>312</ele>
        <time>2022-05-17T13:08:31.526Z</time>
      </trkpt>
      <trkpt lat="49.80813" lon="4.72667">
        <ele>312</ele>
        <time>2022-05-17T13:08:32.561Z</time>
      </trkpt>
      <trkpt lat="49.80816" lon="4.72662">
        <ele>312</ele>
        <time>2022-05-17T13:08:33.556Z</time>
      </trkpt>
      <trkpt lat="49.80817" lon="4.7266">
        <ele>312</ele>
        <time>2022-05-17T13:08:34.547Z</time>
      </trkpt>
      <trkpt lat="49.80817" lon="4.7266">
        <ele>312</ele>
        <time>2022-05-17T13:08:35.562Z</time>
      </trkpt>
      <trkpt lat="49.8082" lon="4.72655">
        <ele>313</ele>
        <time>2022-05-17T13:08:36.528Z</time>
      </trkpt>
      <trkpt lat="49.8082" lon="4.72655">
        <ele>313</ele>
        <time>2022-05-17T13:08:37.560Z</time>
      </trkpt>
      <trkpt lat="49.80824" lon="4.72647">
        <ele>313</ele>
        <time>2022-05-17T13:08:38.541Z</time>
      </trkpt>
      <trkpt lat="49.80824" lon="4.72647">
        <ele>313</ele>
        <time>2022-05-17T13:08:39.525Z</time>
      </trkpt>
      <trkpt lat="49.80827" lon="4.7264">
        <ele>313</ele>
        <time>2022-05-17T13:08:40.563Z</time>
      </trkpt>
      <trkpt lat="49.80829" lon="4.72638">
        <ele>314</ele>
        <time>2022-05-17T13:08:41.530Z</time>
      </trkpt>
      <trkpt lat="49.80829" lon="4.72638">
        <ele>314</ele>
        <time>2022-05-17T13:08:42.558Z</time>
      </trkpt>
      <trkpt lat="49.80831" lon="4.72633">
        <ele>314</ele>
        <time>2022-05-17T13:08:43.547Z</time>
      </trkpt>
      <trkpt lat="49.80831" lon="4.72633">
        <ele>314</ele>
        <time>2022-05-17T13:08:44.563Z</time>
      </trkpt>
      <trkpt lat="49.80832" lon="4.72629">
        <ele>314</ele>
        <time>2022-05-17T13:08:45.561Z</time>
      </trkpt>
      <trkpt lat="49.80832" lon="4.72628">
        <ele>314</ele>
        <time>2022-05-17T13:08:46.541Z</time>
      </trkpt>
      <trkpt lat="49.80833" lon="4.72626">
        <ele>314</ele>
        <time>2022-05-17T13:08:47.524Z</time>
      </trkpt>
      <trkpt lat="49.80833" lon="4.72626">
        <ele>314</ele>
        <time>2022-05-17T13:08:48.559Z</time>
      </trkpt>
      <trkpt lat="49.80835" lon="4.72623">
        <ele>315</ele>
        <time>2022-05-17T13:08:49.539Z</time>
      </trkpt>
      <trkpt lat="49.80835" lon="4.72623">
        <ele>315</ele>
        <time>2022-05-17T13:08:50.563Z</time>
      </trkpt>
      <trkpt lat="49.80837" lon="4.72618">
        <ele>315</ele>
        <time>2022-05-17T13:08:51.524Z</time>
      </trkpt>
      <trkpt lat="49.80838" lon="4.72616">
        <ele>315</ele>
        <time>2022-05-17T13:08:52.530Z</time>
      </trkpt>
      <trkpt lat="49.80838" lon="4.72616">
        <ele>315</ele>
        <time>2022-05-17T13:08:53.562Z</time>
      </trkpt>
      <trkpt lat="49.80841" lon="4.72612">
        <ele>315</ele>
        <time>2022-05-17T13:08:54.537Z</time>
      </trkpt>
      <trkpt lat="49.80841" lon="4.72612">
        <ele>315</ele>
        <time>2022-05-17T13:08:55.560Z</time>
      </trkpt>
      <trkpt lat="49.80843" lon="4.72607">
        <ele>316</ele>
        <time>2022-05-17T13:08:56.543Z</time>
      </trkpt>
      <trkpt lat="49.80845" lon="4.72604">
        <ele>316</ele>
        <time>2022-05-17T13:08:57.527Z</time>
      </trkpt>
      <trkpt lat="49.80845" lon="4.72604">
        <ele>316</ele>
        <time>2022-05-17T13:08:58.562Z</time>
      </trkpt>
      <trkpt lat="49.80848" lon="4.72599">
        <ele>316</ele>
        <time>2022-05-17T13:08:59.526Z</time>
      </trkpt>
      <trkpt lat="49.80848" lon="4.72599">
        <ele>316</ele>
        <time>2022-05-17T13:09:00.542Z</time>
      </trkpt>
      <trkpt lat="49.80851" lon="4.72594">
        <ele>317</ele>
        <time>2022-05-17T13:09:01.527Z</time>
      </trkpt>
      <trkpt lat="49.80853" lon="4.72592">
        <ele>317</ele>
        <time>2022-05-17T13:09:02.524Z</time>
      </trkpt>
      <trkpt lat="49.80853" lon="4.72592">
        <ele>317</ele>
        <time>2022-05-17T13:09:03.562Z</time>
      </trkpt>
      <trkpt lat="49.80856" lon="4.72588">
        <ele>317</ele>
        <time>2022-05-17T13:09:04.527Z</time>
      </trkpt>
      <trkpt lat="49.80856" lon="4.72588">
        <ele>317</ele>
        <time>2022-05-17T13:09:05.558Z</time>
      </trkpt>
      <trkpt lat="49.8086" lon="4.72583">
        <ele>318</ele>
        <time>2022-05-17T13:09:06.547Z</time>
      </trkpt>
      <trkpt lat="49.8086" lon="4.72583">
        <ele>318</ele>
        <time>2022-05-17T13:09:07.531Z</time>
      </trkpt>
      <trkpt lat="49.80863" lon="4.72577">
        <ele>318</ele>
        <time>2022-05-17T13:09:08.527Z</time>
      </trkpt>
      <trkpt lat="49.80863" lon="4.72577">
        <ele>318</ele>
        <time>2022-05-17T13:09:09.525Z</time>
      </trkpt>
      <trkpt lat="49.80868" lon="4.72568">
        <ele>318</ele>
        <time>2022-05-17T13:09:10.563Z</time>
      </trkpt>
      <trkpt lat="49.80868" lon="4.72568">
        <ele>318</ele>
        <time>2022-05-17T13:09:11.558Z</time>
      </trkpt>
      <trkpt lat="49.80871" lon="4.72564">
        <ele>319</ele>
        <time>2022-05-17T13:09:12.547Z</time>
      </trkpt>
      <trkpt lat="49.80873" lon="4.72561">
        <ele>319</ele>
        <time>2022-05-17T13:09:13.532Z</time>
      </trkpt>
      <trkpt lat="49.80873" lon="4.72561">
        <ele>319</ele>
        <time>2022-05-17T13:09:14.558Z</time>
      </trkpt>
      <trkpt lat="49.80876" lon="4.72556">
        <ele>320</ele>
        <time>2022-05-17T13:09:15.548Z</time>
      </trkpt>
      <trkpt lat="49.80876" lon="4.72556">
        <ele>320</ele>
        <time>2022-05-17T13:09:16.563Z</time>
      </trkpt>
      <trkpt lat="49.80879" lon="4.72551">
        <ele>320</ele>
        <time>2022-05-17T13:09:17.527Z</time>
      </trkpt>
      <trkpt lat="49.8088" lon="4.72549">
        <ele>320</ele>
        <time>2022-05-17T13:09:18.525Z</time>
      </trkpt>
      <trkpt lat="49.80882" lon="4.72547">
        <ele>320</ele>
        <time>2022-05-17T13:09:19.538Z</time>
      </trkpt>
      <trkpt lat="49.80882" lon="4.72547">
        <ele>320</ele>
        <time>2022-05-17T13:09:20.526Z</time>
      </trkpt>
      <trkpt lat="49.80884" lon="4.72542">
        <ele>320</ele>
        <time>2022-05-17T13:09:21.526Z</time>
      </trkpt>
      <trkpt lat="49.80885" lon="4.7254">
        <ele>320</ele>
        <time>2022-05-17T13:09:22.562Z</time>
      </trkpt>
      <trkpt lat="49.80886" lon="4.72538">
        <ele>320</ele>
        <time>2022-05-17T13:09:23.526Z</time>
      </trkpt>
      <trkpt lat="49.80886" lon="4.72538">
        <ele>320</ele>
        <time>2022-05-17T13:09:24.526Z</time>
      </trkpt>
      <trkpt lat="49.8089" lon="4.72533">
        <ele>321</ele>
        <time>2022-05-17T13:09:25.526Z</time>
      </trkpt>
      <trkpt lat="49.8089" lon="4.72533">
        <ele>321</ele>
        <time>2022-05-17T13:09:26.559Z</time>
      </trkpt>
      <trkpt lat="49.80893" lon="4.72529">
        <ele>321</ele>
        <time>2022-05-17T13:09:27.539Z</time>
      </trkpt>
      <trkpt lat="49.80893" lon="4.72529">
        <ele>321</ele>
        <time>2022-05-17T13:09:28.560Z</time>
      </trkpt>
      <trkpt lat="49.80896" lon="4.72525">
        <ele>321</ele>
        <time>2022-05-17T13:09:29.563Z</time>
      </trkpt>
      <trkpt lat="49.80896" lon="4.72523">
        <ele>321</ele>
        <time>2022-05-17T13:09:30.529Z</time>
      </trkpt>
      <trkpt lat="49.80898" lon="4.72521">
        <ele>320</ele>
        <time>2022-05-17T13:09:31.539Z</time>
      </trkpt>
      <trkpt lat="49.80898" lon="4.72521">
        <ele>320</ele>
        <time>2022-05-17T13:09:32.557Z</time>
      </trkpt>
      <trkpt lat="49.80899" lon="4.72518">
        <ele>320</ele>
        <time>2022-05-17T13:09:33.538Z</time>
      </trkpt>
      <trkpt lat="49.80899" lon="4.72518">
        <ele>320</ele>
        <time>2022-05-17T13:09:34.558Z</time>
      </trkpt>
      <trkpt lat="49.80901" lon="4.72514">
        <ele>320</ele>
        <time>2022-05-17T13:09:35.537Z</time>
      </trkpt>
      <trkpt lat="49.80902" lon="4.72512">
        <ele>320</ele>
        <time>2022-05-17T13:09:36.524Z</time>
      </trkpt>
      <trkpt lat="49.80903" lon="4.7251">
        <ele>320</ele>
        <time>2022-05-17T13:09:37.548Z</time>
      </trkpt>
      <trkpt lat="49.80903" lon="4.7251">
        <ele>320</ele>
        <time>2022-05-17T13:09:38.524Z</time>
      </trkpt>
      <trkpt lat="49.80905" lon="4.72507">
        <ele>320</ele>
        <time>2022-05-17T13:09:39.525Z</time>
      </trkpt>
      <trkpt lat="49.80905" lon="4.72507">
        <ele>320</ele>
        <time>2022-05-17T13:09:40.561Z</time>
      </trkpt>
      <trkpt lat="49.80909" lon="4.72499">
        <ele>320</ele>
        <time>2022-05-17T13:09:41.538Z</time>
      </trkpt>
      <trkpt lat="49.80909" lon="4.72499">
        <ele>320</ele>
        <time>2022-05-17T13:09:42.558Z</time>
      </trkpt>
      <trkpt lat="49.80912" lon="4.72495">
        <ele>321</ele>
        <time>2022-05-17T13:09:43.547Z</time>
      </trkpt>
      <trkpt lat="49.80912" lon="4.72495">
        <ele>321</ele>
        <time>2022-05-17T13:09:44.562Z</time>
      </trkpt>
      <trkpt lat="49.80915" lon="4.7249">
        <ele>321</ele>
        <time>2022-05-17T13:09:45.557Z</time>
      </trkpt>
      <trkpt lat="49.80916" lon="4.72488">
        <ele>321</ele>
        <time>2022-05-17T13:09:46.547Z</time>
      </trkpt>
      <trkpt lat="49.80916" lon="4.72488">
        <ele>321</ele>
        <time>2022-05-17T13:09:47.561Z</time>
      </trkpt>
      <trkpt lat="49.80919" lon="4.72486">
        <ele>320</ele>
        <time>2022-05-17T13:09:48.547Z</time>
      </trkpt>
      <trkpt lat="49.80919" lon="4.72486">
        <ele>320</ele>
        <time>2022-05-17T13:09:49.525Z</time>
      </trkpt>
      <trkpt lat="49.80923" lon="4.72482">
        <ele>319</ele>
        <time>2022-05-17T13:09:50.526Z</time>
      </trkpt>
      <trkpt lat="49.80925" lon="4.72481">
        <ele>320</ele>
        <time>2022-05-17T13:09:51.524Z</time>
      </trkpt>
      <trkpt lat="49.80925" lon="4.72481">
        <ele>320</ele>
        <time>2022-05-17T13:09:52.559Z</time>
      </trkpt>
      <trkpt lat="49.80927" lon="4.72478">
        <ele>319</ele>
        <time>2022-05-17T13:09:53.538Z</time>
      </trkpt>
      <trkpt lat="49.80927" lon="4.72478">
        <ele>319</ele>
        <time>2022-05-17T13:09:54.560Z</time>
      </trkpt>
      <trkpt lat="49.8093" lon="4.72474">
        <ele>319</ele>
        <time>2022-05-17T13:09:55.547Z</time>
      </trkpt>
      <trkpt lat="49.8093" lon="4.72474">
        <ele>319</ele>
        <time>2022-05-17T13:09:56.562Z</time>
      </trkpt>
      <trkpt lat="49.80934" lon="4.7247">
        <ele>319</ele>
        <time>2022-05-17T13:09:57.528Z</time>
      </trkpt>
      <trkpt lat="49.80935" lon="4.72469">
        <ele>319</ele>
        <time>2022-05-17T13:09:58.526Z</time>
      </trkpt>
      <trkpt lat="49.80935" lon="4.72469">
        <ele>319</ele>
        <time>2022-05-17T13:09:59.562Z</time>
      </trkpt>
      <trkpt lat="49.80939" lon="4.72467">
        <ele>319</ele>
        <time>2022-05-17T13:10:00.550Z</time>
      </trkpt>
      <trkpt lat="49.80939" lon="4.72467">
        <ele>319</ele>
        <time>2022-05-17T13:10:01.557Z</time>
      </trkpt>
      <trkpt lat="49.80942" lon="4.72465">
        <ele>319</ele>
        <time>2022-05-17T13:10:02.562Z</time>
      </trkpt>
      <trkpt lat="49.80944" lon="4.72464">
        <ele>318</ele>
        <time>2022-05-17T13:10:03.529Z</time>
      </trkpt>
      <trkpt lat="49.80944" lon="4.72464">
        <ele>318</ele>
        <time>2022-05-17T13:10:04.561Z</time>
      </trkpt>
      <trkpt lat="49.80947" lon="4.72462">
        <ele>318</ele>
        <time>2022-05-17T13:10:05.546Z</time>
      </trkpt>
      <trkpt lat="49.80949" lon="4.72462">
        <ele>318</ele>
        <time>2022-05-17T13:10:06.524Z</time>
      </trkpt>
      <trkpt lat="49.80951" lon="4.7246">
        <ele>318</ele>
        <time>2022-05-17T13:10:07.536Z</time>
      </trkpt>
      <trkpt lat="49.80951" lon="4.7246">
        <ele>318</ele>
        <time>2022-05-17T13:10:08.562Z</time>
      </trkpt>
      <trkpt lat="49.80954" lon="4.72459">
        <ele>318</ele>
        <time>2022-05-17T13:10:09.548Z</time>
      </trkpt>
      <trkpt lat="49.80954" lon="4.72459">
        <ele>318</ele>
        <time>2022-05-17T13:10:10.563Z</time>
      </trkpt>
      <trkpt lat="49.80959" lon="4.72455">
        <ele>317</ele>
        <time>2022-05-17T13:10:11.563Z</time>
      </trkpt>
      <trkpt lat="49.80959" lon="4.72455">
        <ele>317</ele>
        <time>2022-05-17T13:10:12.560Z</time>
      </trkpt>
      <trkpt lat="49.80964" lon="4.72451">
        <ele>317</ele>
        <time>2022-05-17T13:10:13.536Z</time>
      </trkpt>
      <trkpt lat="49.80964" lon="4.72451">
        <ele>317</ele>
        <time>2022-05-17T13:10:14.548Z</time>
      </trkpt>
      <trkpt lat="49.80968" lon="4.72449">
        <ele>316</ele>
        <time>2022-05-17T13:10:15.555Z</time>
      </trkpt>
      <trkpt lat="49.80968" lon="4.72449">
        <ele>316</ele>
        <time>2022-05-17T13:10:16.560Z</time>
      </trkpt>
      <trkpt lat="49.80972" lon="4.72446">
        <ele>316</ele>
        <time>2022-05-17T13:10:17.537Z</time>
      </trkpt>
      <trkpt lat="49.80973" lon="4.72446">
        <ele>316</ele>
        <time>2022-05-17T13:10:18.530Z</time>
      </trkpt>
      <trkpt lat="49.80975" lon="4.72446">
        <ele>316</ele>
        <time>2022-05-17T13:10:19.527Z</time>
      </trkpt>
      <trkpt lat="49.80975" lon="4.72446">
        <ele>316</ele>
        <time>2022-05-17T13:10:20.561Z</time>
      </trkpt>
      <trkpt lat="49.80978" lon="4.72443">
        <ele>315</ele>
        <time>2022-05-17T13:10:21.526Z</time>
      </trkpt>
      <trkpt lat="49.80978" lon="4.72443">
        <ele>315</ele>
        <time>2022-05-17T13:10:22.537Z</time>
      </trkpt>
      <trkpt lat="49.8098" lon="4.72441">
        <ele>315</ele>
        <time>2022-05-17T13:10:23.524Z</time>
      </trkpt>
      <trkpt lat="49.80981" lon="4.7244">
        <ele>315</ele>
        <time>2022-05-17T13:10:24.524Z</time>
      </trkpt>
      <trkpt lat="49.80982" lon="4.72439">
        <ele>315</ele>
        <time>2022-05-17T13:10:25.529Z</time>
      </trkpt>
      <trkpt lat="49.80982" lon="4.72439">
        <ele>315</ele>
        <time>2022-05-17T13:10:26.563Z</time>
      </trkpt>
      <trkpt lat="49.80986" lon="4.72437">
        <ele>315</ele>
        <time>2022-05-17T13:10:27.526Z</time>
      </trkpt>
      <trkpt lat="49.80986" lon="4.72437">
        <ele>315</ele>
        <time>2022-05-17T13:10:28.561Z</time>
      </trkpt>
      <trkpt lat="49.80989" lon="4.72437">
        <ele>315</ele>
        <time>2022-05-17T13:10:29.538Z</time>
      </trkpt>
      <trkpt lat="49.80989" lon="4.72437">
        <ele>315</ele>
        <time>2022-05-17T13:10:30.524Z</time>
      </trkpt>
      <trkpt lat="49.80993" lon="4.72436">
        <ele>314</ele>
        <time>2022-05-17T13:10:31.527Z</time>
      </trkpt>
      <trkpt lat="49.80993" lon="4.72436">
        <ele>314</ele>
        <time>2022-05-17T13:10:32.563Z</time>
      </trkpt>
      <trkpt lat="49.80997" lon="4.72435">
        <ele>314</ele>
        <time>2022-05-17T13:10:33.524Z</time>
      </trkpt>
      <trkpt lat="49.80997" lon="4.72435">
        <ele>314</ele>
        <time>2022-05-17T13:10:34.562Z</time>
      </trkpt>
      <trkpt lat="49.81" lon="4.72435">
        <ele>314</ele>
        <time>2022-05-17T13:10:35.529Z</time>
      </trkpt>
      <trkpt lat="49.81002" lon="4.72434">
        <ele>314</ele>
        <time>2022-05-17T13:10:36.528Z</time>
      </trkpt>
      <trkpt lat="49.81004" lon="4.72434">
        <ele>314</ele>
        <time>2022-05-17T13:10:37.527Z</time>
      </trkpt>
      <trkpt lat="49.81004" lon="4.72434">
        <ele>314</ele>
        <time>2022-05-17T13:10:38.559Z</time>
      </trkpt>
      <trkpt lat="49.81007" lon="4.72432">
        <ele>314</ele>
        <time>2022-05-17T13:10:39.537Z</time>
      </trkpt>
      <trkpt lat="49.81008" lon="4.72431">
        <ele>314</ele>
        <time>2022-05-17T13:10:40.537Z</time>
      </trkpt>
      <trkpt lat="49.81008" lon="4.72431">
        <ele>314</ele>
        <time>2022-05-17T13:10:41.555Z</time>
      </trkpt>
      <trkpt lat="49.81012" lon="4.72427">
        <ele>313</ele>
        <time>2022-05-17T13:10:42.547Z</time>
      </trkpt>
      <trkpt lat="49.81014" lon="4.72425">
        <ele>313</ele>
        <time>2022-05-17T13:10:43.527Z</time>
      </trkpt>
      <trkpt lat="49.81014" lon="4.72425">
        <ele>313</ele>
        <time>2022-05-17T13:10:44.561Z</time>
      </trkpt>
      <trkpt lat="49.81017" lon="4.72423">
        <ele>312</ele>
        <time>2022-05-17T13:10:45.539Z</time>
      </trkpt>
      <trkpt lat="49.81017" lon="4.72423">
        <ele>312</ele>
        <time>2022-05-17T13:10:46.558Z</time>
      </trkpt>
      <trkpt lat="49.8102" lon="4.7242">
        <ele>312</ele>
        <time>2022-05-17T13:10:47.552Z</time>
      </trkpt>
      <trkpt lat="49.8102" lon="4.7242">
        <ele>312</ele>
        <time>2022-05-17T13:10:48.527Z</time>
      </trkpt>
      <trkpt lat="49.81023" lon="4.72419">
        <ele>312</ele>
        <time>2022-05-17T13:10:49.527Z</time>
      </trkpt>
      <trkpt lat="49.81023" lon="4.72419">
        <ele>312</ele>
        <time>2022-05-17T13:10:50.562Z</time>
      </trkpt>
      <trkpt lat="49.81025" lon="4.72418">
        <ele>312</ele>
        <time>2022-05-17T13:10:51.526Z</time>
      </trkpt>
      <trkpt lat="49.81025" lon="4.72418">
        <ele>312</ele>
        <time>2022-05-17T13:10:52.541Z</time>
      </trkpt>
      <trkpt lat="49.81028" lon="4.72418">
        <ele>311</ele>
        <time>2022-05-17T13:10:53.529Z</time>
      </trkpt>
      <trkpt lat="49.81028" lon="4.72418">
        <ele>311</ele>
        <time>2022-05-17T13:10:54.561Z</time>
      </trkpt>
      <trkpt lat="49.81031" lon="4.72419">
        <ele>311</ele>
        <time>2022-05-17T13:10:55.539Z</time>
      </trkpt>
      <trkpt lat="49.81031" lon="4.72419">
        <ele>311</ele>
        <time>2022-05-17T13:10:56.561Z</time>
      </trkpt>
      <trkpt lat="49.81034" lon="4.72419">
        <ele>310</ele>
        <time>2022-05-17T13:10:57.539Z</time>
      </trkpt>
      <trkpt lat="49.81035" lon="4.72419">
        <ele>310</ele>
        <time>2022-05-17T13:10:58.529Z</time>
      </trkpt>
      <trkpt lat="49.81035" lon="4.72419">
        <ele>310</ele>
        <time>2022-05-17T13:10:59.562Z</time>
      </trkpt>
      <trkpt lat="49.81038" lon="4.72418">
        <ele>310</ele>
        <time>2022-05-17T13:11:00.537Z</time>
      </trkpt>
      <trkpt lat="49.8104" lon="4.72418">
        <ele>310</ele>
        <time>2022-05-17T13:11:01.527Z</time>
      </trkpt>
      <trkpt lat="49.81042" lon="4.72417">
        <ele>310</ele>
        <time>2022-05-17T13:11:02.524Z</time>
      </trkpt>
      <trkpt lat="49.81042" lon="4.72417">
        <ele>310</ele>
        <time>2022-05-17T13:11:03.563Z</time>
      </trkpt>
      <trkpt lat="49.81044" lon="4.72418">
        <ele>309</ele>
        <time>2022-05-17T13:11:04.524Z</time>
      </trkpt>
      <trkpt lat="49.81046" lon="4.72418">
        <ele>309</ele>
        <time>2022-05-17T13:11:05.529Z</time>
      </trkpt>
      <trkpt lat="49.81046" lon="4.72418">
        <ele>309</ele>
        <time>2022-05-17T13:11:06.559Z</time>
      </trkpt>
      <trkpt lat="49.81048" lon="4.72417">
        <ele>310</ele>
        <time>2022-05-17T13:11:07.543Z</time>
      </trkpt>
      <trkpt lat="49.81048" lon="4.72417">
        <ele>310</ele>
        <time>2022-05-17T13:11:08.559Z</time>
      </trkpt>
      <trkpt lat="49.81051" lon="4.72417">
        <ele>310</ele>
        <time>2022-05-17T13:11:09.537Z</time>
      </trkpt>
      <trkpt lat="49.81053" lon="4.72417">
        <ele>310</ele>
        <time>2022-05-17T13:11:10.524Z</time>
      </trkpt>
      <trkpt lat="49.81053" lon="4.72417">
        <ele>310</ele>
        <time>2022-05-17T13:11:11.561Z</time>
      </trkpt>
      <trkpt lat="49.81057" lon="4.72416">
        <ele>310</ele>
        <time>2022-05-17T13:11:12.547Z</time>
      </trkpt>
      <trkpt lat="49.8106" lon="4.72415">
        <ele>309</ele>
        <time>2022-05-17T13:11:13.528Z</time>
      </trkpt>
      <trkpt lat="49.8106" lon="4.72415">
        <ele>309</ele>
        <time>2022-05-17T13:11:14.562Z</time>
      </trkpt>
      <trkpt lat="49.81066" lon="4.72413">
        <ele>309</ele>
        <time>2022-05-17T13:11:15.540Z</time>
      </trkpt>
      <trkpt lat="49.81066" lon="4.72413">
        <ele>309</ele>
        <time>2022-05-17T13:11:16.558Z</time>
      </trkpt>
      <trkpt lat="49.81069" lon="4.72412">
        <ele>309</ele>
        <time>2022-05-17T13:11:17.542Z</time>
      </trkpt>
      <trkpt lat="49.81069" lon="4.72412">
        <ele>309</ele>
        <time>2022-05-17T13:11:18.559Z</time>
      </trkpt>
      <trkpt lat="49.81073" lon="4.7241">
        <ele>309</ele>
        <time>2022-05-17T13:11:19.547Z</time>
      </trkpt>
      <trkpt lat="49.81073" lon="4.7241">
        <ele>309</ele>
        <time>2022-05-17T13:11:20.563Z</time>
      </trkpt>
      <trkpt lat="49.81076" lon="4.72408">
        <ele>310</ele>
        <time>2022-05-17T13:11:21.526Z</time>
      </trkpt>
      <trkpt lat="49.81077" lon="4.72408">
        <ele>310</ele>
        <time>2022-05-17T13:11:22.529Z</time>
      </trkpt>
      <trkpt lat="49.81078" lon="4.72407">
        <ele>310</ele>
        <time>2022-05-17T13:11:23.526Z</time>
      </trkpt>
      <trkpt lat="49.81078" lon="4.72407">
        <ele>310</ele>
        <time>2022-05-17T13:11:24.561Z</time>
      </trkpt>
      <trkpt lat="49.81082" lon="4.72404">
        <ele>310</ele>
        <time>2022-05-17T13:11:25.542Z</time>
      </trkpt>
      <trkpt lat="49.81082" lon="4.72404">
        <ele>310</ele>
        <time>2022-05-17T13:11:26.560Z</time>
      </trkpt>
      <trkpt lat="49.81085" lon="4.72402">
        <ele>310</ele>
        <time>2022-05-17T13:11:27.540Z</time>
      </trkpt>
      <trkpt lat="49.81085" lon="4.72402">
        <ele>310</ele>
        <time>2022-05-17T13:11:28.561Z</time>
      </trkpt>
      <trkpt lat="49.81089" lon="4.724">
        <ele>311</ele>
        <time>2022-05-17T13:11:29.547Z</time>
      </trkpt>
      <trkpt lat="49.81089" lon="4.724">
        <ele>311</ele>
        <time>2022-05-17T13:11:30.564Z</time>
      </trkpt>
      <trkpt lat="49.81093" lon="4.72397">
        <ele>311</ele>
        <time>2022-05-17T13:11:31.547Z</time>
      </trkpt>
      <trkpt lat="49.81093" lon="4.72397">
        <ele>311</ele>
        <time>2022-05-17T13:11:32.562Z</time>
      </trkpt>
      <trkpt lat="49.81096" lon="4.72395">
        <ele>311</ele>
        <time>2022-05-17T13:11:33.532Z</time>
      </trkpt>
      <trkpt lat="49.81096" lon="4.72395">
        <ele>311</ele>
        <time>2022-05-17T13:11:34.538Z</time>
      </trkpt>
      <trkpt lat="49.81099" lon="4.72393">
        <ele>312</ele>
        <time>2022-05-17T13:11:35.555Z</time>
      </trkpt>
      <trkpt lat="49.81099" lon="4.72393">
        <ele>312</ele>
        <time>2022-05-17T13:11:36.561Z</time>
      </trkpt>
      <trkpt lat="49.81102" lon="4.72393">
        <ele>312</ele>
        <time>2022-05-17T13:11:37.544Z</time>
      </trkpt>
      <trkpt lat="49.81102" lon="4.72393">
        <ele>312</ele>
        <time>2022-05-17T13:11:38.563Z</time>
      </trkpt>
      <trkpt lat="49.81106" lon="4.72391">
        <ele>312</ele>
        <time>2022-05-17T13:11:39.526Z</time>
      </trkpt>
      <trkpt lat="49.81106" lon="4.72391">
        <ele>312</ele>
        <time>2022-05-17T13:11:40.527Z</time>
      </trkpt>
      <trkpt lat="49.81109" lon="4.7239">
        <ele>312</ele>
        <time>2022-05-17T13:11:41.530Z</time>
      </trkpt>
      <trkpt lat="49.81111" lon="4.72389">
        <ele>312</ele>
        <time>2022-05-17T13:11:42.561Z</time>
      </trkpt>
      <trkpt lat="49.81111" lon="4.72389">
        <ele>312</ele>
        <time>2022-05-17T13:11:43.537Z</time>
      </trkpt>
      <trkpt lat="49.81116" lon="4.72387">
        <ele>312</ele>
        <time>2022-05-17T13:11:44.529Z</time>
      </trkpt>
      <trkpt lat="49.81116" lon="4.72387">
        <ele>312</ele>
        <time>2022-05-17T13:11:45.560Z</time>
      </trkpt>
      <trkpt lat="49.81119" lon="4.72385">
        <ele>313</ele>
        <time>2022-05-17T13:11:46.540Z</time>
      </trkpt>
      <trkpt lat="49.81119" lon="4.72385">
        <ele>313</ele>
        <time>2022-05-17T13:11:47.562Z</time>
      </trkpt>
      <trkpt lat="49.81123" lon="4.72383">
        <ele>313</ele>
        <time>2022-05-17T13:11:48.561Z</time>
      </trkpt>
      <trkpt lat="49.81125" lon="4.72383">
        <ele>313</ele>
        <time>2022-05-17T13:11:49.548Z</time>
      </trkpt>
      <trkpt lat="49.81125" lon="4.72383">
        <ele>313</ele>
        <time>2022-05-17T13:11:50.530Z</time>
      </trkpt>
      <trkpt lat="49.81129" lon="4.72381">
        <ele>314</ele>
        <time>2022-05-17T13:11:51.524Z</time>
      </trkpt>
      <trkpt lat="49.81131" lon="4.7238">
        <ele>314</ele>
        <time>2022-05-17T13:11:52.563Z</time>
      </trkpt>
      <trkpt lat="49.81131" lon="4.7238">
        <ele>314</ele>
        <time>2022-05-17T13:11:53.560Z</time>
      </trkpt>
      <trkpt lat="49.81135" lon="4.72379">
        <ele>315</ele>
        <time>2022-05-17T13:11:54.540Z</time>
      </trkpt>
      <trkpt lat="49.81137" lon="4.72379">
        <ele>315</ele>
        <time>2022-05-17T13:11:55.532Z</time>
      </trkpt>
      <trkpt lat="49.81137" lon="4.72379">
        <ele>315</ele>
        <time>2022-05-17T13:11:56.562Z</time>
      </trkpt>
      <trkpt lat="49.81139" lon="4.72378">
        <ele>315</ele>
        <time>2022-05-17T13:11:57.547Z</time>
      </trkpt>
      <trkpt lat="49.81139" lon="4.72378">
        <ele>315</ele>
        <time>2022-05-17T13:11:58.546Z</time>
      </trkpt>
      <trkpt lat="49.81141" lon="4.72377">
        <ele>316</ele>
        <time>2022-05-17T13:11:59.525Z</time>
      </trkpt>
      <trkpt lat="49.81143" lon="4.72377">
        <ele>316</ele>
        <time>2022-05-17T13:12:00.548Z</time>
      </trkpt>
      <trkpt lat="49.81145" lon="4.72377">
        <ele>316</ele>
        <time>2022-05-17T13:12:01.528Z</time>
      </trkpt>
      <trkpt lat="49.81145" lon="4.72377">
        <ele>316</ele>
        <time>2022-05-17T13:12:02.562Z</time>
      </trkpt>
      <trkpt lat="49.81149" lon="4.72375">
        <ele>317</ele>
        <time>2022-05-17T13:12:03.544Z</time>
      </trkpt>
      <trkpt lat="49.81149" lon="4.72375">
        <ele>317</ele>
        <time>2022-05-17T13:12:04.561Z</time>
      </trkpt>
      <trkpt lat="49.81152" lon="4.72374">
        <ele>317</ele>
        <time>2022-05-17T13:12:05.541Z</time>
      </trkpt>
      <trkpt lat="49.81154" lon="4.72373">
        <ele>317</ele>
        <time>2022-05-17T13:12:06.526Z</time>
      </trkpt>
      <trkpt lat="49.81154" lon="4.72373">
        <ele>317</ele>
        <time>2022-05-17T13:12:07.527Z</time>
      </trkpt>
      <trkpt lat="49.81158" lon="4.72372">
        <ele>318</ele>
        <time>2022-05-17T13:12:08.533Z</time>
      </trkpt>
      <trkpt lat="49.8116" lon="4.72372">
        <ele>318</ele>
        <time>2022-05-17T13:12:09.547Z</time>
      </trkpt>
      <trkpt lat="49.8116" lon="4.72372">
        <ele>318</ele>
        <time>2022-05-17T13:12:10.552Z</time>
      </trkpt>
      <trkpt lat="49.81164" lon="4.72371">
        <ele>319</ele>
        <time>2022-05-17T13:12:11.525Z</time>
      </trkpt>
      <trkpt lat="49.81166" lon="4.7237">
        <ele>319</ele>
        <time>2022-05-17T13:12:12.531Z</time>
      </trkpt>
      <trkpt lat="49.81167" lon="4.72369">
        <ele>319</ele>
        <time>2022-05-17T13:12:13.534Z</time>
      </trkpt>
      <trkpt lat="49.81167" lon="4.72369">
        <ele>319</ele>
        <time>2022-05-17T13:12:14.562Z</time>
      </trkpt>
      <trkpt lat="49.81171" lon="4.72367">
        <ele>320</ele>
        <time>2022-05-17T13:12:15.545Z</time>
      </trkpt>
      <trkpt lat="49.81171" lon="4.72367">
        <ele>320</ele>
        <time>2022-05-17T13:12:16.562Z</time>
      </trkpt>
      <trkpt lat="49.81175" lon="4.72363">
        <ele>321</ele>
        <time>2022-05-17T13:12:17.539Z</time>
      </trkpt>
      <trkpt lat="49.81175" lon="4.72363">
        <ele>321</ele>
        <time>2022-05-17T13:12:18.559Z</time>
      </trkpt>
      <trkpt lat="49.81178" lon="4.72361">
        <ele>321</ele>
        <time>2022-05-17T13:12:19.549Z</time>
      </trkpt>
      <trkpt lat="49.81178" lon="4.72361">
        <ele>321</ele>
        <time>2022-05-17T13:12:20.525Z</time>
      </trkpt>
      <trkpt lat="49.81181" lon="4.7236">
        <ele>322</ele>
        <time>2022-05-17T13:12:21.548Z</time>
      </trkpt>
      <trkpt lat="49.81181" lon="4.7236">
        <ele>322</ele>
        <time>2022-05-17T13:12:22.528Z</time>
      </trkpt>
      <trkpt lat="49.81184" lon="4.72358">
        <ele>323</ele>
        <time>2022-05-17T13:12:23.526Z</time>
      </trkpt>
      <trkpt lat="49.81187" lon="4.72358">
        <ele>323</ele>
        <time>2022-05-17T13:12:24.533Z</time>
      </trkpt>
      <trkpt lat="49.81189" lon="4.72357">
        <ele>323</ele>
        <time>2022-05-17T13:12:25.528Z</time>
      </trkpt>
      <trkpt lat="49.81189" lon="4.72357">
        <ele>323</ele>
        <time>2022-05-17T13:12:26.560Z</time>
      </trkpt>
      <trkpt lat="49.81192" lon="4.72355">
        <ele>324</ele>
        <time>2022-05-17T13:12:27.530Z</time>
      </trkpt>
      <trkpt lat="49.81192" lon="4.72355">
        <ele>324</ele>
        <time>2022-05-17T13:12:28.536Z</time>
      </trkpt>
      <trkpt lat="49.81195" lon="4.72354">
        <ele>324</ele>
        <time>2022-05-17T13:12:29.543Z</time>
      </trkpt>
      <trkpt lat="49.81195" lon="4.72354">
        <ele>324</ele>
        <time>2022-05-17T13:12:30.551Z</time>
      </trkpt>
      <trkpt lat="49.81198" lon="4.72353">
        <ele>324</ele>
        <time>2022-05-17T13:12:31.527Z</time>
      </trkpt>
      <trkpt lat="49.812" lon="4.72353">
        <ele>325</ele>
        <time>2022-05-17T13:12:32.561Z</time>
      </trkpt>
      <trkpt lat="49.812" lon="4.72353">
        <ele>325</ele>
        <time>2022-05-17T13:12:33.536Z</time>
      </trkpt>
      <trkpt lat="49.81204" lon="4.72353">
        <ele>325</ele>
        <time>2022-05-17T13:12:34.525Z</time>
      </trkpt>
      <trkpt lat="49.81204" lon="4.72353">
        <ele>325</ele>
        <time>2022-05-17T13:12:35.561Z</time>
      </trkpt>
      <trkpt lat="49.81209" lon="4.72354">
        <ele>325</ele>
        <time>2022-05-17T13:12:36.526Z</time>
      </trkpt>
      <trkpt lat="49.8121" lon="4.72355">
        <ele>325</ele>
        <time>2022-05-17T13:12:37.539Z</time>
      </trkpt>
      <trkpt lat="49.8121" lon="4.72355">
        <ele>325</ele>
        <time>2022-05-17T13:12:38.559Z</time>
      </trkpt>
      <trkpt lat="49.81215" lon="4.72355">
        <ele>325</ele>
        <time>2022-05-17T13:12:39.552Z</time>
      </trkpt>
      <trkpt lat="49.81215" lon="4.72355">
        <ele>325</ele>
        <time>2022-05-17T13:12:40.527Z</time>
      </trkpt>
      <trkpt lat="49.81218" lon="4.72353">
        <ele>325</ele>
        <time>2022-05-17T13:12:41.541Z</time>
      </trkpt>
      <trkpt lat="49.8122" lon="4.72353">
        <ele>324</ele>
        <time>2022-05-17T13:12:42.524Z</time>
      </trkpt>
      <trkpt lat="49.81222" lon="4.72353">
        <ele>324</ele>
        <time>2022-05-17T13:12:43.551Z</time>
      </trkpt>
      <trkpt lat="49.81222" lon="4.72353">
        <ele>324</ele>
        <time>2022-05-17T13:12:44.557Z</time>
      </trkpt>
      <trkpt lat="49.81226" lon="4.72352">
        <ele>325</ele>
        <time>2022-05-17T13:12:45.549Z</time>
      </trkpt>
      <trkpt lat="49.81226" lon="4.72352">
        <ele>325</ele>
        <time>2022-05-17T13:12:46.549Z</time>
      </trkpt>
      <trkpt lat="49.81232" lon="4.72351">
        <ele>325</ele>
        <time>2022-05-17T13:12:47.555Z</time>
      </trkpt>
      <trkpt lat="49.81234" lon="4.7235">
        <ele>325</ele>
        <time>2022-05-17T13:12:48.540Z</time>
      </trkpt>
      <trkpt lat="49.81237" lon="4.7235">
        <ele>326</ele>
        <time>2022-05-17T13:12:49.526Z</time>
      </trkpt>
      <trkpt lat="49.81237" lon="4.7235">
        <ele>326</ele>
        <time>2022-05-17T13:12:50.562Z</time>
      </trkpt>
      <trkpt lat="49.81243" lon="4.72352">
        <ele>325</ele>
        <time>2022-05-17T13:12:51.547Z</time>
      </trkpt>
      <trkpt lat="49.81243" lon="4.72352">
        <ele>325</ele>
        <time>2022-05-17T13:12:52.535Z</time>
      </trkpt>
      <trkpt lat="49.81249" lon="4.72352">
        <ele>325</ele>
        <time>2022-05-17T13:12:53.525Z</time>
      </trkpt>
      <trkpt lat="49.81251" lon="4.72352">
        <ele>325</ele>
        <time>2022-05-17T13:12:54.526Z</time>
      </trkpt>
      <trkpt lat="49.81253" lon="4.72351">
        <ele>325</ele>
        <time>2022-05-17T13:12:55.528Z</time>
      </trkpt>
      <trkpt lat="49.81253" lon="4.72351">
        <ele>325</ele>
        <time>2022-05-17T13:12:56.560Z</time>
      </trkpt>
      <trkpt lat="49.81258" lon="4.7235">
        <ele>325</ele>
        <time>2022-05-17T13:12:57.541Z</time>
      </trkpt>
      <trkpt lat="49.8126" lon="4.7235">
        <ele>325</ele>
        <time>2022-05-17T13:12:58.534Z</time>
      </trkpt>
      <trkpt lat="49.8126" lon="4.7235">
        <ele>325</ele>
        <time>2022-05-17T13:12:59.526Z</time>
      </trkpt>
      <trkpt lat="49.81267" lon="4.7235">
        <ele>325</ele>
        <time>2022-05-17T13:13:00.533Z</time>
      </trkpt>
      <trkpt lat="49.8127" lon="4.72352">
        <ele>325</ele>
        <time>2022-05-17T13:13:01.530Z</time>
      </trkpt>
      <trkpt lat="49.8127" lon="4.72352">
        <ele>325</ele>
        <time>2022-05-17T13:13:02.563Z</time>
      </trkpt>
      <trkpt lat="49.81276" lon="4.72355">
        <ele>324</ele>
        <time>2022-05-17T13:13:03.526Z</time>
      </trkpt>
      <trkpt lat="49.81276" lon="4.72355">
        <ele>324</ele>
        <time>2022-05-17T13:13:04.562Z</time>
      </trkpt>
      <trkpt lat="49.81283" lon="4.72356">
        <ele>324</ele>
        <time>2022-05-17T13:13:05.540Z</time>
      </trkpt>
      <trkpt lat="49.81283" lon="4.72356">
        <ele>324</ele>
        <time>2022-05-17T13:13:06.559Z</time>
      </trkpt>
      <trkpt lat="49.81288" lon="4.72356">
        <ele>323</ele>
        <time>2022-05-17T13:13:07.542Z</time>
      </trkpt>
      <trkpt lat="49.81288" lon="4.72356">
        <ele>323</ele>
        <time>2022-05-17T13:13:08.562Z</time>
      </trkpt>
      <trkpt lat="49.81294" lon="4.72358">
        <ele>322</ele>
        <time>2022-05-17T13:13:09.554Z</time>
      </trkpt>
      <trkpt lat="49.81297" lon="4.7236">
        <ele>322</ele>
        <time>2022-05-17T13:13:10.551Z</time>
      </trkpt>
      <trkpt lat="49.81297" lon="4.7236">
        <ele>322</ele>
        <time>2022-05-17T13:13:11.563Z</time>
      </trkpt>
      <trkpt lat="49.81304" lon="4.72364">
        <ele>321</ele>
        <time>2022-05-17T13:13:12.529Z</time>
      </trkpt>
      <trkpt lat="49.81308" lon="4.72364">
        <ele>321</ele>
        <time>2022-05-17T13:13:13.526Z</time>
      </trkpt>
      <trkpt lat="49.81308" lon="4.72364">
        <ele>321</ele>
        <time>2022-05-17T13:13:14.560Z</time>
      </trkpt>
      <trkpt lat="49.81314" lon="4.72362">
        <ele>321</ele>
        <time>2022-05-17T13:13:15.549Z</time>
      </trkpt>
      <trkpt lat="49.81317" lon="4.72361">
        <ele>321</ele>
        <time>2022-05-17T13:13:16.537Z</time>
      </trkpt>
      <trkpt lat="49.81317" lon="4.72361">
        <ele>321</ele>
        <time>2022-05-17T13:13:17.560Z</time>
      </trkpt>
      <trkpt lat="49.81323" lon="4.72359">
        <ele>321</ele>
        <time>2022-05-17T13:13:18.560Z</time>
      </trkpt>
      <trkpt lat="49.81325" lon="4.72358">
        <ele>321</ele>
        <time>2022-05-17T13:13:19.547Z</time>
      </trkpt>
      <trkpt lat="49.81325" lon="4.72358">
        <ele>321</ele>
        <time>2022-05-17T13:13:20.524Z</time>
      </trkpt>
      <trkpt lat="49.8133" lon="4.72357">
        <ele>321</ele>
        <time>2022-05-17T13:13:21.532Z</time>
      </trkpt>
      <trkpt lat="49.81332" lon="4.72357">
        <ele>322</ele>
        <time>2022-05-17T13:13:22.547Z</time>
      </trkpt>
      <trkpt lat="49.81334" lon="4.72357">
        <ele>322</ele>
        <time>2022-05-17T13:13:23.551Z</time>
      </trkpt>
      <trkpt lat="49.81335" lon="4.72357">
        <ele>323</ele>
        <time>2022-05-17T13:13:24.533Z</time>
      </trkpt>
      <trkpt lat="49.81336" lon="4.72357">
        <ele>323</ele>
        <time>2022-05-17T13:13:25.541Z</time>
      </trkpt>
      <trkpt lat="49.81336" lon="4.72357">
        <ele>323</ele>
        <time>2022-05-17T13:13:26.526Z</time>
      </trkpt>
      <trkpt lat="49.81338" lon="4.72357">
        <ele>324</ele>
        <time>2022-05-17T13:13:27.530Z</time>
      </trkpt>
      <trkpt lat="49.81338" lon="4.72357">
        <ele>324</ele>
        <time>2022-05-17T13:13:28.525Z</time>
      </trkpt>
      <trkpt lat="49.81341" lon="4.72357">
        <ele>324</ele>
        <time>2022-05-17T13:13:29.536Z</time>
      </trkpt>
      <trkpt lat="49.81341" lon="4.72357">
        <ele>324</ele>
        <time>2022-05-17T13:13:30.531Z</time>
      </trkpt>
      <trkpt lat="49.81343" lon="4.72355">
        <ele>325</ele>
        <time>2022-05-17T13:13:31.530Z</time>
      </trkpt>
      <trkpt lat="49.81344" lon="4.72352">
        <ele>324</ele>
        <time>2022-05-17T13:13:32.541Z</time>
      </trkpt>
      <trkpt lat="49.81344" lon="4.72352">
        <ele>324</ele>
        <time>2022-05-17T13:13:33.526Z</time>
      </trkpt>
      <trkpt lat="49.81346" lon="4.72348">
        <ele>324</ele>
        <time>2022-05-17T13:13:34.532Z</time>
      </trkpt>
      <trkpt lat="49.81347" lon="4.72346">
        <ele>323</ele>
        <time>2022-05-17T13:13:35.531Z</time>
      </trkpt>
      <trkpt lat="49.81348" lon="4.72344">
        <ele>323</ele>
        <time>2022-05-17T13:13:36.535Z</time>
      </trkpt>
      <trkpt lat="49.81349" lon="4.72343">
        <ele>323</ele>
        <time>2022-05-17T13:13:37.534Z</time>
      </trkpt>
      <trkpt lat="49.81349" lon="4.72343">
        <ele>323</ele>
        <time>2022-05-17T13:13:38.526Z</time>
      </trkpt>
      <trkpt lat="49.81351" lon="4.72341">
        <ele>323</ele>
        <time>2022-05-17T13:13:39.535Z</time>
      </trkpt>
      <trkpt lat="49.81352" lon="4.7234">
        <ele>323</ele>
        <time>2022-05-17T13:13:40.534Z</time>
      </trkpt>
      <trkpt lat="49.81352" lon="4.7234">
        <ele>323</ele>
        <time>2022-05-17T13:13:41.529Z</time>
      </trkpt>
      <trkpt lat="49.81353" lon="4.72339">
        <ele>322</ele>
        <time>2022-05-17T13:13:42.540Z</time>
      </trkpt>
      <trkpt lat="49.81355" lon="4.72338">
        <ele>322</ele>
        <time>2022-05-17T13:13:43.539Z</time>
      </trkpt>
      <trkpt lat="49.81356" lon="4.72337">
        <ele>322</ele>
        <time>2022-05-17T13:13:44.543Z</time>
      </trkpt>
      <trkpt lat="49.81356" lon="4.72337">
        <ele>322</ele>
        <time>2022-05-17T13:13:45.526Z</time>
      </trkpt>
      <trkpt lat="49.81358" lon="4.72335">
        <ele>323</ele>
        <time>2022-05-17T13:13:46.532Z</time>
      </trkpt>
      <trkpt lat="49.81358" lon="4.72335">
        <ele>323</ele>
        <time>2022-05-17T13:13:47.562Z</time>
      </trkpt>
      <trkpt lat="49.81362" lon="4.72332">
        <ele>323</ele>
        <time>2022-05-17T13:13:48.531Z</time>
      </trkpt>
      <trkpt lat="49.81364" lon="4.72329">
        <ele>323</ele>
        <time>2022-05-17T13:13:49.534Z</time>
      </trkpt>
      <trkpt lat="49.81364" lon="4.72329">
        <ele>323</ele>
        <time>2022-05-17T13:13:50.530Z</time>
      </trkpt>
      <trkpt lat="49.81368" lon="4.72326">
        <ele>323</ele>
        <time>2022-05-17T13:13:51.529Z</time>
      </trkpt>
      <trkpt lat="49.81368" lon="4.72326">
        <ele>323</ele>
        <time>2022-05-17T13:13:52.562Z</time>
      </trkpt>
      <trkpt lat="49.81371" lon="4.72324">
        <ele>323</ele>
        <time>2022-05-17T13:13:53.533Z</time>
      </trkpt>
      <trkpt lat="49.81371" lon="4.72324">
        <ele>323</ele>
        <time>2022-05-17T13:13:54.563Z</time>
      </trkpt>
      <trkpt lat="49.81374" lon="4.72323">
        <ele>323</ele>
        <time>2022-05-17T13:13:55.531Z</time>
      </trkpt>
      <trkpt lat="49.81374" lon="4.72323">
        <ele>323</ele>
        <time>2022-05-17T13:13:56.538Z</time>
      </trkpt>
      <trkpt lat="49.81378" lon="4.72322">
        <ele>323</ele>
        <time>2022-05-17T13:13:57.531Z</time>
      </trkpt>
      <trkpt lat="49.8138" lon="4.72322">
        <ele>323</ele>
        <time>2022-05-17T13:13:58.528Z</time>
      </trkpt>
      <trkpt lat="49.8138" lon="4.72322">
        <ele>323</ele>
        <time>2022-05-17T13:13:59.563Z</time>
      </trkpt>
      <trkpt lat="49.81386" lon="4.7232">
        <ele>323</ele>
        <time>2022-05-17T13:14:00.530Z</time>
      </trkpt>
      <trkpt lat="49.81387" lon="4.72319">
        <ele>323</ele>
        <time>2022-05-17T13:14:01.532Z</time>
      </trkpt>
      <trkpt lat="49.81389" lon="4.72317">
        <ele>323</ele>
        <time>2022-05-17T13:14:02.542Z</time>
      </trkpt>
      <trkpt lat="49.81391" lon="4.72315">
        <ele>324</ele>
        <time>2022-05-17T13:14:03.528Z</time>
      </trkpt>
      <trkpt lat="49.81391" lon="4.72315">
        <ele>324</ele>
        <time>2022-05-17T13:14:04.564Z</time>
      </trkpt>
      <trkpt lat="49.81394" lon="4.72313">
        <ele>324</ele>
        <time>2022-05-17T13:14:05.530Z</time>
      </trkpt>
      <trkpt lat="49.81394" lon="4.72313">
        <ele>324</ele>
        <time>2022-05-17T13:14:06.526Z</time>
      </trkpt>
      <trkpt lat="49.81397" lon="4.72312">
        <ele>324</ele>
        <time>2022-05-17T13:14:07.532Z</time>
      </trkpt>
      <trkpt lat="49.81397" lon="4.72312">
        <ele>324</ele>
        <time>2022-05-17T13:14:08.526Z</time>
      </trkpt>
      <trkpt lat="49.814" lon="4.72311">
        <ele>325</ele>
        <time>2022-05-17T13:14:09.531Z</time>
      </trkpt>
      <trkpt lat="49.814" lon="4.72311">
        <ele>325</ele>
        <time>2022-05-17T13:14:10.524Z</time>
      </trkpt>
      <trkpt lat="49.81404" lon="4.72309">
        <ele>325</ele>
        <time>2022-05-17T13:14:11.529Z</time>
      </trkpt>
      <trkpt lat="49.81404" lon="4.72309">
        <ele>325</ele>
        <time>2022-05-17T13:14:12.561Z</time>
      </trkpt>
      <trkpt lat="49.81408" lon="4.72306">
        <ele>325</ele>
        <time>2022-05-17T13:14:13.552Z</time>
      </trkpt>
      <trkpt lat="49.81408" lon="4.72306">
        <ele>325</ele>
        <time>2022-05-17T13:14:14.528Z</time>
      </trkpt>
      <trkpt lat="49.81411" lon="4.72302">
        <ele>326</ele>
        <time>2022-05-17T13:14:15.531Z</time>
      </trkpt>
      <trkpt lat="49.81411" lon="4.72302">
        <ele>326</ele>
        <time>2022-05-17T13:14:16.564Z</time>
      </trkpt>
      <trkpt lat="49.81413" lon="4.72297">
        <ele>326</ele>
        <time>2022-05-17T13:14:17.540Z</time>
      </trkpt>
      <trkpt lat="49.81413" lon="4.72294">
        <ele>326</ele>
        <time>2022-05-17T13:14:18.527Z</time>
      </trkpt>
      <trkpt lat="49.81415" lon="4.7229">
        <ele>326</ele>
        <time>2022-05-17T13:14:19.531Z</time>
      </trkpt>
      <trkpt lat="49.81415" lon="4.7229">
        <ele>326</ele>
        <time>2022-05-17T13:14:20.563Z</time>
      </trkpt>
      <trkpt lat="49.81416" lon="4.72284">
        <ele>326</ele>
        <time>2022-05-17T13:14:21.538Z</time>
      </trkpt>
      <trkpt lat="49.81416" lon="4.72282">
        <ele>327</ele>
        <time>2022-05-17T13:14:22.527Z</time>
      </trkpt>
      <trkpt lat="49.81416" lon="4.72279">
        <ele>327</ele>
        <time>2022-05-17T13:14:23.528Z</time>
      </trkpt>
      <trkpt lat="49.81416" lon="4.72279">
        <ele>327</ele>
        <time>2022-05-17T13:14:24.528Z</time>
      </trkpt>
      <trkpt lat="49.81416" lon="4.72273">
        <ele>326</ele>
        <time>2022-05-17T13:14:25.541Z</time>
      </trkpt>
      <trkpt lat="49.81416" lon="4.72273">
        <ele>326</ele>
        <time>2022-05-17T13:14:26.537Z</time>
      </trkpt>
      <trkpt lat="49.81415" lon="4.72263">
        <ele>326</ele>
        <time>2022-05-17T13:14:27.530Z</time>
      </trkpt>
      <trkpt lat="49.81415" lon="4.72263">
        <ele>326</ele>
        <time>2022-05-17T13:14:28.563Z</time>
      </trkpt>
      <trkpt lat="49.81415" lon="4.72256">
        <ele>326</ele>
        <time>2022-05-17T13:14:29.526Z</time>
      </trkpt>
      <trkpt lat="49.81415" lon="4.72256">
        <ele>326</ele>
        <time>2022-05-17T13:14:30.524Z</time>
      </trkpt>
      <trkpt lat="49.81414" lon="4.72249">
        <ele>325</ele>
        <time>2022-05-17T13:14:31.529Z</time>
      </trkpt>
      <trkpt lat="49.81414" lon="4.72249">
        <ele>325</ele>
        <time>2022-05-17T13:14:32.524Z</time>
      </trkpt>
      <trkpt lat="49.81415" lon="4.72243">
        <ele>325</ele>
        <time>2022-05-17T13:14:33.529Z</time>
      </trkpt>
      <trkpt lat="49.81415" lon="4.72243">
        <ele>325</ele>
        <time>2022-05-17T13:14:34.564Z</time>
      </trkpt>
      <trkpt lat="49.81415" lon="4.72237">
        <ele>325</ele>
        <time>2022-05-17T13:14:35.529Z</time>
      </trkpt>
      <trkpt lat="49.81415" lon="4.72237">
        <ele>325</ele>
        <time>2022-05-17T13:14:36.562Z</time>
      </trkpt>
      <trkpt lat="49.81415" lon="4.7223">
        <ele>324</ele>
        <time>2022-05-17T13:14:37.546Z</time>
      </trkpt>
      <trkpt lat="49.81415" lon="4.7223">
        <ele>324</ele>
        <time>2022-05-17T13:14:38.525Z</time>
      </trkpt>
      <trkpt lat="49.81415" lon="4.72224">
        <ele>324</ele>
        <time>2022-05-17T13:14:39.537Z</time>
      </trkpt>
      <trkpt lat="49.81415" lon="4.72224">
        <ele>324</ele>
        <time>2022-05-17T13:14:40.526Z</time>
      </trkpt>
      <trkpt lat="49.81416" lon="4.72217">
        <ele>323</ele>
        <time>2022-05-17T13:14:41.529Z</time>
      </trkpt>
      <trkpt lat="49.81416" lon="4.72213">
        <ele>323</ele>
        <time>2022-05-17T13:14:42.537Z</time>
      </trkpt>
      <trkpt lat="49.81416" lon="4.72213">
        <ele>323</ele>
        <time>2022-05-17T13:14:43.562Z</time>
      </trkpt>
      <trkpt lat="49.81417" lon="4.72207">
        <ele>323</ele>
        <time>2022-05-17T13:14:44.527Z</time>
      </trkpt>
      <trkpt lat="49.81417" lon="4.72203">
        <ele>323</ele>
        <time>2022-05-17T13:14:45.527Z</time>
      </trkpt>
      <trkpt lat="49.81417" lon="4.722">
        <ele>323</ele>
        <time>2022-05-17T13:14:46.532Z</time>
      </trkpt>
      <trkpt lat="49.81417" lon="4.722">
        <ele>323</ele>
        <time>2022-05-17T13:14:47.563Z</time>
      </trkpt>
      <trkpt lat="49.8142" lon="4.72193">
        <ele>323</ele>
        <time>2022-05-17T13:14:48.528Z</time>
      </trkpt>
      <trkpt lat="49.81421" lon="4.72191">
        <ele>323</ele>
        <time>2022-05-17T13:14:49.530Z</time>
      </trkpt>
      <trkpt lat="49.81421" lon="4.72191">
        <ele>323</ele>
        <time>2022-05-17T13:14:50.562Z</time>
      </trkpt>
      <trkpt lat="49.81426" lon="4.72185">
        <ele>323</ele>
        <time>2022-05-17T13:14:51.581Z</time>
      </trkpt>
      <trkpt lat="49.81426" lon="4.72185">
        <ele>323</ele>
        <time>2022-05-17T13:14:52.544Z</time>
      </trkpt>
      <trkpt lat="49.8143" lon="4.7218">
        <ele>322</ele>
        <time>2022-05-17T13:14:53.558Z</time>
      </trkpt>
      <trkpt lat="49.8143" lon="4.7218">
        <ele>322</ele>
        <time>2022-05-17T13:14:54.531Z</time>
      </trkpt>
      <trkpt lat="49.81434" lon="4.72175">
        <ele>322</ele>
        <time>2022-05-17T13:14:55.552Z</time>
      </trkpt>
      <trkpt lat="49.81434" lon="4.72175">
        <ele>322</ele>
        <time>2022-05-17T13:14:56.560Z</time>
      </trkpt>
      <trkpt lat="49.81438" lon="4.7217">
        <ele>322</ele>
        <time>2022-05-17T13:14:57.543Z</time>
      </trkpt>
      <trkpt lat="49.81439" lon="4.72167">
        <ele>322</ele>
        <time>2022-05-17T13:14:58.532Z</time>
      </trkpt>
      <trkpt lat="49.81439" lon="4.72167">
        <ele>322</ele>
        <time>2022-05-17T13:14:59.539Z</time>
      </trkpt>
      <trkpt lat="49.81443" lon="4.7216">
        <ele>322</ele>
        <time>2022-05-17T13:15:00.537Z</time>
      </trkpt>
      <trkpt lat="49.81445" lon="4.72158">
        <ele>322</ele>
        <time>2022-05-17T13:15:01.552Z</time>
      </trkpt>
      <trkpt lat="49.81445" lon="4.72158">
        <ele>322</ele>
        <time>2022-05-17T13:15:02.559Z</time>
      </trkpt>
      <trkpt lat="49.8145" lon="4.72154">
        <ele>322</ele>
        <time>2022-05-17T13:15:03.534Z</time>
      </trkpt>
      <trkpt lat="49.8145" lon="4.72154">
        <ele>322</ele>
        <time>2022-05-17T13:15:04.547Z</time>
      </trkpt>
      <trkpt lat="49.81456" lon="4.72151">
        <ele>322</ele>
        <time>2022-05-17T13:15:05.563Z</time>
      </trkpt>
      <trkpt lat="49.81456" lon="4.72151">
        <ele>322</ele>
        <time>2022-05-17T13:15:06.532Z</time>
      </trkpt>
      <trkpt lat="49.81462" lon="4.72151">
        <ele>321</ele>
        <time>2022-05-17T13:15:07.524Z</time>
      </trkpt>
      <trkpt lat="49.81465" lon="4.72151">
        <ele>320</ele>
        <time>2022-05-17T13:15:08.547Z</time>
      </trkpt>
      <trkpt lat="49.81469" lon="4.7215">
        <ele>320</ele>
        <time>2022-05-17T13:15:09.531Z</time>
      </trkpt>
      <trkpt lat="49.81469" lon="4.7215">
        <ele>320</ele>
        <time>2022-05-17T13:15:10.557Z</time>
      </trkpt>
      <trkpt lat="49.81477" lon="4.72149">
        <ele>320</ele>
        <time>2022-05-17T13:15:11.541Z</time>
      </trkpt>
      <trkpt lat="49.81482" lon="4.72149">
        <ele>319</ele>
        <time>2022-05-17T13:15:12.526Z</time>
      </trkpt>
      <trkpt lat="49.81487" lon="4.72149">
        <ele>319</ele>
        <time>2022-05-17T13:15:13.546Z</time>
      </trkpt>
      <trkpt lat="49.81487" lon="4.72149">
        <ele>319</ele>
        <time>2022-05-17T13:15:14.554Z</time>
      </trkpt>
      <trkpt lat="49.81497" lon="4.72149">
        <ele>318</ele>
        <time>2022-05-17T13:15:15.542Z</time>
      </trkpt>
      <trkpt lat="49.81503" lon="4.7215">
        <ele>318</ele>
        <time>2022-05-17T13:15:16.530Z</time>
      </trkpt>
      <trkpt lat="49.81509" lon="4.7215">
        <ele>317</ele>
        <time>2022-05-17T13:15:17.548Z</time>
      </trkpt>
      <trkpt lat="49.81509" lon="4.7215">
        <ele>317</ele>
        <time>2022-05-17T13:15:18.555Z</time>
      </trkpt>
      <trkpt lat="49.8152" lon="4.72152">
        <ele>316</ele>
        <time>2022-05-17T13:15:19.547Z</time>
      </trkpt>
      <trkpt lat="49.8152" lon="4.72152">
        <ele>316</ele>
        <time>2022-05-17T13:15:20.554Z</time>
      </trkpt>
      <trkpt lat="49.81531" lon="4.72153">
        <ele>315</ele>
        <time>2022-05-17T13:15:21.547Z</time>
      </trkpt>
      <trkpt lat="49.81531" lon="4.72153">
        <ele>315</ele>
        <time>2022-05-17T13:15:22.555Z</time>
      </trkpt>
      <trkpt lat="49.81541" lon="4.72153">
        <ele>314</ele>
        <time>2022-05-17T13:15:23.538Z</time>
      </trkpt>
      <trkpt lat="49.81546" lon="4.72153">
        <ele>313</ele>
        <time>2022-05-17T13:15:24.564Z</time>
      </trkpt>
      <trkpt lat="49.81551" lon="4.72153">
        <ele>313</ele>
        <time>2022-05-17T13:15:25.541Z</time>
      </trkpt>
      <trkpt lat="49.81551" lon="4.72153">
        <ele>313</ele>
        <time>2022-05-17T13:15:26.554Z</time>
      </trkpt>
      <trkpt lat="49.81559" lon="4.72146">
        <ele>312</ele>
        <time>2022-05-17T13:15:27.528Z</time>
      </trkpt>
      <trkpt lat="49.81559" lon="4.72146">
        <ele>312</ele>
        <time>2022-05-17T13:15:28.532Z</time>
      </trkpt>
      <trkpt lat="49.81565" lon="4.72136">
        <ele>312</ele>
        <time>2022-05-17T13:15:29.547Z</time>
      </trkpt>
      <trkpt lat="49.81565" lon="4.7213">
        <ele>312</ele>
        <time>2022-05-17T13:15:30.527Z</time>
      </trkpt>
      <trkpt lat="49.81565" lon="4.72125">
        <ele>311</ele>
        <time>2022-05-17T13:15:31.546Z</time>
      </trkpt>
      <trkpt lat="49.81565" lon="4.72125">
        <ele>311</ele>
        <time>2022-05-17T13:15:32.558Z</time>
      </trkpt>
      <trkpt lat="49.81565" lon="4.72114">
        <ele>310</ele>
        <time>2022-05-17T13:15:33.541Z</time>
      </trkpt>
      <trkpt lat="49.81566" lon="4.72109">
        <ele>310</ele>
        <time>2022-05-17T13:15:34.541Z</time>
      </trkpt>
      <trkpt lat="49.81566" lon="4.72109">
        <ele>310</ele>
        <time>2022-05-17T13:15:35.552Z</time>
      </trkpt>
      <trkpt lat="49.81568" lon="4.72099">
        <ele>309</ele>
        <time>2022-05-17T13:15:36.538Z</time>
      </trkpt>
      <trkpt lat="49.81569" lon="4.72093">
        <ele>308</ele>
        <time>2022-05-17T13:15:37.554Z</time>
      </trkpt>
      <trkpt lat="49.81569" lon="4.72093">
        <ele>308</ele>
        <time>2022-05-17T13:15:38.527Z</time>
      </trkpt>
      <trkpt lat="49.8157" lon="4.72082">
        <ele>308</ele>
        <time>2022-05-17T13:15:39.546Z</time>
      </trkpt>
      <trkpt lat="49.8157" lon="4.72082">
        <ele>308</ele>
        <time>2022-05-17T13:15:40.553Z</time>
      </trkpt>
      <trkpt lat="49.81572" lon="4.72071">
        <ele>307</ele>
        <time>2022-05-17T13:15:41.543Z</time>
      </trkpt>
      <trkpt lat="49.81572" lon="4.72071">
        <ele>307</ele>
        <time>2022-05-17T13:15:42.552Z</time>
      </trkpt>
      <trkpt lat="49.81574" lon="4.72057">
        <ele>306</ele>
        <time>2022-05-17T13:15:43.532Z</time>
      </trkpt>
      <trkpt lat="49.81574" lon="4.72057">
        <ele>306</ele>
        <time>2022-05-17T13:15:44.539Z</time>
      </trkpt>
      <trkpt lat="49.81575" lon="4.72045">
        <ele>306</ele>
        <time>2022-05-17T13:15:45.535Z</time>
      </trkpt>
      <trkpt lat="49.81576" lon="4.72038">
        <ele>306</ele>
        <time>2022-05-17T13:15:46.557Z</time>
      </trkpt>
      <trkpt lat="49.81576" lon="4.72038">
        <ele>306</ele>
        <time>2022-05-17T13:15:47.563Z</time>
      </trkpt>
      <trkpt lat="49.81578" lon="4.72025">
        <ele>306</ele>
        <time>2022-05-17T13:15:48.547Z</time>
      </trkpt>
      <trkpt lat="49.81578" lon="4.72025">
        <ele>306</ele>
        <time>2022-05-17T13:15:49.557Z</time>
      </trkpt>
      <trkpt lat="49.81579" lon="4.72014">
        <ele>306</ele>
        <time>2022-05-17T13:15:50.533Z</time>
      </trkpt>
      <trkpt lat="49.8158" lon="4.72009">
        <ele>306</ele>
        <time>2022-05-17T13:15:51.554Z</time>
      </trkpt>
      <trkpt lat="49.8158" lon="4.72009">
        <ele>306</ele>
        <time>2022-05-17T13:15:52.560Z</time>
      </trkpt>
      <trkpt lat="49.81581" lon="4.71997">
        <ele>306</ele>
        <time>2022-05-17T13:15:53.544Z</time>
      </trkpt>
      <trkpt lat="49.81581" lon="4.71997">
        <ele>306</ele>
        <time>2022-05-17T13:15:54.550Z</time>
      </trkpt>
      <trkpt lat="49.81582" lon="4.71985">
        <ele>306</ele>
        <time>2022-05-17T13:15:55.529Z</time>
      </trkpt>
      <trkpt lat="49.81582" lon="4.71985">
        <ele>306</ele>
        <time>2022-05-17T13:15:56.534Z</time>
      </trkpt>
      <trkpt lat="49.81583" lon="4.71974">
        <ele>306</ele>
        <time>2022-05-17T13:15:57.548Z</time>
      </trkpt>
      <trkpt lat="49.81583" lon="4.71974">
        <ele>306</ele>
        <time>2022-05-17T13:15:58.554Z</time>
      </trkpt>
      <trkpt lat="49.81584" lon="4.71962">
        <ele>306</ele>
        <time>2022-05-17T13:15:59.526Z</time>
      </trkpt>
      <trkpt lat="49.81585" lon="4.71956">
        <ele>306</ele>
        <time>2022-05-17T13:16:00.552Z</time>
      </trkpt>
      <trkpt lat="49.81586" lon="4.7195">
        <ele>306</ele>
        <time>2022-05-17T13:16:01.530Z</time>
      </trkpt>
      <trkpt lat="49.81586" lon="4.7195">
        <ele>306</ele>
        <time>2022-05-17T13:16:02.535Z</time>
      </trkpt>
      <trkpt lat="49.81588" lon="4.71937">
        <ele>306</ele>
        <time>2022-05-17T13:16:03.535Z</time>
      </trkpt>
      <trkpt lat="49.81589" lon="4.7193">
        <ele>305</ele>
        <time>2022-05-17T13:16:04.552Z</time>
      </trkpt>
      <trkpt lat="49.81589" lon="4.7193">
        <ele>305</ele>
        <time>2022-05-17T13:16:05.558Z</time>
      </trkpt>
      <trkpt lat="49.81591" lon="4.71917">
        <ele>305</ele>
        <time>2022-05-17T13:16:06.531Z</time>
      </trkpt>
      <trkpt lat="49.81592" lon="4.71911">
        <ele>305</ele>
        <time>2022-05-17T13:16:07.554Z</time>
      </trkpt>
      <trkpt lat="49.81592" lon="4.71911">
        <ele>305</ele>
        <time>2022-05-17T13:16:08.534Z</time>
      </trkpt>
      <trkpt lat="49.81594" lon="4.71898">
        <ele>305</ele>
        <time>2022-05-17T13:16:09.562Z</time>
      </trkpt>
      <trkpt lat="49.81594" lon="4.7189">
        <ele>305</ele>
        <time>2022-05-17T13:16:10.543Z</time>
      </trkpt>
      <trkpt lat="49.81594" lon="4.7189">
        <ele>305</ele>
        <time>2022-05-17T13:16:11.549Z</time>
      </trkpt>
      <trkpt lat="49.81595" lon="4.71875">
        <ele>305</ele>
        <time>2022-05-17T13:16:12.564Z</time>
      </trkpt>
      <trkpt lat="49.81597" lon="4.71866">
        <ele>305</ele>
        <time>2022-05-17T13:16:13.536Z</time>
      </trkpt>
      <trkpt lat="49.81597" lon="4.71866">
        <ele>305</ele>
        <time>2022-05-17T13:16:14.542Z</time>
      </trkpt>
      <trkpt lat="49.81599" lon="4.71849">
        <ele>304</ele>
        <time>2022-05-17T13:16:15.538Z</time>
      </trkpt>
      <trkpt lat="49.81599" lon="4.71849">
        <ele>304</ele>
        <time>2022-05-17T13:16:16.544Z</time>
      </trkpt>
      <trkpt lat="49.81601" lon="4.71829">
        <ele>304</ele>
        <time>2022-05-17T13:16:17.560Z</time>
      </trkpt>
      <trkpt lat="49.81602" lon="4.71819">
        <ele>304</ele>
        <time>2022-05-17T13:16:18.540Z</time>
      </trkpt>
      <trkpt lat="49.81603" lon="4.71809">
        <ele>304</ele>
        <time>2022-05-17T13:16:19.555Z</time>
      </trkpt>
      <trkpt lat="49.81603" lon="4.71809">
        <ele>304</ele>
        <time>2022-05-17T13:16:20.562Z</time>
      </trkpt>
      <trkpt lat="49.81606" lon="4.71788">
        <ele>303</ele>
        <time>2022-05-17T13:16:21.550Z</time>
      </trkpt>
      <trkpt lat="49.81607" lon="4.71777">
        <ele>303</ele>
        <time>2022-05-17T13:16:22.525Z</time>
      </trkpt>
      <trkpt lat="49.81607" lon="4.71777">
        <ele>303</ele>
        <time>2022-05-17T13:16:23.531Z</time>
      </trkpt>
      <trkpt lat="49.8161" lon="4.71754">
        <ele>303</ele>
        <time>2022-05-17T13:16:24.545Z</time>
      </trkpt>
      <trkpt lat="49.81611" lon="4.71742">
        <ele>303</ele>
        <time>2022-05-17T13:16:25.562Z</time>
      </trkpt>
      <trkpt lat="49.81611" lon="4.71742">
        <ele>303</ele>
        <time>2022-05-17T13:16:26.529Z</time>
      </trkpt>
      <trkpt lat="49.81614" lon="4.71719">
        <ele>303</ele>
        <time>2022-05-17T13:16:27.546Z</time>
      </trkpt>
      <trkpt lat="49.81615" lon="4.71708">
        <ele>303</ele>
        <time>2022-05-17T13:16:28.541Z</time>
      </trkpt>
      <trkpt lat="49.81615" lon="4.71708">
        <ele>303</ele>
        <time>2022-05-17T13:16:29.547Z</time>
      </trkpt>
      <trkpt lat="49.81617" lon="4.71684">
        <ele>302</ele>
        <time>2022-05-17T13:16:30.562Z</time>
      </trkpt>
      <trkpt lat="49.81618" lon="4.71673">
        <ele>302</ele>
        <time>2022-05-17T13:16:31.544Z</time>
      </trkpt>
      <trkpt lat="49.81618" lon="4.71673">
        <ele>302</ele>
        <time>2022-05-17T13:16:32.551Z</time>
      </trkpt>
      <trkpt lat="49.81621" lon="4.71652">
        <ele>302</ele>
        <time>2022-05-17T13:16:33.548Z</time>
      </trkpt>
      <trkpt lat="49.81621" lon="4.71641">
        <ele>301</ele>
        <time>2022-05-17T13:16:34.540Z</time>
      </trkpt>
      <trkpt lat="49.81621" lon="4.71641">
        <ele>301</ele>
        <time>2022-05-17T13:16:35.547Z</time>
      </trkpt>
      <trkpt lat="49.81625" lon="4.71621">
        <ele>301</ele>
        <time>2022-05-17T13:16:36.527Z</time>
      </trkpt>
      <trkpt lat="49.81626" lon="4.71611">
        <ele>300</ele>
        <time>2022-05-17T13:16:37.548Z</time>
      </trkpt>
      <trkpt lat="49.81626" lon="4.71611">
        <ele>300</ele>
        <time>2022-05-17T13:16:38.554Z</time>
      </trkpt>
      <trkpt lat="49.81628" lon="4.71589">
        <ele>300</ele>
        <time>2022-05-17T13:16:39.543Z</time>
      </trkpt>
      <trkpt lat="49.81628" lon="4.71589">
        <ele>300</ele>
        <time>2022-05-17T13:16:40.552Z</time>
      </trkpt>
      <trkpt lat="49.81631" lon="4.71568">
        <ele>300</ele>
        <time>2022-05-17T13:16:41.529Z</time>
      </trkpt>
      <trkpt lat="49.81631" lon="4.71568">
        <ele>300</ele>
        <time>2022-05-17T13:16:42.535Z</time>
      </trkpt>
      <trkpt lat="49.81634" lon="4.71546">
        <ele>299</ele>
        <time>2022-05-17T13:16:43.542Z</time>
      </trkpt>
      <trkpt lat="49.81634" lon="4.71546">
        <ele>299</ele>
        <time>2022-05-17T13:16:44.554Z</time>
      </trkpt>
      <trkpt lat="49.81637" lon="4.71523">
        <ele>299</ele>
        <time>2022-05-17T13:16:45.543Z</time>
      </trkpt>
      <trkpt lat="49.81638" lon="4.71511">
        <ele>298</ele>
        <time>2022-05-17T13:16:46.531Z</time>
      </trkpt>
      <trkpt lat="49.81638" lon="4.71511">
        <ele>298</ele>
        <time>2022-05-17T13:16:47.536Z</time>
      </trkpt>
      <trkpt lat="49.81641" lon="4.71486">
        <ele>298</ele>
        <time>2022-05-17T13:16:48.553Z</time>
      </trkpt>
      <trkpt lat="49.81641" lon="4.71486">
        <ele>298</ele>
        <time>2022-05-17T13:16:49.559Z</time>
      </trkpt>
      <trkpt lat="49.81644" lon="4.71461">
        <ele>297</ele>
        <time>2022-05-17T13:16:50.533Z</time>
      </trkpt>
      <trkpt lat="49.81644" lon="4.71461">
        <ele>297</ele>
        <time>2022-05-17T13:16:51.541Z</time>
      </trkpt>
      <trkpt lat="49.81646" lon="4.71434">
        <ele>296</ele>
        <time>2022-05-17T13:16:52.524Z</time>
      </trkpt>
      <trkpt lat="49.81646" lon="4.71434">
        <ele>296</ele>
        <time>2022-05-17T13:16:53.539Z</time>
      </trkpt>
      <trkpt lat="49.81649" lon="4.71408">
        <ele>295</ele>
        <time>2022-05-17T13:16:54.562Z</time>
      </trkpt>
      <trkpt lat="49.81651" lon="4.71395">
        <ele>294</ele>
        <time>2022-05-17T13:16:55.547Z</time>
      </trkpt>
      <trkpt lat="49.81651" lon="4.71395">
        <ele>294</ele>
        <time>2022-05-17T13:16:56.554Z</time>
      </trkpt>
      <trkpt lat="49.81654" lon="4.7137">
        <ele>294</ele>
        <time>2022-05-17T13:16:57.534Z</time>
      </trkpt>
      <trkpt lat="49.81655" lon="4.71357">
        <ele>293</ele>
        <time>2022-05-17T13:16:58.548Z</time>
      </trkpt>
      <trkpt lat="49.81656" lon="4.71345">
        <ele>293</ele>
        <time>2022-05-17T13:16:59.530Z</time>
      </trkpt>
      <trkpt lat="49.81656" lon="4.71345">
        <ele>293</ele>
        <time>2022-05-17T13:17:00.543Z</time>
      </trkpt>
      <trkpt lat="49.81659" lon="4.71319">
        <ele>292</ele>
        <time>2022-05-17T13:17:01.539Z</time>
      </trkpt>
      <trkpt lat="49.81659" lon="4.71319">
        <ele>292</ele>
        <time>2022-05-17T13:17:02.546Z</time>
      </trkpt>
      <trkpt lat="49.81661" lon="4.71296">
        <ele>292</ele>
        <time>2022-05-17T13:17:03.530Z</time>
      </trkpt>
      <trkpt lat="49.81661" lon="4.71296">
        <ele>292</ele>
        <time>2022-05-17T13:17:04.535Z</time>
      </trkpt>
      <trkpt lat="49.81664" lon="4.71275">
        <ele>291</ele>
        <time>2022-05-17T13:17:05.529Z</time>
      </trkpt>
      <trkpt lat="49.81664" lon="4.71275">
        <ele>291</ele>
        <time>2022-05-17T13:17:06.534Z</time>
      </trkpt>
      <trkpt lat="49.81668" lon="4.71256">
        <ele>290</ele>
        <time>2022-05-17T13:17:07.552Z</time>
      </trkpt>
      <trkpt lat="49.81669" lon="4.71248">
        <ele>290</ele>
        <time>2022-05-17T13:17:08.539Z</time>
      </trkpt>
      <trkpt lat="49.81669" lon="4.71248">
        <ele>290</ele>
        <time>2022-05-17T13:17:09.562Z</time>
      </trkpt>
      <trkpt lat="49.81671" lon="4.71234">
        <ele>290</ele>
        <time>2022-05-17T13:17:10.533Z</time>
      </trkpt>
      <trkpt lat="49.81671" lon="4.71228">
        <ele>290</ele>
        <time>2022-05-17T13:17:11.548Z</time>
      </trkpt>
      <trkpt lat="49.81671" lon="4.71228">
        <ele>290</ele>
        <time>2022-05-17T13:17:12.554Z</time>
      </trkpt>
      <trkpt lat="49.81672" lon="4.71219">
        <ele>289</ele>
        <time>2022-05-17T13:17:13.536Z</time>
      </trkpt>
      <trkpt lat="49.81672" lon="4.71219">
        <ele>289</ele>
        <time>2022-05-17T13:17:14.542Z</time>
      </trkpt>
      <trkpt lat="49.81674" lon="4.71211">
        <ele>289</ele>
        <time>2022-05-17T13:17:15.529Z</time>
      </trkpt>
      <trkpt lat="49.81674" lon="4.71211">
        <ele>289</ele>
        <time>2022-05-17T13:17:16.534Z</time>
      </trkpt>
      <trkpt lat="49.81676" lon="4.71203">
        <ele>289</ele>
        <time>2022-05-17T13:17:17.525Z</time>
      </trkpt>
      <trkpt lat="49.81676" lon="4.71203">
        <ele>289</ele>
        <time>2022-05-17T13:17:18.530Z</time>
      </trkpt>
      <trkpt lat="49.81677" lon="4.71196">
        <ele>289</ele>
        <time>2022-05-17T13:17:19.548Z</time>
      </trkpt>
      <trkpt lat="49.81677" lon="4.71196">
        <ele>289</ele>
        <time>2022-05-17T13:17:20.563Z</time>
      </trkpt>
      <trkpt lat="49.8168" lon="4.7119">
        <ele>289</ele>
        <time>2022-05-17T13:17:21.551Z</time>
      </trkpt>
      <trkpt lat="49.8168" lon="4.7119">
        <ele>289</ele>
        <time>2022-05-17T13:17:22.560Z</time>
      </trkpt>
      <trkpt lat="49.81683" lon="4.71183">
        <ele>289</ele>
        <time>2022-05-17T13:17:23.557Z</time>
      </trkpt>
      <trkpt lat="49.81684" lon="4.7118">
        <ele>289</ele>
        <time>2022-05-17T13:17:24.541Z</time>
      </trkpt>
      <trkpt lat="49.81684" lon="4.7118">
        <ele>289</ele>
        <time>2022-05-17T13:17:25.546Z</time>
      </trkpt>
      <trkpt lat="49.81685" lon="4.71173">
        <ele>289</ele>
        <time>2022-05-17T13:17:26.526Z</time>
      </trkpt>
      <trkpt lat="49.81686" lon="4.71169">
        <ele>289</ele>
        <time>2022-05-17T13:17:27.548Z</time>
      </trkpt>
      <trkpt lat="49.81687" lon="4.71165">
        <ele>289</ele>
        <time>2022-05-17T13:17:28.524Z</time>
      </trkpt>
      <trkpt lat="49.81687" lon="4.71165">
        <ele>289</ele>
        <time>2022-05-17T13:17:29.530Z</time>
      </trkpt>
      <trkpt lat="49.81688" lon="4.71158">
        <ele>289</ele>
        <time>2022-05-17T13:17:30.527Z</time>
      </trkpt>
      <trkpt lat="49.81689" lon="4.71155">
        <ele>290</ele>
        <time>2022-05-17T13:17:31.549Z</time>
      </trkpt>
      <trkpt lat="49.81689" lon="4.71155">
        <ele>290</ele>
        <time>2022-05-17T13:17:32.555Z</time>
      </trkpt>
      <trkpt lat="49.81691" lon="4.71148">
        <ele>290</ele>
        <time>2022-05-17T13:17:33.534Z</time>
      </trkpt>
      <trkpt lat="49.81691" lon="4.71145">
        <ele>290</ele>
        <time>2022-05-17T13:17:34.543Z</time>
      </trkpt>
      <trkpt lat="49.81691" lon="4.71145">
        <ele>290</ele>
        <time>2022-05-17T13:17:35.552Z</time>
      </trkpt>
      <trkpt lat="49.81692" lon="4.71136">
        <ele>290</ele>
        <time>2022-05-17T13:17:36.561Z</time>
      </trkpt>
      <trkpt lat="49.81693" lon="4.71133">
        <ele>290</ele>
        <time>2022-05-17T13:17:37.538Z</time>
      </trkpt>
      <trkpt lat="49.81693" lon="4.71133">
        <ele>290</ele>
        <time>2022-05-17T13:17:38.544Z</time>
      </trkpt>
      <trkpt lat="49.81693" lon="4.71128">
        <ele>290</ele>
        <time>2022-05-17T13:17:39.559Z</time>
      </trkpt>
      <trkpt lat="49.81694" lon="4.71126">
        <ele>290</ele>
        <time>2022-05-17T13:17:40.535Z</time>
      </trkpt>
      <trkpt lat="49.81694" lon="4.71126">
        <ele>290</ele>
        <time>2022-05-17T13:17:41.541Z</time>
      </trkpt>
      <trkpt lat="49.81694" lon="4.71121">
        <ele>291</ele>
        <time>2022-05-17T13:17:42.530Z</time>
      </trkpt>
      <trkpt lat="49.81694" lon="4.71119">
        <ele>291</ele>
        <time>2022-05-17T13:17:43.547Z</time>
      </trkpt>
      <trkpt lat="49.81694" lon="4.71119">
        <ele>291</ele>
        <time>2022-05-17T13:17:44.553Z</time>
      </trkpt>
      <trkpt lat="49.81694" lon="4.71115">
        <ele>292</ele>
        <time>2022-05-17T13:17:45.534Z</time>
      </trkpt>
      <trkpt lat="49.81694" lon="4.71115">
        <ele>292</ele>
        <time>2022-05-17T13:17:46.541Z</time>
      </trkpt>
      <trkpt lat="49.81693" lon="4.7111">
        <ele>292</ele>
        <time>2022-05-17T13:17:47.549Z</time>
      </trkpt>
      <trkpt lat="49.81693" lon="4.7111">
        <ele>292</ele>
        <time>2022-05-17T13:17:48.555Z</time>
      </trkpt>
      <trkpt lat="49.81693" lon="4.71107">
        <ele>293</ele>
        <time>2022-05-17T13:17:49.526Z</time>
      </trkpt>
      <trkpt lat="49.81693" lon="4.71107">
        <ele>293</ele>
        <time>2022-05-17T13:17:50.539Z</time>
      </trkpt>
      <trkpt lat="49.81693" lon="4.71104">
        <ele>294</ele>
        <time>2022-05-17T13:17:51.524Z</time>
      </trkpt>
      <trkpt lat="49.81693" lon="4.71102">
        <ele>294</ele>
        <time>2022-05-17T13:17:52.553Z</time>
      </trkpt>
      <trkpt lat="49.81693" lon="4.71102">
        <ele>294</ele>
        <time>2022-05-17T13:17:53.559Z</time>
      </trkpt>
      <trkpt lat="49.81693" lon="4.71099">
        <ele>295</ele>
        <time>2022-05-17T13:17:54.536Z</time>
      </trkpt>
      <trkpt lat="49.81692" lon="4.71096">
        <ele>295</ele>
        <time>2022-05-17T13:17:55.555Z</time>
      </trkpt>
      <trkpt lat="49.81692" lon="4.71096">
        <ele>295</ele>
        <time>2022-05-17T13:17:56.560Z</time>
      </trkpt>
      <trkpt lat="49.81692" lon="4.71091">
        <ele>296</ele>
        <time>2022-05-17T13:17:57.540Z</time>
      </trkpt>
      <trkpt lat="49.81692" lon="4.71089">
        <ele>296</ele>
        <time>2022-05-17T13:17:58.561Z</time>
      </trkpt>
      <trkpt lat="49.81692" lon="4.71089">
        <ele>296</ele>
        <time>2022-05-17T13:17:59.527Z</time>
      </trkpt>
      <trkpt lat="49.81692" lon="4.71085">
        <ele>297</ele>
        <time>2022-05-17T13:18:00.555Z</time>
      </trkpt>
      <trkpt lat="49.81692" lon="4.71083">
        <ele>297</ele>
        <time>2022-05-17T13:18:01.532Z</time>
      </trkpt>
      <trkpt lat="49.81692" lon="4.7108">
        <ele>298</ele>
        <time>2022-05-17T13:18:02.530Z</time>
      </trkpt>
      <trkpt lat="49.81692" lon="4.7108">
        <ele>298</ele>
        <time>2022-05-17T13:18:03.536Z</time>
      </trkpt>
      <trkpt lat="49.81693" lon="4.71076">
        <ele>298</ele>
        <time>2022-05-17T13:18:04.551Z</time>
      </trkpt>
      <trkpt lat="49.81693" lon="4.71073">
        <ele>299</ele>
        <time>2022-05-17T13:18:05.525Z</time>
      </trkpt>
      <trkpt lat="49.81693" lon="4.71073">
        <ele>299</ele>
        <time>2022-05-17T13:18:06.530Z</time>
      </trkpt>
      <trkpt lat="49.81695" lon="4.71068">
        <ele>300</ele>
        <time>2022-05-17T13:18:07.551Z</time>
      </trkpt>
      <trkpt lat="49.81695" lon="4.71068">
        <ele>300</ele>
        <time>2022-05-17T13:18:08.557Z</time>
      </trkpt>
      <trkpt lat="49.81695" lon="4.71063">
        <ele>300</ele>
        <time>2022-05-17T13:18:09.545Z</time>
      </trkpt>
      <trkpt lat="49.81695" lon="4.71063">
        <ele>300</ele>
        <time>2022-05-17T13:18:10.552Z</time>
      </trkpt>
      <trkpt lat="49.81694" lon="4.71058">
        <ele>301</ele>
        <time>2022-05-17T13:18:11.531Z</time>
      </trkpt>
      <trkpt lat="49.81694" lon="4.71058">
        <ele>301</ele>
        <time>2022-05-17T13:18:12.536Z</time>
      </trkpt>
      <trkpt lat="49.81694" lon="4.71055">
        <ele>302</ele>
        <time>2022-05-17T13:18:13.560Z</time>
      </trkpt>
      <trkpt lat="49.81694" lon="4.71055">
        <ele>302</ele>
        <time>2022-05-17T13:18:14.526Z</time>
      </trkpt>
      <trkpt lat="49.81693" lon="4.71051">
        <ele>302</ele>
        <time>2022-05-17T13:18:15.543Z</time>
      </trkpt>
      <trkpt lat="49.81692" lon="4.71049">
        <ele>303</ele>
        <time>2022-05-17T13:18:16.563Z</time>
      </trkpt>
      <trkpt lat="49.81692" lon="4.71046">
        <ele>303</ele>
        <time>2022-05-17T13:18:17.553Z</time>
      </trkpt>
      <trkpt lat="49.81692" lon="4.71046">
        <ele>303</ele>
        <time>2022-05-17T13:18:18.559Z</time>
      </trkpt>
      <trkpt lat="49.81692" lon="4.7104">
        <ele>303</ele>
        <time>2022-05-17T13:18:19.540Z</time>
      </trkpt>
      <trkpt lat="49.81692" lon="4.7104">
        <ele>303</ele>
        <time>2022-05-17T13:18:20.552Z</time>
      </trkpt>
      <trkpt lat="49.81692" lon="4.71035">
        <ele>304</ele>
        <time>2022-05-17T13:18:21.548Z</time>
      </trkpt>
      <trkpt lat="49.81692" lon="4.71035">
        <ele>304</ele>
        <time>2022-05-17T13:18:22.546Z</time>
      </trkpt>
      <trkpt lat="49.81691" lon="4.71029">
        <ele>305</ele>
        <time>2022-05-17T13:18:23.549Z</time>
      </trkpt>
      <trkpt lat="49.81691" lon="4.71029">
        <ele>305</ele>
        <time>2022-05-17T13:18:24.555Z</time>
      </trkpt>
      <trkpt lat="49.8169" lon="4.71023">
        <ele>306</ele>
        <time>2022-05-17T13:18:25.535Z</time>
      </trkpt>
      <trkpt lat="49.8169" lon="4.71023">
        <ele>306</ele>
        <time>2022-05-17T13:18:26.541Z</time>
      </trkpt>
      <trkpt lat="49.8169" lon="4.71017">
        <ele>307</ele>
        <time>2022-05-17T13:18:27.558Z</time>
      </trkpt>
      <trkpt lat="49.81689" lon="4.71014">
        <ele>308</ele>
        <time>2022-05-17T13:18:28.531Z</time>
      </trkpt>
      <trkpt lat="49.81689" lon="4.71014">
        <ele>308</ele>
        <time>2022-05-17T13:18:29.536Z</time>
      </trkpt>
      <trkpt lat="49.81687" lon="4.71009">
        <ele>309</ele>
        <time>2022-05-17T13:18:30.554Z</time>
      </trkpt>
      <trkpt lat="49.81686" lon="4.71006">
        <ele>310</ele>
        <time>2022-05-17T13:18:31.541Z</time>
      </trkpt>
      <trkpt lat="49.81686" lon="4.71006">
        <ele>310</ele>
        <time>2022-05-17T13:18:32.548Z</time>
      </trkpt>
      <trkpt lat="49.81686" lon="4.71">
        <ele>311</ele>
        <time>2022-05-17T13:18:33.535Z</time>
      </trkpt>
      <trkpt lat="49.81685" lon="4.70996">
        <ele>311</ele>
        <time>2022-05-17T13:18:34.560Z</time>
      </trkpt>
      <trkpt lat="49.81685" lon="4.70996">
        <ele>311</ele>
        <time>2022-05-17T13:18:35.526Z</time>
      </trkpt>
      <trkpt lat="49.81684" lon="4.7099">
        <ele>312</ele>
        <time>2022-05-17T13:18:36.542Z</time>
      </trkpt>
      <trkpt lat="49.81683" lon="4.70987">
        <ele>312</ele>
        <time>2022-05-17T13:18:37.528Z</time>
      </trkpt>
      <trkpt lat="49.81683" lon="4.70987">
        <ele>312</ele>
        <time>2022-05-17T13:18:38.554Z</time>
      </trkpt>
      <trkpt lat="49.81682" lon="4.70977">
        <ele>313</ele>
        <time>2022-05-17T13:18:39.528Z</time>
      </trkpt>
      <trkpt lat="49.81682" lon="4.70977">
        <ele>313</ele>
        <time>2022-05-17T13:18:40.553Z</time>
      </trkpt>
      <trkpt lat="49.81681" lon="4.70967">
        <ele>313</ele>
        <time>2022-05-17T13:18:41.531Z</time>
      </trkpt>
      <trkpt lat="49.81681" lon="4.70962">
        <ele>314</ele>
        <time>2022-05-17T13:18:42.551Z</time>
      </trkpt>
      <trkpt lat="49.81681" lon="4.70957">
        <ele>314</ele>
        <time>2022-05-17T13:18:43.531Z</time>
      </trkpt>
      <trkpt lat="49.81681" lon="4.70957">
        <ele>314</ele>
        <time>2022-05-17T13:18:44.540Z</time>
      </trkpt>
      <trkpt lat="49.8168" lon="4.70948">
        <ele>314</ele>
        <time>2022-05-17T13:18:45.525Z</time>
      </trkpt>
      <trkpt lat="49.81679" lon="4.70944">
        <ele>314</ele>
        <time>2022-05-17T13:18:46.540Z</time>
      </trkpt>
      <trkpt lat="49.81679" lon="4.70944">
        <ele>314</ele>
        <time>2022-05-17T13:18:47.553Z</time>
      </trkpt>
      <trkpt lat="49.81678" lon="4.70936">
        <ele>315</ele>
        <time>2022-05-17T13:18:48.529Z</time>
      </trkpt>
      <trkpt lat="49.81677" lon="4.70932">
        <ele>315</ele>
        <time>2022-05-17T13:18:49.552Z</time>
      </trkpt>
      <trkpt lat="49.81677" lon="4.70932">
        <ele>315</ele>
        <time>2022-05-17T13:18:50.524Z</time>
      </trkpt>
      <trkpt lat="49.81675" lon="4.70924">
        <ele>315</ele>
        <time>2022-05-17T13:18:51.544Z</time>
      </trkpt>
      <trkpt lat="49.81675" lon="4.70924">
        <ele>315</ele>
        <time>2022-05-17T13:18:52.550Z</time>
      </trkpt>
      <trkpt lat="49.81672" lon="4.70912">
        <ele>315</ele>
        <time>2022-05-17T13:18:53.530Z</time>
      </trkpt>
      <trkpt lat="49.81672" lon="4.70912">
        <ele>315</ele>
        <time>2022-05-17T13:18:54.556Z</time>
      </trkpt>
      <trkpt lat="49.81667" lon="4.709">
        <ele>316</ele>
        <time>2022-05-17T13:18:55.539Z</time>
      </trkpt>
      <trkpt lat="49.81667" lon="4.709">
        <ele>316</ele>
        <time>2022-05-17T13:18:56.555Z</time>
      </trkpt>
      <trkpt lat="49.81663" lon="4.70889">
        <ele>317</ele>
        <time>2022-05-17T13:18:57.535Z</time>
      </trkpt>
      <trkpt lat="49.81663" lon="4.70889">
        <ele>317</ele>
        <time>2022-05-17T13:18:58.541Z</time>
      </trkpt>
      <trkpt lat="49.8166" lon="4.70877">
        <ele>318</ele>
        <time>2022-05-17T13:18:59.560Z</time>
      </trkpt>
      <trkpt lat="49.8166" lon="4.70877">
        <ele>318</ele>
        <time>2022-05-17T13:19:00.525Z</time>
      </trkpt>
      <trkpt lat="49.81657" lon="4.70866">
        <ele>318</ele>
        <time>2022-05-17T13:19:01.541Z</time>
      </trkpt>
      <trkpt lat="49.81657" lon="4.70866">
        <ele>318</ele>
        <time>2022-05-17T13:19:02.549Z</time>
      </trkpt>
      <trkpt lat="49.81653" lon="4.70853">
        <ele>319</ele>
        <time>2022-05-17T13:19:03.563Z</time>
      </trkpt>
      <trkpt lat="49.81653" lon="4.70853">
        <ele>319</ele>
        <time>2022-05-17T13:19:04.529Z</time>
      </trkpt>
      <trkpt lat="49.8165" lon="4.70841">
        <ele>319</ele>
        <time>2022-05-17T13:19:05.554Z</time>
      </trkpt>
      <trkpt lat="49.81647" lon="4.70833">
        <ele>319</ele>
        <time>2022-05-17T13:19:06.547Z</time>
      </trkpt>
      <trkpt lat="49.81644" lon="4.70825">
        <ele>320</ele>
        <time>2022-05-17T13:19:07.525Z</time>
      </trkpt>
      <trkpt lat="49.81644" lon="4.70825">
        <ele>320</ele>
        <time>2022-05-17T13:19:08.531Z</time>
      </trkpt>
      <trkpt lat="49.81637" lon="4.7081">
        <ele>320</ele>
        <time>2022-05-17T13:19:09.555Z</time>
      </trkpt>
      <trkpt lat="49.81634" lon="4.70802">
        <ele>320</ele>
        <time>2022-05-17T13:19:10.535Z</time>
      </trkpt>
      <trkpt lat="49.81634" lon="4.70802">
        <ele>320</ele>
        <time>2022-05-17T13:19:11.541Z</time>
      </trkpt>
      <trkpt lat="49.81629" lon="4.70786">
        <ele>321</ele>
        <time>2022-05-17T13:19:12.524Z</time>
      </trkpt>
      <trkpt lat="49.81626" lon="4.70778">
        <ele>321</ele>
        <time>2022-05-17T13:19:13.542Z</time>
      </trkpt>
      <trkpt lat="49.81626" lon="4.70778">
        <ele>321</ele>
        <time>2022-05-17T13:19:14.549Z</time>
      </trkpt>
      <trkpt lat="49.81621" lon="4.70762">
        <ele>321</ele>
        <time>2022-05-17T13:19:15.525Z</time>
      </trkpt>
      <trkpt lat="49.81618" lon="4.70754">
        <ele>321</ele>
        <time>2022-05-17T13:19:16.553Z</time>
      </trkpt>
      <trkpt lat="49.81618" lon="4.70754">
        <ele>321</ele>
        <time>2022-05-17T13:19:17.558Z</time>
      </trkpt>
      <trkpt lat="49.81612" lon="4.70735">
        <ele>321</ele>
        <time>2022-05-17T13:19:18.538Z</time>
      </trkpt>
      <trkpt lat="49.8161" lon="4.70727">
        <ele>321</ele>
        <time>2022-05-17T13:19:19.526Z</time>
      </trkpt>
      <trkpt lat="49.8161" lon="4.70727">
        <ele>321</ele>
        <time>2022-05-17T13:19:20.542Z</time>
      </trkpt>
      <trkpt lat="49.81604" lon="4.70709">
        <ele>322</ele>
        <time>2022-05-17T13:19:21.545Z</time>
      </trkpt>
      <trkpt lat="49.81604" lon="4.70709">
        <ele>322</ele>
        <time>2022-05-17T13:19:22.544Z</time>
      </trkpt>
      <trkpt lat="49.81598" lon="4.70691">
        <ele>322</ele>
        <time>2022-05-17T13:19:23.535Z</time>
      </trkpt>
      <trkpt lat="49.81598" lon="4.70691">
        <ele>322</ele>
        <time>2022-05-17T13:19:24.541Z</time>
      </trkpt>
      <trkpt lat="49.81591" lon="4.70673">
        <ele>323</ele>
        <time>2022-05-17T13:19:25.554Z</time>
      </trkpt>
      <trkpt lat="49.81591" lon="4.70673">
        <ele>323</ele>
        <time>2022-05-17T13:19:26.560Z</time>
      </trkpt>
      <trkpt lat="49.81584" lon="4.70655">
        <ele>323</ele>
        <time>2022-05-17T13:19:27.543Z</time>
      </trkpt>
      <trkpt lat="49.81584" lon="4.70655">
        <ele>323</ele>
        <time>2022-05-17T13:19:28.556Z</time>
      </trkpt>
      <trkpt lat="49.81578" lon="4.70638">
        <ele>323</ele>
        <time>2022-05-17T13:19:29.542Z</time>
      </trkpt>
      <trkpt lat="49.81578" lon="4.70638">
        <ele>323</ele>
        <time>2022-05-17T13:19:30.552Z</time>
      </trkpt>
      <trkpt lat="49.81572" lon="4.70619">
        <ele>323</ele>
        <time>2022-05-17T13:19:31.530Z</time>
      </trkpt>
      <trkpt lat="49.81572" lon="4.70619">
        <ele>323</ele>
        <time>2022-05-17T13:19:32.535Z</time>
      </trkpt>
      <trkpt lat="49.81568" lon="4.706">
        <ele>323</ele>
        <time>2022-05-17T13:19:33.550Z</time>
      </trkpt>
      <trkpt lat="49.81568" lon="4.706">
        <ele>323</ele>
        <time>2022-05-17T13:19:34.556Z</time>
      </trkpt>
      <trkpt lat="49.81563" lon="4.70581">
        <ele>322</ele>
        <time>2022-05-17T13:19:35.530Z</time>
      </trkpt>
      <trkpt lat="49.81563" lon="4.70581">
        <ele>322</ele>
        <time>2022-05-17T13:19:36.536Z</time>
      </trkpt>
      <trkpt lat="49.81559" lon="4.7056">
        <ele>322</ele>
        <time>2022-05-17T13:19:37.526Z</time>
      </trkpt>
      <trkpt lat="49.81559" lon="4.7056">
        <ele>322</ele>
        <time>2022-05-17T13:19:38.532Z</time>
      </trkpt>
      <trkpt lat="49.81556" lon="4.7054">
        <ele>322</ele>
        <time>2022-05-17T13:19:39.554Z</time>
      </trkpt>
      <trkpt lat="49.81554" lon="4.7053">
        <ele>322</ele>
        <time>2022-05-17T13:19:40.534Z</time>
      </trkpt>
      <trkpt lat="49.81552" lon="4.70519">
        <ele>322</ele>
        <time>2022-05-17T13:19:41.555Z</time>
      </trkpt>
      <trkpt lat="49.81552" lon="4.70519">
        <ele>322</ele>
        <time>2022-05-17T13:19:42.561Z</time>
      </trkpt>
      <trkpt lat="49.81548" lon="4.70495">
        <ele>321</ele>
        <time>2022-05-17T13:19:43.526Z</time>
      </trkpt>
      <trkpt lat="49.81548" lon="4.70495">
        <ele>321</ele>
        <time>2022-05-17T13:19:44.531Z</time>
      </trkpt>
      <trkpt lat="49.81544" lon="4.70468">
        <ele>320</ele>
        <time>2022-05-17T13:19:45.547Z</time>
      </trkpt>
      <trkpt lat="49.81542" lon="4.70457">
        <ele>319</ele>
        <time>2022-05-17T13:19:46.529Z</time>
      </trkpt>
      <trkpt lat="49.81542" lon="4.70457">
        <ele>319</ele>
        <time>2022-05-17T13:19:47.536Z</time>
      </trkpt>
      <trkpt lat="49.81538" lon="4.70436">
        <ele>319</ele>
        <time>2022-05-17T13:19:48.559Z</time>
      </trkpt>
      <trkpt lat="49.81536" lon="4.70425">
        <ele>319</ele>
        <time>2022-05-17T13:19:49.537Z</time>
      </trkpt>
      <trkpt lat="49.81536" lon="4.70425">
        <ele>319</ele>
        <time>2022-05-17T13:19:50.555Z</time>
      </trkpt>
      <trkpt lat="49.81534" lon="4.70405">
        <ele>318</ele>
        <time>2022-05-17T13:19:51.535Z</time>
      </trkpt>
      <trkpt lat="49.81534" lon="4.70405">
        <ele>318</ele>
        <time>2022-05-17T13:19:52.540Z</time>
      </trkpt>
      <trkpt lat="49.8153" lon="4.70384">
        <ele>317</ele>
        <time>2022-05-17T13:19:53.524Z</time>
      </trkpt>
      <trkpt lat="49.81528" lon="4.70374">
        <ele>316</ele>
        <time>2022-05-17T13:19:54.547Z</time>
      </trkpt>
      <trkpt lat="49.81526" lon="4.70365">
        <ele>316</ele>
        <time>2022-05-17T13:19:55.527Z</time>
      </trkpt>
      <trkpt lat="49.81526" lon="4.70365">
        <ele>316</ele>
        <time>2022-05-17T13:19:56.532Z</time>
      </trkpt>
      <trkpt lat="49.81525" lon="4.70348">
        <ele>315</ele>
        <time>2022-05-17T13:19:57.553Z</time>
      </trkpt>
      <trkpt lat="49.81524" lon="4.7034">
        <ele>315</ele>
        <time>2022-05-17T13:19:58.528Z</time>
      </trkpt>
      <trkpt lat="49.81524" lon="4.7034">
        <ele>315</ele>
        <time>2022-05-17T13:19:59.533Z</time>
      </trkpt>
      <trkpt lat="49.81522" lon="4.70323">
        <ele>315</ele>
        <time>2022-05-17T13:20:00.525Z</time>
      </trkpt>
      <trkpt lat="49.81521" lon="4.70314">
        <ele>315</ele>
        <time>2022-05-17T13:20:01.552Z</time>
      </trkpt>
      <trkpt lat="49.81521" lon="4.70314">
        <ele>315</ele>
        <time>2022-05-17T13:20:02.558Z</time>
      </trkpt>
      <trkpt lat="49.81519" lon="4.703">
        <ele>314</ele>
        <time>2022-05-17T13:20:03.541Z</time>
      </trkpt>
      <trkpt lat="49.81518" lon="4.70293">
        <ele>314</ele>
        <time>2022-05-17T13:20:04.558Z</time>
      </trkpt>
      <trkpt lat="49.81518" lon="4.70293">
        <ele>314</ele>
        <time>2022-05-17T13:20:05.563Z</time>
      </trkpt>
      <trkpt lat="49.81519" lon="4.70283">
        <ele>314</ele>
        <time>2022-05-17T13:20:06.550Z</time>
      </trkpt>
      <trkpt lat="49.81519" lon="4.70277">
        <ele>314</ele>
        <time>2022-05-17T13:20:07.537Z</time>
      </trkpt>
      <trkpt lat="49.81519" lon="4.70277">
        <ele>314</ele>
        <time>2022-05-17T13:20:08.543Z</time>
      </trkpt>
      <trkpt lat="49.81517" lon="4.70263">
        <ele>313</ele>
        <time>2022-05-17T13:20:09.531Z</time>
      </trkpt>
      <trkpt lat="49.81517" lon="4.70263">
        <ele>313</ele>
        <time>2022-05-17T13:20:10.537Z</time>
      </trkpt>
      <trkpt lat="49.81514" lon="4.70249">
        <ele>313</ele>
        <time>2022-05-17T13:20:11.558Z</time>
      </trkpt>
      <trkpt lat="49.81513" lon="4.7024">
        <ele>313</ele>
        <time>2022-05-17T13:20:12.534Z</time>
      </trkpt>
      <trkpt lat="49.81513" lon="4.70231">
        <ele>313</ele>
        <time>2022-05-17T13:20:13.555Z</time>
      </trkpt>
      <trkpt lat="49.81513" lon="4.70231">
        <ele>313</ele>
        <time>2022-05-17T13:20:14.561Z</time>
      </trkpt>
      <trkpt lat="49.81513" lon="4.70216">
        <ele>313</ele>
        <time>2022-05-17T13:20:15.555Z</time>
      </trkpt>
      <trkpt lat="49.81513" lon="4.70209">
        <ele>313</ele>
        <time>2022-05-17T13:20:16.537Z</time>
      </trkpt>
      <trkpt lat="49.81513" lon="4.70209">
        <ele>313</ele>
        <time>2022-05-17T13:20:17.544Z</time>
      </trkpt>
      <trkpt lat="49.81512" lon="4.702">
        <ele>312</ele>
        <time>2022-05-17T13:20:18.525Z</time>
      </trkpt>
      <trkpt lat="49.81511" lon="4.70198">
        <ele>312</ele>
        <time>2022-05-17T13:20:19.540Z</time>
      </trkpt>
      <trkpt lat="49.81511" lon="4.70198">
        <ele>312</ele>
        <time>2022-05-17T13:20:20.555Z</time>
      </trkpt>
      <trkpt lat="49.81507" lon="4.70194">
        <ele>312</ele>
        <time>2022-05-17T13:20:21.543Z</time>
      </trkpt>
      <trkpt lat="49.81506" lon="4.7019">
        <ele>312</ele>
        <time>2022-05-17T13:20:22.557Z</time>
      </trkpt>
      <trkpt lat="49.81507" lon="4.70184">
        <ele>311</ele>
        <time>2022-05-17T13:20:23.533Z</time>
      </trkpt>
      <trkpt lat="49.81507" lon="4.70184">
        <ele>311</ele>
        <time>2022-05-17T13:20:24.539Z</time>
      </trkpt>
      <trkpt lat="49.81509" lon="4.70172">
        <ele>310</ele>
        <time>2022-05-17T13:20:25.541Z</time>
      </trkpt>
      <trkpt lat="49.81509" lon="4.70172">
        <ele>310</ele>
        <time>2022-05-17T13:20:26.555Z</time>
      </trkpt>
      <trkpt lat="49.8151" lon="4.7016">
        <ele>310</ele>
        <time>2022-05-17T13:20:27.540Z</time>
      </trkpt>
      <trkpt lat="49.81509" lon="4.70154">
        <ele>310</ele>
        <time>2022-05-17T13:20:28.524Z</time>
      </trkpt>
      <trkpt lat="49.81509" lon="4.70154">
        <ele>310</ele>
        <time>2022-05-17T13:20:29.530Z</time>
      </trkpt>
      <trkpt lat="49.81507" lon="4.70141">
        <ele>309</ele>
        <time>2022-05-17T13:20:30.525Z</time>
      </trkpt>
      <trkpt lat="49.81506" lon="4.70135">
        <ele>309</ele>
        <time>2022-05-17T13:20:31.559Z</time>
      </trkpt>
      <trkpt lat="49.81506" lon="4.70135">
        <ele>309</ele>
        <time>2022-05-17T13:20:32.525Z</time>
      </trkpt>
      <trkpt lat="49.81504" lon="4.70124">
        <ele>309</ele>
        <time>2022-05-17T13:20:33.543Z</time>
      </trkpt>
      <trkpt lat="49.81504" lon="4.70124">
        <ele>309</ele>
        <time>2022-05-17T13:20:34.553Z</time>
      </trkpt>
      <trkpt lat="49.815" lon="4.70113">
        <ele>309</ele>
        <time>2022-05-17T13:20:35.534Z</time>
      </trkpt>
      <trkpt lat="49.815" lon="4.70113">
        <ele>309</ele>
        <time>2022-05-17T13:20:36.539Z</time>
      </trkpt>
      <trkpt lat="49.81491" lon="4.701">
        <ele>309</ele>
        <time>2022-05-17T13:20:37.555Z</time>
      </trkpt>
      <trkpt lat="49.81491" lon="4.701">
        <ele>309</ele>
        <time>2022-05-17T13:20:38.527Z</time>
      </trkpt>
      <trkpt lat="49.81481" lon="4.70086">
        <ele>309</ele>
        <time>2022-05-17T13:20:39.548Z</time>
      </trkpt>
      <trkpt lat="49.81481" lon="4.70086">
        <ele>309</ele>
        <time>2022-05-17T13:20:40.554Z</time>
      </trkpt>
      <trkpt lat="49.81469" lon="4.70071">
        <ele>309</ele>
        <time>2022-05-17T13:20:41.535Z</time>
      </trkpt>
      <trkpt lat="49.81469" lon="4.70071">
        <ele>309</ele>
        <time>2022-05-17T13:20:42.541Z</time>
      </trkpt>
      <trkpt lat="49.81456" lon="4.70051">
        <ele>308</ele>
        <time>2022-05-17T13:20:43.561Z</time>
      </trkpt>
      <trkpt lat="49.81456" lon="4.70051">
        <ele>308</ele>
        <time>2022-05-17T13:20:44.545Z</time>
      </trkpt>
      <trkpt lat="49.81445" lon="4.70037">
        <ele>308</ele>
        <time>2022-05-17T13:20:45.558Z</time>
      </trkpt>
      <trkpt lat="49.81445" lon="4.70037">
        <ele>308</ele>
        <time>2022-05-17T13:20:46.524Z</time>
      </trkpt>
      <trkpt lat="49.81433" lon="4.70023">
        <ele>307</ele>
        <time>2022-05-17T13:20:47.553Z</time>
      </trkpt>
      <trkpt lat="49.81427" lon="4.70015">
        <ele>307</ele>
        <time>2022-05-17T13:20:48.528Z</time>
      </trkpt>
      <trkpt lat="49.81421" lon="4.70007">
        <ele>307</ele>
        <time>2022-05-17T13:20:49.545Z</time>
      </trkpt>
      <trkpt lat="49.81421" lon="4.70007">
        <ele>307</ele>
        <time>2022-05-17T13:20:50.557Z</time>
      </trkpt>
      <trkpt lat="49.81409" lon="4.69994">
        <ele>307</ele>
        <time>2022-05-17T13:20:51.538Z</time>
      </trkpt>
      <trkpt lat="49.81409" lon="4.69994">
        <ele>307</ele>
        <time>2022-05-17T13:20:52.544Z</time>
      </trkpt>
      <trkpt lat="49.81399" lon="4.6998">
        <ele>306</ele>
        <time>2022-05-17T13:20:53.532Z</time>
      </trkpt>
      <trkpt lat="49.81392" lon="4.69973">
        <ele>306</ele>
        <time>2022-05-17T13:20:54.540Z</time>
      </trkpt>
      <trkpt lat="49.81392" lon="4.69973">
        <ele>306</ele>
        <time>2022-05-17T13:20:55.545Z</time>
      </trkpt>
      <trkpt lat="49.8138" lon="4.69959">
        <ele>306</ele>
        <time>2022-05-17T13:20:56.535Z</time>
      </trkpt>
      <trkpt lat="49.8138" lon="4.69959">
        <ele>306</ele>
        <time>2022-05-17T13:20:57.540Z</time>
      </trkpt>
      <trkpt lat="49.81366" lon="4.69943">
        <ele>305</ele>
        <time>2022-05-17T13:20:58.528Z</time>
      </trkpt>
      <trkpt lat="49.8136" lon="4.69935">
        <ele>305</ele>
        <time>2022-05-17T13:20:59.561Z</time>
      </trkpt>
      <trkpt lat="49.8136" lon="4.69935">
        <ele>305</ele>
        <time>2022-05-17T13:21:00.526Z</time>
      </trkpt>
      <trkpt lat="49.81347" lon="4.6992">
        <ele>304</ele>
        <time>2022-05-17T13:21:01.554Z</time>
      </trkpt>
      <trkpt lat="49.81347" lon="4.6992">
        <ele>304</ele>
        <time>2022-05-17T13:21:02.560Z</time>
      </trkpt>
      <trkpt lat="49.81335" lon="4.69905">
        <ele>304</ele>
        <time>2022-05-17T13:21:03.555Z</time>
      </trkpt>
      <trkpt lat="49.8133" lon="4.69898">
        <ele>304</ele>
        <time>2022-05-17T13:21:04.539Z</time>
      </trkpt>
      <trkpt lat="49.8133" lon="4.69898">
        <ele>304</ele>
        <time>2022-05-17T13:21:05.545Z</time>
      </trkpt>
      <trkpt lat="49.8132" lon="4.6988">
        <ele>303</ele>
        <time>2022-05-17T13:21:06.526Z</time>
      </trkpt>
      <trkpt lat="49.81318" lon="4.69872">
        <ele>303</ele>
        <time>2022-05-17T13:21:07.546Z</time>
      </trkpt>
      <trkpt lat="49.81318" lon="4.69872">
        <ele>303</ele>
        <time>2022-05-17T13:21:08.555Z</time>
      </trkpt>
      <trkpt lat="49.81316" lon="4.69856">
        <ele>303</ele>
        <time>2022-05-17T13:21:09.531Z</time>
      </trkpt>
      <trkpt lat="49.81316" lon="4.69856">
        <ele>303</ele>
        <time>2022-05-17T13:21:10.537Z</time>
      </trkpt>
      <trkpt lat="49.81315" lon="4.69843">
        <ele>303</ele>
        <time>2022-05-17T13:21:11.555Z</time>
      </trkpt>
      <trkpt lat="49.81315" lon="4.69843">
        <ele>303</ele>
        <time>2022-05-17T13:21:12.561Z</time>
      </trkpt>
      <trkpt lat="49.81316" lon="4.69824">
        <ele>303</ele>
        <time>2022-05-17T13:21:13.563Z</time>
      </trkpt>
      <trkpt lat="49.81316" lon="4.69824">
        <ele>303</ele>
        <time>2022-05-17T13:21:14.529Z</time>
      </trkpt>
      <trkpt lat="49.81316" lon="4.69809">
        <ele>302</ele>
        <time>2022-05-17T13:21:15.549Z</time>
      </trkpt>
      <trkpt lat="49.81315" lon="4.69799">
        <ele>302</ele>
        <time>2022-05-17T13:21:16.535Z</time>
      </trkpt>
      <trkpt lat="49.81314" lon="4.69788">
        <ele>301</ele>
        <time>2022-05-17T13:21:17.550Z</time>
      </trkpt>
      <trkpt lat="49.81314" lon="4.69788">
        <ele>301</ele>
        <time>2022-05-17T13:21:18.555Z</time>
      </trkpt>
      <trkpt lat="49.81314" lon="4.69769">
        <ele>301</ele>
        <time>2022-05-17T13:21:19.546Z</time>
      </trkpt>
      <trkpt lat="49.81314" lon="4.69769">
        <ele>301</ele>
        <time>2022-05-17T13:21:20.556Z</time>
      </trkpt>
      <trkpt lat="49.81313" lon="4.69749">
        <ele>301</ele>
        <time>2022-05-17T13:21:21.548Z</time>
      </trkpt>
      <trkpt lat="49.81313" lon="4.69749">
        <ele>301</ele>
        <time>2022-05-17T13:21:22.546Z</time>
      </trkpt>
      <trkpt lat="49.81312" lon="4.6973">
        <ele>300</ele>
        <time>2022-05-17T13:21:23.558Z</time>
      </trkpt>
      <trkpt lat="49.81312" lon="4.6973">
        <ele>300</ele>
        <time>2022-05-17T13:21:24.524Z</time>
      </trkpt>
      <trkpt lat="49.81311" lon="4.69711">
        <ele>299</ele>
        <time>2022-05-17T13:21:25.549Z</time>
      </trkpt>
      <trkpt lat="49.81311" lon="4.69711">
        <ele>299</ele>
        <time>2022-05-17T13:21:26.555Z</time>
      </trkpt>
      <trkpt lat="49.81307" lon="4.6969">
        <ele>298</ele>
        <time>2022-05-17T13:21:27.558Z</time>
      </trkpt>
      <trkpt lat="49.81305" lon="4.69679">
        <ele>298</ele>
        <time>2022-05-17T13:21:28.562Z</time>
      </trkpt>
      <trkpt lat="49.81305" lon="4.69679">
        <ele>298</ele>
        <time>2022-05-17T13:21:29.527Z</time>
      </trkpt>
      <trkpt lat="49.81298" lon="4.69655">
        <ele>296</ele>
        <time>2022-05-17T13:21:30.552Z</time>
      </trkpt>
      <trkpt lat="49.81293" lon="4.69642">
        <ele>295</ele>
        <time>2022-05-17T13:21:31.531Z</time>
      </trkpt>
      <trkpt lat="49.81293" lon="4.69642">
        <ele>295</ele>
        <time>2022-05-17T13:21:32.536Z</time>
      </trkpt>
      <trkpt lat="49.81284" lon="4.69615">
        <ele>293</ele>
        <time>2022-05-17T13:21:33.546Z</time>
      </trkpt>
      <trkpt lat="49.81279" lon="4.69603">
        <ele>292</ele>
        <time>2022-05-17T13:21:34.543Z</time>
      </trkpt>
      <trkpt lat="49.81279" lon="4.69603">
        <ele>292</ele>
        <time>2022-05-17T13:21:35.556Z</time>
      </trkpt>
      <trkpt lat="49.81267" lon="4.69581">
        <ele>290</ele>
        <time>2022-05-17T13:21:36.548Z</time>
      </trkpt>
      <trkpt lat="49.8126" lon="4.69572">
        <ele>289</ele>
        <time>2022-05-17T13:21:37.553Z</time>
      </trkpt>
      <trkpt lat="49.8126" lon="4.69572">
        <ele>289</ele>
        <time>2022-05-17T13:21:38.558Z</time>
      </trkpt>
      <trkpt lat="49.81248" lon="4.69555">
        <ele>287</ele>
        <time>2022-05-17T13:21:39.539Z</time>
      </trkpt>
      <trkpt lat="49.81248" lon="4.69555">
        <ele>287</ele>
        <time>2022-05-17T13:21:40.555Z</time>
      </trkpt>
      <trkpt lat="49.81235" lon="4.69539">
        <ele>285</ele>
        <time>2022-05-17T13:21:41.536Z</time>
      </trkpt>
      <trkpt lat="49.81235" lon="4.69539">
        <ele>285</ele>
        <time>2022-05-17T13:21:42.546Z</time>
      </trkpt>
      <trkpt lat="49.81224" lon="4.69526">
        <ele>284</ele>
        <time>2022-05-17T13:21:43.533Z</time>
      </trkpt>
      <trkpt lat="49.81224" lon="4.69526">
        <ele>284</ele>
        <time>2022-05-17T13:21:44.538Z</time>
      </trkpt>
      <trkpt lat="49.81214" lon="4.69514">
        <ele>282</ele>
        <time>2022-05-17T13:21:45.558Z</time>
      </trkpt>
      <trkpt lat="49.81214" lon="4.69514">
        <ele>282</ele>
        <time>2022-05-17T13:21:46.525Z</time>
      </trkpt>
      <trkpt lat="49.81204" lon="4.69503">
        <ele>280</ele>
        <time>2022-05-17T13:21:47.538Z</time>
      </trkpt>
      <trkpt lat="49.81204" lon="4.69503">
        <ele>280</ele>
        <time>2022-05-17T13:21:48.544Z</time>
      </trkpt>
      <trkpt lat="49.81194" lon="4.6949">
        <ele>279</ele>
        <time>2022-05-17T13:21:49.561Z</time>
      </trkpt>
      <trkpt lat="49.81194" lon="4.6949">
        <ele>279</ele>
        <time>2022-05-17T13:21:50.525Z</time>
      </trkpt>
      <trkpt lat="49.81183" lon="4.69477">
        <ele>277</ele>
        <time>2022-05-17T13:21:51.539Z</time>
      </trkpt>
      <trkpt lat="49.81183" lon="4.69477">
        <ele>277</ele>
        <time>2022-05-17T13:21:52.552Z</time>
      </trkpt>
      <trkpt lat="49.81171" lon="4.69463">
        <ele>276</ele>
        <time>2022-05-17T13:21:53.535Z</time>
      </trkpt>
      <trkpt lat="49.81171" lon="4.69463">
        <ele>276</ele>
        <time>2022-05-17T13:21:54.540Z</time>
      </trkpt>
      <trkpt lat="49.81161" lon="4.6945">
        <ele>274</ele>
        <time>2022-05-17T13:21:55.525Z</time>
      </trkpt>
      <trkpt lat="49.81161" lon="4.6945">
        <ele>274</ele>
        <time>2022-05-17T13:21:56.530Z</time>
      </trkpt>
      <trkpt lat="49.81151" lon="4.6944">
        <ele>273</ele>
        <time>2022-05-17T13:21:57.545Z</time>
      </trkpt>
      <trkpt lat="49.81147" lon="4.69435">
        <ele>273</ele>
        <time>2022-05-17T13:21:58.529Z</time>
      </trkpt>
      <trkpt lat="49.81143" lon="4.69431">
        <ele>272</ele>
        <time>2022-05-17T13:21:59.550Z</time>
      </trkpt>
      <trkpt lat="49.81143" lon="4.69431">
        <ele>272</ele>
        <time>2022-05-17T13:22:00.557Z</time>
      </trkpt>
      <trkpt lat="49.81135" lon="4.69423">
        <ele>271</ele>
        <time>2022-05-17T13:22:01.539Z</time>
      </trkpt>
      <trkpt lat="49.81135" lon="4.69423">
        <ele>271</ele>
        <time>2022-05-17T13:22:02.552Z</time>
      </trkpt>
      <trkpt lat="49.81126" lon="4.69411">
        <ele>270</ele>
        <time>2022-05-17T13:22:03.531Z</time>
      </trkpt>
      <trkpt lat="49.81122" lon="4.69405">
        <ele>269</ele>
        <time>2022-05-17T13:22:04.544Z</time>
      </trkpt>
      <trkpt lat="49.81122" lon="4.69405">
        <ele>269</ele>
        <time>2022-05-17T13:22:05.554Z</time>
      </trkpt>
      <trkpt lat="49.81115" lon="4.69392">
        <ele>268</ele>
        <time>2022-05-17T13:22:06.541Z</time>
      </trkpt>
      <trkpt lat="49.81112" lon="4.69386">
        <ele>268</ele>
        <time>2022-05-17T13:22:07.555Z</time>
      </trkpt>
      <trkpt lat="49.81112" lon="4.69386">
        <ele>268</ele>
        <time>2022-05-17T13:22:08.560Z</time>
      </trkpt>
      <trkpt lat="49.81107" lon="4.69377">
        <ele>267</ele>
        <time>2022-05-17T13:22:09.541Z</time>
      </trkpt>
      <trkpt lat="49.81107" lon="4.69377">
        <ele>267</ele>
        <time>2022-05-17T13:22:10.551Z</time>
      </trkpt>
      <trkpt lat="49.81102" lon="4.69367">
        <ele>267</ele>
        <time>2022-05-17T13:22:11.524Z</time>
      </trkpt>
      <trkpt lat="49.81099" lon="4.69361">
        <ele>266</ele>
        <time>2022-05-17T13:22:12.541Z</time>
      </trkpt>
      <trkpt lat="49.81096" lon="4.69356">
        <ele>266</ele>
        <time>2022-05-17T13:22:13.530Z</time>
      </trkpt>
      <trkpt lat="49.81096" lon="4.69356">
        <ele>266</ele>
        <time>2022-05-17T13:22:14.534Z</time>
      </trkpt>
      <trkpt lat="49.81089" lon="4.69345">
        <ele>265</ele>
        <time>2022-05-17T13:22:15.557Z</time>
      </trkpt>
      <trkpt lat="49.81089" lon="4.69345">
        <ele>265</ele>
        <time>2022-05-17T13:22:16.563Z</time>
      </trkpt>
      <trkpt lat="49.81082" lon="4.69334">
        <ele>264</ele>
        <time>2022-05-17T13:22:17.541Z</time>
      </trkpt>
      <trkpt lat="49.81078" lon="4.69329">
        <ele>264</ele>
        <time>2022-05-17T13:22:18.558Z</time>
      </trkpt>
      <trkpt lat="49.81074" lon="4.69323">
        <ele>264</ele>
        <time>2022-05-17T13:22:19.547Z</time>
      </trkpt>
      <trkpt lat="49.81074" lon="4.69323">
        <ele>264</ele>
        <time>2022-05-17T13:22:20.555Z</time>
      </trkpt>
      <trkpt lat="49.81067" lon="4.69312">
        <ele>263</ele>
        <time>2022-05-17T13:22:21.530Z</time>
      </trkpt>
      <trkpt lat="49.81067" lon="4.69312">
        <ele>263</ele>
        <time>2022-05-17T13:22:22.531Z</time>
      </trkpt>
      <trkpt lat="49.8106" lon="4.69301">
        <ele>263</ele>
        <time>2022-05-17T13:22:23.545Z</time>
      </trkpt>
      <trkpt lat="49.8106" lon="4.69301">
        <ele>263</ele>
        <time>2022-05-17T13:22:24.554Z</time>
      </trkpt>
      <trkpt lat="49.81054" lon="4.6929">
        <ele>262</ele>
        <time>2022-05-17T13:22:25.549Z</time>
      </trkpt>
      <trkpt lat="49.81054" lon="4.6929">
        <ele>262</ele>
        <time>2022-05-17T13:22:26.554Z</time>
      </trkpt>
      <trkpt lat="49.81049" lon="4.69279">
        <ele>262</ele>
        <time>2022-05-17T13:22:27.533Z</time>
      </trkpt>
      <trkpt lat="49.81047" lon="4.69273">
        <ele>261</ele>
        <time>2022-05-17T13:22:28.553Z</time>
      </trkpt>
      <trkpt lat="49.81044" lon="4.69268">
        <ele>261</ele>
        <time>2022-05-17T13:22:29.534Z</time>
      </trkpt>
      <trkpt lat="49.81044" lon="4.69268">
        <ele>261</ele>
        <time>2022-05-17T13:22:30.560Z</time>
      </trkpt>
      <trkpt lat="49.81039" lon="4.69259">
        <ele>261</ele>
        <time>2022-05-17T13:22:31.535Z</time>
      </trkpt>
      <trkpt lat="49.81039" lon="4.69259">
        <ele>261</ele>
        <time>2022-05-17T13:22:32.541Z</time>
      </trkpt>
      <trkpt lat="49.81034" lon="4.69249">
        <ele>260</ele>
        <time>2022-05-17T13:22:33.533Z</time>
      </trkpt>
      <trkpt lat="49.81034" lon="4.69249">
        <ele>260</ele>
        <time>2022-05-17T13:22:34.538Z</time>
      </trkpt>
      <trkpt lat="49.8103" lon="4.69239">
        <ele>260</ele>
        <time>2022-05-17T13:22:35.553Z</time>
      </trkpt>
      <trkpt lat="49.8103" lon="4.69239">
        <ele>260</ele>
        <time>2022-05-17T13:22:36.560Z</time>
      </trkpt>
      <trkpt lat="49.81024" lon="4.69231">
        <ele>260</ele>
        <time>2022-05-17T13:22:37.543Z</time>
      </trkpt>
      <trkpt lat="49.81024" lon="4.69231">
        <ele>260</ele>
        <time>2022-05-17T13:22:38.548Z</time>
      </trkpt>
      <trkpt lat="49.81018" lon="4.69224">
        <ele>259</ele>
        <time>2022-05-17T13:22:39.535Z</time>
      </trkpt>
      <trkpt lat="49.81018" lon="4.69224">
        <ele>259</ele>
        <time>2022-05-17T13:22:40.556Z</time>
      </trkpt>
      <trkpt lat="49.81012" lon="4.69216">
        <ele>259</ele>
        <time>2022-05-17T13:22:41.539Z</time>
      </trkpt>
      <trkpt lat="49.81012" lon="4.69216">
        <ele>259</ele>
        <time>2022-05-17T13:22:42.546Z</time>
      </trkpt>
      <trkpt lat="49.81005" lon="4.69208">
        <ele>259</ele>
        <time>2022-05-17T13:22:43.524Z</time>
      </trkpt>
      <trkpt lat="49.81002" lon="4.69205">
        <ele>259</ele>
        <time>2022-05-17T13:22:44.535Z</time>
      </trkpt>
      <trkpt lat="49.81002" lon="4.69205">
        <ele>259</ele>
        <time>2022-05-17T13:22:45.547Z</time>
      </trkpt>
      <trkpt lat="49.80995" lon="4.69197">
        <ele>259</ele>
        <time>2022-05-17T13:22:46.525Z</time>
      </trkpt>
      <trkpt lat="49.80995" lon="4.69197">
        <ele>259</ele>
        <time>2022-05-17T13:22:47.530Z</time>
      </trkpt>
      <trkpt lat="49.80988" lon="4.69191">
        <ele>259</ele>
        <time>2022-05-17T13:22:48.547Z</time>
      </trkpt>
      <trkpt lat="49.80985" lon="4.69188">
        <ele>259</ele>
        <time>2022-05-17T13:22:49.524Z</time>
      </trkpt>
      <trkpt lat="49.80985" lon="4.69188">
        <ele>259</ele>
        <time>2022-05-17T13:22:50.529Z</time>
      </trkpt>
      <trkpt lat="49.80977" lon="4.6918">
        <ele>259</ele>
        <time>2022-05-17T13:22:51.542Z</time>
      </trkpt>
      <trkpt lat="49.80977" lon="4.6918">
        <ele>259</ele>
        <time>2022-05-17T13:22:52.549Z</time>
      </trkpt>
      <trkpt lat="49.80969" lon="4.69171">
        <ele>259</ele>
        <time>2022-05-17T13:22:53.530Z</time>
      </trkpt>
      <trkpt lat="49.80966" lon="4.69166">
        <ele>259</ele>
        <time>2022-05-17T13:22:54.550Z</time>
      </trkpt>
      <trkpt lat="49.80962" lon="4.69161">
        <ele>259</ele>
        <time>2022-05-17T13:22:55.529Z</time>
      </trkpt>
      <trkpt lat="49.80962" lon="4.69161">
        <ele>259</ele>
        <time>2022-05-17T13:22:56.536Z</time>
      </trkpt>
      <trkpt lat="49.80956" lon="4.69151">
        <ele>259</ele>
        <time>2022-05-17T13:22:57.552Z</time>
      </trkpt>
      <trkpt lat="49.80956" lon="4.69151">
        <ele>259</ele>
        <time>2022-05-17T13:22:58.558Z</time>
      </trkpt>
      <trkpt lat="49.80949" lon="4.69141">
        <ele>259</ele>
        <time>2022-05-17T13:22:59.535Z</time>
      </trkpt>
      <trkpt lat="49.80949" lon="4.69141">
        <ele>259</ele>
        <time>2022-05-17T13:23:00.552Z</time>
      </trkpt>
      <trkpt lat="49.80943" lon="4.69131">
        <ele>259</ele>
        <time>2022-05-17T13:23:01.531Z</time>
      </trkpt>
      <trkpt lat="49.80943" lon="4.69131">
        <ele>259</ele>
        <time>2022-05-17T13:23:02.537Z</time>
      </trkpt>
      <trkpt lat="49.80936" lon="4.6912">
        <ele>260</ele>
        <time>2022-05-17T13:23:03.555Z</time>
      </trkpt>
      <trkpt lat="49.80936" lon="4.6912">
        <ele>260</ele>
        <time>2022-05-17T13:23:04.527Z</time>
      </trkpt>
      <trkpt lat="49.80931" lon="4.69108">
        <ele>260</ele>
        <time>2022-05-17T13:23:05.548Z</time>
      </trkpt>
      <trkpt lat="49.80931" lon="4.69108">
        <ele>260</ele>
        <time>2022-05-17T13:23:06.554Z</time>
      </trkpt>
      <trkpt lat="49.80925" lon="4.69097">
        <ele>260</ele>
        <time>2022-05-17T13:23:07.534Z</time>
      </trkpt>
      <trkpt lat="49.80922" lon="4.69091">
        <ele>260</ele>
        <time>2022-05-17T13:23:08.555Z</time>
      </trkpt>
      <trkpt lat="49.80922" lon="4.69091">
        <ele>260</ele>
        <time>2022-05-17T13:23:09.562Z</time>
      </trkpt>
      <trkpt lat="49.80915" lon="4.69079">
        <ele>260</ele>
        <time>2022-05-17T13:23:10.527Z</time>
      </trkpt>
      <trkpt lat="49.80912" lon="4.69074">
        <ele>259</ele>
        <time>2022-05-17T13:23:11.553Z</time>
      </trkpt>
      <trkpt lat="49.80912" lon="4.69074">
        <ele>259</ele>
        <time>2022-05-17T13:23:12.560Z</time>
      </trkpt>
      <trkpt lat="49.80905" lon="4.69061">
        <ele>259</ele>
        <time>2022-05-17T13:23:13.542Z</time>
      </trkpt>
      <trkpt lat="49.80905" lon="4.69061">
        <ele>259</ele>
        <time>2022-05-17T13:23:14.548Z</time>
      </trkpt>
      <trkpt lat="49.80898" lon="4.69048">
        <ele>259</ele>
        <time>2022-05-17T13:23:15.533Z</time>
      </trkpt>
      <trkpt lat="49.80898" lon="4.69048">
        <ele>259</ele>
        <time>2022-05-17T13:23:16.538Z</time>
      </trkpt>
      <trkpt lat="49.80889" lon="4.69037">
        <ele>259</ele>
        <time>2022-05-17T13:23:17.552Z</time>
      </trkpt>
      <trkpt lat="49.80889" lon="4.69037">
        <ele>259</ele>
        <time>2022-05-17T13:23:18.558Z</time>
      </trkpt>
      <trkpt lat="49.80879" lon="4.69026">
        <ele>259</ele>
        <time>2022-05-17T13:23:19.535Z</time>
      </trkpt>
      <trkpt lat="49.80879" lon="4.69026">
        <ele>259</ele>
        <time>2022-05-17T13:23:20.556Z</time>
      </trkpt>
      <trkpt lat="49.80867" lon="4.69015">
        <ele>259</ele>
        <time>2022-05-17T13:23:21.555Z</time>
      </trkpt>
      <trkpt lat="49.80867" lon="4.69015">
        <ele>259</ele>
        <time>2022-05-17T13:23:22.526Z</time>
      </trkpt>
      <trkpt lat="49.80854" lon="4.69005">
        <ele>258</ele>
        <time>2022-05-17T13:23:23.546Z</time>
      </trkpt>
      <trkpt lat="49.80848" lon="4.69">
        <ele>258</ele>
        <time>2022-05-17T13:23:24.544Z</time>
      </trkpt>
      <trkpt lat="49.80848" lon="4.69">
        <ele>258</ele>
        <time>2022-05-17T13:23:25.557Z</time>
      </trkpt>
      <trkpt lat="49.80835" lon="4.68989">
        <ele>257</ele>
        <time>2022-05-17T13:23:26.551Z</time>
      </trkpt>
      <trkpt lat="49.80835" lon="4.68989">
        <ele>257</ele>
        <time>2022-05-17T13:23:27.556Z</time>
      </trkpt>
      <trkpt lat="49.80821" lon="4.68978">
        <ele>256</ele>
        <time>2022-05-17T13:23:28.537Z</time>
      </trkpt>
      <trkpt lat="49.80815" lon="4.68972">
        <ele>255</ele>
        <time>2022-05-17T13:23:29.552Z</time>
      </trkpt>
      <trkpt lat="49.80815" lon="4.68972">
        <ele>255</ele>
        <time>2022-05-17T13:23:30.557Z</time>
      </trkpt>
      <trkpt lat="49.80802" lon="4.68958">
        <ele>253</ele>
        <time>2022-05-17T13:23:31.543Z</time>
      </trkpt>
      <trkpt lat="49.80802" lon="4.68958">
        <ele>253</ele>
        <time>2022-05-17T13:23:32.555Z</time>
      </trkpt>
      <trkpt lat="49.80789" lon="4.68942">
        <ele>252</ele>
        <time>2022-05-17T13:23:33.553Z</time>
      </trkpt>
      <trkpt lat="49.80783" lon="4.68934">
        <ele>251</ele>
        <time>2022-05-17T13:23:34.561Z</time>
      </trkpt>
      <trkpt lat="49.80783" lon="4.68934">
        <ele>251</ele>
        <time>2022-05-17T13:23:35.527Z</time>
      </trkpt>
      <trkpt lat="49.80769" lon="4.68917">
        <ele>250</ele>
        <time>2022-05-17T13:23:36.543Z</time>
      </trkpt>
      <trkpt lat="49.80762" lon="4.68908">
        <ele>249</ele>
        <time>2022-05-17T13:23:37.559Z</time>
      </trkpt>
      <trkpt lat="49.80762" lon="4.68908">
        <ele>249</ele>
        <time>2022-05-17T13:23:38.525Z</time>
      </trkpt>
      <trkpt lat="49.80749" lon="4.6889">
        <ele>247</ele>
        <time>2022-05-17T13:23:39.545Z</time>
      </trkpt>
      <trkpt lat="49.80749" lon="4.6889">
        <ele>247</ele>
        <time>2022-05-17T13:23:40.560Z</time>
      </trkpt>
      <trkpt lat="49.80736" lon="4.68872">
        <ele>246</ele>
        <time>2022-05-17T13:23:41.545Z</time>
      </trkpt>
      <trkpt lat="49.80736" lon="4.68872">
        <ele>246</ele>
        <time>2022-05-17T13:23:42.551Z</time>
      </trkpt>
      <trkpt lat="49.80723" lon="4.68855">
        <ele>245</ele>
        <time>2022-05-17T13:23:43.532Z</time>
      </trkpt>
      <trkpt lat="49.80723" lon="4.68855">
        <ele>245</ele>
        <time>2022-05-17T13:23:44.537Z</time>
      </trkpt>
      <trkpt lat="49.80711" lon="4.68838">
        <ele>243</ele>
        <time>2022-05-17T13:23:45.532Z</time>
      </trkpt>
      <trkpt lat="49.80711" lon="4.68838">
        <ele>243</ele>
        <time>2022-05-17T13:23:46.538Z</time>
      </trkpt>
      <trkpt lat="49.807" lon="4.68822">
        <ele>242</ele>
        <time>2022-05-17T13:23:47.558Z</time>
      </trkpt>
      <trkpt lat="49.80693" lon="4.68814">
        <ele>241</ele>
        <time>2022-05-17T13:23:48.536Z</time>
      </trkpt>
      <trkpt lat="49.80693" lon="4.68814">
        <ele>241</ele>
        <time>2022-05-17T13:23:49.541Z</time>
      </trkpt>
      <trkpt lat="49.80682" lon="4.68799">
        <ele>239</ele>
        <time>2022-05-17T13:23:50.556Z</time>
      </trkpt>
      <trkpt lat="49.80682" lon="4.68799">
        <ele>239</ele>
        <time>2022-05-17T13:23:51.561Z</time>
      </trkpt>
      <trkpt lat="49.80672" lon="4.68786">
        <ele>238</ele>
        <time>2022-05-17T13:23:52.549Z</time>
      </trkpt>
      <trkpt lat="49.80672" lon="4.68786">
        <ele>238</ele>
        <time>2022-05-17T13:23:53.555Z</time>
      </trkpt>
      <trkpt lat="49.80665" lon="4.68773">
        <ele>237</ele>
        <time>2022-05-17T13:23:54.532Z</time>
      </trkpt>
      <trkpt lat="49.80663" lon="4.68767">
        <ele>237</ele>
        <time>2022-05-17T13:23:55.524Z</time>
      </trkpt>
      <trkpt lat="49.80663" lon="4.68767">
        <ele>237</ele>
        <time>2022-05-17T13:23:56.529Z</time>
      </trkpt>
      <trkpt lat="49.80663" lon="4.68754">
        <ele>236</ele>
        <time>2022-05-17T13:23:57.554Z</time>
      </trkpt>
      <trkpt lat="49.80664" lon="4.68748">
        <ele>236</ele>
        <time>2022-05-17T13:23:58.540Z</time>
      </trkpt>
      <trkpt lat="49.80664" lon="4.68748">
        <ele>236</ele>
        <time>2022-05-17T13:23:59.551Z</time>
      </trkpt>
      <trkpt lat="49.80668" lon="4.68738">
        <ele>235</ele>
        <time>2022-05-17T13:24:00.543Z</time>
      </trkpt>
      <trkpt lat="49.8067" lon="4.68733">
        <ele>235</ele>
        <time>2022-05-17T13:24:01.558Z</time>
      </trkpt>
      <trkpt lat="49.8067" lon="4.68733">
        <ele>235</ele>
        <time>2022-05-17T13:24:02.564Z</time>
      </trkpt>
      <trkpt lat="49.80675" lon="4.68725">
        <ele>235</ele>
        <time>2022-05-17T13:24:03.541Z</time>
      </trkpt>
      <trkpt lat="49.80675" lon="4.68725">
        <ele>235</ele>
        <time>2022-05-17T13:24:04.555Z</time>
      </trkpt>
      <trkpt lat="49.80677" lon="4.68716">
        <ele>235</ele>
        <time>2022-05-17T13:24:05.530Z</time>
      </trkpt>
      <trkpt lat="49.80677" lon="4.68716">
        <ele>235</ele>
        <time>2022-05-17T13:24:06.535Z</time>
      </trkpt>
      <trkpt lat="49.8068" lon="4.68708">
        <ele>235</ele>
        <time>2022-05-17T13:24:07.553Z</time>
      </trkpt>
      <trkpt lat="49.8068" lon="4.68708">
        <ele>235</ele>
        <time>2022-05-17T13:24:08.560Z</time>
      </trkpt>
      <trkpt lat="49.80682" lon="4.68702">
        <ele>235</ele>
        <time>2022-05-17T13:24:09.536Z</time>
      </trkpt>
      <trkpt lat="49.80682" lon="4.68702">
        <ele>235</ele>
        <time>2022-05-17T13:24:10.544Z</time>
      </trkpt>
      <trkpt lat="49.80684" lon="4.68697">
        <ele>236</ele>
        <time>2022-05-17T13:24:11.562Z</time>
      </trkpt>
      <trkpt lat="49.80684" lon="4.68697">
        <ele>236</ele>
        <time>2022-05-17T13:24:12.527Z</time>
      </trkpt>
      <trkpt lat="49.80685" lon="4.68692">
        <ele>236</ele>
        <time>2022-05-17T13:24:13.527Z</time>
      </trkpt>
      <trkpt lat="49.80685" lon="4.68692">
        <ele>236</ele>
        <time>2022-05-17T13:24:14.532Z</time>
      </trkpt>
      <trkpt lat="49.80688" lon="4.68687">
        <ele>236</ele>
        <time>2022-05-17T13:24:15.543Z</time>
      </trkpt>
      <trkpt lat="49.80689" lon="4.68685">
        <ele>236</ele>
        <time>2022-05-17T13:24:16.529Z</time>
      </trkpt>
      <trkpt lat="49.80689" lon="4.68685">
        <ele>236</ele>
        <time>2022-05-17T13:24:17.534Z</time>
      </trkpt>
      <trkpt lat="49.80691" lon="4.6868">
        <ele>237</ele>
        <time>2022-05-17T13:24:18.532Z</time>
      </trkpt>
      <trkpt lat="49.80692" lon="4.68677">
        <ele>237</ele>
        <time>2022-05-17T13:24:19.556Z</time>
      </trkpt>
      <trkpt lat="49.80692" lon="4.68677">
        <ele>237</ele>
        <time>2022-05-17T13:24:20.561Z</time>
      </trkpt>
      <trkpt lat="49.80694" lon="4.68671">
        <ele>237</ele>
        <time>2022-05-17T13:24:21.549Z</time>
      </trkpt>
      <trkpt lat="49.80695" lon="4.68668">
        <ele>238</ele>
        <time>2022-05-17T13:24:22.527Z</time>
      </trkpt>
      <trkpt lat="49.80696" lon="4.68665">
        <ele>238</ele>
        <time>2022-05-17T13:24:23.549Z</time>
      </trkpt>
      <trkpt lat="49.80696" lon="4.68665">
        <ele>238</ele>
        <time>2022-05-17T13:24:24.555Z</time>
      </trkpt>
      <trkpt lat="49.80699" lon="4.6866">
        <ele>239</ele>
        <time>2022-05-17T13:24:25.538Z</time>
      </trkpt>
      <trkpt lat="49.80699" lon="4.6866">
        <ele>239</ele>
        <time>2022-05-17T13:24:26.544Z</time>
      </trkpt>
      <trkpt lat="49.80701" lon="4.68653">
        <ele>240</ele>
        <time>2022-05-17T13:24:27.535Z</time>
      </trkpt>
      <trkpt lat="49.80701" lon="4.68653">
        <ele>240</ele>
        <time>2022-05-17T13:24:28.541Z</time>
      </trkpt>
      <trkpt lat="49.80703" lon="4.68648">
        <ele>240</ele>
        <time>2022-05-17T13:24:29.532Z</time>
      </trkpt>
      <trkpt lat="49.80704" lon="4.68645">
        <ele>240</ele>
        <time>2022-05-17T13:24:30.531Z</time>
      </trkpt>
      <trkpt lat="49.80705" lon="4.68643">
        <ele>240</ele>
        <time>2022-05-17T13:24:31.562Z</time>
      </trkpt>
      <trkpt lat="49.80705" lon="4.68643">
        <ele>240</ele>
        <time>2022-05-17T13:24:32.527Z</time>
      </trkpt>
      <trkpt lat="49.80706" lon="4.68638">
        <ele>241</ele>
        <time>2022-05-17T13:24:33.550Z</time>
      </trkpt>
      <trkpt lat="49.80706" lon="4.68638">
        <ele>241</ele>
        <time>2022-05-17T13:24:34.556Z</time>
      </trkpt>
      <trkpt lat="49.80708" lon="4.68633">
        <ele>241</ele>
        <time>2022-05-17T13:24:35.531Z</time>
      </trkpt>
      <trkpt lat="49.80709" lon="4.68631">
        <ele>242</ele>
        <time>2022-05-17T13:24:36.548Z</time>
      </trkpt>
      <trkpt lat="49.8071" lon="4.68628">
        <ele>242</ele>
        <time>2022-05-17T13:24:37.526Z</time>
      </trkpt>
      <trkpt lat="49.8071" lon="4.68628">
        <ele>242</ele>
        <time>2022-05-17T13:24:38.532Z</time>
      </trkpt>
      <trkpt lat="49.80712" lon="4.68623">
        <ele>243</ele>
        <time>2022-05-17T13:24:39.551Z</time>
      </trkpt>
      <trkpt lat="49.80712" lon="4.6862">
        <ele>243</ele>
        <time>2022-05-17T13:24:40.527Z</time>
      </trkpt>
      <trkpt lat="49.80712" lon="4.6862">
        <ele>243</ele>
        <time>2022-05-17T13:24:41.533Z</time>
      </trkpt>
      <trkpt lat="49.80714" lon="4.68615">
        <ele>244</ele>
        <time>2022-05-17T13:24:42.553Z</time>
      </trkpt>
      <trkpt lat="49.80715" lon="4.68612">
        <ele>244</ele>
        <time>2022-05-17T13:24:43.531Z</time>
      </trkpt>
      <trkpt lat="49.80715" lon="4.68612">
        <ele>244</ele>
        <time>2022-05-17T13:24:44.537Z</time>
      </trkpt>
      <trkpt lat="49.80717" lon="4.68607">
        <ele>245</ele>
        <time>2022-05-17T13:24:45.557Z</time>
      </trkpt>
      <trkpt lat="49.80717" lon="4.68607">
        <ele>245</ele>
        <time>2022-05-17T13:24:46.563Z</time>
      </trkpt>
      <trkpt lat="49.80719" lon="4.686">
        <ele>245</ele>
        <time>2022-05-17T13:24:47.552Z</time>
      </trkpt>
      <trkpt lat="49.80719" lon="4.686">
        <ele>245</ele>
        <time>2022-05-17T13:24:48.557Z</time>
      </trkpt>
      <trkpt lat="49.80722" lon="4.68593">
        <ele>245</ele>
        <time>2022-05-17T13:24:49.539Z</time>
      </trkpt>
      <trkpt lat="49.80722" lon="4.68593">
        <ele>245</ele>
        <time>2022-05-17T13:24:50.555Z</time>
      </trkpt>
      <trkpt lat="49.80725" lon="4.68586">
        <ele>246</ele>
        <time>2022-05-17T13:24:51.558Z</time>
      </trkpt>
      <trkpt lat="49.80725" lon="4.68586">
        <ele>246</ele>
        <time>2022-05-17T13:24:52.524Z</time>
      </trkpt>
      <trkpt lat="49.80728" lon="4.68578">
        <ele>247</ele>
        <time>2022-05-17T13:24:53.535Z</time>
      </trkpt>
      <trkpt lat="49.80728" lon="4.68578">
        <ele>247</ele>
        <time>2022-05-17T13:24:54.541Z</time>
      </trkpt>
      <trkpt lat="49.80732" lon="4.68569">
        <ele>247</ele>
        <time>2022-05-17T13:24:55.558Z</time>
      </trkpt>
      <trkpt lat="49.80732" lon="4.68569">
        <ele>247</ele>
        <time>2022-05-17T13:24:56.563Z</time>
      </trkpt>
      <trkpt lat="49.80736" lon="4.68559">
        <ele>247</ele>
        <time>2022-05-17T13:24:57.550Z</time>
      </trkpt>
      <trkpt lat="49.80737" lon="4.68554">
        <ele>247</ele>
        <time>2022-05-17T13:24:58.529Z</time>
      </trkpt>
      <trkpt lat="49.80737" lon="4.68554">
        <ele>247</ele>
        <time>2022-05-17T13:24:59.535Z</time>
      </trkpt>
      <trkpt lat="49.80741" lon="4.68544">
        <ele>247</ele>
        <time>2022-05-17T13:25:00.535Z</time>
      </trkpt>
      <trkpt lat="49.80743" lon="4.68537">
        <ele>247</ele>
        <time>2022-05-17T13:25:01.555Z</time>
      </trkpt>
      <trkpt lat="49.80743" lon="4.68537">
        <ele>247</ele>
        <time>2022-05-17T13:25:02.561Z</time>
      </trkpt>
      <trkpt lat="49.80749" lon="4.68521">
        <ele>246</ele>
        <time>2022-05-17T13:25:03.540Z</time>
      </trkpt>
      <trkpt lat="49.80752" lon="4.68512">
        <ele>245</ele>
        <time>2022-05-17T13:25:04.528Z</time>
      </trkpt>
      <trkpt lat="49.80752" lon="4.68512">
        <ele>245</ele>
        <time>2022-05-17T13:25:05.533Z</time>
      </trkpt>
      <trkpt lat="49.8076" lon="4.68491">
        <ele>243</ele>
        <time>2022-05-17T13:25:06.550Z</time>
      </trkpt>
      <trkpt lat="49.80764" lon="4.68481">
        <ele>242</ele>
        <time>2022-05-17T13:25:07.528Z</time>
      </trkpt>
      <trkpt lat="49.80764" lon="4.68481">
        <ele>242</ele>
        <time>2022-05-17T13:25:08.534Z</time>
      </trkpt>
      <trkpt lat="49.80772" lon="4.68459">
        <ele>241</ele>
        <time>2022-05-17T13:25:09.552Z</time>
      </trkpt>
      <trkpt lat="49.80772" lon="4.68459">
        <ele>241</ele>
        <time>2022-05-17T13:25:10.557Z</time>
      </trkpt>
      <trkpt lat="49.80779" lon="4.68438">
        <ele>240</ele>
        <time>2022-05-17T13:25:11.539Z</time>
      </trkpt>
      <trkpt lat="49.80779" lon="4.68438">
        <ele>240</ele>
        <time>2022-05-17T13:25:12.544Z</time>
      </trkpt>
      <trkpt lat="49.80785" lon="4.6842">
        <ele>240</ele>
        <time>2022-05-17T13:25:13.559Z</time>
      </trkpt>
      <trkpt lat="49.80785" lon="4.6842">
        <ele>240</ele>
        <time>2022-05-17T13:25:14.524Z</time>
      </trkpt>
      <trkpt lat="49.80791" lon="4.68403">
        <ele>239</ele>
        <time>2022-05-17T13:25:15.530Z</time>
      </trkpt>
      <trkpt lat="49.80791" lon="4.68403">
        <ele>239</ele>
        <time>2022-05-17T13:25:16.535Z</time>
      </trkpt>
      <trkpt lat="49.80796" lon="4.68389">
        <ele>239</ele>
        <time>2022-05-17T13:25:17.561Z</time>
      </trkpt>
      <trkpt lat="49.80796" lon="4.68389">
        <ele>239</ele>
        <time>2022-05-17T13:25:18.530Z</time>
      </trkpt>
      <trkpt lat="49.80802" lon="4.68372">
        <ele>238</ele>
        <time>2022-05-17T13:25:19.524Z</time>
      </trkpt>
      <trkpt lat="49.80802" lon="4.68372">
        <ele>238</ele>
        <time>2022-05-17T13:25:20.529Z</time>
      </trkpt>
      <trkpt lat="49.80809" lon="4.68354">
        <ele>237</ele>
        <time>2022-05-17T13:25:21.551Z</time>
      </trkpt>
      <trkpt lat="49.80812" lon="4.68345">
        <ele>237</ele>
        <time>2022-05-17T13:25:22.549Z</time>
      </trkpt>
      <trkpt lat="49.80812" lon="4.68345">
        <ele>237</ele>
        <time>2022-05-17T13:25:23.555Z</time>
      </trkpt>
      <trkpt lat="49.80819" lon="4.68326">
        <ele>237</ele>
        <time>2022-05-17T13:25:24.540Z</time>
      </trkpt>
      <trkpt lat="49.80821" lon="4.68318">
        <ele>237</ele>
        <time>2022-05-17T13:25:25.559Z</time>
      </trkpt>
      <trkpt lat="49.80821" lon="4.68318">
        <ele>237</ele>
        <time>2022-05-17T13:25:26.525Z</time>
      </trkpt>
      <trkpt lat="49.80825" lon="4.68305">
        <ele>236</ele>
        <time>2022-05-17T13:25:27.561Z</time>
      </trkpt>
      <trkpt lat="49.80825" lon="4.68305">
        <ele>236</ele>
        <time>2022-05-17T13:25:28.526Z</time>
      </trkpt>
      <trkpt lat="49.80828" lon="4.68294">
        <ele>236</ele>
        <time>2022-05-17T13:25:29.550Z</time>
      </trkpt>
      <trkpt lat="49.80828" lon="4.68294">
        <ele>236</ele>
        <time>2022-05-17T13:25:30.556Z</time>
      </trkpt>
      <trkpt lat="49.8083" lon="4.68289">
        <ele>235</ele>
        <time>2022-05-17T13:25:31.535Z</time>
      </trkpt>
      <trkpt lat="49.8083" lon="4.68289">
        <ele>235</ele>
        <time>2022-05-17T13:25:32.541Z</time>
      </trkpt>
      <trkpt lat="49.80832" lon="4.68283">
        <ele>235</ele>
        <time>2022-05-17T13:25:33.547Z</time>
      </trkpt>
      <trkpt lat="49.80832" lon="4.68283">
        <ele>235</ele>
        <time>2022-05-17T13:25:34.557Z</time>
      </trkpt>
      <trkpt lat="49.80833" lon="4.68278">
        <ele>235</ele>
        <time>2022-05-17T13:25:35.540Z</time>
      </trkpt>
      <trkpt lat="49.80833" lon="4.68278">
        <ele>235</ele>
        <time>2022-05-17T13:25:36.546Z</time>
      </trkpt>
      <trkpt lat="49.80834" lon="4.68273">
        <ele>235</ele>
        <time>2022-05-17T13:25:37.533Z</time>
      </trkpt>
      <trkpt lat="49.80834" lon="4.68273">
        <ele>235</ele>
        <time>2022-05-17T13:25:38.539Z</time>
      </trkpt>
      <trkpt lat="49.80835" lon="4.68269">
        <ele>235</ele>
        <time>2022-05-17T13:25:39.531Z</time>
      </trkpt>
      <trkpt lat="49.80835" lon="4.68269">
        <ele>235</ele>
        <time>2022-05-17T13:25:40.549Z</time>
      </trkpt>
      <trkpt lat="49.80836" lon="4.68265">
        <ele>235</ele>
        <time>2022-05-17T13:25:41.527Z</time>
      </trkpt>
      <trkpt lat="49.80837" lon="4.68262">
        <ele>235</ele>
        <time>2022-05-17T13:25:42.550Z</time>
      </trkpt>
      <trkpt lat="49.80838" lon="4.6826">
        <ele>235</ele>
        <time>2022-05-17T13:25:43.530Z</time>
      </trkpt>
      <trkpt lat="49.80838" lon="4.6826">
        <ele>235</ele>
        <time>2022-05-17T13:25:44.536Z</time>
      </trkpt>
      <trkpt lat="49.80838" lon="4.68256">
        <ele>235</ele>
        <time>2022-05-17T13:25:45.558Z</time>
      </trkpt>
      <trkpt lat="49.80838" lon="4.68256">
        <ele>235</ele>
        <time>2022-05-17T13:25:46.564Z</time>
      </trkpt>
      <trkpt lat="49.80839" lon="4.68251">
        <ele>236</ele>
        <time>2022-05-17T13:25:47.550Z</time>
      </trkpt>
      <trkpt lat="49.80839" lon="4.68251">
        <ele>236</ele>
        <time>2022-05-17T13:25:48.556Z</time>
      </trkpt>
      <trkpt lat="49.80841" lon="4.68248">
        <ele>236</ele>
        <time>2022-05-17T13:25:49.534Z</time>
      </trkpt>
      <trkpt lat="49.80841" lon="4.68248">
        <ele>236</ele>
        <time>2022-05-17T13:25:50.555Z</time>
      </trkpt>
      <trkpt lat="49.80842" lon="4.68244">
        <ele>236</ele>
        <time>2022-05-17T13:25:51.543Z</time>
      </trkpt>
      <trkpt lat="49.80843" lon="4.68242">
        <ele>237</ele>
        <time>2022-05-17T13:25:52.534Z</time>
      </trkpt>
      <trkpt lat="49.80843" lon="4.68242">
        <ele>237</ele>
        <time>2022-05-17T13:25:53.540Z</time>
      </trkpt>
      <trkpt lat="49.80844" lon="4.68238">
        <ele>237</ele>
        <time>2022-05-17T13:25:54.559Z</time>
      </trkpt>
      <trkpt lat="49.80845" lon="4.68236">
        <ele>238</ele>
        <time>2022-05-17T13:25:55.533Z</time>
      </trkpt>
      <trkpt lat="49.80845" lon="4.68236">
        <ele>238</ele>
        <time>2022-05-17T13:25:56.539Z</time>
      </trkpt>
      <trkpt lat="49.80845" lon="4.68233">
        <ele>238</ele>
        <time>2022-05-17T13:25:57.563Z</time>
      </trkpt>
      <trkpt lat="49.80846" lon="4.68231">
        <ele>238</ele>
        <time>2022-05-17T13:25:58.549Z</time>
      </trkpt>
      <trkpt lat="49.80846" lon="4.68231">
        <ele>238</ele>
        <time>2022-05-17T13:25:59.555Z</time>
      </trkpt>
      <trkpt lat="49.80846" lon="4.68227">
        <ele>239</ele>
        <time>2022-05-17T13:26:00.547Z</time>
      </trkpt>
      <trkpt lat="49.80847" lon="4.68225">
        <ele>239</ele>
        <time>2022-05-17T13:26:01.527Z</time>
      </trkpt>
      <trkpt lat="49.80847" lon="4.68225">
        <ele>239</ele>
        <time>2022-05-17T13:26:02.532Z</time>
      </trkpt>
      <trkpt lat="49.80847" lon="4.68221">
        <ele>240</ele>
        <time>2022-05-17T13:26:03.558Z</time>
      </trkpt>
      <trkpt lat="49.80848" lon="4.68219">
        <ele>240</ele>
        <time>2022-05-17T13:26:04.563Z</time>
      </trkpt>
      <trkpt lat="49.80848" lon="4.68219">
        <ele>240</ele>
        <time>2022-05-17T13:26:05.529Z</time>
      </trkpt>
      <trkpt lat="49.80849" lon="4.68215">
        <ele>240</ele>
        <time>2022-05-17T13:26:06.545Z</time>
      </trkpt>
      <trkpt lat="49.80849" lon="4.68214">
        <ele>240</ele>
        <time>2022-05-17T13:26:07.559Z</time>
      </trkpt>
      <trkpt lat="49.80849" lon="4.68214">
        <ele>240</ele>
        <time>2022-05-17T13:26:08.525Z</time>
      </trkpt>
      <trkpt lat="49.8085" lon="4.6821">
        <ele>241</ele>
        <time>2022-05-17T13:26:09.540Z</time>
      </trkpt>
      <trkpt lat="49.80851" lon="4.68208">
        <ele>241</ele>
        <time>2022-05-17T13:26:10.531Z</time>
      </trkpt>
      <trkpt lat="49.80851" lon="4.68208">
        <ele>241</ele>
        <time>2022-05-17T13:26:11.536Z</time>
      </trkpt>
      <trkpt lat="49.80852" lon="4.68204">
        <ele>241</ele>
        <time>2022-05-17T13:26:12.561Z</time>
      </trkpt>
      <trkpt lat="49.80852" lon="4.68202">
        <ele>241</ele>
        <time>2022-05-17T13:26:13.538Z</time>
      </trkpt>
      <trkpt lat="49.80852" lon="4.68202">
        <ele>241</ele>
        <time>2022-05-17T13:26:14.543Z</time>
      </trkpt>
      <trkpt lat="49.80853" lon="4.68197">
        <ele>242</ele>
        <time>2022-05-17T13:26:15.529Z</time>
      </trkpt>
      <trkpt lat="49.80854" lon="4.68196">
        <ele>242</ele>
        <time>2022-05-17T13:26:16.557Z</time>
      </trkpt>
      <trkpt lat="49.80854" lon="4.68196">
        <ele>242</ele>
        <time>2022-05-17T13:26:17.562Z</time>
      </trkpt>
      <trkpt lat="49.80854" lon="4.68192">
        <ele>242</ele>
        <time>2022-05-17T13:26:18.550Z</time>
      </trkpt>
      <trkpt lat="49.80855" lon="4.6819">
        <ele>242</ele>
        <time>2022-05-17T13:26:19.529Z</time>
      </trkpt>
      <trkpt lat="49.80855" lon="4.6819">
        <ele>242</ele>
        <time>2022-05-17T13:26:20.548Z</time>
      </trkpt>
      <trkpt lat="49.80856" lon="4.68186">
        <ele>243</ele>
        <time>2022-05-17T13:26:21.545Z</time>
      </trkpt>
      <trkpt lat="49.80856" lon="4.68184">
        <ele>243</ele>
        <time>2022-05-17T13:26:22.525Z</time>
      </trkpt>
      <trkpt lat="49.80856" lon="4.68184">
        <ele>243</ele>
        <time>2022-05-17T13:26:23.530Z</time>
      </trkpt>
      <trkpt lat="49.80857" lon="4.68181">
        <ele>243</ele>
        <time>2022-05-17T13:26:24.552Z</time>
      </trkpt>
      <trkpt lat="49.80857" lon="4.68179">
        <ele>243</ele>
        <time>2022-05-17T13:26:25.535Z</time>
      </trkpt>
      <trkpt lat="49.80857" lon="4.68179">
        <ele>243</ele>
        <time>2022-05-17T13:26:26.540Z</time>
      </trkpt>
      <trkpt lat="49.80858" lon="4.68175">
        <ele>243</ele>
        <time>2022-05-17T13:26:27.560Z</time>
      </trkpt>
      <trkpt lat="49.80858" lon="4.68173">
        <ele>243</ele>
        <time>2022-05-17T13:26:28.535Z</time>
      </trkpt>
      <trkpt lat="49.80858" lon="4.68173">
        <ele>243</ele>
        <time>2022-05-17T13:26:29.541Z</time>
      </trkpt>
      <trkpt lat="49.80859" lon="4.68169">
        <ele>244</ele>
        <time>2022-05-17T13:26:30.535Z</time>
      </trkpt>
      <trkpt lat="49.8086" lon="4.68167">
        <ele>244</ele>
        <time>2022-05-17T13:26:31.561Z</time>
      </trkpt>
      <trkpt lat="49.8086" lon="4.68167">
        <ele>244</ele>
        <time>2022-05-17T13:26:32.527Z</time>
      </trkpt>
      <trkpt lat="49.80861" lon="4.68164">
        <ele>244</ele>
        <time>2022-05-17T13:26:33.544Z</time>
      </trkpt>
      <trkpt lat="49.80861" lon="4.68162">
        <ele>244</ele>
        <time>2022-05-17T13:26:34.532Z</time>
      </trkpt>
      <trkpt lat="49.80861" lon="4.68162">
        <ele>244</ele>
        <time>2022-05-17T13:26:35.536Z</time>
      </trkpt>
      <trkpt lat="49.80862" lon="4.68159">
        <ele>244</ele>
        <time>2022-05-17T13:26:36.560Z</time>
      </trkpt>
      <trkpt lat="49.80863" lon="4.68157">
        <ele>244</ele>
        <time>2022-05-17T13:26:37.545Z</time>
      </trkpt>
      <trkpt lat="49.80863" lon="4.68157">
        <ele>244</ele>
        <time>2022-05-17T13:26:38.550Z</time>
      </trkpt>
      <trkpt lat="49.80864" lon="4.68154">
        <ele>244</ele>
        <time>2022-05-17T13:26:39.531Z</time>
      </trkpt>
      <trkpt lat="49.80864" lon="4.68154">
        <ele>244</ele>
        <time>2022-05-17T13:26:40.550Z</time>
      </trkpt>
      <trkpt lat="49.80865" lon="4.68149">
        <ele>244</ele>
        <time>2022-05-17T13:26:41.525Z</time>
      </trkpt>
      <trkpt lat="49.80865" lon="4.68149">
        <ele>244</ele>
        <time>2022-05-17T13:26:42.530Z</time>
      </trkpt>
      <trkpt lat="49.80866" lon="4.68145">
        <ele>244</ele>
        <time>2022-05-17T13:26:43.546Z</time>
      </trkpt>
      <trkpt lat="49.80866" lon="4.68145">
        <ele>244</ele>
        <time>2022-05-17T13:26:44.556Z</time>
      </trkpt>
      <trkpt lat="49.80867" lon="4.68142">
        <ele>244</ele>
        <time>2022-05-17T13:26:45.538Z</time>
      </trkpt>
      <trkpt lat="49.80867" lon="4.68141">
        <ele>244</ele>
        <time>2022-05-17T13:26:46.560Z</time>
      </trkpt>
      <trkpt lat="49.80867" lon="4.68141">
        <ele>244</ele>
        <time>2022-05-17T13:26:47.526Z</time>
      </trkpt>
      <trkpt lat="49.80868" lon="4.68137">
        <ele>244</ele>
        <time>2022-05-17T13:26:48.550Z</time>
      </trkpt>
      <trkpt lat="49.80869" lon="4.68135">
        <ele>244</ele>
        <time>2022-05-17T13:26:49.529Z</time>
      </trkpt>
      <trkpt lat="49.80869" lon="4.68135">
        <ele>244</ele>
        <time>2022-05-17T13:26:50.546Z</time>
      </trkpt>
      <trkpt lat="49.80871" lon="4.68131">
        <ele>244</ele>
        <time>2022-05-17T13:26:51.529Z</time>
      </trkpt>
      <trkpt lat="49.80871" lon="4.68131">
        <ele>244</ele>
        <time>2022-05-17T13:26:52.535Z</time>
      </trkpt>
      <trkpt lat="49.80872" lon="4.68128">
        <ele>244</ele>
        <time>2022-05-17T13:26:53.558Z</time>
      </trkpt>
      <trkpt lat="49.80872" lon="4.68128">
        <ele>244</ele>
        <time>2022-05-17T13:26:54.563Z</time>
      </trkpt>
      <trkpt lat="49.80874" lon="4.68124">
        <ele>245</ele>
        <time>2022-05-17T13:26:55.544Z</time>
      </trkpt>
      <trkpt lat="49.80874" lon="4.68124">
        <ele>245</ele>
        <time>2022-05-17T13:26:56.551Z</time>
      </trkpt>
      <trkpt lat="49.80875" lon="4.68119">
        <ele>245</ele>
        <time>2022-05-17T13:26:57.532Z</time>
      </trkpt>
      <trkpt lat="49.80875" lon="4.68119">
        <ele>245</ele>
        <time>2022-05-17T13:26:58.538Z</time>
      </trkpt>
      <trkpt lat="49.80876" lon="4.68114">
        <ele>245</ele>
        <time>2022-05-17T13:26:59.554Z</time>
      </trkpt>
      <trkpt lat="49.80877" lon="4.68111">
        <ele>245</ele>
        <time>2022-05-17T13:27:00.531Z</time>
      </trkpt>
      <trkpt lat="49.80878" lon="4.68109">
        <ele>245</ele>
        <time>2022-05-17T13:27:01.556Z</time>
      </trkpt>
      <trkpt lat="49.80878" lon="4.68109">
        <ele>245</ele>
        <time>2022-05-17T13:27:02.562Z</time>
      </trkpt>
      <trkpt lat="49.80879" lon="4.68105">
        <ele>245</ele>
        <time>2022-05-17T13:27:03.535Z</time>
      </trkpt>
      <trkpt lat="49.8088" lon="4.68103">
        <ele>245</ele>
        <time>2022-05-17T13:27:04.524Z</time>
      </trkpt>
      <trkpt lat="49.8088" lon="4.68103">
        <ele>245</ele>
        <time>2022-05-17T13:27:05.530Z</time>
      </trkpt>
      <trkpt lat="49.80881" lon="4.68098">
        <ele>245</ele>
        <time>2022-05-17T13:27:06.546Z</time>
      </trkpt>
      <trkpt lat="49.80881" lon="4.68098">
        <ele>245</ele>
        <time>2022-05-17T13:27:07.558Z</time>
      </trkpt>
      <trkpt lat="49.80883" lon="4.68094">
        <ele>245</ele>
        <time>2022-05-17T13:27:08.555Z</time>
      </trkpt>
      <trkpt lat="49.80883" lon="4.68092">
        <ele>246</ele>
        <time>2022-05-17T13:27:09.541Z</time>
      </trkpt>
      <trkpt lat="49.80884" lon="4.6809">
        <ele>246</ele>
        <time>2022-05-17T13:27:10.529Z</time>
      </trkpt>
      <trkpt lat="49.80884" lon="4.6809">
        <ele>246</ele>
        <time>2022-05-17T13:27:11.534Z</time>
      </trkpt>
      <trkpt lat="49.80885" lon="4.68085">
        <ele>246</ele>
        <time>2022-05-17T13:27:12.526Z</time>
      </trkpt>
      <trkpt lat="49.80885" lon="4.68085">
        <ele>246</ele>
        <time>2022-05-17T13:27:13.531Z</time>
      </trkpt>
      <trkpt lat="49.80887" lon="4.6808">
        <ele>246</ele>
        <time>2022-05-17T13:27:14.547Z</time>
      </trkpt>
      <trkpt lat="49.80887" lon="4.6808">
        <ele>246</ele>
        <time>2022-05-17T13:27:15.554Z</time>
      </trkpt>
      <trkpt lat="49.80888" lon="4.68076">
        <ele>246</ele>
        <time>2022-05-17T13:27:16.528Z</time>
      </trkpt>
      <trkpt lat="49.80888" lon="4.68076">
        <ele>246</ele>
        <time>2022-05-17T13:27:17.543Z</time>
      </trkpt>
      <trkpt lat="49.8089" lon="4.68071">
        <ele>246</ele>
        <time>2022-05-17T13:27:18.536Z</time>
      </trkpt>
      <trkpt lat="49.80891" lon="4.68068">
        <ele>246</ele>
        <time>2022-05-17T13:27:19.563Z</time>
      </trkpt>
      <trkpt lat="49.80891" lon="4.68068">
        <ele>246</ele>
        <time>2022-05-17T13:27:20.529Z</time>
      </trkpt>
      <trkpt lat="49.80893" lon="4.68062">
        <ele>246</ele>
        <time>2022-05-17T13:27:21.547Z</time>
      </trkpt>
      <trkpt lat="49.80894" lon="4.6806">
        <ele>246</ele>
        <time>2022-05-17T13:27:22.540Z</time>
      </trkpt>
      <trkpt lat="49.80894" lon="4.6806">
        <ele>246</ele>
        <time>2022-05-17T13:27:23.546Z</time>
      </trkpt>
      <trkpt lat="49.80896" lon="4.68054">
        <ele>245</ele>
        <time>2022-05-17T13:27:24.527Z</time>
      </trkpt>
      <trkpt lat="49.80898" lon="4.68051">
        <ele>245</ele>
        <time>2022-05-17T13:27:25.551Z</time>
      </trkpt>
      <trkpt lat="49.80898" lon="4.68051">
        <ele>245</ele>
        <time>2022-05-17T13:27:26.557Z</time>
      </trkpt>
      <trkpt lat="49.809" lon="4.68045">
        <ele>245</ele>
        <time>2022-05-17T13:27:27.533Z</time>
      </trkpt>
      <trkpt lat="49.80901" lon="4.68042">
        <ele>245</ele>
        <time>2022-05-17T13:27:28.556Z</time>
      </trkpt>
      <trkpt lat="49.80901" lon="4.68042">
        <ele>245</ele>
        <time>2022-05-17T13:27:29.532Z</time>
      </trkpt>
      <trkpt lat="49.80904" lon="4.68035">
        <ele>245</ele>
        <time>2022-05-17T13:27:30.535Z</time>
      </trkpt>
      <trkpt lat="49.80905" lon="4.68031">
        <ele>244</ele>
        <time>2022-05-17T13:27:31.560Z</time>
      </trkpt>
      <trkpt lat="49.80905" lon="4.68031">
        <ele>244</ele>
        <time>2022-05-17T13:27:32.526Z</time>
      </trkpt>
      <trkpt lat="49.80909" lon="4.68023">
        <ele>244</ele>
        <time>2022-05-17T13:27:33.550Z</time>
      </trkpt>
      <trkpt lat="49.80911" lon="4.68017">
        <ele>243</ele>
        <time>2022-05-17T13:27:34.527Z</time>
      </trkpt>
      <trkpt lat="49.80911" lon="4.68017">
        <ele>243</ele>
        <time>2022-05-17T13:27:35.532Z</time>
      </trkpt>
      <trkpt lat="49.80915" lon="4.68005">
        <ele>242</ele>
        <time>2022-05-17T13:27:36.555Z</time>
      </trkpt>
      <trkpt lat="49.80917" lon="4.67999">
        <ele>242</ele>
        <time>2022-05-17T13:27:37.536Z</time>
      </trkpt>
      <trkpt lat="49.80917" lon="4.67999">
        <ele>242</ele>
        <time>2022-05-17T13:27:38.541Z</time>
      </trkpt>
      <trkpt lat="49.80923" lon="4.67988">
        <ele>242</ele>
        <time>2022-05-17T13:27:39.555Z</time>
      </trkpt>
      <trkpt lat="49.80923" lon="4.67988">
        <ele>242</ele>
        <time>2022-05-17T13:27:40.561Z</time>
      </trkpt>
      <trkpt lat="49.80929" lon="4.67978">
        <ele>242</ele>
        <time>2022-05-17T13:27:41.539Z</time>
      </trkpt>
      <trkpt lat="49.80931" lon="4.67973">
        <ele>241</ele>
        <time>2022-05-17T13:27:42.533Z</time>
      </trkpt>
      <trkpt lat="49.80933" lon="4.67968">
        <ele>241</ele>
        <time>2022-05-17T13:27:43.547Z</time>
      </trkpt>
      <trkpt lat="49.80933" lon="4.67968">
        <ele>241</ele>
        <time>2022-05-17T13:27:44.553Z</time>
      </trkpt>
      <trkpt lat="49.80936" lon="4.67959">
        <ele>241</ele>
        <time>2022-05-17T13:27:45.532Z</time>
      </trkpt>
      <trkpt lat="49.80936" lon="4.67959">
        <ele>241</ele>
        <time>2022-05-17T13:27:46.537Z</time>
      </trkpt>
      <trkpt lat="49.80938" lon="4.67951">
        <ele>241</ele>
        <time>2022-05-17T13:27:47.563Z</time>
      </trkpt>
      <trkpt lat="49.80938" lon="4.67951">
        <ele>241</ele>
        <time>2022-05-17T13:27:48.546Z</time>
      </trkpt>
      <trkpt lat="49.8094" lon="4.67944">
        <ele>241</ele>
        <time>2022-05-17T13:27:49.553Z</time>
      </trkpt>
      <trkpt lat="49.8094" lon="4.67944">
        <ele>241</ele>
        <time>2022-05-17T13:27:50.558Z</time>
      </trkpt>
      <trkpt lat="49.80942" lon="4.67939">
        <ele>241</ele>
        <time>2022-05-17T13:27:51.548Z</time>
      </trkpt>
      <trkpt lat="49.80942" lon="4.67939">
        <ele>241</ele>
        <time>2022-05-17T13:27:52.555Z</time>
      </trkpt>
      <trkpt lat="49.80944" lon="4.67933">
        <ele>241</ele>
        <time>2022-05-17T13:27:53.539Z</time>
      </trkpt>
      <trkpt lat="49.80945" lon="4.6793">
        <ele>241</ele>
        <time>2022-05-17T13:27:54.555Z</time>
      </trkpt>
      <trkpt lat="49.80946" lon="4.67927">
        <ele>242</ele>
        <time>2022-05-17T13:27:55.543Z</time>
      </trkpt>
      <trkpt lat="49.80946" lon="4.67927">
        <ele>242</ele>
        <time>2022-05-17T13:27:56.549Z</time>
      </trkpt>
      <trkpt lat="49.80948" lon="4.67921">
        <ele>242</ele>
        <time>2022-05-17T13:27:57.531Z</time>
      </trkpt>
      <trkpt lat="49.80948" lon="4.67921">
        <ele>242</ele>
        <time>2022-05-17T13:27:58.537Z</time>
      </trkpt>
      <trkpt lat="49.8095" lon="4.67915">
        <ele>243</ele>
        <time>2022-05-17T13:27:59.553Z</time>
      </trkpt>
      <trkpt lat="49.8095" lon="4.67915">
        <ele>243</ele>
        <time>2022-05-17T13:28:00.559Z</time>
      </trkpt>
      <trkpt lat="49.80952" lon="4.67909">
        <ele>243</ele>
        <time>2022-05-17T13:28:01.535Z</time>
      </trkpt>
      <trkpt lat="49.80952" lon="4.67909">
        <ele>243</ele>
        <time>2022-05-17T13:28:02.540Z</time>
      </trkpt>
      <trkpt lat="49.80954" lon="4.67903">
        <ele>244</ele>
        <time>2022-05-17T13:28:03.559Z</time>
      </trkpt>
      <trkpt lat="49.80954" lon="4.67903">
        <ele>244</ele>
        <time>2022-05-17T13:28:04.524Z</time>
      </trkpt>
      <trkpt lat="49.80956" lon="4.67898">
        <ele>244</ele>
        <time>2022-05-17T13:28:05.528Z</time>
      </trkpt>
      <trkpt lat="49.80956" lon="4.67898">
        <ele>244</ele>
        <time>2022-05-17T13:28:06.533Z</time>
      </trkpt>
      <trkpt lat="49.80958" lon="4.67892">
        <ele>244</ele>
        <time>2022-05-17T13:28:07.554Z</time>
      </trkpt>
      <trkpt lat="49.80958" lon="4.67892">
        <ele>244</ele>
        <time>2022-05-17T13:28:08.561Z</time>
      </trkpt>
      <trkpt lat="49.8096" lon="4.67886">
        <ele>244</ele>
        <time>2022-05-17T13:28:09.553Z</time>
      </trkpt>
      <trkpt lat="49.8096" lon="4.67886">
        <ele>244</ele>
        <time>2022-05-17T13:28:10.558Z</time>
      </trkpt>
      <trkpt lat="49.80963" lon="4.6788">
        <ele>244</ele>
        <time>2022-05-17T13:28:11.550Z</time>
      </trkpt>
      <trkpt lat="49.80965" lon="4.67878">
        <ele>244</ele>
        <time>2022-05-17T13:28:12.530Z</time>
      </trkpt>
      <trkpt lat="49.80967" lon="4.67877">
        <ele>244</ele>
        <time>2022-05-17T13:28:13.546Z</time>
      </trkpt>
      <trkpt lat="49.80967" lon="4.67877">
        <ele>244</ele>
        <time>2022-05-17T13:28:14.557Z</time>
      </trkpt>
      <trkpt lat="49.80971" lon="4.67878">
        <ele>244</ele>
        <time>2022-05-17T13:28:15.535Z</time>
      </trkpt>
      <trkpt lat="49.80973" lon="4.6788">
        <ele>244</ele>
        <time>2022-05-17T13:28:16.558Z</time>
      </trkpt>
      <trkpt lat="49.80973" lon="4.6788">
        <ele>244</ele>
        <time>2022-05-17T13:28:17.524Z</time>
      </trkpt>
      <trkpt lat="49.80978" lon="4.67885">
        <ele>245</ele>
        <time>2022-05-17T13:28:18.550Z</time>
      </trkpt>
      <trkpt lat="49.8098" lon="4.67887">
        <ele>245</ele>
        <time>2022-05-17T13:28:19.525Z</time>
      </trkpt>
      <trkpt lat="49.8098" lon="4.67887">
        <ele>245</ele>
        <time>2022-05-17T13:28:20.542Z</time>
      </trkpt>
      <trkpt lat="49.80984" lon="4.67893">
        <ele>245</ele>
        <time>2022-05-17T13:28:21.535Z</time>
      </trkpt>
      <trkpt lat="49.80984" lon="4.67893">
        <ele>245</ele>
        <time>2022-05-17T13:28:22.560Z</time>
      </trkpt>
      <trkpt lat="49.80988" lon="4.67898">
        <ele>245</ele>
        <time>2022-05-17T13:28:23.537Z</time>
      </trkpt>
      <trkpt lat="49.80988" lon="4.67898">
        <ele>245</ele>
        <time>2022-05-17T13:28:24.543Z</time>
      </trkpt>
      <trkpt lat="49.80991" lon="4.67904">
        <ele>245</ele>
        <time>2022-05-17T13:28:25.536Z</time>
      </trkpt>
      <trkpt lat="49.80991" lon="4.67904">
        <ele>245</ele>
        <time>2022-05-17T13:28:26.541Z</time>
      </trkpt>
      <trkpt lat="49.80995" lon="4.67909">
        <ele>245</ele>
        <time>2022-05-17T13:28:27.563Z</time>
      </trkpt>
      <trkpt lat="49.80995" lon="4.67909">
        <ele>245</ele>
        <time>2022-05-17T13:28:28.529Z</time>
      </trkpt>
      <trkpt lat="49.80999" lon="4.67914">
        <ele>245</ele>
        <time>2022-05-17T13:28:29.531Z</time>
      </trkpt>
      <trkpt lat="49.81001" lon="4.67917">
        <ele>246</ele>
        <time>2022-05-17T13:28:30.561Z</time>
      </trkpt>
      <trkpt lat="49.81003" lon="4.6792">
        <ele>246</ele>
        <time>2022-05-17T13:28:31.542Z</time>
      </trkpt>
      <trkpt lat="49.81003" lon="4.6792">
        <ele>246</ele>
        <time>2022-05-17T13:28:32.551Z</time>
      </trkpt>
      <trkpt lat="49.81007" lon="4.67925">
        <ele>246</ele>
        <time>2022-05-17T13:28:33.531Z</time>
      </trkpt>
      <trkpt lat="49.81007" lon="4.67925">
        <ele>246</ele>
        <time>2022-05-17T13:28:34.536Z</time>
      </trkpt>
      <trkpt lat="49.81012" lon="4.6793">
        <ele>246</ele>
        <time>2022-05-17T13:28:35.554Z</time>
      </trkpt>
      <trkpt lat="49.81012" lon="4.6793">
        <ele>246</ele>
        <time>2022-05-17T13:28:36.559Z</time>
      </trkpt>
      <trkpt lat="49.81016" lon="4.67935">
        <ele>246</ele>
        <time>2022-05-17T13:28:37.525Z</time>
      </trkpt>
      <trkpt lat="49.81016" lon="4.67935">
        <ele>246</ele>
        <time>2022-05-17T13:28:38.530Z</time>
      </trkpt>
      <trkpt lat="49.8102" lon="4.6794">
        <ele>246</ele>
        <time>2022-05-17T13:28:39.552Z</time>
      </trkpt>
      <trkpt lat="49.8102" lon="4.6794">
        <ele>246</ele>
        <time>2022-05-17T13:28:40.557Z</time>
      </trkpt>
      <trkpt lat="49.81024" lon="4.67945">
        <ele>246</ele>
        <time>2022-05-17T13:28:41.549Z</time>
      </trkpt>
      <trkpt lat="49.81026" lon="4.67948">
        <ele>247</ele>
        <time>2022-05-17T13:28:42.526Z</time>
      </trkpt>
      <trkpt lat="49.81026" lon="4.67948">
        <ele>247</ele>
        <time>2022-05-17T13:28:43.531Z</time>
      </trkpt>
      <trkpt lat="49.8103" lon="4.67953">
        <ele>247</ele>
        <time>2022-05-17T13:28:44.553Z</time>
      </trkpt>
      <trkpt lat="49.8103" lon="4.67953">
        <ele>247</ele>
        <time>2022-05-17T13:28:45.560Z</time>
      </trkpt>
      <trkpt lat="49.81034" lon="4.67959">
        <ele>247</ele>
        <time>2022-05-17T13:28:46.545Z</time>
      </trkpt>
      <trkpt lat="49.81036" lon="4.67961">
        <ele>247</ele>
        <time>2022-05-17T13:28:47.538Z</time>
      </trkpt>
      <trkpt lat="49.81036" lon="4.67961">
        <ele>247</ele>
        <time>2022-05-17T13:28:48.543Z</time>
      </trkpt>
      <trkpt lat="49.81041" lon="4.67966">
        <ele>247</ele>
        <time>2022-05-17T13:28:49.537Z</time>
      </trkpt>
      <trkpt lat="49.81043" lon="4.67968">
        <ele>247</ele>
        <time>2022-05-17T13:28:50.530Z</time>
      </trkpt>
      <trkpt lat="49.81043" lon="4.67968">
        <ele>247</ele>
        <time>2022-05-17T13:28:51.536Z</time>
      </trkpt>
      <trkpt lat="49.81047" lon="4.67973">
        <ele>248</ele>
        <time>2022-05-17T13:28:52.560Z</time>
      </trkpt>
      <trkpt lat="49.81049" lon="4.67976">
        <ele>248</ele>
        <time>2022-05-17T13:28:53.538Z</time>
      </trkpt>
      <trkpt lat="49.81049" lon="4.67976">
        <ele>248</ele>
        <time>2022-05-17T13:28:54.544Z</time>
      </trkpt>
      <trkpt lat="49.81054" lon="4.6798">
        <ele>248</ele>
        <time>2022-05-17T13:28:55.562Z</time>
      </trkpt>
      <trkpt lat="49.81054" lon="4.6798">
        <ele>248</ele>
        <time>2022-05-17T13:28:56.528Z</time>
      </trkpt>
      <trkpt lat="49.81058" lon="4.67985">
        <ele>248</ele>
        <time>2022-05-17T13:28:57.546Z</time>
      </trkpt>
      <trkpt lat="49.81058" lon="4.67985">
        <ele>248</ele>
        <time>2022-05-17T13:28:58.552Z</time>
      </trkpt>
      <trkpt lat="49.81062" lon="4.6799">
        <ele>248</ele>
        <time>2022-05-17T13:28:59.534Z</time>
      </trkpt>
      <trkpt lat="49.81065" lon="4.67992">
        <ele>248</ele>
        <time>2022-05-17T13:29:00.532Z</time>
      </trkpt>
      <trkpt lat="49.81067" lon="4.67994">
        <ele>248</ele>
        <time>2022-05-17T13:29:01.531Z</time>
      </trkpt>
      <trkpt lat="49.81067" lon="4.67994">
        <ele>248</ele>
        <time>2022-05-17T13:29:02.536Z</time>
      </trkpt>
      <trkpt lat="49.81071" lon="4.67999">
        <ele>248</ele>
        <time>2022-05-17T13:29:03.556Z</time>
      </trkpt>
      <trkpt lat="49.81073" lon="4.68001">
        <ele>248</ele>
        <time>2022-05-17T13:29:04.529Z</time>
      </trkpt>
      <trkpt lat="49.81073" lon="4.68001">
        <ele>248</ele>
        <time>2022-05-17T13:29:05.535Z</time>
      </trkpt>
      <trkpt lat="49.81077" lon="4.68005">
        <ele>248</ele>
        <time>2022-05-17T13:29:06.563Z</time>
      </trkpt>
      <trkpt lat="49.81079" lon="4.68006">
        <ele>248</ele>
        <time>2022-05-17T13:29:07.546Z</time>
      </trkpt>
      <trkpt lat="49.81079" lon="4.68006">
        <ele>248</ele>
        <time>2022-05-17T13:29:08.551Z</time>
      </trkpt>
      <trkpt lat="49.81083" lon="4.68009">
        <ele>248</ele>
        <time>2022-05-17T13:29:09.530Z</time>
      </trkpt>
      <trkpt lat="49.81085" lon="4.6801">
        <ele>248</ele>
        <time>2022-05-17T13:29:10.551Z</time>
      </trkpt>
      <trkpt lat="49.81085" lon="4.6801">
        <ele>248</ele>
        <time>2022-05-17T13:29:11.558Z</time>
      </trkpt>
      <trkpt lat="49.81088" lon="4.68013">
        <ele>249</ele>
        <time>2022-05-17T13:29:12.540Z</time>
      </trkpt>
      <trkpt lat="49.8109" lon="4.68015">
        <ele>248</ele>
        <time>2022-05-17T13:29:13.550Z</time>
      </trkpt>
      <trkpt lat="49.8109" lon="4.68015">
        <ele>248</ele>
        <time>2022-05-17T13:29:14.557Z</time>
      </trkpt>
      <trkpt lat="49.81094" lon="4.68018">
        <ele>248</ele>
        <time>2022-05-17T13:29:15.546Z</time>
      </trkpt>
      <trkpt lat="49.81094" lon="4.68018">
        <ele>248</ele>
        <time>2022-05-17T13:29:16.552Z</time>
      </trkpt>
      <trkpt lat="49.81098" lon="4.6802">
        <ele>249</ele>
        <time>2022-05-17T13:29:17.543Z</time>
      </trkpt>
      <trkpt lat="49.81098" lon="4.6802">
        <ele>249</ele>
        <time>2022-05-17T13:29:18.551Z</time>
      </trkpt>
      <trkpt lat="49.81102" lon="4.68022">
        <ele>249</ele>
        <time>2022-05-17T13:29:19.529Z</time>
      </trkpt>
      <trkpt lat="49.81102" lon="4.68022">
        <ele>249</ele>
        <time>2022-05-17T13:29:20.545Z</time>
      </trkpt>
      <trkpt lat="49.81106" lon="4.68024">
        <ele>249</ele>
        <time>2022-05-17T13:29:21.543Z</time>
      </trkpt>
      <trkpt lat="49.81106" lon="4.68024">
        <ele>249</ele>
        <time>2022-05-17T13:29:22.537Z</time>
      </trkpt>
      <trkpt lat="49.81109" lon="4.68026">
        <ele>249</ele>
        <time>2022-05-17T13:29:23.554Z</time>
      </trkpt>
      <trkpt lat="49.81109" lon="4.68026">
        <ele>249</ele>
        <time>2022-05-17T13:29:24.561Z</time>
      </trkpt>
      <trkpt lat="49.81112" lon="4.68028">
        <ele>249</ele>
        <time>2022-05-17T13:29:25.536Z</time>
      </trkpt>
      <trkpt lat="49.81112" lon="4.68028">
        <ele>249</ele>
        <time>2022-05-17T13:29:26.542Z</time>
      </trkpt>
      <trkpt lat="49.81115" lon="4.68031">
        <ele>250</ele>
        <time>2022-05-17T13:29:27.534Z</time>
      </trkpt>
      <trkpt lat="49.81115" lon="4.68031">
        <ele>250</ele>
        <time>2022-05-17T13:29:28.540Z</time>
      </trkpt>
      <trkpt lat="49.81118" lon="4.68033">
        <ele>250</ele>
        <time>2022-05-17T13:29:29.545Z</time>
      </trkpt>
      <trkpt lat="49.81118" lon="4.68033">
        <ele>250</ele>
        <time>2022-05-17T13:29:30.550Z</time>
      </trkpt>
      <trkpt lat="49.81121" lon="4.68035">
        <ele>250</ele>
        <time>2022-05-17T13:29:31.564Z</time>
      </trkpt>
      <trkpt lat="49.81121" lon="4.68035">
        <ele>250</ele>
        <time>2022-05-17T13:29:32.531Z</time>
      </trkpt>
      <trkpt lat="49.81125" lon="4.68037">
        <ele>250</ele>
        <time>2022-05-17T13:29:33.550Z</time>
      </trkpt>
      <trkpt lat="49.81126" lon="4.68039">
        <ele>250</ele>
        <time>2022-05-17T13:29:34.555Z</time>
      </trkpt>
      <trkpt lat="49.81126" lon="4.68039">
        <ele>250</ele>
        <time>2022-05-17T13:29:35.561Z</time>
      </trkpt>
      <trkpt lat="49.8113" lon="4.68041">
        <ele>250</ele>
        <time>2022-05-17T13:29:36.540Z</time>
      </trkpt>
      <trkpt lat="49.81131" lon="4.68042">
        <ele>250</ele>
        <time>2022-05-17T13:29:37.560Z</time>
      </trkpt>
      <trkpt lat="49.81131" lon="4.68042">
        <ele>250</ele>
        <time>2022-05-17T13:29:38.526Z</time>
      </trkpt>
      <trkpt lat="49.81134" lon="4.68045">
        <ele>250</ele>
        <time>2022-05-17T13:29:39.555Z</time>
      </trkpt>
      <trkpt lat="49.81134" lon="4.68045">
        <ele>250</ele>
        <time>2022-05-17T13:29:40.560Z</time>
      </trkpt>
      <trkpt lat="49.81137" lon="4.68047">
        <ele>251</ele>
        <time>2022-05-17T13:29:41.542Z</time>
      </trkpt>
      <trkpt lat="49.81139" lon="4.68048">
        <ele>251</ele>
        <time>2022-05-17T13:29:42.526Z</time>
      </trkpt>
      <trkpt lat="49.81141" lon="4.68049">
        <ele>250</ele>
        <time>2022-05-17T13:29:43.563Z</time>
      </trkpt>
      <trkpt lat="49.81141" lon="4.68049">
        <ele>250</ele>
        <time>2022-05-17T13:29:44.528Z</time>
      </trkpt>
      <trkpt lat="49.81144" lon="4.68052">
        <ele>251</ele>
        <time>2022-05-17T13:29:45.545Z</time>
      </trkpt>
      <trkpt lat="49.81145" lon="4.68053">
        <ele>251</ele>
        <time>2022-05-17T13:29:46.548Z</time>
      </trkpt>
      <trkpt lat="49.81147" lon="4.68054">
        <ele>251</ele>
        <time>2022-05-17T13:29:47.543Z</time>
      </trkpt>
      <trkpt lat="49.81147" lon="4.68054">
        <ele>251</ele>
        <time>2022-05-17T13:29:48.554Z</time>
      </trkpt>
      <trkpt lat="49.8115" lon="4.68057">
        <ele>251</ele>
        <time>2022-05-17T13:29:49.543Z</time>
      </trkpt>
      <trkpt lat="49.8115" lon="4.68057">
        <ele>251</ele>
        <time>2022-05-17T13:29:50.556Z</time>
      </trkpt>
      <trkpt lat="49.81153" lon="4.68059">
        <ele>251</ele>
        <time>2022-05-17T13:29:51.536Z</time>
      </trkpt>
      <trkpt lat="49.81155" lon="4.6806">
        <ele>251</ele>
        <time>2022-05-17T13:29:52.554Z</time>
      </trkpt>
      <trkpt lat="49.81155" lon="4.6806">
        <ele>251</ele>
        <time>2022-05-17T13:29:53.561Z</time>
      </trkpt>
      <trkpt lat="49.81158" lon="4.68063">
        <ele>251</ele>
        <time>2022-05-17T13:29:54.538Z</time>
      </trkpt>
      <trkpt lat="49.8116" lon="4.68064">
        <ele>251</ele>
        <time>2022-05-17T13:29:55.561Z</time>
      </trkpt>
      <trkpt lat="49.8116" lon="4.68064">
        <ele>251</ele>
        <time>2022-05-17T13:29:56.526Z</time>
      </trkpt>
      <trkpt lat="49.81163" lon="4.68067">
        <ele>252</ele>
        <time>2022-05-17T13:29:57.542Z</time>
      </trkpt>
      <trkpt lat="49.81164" lon="4.68068">
        <ele>252</ele>
        <time>2022-05-17T13:29:58.563Z</time>
      </trkpt>
      <trkpt lat="49.81164" lon="4.68068">
        <ele>252</ele>
        <time>2022-05-17T13:29:59.529Z</time>
      </trkpt>
      <trkpt lat="49.81167" lon="4.6807">
        <ele>252</ele>
        <time>2022-05-17T13:30:00.525Z</time>
      </trkpt>
      <trkpt lat="49.81169" lon="4.68071">
        <ele>252</ele>
        <time>2022-05-17T13:30:01.548Z</time>
      </trkpt>
      <trkpt lat="49.81169" lon="4.68071">
        <ele>252</ele>
        <time>2022-05-17T13:30:02.555Z</time>
      </trkpt>
      <trkpt lat="49.81172" lon="4.68074">
        <ele>252</ele>
        <time>2022-05-17T13:30:03.538Z</time>
      </trkpt>
      <trkpt lat="49.81173" lon="4.68075">
        <ele>253</ele>
        <time>2022-05-17T13:30:04.530Z</time>
      </trkpt>
      <trkpt lat="49.81175" lon="4.68077">
        <ele>253</ele>
        <time>2022-05-17T13:30:05.547Z</time>
      </trkpt>
      <trkpt lat="49.81175" lon="4.68077">
        <ele>253</ele>
        <time>2022-05-17T13:30:06.559Z</time>
      </trkpt>
      <trkpt lat="49.81178" lon="4.6808">
        <ele>253</ele>
        <time>2022-05-17T13:30:07.541Z</time>
      </trkpt>
      <trkpt lat="49.81178" lon="4.6808">
        <ele>253</ele>
        <time>2022-05-17T13:30:08.549Z</time>
      </trkpt>
      <trkpt lat="49.81181" lon="4.68082">
        <ele>253</ele>
        <time>2022-05-17T13:30:09.531Z</time>
      </trkpt>
      <trkpt lat="49.81181" lon="4.68082">
        <ele>253</ele>
        <time>2022-05-17T13:30:10.553Z</time>
      </trkpt>
      <trkpt lat="49.81184" lon="4.68084">
        <ele>254</ele>
        <time>2022-05-17T13:30:11.534Z</time>
      </trkpt>
      <trkpt lat="49.81184" lon="4.68084">
        <ele>254</ele>
        <time>2022-05-17T13:30:12.539Z</time>
      </trkpt>
      <trkpt lat="49.81186" lon="4.68086">
        <ele>255</ele>
        <time>2022-05-17T13:30:13.557Z</time>
      </trkpt>
      <trkpt lat="49.81186" lon="4.68086">
        <ele>255</ele>
        <time>2022-05-17T13:30:14.562Z</time>
      </trkpt>
      <trkpt lat="49.81187" lon="4.68086">
        <ele>255</ele>
        <time>2022-05-17T13:30:15.539Z</time>
      </trkpt>
      <trkpt lat="49.81188" lon="4.68086">
        <ele>256</ele>
        <time>2022-05-17T13:30:16.558Z</time>
      </trkpt>
      <trkpt lat="49.81188" lon="4.68086">
        <ele>256</ele>
        <time>2022-05-17T13:30:17.564Z</time>
      </trkpt>
      <trkpt lat="49.81189" lon="4.68087">
        <ele>256</ele>
        <time>2022-05-17T13:30:18.563Z</time>
      </trkpt>
      <trkpt lat="49.81189" lon="4.68087">
        <ele>256</ele>
        <time>2022-05-17T13:30:19.529Z</time>
      </trkpt>
      <trkpt lat="49.81191" lon="4.68088">
        <ele>257</ele>
        <time>2022-05-17T13:30:20.535Z</time>
      </trkpt>
      <trkpt lat="49.81191" lon="4.68088">
        <ele>257</ele>
        <time>2022-05-17T13:30:21.560Z</time>
      </trkpt>
      <trkpt lat="49.81194" lon="4.6809">
        <ele>257</ele>
        <time>2022-05-17T13:30:22.550Z</time>
      </trkpt>
      <trkpt lat="49.81194" lon="4.6809">
        <ele>257</ele>
        <time>2022-05-17T13:30:23.555Z</time>
      </trkpt>
      <trkpt lat="49.81198" lon="4.68092">
        <ele>258</ele>
        <time>2022-05-17T13:30:24.533Z</time>
      </trkpt>
      <trkpt lat="49.812" lon="4.68093">
        <ele>258</ele>
        <time>2022-05-17T13:30:25.549Z</time>
      </trkpt>
      <trkpt lat="49.812" lon="4.68093">
        <ele>258</ele>
        <time>2022-05-17T13:30:26.558Z</time>
      </trkpt>
      <trkpt lat="49.81204" lon="4.68096">
        <ele>258</ele>
        <time>2022-05-17T13:30:27.547Z</time>
      </trkpt>
      <trkpt lat="49.81204" lon="4.68096">
        <ele>258</ele>
        <time>2022-05-17T13:30:28.556Z</time>
      </trkpt>
      <trkpt lat="49.81208" lon="4.68099">
        <ele>259</ele>
        <time>2022-05-17T13:30:29.542Z</time>
      </trkpt>
      <trkpt lat="49.81209" lon="4.68101">
        <ele>259</ele>
        <time>2022-05-17T13:30:30.526Z</time>
      </trkpt>
      <trkpt lat="49.81211" lon="4.68102">
        <ele>260</ele>
        <time>2022-05-17T13:30:31.549Z</time>
      </trkpt>
      <trkpt lat="49.81211" lon="4.68102">
        <ele>260</ele>
        <time>2022-05-17T13:30:32.557Z</time>
      </trkpt>
      <trkpt lat="49.81214" lon="4.68106">
        <ele>260</ele>
        <time>2022-05-17T13:30:33.543Z</time>
      </trkpt>
      <trkpt lat="49.81214" lon="4.68106">
        <ele>260</ele>
        <time>2022-05-17T13:30:34.557Z</time>
      </trkpt>
      <trkpt lat="49.81217" lon="4.68108">
        <ele>261</ele>
        <time>2022-05-17T13:30:35.546Z</time>
      </trkpt>
      <trkpt lat="49.81217" lon="4.68108">
        <ele>261</ele>
        <time>2022-05-17T13:30:36.551Z</time>
      </trkpt>
      <trkpt lat="49.81222" lon="4.68112">
        <ele>262</ele>
        <time>2022-05-17T13:30:37.531Z</time>
      </trkpt>
      <trkpt lat="49.81222" lon="4.68112">
        <ele>262</ele>
        <time>2022-05-17T13:30:38.536Z</time>
      </trkpt>
      <trkpt lat="49.81228" lon="4.68117">
        <ele>262</ele>
        <time>2022-05-17T13:30:39.565Z</time>
      </trkpt>
      <trkpt lat="49.81228" lon="4.68117">
        <ele>262</ele>
        <time>2022-05-17T13:30:40.543Z</time>
      </trkpt>
      <trkpt lat="49.81233" lon="4.68122">
        <ele>263</ele>
        <time>2022-05-17T13:30:41.531Z</time>
      </trkpt>
      <trkpt lat="49.81233" lon="4.68122">
        <ele>263</ele>
        <time>2022-05-17T13:30:42.536Z</time>
      </trkpt>
      <trkpt lat="49.81239" lon="4.68128">
        <ele>263</ele>
        <time>2022-05-17T13:30:43.557Z</time>
      </trkpt>
      <trkpt lat="49.81239" lon="4.68128">
        <ele>263</ele>
        <time>2022-05-17T13:30:44.563Z</time>
      </trkpt>
      <trkpt lat="49.81245" lon="4.68134">
        <ele>264</ele>
        <time>2022-05-17T13:30:45.540Z</time>
      </trkpt>
      <trkpt lat="49.81245" lon="4.68134">
        <ele>264</ele>
        <time>2022-05-17T13:30:46.545Z</time>
      </trkpt>
      <trkpt lat="49.81251" lon="4.68139">
        <ele>265</ele>
        <time>2022-05-17T13:30:47.527Z</time>
      </trkpt>
      <trkpt lat="49.81251" lon="4.68139">
        <ele>265</ele>
        <time>2022-05-17T13:30:48.533Z</time>
      </trkpt>
      <trkpt lat="49.81257" lon="4.68144">
        <ele>265</ele>
        <time>2022-05-17T13:30:49.546Z</time>
      </trkpt>
      <trkpt lat="49.81257" lon="4.68144">
        <ele>265</ele>
        <time>2022-05-17T13:30:50.552Z</time>
      </trkpt>
      <trkpt lat="49.81263" lon="4.68148">
        <ele>265</ele>
        <time>2022-05-17T13:30:51.539Z</time>
      </trkpt>
      <trkpt lat="49.81263" lon="4.68148">
        <ele>265</ele>
        <time>2022-05-17T13:30:52.545Z</time>
      </trkpt>
      <trkpt lat="49.81268" lon="4.68152">
        <ele>264</ele>
        <time>2022-05-17T13:30:53.528Z</time>
      </trkpt>
      <trkpt lat="49.8127" lon="4.68154">
        <ele>264</ele>
        <time>2022-05-17T13:30:54.543Z</time>
      </trkpt>
      <trkpt lat="49.81274" lon="4.68155">
        <ele>264</ele>
        <time>2022-05-17T13:30:55.561Z</time>
      </trkpt>
      <trkpt lat="49.81274" lon="4.68155">
        <ele>264</ele>
        <time>2022-05-17T13:30:56.526Z</time>
      </trkpt>
      <trkpt lat="49.81278" lon="4.68158">
        <ele>264</ele>
        <time>2022-05-17T13:30:57.553Z</time>
      </trkpt>
      <trkpt lat="49.8128" lon="4.68159">
        <ele>265</ele>
        <time>2022-05-17T13:30:58.529Z</time>
      </trkpt>
      <trkpt lat="49.8128" lon="4.68159">
        <ele>265</ele>
        <time>2022-05-17T13:30:59.545Z</time>
      </trkpt>
      <trkpt lat="49.81283" lon="4.68161">
        <ele>265</ele>
        <time>2022-05-17T13:31:00.557Z</time>
      </trkpt>
      <trkpt lat="49.81286" lon="4.68162">
        <ele>265</ele>
        <time>2022-05-17T13:31:01.538Z</time>
      </trkpt>
      <trkpt lat="49.81286" lon="4.68162">
        <ele>265</ele>
        <time>2022-05-17T13:31:02.544Z</time>
      </trkpt>
      <trkpt lat="49.81289" lon="4.68164">
        <ele>265</ele>
        <time>2022-05-17T13:31:03.534Z</time>
      </trkpt>
      <trkpt lat="49.81291" lon="4.68165">
        <ele>266</ele>
        <time>2022-05-17T13:31:04.554Z</time>
      </trkpt>
      <trkpt lat="49.81291" lon="4.68165">
        <ele>266</ele>
        <time>2022-05-17T13:31:05.560Z</time>
      </trkpt>
      <trkpt lat="49.81294" lon="4.68168">
        <ele>266</ele>
        <time>2022-05-17T13:31:06.536Z</time>
      </trkpt>
      <trkpt lat="49.81295" lon="4.68169">
        <ele>267</ele>
        <time>2022-05-17T13:31:07.550Z</time>
      </trkpt>
      <trkpt lat="49.81295" lon="4.68169">
        <ele>267</ele>
        <time>2022-05-17T13:31:08.560Z</time>
      </trkpt>
      <trkpt lat="49.81298" lon="4.68172">
        <ele>267</ele>
        <time>2022-05-17T13:31:09.529Z</time>
      </trkpt>
      <trkpt lat="49.81299" lon="4.68173">
        <ele>267</ele>
        <time>2022-05-17T13:31:10.550Z</time>
      </trkpt>
      <trkpt lat="49.81301" lon="4.68174">
        <ele>268</ele>
        <time>2022-05-17T13:31:11.526Z</time>
      </trkpt>
      <trkpt lat="49.81301" lon="4.68174">
        <ele>268</ele>
        <time>2022-05-17T13:31:12.531Z</time>
      </trkpt>
      <trkpt lat="49.81304" lon="4.68178">
        <ele>268</ele>
        <time>2022-05-17T13:31:13.551Z</time>
      </trkpt>
      <trkpt lat="49.81304" lon="4.68178">
        <ele>268</ele>
        <time>2022-05-17T13:31:14.525Z</time>
      </trkpt>
      <trkpt lat="49.81307" lon="4.68181">
        <ele>269</ele>
        <time>2022-05-17T13:31:15.539Z</time>
      </trkpt>
      <trkpt lat="49.81308" lon="4.68183">
        <ele>269</ele>
        <time>2022-05-17T13:31:16.557Z</time>
      </trkpt>
      <trkpt lat="49.81308" lon="4.68183">
        <ele>269</ele>
        <time>2022-05-17T13:31:17.562Z</time>
      </trkpt>
      <trkpt lat="49.81313" lon="4.68187">
        <ele>269</ele>
        <time>2022-05-17T13:31:18.540Z</time>
      </trkpt>
      <trkpt lat="49.81315" lon="4.6819">
        <ele>269</ele>
        <time>2022-05-17T13:31:19.558Z</time>
      </trkpt>
      <trkpt lat="49.81315" lon="4.6819">
        <ele>269</ele>
        <time>2022-05-17T13:31:20.563Z</time>
      </trkpt>
      <trkpt lat="49.8132" lon="4.68194">
        <ele>270</ele>
        <time>2022-05-17T13:31:21.558Z</time>
      </trkpt>
      <trkpt lat="49.81322" lon="4.68197">
        <ele>270</ele>
        <time>2022-05-17T13:31:22.539Z</time>
      </trkpt>
      <trkpt lat="49.81324" lon="4.68198">
        <ele>270</ele>
        <time>2022-05-17T13:31:23.558Z</time>
      </trkpt>
      <trkpt lat="49.81324" lon="4.68198">
        <ele>270</ele>
        <time>2022-05-17T13:31:24.524Z</time>
      </trkpt>
      <trkpt lat="49.81329" lon="4.68202">
        <ele>271</ele>
        <time>2022-05-17T13:31:25.545Z</time>
      </trkpt>
      <trkpt lat="49.81329" lon="4.68202">
        <ele>271</ele>
        <time>2022-05-17T13:31:26.556Z</time>
      </trkpt>
      <trkpt lat="49.81334" lon="4.68207">
        <ele>271</ele>
        <time>2022-05-17T13:31:27.543Z</time>
      </trkpt>
      <trkpt lat="49.81334" lon="4.68207">
        <ele>271</ele>
        <time>2022-05-17T13:31:28.558Z</time>
      </trkpt>
      <trkpt lat="49.81337" lon="4.68208">
        <ele>272</ele>
        <time>2022-05-17T13:31:29.545Z</time>
      </trkpt>
      <trkpt lat="49.81339" lon="4.68209">
        <ele>272</ele>
        <time>2022-05-17T13:31:30.539Z</time>
      </trkpt>
      <trkpt lat="49.8134" lon="4.6821">
        <ele>272</ele>
        <time>2022-05-17T13:31:31.556Z</time>
      </trkpt>
      <trkpt lat="49.8134" lon="4.6821">
        <ele>272</ele>
        <time>2022-05-17T13:31:32.562Z</time>
      </trkpt>
      <trkpt lat="49.81343" lon="4.68211">
        <ele>272</ele>
        <time>2022-05-17T13:31:33.537Z</time>
      </trkpt>
      <trkpt lat="49.81343" lon="4.68211">
        <ele>272</ele>
        <time>2022-05-17T13:31:34.542Z</time>
      </trkpt>
      <trkpt lat="49.81346" lon="4.68213">
        <ele>273</ele>
        <time>2022-05-17T13:31:35.525Z</time>
      </trkpt>
      <trkpt lat="49.81348" lon="4.68215">
        <ele>273</ele>
        <time>2022-05-17T13:31:36.543Z</time>
      </trkpt>
      <trkpt lat="49.81348" lon="4.68215">
        <ele>273</ele>
        <time>2022-05-17T13:31:37.561Z</time>
      </trkpt>
      <trkpt lat="49.81351" lon="4.68217">
        <ele>273</ele>
        <time>2022-05-17T13:31:38.536Z</time>
      </trkpt>
      <trkpt lat="49.81354" lon="4.68219">
        <ele>274</ele>
        <time>2022-05-17T13:31:39.540Z</time>
      </trkpt>
      <trkpt lat="49.81356" lon="4.68221">
        <ele>274</ele>
        <time>2022-05-17T13:31:40.541Z</time>
      </trkpt>
      <trkpt lat="49.81356" lon="4.68221">
        <ele>274</ele>
        <time>2022-05-17T13:31:41.547Z</time>
      </trkpt>
      <trkpt lat="49.8136" lon="4.68226">
        <ele>274</ele>
        <time>2022-05-17T13:31:42.563Z</time>
      </trkpt>
      <trkpt lat="49.81363" lon="4.68228">
        <ele>274</ele>
        <time>2022-05-17T13:31:43.548Z</time>
      </trkpt>
      <trkpt lat="49.81363" lon="4.68228">
        <ele>274</ele>
        <time>2022-05-17T13:31:44.559Z</time>
      </trkpt>
      <trkpt lat="49.81367" lon="4.68233">
        <ele>274</ele>
        <time>2022-05-17T13:31:45.538Z</time>
      </trkpt>
      <trkpt lat="49.81367" lon="4.68233">
        <ele>274</ele>
        <time>2022-05-17T13:31:46.543Z</time>
      </trkpt>
      <trkpt lat="49.81371" lon="4.68238">
        <ele>275</ele>
        <time>2022-05-17T13:31:47.562Z</time>
      </trkpt>
      <trkpt lat="49.81371" lon="4.68238">
        <ele>275</ele>
        <time>2022-05-17T13:31:48.528Z</time>
      </trkpt>
      <trkpt lat="49.81374" lon="4.68243">
        <ele>274</ele>
        <time>2022-05-17T13:31:49.552Z</time>
      </trkpt>
      <trkpt lat="49.81376" lon="4.68245">
        <ele>274</ele>
        <time>2022-05-17T13:31:50.547Z</time>
      </trkpt>
      <trkpt lat="49.81376" lon="4.68245">
        <ele>274</ele>
        <time>2022-05-17T13:31:51.553Z</time>
      </trkpt>
      <trkpt lat="49.8138" lon="4.6825">
        <ele>274</ele>
        <time>2022-05-17T13:31:52.528Z</time>
      </trkpt>
      <trkpt lat="49.8138" lon="4.6825">
        <ele>274</ele>
        <time>2022-05-17T13:31:53.534Z</time>
      </trkpt>
      <trkpt lat="49.81383" lon="4.68255">
        <ele>274</ele>
        <time>2022-05-17T13:31:54.561Z</time>
      </trkpt>
      <trkpt lat="49.81385" lon="4.68257">
        <ele>273</ele>
        <time>2022-05-17T13:31:55.544Z</time>
      </trkpt>
      <trkpt lat="49.81385" lon="4.68257">
        <ele>273</ele>
        <time>2022-05-17T13:31:56.556Z</time>
      </trkpt>
      <trkpt lat="49.81388" lon="4.68263">
        <ele>273</ele>
        <time>2022-05-17T13:31:57.533Z</time>
      </trkpt>
      <trkpt lat="49.8139" lon="4.68266">
        <ele>273</ele>
        <time>2022-05-17T13:31:58.549Z</time>
      </trkpt>
      <trkpt lat="49.81391" lon="4.68269">
        <ele>273</ele>
        <time>2022-05-17T13:31:59.532Z</time>
      </trkpt>
      <trkpt lat="49.81391" lon="4.68269">
        <ele>273</ele>
        <time>2022-05-17T13:32:00.552Z</time>
      </trkpt>
      <trkpt lat="49.81396" lon="4.68274">
        <ele>274</ele>
        <time>2022-05-17T13:32:01.530Z</time>
      </trkpt>
      <trkpt lat="49.81396" lon="4.68274">
        <ele>274</ele>
        <time>2022-05-17T13:32:02.536Z</time>
      </trkpt>
      <trkpt lat="49.814" lon="4.6828">
        <ele>273</ele>
        <time>2022-05-17T13:32:03.550Z</time>
      </trkpt>
      <trkpt lat="49.814" lon="4.6828">
        <ele>273</ele>
        <time>2022-05-17T13:32:04.558Z</time>
      </trkpt>
      <trkpt lat="49.81405" lon="4.68286">
        <ele>273</ele>
        <time>2022-05-17T13:32:05.540Z</time>
      </trkpt>
      <trkpt lat="49.81407" lon="4.68289">
        <ele>273</ele>
        <time>2022-05-17T13:32:06.563Z</time>
      </trkpt>
      <trkpt lat="49.81409" lon="4.68292">
        <ele>273</ele>
        <time>2022-05-17T13:32:07.542Z</time>
      </trkpt>
      <trkpt lat="49.81409" lon="4.68292">
        <ele>273</ele>
        <time>2022-05-17T13:32:08.548Z</time>
      </trkpt>
      <trkpt lat="49.81413" lon="4.68298">
        <ele>273</ele>
        <time>2022-05-17T13:32:09.562Z</time>
      </trkpt>
      <trkpt lat="49.81413" lon="4.68298">
        <ele>273</ele>
        <time>2022-05-17T13:32:10.526Z</time>
      </trkpt>
      <trkpt lat="49.81417" lon="4.68304">
        <ele>273</ele>
        <time>2022-05-17T13:32:11.561Z</time>
      </trkpt>
      <trkpt lat="49.81417" lon="4.68304">
        <ele>273</ele>
        <time>2022-05-17T13:32:12.527Z</time>
      </trkpt>
      <trkpt lat="49.81421" lon="4.68311">
        <ele>273</ele>
        <time>2022-05-17T13:32:13.549Z</time>
      </trkpt>
      <trkpt lat="49.81421" lon="4.68311">
        <ele>273</ele>
        <time>2022-05-17T13:32:14.556Z</time>
      </trkpt>
      <trkpt lat="49.81425" lon="4.68318">
        <ele>273</ele>
        <time>2022-05-17T13:32:15.533Z</time>
      </trkpt>
      <trkpt lat="49.81427" lon="4.68321">
        <ele>273</ele>
        <time>2022-05-17T13:32:16.533Z</time>
      </trkpt>
      <trkpt lat="49.81427" lon="4.68321">
        <ele>273</ele>
        <time>2022-05-17T13:32:17.538Z</time>
      </trkpt>
      <trkpt lat="49.81431" lon="4.68328">
        <ele>273</ele>
        <time>2022-05-17T13:32:18.524Z</time>
      </trkpt>
      <trkpt lat="49.81433" lon="4.68331">
        <ele>273</ele>
        <time>2022-05-17T13:32:19.545Z</time>
      </trkpt>
      <trkpt lat="49.81433" lon="4.68331">
        <ele>273</ele>
        <time>2022-05-17T13:32:20.557Z</time>
      </trkpt>
      <trkpt lat="49.81437" lon="4.68338">
        <ele>273</ele>
        <time>2022-05-17T13:32:21.538Z</time>
      </trkpt>
      <trkpt lat="49.81437" lon="4.68338">
        <ele>273</ele>
        <time>2022-05-17T13:32:22.544Z</time>
      </trkpt>
      <trkpt lat="49.81441" lon="4.68345">
        <ele>273</ele>
        <time>2022-05-17T13:32:23.559Z</time>
      </trkpt>
      <trkpt lat="49.81443" lon="4.68348">
        <ele>273</ele>
        <time>2022-05-17T13:32:24.534Z</time>
      </trkpt>
      <trkpt lat="49.81446" lon="4.68352">
        <ele>273</ele>
        <time>2022-05-17T13:32:25.554Z</time>
      </trkpt>
      <trkpt lat="49.81446" lon="4.68352">
        <ele>273</ele>
        <time>2022-05-17T13:32:26.528Z</time>
      </trkpt>
      <trkpt lat="49.8145" lon="4.68359">
        <ele>273</ele>
        <time>2022-05-17T13:32:27.546Z</time>
      </trkpt>
      <trkpt lat="49.8145" lon="4.68359">
        <ele>273</ele>
        <time>2022-05-17T13:32:28.552Z</time>
      </trkpt>
      <trkpt lat="49.81454" lon="4.68365">
        <ele>272</ele>
        <time>2022-05-17T13:32:29.551Z</time>
      </trkpt>
      <trkpt lat="49.81454" lon="4.68365">
        <ele>272</ele>
        <time>2022-05-17T13:32:30.556Z</time>
      </trkpt>
      <trkpt lat="49.81459" lon="4.68372">
        <ele>272</ele>
        <time>2022-05-17T13:32:31.541Z</time>
      </trkpt>
      <trkpt lat="49.81459" lon="4.68372">
        <ele>272</ele>
        <time>2022-05-17T13:32:32.551Z</time>
      </trkpt>
      <trkpt lat="49.81464" lon="4.68379">
        <ele>272</ele>
        <time>2022-05-17T13:32:33.526Z</time>
      </trkpt>
      <trkpt lat="49.81466" lon="4.68382">
        <ele>272</ele>
        <time>2022-05-17T13:32:34.535Z</time>
      </trkpt>
      <trkpt lat="49.81466" lon="4.68382">
        <ele>272</ele>
        <time>2022-05-17T13:32:35.540Z</time>
      </trkpt>
      <trkpt lat="49.81471" lon="4.68388">
        <ele>273</ele>
        <time>2022-05-17T13:32:36.559Z</time>
      </trkpt>
      <trkpt lat="49.81473" lon="4.68392">
        <ele>273</ele>
        <time>2022-05-17T13:32:37.536Z</time>
      </trkpt>
      <trkpt lat="49.81473" lon="4.68392">
        <ele>273</ele>
        <time>2022-05-17T13:32:38.541Z</time>
      </trkpt>
      <trkpt lat="49.81477" lon="4.684">
        <ele>273</ele>
        <time>2022-05-17T13:32:39.560Z</time>
      </trkpt>
      <trkpt lat="49.81478" lon="4.68404">
        <ele>273</ele>
        <time>2022-05-17T13:32:40.551Z</time>
      </trkpt>
      <trkpt lat="49.81478" lon="4.68404">
        <ele>273</ele>
        <time>2022-05-17T13:32:41.556Z</time>
      </trkpt>
      <trkpt lat="49.81482" lon="4.6841">
        <ele>273</ele>
        <time>2022-05-17T13:32:42.536Z</time>
      </trkpt>
      <trkpt lat="49.81484" lon="4.68413">
        <ele>274</ele>
        <time>2022-05-17T13:32:43.554Z</time>
      </trkpt>
      <trkpt lat="49.81484" lon="4.68413">
        <ele>274</ele>
        <time>2022-05-17T13:32:44.560Z</time>
      </trkpt>
      <trkpt lat="49.81488" lon="4.68418">
        <ele>273</ele>
        <time>2022-05-17T13:32:45.549Z</time>
      </trkpt>
      <trkpt lat="49.8149" lon="4.68422">
        <ele>273</ele>
        <time>2022-05-17T13:32:46.525Z</time>
      </trkpt>
      <trkpt lat="49.8149" lon="4.68422">
        <ele>273</ele>
        <time>2022-05-17T13:32:47.530Z</time>
      </trkpt>
      <trkpt lat="49.81494" lon="4.6843">
        <ele>272</ele>
        <time>2022-05-17T13:32:48.549Z</time>
      </trkpt>
      <trkpt lat="49.81497" lon="4.68434">
        <ele>272</ele>
        <time>2022-05-17T13:32:49.537Z</time>
      </trkpt>
      <trkpt lat="49.81497" lon="4.68434">
        <ele>272</ele>
        <time>2022-05-17T13:32:50.545Z</time>
      </trkpt>
      <trkpt lat="49.81502" lon="4.68443">
        <ele>272</ele>
        <time>2022-05-17T13:32:51.546Z</time>
      </trkpt>
      <trkpt lat="49.81502" lon="4.68443">
        <ele>272</ele>
        <time>2022-05-17T13:32:52.554Z</time>
      </trkpt>
      <trkpt lat="49.81507" lon="4.68451">
        <ele>272</ele>
        <time>2022-05-17T13:32:53.536Z</time>
      </trkpt>
      <trkpt lat="49.81509" lon="4.68454">
        <ele>272</ele>
        <time>2022-05-17T13:32:54.556Z</time>
      </trkpt>
      <trkpt lat="49.81511" lon="4.68457">
        <ele>271</ele>
        <time>2022-05-17T13:32:55.534Z</time>
      </trkpt>
      <trkpt lat="49.81511" lon="4.68457">
        <ele>271</ele>
        <time>2022-05-17T13:32:56.540Z</time>
      </trkpt>
      <trkpt lat="49.81515" lon="4.68464">
        <ele>271</ele>
        <time>2022-05-17T13:32:57.563Z</time>
      </trkpt>
      <trkpt lat="49.81517" lon="4.68466">
        <ele>271</ele>
        <time>2022-05-17T13:32:58.544Z</time>
      </trkpt>
      <trkpt lat="49.81517" lon="4.68466">
        <ele>271</ele>
        <time>2022-05-17T13:32:59.558Z</time>
      </trkpt>
      <trkpt lat="49.81521" lon="4.68472">
        <ele>271</ele>
        <time>2022-05-17T13:33:00.542Z</time>
      </trkpt>
      <trkpt lat="49.81523" lon="4.68476">
        <ele>271</ele>
        <time>2022-05-17T13:33:01.559Z</time>
      </trkpt>
      <trkpt lat="49.81523" lon="4.68476">
        <ele>271</ele>
        <time>2022-05-17T13:33:02.524Z</time>
      </trkpt>
      <trkpt lat="49.81528" lon="4.68482">
        <ele>271</ele>
        <time>2022-05-17T13:33:03.540Z</time>
      </trkpt>
      <trkpt lat="49.8153" lon="4.68486">
        <ele>271</ele>
        <time>2022-05-17T13:33:04.529Z</time>
      </trkpt>
      <trkpt lat="49.81532" lon="4.68489">
        <ele>271</ele>
        <time>2022-05-17T13:33:05.553Z</time>
      </trkpt>
      <trkpt lat="49.81532" lon="4.68489">
        <ele>271</ele>
        <time>2022-05-17T13:33:06.559Z</time>
      </trkpt>
      <trkpt lat="49.81537" lon="4.68496">
        <ele>271</ele>
        <time>2022-05-17T13:33:07.551Z</time>
      </trkpt>
      <trkpt lat="49.81537" lon="4.68496">
        <ele>271</ele>
        <time>2022-05-17T13:33:08.557Z</time>
      </trkpt>
      <trkpt lat="49.81542" lon="4.68503">
        <ele>271</ele>
        <time>2022-05-17T13:33:09.531Z</time>
      </trkpt>
      <trkpt lat="49.81545" lon="4.68506">
        <ele>271</ele>
        <time>2022-05-17T13:33:10.563Z</time>
      </trkpt>
      <trkpt lat="49.81545" lon="4.68506">
        <ele>271</ele>
        <time>2022-05-17T13:33:11.529Z</time>
      </trkpt>
      <trkpt lat="49.8155" lon="4.68511">
        <ele>271</ele>
        <time>2022-05-17T13:33:12.544Z</time>
      </trkpt>
      <trkpt lat="49.8155" lon="4.68511">
        <ele>271</ele>
        <time>2022-05-17T13:33:13.559Z</time>
      </trkpt>
      <trkpt lat="49.81555" lon="4.68516">
        <ele>271</ele>
        <time>2022-05-17T13:33:14.538Z</time>
      </trkpt>
      <trkpt lat="49.81555" lon="4.68516">
        <ele>271</ele>
        <time>2022-05-17T13:33:15.545Z</time>
      </trkpt>
      <trkpt lat="49.81559" lon="4.68521">
        <ele>271</ele>
        <time>2022-05-17T13:33:16.542Z</time>
      </trkpt>
      <trkpt lat="49.81562" lon="4.68524">
        <ele>271</ele>
        <time>2022-05-17T13:33:17.525Z</time>
      </trkpt>
      <trkpt lat="49.81564" lon="4.68526">
        <ele>271</ele>
        <time>2022-05-17T13:33:18.541Z</time>
      </trkpt>
      <trkpt lat="49.81566" lon="4.68529">
        <ele>271</ele>
        <time>2022-05-17T13:33:19.552Z</time>
      </trkpt>
      <trkpt lat="49.81566" lon="4.68529">
        <ele>271</ele>
        <time>2022-05-17T13:33:20.558Z</time>
      </trkpt>
      <trkpt lat="49.81571" lon="4.68533">
        <ele>272</ele>
        <time>2022-05-17T13:33:21.526Z</time>
      </trkpt>
      <trkpt lat="49.81573" lon="4.68535">
        <ele>272</ele>
        <time>2022-05-17T13:33:22.527Z</time>
      </trkpt>
      <trkpt lat="49.81573" lon="4.68535">
        <ele>272</ele>
        <time>2022-05-17T13:33:23.532Z</time>
      </trkpt>
      <trkpt lat="49.81579" lon="4.68536">
        <ele>272</ele>
        <time>2022-05-17T13:33:24.525Z</time>
      </trkpt>
      <trkpt lat="49.81581" lon="4.68536">
        <ele>273</ele>
        <time>2022-05-17T13:33:25.541Z</time>
      </trkpt>
      <trkpt lat="49.81581" lon="4.68536">
        <ele>273</ele>
        <time>2022-05-17T13:33:26.547Z</time>
      </trkpt>
      <trkpt lat="49.81585" lon="4.68537">
        <ele>273</ele>
        <time>2022-05-17T13:33:27.533Z</time>
      </trkpt>
      <trkpt lat="49.81585" lon="4.68537">
        <ele>273</ele>
        <time>2022-05-17T13:33:28.539Z</time>
      </trkpt>
      <trkpt lat="49.81588" lon="4.68539">
        <ele>274</ele>
        <time>2022-05-17T13:33:29.536Z</time>
      </trkpt>
      <trkpt lat="49.81588" lon="4.68539">
        <ele>274</ele>
        <time>2022-05-17T13:33:30.559Z</time>
      </trkpt>
      <trkpt lat="49.81592" lon="4.68538">
        <ele>275</ele>
        <time>2022-05-17T13:33:31.549Z</time>
      </trkpt>
      <trkpt lat="49.81592" lon="4.68538">
        <ele>275</ele>
        <time>2022-05-17T13:33:32.557Z</time>
      </trkpt>
      <trkpt lat="49.81594" lon="4.6854">
        <ele>276</ele>
        <time>2022-05-17T13:33:33.538Z</time>
      </trkpt>
      <trkpt lat="49.81595" lon="4.68541">
        <ele>276</ele>
        <time>2022-05-17T13:33:34.542Z</time>
      </trkpt>
      <trkpt lat="49.81595" lon="4.68541">
        <ele>276</ele>
        <time>2022-05-17T13:33:35.547Z</time>
      </trkpt>
      <trkpt lat="49.81597" lon="4.68543">
        <ele>277</ele>
        <time>2022-05-17T13:33:36.524Z</time>
      </trkpt>
      <trkpt lat="49.81598" lon="4.68545">
        <ele>277</ele>
        <time>2022-05-17T13:33:37.540Z</time>
      </trkpt>
      <trkpt lat="49.81598" lon="4.68545">
        <ele>277</ele>
        <time>2022-05-17T13:33:38.545Z</time>
      </trkpt>
      <trkpt lat="49.816" lon="4.68549">
        <ele>278</ele>
        <time>2022-05-17T13:33:39.558Z</time>
      </trkpt>
      <trkpt lat="49.816" lon="4.68549">
        <ele>278</ele>
        <time>2022-05-17T13:33:40.562Z</time>
      </trkpt>
      <trkpt lat="49.81605" lon="4.68555">
        <ele>279</ele>
        <time>2022-05-17T13:33:41.542Z</time>
      </trkpt>
      <trkpt lat="49.81605" lon="4.68555">
        <ele>279</ele>
        <time>2022-05-17T13:33:42.547Z</time>
      </trkpt>
      <trkpt lat="49.81609" lon="4.6856">
        <ele>280</ele>
        <time>2022-05-17T13:33:43.533Z</time>
      </trkpt>
      <trkpt lat="49.81609" lon="4.6856">
        <ele>280</ele>
        <time>2022-05-17T13:33:44.547Z</time>
      </trkpt>
      <trkpt lat="49.81611" lon="4.68565">
        <ele>280</ele>
        <time>2022-05-17T13:33:45.534Z</time>
      </trkpt>
      <trkpt lat="49.81611" lon="4.68565">
        <ele>280</ele>
        <time>2022-05-17T13:33:46.540Z</time>
      </trkpt>
      <trkpt lat="49.81614" lon="4.68568">
        <ele>281</ele>
        <time>2022-05-17T13:33:47.558Z</time>
      </trkpt>
      <trkpt lat="49.81614" lon="4.68568">
        <ele>281</ele>
        <time>2022-05-17T13:33:48.563Z</time>
      </trkpt>
      <trkpt lat="49.81616" lon="4.68571">
        <ele>281</ele>
        <time>2022-05-17T13:33:49.554Z</time>
      </trkpt>
      <trkpt lat="49.81617" lon="4.68573">
        <ele>282</ele>
        <time>2022-05-17T13:33:50.559Z</time>
      </trkpt>
      <trkpt lat="49.81617" lon="4.68573">
        <ele>282</ele>
        <time>2022-05-17T13:33:51.525Z</time>
      </trkpt>
      <trkpt lat="49.81619" lon="4.68575">
        <ele>282</ele>
        <time>2022-05-17T13:33:52.546Z</time>
      </trkpt>
      <trkpt lat="49.81619" lon="4.68575">
        <ele>282</ele>
        <time>2022-05-17T13:33:53.558Z</time>
      </trkpt>
      <trkpt lat="49.81622" lon="4.68577">
        <ele>283</ele>
        <time>2022-05-17T13:33:54.540Z</time>
      </trkpt>
      <trkpt lat="49.81623" lon="4.68578">
        <ele>283</ele>
        <time>2022-05-17T13:33:55.560Z</time>
      </trkpt>
      <trkpt lat="49.81623" lon="4.68578">
        <ele>283</ele>
        <time>2022-05-17T13:33:56.525Z</time>
      </trkpt>
      <trkpt lat="49.81625" lon="4.68582">
        <ele>284</ele>
        <time>2022-05-17T13:33:57.530Z</time>
      </trkpt>
      <trkpt lat="49.81627" lon="4.68583">
        <ele>285</ele>
        <time>2022-05-17T13:33:58.557Z</time>
      </trkpt>
      <trkpt lat="49.81627" lon="4.68583">
        <ele>285</ele>
        <time>2022-05-17T13:33:59.562Z</time>
      </trkpt>
      <trkpt lat="49.81629" lon="4.68586">
        <ele>285</ele>
        <time>2022-05-17T13:34:00.548Z</time>
      </trkpt>
      <trkpt lat="49.81631" lon="4.68587">
        <ele>286</ele>
        <time>2022-05-17T13:34:01.546Z</time>
      </trkpt>
      <trkpt lat="49.81631" lon="4.68587">
        <ele>286</ele>
        <time>2022-05-17T13:34:02.559Z</time>
      </trkpt>
      <trkpt lat="49.81633" lon="4.6859">
        <ele>286</ele>
        <time>2022-05-17T13:34:03.538Z</time>
      </trkpt>
      <trkpt lat="49.81633" lon="4.6859">
        <ele>286</ele>
        <time>2022-05-17T13:34:04.543Z</time>
      </trkpt>
      <trkpt lat="49.81637" lon="4.68592">
        <ele>287</ele>
        <time>2022-05-17T13:34:05.524Z</time>
      </trkpt>
      <trkpt lat="49.81638" lon="4.68594">
        <ele>287</ele>
        <time>2022-05-17T13:34:06.551Z</time>
      </trkpt>
      <trkpt lat="49.81639" lon="4.68595">
        <ele>288</ele>
        <time>2022-05-17T13:34:07.534Z</time>
      </trkpt>
      <trkpt lat="49.81639" lon="4.68595">
        <ele>288</ele>
        <time>2022-05-17T13:34:08.539Z</time>
      </trkpt>
      <trkpt lat="49.81641" lon="4.68598">
        <ele>289</ele>
        <time>2022-05-17T13:34:09.532Z</time>
      </trkpt>
      <trkpt lat="49.81644" lon="4.686">
        <ele>289</ele>
        <time>2022-05-17T13:34:10.552Z</time>
      </trkpt>
      <trkpt lat="49.81644" lon="4.686">
        <ele>289</ele>
        <time>2022-05-17T13:34:11.557Z</time>
      </trkpt>
      <trkpt lat="49.81649" lon="4.68604">
        <ele>290</ele>
        <time>2022-05-17T13:34:12.528Z</time>
      </trkpt>
      <trkpt lat="49.81651" lon="4.68605">
        <ele>290</ele>
        <time>2022-05-17T13:34:13.546Z</time>
      </trkpt>
      <trkpt lat="49.81651" lon="4.68605">
        <ele>290</ele>
        <time>2022-05-17T13:34:14.559Z</time>
      </trkpt>
      <trkpt lat="49.81655" lon="4.68609">
        <ele>291</ele>
        <time>2022-05-17T13:34:15.538Z</time>
      </trkpt>
      <trkpt lat="49.81656" lon="4.68611">
        <ele>291</ele>
        <time>2022-05-17T13:34:16.562Z</time>
      </trkpt>
      <trkpt lat="49.81656" lon="4.68611">
        <ele>291</ele>
        <time>2022-05-17T13:34:17.528Z</time>
      </trkpt>
      <trkpt lat="49.8166" lon="4.68615">
        <ele>292</ele>
        <time>2022-05-17T13:34:18.556Z</time>
      </trkpt>
      <trkpt lat="49.8166" lon="4.68615">
        <ele>292</ele>
        <time>2022-05-17T13:34:19.562Z</time>
      </trkpt>
      <trkpt lat="49.81664" lon="4.68619">
        <ele>293</ele>
        <time>2022-05-17T13:34:20.556Z</time>
      </trkpt>
      <trkpt lat="49.81664" lon="4.68619">
        <ele>293</ele>
        <time>2022-05-17T13:34:21.536Z</time>
      </trkpt>
      <trkpt lat="49.81667" lon="4.68621">
        <ele>294</ele>
        <time>2022-05-17T13:34:22.550Z</time>
      </trkpt>
      <trkpt lat="49.81669" lon="4.68623">
        <ele>294</ele>
        <time>2022-05-17T13:34:23.533Z</time>
      </trkpt>
      <trkpt lat="49.81669" lon="4.68623">
        <ele>294</ele>
        <time>2022-05-17T13:34:24.539Z</time>
      </trkpt>
      <trkpt lat="49.81671" lon="4.68625">
        <ele>295</ele>
        <time>2022-05-17T13:34:25.557Z</time>
      </trkpt>
      <trkpt lat="49.81671" lon="4.68625">
        <ele>295</ele>
        <time>2022-05-17T13:34:26.563Z</time>
      </trkpt>
      <trkpt lat="49.81675" lon="4.68629">
        <ele>296</ele>
        <time>2022-05-17T13:34:27.554Z</time>
      </trkpt>
      <trkpt lat="49.81675" lon="4.68629">
        <ele>296</ele>
        <time>2022-05-17T13:34:28.559Z</time>
      </trkpt>
      <trkpt lat="49.81678" lon="4.68633">
        <ele>296</ele>
        <time>2022-05-17T13:34:29.541Z</time>
      </trkpt>
      <trkpt lat="49.8168" lon="4.68634">
        <ele>296</ele>
        <time>2022-05-17T13:34:30.562Z</time>
      </trkpt>
      <trkpt lat="49.81681" lon="4.68636">
        <ele>297</ele>
        <time>2022-05-17T13:34:31.536Z</time>
      </trkpt>
      <trkpt lat="49.81683" lon="4.68637">
        <ele>297</ele>
        <time>2022-05-17T13:34:32.524Z</time>
      </trkpt>
      <trkpt lat="49.81683" lon="4.68637">
        <ele>297</ele>
        <time>2022-05-17T13:34:33.529Z</time>
      </trkpt>
      <trkpt lat="49.81687" lon="4.68642">
        <ele>298</ele>
        <time>2022-05-17T13:34:34.550Z</time>
      </trkpt>
      <trkpt lat="49.81687" lon="4.68642">
        <ele>298</ele>
        <time>2022-05-17T13:34:35.557Z</time>
      </trkpt>
      <trkpt lat="49.81691" lon="4.68645">
        <ele>299</ele>
        <time>2022-05-17T13:34:36.538Z</time>
      </trkpt>
      <trkpt lat="49.81691" lon="4.68645">
        <ele>299</ele>
        <time>2022-05-17T13:34:37.544Z</time>
      </trkpt>
      <trkpt lat="49.81695" lon="4.68648">
        <ele>299</ele>
        <time>2022-05-17T13:34:38.525Z</time>
      </trkpt>
      <trkpt lat="49.81695" lon="4.68648">
        <ele>299</ele>
        <time>2022-05-17T13:34:39.547Z</time>
      </trkpt>
      <trkpt lat="49.81699" lon="4.6865">
        <ele>300</ele>
        <time>2022-05-17T13:34:40.537Z</time>
      </trkpt>
      <trkpt lat="49.81699" lon="4.6865">
        <ele>300</ele>
        <time>2022-05-17T13:34:41.543Z</time>
      </trkpt>
      <trkpt lat="49.81703" lon="4.68654">
        <ele>300</ele>
        <time>2022-05-17T13:34:42.528Z</time>
      </trkpt>
      <trkpt lat="49.81706" lon="4.68657">
        <ele>301</ele>
        <time>2022-05-17T13:34:43.548Z</time>
      </trkpt>
      <trkpt lat="49.81708" lon="4.68659">
        <ele>301</ele>
        <time>2022-05-17T13:34:44.544Z</time>
      </trkpt>
      <trkpt lat="49.81708" lon="4.68659">
        <ele>301</ele>
        <time>2022-05-17T13:34:45.552Z</time>
      </trkpt>
      <trkpt lat="49.81711" lon="4.68663">
        <ele>301</ele>
        <time>2022-05-17T13:34:46.531Z</time>
      </trkpt>
      <trkpt lat="49.81711" lon="4.68663">
        <ele>301</ele>
        <time>2022-05-17T13:34:47.536Z</time>
      </trkpt>
      <trkpt lat="49.81716" lon="4.68668">
        <ele>301</ele>
        <time>2022-05-17T13:34:48.550Z</time>
      </trkpt>
      <trkpt lat="49.81719" lon="4.6867">
        <ele>302</ele>
        <time>2022-05-17T13:34:49.531Z</time>
      </trkpt>
      <trkpt lat="49.81719" lon="4.6867">
        <ele>302</ele>
        <time>2022-05-17T13:34:50.544Z</time>
      </trkpt>
      <trkpt lat="49.81723" lon="4.68674">
        <ele>303</ele>
        <time>2022-05-17T13:34:51.529Z</time>
      </trkpt>
      <trkpt lat="49.81725" lon="4.68676">
        <ele>303</ele>
        <time>2022-05-17T13:34:52.557Z</time>
      </trkpt>
      <trkpt lat="49.81725" lon="4.68676">
        <ele>303</ele>
        <time>2022-05-17T13:34:53.561Z</time>
      </trkpt>
      <trkpt lat="49.81728" lon="4.68678">
        <ele>304</ele>
        <time>2022-05-17T13:34:54.545Z</time>
      </trkpt>
      <trkpt lat="49.81728" lon="4.68678">
        <ele>304</ele>
        <time>2022-05-17T13:34:55.553Z</time>
      </trkpt>
      <trkpt lat="49.81732" lon="4.68682">
        <ele>305</ele>
        <time>2022-05-17T13:34:56.534Z</time>
      </trkpt>
      <trkpt lat="49.81732" lon="4.68682">
        <ele>305</ele>
        <time>2022-05-17T13:34:57.540Z</time>
      </trkpt>
      <trkpt lat="49.81737" lon="4.68685">
        <ele>306</ele>
        <time>2022-05-17T13:34:58.556Z</time>
      </trkpt>
      <trkpt lat="49.81737" lon="4.68685">
        <ele>306</ele>
        <time>2022-05-17T13:34:59.561Z</time>
      </trkpt>
      <trkpt lat="49.8174" lon="4.68688">
        <ele>307</ele>
        <time>2022-05-17T13:35:00.544Z</time>
      </trkpt>
      <trkpt lat="49.8174" lon="4.68688">
        <ele>307</ele>
        <time>2022-05-17T13:35:01.550Z</time>
      </trkpt>
      <trkpt lat="49.81744" lon="4.68691">
        <ele>307</ele>
        <time>2022-05-17T13:35:02.553Z</time>
      </trkpt>
      <trkpt lat="49.81744" lon="4.68691">
        <ele>307</ele>
        <time>2022-05-17T13:35:03.560Z</time>
      </trkpt>
      <trkpt lat="49.81747" lon="4.68694">
        <ele>308</ele>
        <time>2022-05-17T13:35:04.541Z</time>
      </trkpt>
      <trkpt lat="49.81749" lon="4.68696">
        <ele>309</ele>
        <time>2022-05-17T13:35:05.525Z</time>
      </trkpt>
      <trkpt lat="49.81751" lon="4.68697">
        <ele>309</ele>
        <time>2022-05-17T13:35:06.543Z</time>
      </trkpt>
      <trkpt lat="49.81753" lon="4.68699">
        <ele>310</ele>
        <time>2022-05-17T13:35:07.526Z</time>
      </trkpt>
      <trkpt lat="49.81753" lon="4.68699">
        <ele>310</ele>
        <time>2022-05-17T13:35:08.531Z</time>
      </trkpt>
      <trkpt lat="49.81757" lon="4.68706">
        <ele>310</ele>
        <time>2022-05-17T13:35:09.560Z</time>
      </trkpt>
      <trkpt lat="49.81761" lon="4.6871">
        <ele>310</ele>
        <time>2022-05-17T13:35:10.542Z</time>
      </trkpt>
      <trkpt lat="49.81761" lon="4.6871">
        <ele>310</ele>
        <time>2022-05-17T13:35:11.548Z</time>
      </trkpt>
      <trkpt lat="49.81767" lon="4.68716">
        <ele>310</ele>
        <time>2022-05-17T13:35:12.531Z</time>
      </trkpt>
      <trkpt lat="49.81767" lon="4.68716">
        <ele>310</ele>
        <time>2022-05-17T13:35:13.537Z</time>
      </trkpt>
      <trkpt lat="49.81774" lon="4.68722">
        <ele>311</ele>
        <time>2022-05-17T13:35:14.562Z</time>
      </trkpt>
      <trkpt lat="49.81774" lon="4.68722">
        <ele>311</ele>
        <time>2022-05-17T13:35:15.528Z</time>
      </trkpt>
      <trkpt lat="49.8178" lon="4.68728">
        <ele>311</ele>
        <time>2022-05-17T13:35:16.559Z</time>
      </trkpt>
      <trkpt lat="49.8178" lon="4.68728">
        <ele>311</ele>
        <time>2022-05-17T13:35:17.535Z</time>
      </trkpt>
      <trkpt lat="49.81787" lon="4.68735">
        <ele>311</ele>
        <time>2022-05-17T13:35:18.546Z</time>
      </trkpt>
      <trkpt lat="49.81787" lon="4.68735">
        <ele>311</ele>
        <time>2022-05-17T13:35:19.552Z</time>
      </trkpt>
      <trkpt lat="49.81792" lon="4.68741">
        <ele>311</ele>
        <time>2022-05-17T13:35:20.540Z</time>
      </trkpt>
      <trkpt lat="49.81792" lon="4.68741">
        <ele>311</ele>
        <time>2022-05-17T13:35:21.556Z</time>
      </trkpt>
      <trkpt lat="49.81799" lon="4.68749">
        <ele>311</ele>
        <time>2022-05-17T13:35:22.538Z</time>
      </trkpt>
      <trkpt lat="49.81799" lon="4.68749">
        <ele>311</ele>
        <time>2022-05-17T13:35:23.544Z</time>
      </trkpt>
      <trkpt lat="49.81803" lon="4.68754">
        <ele>311</ele>
        <time>2022-05-17T13:35:24.559Z</time>
      </trkpt>
      <trkpt lat="49.81803" lon="4.68754">
        <ele>311</ele>
        <time>2022-05-17T13:35:25.525Z</time>
      </trkpt>
      <trkpt lat="49.8181" lon="4.6876">
        <ele>311</ele>
        <time>2022-05-17T13:35:26.545Z</time>
      </trkpt>
      <trkpt lat="49.8181" lon="4.6876">
        <ele>311</ele>
        <time>2022-05-17T13:35:27.557Z</time>
      </trkpt>
      <trkpt lat="49.81814" lon="4.68764">
        <ele>311</ele>
        <time>2022-05-17T13:35:28.539Z</time>
      </trkpt>
      <trkpt lat="49.81814" lon="4.68764">
        <ele>311</ele>
        <time>2022-05-17T13:35:29.545Z</time>
      </trkpt>
      <trkpt lat="49.81818" lon="4.68769">
        <ele>311</ele>
        <time>2022-05-17T13:35:30.533Z</time>
      </trkpt>
      <trkpt lat="49.8182" lon="4.68771">
        <ele>311</ele>
        <time>2022-05-17T13:35:31.559Z</time>
      </trkpt>
      <trkpt lat="49.8182" lon="4.68771">
        <ele>311</ele>
        <time>2022-05-17T13:35:32.525Z</time>
      </trkpt>
      <trkpt lat="49.81825" lon="4.68775">
        <ele>312</ele>
        <time>2022-05-17T13:35:33.525Z</time>
      </trkpt>
      <trkpt lat="49.81828" lon="4.68777">
        <ele>312</ele>
        <time>2022-05-17T13:35:34.541Z</time>
      </trkpt>
      <trkpt lat="49.81828" lon="4.68777">
        <ele>312</ele>
        <time>2022-05-17T13:35:35.547Z</time>
      </trkpt>
      <trkpt lat="49.81832" lon="4.68782">
        <ele>312</ele>
        <time>2022-05-17T13:35:36.562Z</time>
      </trkpt>
      <trkpt lat="49.81835" lon="4.68783">
        <ele>312</ele>
        <time>2022-05-17T13:35:37.545Z</time>
      </trkpt>
      <trkpt lat="49.81835" lon="4.68783">
        <ele>312</ele>
        <time>2022-05-17T13:35:38.551Z</time>
      </trkpt>
      <trkpt lat="49.81839" lon="4.68787">
        <ele>312</ele>
        <time>2022-05-17T13:35:39.531Z</time>
      </trkpt>
      <trkpt lat="49.81839" lon="4.68787">
        <ele>312</ele>
        <time>2022-05-17T13:35:40.544Z</time>
      </trkpt>
      <trkpt lat="49.81844" lon="4.68792">
        <ele>312</ele>
        <time>2022-05-17T13:35:41.530Z</time>
      </trkpt>
      <trkpt lat="49.81846" lon="4.68794">
        <ele>313</ele>
        <time>2022-05-17T13:35:42.557Z</time>
      </trkpt>
      <trkpt lat="49.81846" lon="4.68794">
        <ele>313</ele>
        <time>2022-05-17T13:35:43.563Z</time>
      </trkpt>
      <trkpt lat="49.8185" lon="4.68798">
        <ele>313</ele>
        <time>2022-05-17T13:35:44.539Z</time>
      </trkpt>
      <trkpt lat="49.8185" lon="4.68798">
        <ele>313</ele>
        <time>2022-05-17T13:35:45.544Z</time>
      </trkpt>
      <trkpt lat="49.81859" lon="4.68804">
        <ele>313</ele>
        <time>2022-05-17T13:35:46.536Z</time>
      </trkpt>
      <trkpt lat="49.81861" lon="4.68808">
        <ele>314</ele>
        <time>2022-05-17T13:35:47.561Z</time>
      </trkpt>
      <trkpt lat="49.81861" lon="4.68808">
        <ele>314</ele>
        <time>2022-05-17T13:35:48.526Z</time>
      </trkpt>
      <trkpt lat="49.81867" lon="4.68814">
        <ele>314</ele>
        <time>2022-05-17T13:35:49.565Z</time>
      </trkpt>
      <trkpt lat="49.8187" lon="4.68817">
        <ele>314</ele>
        <time>2022-05-17T13:35:50.553Z</time>
      </trkpt>
      <trkpt lat="49.8187" lon="4.68817">
        <ele>314</ele>
        <time>2022-05-17T13:35:51.559Z</time>
      </trkpt>
      <trkpt lat="49.81874" lon="4.6882">
        <ele>315</ele>
        <time>2022-05-17T13:35:52.555Z</time>
      </trkpt>
      <trkpt lat="49.81874" lon="4.6882">
        <ele>315</ele>
        <time>2022-05-17T13:35:53.561Z</time>
      </trkpt>
      <trkpt lat="49.81879" lon="4.68824">
        <ele>315</ele>
        <time>2022-05-17T13:35:54.554Z</time>
      </trkpt>
      <trkpt lat="49.81879" lon="4.68824">
        <ele>315</ele>
        <time>2022-05-17T13:35:55.559Z</time>
      </trkpt>
      <trkpt lat="49.81884" lon="4.68829">
        <ele>316</ele>
        <time>2022-05-17T13:35:56.538Z</time>
      </trkpt>
      <trkpt lat="49.81884" lon="4.68829">
        <ele>316</ele>
        <time>2022-05-17T13:35:57.543Z</time>
      </trkpt>
      <trkpt lat="49.81889" lon="4.68834">
        <ele>316</ele>
        <time>2022-05-17T13:35:58.530Z</time>
      </trkpt>
      <trkpt lat="49.81891" lon="4.68837">
        <ele>316</ele>
        <time>2022-05-17T13:35:59.529Z</time>
      </trkpt>
      <trkpt lat="49.81893" lon="4.6884">
        <ele>317</ele>
        <time>2022-05-17T13:36:00.558Z</time>
      </trkpt>
      <trkpt lat="49.81894" lon="4.68841">
        <ele>317</ele>
        <time>2022-05-17T13:36:01.533Z</time>
      </trkpt>
      <trkpt lat="49.81894" lon="4.68841">
        <ele>317</ele>
        <time>2022-05-17T13:36:02.538Z</time>
      </trkpt>
      <trkpt lat="49.81898" lon="4.68846">
        <ele>317</ele>
        <time>2022-05-17T13:36:03.528Z</time>
      </trkpt>
      <trkpt lat="49.81901" lon="4.6885">
        <ele>317</ele>
        <time>2022-05-17T13:36:04.550Z</time>
      </trkpt>
      <trkpt lat="49.81901" lon="4.6885">
        <ele>317</ele>
        <time>2022-05-17T13:36:05.559Z</time>
      </trkpt>
      <trkpt lat="49.81905" lon="4.68853">
        <ele>317</ele>
        <time>2022-05-17T13:36:06.534Z</time>
      </trkpt>
      <trkpt lat="49.81907" lon="4.68855">
        <ele>317</ele>
        <time>2022-05-17T13:36:07.554Z</time>
      </trkpt>
      <trkpt lat="49.81907" lon="4.68855">
        <ele>317</ele>
        <time>2022-05-17T13:36:08.560Z</time>
      </trkpt>
      <trkpt lat="49.81912" lon="4.6886">
        <ele>318</ele>
        <time>2022-05-17T13:36:09.543Z</time>
      </trkpt>
      <trkpt lat="49.81914" lon="4.68861">
        <ele>318</ele>
        <time>2022-05-17T13:36:10.554Z</time>
      </trkpt>
      <trkpt lat="49.81914" lon="4.68861">
        <ele>318</ele>
        <time>2022-05-17T13:36:11.559Z</time>
      </trkpt>
      <trkpt lat="49.81918" lon="4.68864">
        <ele>318</ele>
        <time>2022-05-17T13:36:12.543Z</time>
      </trkpt>
      <trkpt lat="49.81918" lon="4.68864">
        <ele>318</ele>
        <time>2022-05-17T13:36:13.550Z</time>
      </trkpt>
      <trkpt lat="49.81922" lon="4.6887">
        <ele>319</ele>
        <time>2022-05-17T13:36:14.533Z</time>
      </trkpt>
      <trkpt lat="49.81922" lon="4.6887">
        <ele>319</ele>
        <time>2022-05-17T13:36:15.539Z</time>
      </trkpt>
      <trkpt lat="49.81927" lon="4.68877">
        <ele>319</ele>
        <time>2022-05-17T13:36:16.556Z</time>
      </trkpt>
      <trkpt lat="49.81927" lon="4.68877">
        <ele>319</ele>
        <time>2022-05-17T13:36:17.562Z</time>
      </trkpt>
      <trkpt lat="49.81934" lon="4.68885">
        <ele>319</ele>
        <time>2022-05-17T13:36:18.541Z</time>
      </trkpt>
      <trkpt lat="49.81934" lon="4.68885">
        <ele>319</ele>
        <time>2022-05-17T13:36:19.547Z</time>
      </trkpt>
      <trkpt lat="49.8194" lon="4.68893">
        <ele>318</ele>
        <time>2022-05-17T13:36:20.560Z</time>
      </trkpt>
      <trkpt lat="49.8194" lon="4.68893">
        <ele>318</ele>
        <time>2022-05-17T13:36:21.556Z</time>
      </trkpt>
      <trkpt lat="49.81948" lon="4.68899">
        <ele>317</ele>
        <time>2022-05-17T13:36:22.539Z</time>
      </trkpt>
      <trkpt lat="49.81948" lon="4.68899">
        <ele>317</ele>
        <time>2022-05-17T13:36:23.546Z</time>
      </trkpt>
      <trkpt lat="49.81953" lon="4.68903">
        <ele>317</ele>
        <time>2022-05-17T13:36:24.533Z</time>
      </trkpt>
      <trkpt lat="49.81956" lon="4.68905">
        <ele>317</ele>
        <time>2022-05-17T13:36:25.553Z</time>
      </trkpt>
      <trkpt lat="49.81956" lon="4.68905">
        <ele>317</ele>
        <time>2022-05-17T13:36:26.559Z</time>
      </trkpt>
      <trkpt lat="49.81959" lon="4.68909">
        <ele>317</ele>
        <time>2022-05-17T13:36:27.537Z</time>
      </trkpt>
      <trkpt lat="49.81959" lon="4.68909">
        <ele>317</ele>
        <time>2022-05-17T13:36:28.543Z</time>
      </trkpt>
      <trkpt lat="49.81961" lon="4.68912">
        <ele>317</ele>
        <time>2022-05-17T13:36:29.556Z</time>
      </trkpt>
      <trkpt lat="49.81961" lon="4.68912">
        <ele>317</ele>
        <time>2022-05-17T13:36:30.561Z</time>
      </trkpt>
      <trkpt lat="49.81963" lon="4.68913">
        <ele>317</ele>
        <time>2022-05-17T13:36:31.547Z</time>
      </trkpt>
      <trkpt lat="49.81963" lon="4.68913">
        <ele>317</ele>
        <time>2022-05-17T13:36:32.552Z</time>
      </trkpt>
      <trkpt lat="49.81966" lon="4.68916">
        <ele>317</ele>
        <time>2022-05-17T13:36:33.530Z</time>
      </trkpt>
      <trkpt lat="49.81968" lon="4.68918">
        <ele>316</ele>
        <time>2022-05-17T13:36:34.535Z</time>
      </trkpt>
      <trkpt lat="49.81968" lon="4.68918">
        <ele>316</ele>
        <time>2022-05-17T13:36:35.551Z</time>
      </trkpt>
      <trkpt lat="49.81972" lon="4.68922">
        <ele>315</ele>
        <time>2022-05-17T13:36:36.541Z</time>
      </trkpt>
      <trkpt lat="49.81974" lon="4.68923">
        <ele>315</ele>
        <time>2022-05-17T13:36:37.559Z</time>
      </trkpt>
      <trkpt lat="49.81974" lon="4.68923">
        <ele>315</ele>
        <time>2022-05-17T13:36:38.525Z</time>
      </trkpt>
      <trkpt lat="49.81977" lon="4.68926">
        <ele>315</ele>
        <time>2022-05-17T13:36:39.551Z</time>
      </trkpt>
      <trkpt lat="49.8198" lon="4.68929">
        <ele>314</ele>
        <time>2022-05-17T13:36:40.544Z</time>
      </trkpt>
      <trkpt lat="49.8198" lon="4.68929">
        <ele>314</ele>
        <time>2022-05-17T13:36:41.560Z</time>
      </trkpt>
      <trkpt lat="49.81984" lon="4.68932">
        <ele>314</ele>
        <time>2022-05-17T13:36:42.535Z</time>
      </trkpt>
      <trkpt lat="49.81986" lon="4.68934">
        <ele>313</ele>
        <time>2022-05-17T13:36:43.552Z</time>
      </trkpt>
      <trkpt lat="49.81986" lon="4.68934">
        <ele>313</ele>
        <time>2022-05-17T13:36:44.559Z</time>
      </trkpt>
      <trkpt lat="49.8199" lon="4.68938">
        <ele>312</ele>
        <time>2022-05-17T13:36:45.561Z</time>
      </trkpt>
      <trkpt lat="49.8199" lon="4.68938">
        <ele>312</ele>
        <time>2022-05-17T13:36:46.526Z</time>
      </trkpt>
      <trkpt lat="49.81994" lon="4.68941">
        <ele>312</ele>
        <time>2022-05-17T13:36:47.555Z</time>
      </trkpt>
      <trkpt lat="49.81994" lon="4.68941">
        <ele>312</ele>
        <time>2022-05-17T13:36:48.561Z</time>
      </trkpt>
      <trkpt lat="49.81998" lon="4.68945">
        <ele>312</ele>
        <time>2022-05-17T13:36:49.548Z</time>
      </trkpt>
      <trkpt lat="49.81998" lon="4.68945">
        <ele>312</ele>
        <time>2022-05-17T13:36:50.555Z</time>
      </trkpt>
      <trkpt lat="49.82001" lon="4.68948">
        <ele>312</ele>
        <time>2022-05-17T13:36:51.551Z</time>
      </trkpt>
      <trkpt lat="49.82001" lon="4.68948">
        <ele>312</ele>
        <time>2022-05-17T13:36:52.529Z</time>
      </trkpt>
      <trkpt lat="49.82004" lon="4.6895">
        <ele>312</ele>
        <time>2022-05-17T13:36:53.561Z</time>
      </trkpt>
      <trkpt lat="49.82005" lon="4.68951">
        <ele>312</ele>
        <time>2022-05-17T13:36:54.542Z</time>
      </trkpt>
      <trkpt lat="49.82005" lon="4.68951">
        <ele>312</ele>
        <time>2022-05-17T13:36:55.548Z</time>
      </trkpt>
      <trkpt lat="49.82007" lon="4.68954">
        <ele>312</ele>
        <time>2022-05-17T13:36:56.561Z</time>
      </trkpt>
      <trkpt lat="49.82007" lon="4.68954">
        <ele>312</ele>
        <time>2022-05-17T13:36:57.527Z</time>
      </trkpt>
      <trkpt lat="49.8201" lon="4.68956">
        <ele>312</ele>
        <time>2022-05-17T13:36:58.552Z</time>
      </trkpt>
      <trkpt lat="49.82011" lon="4.68957">
        <ele>312</ele>
        <time>2022-05-17T13:36:59.541Z</time>
      </trkpt>
      <trkpt lat="49.82012" lon="4.68958">
        <ele>312</ele>
        <time>2022-05-17T13:37:00.555Z</time>
      </trkpt>
      <trkpt lat="49.82013" lon="4.68959">
        <ele>312</ele>
        <time>2022-05-17T13:37:01.535Z</time>
      </trkpt>
      <trkpt lat="49.82013" lon="4.68959">
        <ele>312</ele>
        <time>2022-05-17T13:37:02.540Z</time>
      </trkpt>
      <trkpt lat="49.82017" lon="4.68962">
        <ele>312</ele>
        <time>2022-05-17T13:37:03.543Z</time>
      </trkpt>
      <trkpt lat="49.82017" lon="4.68962">
        <ele>312</ele>
        <time>2022-05-17T13:37:04.549Z</time>
      </trkpt>
      <trkpt lat="49.82019" lon="4.68965">
        <ele>311</ele>
        <time>2022-05-17T13:37:05.532Z</time>
      </trkpt>
      <trkpt lat="49.8202" lon="4.68966">
        <ele>311</ele>
        <time>2022-05-17T13:37:06.550Z</time>
      </trkpt>
      <trkpt lat="49.8202" lon="4.68966">
        <ele>311</ele>
        <time>2022-05-17T13:37:07.556Z</time>
      </trkpt>
      <trkpt lat="49.82023" lon="4.68968">
        <ele>312</ele>
        <time>2022-05-17T13:37:08.538Z</time>
      </trkpt>
      <trkpt lat="49.82023" lon="4.68968">
        <ele>312</ele>
        <time>2022-05-17T13:37:09.543Z</time>
      </trkpt>
      <trkpt lat="49.82026" lon="4.68971">
        <ele>312</ele>
        <time>2022-05-17T13:37:10.526Z</time>
      </trkpt>
      <trkpt lat="49.82026" lon="4.68971">
        <ele>312</ele>
        <time>2022-05-17T13:37:11.531Z</time>
      </trkpt>
      <trkpt lat="49.82029" lon="4.68974">
        <ele>312</ele>
        <time>2022-05-17T13:37:12.545Z</time>
      </trkpt>
      <trkpt lat="49.82031" lon="4.68975">
        <ele>312</ele>
        <time>2022-05-17T13:37:13.534Z</time>
      </trkpt>
      <trkpt lat="49.82031" lon="4.68975">
        <ele>312</ele>
        <time>2022-05-17T13:37:14.539Z</time>
      </trkpt>
      <trkpt lat="49.82035" lon="4.6898">
        <ele>312</ele>
        <time>2022-05-17T13:37:15.557Z</time>
      </trkpt>
      <trkpt lat="49.82037" lon="4.68982">
        <ele>312</ele>
        <time>2022-05-17T13:37:16.543Z</time>
      </trkpt>
      <trkpt lat="49.82037" lon="4.68982">
        <ele>312</ele>
        <time>2022-05-17T13:37:17.550Z</time>
      </trkpt>
      <trkpt lat="49.82043" lon="4.68987">
        <ele>312</ele>
        <time>2022-05-17T13:37:18.539Z</time>
      </trkpt>
      <trkpt lat="49.82045" lon="4.6899">
        <ele>312</ele>
        <time>2022-05-17T13:37:19.525Z</time>
      </trkpt>
      <trkpt lat="49.82045" lon="4.6899">
        <ele>312</ele>
        <time>2022-05-17T13:37:20.539Z</time>
      </trkpt>
      <trkpt lat="49.82048" lon="4.68994">
        <ele>312</ele>
        <time>2022-05-17T13:37:21.536Z</time>
      </trkpt>
      <trkpt lat="49.8205" lon="4.68996">
        <ele>312</ele>
        <time>2022-05-17T13:37:22.524Z</time>
      </trkpt>
      <trkpt lat="49.8205" lon="4.68996">
        <ele>312</ele>
        <time>2022-05-17T13:37:23.530Z</time>
      </trkpt>
      <trkpt lat="49.82054" lon="4.68997">
        <ele>311</ele>
        <time>2022-05-17T13:37:24.558Z</time>
      </trkpt>
      <trkpt lat="49.82055" lon="4.68998">
        <ele>311</ele>
        <time>2022-05-17T13:37:25.557Z</time>
      </trkpt>
      <trkpt lat="49.82055" lon="4.68998">
        <ele>311</ele>
        <time>2022-05-17T13:37:26.562Z</time>
      </trkpt>
      <trkpt lat="49.82059" lon="4.69001">
        <ele>311</ele>
        <time>2022-05-17T13:37:27.541Z</time>
      </trkpt>
      <trkpt lat="49.82059" lon="4.69001">
        <ele>311</ele>
        <time>2022-05-17T13:37:28.546Z</time>
      </trkpt>
      <trkpt lat="49.82062" lon="4.69004">
        <ele>311</ele>
        <time>2022-05-17T13:37:29.530Z</time>
      </trkpt>
      <trkpt lat="49.82062" lon="4.69004">
        <ele>311</ele>
        <time>2022-05-17T13:37:30.525Z</time>
      </trkpt>
      <trkpt lat="49.82065" lon="4.69009">
        <ele>311</ele>
        <time>2022-05-17T13:37:31.538Z</time>
      </trkpt>
      <trkpt lat="49.82065" lon="4.69009">
        <ele>311</ele>
        <time>2022-05-17T13:37:32.543Z</time>
      </trkpt>
      <trkpt lat="49.82068" lon="4.69013">
        <ele>311</ele>
        <time>2022-05-17T13:37:33.528Z</time>
      </trkpt>
      <trkpt lat="49.8207" lon="4.69015">
        <ele>311</ele>
        <time>2022-05-17T13:37:34.553Z</time>
      </trkpt>
      <trkpt lat="49.82071" lon="4.69017">
        <ele>311</ele>
        <time>2022-05-17T13:37:35.537Z</time>
      </trkpt>
      <trkpt lat="49.82071" lon="4.69017">
        <ele>311</ele>
        <time>2022-05-17T13:37:36.541Z</time>
      </trkpt>
      <trkpt lat="49.82074" lon="4.6902">
        <ele>311</ele>
        <time>2022-05-17T13:37:37.525Z</time>
      </trkpt>
      <trkpt lat="49.82074" lon="4.6902">
        <ele>311</ele>
        <time>2022-05-17T13:37:38.531Z</time>
      </trkpt>
      <trkpt lat="49.82077" lon="4.69023">
        <ele>311</ele>
        <time>2022-05-17T13:37:39.555Z</time>
      </trkpt>
      <trkpt lat="49.82079" lon="4.69024">
        <ele>311</ele>
        <time>2022-05-17T13:37:40.538Z</time>
      </trkpt>
      <trkpt lat="49.82079" lon="4.69024">
        <ele>311</ele>
        <time>2022-05-17T13:37:41.544Z</time>
      </trkpt>
      <trkpt lat="49.82083" lon="4.69028">
        <ele>311</ele>
        <time>2022-05-17T13:37:42.561Z</time>
      </trkpt>
      <trkpt lat="49.82083" lon="4.69028">
        <ele>311</ele>
        <time>2022-05-17T13:37:43.527Z</time>
      </trkpt>
      <trkpt lat="49.82086" lon="4.69031">
        <ele>311</ele>
        <time>2022-05-17T13:37:44.550Z</time>
      </trkpt>
      <trkpt lat="49.82086" lon="4.69031">
        <ele>311</ele>
        <time>2022-05-17T13:37:45.559Z</time>
      </trkpt>
      <trkpt lat="49.82089" lon="4.69035">
        <ele>311</ele>
        <time>2022-05-17T13:37:46.549Z</time>
      </trkpt>
      <trkpt lat="49.82089" lon="4.69035">
        <ele>311</ele>
        <time>2022-05-17T13:37:47.559Z</time>
      </trkpt>
      <trkpt lat="49.82093" lon="4.69038">
        <ele>311</ele>
        <time>2022-05-17T13:37:48.538Z</time>
      </trkpt>
      <trkpt lat="49.82093" lon="4.69038">
        <ele>311</ele>
        <time>2022-05-17T13:37:49.543Z</time>
      </trkpt>
      <trkpt lat="49.82098" lon="4.6904">
        <ele>311</ele>
        <time>2022-05-17T13:37:50.534Z</time>
      </trkpt>
      <trkpt lat="49.821" lon="4.69041">
        <ele>311</ele>
        <time>2022-05-17T13:37:51.558Z</time>
      </trkpt>
      <trkpt lat="49.821" lon="4.69041">
        <ele>311</ele>
        <time>2022-05-17T13:37:52.524Z</time>
      </trkpt>
      <trkpt lat="49.82105" lon="4.69045">
        <ele>311</ele>
        <time>2022-05-17T13:37:53.547Z</time>
      </trkpt>
      <trkpt lat="49.82105" lon="4.69045">
        <ele>311</ele>
        <time>2022-05-17T13:37:54.552Z</time>
      </trkpt>
      <trkpt lat="49.82108" lon="4.69047">
        <ele>311</ele>
        <time>2022-05-17T13:37:55.536Z</time>
      </trkpt>
      <trkpt lat="49.82108" lon="4.69047">
        <ele>311</ele>
        <time>2022-05-17T13:37:56.541Z</time>
      </trkpt>
      <trkpt lat="49.82112" lon="4.69048">
        <ele>311</ele>
        <time>2022-05-17T13:37:57.560Z</time>
      </trkpt>
      <trkpt lat="49.82113" lon="4.69049">
        <ele>311</ele>
        <time>2022-05-17T13:37:58.537Z</time>
      </trkpt>
      <trkpt lat="49.82113" lon="4.69049">
        <ele>311</ele>
        <time>2022-05-17T13:37:59.542Z</time>
      </trkpt>
      <trkpt lat="49.82117" lon="4.69054">
        <ele>311</ele>
        <time>2022-05-17T13:38:00.526Z</time>
      </trkpt>
      <trkpt lat="49.82119" lon="4.69055">
        <ele>311</ele>
        <time>2022-05-17T13:38:01.545Z</time>
      </trkpt>
      <trkpt lat="49.82119" lon="4.69055">
        <ele>311</ele>
        <time>2022-05-17T13:38:02.555Z</time>
      </trkpt>
      <trkpt lat="49.82123" lon="4.6906">
        <ele>311</ele>
        <time>2022-05-17T13:38:03.537Z</time>
      </trkpt>
      <trkpt lat="49.82125" lon="4.69062">
        <ele>311</ele>
        <time>2022-05-17T13:38:04.527Z</time>
      </trkpt>
      <trkpt lat="49.82126" lon="4.69064">
        <ele>311</ele>
        <time>2022-05-17T13:38:05.554Z</time>
      </trkpt>
      <trkpt lat="49.82126" lon="4.69064">
        <ele>311</ele>
        <time>2022-05-17T13:38:06.561Z</time>
      </trkpt>
      <trkpt lat="49.8213" lon="4.69068">
        <ele>311</ele>
        <time>2022-05-17T13:38:07.546Z</time>
      </trkpt>
      <trkpt lat="49.82132" lon="4.6907">
        <ele>311</ele>
        <time>2022-05-17T13:38:08.525Z</time>
      </trkpt>
      <trkpt lat="49.82132" lon="4.6907">
        <ele>311</ele>
        <time>2022-05-17T13:38:09.530Z</time>
      </trkpt>
      <trkpt lat="49.82135" lon="4.69074">
        <ele>311</ele>
        <time>2022-05-17T13:38:10.526Z</time>
      </trkpt>
      <trkpt lat="49.82137" lon="4.69075">
        <ele>311</ele>
        <time>2022-05-17T13:38:11.542Z</time>
      </trkpt>
      <trkpt lat="49.82137" lon="4.69075">
        <ele>311</ele>
        <time>2022-05-17T13:38:12.549Z</time>
      </trkpt>
      <trkpt lat="49.8214" lon="4.69078">
        <ele>311</ele>
        <time>2022-05-17T13:38:13.536Z</time>
      </trkpt>
      <trkpt lat="49.8214" lon="4.69078">
        <ele>311</ele>
        <time>2022-05-17T13:38:14.541Z</time>
      </trkpt>
      <trkpt lat="49.82144" lon="4.69082">
        <ele>311</ele>
        <time>2022-05-17T13:38:15.556Z</time>
      </trkpt>
      <trkpt lat="49.82144" lon="4.69082">
        <ele>311</ele>
        <time>2022-05-17T13:38:16.562Z</time>
      </trkpt>
      <trkpt lat="49.82149" lon="4.69084">
        <ele>310</ele>
        <time>2022-05-17T13:38:17.537Z</time>
      </trkpt>
      <trkpt lat="49.82151" lon="4.69082">
        <ele>310</ele>
        <time>2022-05-17T13:38:18.558Z</time>
      </trkpt>
      <trkpt lat="49.82151" lon="4.69082">
        <ele>310</ele>
        <time>2022-05-17T13:38:19.541Z</time>
      </trkpt>
      <trkpt lat="49.82154" lon="4.69076">
        <ele>309</ele>
        <time>2022-05-17T13:38:20.532Z</time>
      </trkpt>
      <trkpt lat="49.82154" lon="4.69076">
        <ele>309</ele>
        <time>2022-05-17T13:38:21.528Z</time>
      </trkpt>
      <trkpt lat="49.82158" lon="4.69071">
        <ele>309</ele>
        <time>2022-05-17T13:38:22.546Z</time>
      </trkpt>
      <trkpt lat="49.8216" lon="4.69068">
        <ele>309</ele>
        <time>2022-05-17T13:38:23.538Z</time>
      </trkpt>
      <trkpt lat="49.8216" lon="4.69068">
        <ele>309</ele>
        <time>2022-05-17T13:38:24.544Z</time>
      </trkpt>
      <trkpt lat="49.82162" lon="4.6906">
        <ele>309</ele>
        <time>2022-05-17T13:38:25.528Z</time>
      </trkpt>
      <trkpt lat="49.82163" lon="4.69056">
        <ele>308</ele>
        <time>2022-05-17T13:38:26.558Z</time>
      </trkpt>
      <trkpt lat="49.82163" lon="4.69056">
        <ele>308</ele>
        <time>2022-05-17T13:38:27.524Z</time>
      </trkpt>
      <trkpt lat="49.82164" lon="4.69048">
        <ele>306</ele>
        <time>2022-05-17T13:38:28.549Z</time>
      </trkpt>
      <trkpt lat="49.82165" lon="4.69043">
        <ele>306</ele>
        <time>2022-05-17T13:38:29.560Z</time>
      </trkpt>
      <trkpt lat="49.82165" lon="4.69043">
        <ele>306</ele>
        <time>2022-05-17T13:38:30.525Z</time>
      </trkpt>
      <trkpt lat="49.82167" lon="4.69034">
        <ele>306</ele>
        <time>2022-05-17T13:38:31.536Z</time>
      </trkpt>
      <trkpt lat="49.82167" lon="4.69034">
        <ele>306</ele>
        <time>2022-05-17T13:38:32.543Z</time>
      </trkpt>
      <trkpt lat="49.82168" lon="4.69024">
        <ele>306</ele>
        <time>2022-05-17T13:38:33.533Z</time>
      </trkpt>
      <trkpt lat="49.82168" lon="4.69024">
        <ele>306</ele>
        <time>2022-05-17T13:38:34.538Z</time>
      </trkpt>
      <trkpt lat="49.8217" lon="4.69014">
        <ele>306</ele>
        <time>2022-05-17T13:38:35.554Z</time>
      </trkpt>
      <trkpt lat="49.82171" lon="4.6901">
        <ele>307</ele>
        <time>2022-05-17T13:38:36.538Z</time>
      </trkpt>
      <trkpt lat="49.82171" lon="4.69004">
        <ele>308</ele>
        <time>2022-05-17T13:38:37.560Z</time>
      </trkpt>
      <trkpt lat="49.82171" lon="4.69004">
        <ele>308</ele>
        <time>2022-05-17T13:38:38.525Z</time>
      </trkpt>
      <trkpt lat="49.82173" lon="4.68992">
        <ele>307</ele>
        <time>2022-05-17T13:38:39.558Z</time>
      </trkpt>
      <trkpt lat="49.82173" lon="4.68986">
        <ele>308</ele>
        <time>2022-05-17T13:38:40.536Z</time>
      </trkpt>
      <trkpt lat="49.82173" lon="4.68986">
        <ele>308</ele>
        <time>2022-05-17T13:38:41.541Z</time>
      </trkpt>
      <trkpt lat="49.82175" lon="4.68974">
        <ele>307</ele>
        <time>2022-05-17T13:38:42.562Z</time>
      </trkpt>
      <trkpt lat="49.82175" lon="4.68969">
        <ele>306</ele>
        <time>2022-05-17T13:38:43.546Z</time>
      </trkpt>
      <trkpt lat="49.82175" lon="4.68969">
        <ele>306</ele>
        <time>2022-05-17T13:38:44.555Z</time>
      </trkpt>
      <trkpt lat="49.82177" lon="4.68959">
        <ele>307</ele>
        <time>2022-05-17T13:38:45.534Z</time>
      </trkpt>
      <trkpt lat="49.82177" lon="4.68959">
        <ele>307</ele>
        <time>2022-05-17T13:38:46.539Z</time>
      </trkpt>
      <trkpt lat="49.82178" lon="4.68948">
        <ele>307</ele>
        <time>2022-05-17T13:38:47.526Z</time>
      </trkpt>
      <trkpt lat="49.82178" lon="4.68948">
        <ele>307</ele>
        <time>2022-05-17T13:38:48.532Z</time>
      </trkpt>
      <trkpt lat="49.82179" lon="4.68939">
        <ele>308</ele>
        <time>2022-05-17T13:38:49.560Z</time>
      </trkpt>
      <trkpt lat="49.82179" lon="4.68939">
        <ele>308</ele>
        <time>2022-05-17T13:38:50.532Z</time>
      </trkpt>
      <trkpt lat="49.8218" lon="4.68928">
        <ele>308</ele>
        <time>2022-05-17T13:38:51.555Z</time>
      </trkpt>
      <trkpt lat="49.8218" lon="4.68928">
        <ele>308</ele>
        <time>2022-05-17T13:38:52.562Z</time>
      </trkpt>
      <trkpt lat="49.82181" lon="4.68916">
        <ele>308</ele>
        <time>2022-05-17T13:38:53.543Z</time>
      </trkpt>
      <trkpt lat="49.82181" lon="4.68916">
        <ele>308</ele>
        <time>2022-05-17T13:38:54.548Z</time>
      </trkpt>
      <trkpt lat="49.82184" lon="4.68905">
        <ele>309</ele>
        <time>2022-05-17T13:38:55.538Z</time>
      </trkpt>
      <trkpt lat="49.82184" lon="4.68905">
        <ele>309</ele>
        <time>2022-05-17T13:38:56.544Z</time>
      </trkpt>
      <trkpt lat="49.82187" lon="4.68893">
        <ele>310</ele>
        <time>2022-05-17T13:38:57.525Z</time>
      </trkpt>
      <trkpt lat="49.82187" lon="4.68893">
        <ele>310</ele>
        <time>2022-05-17T13:38:58.530Z</time>
      </trkpt>
      <trkpt lat="49.82189" lon="4.6888">
        <ele>310</ele>
        <time>2022-05-17T13:38:59.551Z</time>
      </trkpt>
      <trkpt lat="49.8219" lon="4.68873">
        <ele>310</ele>
        <time>2022-05-17T13:39:00.558Z</time>
      </trkpt>
      <trkpt lat="49.8219" lon="4.68873">
        <ele>310</ele>
        <time>2022-05-17T13:39:01.563Z</time>
      </trkpt>
      <trkpt lat="49.82192" lon="4.68862">
        <ele>310</ele>
        <time>2022-05-17T13:39:02.545Z</time>
      </trkpt>
      <trkpt lat="49.82192" lon="4.68862">
        <ele>310</ele>
        <time>2022-05-17T13:39:03.559Z</time>
      </trkpt>
      <trkpt lat="49.82193" lon="4.6885">
        <ele>310</ele>
        <time>2022-05-17T13:39:04.535Z</time>
      </trkpt>
      <trkpt lat="49.82194" lon="4.68844">
        <ele>310</ele>
        <time>2022-05-17T13:39:05.537Z</time>
      </trkpt>
      <trkpt lat="49.82194" lon="4.68839">
        <ele>310</ele>
        <time>2022-05-17T13:39:06.556Z</time>
      </trkpt>
      <trkpt lat="49.82194" lon="4.68839">
        <ele>310</ele>
        <time>2022-05-17T13:39:07.562Z</time>
      </trkpt>
      <trkpt lat="49.82195" lon="4.68829">
        <ele>310</ele>
        <time>2022-05-17T13:39:08.542Z</time>
      </trkpt>
      <trkpt lat="49.82195" lon="4.68829">
        <ele>310</ele>
        <time>2022-05-17T13:39:09.548Z</time>
      </trkpt>
      <trkpt lat="49.82196" lon="4.68821">
        <ele>309</ele>
        <time>2022-05-17T13:39:10.537Z</time>
      </trkpt>
      <trkpt lat="49.82196" lon="4.68821">
        <ele>309</ele>
        <time>2022-05-17T13:39:11.543Z</time>
      </trkpt>
      <trkpt lat="49.82197" lon="4.6881">
        <ele>309</ele>
        <time>2022-05-17T13:39:12.562Z</time>
      </trkpt>
      <trkpt lat="49.82197" lon="4.6881">
        <ele>309</ele>
        <time>2022-05-17T13:39:13.528Z</time>
      </trkpt>
      <trkpt lat="49.82197" lon="4.68796">
        <ele>309</ele>
        <time>2022-05-17T13:39:14.531Z</time>
      </trkpt>
      <trkpt lat="49.82197" lon="4.68796">
        <ele>309</ele>
        <time>2022-05-17T13:39:15.537Z</time>
      </trkpt>
      <trkpt lat="49.82198" lon="4.68783">
        <ele>308</ele>
        <time>2022-05-17T13:39:16.555Z</time>
      </trkpt>
      <trkpt lat="49.82199" lon="4.68777">
        <ele>308</ele>
        <time>2022-05-17T13:39:17.531Z</time>
      </trkpt>
      <trkpt lat="49.82201" lon="4.68771">
        <ele>307</ele>
        <time>2022-05-17T13:39:18.543Z</time>
      </trkpt>
      <trkpt lat="49.82201" lon="4.68771">
        <ele>307</ele>
        <time>2022-05-17T13:39:19.551Z</time>
      </trkpt>
      <trkpt lat="49.82201" lon="4.6876">
        <ele>307</ele>
        <time>2022-05-17T13:39:20.528Z</time>
      </trkpt>
      <trkpt lat="49.82201" lon="4.68755">
        <ele>307</ele>
        <time>2022-05-17T13:39:21.532Z</time>
      </trkpt>
      <trkpt lat="49.82201" lon="4.68755">
        <ele>307</ele>
        <time>2022-05-17T13:39:22.541Z</time>
      </trkpt>
      <trkpt lat="49.82202" lon="4.68742">
        <ele>307</ele>
        <time>2022-05-17T13:39:23.558Z</time>
      </trkpt>
      <trkpt lat="49.82202" lon="4.68736">
        <ele>307</ele>
        <time>2022-05-17T13:39:24.533Z</time>
      </trkpt>
      <trkpt lat="49.82202" lon="4.68736">
        <ele>307</ele>
        <time>2022-05-17T13:39:25.538Z</time>
      </trkpt>
      <trkpt lat="49.82203" lon="4.68724">
        <ele>308</ele>
        <time>2022-05-17T13:39:26.560Z</time>
      </trkpt>
      <trkpt lat="49.82203" lon="4.68724">
        <ele>308</ele>
        <time>2022-05-17T13:39:27.525Z</time>
      </trkpt>
      <trkpt lat="49.82205" lon="4.68712">
        <ele>308</ele>
        <time>2022-05-17T13:39:28.542Z</time>
      </trkpt>
      <trkpt lat="49.82205" lon="4.68712">
        <ele>308</ele>
        <time>2022-05-17T13:39:29.547Z</time>
      </trkpt>
      <trkpt lat="49.82207" lon="4.687">
        <ele>309</ele>
        <time>2022-05-17T13:39:30.526Z</time>
      </trkpt>
      <trkpt lat="49.82208" lon="4.68693">
        <ele>309</ele>
        <time>2022-05-17T13:39:31.526Z</time>
      </trkpt>
      <trkpt lat="49.82208" lon="4.68693">
        <ele>309</ele>
        <time>2022-05-17T13:39:32.531Z</time>
      </trkpt>
      <trkpt lat="49.8221" lon="4.68681">
        <ele>309</ele>
        <time>2022-05-17T13:39:33.553Z</time>
      </trkpt>
      <trkpt lat="49.8221" lon="4.68681">
        <ele>309</ele>
        <time>2022-05-17T13:39:34.560Z</time>
      </trkpt>
      <trkpt lat="49.82211" lon="4.68668">
        <ele>309</ele>
        <time>2022-05-17T13:39:35.545Z</time>
      </trkpt>
      <trkpt lat="49.82211" lon="4.68668">
        <ele>309</ele>
        <time>2022-05-17T13:39:36.550Z</time>
      </trkpt>
      <trkpt lat="49.82213" lon="4.68653">
        <ele>308</ele>
        <time>2022-05-17T13:39:37.542Z</time>
      </trkpt>
      <trkpt lat="49.82213" lon="4.68653">
        <ele>308</ele>
        <time>2022-05-17T13:39:38.547Z</time>
      </trkpt>
      <trkpt lat="49.82215" lon="4.68638">
        <ele>308</ele>
        <time>2022-05-17T13:39:39.537Z</time>
      </trkpt>
      <trkpt lat="49.82216" lon="4.68631">
        <ele>308</ele>
        <time>2022-05-17T13:39:40.534Z</time>
      </trkpt>
      <trkpt lat="49.82216" lon="4.68631">
        <ele>308</ele>
        <time>2022-05-17T13:39:41.540Z</time>
      </trkpt>
      <trkpt lat="49.82217" lon="4.68618">
        <ele>308</ele>
        <time>2022-05-17T13:39:42.562Z</time>
      </trkpt>
      <trkpt lat="49.82218" lon="4.68611">
        <ele>309</ele>
        <time>2022-05-17T13:39:43.545Z</time>
      </trkpt>
      <trkpt lat="49.82218" lon="4.68611">
        <ele>309</ele>
        <time>2022-05-17T13:39:44.555Z</time>
      </trkpt>
      <trkpt lat="49.8222" lon="4.68596">
        <ele>309</ele>
        <time>2022-05-17T13:39:45.537Z</time>
      </trkpt>
      <trkpt lat="49.8222" lon="4.68588">
        <ele>309</ele>
        <time>2022-05-17T13:39:46.557Z</time>
      </trkpt>
      <trkpt lat="49.8222" lon="4.68588">
        <ele>309</ele>
        <time>2022-05-17T13:39:47.563Z</time>
      </trkpt>
      <trkpt lat="49.82222" lon="4.68571">
        <ele>310</ele>
        <time>2022-05-17T13:39:48.545Z</time>
      </trkpt>
      <trkpt lat="49.82223" lon="4.68563">
        <ele>311</ele>
        <time>2022-05-17T13:39:49.561Z</time>
      </trkpt>
      <trkpt lat="49.82223" lon="4.68563">
        <ele>311</ele>
        <time>2022-05-17T13:39:50.527Z</time>
      </trkpt>
      <trkpt lat="49.82224" lon="4.68547">
        <ele>311</ele>
        <time>2022-05-17T13:39:51.550Z</time>
      </trkpt>
      <trkpt lat="49.82224" lon="4.68547">
        <ele>311</ele>
        <time>2022-05-17T13:39:52.561Z</time>
      </trkpt>
      <trkpt lat="49.82227" lon="4.68525">
        <ele>311</ele>
        <time>2022-05-17T13:39:53.555Z</time>
      </trkpt>
      <trkpt lat="49.82229" lon="4.68515">
        <ele>311</ele>
        <time>2022-05-17T13:39:54.533Z</time>
      </trkpt>
      <trkpt lat="49.8223" lon="4.68505">
        <ele>310</ele>
        <time>2022-05-17T13:39:55.555Z</time>
      </trkpt>
      <trkpt lat="49.8223" lon="4.68505">
        <ele>310</ele>
        <time>2022-05-17T13:39:56.562Z</time>
      </trkpt>
      <trkpt lat="49.82232" lon="4.68491">
        <ele>310</ele>
        <time>2022-05-17T13:39:57.543Z</time>
      </trkpt>
      <trkpt lat="49.82232" lon="4.68484">
        <ele>310</ele>
        <time>2022-05-17T13:39:58.524Z</time>
      </trkpt>
      <trkpt lat="49.82232" lon="4.68484">
        <ele>310</ele>
        <time>2022-05-17T13:39:59.530Z</time>
      </trkpt>
      <trkpt lat="49.82234" lon="4.6847">
        <ele>311</ele>
        <time>2022-05-17T13:40:00.558Z</time>
      </trkpt>
      <trkpt lat="49.82234" lon="4.68463">
        <ele>311</ele>
        <time>2022-05-17T13:40:01.536Z</time>
      </trkpt>
      <trkpt lat="49.82234" lon="4.68463">
        <ele>311</ele>
        <time>2022-05-17T13:40:02.541Z</time>
      </trkpt>
      <trkpt lat="49.82237" lon="4.68445">
        <ele>310</ele>
        <time>2022-05-17T13:40:03.531Z</time>
      </trkpt>
      <trkpt lat="49.82239" lon="4.68436">
        <ele>310</ele>
        <time>2022-05-17T13:40:04.544Z</time>
      </trkpt>
      <trkpt lat="49.82239" lon="4.68436">
        <ele>310</ele>
        <time>2022-05-17T13:40:05.563Z</time>
      </trkpt>
      <trkpt lat="49.82243" lon="4.68421">
        <ele>310</ele>
        <time>2022-05-17T13:40:06.542Z</time>
      </trkpt>
      <trkpt lat="49.82244" lon="4.68413">
        <ele>310</ele>
        <time>2022-05-17T13:40:07.528Z</time>
      </trkpt>
      <trkpt lat="49.82244" lon="4.68413">
        <ele>310</ele>
        <time>2022-05-17T13:40:08.533Z</time>
      </trkpt>
      <trkpt lat="49.82245" lon="4.68398">
        <ele>309</ele>
        <time>2022-05-17T13:40:09.559Z</time>
      </trkpt>
      <trkpt lat="49.82245" lon="4.68398">
        <ele>309</ele>
        <time>2022-05-17T13:40:10.524Z</time>
      </trkpt>
      <trkpt lat="49.82246" lon="4.68387">
        <ele>309</ele>
        <time>2022-05-17T13:40:11.529Z</time>
      </trkpt>
      <trkpt lat="49.82247" lon="4.68382">
        <ele>309</ele>
        <time>2022-05-17T13:40:12.558Z</time>
      </trkpt>
      <trkpt lat="49.82247" lon="4.68382">
        <ele>309</ele>
        <time>2022-05-17T13:40:13.563Z</time>
      </trkpt>
      <trkpt lat="49.82247" lon="4.68372">
        <ele>310</ele>
        <time>2022-05-17T13:40:14.534Z</time>
      </trkpt>
      <trkpt lat="49.82247" lon="4.68372">
        <ele>310</ele>
        <time>2022-05-17T13:40:15.539Z</time>
      </trkpt>
      <trkpt lat="49.82248" lon="4.68362">
        <ele>310</ele>
        <time>2022-05-17T13:40:16.558Z</time>
      </trkpt>
      <trkpt lat="49.82248" lon="4.68362">
        <ele>310</ele>
        <time>2022-05-17T13:40:17.563Z</time>
      </trkpt>
      <trkpt lat="49.82249" lon="4.68352">
        <ele>310</ele>
        <time>2022-05-17T13:40:18.545Z</time>
      </trkpt>
      <trkpt lat="49.82249" lon="4.68352">
        <ele>310</ele>
        <time>2022-05-17T13:40:19.553Z</time>
      </trkpt>
      <trkpt lat="49.82249" lon="4.68341">
        <ele>311</ele>
        <time>2022-05-17T13:40:20.526Z</time>
      </trkpt>
      <trkpt lat="49.82249" lon="4.68341">
        <ele>311</ele>
        <time>2022-05-17T13:40:21.537Z</time>
      </trkpt>
      <trkpt lat="49.8225" lon="4.6833">
        <ele>311</ele>
        <time>2022-05-17T13:40:22.557Z</time>
      </trkpt>
      <trkpt lat="49.8225" lon="4.6833">
        <ele>311</ele>
        <time>2022-05-17T13:40:23.562Z</time>
      </trkpt>
      <trkpt lat="49.82252" lon="4.68316">
        <ele>311</ele>
        <time>2022-05-17T13:40:24.534Z</time>
      </trkpt>
      <trkpt lat="49.82252" lon="4.68311">
        <ele>311</ele>
        <time>2022-05-17T13:40:25.527Z</time>
      </trkpt>
      <trkpt lat="49.82252" lon="4.68311">
        <ele>311</ele>
        <time>2022-05-17T13:40:26.532Z</time>
      </trkpt>
      <trkpt lat="49.82253" lon="4.68302">
        <ele>311</ele>
        <time>2022-05-17T13:40:27.557Z</time>
      </trkpt>
      <trkpt lat="49.82253" lon="4.68302">
        <ele>311</ele>
        <time>2022-05-17T13:40:28.563Z</time>
      </trkpt>
      <trkpt lat="49.82254" lon="4.68292">
        <ele>311</ele>
        <time>2022-05-17T13:40:29.525Z</time>
      </trkpt>
      <trkpt lat="49.82254" lon="4.68292">
        <ele>311</ele>
        <time>2022-05-17T13:40:30.538Z</time>
      </trkpt>
      <trkpt lat="49.82255" lon="4.68281">
        <ele>312</ele>
        <time>2022-05-17T13:40:31.525Z</time>
      </trkpt>
      <trkpt lat="49.82255" lon="4.68281">
        <ele>312</ele>
        <time>2022-05-17T13:40:32.530Z</time>
      </trkpt>
      <trkpt lat="49.82256" lon="4.68272">
        <ele>312</ele>
        <time>2022-05-17T13:40:33.543Z</time>
      </trkpt>
      <trkpt lat="49.82256" lon="4.68272">
        <ele>312</ele>
        <time>2022-05-17T13:40:34.549Z</time>
      </trkpt>
      <trkpt lat="49.82255" lon="4.68264">
        <ele>312</ele>
        <time>2022-05-17T13:40:35.529Z</time>
      </trkpt>
      <trkpt lat="49.82256" lon="4.6826">
        <ele>313</ele>
        <time>2022-05-17T13:40:36.549Z</time>
      </trkpt>
      <trkpt lat="49.82256" lon="4.6826">
        <ele>313</ele>
        <time>2022-05-17T13:40:37.559Z</time>
      </trkpt>
      <trkpt lat="49.82256" lon="4.68251">
        <ele>313</ele>
        <time>2022-05-17T13:40:38.532Z</time>
      </trkpt>
      <trkpt lat="49.82256" lon="4.68247">
        <ele>313</ele>
        <time>2022-05-17T13:40:39.558Z</time>
      </trkpt>
      <trkpt lat="49.82256" lon="4.68242">
        <ele>314</ele>
        <time>2022-05-17T13:40:40.539Z</time>
      </trkpt>
      <trkpt lat="49.82255" lon="4.68237">
        <ele>314</ele>
        <time>2022-05-17T13:40:41.559Z</time>
      </trkpt>
      <trkpt lat="49.82255" lon="4.68237">
        <ele>314</ele>
        <time>2022-05-17T13:40:42.525Z</time>
      </trkpt>
      <trkpt lat="49.82255" lon="4.68228">
        <ele>314</ele>
        <time>2022-05-17T13:40:43.561Z</time>
      </trkpt>
      <trkpt lat="49.82255" lon="4.68228">
        <ele>314</ele>
        <time>2022-05-17T13:40:44.527Z</time>
      </trkpt>
      <trkpt lat="49.82256" lon="4.68221">
        <ele>315</ele>
        <time>2022-05-17T13:40:45.529Z</time>
      </trkpt>
      <trkpt lat="49.82256" lon="4.68221">
        <ele>315</ele>
        <time>2022-05-17T13:40:46.534Z</time>
      </trkpt>
      <trkpt lat="49.82257" lon="4.68212">
        <ele>315</ele>
        <time>2022-05-17T13:40:47.551Z</time>
      </trkpt>
      <trkpt lat="49.82257" lon="4.68212">
        <ele>315</ele>
        <time>2022-05-17T13:40:48.524Z</time>
      </trkpt>
      <trkpt lat="49.82258" lon="4.68203">
        <ele>315</ele>
        <time>2022-05-17T13:40:49.536Z</time>
      </trkpt>
      <trkpt lat="49.82258" lon="4.68203">
        <ele>315</ele>
        <time>2022-05-17T13:40:50.542Z</time>
      </trkpt>
      <trkpt lat="49.82261" lon="4.68195">
        <ele>315</ele>
        <time>2022-05-17T13:40:51.563Z</time>
      </trkpt>
      <trkpt lat="49.82263" lon="4.6819">
        <ele>315</ele>
        <time>2022-05-17T13:40:52.553Z</time>
      </trkpt>
      <trkpt lat="49.82263" lon="4.6819">
        <ele>315</ele>
        <time>2022-05-17T13:40:53.560Z</time>
      </trkpt>
      <trkpt lat="49.82266" lon="4.6818">
        <ele>315</ele>
        <time>2022-05-17T13:40:54.542Z</time>
      </trkpt>
      <trkpt lat="49.82267" lon="4.68175">
        <ele>315</ele>
        <time>2022-05-17T13:40:55.562Z</time>
      </trkpt>
      <trkpt lat="49.82267" lon="4.68175">
        <ele>315</ele>
        <time>2022-05-17T13:40:56.527Z</time>
      </trkpt>
      <trkpt lat="49.82267" lon="4.68167">
        <ele>316</ele>
        <time>2022-05-17T13:40:57.552Z</time>
      </trkpt>
      <trkpt lat="49.82268" lon="4.68163">
        <ele>315</ele>
        <time>2022-05-17T13:40:58.531Z</time>
      </trkpt>
      <trkpt lat="49.82267" lon="4.68158">
        <ele>316</ele>
        <time>2022-05-17T13:40:59.545Z</time>
      </trkpt>
      <trkpt lat="49.82267" lon="4.68154">
        <ele>316</ele>
        <time>2022-05-17T13:41:00.533Z</time>
      </trkpt>
      <trkpt lat="49.82267" lon="4.68154">
        <ele>316</ele>
        <time>2022-05-17T13:41:01.538Z</time>
      </trkpt>
      <trkpt lat="49.82268" lon="4.68146">
        <ele>316</ele>
        <time>2022-05-17T13:41:02.557Z</time>
      </trkpt>
      <trkpt lat="49.82268" lon="4.68146">
        <ele>316</ele>
        <time>2022-05-17T13:41:03.564Z</time>
      </trkpt>
      <trkpt lat="49.82268" lon="4.68139">
        <ele>317</ele>
        <time>2022-05-17T13:41:04.537Z</time>
      </trkpt>
      <trkpt lat="49.82269" lon="4.68136">
        <ele>317</ele>
        <time>2022-05-17T13:41:05.553Z</time>
      </trkpt>
      <trkpt lat="49.82268" lon="4.68133">
        <ele>317</ele>
        <time>2022-05-17T13:41:06.543Z</time>
      </trkpt>
      <trkpt lat="49.82268" lon="4.68133">
        <ele>317</ele>
        <time>2022-05-17T13:41:07.548Z</time>
      </trkpt>
      <trkpt lat="49.82269" lon="4.68127">
        <ele>318</ele>
        <time>2022-05-17T13:41:08.538Z</time>
      </trkpt>
      <trkpt lat="49.82269" lon="4.68124">
        <ele>318</ele>
        <time>2022-05-17T13:41:09.529Z</time>
      </trkpt>
      <trkpt lat="49.82269" lon="4.68124">
        <ele>318</ele>
        <time>2022-05-17T13:41:10.542Z</time>
      </trkpt>
      <trkpt lat="49.8227" lon="4.6812">
        <ele>318</ele>
        <time>2022-05-17T13:41:11.532Z</time>
      </trkpt>
      <trkpt lat="49.8227" lon="4.6812">
        <ele>318</ele>
        <time>2022-05-17T13:41:12.538Z</time>
      </trkpt>
      <trkpt lat="49.8227" lon="4.68116">
        <ele>319</ele>
        <time>2022-05-17T13:41:13.552Z</time>
      </trkpt>
      <trkpt lat="49.8227" lon="4.68116">
        <ele>319</ele>
        <time>2022-05-17T13:41:14.561Z</time>
      </trkpt>
      <trkpt lat="49.82271" lon="4.68109">
        <ele>319</ele>
        <time>2022-05-17T13:41:15.548Z</time>
      </trkpt>
      <trkpt lat="49.82271" lon="4.68109">
        <ele>319</ele>
        <time>2022-05-17T13:41:16.563Z</time>
      </trkpt>
      <trkpt lat="49.82272" lon="4.68104">
        <ele>319</ele>
        <time>2022-05-17T13:41:17.551Z</time>
      </trkpt>
      <trkpt lat="49.82273" lon="4.68102">
        <ele>319</ele>
        <time>2022-05-17T13:41:18.539Z</time>
      </trkpt>
      <trkpt lat="49.82273" lon="4.681">
        <ele>319</ele>
        <time>2022-05-17T13:41:19.560Z</time>
      </trkpt>
      <trkpt lat="49.82273" lon="4.681">
        <ele>319</ele>
        <time>2022-05-17T13:41:20.525Z</time>
      </trkpt>
      <trkpt lat="49.82272" lon="4.68094">
        <ele>319</ele>
        <time>2022-05-17T13:41:21.563Z</time>
      </trkpt>
      <trkpt lat="49.82272" lon="4.68094">
        <ele>319</ele>
        <time>2022-05-17T13:41:22.531Z</time>
      </trkpt>
      <trkpt lat="49.82272" lon="4.68089">
        <ele>319</ele>
        <time>2022-05-17T13:41:23.555Z</time>
      </trkpt>
      <trkpt lat="49.82272" lon="4.68085">
        <ele>319</ele>
        <time>2022-05-17T13:41:24.542Z</time>
      </trkpt>
      <trkpt lat="49.82272" lon="4.68085">
        <ele>319</ele>
        <time>2022-05-17T13:41:25.547Z</time>
      </trkpt>
      <trkpt lat="49.82276" lon="4.68075">
        <ele>318</ele>
        <time>2022-05-17T13:41:26.528Z</time>
      </trkpt>
      <trkpt lat="49.82276" lon="4.68075">
        <ele>318</ele>
        <time>2022-05-17T13:41:27.533Z</time>
      </trkpt>
      <trkpt lat="49.82276" lon="4.68066">
        <ele>317</ele>
        <time>2022-05-17T13:41:28.550Z</time>
      </trkpt>
      <trkpt lat="49.82278" lon="4.68061">
        <ele>317</ele>
        <time>2022-05-17T13:41:29.540Z</time>
      </trkpt>
      <trkpt lat="49.82278" lon="4.68058">
        <ele>316</ele>
        <time>2022-05-17T13:41:30.533Z</time>
      </trkpt>
      <trkpt lat="49.82278" lon="4.68058">
        <ele>316</ele>
        <time>2022-05-17T13:41:31.538Z</time>
      </trkpt>
      <trkpt lat="49.82278" lon="4.68052">
        <ele>315</ele>
        <time>2022-05-17T13:41:32.551Z</time>
      </trkpt>
      <trkpt lat="49.82278" lon="4.68052">
        <ele>315</ele>
        <time>2022-05-17T13:41:33.559Z</time>
      </trkpt>
      <trkpt lat="49.82278" lon="4.68044">
        <ele>315</ele>
        <time>2022-05-17T13:41:34.550Z</time>
      </trkpt>
      <trkpt lat="49.82278" lon="4.68044">
        <ele>315</ele>
        <time>2022-05-17T13:41:35.556Z</time>
      </trkpt>
      <trkpt lat="49.82278" lon="4.68037">
        <ele>314</ele>
        <time>2022-05-17T13:41:36.545Z</time>
      </trkpt>
      <trkpt lat="49.82278" lon="4.68033">
        <ele>314</ele>
        <time>2022-05-17T13:41:37.561Z</time>
      </trkpt>
      <trkpt lat="49.82278" lon="4.68033">
        <ele>314</ele>
        <time>2022-05-17T13:41:38.526Z</time>
      </trkpt>
      <trkpt lat="49.82279" lon="4.68026">
        <ele>314</ele>
        <time>2022-05-17T13:41:39.554Z</time>
      </trkpt>
      <trkpt lat="49.82279" lon="4.68026">
        <ele>314</ele>
        <time>2022-05-17T13:41:40.560Z</time>
      </trkpt>
      <trkpt lat="49.82279" lon="4.68018">
        <ele>313</ele>
        <time>2022-05-17T13:41:41.538Z</time>
      </trkpt>
      <trkpt lat="49.82279" lon="4.68015">
        <ele>312</ele>
        <time>2022-05-17T13:41:42.562Z</time>
      </trkpt>
      <trkpt lat="49.82279" lon="4.68015">
        <ele>312</ele>
        <time>2022-05-17T13:41:43.528Z</time>
      </trkpt>
      <trkpt lat="49.82279" lon="4.68009">
        <ele>312</ele>
        <time>2022-05-17T13:41:44.544Z</time>
      </trkpt>
      <trkpt lat="49.82279" lon="4.68009">
        <ele>312</ele>
        <time>2022-05-17T13:41:45.550Z</time>
      </trkpt>
      <trkpt lat="49.8228" lon="4.68002">
        <ele>311</ele>
        <time>2022-05-17T13:41:46.530Z</time>
      </trkpt>
      <trkpt lat="49.8228" lon="4.67999">
        <ele>311</ele>
        <time>2022-05-17T13:41:47.556Z</time>
      </trkpt>
      <trkpt lat="49.8228" lon="4.67999">
        <ele>311</ele>
        <time>2022-05-17T13:41:48.562Z</time>
      </trkpt>
      <trkpt lat="49.8228" lon="4.67991">
        <ele>310</ele>
        <time>2022-05-17T13:41:49.546Z</time>
      </trkpt>
      <trkpt lat="49.8228" lon="4.67991">
        <ele>310</ele>
        <time>2022-05-17T13:41:50.551Z</time>
      </trkpt>
      <trkpt lat="49.82281" lon="4.67983">
        <ele>309</ele>
        <time>2022-05-17T13:41:51.543Z</time>
      </trkpt>
      <trkpt lat="49.82282" lon="4.6798">
        <ele>309</ele>
        <time>2022-05-17T13:41:52.531Z</time>
      </trkpt>
      <trkpt lat="49.82282" lon="4.6798">
        <ele>309</ele>
        <time>2022-05-17T13:41:53.536Z</time>
      </trkpt>
      <trkpt lat="49.82283" lon="4.67972">
        <ele>307</ele>
        <time>2022-05-17T13:41:54.548Z</time>
      </trkpt>
      <trkpt lat="49.82283" lon="4.67972">
        <ele>307</ele>
        <time>2022-05-17T13:41:55.557Z</time>
      </trkpt>
      <trkpt lat="49.82285" lon="4.67966">
        <ele>305</ele>
        <time>2022-05-17T13:41:56.537Z</time>
      </trkpt>
      <trkpt lat="49.82285" lon="4.67966">
        <ele>305</ele>
        <time>2022-05-17T13:41:57.542Z</time>
      </trkpt>
      <trkpt lat="49.82286" lon="4.67952">
        <ele>303</ele>
        <time>2022-05-17T13:41:58.559Z</time>
      </trkpt>
      <trkpt lat="49.82286" lon="4.67952">
        <ele>303</ele>
        <time>2022-05-17T13:41:59.525Z</time>
      </trkpt>
      <trkpt lat="49.82287" lon="4.67945">
        <ele>302</ele>
        <time>2022-05-17T13:42:00.554Z</time>
      </trkpt>
      <trkpt lat="49.82287" lon="4.67942">
        <ele>302</ele>
        <time>2022-05-17T13:42:01.530Z</time>
      </trkpt>
      <trkpt lat="49.82287" lon="4.67942">
        <ele>302</ele>
        <time>2022-05-17T13:42:02.535Z</time>
      </trkpt>
      <trkpt lat="49.82285" lon="4.67935">
        <ele>301</ele>
        <time>2022-05-17T13:42:03.560Z</time>
      </trkpt>
      <trkpt lat="49.82285" lon="4.67935">
        <ele>301</ele>
        <time>2022-05-17T13:42:04.525Z</time>
      </trkpt>
      <trkpt lat="49.82282" lon="4.67928">
        <ele>300</ele>
        <time>2022-05-17T13:42:05.545Z</time>
      </trkpt>
      <trkpt lat="49.82282" lon="4.67928">
        <ele>300</ele>
        <time>2022-05-17T13:42:06.550Z</time>
      </trkpt>
      <trkpt lat="49.82279" lon="4.6792">
        <ele>299</ele>
        <time>2022-05-17T13:42:07.538Z</time>
      </trkpt>
      <trkpt lat="49.82279" lon="4.6792">
        <ele>299</ele>
        <time>2022-05-17T13:42:08.544Z</time>
      </trkpt>
      <trkpt lat="49.82276" lon="4.67912">
        <ele>299</ele>
        <time>2022-05-17T13:42:09.557Z</time>
      </trkpt>
      <trkpt lat="49.82276" lon="4.67912">
        <ele>299</ele>
        <time>2022-05-17T13:42:10.561Z</time>
      </trkpt>
      <trkpt lat="49.82272" lon="4.67903">
        <ele>298</ele>
        <time>2022-05-17T13:42:11.542Z</time>
      </trkpt>
      <trkpt lat="49.8227" lon="4.67899">
        <ele>298</ele>
        <time>2022-05-17T13:42:12.559Z</time>
      </trkpt>
      <trkpt lat="49.82268" lon="4.67894">
        <ele>298</ele>
        <time>2022-05-17T13:42:13.542Z</time>
      </trkpt>
      <trkpt lat="49.82268" lon="4.67894">
        <ele>298</ele>
        <time>2022-05-17T13:42:14.548Z</time>
      </trkpt>
      <trkpt lat="49.82264" lon="4.67884">
        <ele>297</ele>
        <time>2022-05-17T13:42:15.534Z</time>
      </trkpt>
      <trkpt lat="49.82261" lon="4.67878">
        <ele>296</ele>
        <time>2022-05-17T13:42:16.557Z</time>
      </trkpt>
      <trkpt lat="49.82261" lon="4.67878">
        <ele>296</ele>
        <time>2022-05-17T13:42:17.562Z</time>
      </trkpt>
      <trkpt lat="49.82256" lon="4.67866">
        <ele>295</ele>
        <time>2022-05-17T13:42:18.538Z</time>
      </trkpt>
      <trkpt lat="49.82253" lon="4.67858">
        <ele>294</ele>
        <time>2022-05-17T13:42:19.551Z</time>
      </trkpt>
      <trkpt lat="49.82253" lon="4.67858">
        <ele>294</ele>
        <time>2022-05-17T13:42:20.560Z</time>
      </trkpt>
      <trkpt lat="49.82247" lon="4.67842">
        <ele>293</ele>
        <time>2022-05-17T13:42:21.555Z</time>
      </trkpt>
      <trkpt lat="49.82247" lon="4.67842">
        <ele>293</ele>
        <time>2022-05-17T13:42:22.562Z</time>
      </trkpt>
      <trkpt lat="49.82241" lon="4.67823">
        <ele>291</ele>
        <time>2022-05-17T13:42:23.561Z</time>
      </trkpt>
      <trkpt lat="49.82241" lon="4.67823">
        <ele>291</ele>
        <time>2022-05-17T13:42:24.526Z</time>
      </trkpt>
      <trkpt lat="49.82235" lon="4.67803">
        <ele>289</ele>
        <time>2022-05-17T13:42:25.548Z</time>
      </trkpt>
      <trkpt lat="49.82235" lon="4.67803">
        <ele>289</ele>
        <time>2022-05-17T13:42:26.559Z</time>
      </trkpt>
      <trkpt lat="49.82231" lon="4.6778">
        <ele>288</ele>
        <time>2022-05-17T13:42:27.534Z</time>
      </trkpt>
      <trkpt lat="49.82231" lon="4.6778">
        <ele>288</ele>
        <time>2022-05-17T13:42:28.539Z</time>
      </trkpt>
      <trkpt lat="49.82227" lon="4.67752">
        <ele>287</ele>
        <time>2022-05-17T13:42:29.558Z</time>
      </trkpt>
      <trkpt lat="49.82227" lon="4.67752">
        <ele>287</ele>
        <time>2022-05-17T13:42:30.563Z</time>
      </trkpt>
      <trkpt lat="49.82224" lon="4.67725">
        <ele>286</ele>
        <time>2022-05-17T13:42:31.549Z</time>
      </trkpt>
      <trkpt lat="49.82224" lon="4.67725">
        <ele>286</ele>
        <time>2022-05-17T13:42:32.560Z</time>
      </trkpt>
      <trkpt lat="49.82222" lon="4.67696">
        <ele>284</ele>
        <time>2022-05-17T13:42:33.542Z</time>
      </trkpt>
      <trkpt lat="49.82221" lon="4.67681">
        <ele>284</ele>
        <time>2022-05-17T13:42:34.547Z</time>
      </trkpt>
      <trkpt lat="49.82221" lon="4.67681">
        <ele>284</ele>
        <time>2022-05-17T13:42:35.559Z</time>
      </trkpt>
      <trkpt lat="49.82219" lon="4.67651">
        <ele>282</ele>
        <time>2022-05-17T13:42:36.535Z</time>
      </trkpt>
      <trkpt lat="49.82218" lon="4.67636">
        <ele>282</ele>
        <time>2022-05-17T13:42:37.556Z</time>
      </trkpt>
      <trkpt lat="49.82218" lon="4.67636">
        <ele>282</ele>
        <time>2022-05-17T13:42:38.561Z</time>
      </trkpt>
      <trkpt lat="49.82214" lon="4.67604">
        <ele>280</ele>
        <time>2022-05-17T13:42:39.544Z</time>
      </trkpt>
      <trkpt lat="49.82214" lon="4.67604">
        <ele>280</ele>
        <time>2022-05-17T13:42:40.549Z</time>
      </trkpt>
      <trkpt lat="49.8221" lon="4.67573">
        <ele>279</ele>
        <time>2022-05-17T13:42:41.539Z</time>
      </trkpt>
      <trkpt lat="49.82208" lon="4.67557">
        <ele>278</ele>
        <time>2022-05-17T13:42:42.530Z</time>
      </trkpt>
      <trkpt lat="49.82208" lon="4.67557">
        <ele>278</ele>
        <time>2022-05-17T13:42:43.536Z</time>
      </trkpt>
      <trkpt lat="49.82203" lon="4.67528">
        <ele>277</ele>
        <time>2022-05-17T13:42:44.560Z</time>
      </trkpt>
      <trkpt lat="49.822" lon="4.67513">
        <ele>277</ele>
        <time>2022-05-17T13:42:45.546Z</time>
      </trkpt>
      <trkpt lat="49.82197" lon="4.675">
        <ele>276</ele>
        <time>2022-05-17T13:42:46.538Z</time>
      </trkpt>
      <trkpt lat="49.82197" lon="4.675">
        <ele>276</ele>
        <time>2022-05-17T13:42:47.543Z</time>
      </trkpt>
      <trkpt lat="49.82192" lon="4.67474">
        <ele>275</ele>
        <time>2022-05-17T13:42:48.528Z</time>
      </trkpt>
      <trkpt lat="49.82189" lon="4.67461">
        <ele>274</ele>
        <time>2022-05-17T13:42:49.547Z</time>
      </trkpt>
      <trkpt lat="49.82189" lon="4.67461">
        <ele>274</ele>
        <time>2022-05-17T13:42:50.556Z</time>
      </trkpt>
      <trkpt lat="49.82184" lon="4.67436">
        <ele>273</ele>
        <time>2022-05-17T13:42:51.530Z</time>
      </trkpt>
      <trkpt lat="49.82182" lon="4.67425">
        <ele>273</ele>
        <time>2022-05-17T13:42:52.539Z</time>
      </trkpt>
      <trkpt lat="49.82182" lon="4.67425">
        <ele>273</ele>
        <time>2022-05-17T13:42:53.544Z</time>
      </trkpt>
      <trkpt lat="49.8218" lon="4.67402">
        <ele>272</ele>
        <time>2022-05-17T13:42:54.558Z</time>
      </trkpt>
      <trkpt lat="49.8218" lon="4.67391">
        <ele>271</ele>
        <time>2022-05-17T13:42:55.531Z</time>
      </trkpt>
      <trkpt lat="49.8218" lon="4.67391">
        <ele>271</ele>
        <time>2022-05-17T13:42:56.536Z</time>
      </trkpt>
      <trkpt lat="49.82179" lon="4.67369">
        <ele>270</ele>
        <time>2022-05-17T13:42:57.562Z</time>
      </trkpt>
      <trkpt lat="49.82179" lon="4.67369">
        <ele>270</ele>
        <time>2022-05-17T13:42:58.528Z</time>
      </trkpt>
      <trkpt lat="49.82177" lon="4.67347">
        <ele>270</ele>
        <time>2022-05-17T13:42:59.564Z</time>
      </trkpt>
      <trkpt lat="49.82176" lon="4.67337">
        <ele>269</ele>
        <time>2022-05-17T13:43:00.534Z</time>
      </trkpt>
      <trkpt lat="49.82176" lon="4.67337">
        <ele>269</ele>
        <time>2022-05-17T13:43:01.540Z</time>
      </trkpt>
      <trkpt lat="49.82175" lon="4.67315">
        <ele>268</ele>
        <time>2022-05-17T13:43:02.556Z</time>
      </trkpt>
      <trkpt lat="49.82175" lon="4.67315">
        <ele>268</ele>
        <time>2022-05-17T13:43:03.562Z</time>
      </trkpt>
      <trkpt lat="49.82173" lon="4.67293">
        <ele>268</ele>
        <time>2022-05-17T13:43:04.543Z</time>
      </trkpt>
      <trkpt lat="49.82173" lon="4.67293">
        <ele>268</ele>
        <time>2022-05-17T13:43:05.549Z</time>
      </trkpt>
      <trkpt lat="49.82171" lon="4.67271">
        <ele>267</ele>
        <time>2022-05-17T13:43:06.533Z</time>
      </trkpt>
      <trkpt lat="49.82171" lon="4.6726">
        <ele>266</ele>
        <time>2022-05-17T13:43:07.554Z</time>
      </trkpt>
      <trkpt lat="49.82171" lon="4.6726">
        <ele>266</ele>
        <time>2022-05-17T13:43:08.561Z</time>
      </trkpt>
      <trkpt lat="49.82169" lon="4.67238">
        <ele>265</ele>
        <time>2022-05-17T13:43:09.547Z</time>
      </trkpt>
      <trkpt lat="49.82169" lon="4.67238">
        <ele>265</ele>
        <time>2022-05-17T13:43:10.560Z</time>
      </trkpt>
      <trkpt lat="49.82167" lon="4.67216">
        <ele>265</ele>
        <time>2022-05-17T13:43:11.546Z</time>
      </trkpt>
      <trkpt lat="49.82166" lon="4.67206">
        <ele>264</ele>
        <time>2022-05-17T13:43:12.524Z</time>
      </trkpt>
      <trkpt lat="49.82166" lon="4.67206">
        <ele>264</ele>
        <time>2022-05-17T13:43:13.530Z</time>
      </trkpt>
      <trkpt lat="49.82166" lon="4.67186">
        <ele>264</ele>
        <time>2022-05-17T13:43:14.558Z</time>
      </trkpt>
      <trkpt lat="49.82166" lon="4.67186">
        <ele>264</ele>
        <time>2022-05-17T13:43:15.563Z</time>
      </trkpt>
      <trkpt lat="49.82165" lon="4.67165">
        <ele>263</ele>
        <time>2022-05-17T13:43:16.543Z</time>
      </trkpt>
      <trkpt lat="49.82165" lon="4.67165">
        <ele>263</ele>
        <time>2022-05-17T13:43:17.549Z</time>
      </trkpt>
      <trkpt lat="49.82163" lon="4.67146">
        <ele>263</ele>
        <time>2022-05-17T13:43:18.528Z</time>
      </trkpt>
      <trkpt lat="49.82162" lon="4.67136">
        <ele>263</ele>
        <time>2022-05-17T13:43:19.546Z</time>
      </trkpt>
      <trkpt lat="49.82162" lon="4.67136">
        <ele>263</ele>
        <time>2022-05-17T13:43:20.529Z</time>
      </trkpt>
      <trkpt lat="49.82161" lon="4.67115">
        <ele>262</ele>
        <time>2022-05-17T13:43:21.562Z</time>
      </trkpt>
      <trkpt lat="49.8216" lon="4.67105">
        <ele>262</ele>
        <time>2022-05-17T13:43:22.543Z</time>
      </trkpt>
      <trkpt lat="49.8216" lon="4.67105">
        <ele>262</ele>
        <time>2022-05-17T13:43:23.549Z</time>
      </trkpt>
      <trkpt lat="49.82159" lon="4.67084">
        <ele>262</ele>
        <time>2022-05-17T13:43:24.535Z</time>
      </trkpt>
      <trkpt lat="49.82158" lon="4.67074">
        <ele>262</ele>
        <time>2022-05-17T13:43:25.563Z</time>
      </trkpt>
      <trkpt lat="49.82158" lon="4.67074">
        <ele>262</ele>
        <time>2022-05-17T13:43:26.529Z</time>
      </trkpt>
      <trkpt lat="49.82156" lon="4.67054">
        <ele>261</ele>
        <time>2022-05-17T13:43:27.555Z</time>
      </trkpt>
      <trkpt lat="49.82155" lon="4.67044">
        <ele>261</ele>
        <time>2022-05-17T13:43:28.533Z</time>
      </trkpt>
      <trkpt lat="49.82155" lon="4.67044">
        <ele>261</ele>
        <time>2022-05-17T13:43:29.538Z</time>
      </trkpt>
      <trkpt lat="49.82154" lon="4.67024">
        <ele>261</ele>
        <time>2022-05-17T13:43:30.531Z</time>
      </trkpt>
      <trkpt lat="49.82154" lon="4.67024">
        <ele>261</ele>
        <time>2022-05-17T13:43:31.541Z</time>
      </trkpt>
      <trkpt lat="49.82152" lon="4.67005">
        <ele>261</ele>
        <time>2022-05-17T13:43:32.557Z</time>
      </trkpt>
      <trkpt lat="49.82152" lon="4.67005">
        <ele>261</ele>
        <time>2022-05-17T13:43:33.563Z</time>
      </trkpt>
      <trkpt lat="49.82151" lon="4.66986">
        <ele>261</ele>
        <time>2022-05-17T13:43:34.524Z</time>
      </trkpt>
      <trkpt lat="49.82151" lon="4.66986">
        <ele>261</ele>
        <time>2022-05-17T13:43:35.539Z</time>
      </trkpt>
      <trkpt lat="49.82149" lon="4.66967">
        <ele>261</ele>
        <time>2022-05-17T13:43:36.553Z</time>
      </trkpt>
      <trkpt lat="49.82149" lon="4.66967">
        <ele>261</ele>
        <time>2022-05-17T13:43:37.560Z</time>
      </trkpt>
      <trkpt lat="49.82148" lon="4.66948">
        <ele>261</ele>
        <time>2022-05-17T13:43:38.535Z</time>
      </trkpt>
      <trkpt lat="49.82148" lon="4.66948">
        <ele>261</ele>
        <time>2022-05-17T13:43:39.540Z</time>
      </trkpt>
      <trkpt lat="49.82147" lon="4.66929">
        <ele>261</ele>
        <time>2022-05-17T13:43:40.531Z</time>
      </trkpt>
      <trkpt lat="49.82147" lon="4.66929">
        <ele>261</ele>
        <time>2022-05-17T13:43:41.536Z</time>
      </trkpt>
      <trkpt lat="49.82145" lon="4.6691">
        <ele>261</ele>
        <time>2022-05-17T13:43:42.554Z</time>
      </trkpt>
      <trkpt lat="49.82145" lon="4.669">
        <ele>261</ele>
        <time>2022-05-17T13:43:43.535Z</time>
      </trkpt>
      <trkpt lat="49.82145" lon="4.6689">
        <ele>261</ele>
        <time>2022-05-17T13:43:44.562Z</time>
      </trkpt>
      <trkpt lat="49.82145" lon="4.6689">
        <ele>261</ele>
        <time>2022-05-17T13:43:45.528Z</time>
      </trkpt>
      <trkpt lat="49.82143" lon="4.6687">
        <ele>261</ele>
        <time>2022-05-17T13:43:46.554Z</time>
      </trkpt>
      <trkpt lat="49.82143" lon="4.6687">
        <ele>261</ele>
        <time>2022-05-17T13:43:47.560Z</time>
      </trkpt>
      <trkpt lat="49.82141" lon="4.6685">
        <ele>261</ele>
        <time>2022-05-17T13:43:48.542Z</time>
      </trkpt>
      <trkpt lat="49.8214" lon="4.66841">
        <ele>261</ele>
        <time>2022-05-17T13:43:49.562Z</time>
      </trkpt>
      <trkpt lat="49.8214" lon="4.66841">
        <ele>261</ele>
        <time>2022-05-17T13:43:50.528Z</time>
      </trkpt>
      <trkpt lat="49.82139" lon="4.66822">
        <ele>261</ele>
        <time>2022-05-17T13:43:51.554Z</time>
      </trkpt>
      <trkpt lat="49.82138" lon="4.66813">
        <ele>261</ele>
        <time>2022-05-17T13:43:52.563Z</time>
      </trkpt>
      <trkpt lat="49.82138" lon="4.66813">
        <ele>261</ele>
        <time>2022-05-17T13:43:53.530Z</time>
      </trkpt>
      <trkpt lat="49.82135" lon="4.66794">
        <ele>261</ele>
        <time>2022-05-17T13:43:54.539Z</time>
      </trkpt>
      <trkpt lat="49.82135" lon="4.66794">
        <ele>261</ele>
        <time>2022-05-17T13:43:55.543Z</time>
      </trkpt>
      <trkpt lat="49.82133" lon="4.66775">
        <ele>261</ele>
        <time>2022-05-17T13:43:56.550Z</time>
      </trkpt>
      <trkpt lat="49.82133" lon="4.66775">
        <ele>261</ele>
        <time>2022-05-17T13:43:57.525Z</time>
      </trkpt>
      <trkpt lat="49.82131" lon="4.66756">
        <ele>262</ele>
        <time>2022-05-17T13:43:58.544Z</time>
      </trkpt>
      <trkpt lat="49.82131" lon="4.66756">
        <ele>262</ele>
        <time>2022-05-17T13:43:59.551Z</time>
      </trkpt>
      <trkpt lat="49.8213" lon="4.66735">
        <ele>262</ele>
        <time>2022-05-17T13:44:00.559Z</time>
      </trkpt>
      <trkpt lat="49.8213" lon="4.66735">
        <ele>262</ele>
        <time>2022-05-17T13:44:01.563Z</time>
      </trkpt>
      <trkpt lat="49.82128" lon="4.66715">
        <ele>262</ele>
        <time>2022-05-17T13:44:02.526Z</time>
      </trkpt>
      <trkpt lat="49.82128" lon="4.66715">
        <ele>262</ele>
        <time>2022-05-17T13:44:03.532Z</time>
      </trkpt>
      <trkpt lat="49.82125" lon="4.66695">
        <ele>262</ele>
        <time>2022-05-17T13:44:04.559Z</time>
      </trkpt>
      <trkpt lat="49.82124" lon="4.66685">
        <ele>262</ele>
        <time>2022-05-17T13:44:05.556Z</time>
      </trkpt>
      <trkpt lat="49.82124" lon="4.66685">
        <ele>262</ele>
        <time>2022-05-17T13:44:06.524Z</time>
      </trkpt>
      <trkpt lat="49.82121" lon="4.66664">
        <ele>262</ele>
        <time>2022-05-17T13:44:07.533Z</time>
      </trkpt>
      <trkpt lat="49.8212" lon="4.66653">
        <ele>262</ele>
        <time>2022-05-17T13:44:08.563Z</time>
      </trkpt>
      <trkpt lat="49.8212" lon="4.66653">
        <ele>262</ele>
        <time>2022-05-17T13:44:09.528Z</time>
      </trkpt>
      <trkpt lat="49.82117" lon="4.66632">
        <ele>262</ele>
        <time>2022-05-17T13:44:10.582Z</time>
      </trkpt>
      <trkpt lat="49.82117" lon="4.66632">
        <ele>262</ele>
        <time>2022-05-17T13:44:11.552Z</time>
      </trkpt>
      <trkpt lat="49.82114" lon="4.6661">
        <ele>262</ele>
        <time>2022-05-17T13:44:12.530Z</time>
      </trkpt>
      <trkpt lat="49.82114" lon="4.6661">
        <ele>262</ele>
        <time>2022-05-17T13:44:13.545Z</time>
      </trkpt>
      <trkpt lat="49.82112" lon="4.66589">
        <ele>262</ele>
        <time>2022-05-17T13:44:14.610Z</time>
      </trkpt>
      <trkpt lat="49.82112" lon="4.66578">
        <ele>262</ele>
        <time>2022-05-17T13:44:15.541Z</time>
      </trkpt>
      <trkpt lat="49.82112" lon="4.66578">
        <ele>262</ele>
        <time>2022-05-17T13:44:16.562Z</time>
      </trkpt>
      <trkpt lat="49.82109" lon="4.66556">
        <ele>262</ele>
        <time>2022-05-17T13:44:17.539Z</time>
      </trkpt>
      <trkpt lat="49.82108" lon="4.66545">
        <ele>262</ele>
        <time>2022-05-17T13:44:18.530Z</time>
      </trkpt>
      <trkpt lat="49.82108" lon="4.66545">
        <ele>262</ele>
        <time>2022-05-17T13:44:19.537Z</time>
      </trkpt>
      <trkpt lat="49.82105" lon="4.66524">
        <ele>262</ele>
        <time>2022-05-17T13:44:20.541Z</time>
      </trkpt>
      <trkpt lat="49.82105" lon="4.66524">
        <ele>262</ele>
        <time>2022-05-17T13:44:21.561Z</time>
      </trkpt>
      <trkpt lat="49.82102" lon="4.66504">
        <ele>262</ele>
        <time>2022-05-17T13:44:22.558Z</time>
      </trkpt>
      <trkpt lat="49.82102" lon="4.66504">
        <ele>262</ele>
        <time>2022-05-17T13:44:23.524Z</time>
      </trkpt>
      <trkpt lat="49.82098" lon="4.66484">
        <ele>263</ele>
        <time>2022-05-17T13:44:24.557Z</time>
      </trkpt>
      <trkpt lat="49.82098" lon="4.66484">
        <ele>263</ele>
        <time>2022-05-17T13:44:25.526Z</time>
      </trkpt>
      <trkpt lat="49.82096" lon="4.66462">
        <ele>263</ele>
        <time>2022-05-17T13:44:26.531Z</time>
      </trkpt>
      <trkpt lat="49.82096" lon="4.66462">
        <ele>263</ele>
        <time>2022-05-17T13:44:27.542Z</time>
      </trkpt>
      <trkpt lat="49.82094" lon="4.66441">
        <ele>263</ele>
        <time>2022-05-17T13:44:28.539Z</time>
      </trkpt>
      <trkpt lat="49.82094" lon="4.66441">
        <ele>263</ele>
        <time>2022-05-17T13:44:29.533Z</time>
      </trkpt>
      <trkpt lat="49.82092" lon="4.6642">
        <ele>263</ele>
        <time>2022-05-17T13:44:30.526Z</time>
      </trkpt>
      <trkpt lat="49.8209" lon="4.6641">
        <ele>263</ele>
        <time>2022-05-17T13:44:31.559Z</time>
      </trkpt>
      <trkpt lat="49.8209" lon="4.6641">
        <ele>263</ele>
        <time>2022-05-17T13:44:32.531Z</time>
      </trkpt>
      <trkpt lat="49.82087" lon="4.66389">
        <ele>263</ele>
        <time>2022-05-17T13:44:33.528Z</time>
      </trkpt>
      <trkpt lat="49.82086" lon="4.66378">
        <ele>263</ele>
        <time>2022-05-17T13:44:34.532Z</time>
      </trkpt>
      <trkpt lat="49.82086" lon="4.66378">
        <ele>263</ele>
        <time>2022-05-17T13:44:35.540Z</time>
      </trkpt>
      <trkpt lat="49.82083" lon="4.66355">
        <ele>263</ele>
        <time>2022-05-17T13:44:36.534Z</time>
      </trkpt>
      <trkpt lat="49.82083" lon="4.66355">
        <ele>263</ele>
        <time>2022-05-17T13:44:37.542Z</time>
      </trkpt>
      <trkpt lat="49.8208" lon="4.66332">
        <ele>263</ele>
        <time>2022-05-17T13:44:38.529Z</time>
      </trkpt>
      <trkpt lat="49.8208" lon="4.66332">
        <ele>263</ele>
        <time>2022-05-17T13:44:39.545Z</time>
      </trkpt>
      <trkpt lat="49.82078" lon="4.66308">
        <ele>262</ele>
        <time>2022-05-17T13:44:40.553Z</time>
      </trkpt>
      <trkpt lat="49.82078" lon="4.66308">
        <ele>262</ele>
        <time>2022-05-17T13:44:41.562Z</time>
      </trkpt>
      <trkpt lat="49.82076" lon="4.66283">
        <ele>263</ele>
        <time>2022-05-17T13:44:42.548Z</time>
      </trkpt>
      <trkpt lat="49.82076" lon="4.66283">
        <ele>263</ele>
        <time>2022-05-17T13:44:43.556Z</time>
      </trkpt>
      <trkpt lat="49.82077" lon="4.66258">
        <ele>263</ele>
        <time>2022-05-17T13:44:44.530Z</time>
      </trkpt>
      <trkpt lat="49.82077" lon="4.66258">
        <ele>263</ele>
        <time>2022-05-17T13:44:45.536Z</time>
      </trkpt>
      <trkpt lat="49.82079" lon="4.66235">
        <ele>264</ele>
        <time>2022-05-17T13:44:46.562Z</time>
      </trkpt>
      <trkpt lat="49.82079" lon="4.66235">
        <ele>264</ele>
        <time>2022-05-17T13:44:47.537Z</time>
      </trkpt>
      <trkpt lat="49.82083" lon="4.6621">
        <ele>264</ele>
        <time>2022-05-17T13:44:48.527Z</time>
      </trkpt>
      <trkpt lat="49.82085" lon="4.66197">
        <ele>264</ele>
        <time>2022-05-17T13:44:49.539Z</time>
      </trkpt>
      <trkpt lat="49.82085" lon="4.66197">
        <ele>264</ele>
        <time>2022-05-17T13:44:50.548Z</time>
      </trkpt>
      <trkpt lat="49.82089" lon="4.66173">
        <ele>263</ele>
        <time>2022-05-17T13:44:51.525Z</time>
      </trkpt>
      <trkpt lat="49.82091" lon="4.66161">
        <ele>263</ele>
        <time>2022-05-17T13:44:52.550Z</time>
      </trkpt>
      <trkpt lat="49.82091" lon="4.66161">
        <ele>263</ele>
        <time>2022-05-17T13:44:53.525Z</time>
      </trkpt>
      <trkpt lat="49.82095" lon="4.66137">
        <ele>263</ele>
        <time>2022-05-17T13:44:54.525Z</time>
      </trkpt>
      <trkpt lat="49.82095" lon="4.66137">
        <ele>263</ele>
        <time>2022-05-17T13:44:55.532Z</time>
      </trkpt>
      <trkpt lat="49.821" lon="4.66114">
        <ele>263</ele>
        <time>2022-05-17T13:44:56.526Z</time>
      </trkpt>
      <trkpt lat="49.821" lon="4.66114">
        <ele>263</ele>
        <time>2022-05-17T13:44:57.531Z</time>
      </trkpt>
      <trkpt lat="49.82105" lon="4.66092">
        <ele>262</ele>
        <time>2022-05-17T13:44:58.555Z</time>
      </trkpt>
      <trkpt lat="49.82105" lon="4.66092">
        <ele>262</ele>
        <time>2022-05-17T13:44:59.564Z</time>
      </trkpt>
      <trkpt lat="49.82111" lon="4.66071">
        <ele>263</ele>
        <time>2022-05-17T13:45:00.555Z</time>
      </trkpt>
      <trkpt lat="49.82114" lon="4.66061">
        <ele>263</ele>
        <time>2022-05-17T13:45:01.524Z</time>
      </trkpt>
      <trkpt lat="49.82114" lon="4.66061">
        <ele>263</ele>
        <time>2022-05-17T13:45:02.532Z</time>
      </trkpt>
      <trkpt lat="49.82119" lon="4.66041">
        <ele>263</ele>
        <time>2022-05-17T13:45:03.555Z</time>
      </trkpt>
      <trkpt lat="49.82119" lon="4.66041">
        <ele>263</ele>
        <time>2022-05-17T13:45:04.524Z</time>
      </trkpt>
      <trkpt lat="49.82125" lon="4.6602">
        <ele>263</ele>
        <time>2022-05-17T13:45:05.556Z</time>
      </trkpt>
      <trkpt lat="49.82128" lon="4.6601">
        <ele>263</ele>
        <time>2022-05-17T13:45:06.545Z</time>
      </trkpt>
      <trkpt lat="49.8213" lon="4.66">
        <ele>263</ele>
        <time>2022-05-17T13:45:07.560Z</time>
      </trkpt>
      <trkpt lat="49.8213" lon="4.66">
        <ele>263</ele>
        <time>2022-05-17T13:45:08.526Z</time>
      </trkpt>
      <trkpt lat="49.82136" lon="4.6598">
        <ele>263</ele>
        <time>2022-05-17T13:45:09.554Z</time>
      </trkpt>
      <trkpt lat="49.82136" lon="4.6598">
        <ele>263</ele>
        <time>2022-05-17T13:45:10.561Z</time>
      </trkpt>
      <trkpt lat="49.82142" lon="4.6596">
        <ele>263</ele>
        <time>2022-05-17T13:45:11.550Z</time>
      </trkpt>
      <trkpt lat="49.82142" lon="4.6596">
        <ele>263</ele>
        <time>2022-05-17T13:45:12.557Z</time>
      </trkpt>
      <trkpt lat="49.82147" lon="4.6594">
        <ele>262</ele>
        <time>2022-05-17T13:45:13.539Z</time>
      </trkpt>
      <trkpt lat="49.82147" lon="4.6594">
        <ele>262</ele>
        <time>2022-05-17T13:45:14.548Z</time>
      </trkpt>
      <trkpt lat="49.82153" lon="4.65921">
        <ele>262</ele>
        <time>2022-05-17T13:45:15.552Z</time>
      </trkpt>
      <trkpt lat="49.82153" lon="4.65921">
        <ele>262</ele>
        <time>2022-05-17T13:45:16.559Z</time>
      </trkpt>
      <trkpt lat="49.82158" lon="4.65902">
        <ele>262</ele>
        <time>2022-05-17T13:45:17.545Z</time>
      </trkpt>
      <trkpt lat="49.82161" lon="4.65893">
        <ele>262</ele>
        <time>2022-05-17T13:45:18.534Z</time>
      </trkpt>
      <trkpt lat="49.82161" lon="4.65893">
        <ele>262</ele>
        <time>2022-05-17T13:45:19.540Z</time>
      </trkpt>
      <trkpt lat="49.82166" lon="4.65874">
        <ele>262</ele>
        <time>2022-05-17T13:45:20.524Z</time>
      </trkpt>
      <trkpt lat="49.82169" lon="4.65864">
        <ele>262</ele>
        <time>2022-05-17T13:45:21.525Z</time>
      </trkpt>
      <trkpt lat="49.82171" lon="4.65855">
        <ele>262</ele>
        <time>2022-05-17T13:45:22.561Z</time>
      </trkpt>
      <trkpt lat="49.82171" lon="4.65855">
        <ele>262</ele>
        <time>2022-05-17T13:45:23.528Z</time>
      </trkpt>
      <trkpt lat="49.82176" lon="4.65836">
        <ele>262</ele>
        <time>2022-05-17T13:45:24.535Z</time>
      </trkpt>
      <trkpt lat="49.82179" lon="4.65827">
        <ele>262</ele>
        <time>2022-05-17T13:45:25.557Z</time>
      </trkpt>
      <trkpt lat="49.82179" lon="4.65827">
        <ele>262</ele>
        <time>2022-05-17T13:45:26.526Z</time>
      </trkpt>
      <trkpt lat="49.82184" lon="4.65808">
        <ele>262</ele>
        <time>2022-05-17T13:45:27.525Z</time>
      </trkpt>
      <trkpt lat="49.82184" lon="4.65808">
        <ele>262</ele>
        <time>2022-05-17T13:45:28.530Z</time>
      </trkpt>
      <trkpt lat="49.82189" lon="4.65789">
        <ele>262</ele>
        <time>2022-05-17T13:45:29.559Z</time>
      </trkpt>
      <trkpt lat="49.82192" lon="4.6578">
        <ele>262</ele>
        <time>2022-05-17T13:45:30.563Z</time>
      </trkpt>
      <trkpt lat="49.82194" lon="4.65771">
        <ele>261</ele>
        <time>2022-05-17T13:45:31.561Z</time>
      </trkpt>
      <trkpt lat="49.82194" lon="4.65771">
        <ele>261</ele>
        <time>2022-05-17T13:45:32.527Z</time>
      </trkpt>
      <trkpt lat="49.822" lon="4.65753">
        <ele>261</ele>
        <time>2022-05-17T13:45:33.563Z</time>
      </trkpt>
      <trkpt lat="49.822" lon="4.65753">
        <ele>261</ele>
        <time>2022-05-17T13:45:34.528Z</time>
      </trkpt>
      <trkpt lat="49.82205" lon="4.65734">
        <ele>261</ele>
        <time>2022-05-17T13:45:35.525Z</time>
      </trkpt>
      <trkpt lat="49.82205" lon="4.65734">
        <ele>261</ele>
        <time>2022-05-17T13:45:36.535Z</time>
      </trkpt>
      <trkpt lat="49.8221" lon="4.65715">
        <ele>261</ele>
        <time>2022-05-17T13:45:37.558Z</time>
      </trkpt>
      <trkpt lat="49.8221" lon="4.65715">
        <ele>261</ele>
        <time>2022-05-17T13:45:38.524Z</time>
      </trkpt>
      <trkpt lat="49.82215" lon="4.65697">
        <ele>260</ele>
        <time>2022-05-17T13:45:39.534Z</time>
      </trkpt>
      <trkpt lat="49.82215" lon="4.65697">
        <ele>260</ele>
        <time>2022-05-17T13:45:40.551Z</time>
      </trkpt>
      <trkpt lat="49.8222" lon="4.65678">
        <ele>260</ele>
        <time>2022-05-17T13:45:41.545Z</time>
      </trkpt>
      <trkpt lat="49.82223" lon="4.65668">
        <ele>260</ele>
        <time>2022-05-17T13:45:42.534Z</time>
      </trkpt>
      <trkpt lat="49.82226" lon="4.65658">
        <ele>260</ele>
        <time>2022-05-17T13:45:43.524Z</time>
      </trkpt>
      <trkpt lat="49.82226" lon="4.65658">
        <ele>260</ele>
        <time>2022-05-17T13:45:44.529Z</time>
      </trkpt>
      <trkpt lat="49.82231" lon="4.65639">
        <ele>259</ele>
        <time>2022-05-17T13:45:45.525Z</time>
      </trkpt>
      <trkpt lat="49.82233" lon="4.6563">
        <ele>259</ele>
        <time>2022-05-17T13:45:46.525Z</time>
      </trkpt>
      <trkpt lat="49.82233" lon="4.6563">
        <ele>259</ele>
        <time>2022-05-17T13:45:47.531Z</time>
      </trkpt>
      <trkpt lat="49.82239" lon="4.65611">
        <ele>258</ele>
        <time>2022-05-17T13:45:48.528Z</time>
      </trkpt>
      <trkpt lat="49.82242" lon="4.65601">
        <ele>258</ele>
        <time>2022-05-17T13:45:49.559Z</time>
      </trkpt>
      <trkpt lat="49.82242" lon="4.65601">
        <ele>258</ele>
        <time>2022-05-17T13:45:50.524Z</time>
      </trkpt>
      <trkpt lat="49.82249" lon="4.65581">
        <ele>257</ele>
        <time>2022-05-17T13:45:51.549Z</time>
      </trkpt>
      <trkpt lat="49.82254" lon="4.65571">
        <ele>256</ele>
        <time>2022-05-17T13:45:52.528Z</time>
      </trkpt>
      <trkpt lat="49.82254" lon="4.65571">
        <ele>256</ele>
        <time>2022-05-17T13:45:53.535Z</time>
      </trkpt>
      <trkpt lat="49.82264" lon="4.65551">
        <ele>255</ele>
        <time>2022-05-17T13:45:54.555Z</time>
      </trkpt>
      <trkpt lat="49.82264" lon="4.65551">
        <ele>255</ele>
        <time>2022-05-17T13:45:55.561Z</time>
      </trkpt>
      <trkpt lat="49.82275" lon="4.65532">
        <ele>254</ele>
        <time>2022-05-17T13:45:56.551Z</time>
      </trkpt>
      <trkpt lat="49.82281" lon="4.65522">
        <ele>254</ele>
        <time>2022-05-17T13:45:57.548Z</time>
      </trkpt>
      <trkpt lat="49.82281" lon="4.65522">
        <ele>254</ele>
        <time>2022-05-17T13:45:58.559Z</time>
      </trkpt>
      <trkpt lat="49.82292" lon="4.65503">
        <ele>253</ele>
        <time>2022-05-17T13:45:59.552Z</time>
      </trkpt>
      <trkpt lat="49.82292" lon="4.65503">
        <ele>253</ele>
        <time>2022-05-17T13:46:00.535Z</time>
      </trkpt>
      <trkpt lat="49.82304" lon="4.65485">
        <ele>253</ele>
        <time>2022-05-17T13:46:01.535Z</time>
      </trkpt>
      <trkpt lat="49.8231" lon="4.65476">
        <ele>252</ele>
        <time>2022-05-17T13:46:02.525Z</time>
      </trkpt>
      <trkpt lat="49.8231" lon="4.65476">
        <ele>252</ele>
        <time>2022-05-17T13:46:03.530Z</time>
      </trkpt>
      <trkpt lat="49.82322" lon="4.65458">
        <ele>251</ele>
        <time>2022-05-17T13:46:04.537Z</time>
      </trkpt>
      <trkpt lat="49.82328" lon="4.65448">
        <ele>251</ele>
        <time>2022-05-17T13:46:05.524Z</time>
      </trkpt>
      <trkpt lat="49.82328" lon="4.65448">
        <ele>251</ele>
        <time>2022-05-17T13:46:06.530Z</time>
      </trkpt>
      <trkpt lat="49.82341" lon="4.65427">
        <ele>249</ele>
        <time>2022-05-17T13:46:07.538Z</time>
      </trkpt>
      <trkpt lat="49.82341" lon="4.65427">
        <ele>249</ele>
        <time>2022-05-17T13:46:08.546Z</time>
      </trkpt>
      <trkpt lat="49.82352" lon="4.65406">
        <ele>248</ele>
        <time>2022-05-17T13:46:09.563Z</time>
      </trkpt>
      <trkpt lat="49.82352" lon="4.65406">
        <ele>248</ele>
        <time>2022-05-17T13:46:10.538Z</time>
      </trkpt>
      <trkpt lat="49.82364" lon="4.65392">
        <ele>247</ele>
        <time>2022-05-17T13:46:11.525Z</time>
      </trkpt>
      <trkpt lat="49.82364" lon="4.65392">
        <ele>247</ele>
        <time>2022-05-17T13:46:12.530Z</time>
      </trkpt>
      <trkpt lat="49.82378" lon="4.65387">
        <ele>247</ele>
        <time>2022-05-17T13:46:13.550Z</time>
      </trkpt>
      <trkpt lat="49.82378" lon="4.65387">
        <ele>247</ele>
        <time>2022-05-17T13:46:14.556Z</time>
      </trkpt>
      <trkpt lat="49.82391" lon="4.65391">
        <ele>246</ele>
        <time>2022-05-17T13:46:15.549Z</time>
      </trkpt>
      <trkpt lat="49.82391" lon="4.65391">
        <ele>246</ele>
        <time>2022-05-17T13:46:16.556Z</time>
      </trkpt>
      <trkpt lat="49.82403" lon="4.65395">
        <ele>246</ele>
        <time>2022-05-17T13:46:17.546Z</time>
      </trkpt>
      <trkpt lat="49.82403" lon="4.65395">
        <ele>246</ele>
        <time>2022-05-17T13:46:18.552Z</time>
      </trkpt>
      <trkpt lat="49.82413" lon="4.654">
        <ele>245</ele>
        <time>2022-05-17T13:46:19.561Z</time>
      </trkpt>
      <trkpt lat="49.82413" lon="4.654">
        <ele>245</ele>
        <time>2022-05-17T13:46:20.527Z</time>
      </trkpt>
      <trkpt lat="49.82422" lon="4.65403">
        <ele>245</ele>
        <time>2022-05-17T13:46:21.554Z</time>
      </trkpt>
      <trkpt lat="49.82422" lon="4.65403">
        <ele>245</ele>
        <time>2022-05-17T13:46:22.524Z</time>
      </trkpt>
      <trkpt lat="49.82429" lon="4.65403">
        <ele>246</ele>
        <time>2022-05-17T13:46:23.537Z</time>
      </trkpt>
      <trkpt lat="49.82432" lon="4.654">
        <ele>246</ele>
        <time>2022-05-17T13:46:24.536Z</time>
      </trkpt>
      <trkpt lat="49.82432" lon="4.654">
        <ele>246</ele>
        <time>2022-05-17T13:46:25.541Z</time>
      </trkpt>
      <trkpt lat="49.82439" lon="4.65391">
        <ele>246</ele>
        <time>2022-05-17T13:46:26.529Z</time>
      </trkpt>
      <trkpt lat="49.82439" lon="4.65391">
        <ele>246</ele>
        <time>2022-05-17T13:46:27.534Z</time>
      </trkpt>
      <trkpt lat="49.82444" lon="4.65377">
        <ele>246</ele>
        <time>2022-05-17T13:46:28.560Z</time>
      </trkpt>
      <trkpt lat="49.82446" lon="4.6537">
        <ele>246</ele>
        <time>2022-05-17T13:46:29.527Z</time>
      </trkpt>
      <trkpt lat="49.82446" lon="4.6537">
        <ele>246</ele>
        <time>2022-05-17T13:46:30.532Z</time>
      </trkpt>
      <trkpt lat="49.82449" lon="4.65356">
        <ele>246</ele>
        <time>2022-05-17T13:46:31.531Z</time>
      </trkpt>
      <trkpt lat="49.82449" lon="4.65356">
        <ele>246</ele>
        <time>2022-05-17T13:46:32.536Z</time>
      </trkpt>
      <trkpt lat="49.82452" lon="4.6534">
        <ele>246</ele>
        <time>2022-05-17T13:46:33.547Z</time>
      </trkpt>
      <trkpt lat="49.82453" lon="4.65332">
        <ele>246</ele>
        <time>2022-05-17T13:46:34.555Z</time>
      </trkpt>
      <trkpt lat="49.82453" lon="4.65332">
        <ele>246</ele>
        <time>2022-05-17T13:46:35.563Z</time>
      </trkpt>
      <trkpt lat="49.82455" lon="4.65315">
        <ele>246</ele>
        <time>2022-05-17T13:46:36.540Z</time>
      </trkpt>
      <trkpt lat="49.82457" lon="4.65307">
        <ele>245</ele>
        <time>2022-05-17T13:46:37.552Z</time>
      </trkpt>
      <trkpt lat="49.82457" lon="4.65307">
        <ele>245</ele>
        <time>2022-05-17T13:46:38.561Z</time>
      </trkpt>
      <trkpt lat="49.82459" lon="4.6529">
        <ele>244</ele>
        <time>2022-05-17T13:46:39.555Z</time>
      </trkpt>
      <trkpt lat="49.82461" lon="4.6528">
        <ele>244</ele>
        <time>2022-05-17T13:46:40.529Z</time>
      </trkpt>
      <trkpt lat="49.82461" lon="4.6528">
        <ele>244</ele>
        <time>2022-05-17T13:46:41.534Z</time>
      </trkpt>
      <trkpt lat="49.82464" lon="4.65261">
        <ele>244</ele>
        <time>2022-05-17T13:46:42.526Z</time>
      </trkpt>
      <trkpt lat="49.82465" lon="4.65251">
        <ele>244</ele>
        <time>2022-05-17T13:46:43.536Z</time>
      </trkpt>
      <trkpt lat="49.82465" lon="4.65251">
        <ele>244</ele>
        <time>2022-05-17T13:46:44.542Z</time>
      </trkpt>
      <trkpt lat="49.82468" lon="4.65232">
        <ele>244</ele>
        <time>2022-05-17T13:46:45.552Z</time>
      </trkpt>
      <trkpt lat="49.8247" lon="4.65222">
        <ele>243</ele>
        <time>2022-05-17T13:46:46.562Z</time>
      </trkpt>
      <trkpt lat="49.8247" lon="4.65222">
        <ele>243</ele>
        <time>2022-05-17T13:46:47.530Z</time>
      </trkpt>
      <trkpt lat="49.82474" lon="4.65204">
        <ele>243</ele>
        <time>2022-05-17T13:46:48.557Z</time>
      </trkpt>
      <trkpt lat="49.8248" lon="4.65196">
        <ele>244</ele>
        <time>2022-05-17T13:46:49.545Z</time>
      </trkpt>
      <trkpt lat="49.8248" lon="4.65196">
        <ele>244</ele>
        <time>2022-05-17T13:46:50.561Z</time>
      </trkpt>
      <trkpt lat="49.82488" lon="4.65185">
        <ele>244</ele>
        <time>2022-05-17T13:46:51.554Z</time>
      </trkpt>
      <trkpt lat="49.82493" lon="4.65179">
        <ele>244</ele>
        <time>2022-05-17T13:46:52.557Z</time>
      </trkpt>
      <trkpt lat="49.82493" lon="4.65179">
        <ele>244</ele>
        <time>2022-05-17T13:46:53.524Z</time>
      </trkpt>
      <trkpt lat="49.825" lon="4.6517">
        <ele>245</ele>
        <time>2022-05-17T13:46:54.550Z</time>
      </trkpt>
      <trkpt lat="49.825" lon="4.6517">
        <ele>245</ele>
        <time>2022-05-17T13:46:55.555Z</time>
      </trkpt>
      <trkpt lat="49.82508" lon="4.65161">
        <ele>245</ele>
        <time>2022-05-17T13:46:56.550Z</time>
      </trkpt>
      <trkpt lat="49.82508" lon="4.65161">
        <ele>245</ele>
        <time>2022-05-17T13:46:57.559Z</time>
      </trkpt>
      <trkpt lat="49.82516" lon="4.65149">
        <ele>244</ele>
        <time>2022-05-17T13:46:58.555Z</time>
      </trkpt>
      <trkpt lat="49.8252" lon="4.65142">
        <ele>244</ele>
        <time>2022-05-17T13:46:59.545Z</time>
      </trkpt>
      <trkpt lat="49.82525" lon="4.65137">
        <ele>244</ele>
        <time>2022-05-17T13:47:00.547Z</time>
      </trkpt>
      <trkpt lat="49.82525" lon="4.65137">
        <ele>244</ele>
        <time>2022-05-17T13:47:01.552Z</time>
      </trkpt>
      <trkpt lat="49.82535" lon="4.65127">
        <ele>244</ele>
        <time>2022-05-17T13:47:02.545Z</time>
      </trkpt>
      <trkpt lat="49.82535" lon="4.65127">
        <ele>244</ele>
        <time>2022-05-17T13:47:03.553Z</time>
      </trkpt>
      <trkpt lat="49.82545" lon="4.65121">
        <ele>244</ele>
        <time>2022-05-17T13:47:04.553Z</time>
      </trkpt>
      <trkpt lat="49.82545" lon="4.65121">
        <ele>244</ele>
        <time>2022-05-17T13:47:05.562Z</time>
      </trkpt>
      <trkpt lat="49.82555" lon="4.65119">
        <ele>244</ele>
        <time>2022-05-17T13:47:06.548Z</time>
      </trkpt>
      <trkpt lat="49.8256" lon="4.65118">
        <ele>244</ele>
        <time>2022-05-17T13:47:07.544Z</time>
      </trkpt>
      <trkpt lat="49.8256" lon="4.65118">
        <ele>244</ele>
        <time>2022-05-17T13:47:08.549Z</time>
      </trkpt>
      <trkpt lat="49.82569" lon="4.65116">
        <ele>244</ele>
        <time>2022-05-17T13:47:09.545Z</time>
      </trkpt>
      <trkpt lat="49.82569" lon="4.65116">
        <ele>244</ele>
        <time>2022-05-17T13:47:10.564Z</time>
      </trkpt>
      <trkpt lat="49.82579" lon="4.65114">
        <ele>245</ele>
        <time>2022-05-17T13:47:11.555Z</time>
      </trkpt>
      <trkpt lat="49.82584" lon="4.65114">
        <ele>245</ele>
        <time>2022-05-17T13:47:12.549Z</time>
      </trkpt>
      <trkpt lat="49.82584" lon="4.65114">
        <ele>245</ele>
        <time>2022-05-17T13:47:13.525Z</time>
      </trkpt>
      <trkpt lat="49.82595" lon="4.65113">
        <ele>245</ele>
        <time>2022-05-17T13:47:14.550Z</time>
      </trkpt>
      <trkpt lat="49.82595" lon="4.65113">
        <ele>245</ele>
        <time>2022-05-17T13:47:15.563Z</time>
      </trkpt>
      <trkpt lat="49.82604" lon="4.65113">
        <ele>248</ele>
        <time>2022-05-17T13:47:16.525Z</time>
      </trkpt>
      <trkpt lat="49.82604" lon="4.65113">
        <ele>248</ele>
        <time>2022-05-17T13:47:17.531Z</time>
      </trkpt>
      <trkpt lat="49.82614" lon="4.65116">
        <ele>249</ele>
        <time>2022-05-17T13:47:18.555Z</time>
      </trkpt>
      <trkpt lat="49.82619" lon="4.65119">
        <ele>250</ele>
        <time>2022-05-17T13:47:19.555Z</time>
      </trkpt>
      <trkpt lat="49.82619" lon="4.65119">
        <ele>250</ele>
        <time>2022-05-17T13:47:20.531Z</time>
      </trkpt>
      <trkpt lat="49.82627" lon="4.65126">
        <ele>251</ele>
        <time>2022-05-17T13:47:21.554Z</time>
      </trkpt>
      <trkpt lat="49.82631" lon="4.6513">
        <ele>252</ele>
        <time>2022-05-17T13:47:22.536Z</time>
      </trkpt>
      <trkpt lat="49.82635" lon="4.65133">
        <ele>252</ele>
        <time>2022-05-17T13:47:23.540Z</time>
      </trkpt>
      <trkpt lat="49.82635" lon="4.65133">
        <ele>252</ele>
        <time>2022-05-17T13:47:24.545Z</time>
      </trkpt>
      <trkpt lat="49.82644" lon="4.65141">
        <ele>253</ele>
        <time>2022-05-17T13:47:25.541Z</time>
      </trkpt>
      <trkpt lat="49.82644" lon="4.65141">
        <ele>253</ele>
        <time>2022-05-17T13:47:26.546Z</time>
      </trkpt>
      <trkpt lat="49.82653" lon="4.65149">
        <ele>253</ele>
        <time>2022-05-17T13:47:27.540Z</time>
      </trkpt>
      <trkpt lat="49.82657" lon="4.65152">
        <ele>252</ele>
        <time>2022-05-17T13:47:28.532Z</time>
      </trkpt>
      <trkpt lat="49.82657" lon="4.65152">
        <ele>252</ele>
        <time>2022-05-17T13:47:29.540Z</time>
      </trkpt>
      <trkpt lat="49.82665" lon="4.6516">
        <ele>252</ele>
        <time>2022-05-17T13:47:30.526Z</time>
      </trkpt>
      <trkpt lat="49.82669" lon="4.65163">
        <ele>252</ele>
        <time>2022-05-17T13:47:31.559Z</time>
      </trkpt>
      <trkpt lat="49.82669" lon="4.65163">
        <ele>252</ele>
        <time>2022-05-17T13:47:32.524Z</time>
      </trkpt>
      <trkpt lat="49.82677" lon="4.6517">
        <ele>253</ele>
        <time>2022-05-17T13:47:33.524Z</time>
      </trkpt>
      <trkpt lat="49.8268" lon="4.65173">
        <ele>252</ele>
        <time>2022-05-17T13:47:34.528Z</time>
      </trkpt>
      <trkpt lat="49.82684" lon="4.65177">
        <ele>252</ele>
        <time>2022-05-17T13:47:35.562Z</time>
      </trkpt>
      <trkpt lat="49.82688" lon="4.65181">
        <ele>252</ele>
        <time>2022-05-17T13:47:36.549Z</time>
      </trkpt>
      <trkpt lat="49.82688" lon="4.65181">
        <ele>252</ele>
        <time>2022-05-17T13:47:37.524Z</time>
      </trkpt>
      <trkpt lat="49.82695" lon="4.65188">
        <ele>252</ele>
        <time>2022-05-17T13:47:38.556Z</time>
      </trkpt>
      <trkpt lat="49.827" lon="4.65191">
        <ele>252</ele>
        <time>2022-05-17T13:47:39.547Z</time>
      </trkpt>
      <trkpt lat="49.827" lon="4.65191">
        <ele>252</ele>
        <time>2022-05-17T13:47:40.562Z</time>
      </trkpt>
      <trkpt lat="49.82708" lon="4.65198">
        <ele>252</ele>
        <time>2022-05-17T13:47:41.542Z</time>
      </trkpt>
      <trkpt lat="49.82712" lon="4.65202">
        <ele>252</ele>
        <time>2022-05-17T13:47:42.563Z</time>
      </trkpt>
      <trkpt lat="49.82716" lon="4.65205">
        <ele>252</ele>
        <time>2022-05-17T13:47:43.555Z</time>
      </trkpt>
      <trkpt lat="49.82716" lon="4.65205">
        <ele>252</ele>
        <time>2022-05-17T13:47:44.562Z</time>
      </trkpt>
      <trkpt lat="49.82725" lon="4.65213">
        <ele>251</ele>
        <time>2022-05-17T13:47:45.557Z</time>
      </trkpt>
      <trkpt lat="49.82729" lon="4.65217">
        <ele>251</ele>
        <time>2022-05-17T13:47:46.542Z</time>
      </trkpt>
      <trkpt lat="49.82733" lon="4.65221">
        <ele>251</ele>
        <time>2022-05-17T13:47:47.534Z</time>
      </trkpt>
      <trkpt lat="49.82738" lon="4.65225">
        <ele>251</ele>
        <time>2022-05-17T13:47:48.532Z</time>
      </trkpt>
      <trkpt lat="49.82742" lon="4.65229">
        <ele>251</ele>
        <time>2022-05-17T13:47:49.530Z</time>
      </trkpt>
      <trkpt lat="49.82742" lon="4.65229">
        <ele>251</ele>
        <time>2022-05-17T13:47:50.544Z</time>
      </trkpt>
      <trkpt lat="49.82751" lon="4.65237">
        <ele>251</ele>
        <time>2022-05-17T13:47:51.546Z</time>
      </trkpt>
      <trkpt lat="49.82751" lon="4.65237">
        <ele>251</ele>
        <time>2022-05-17T13:47:52.562Z</time>
      </trkpt>
      <trkpt lat="49.82759" lon="4.65245">
        <ele>251</ele>
        <time>2022-05-17T13:47:53.552Z</time>
      </trkpt>
      <trkpt lat="49.82763" lon="4.65248">
        <ele>251</ele>
        <time>2022-05-17T13:47:54.539Z</time>
      </trkpt>
      <trkpt lat="49.82767" lon="4.65252">
        <ele>251</ele>
        <time>2022-05-17T13:47:55.524Z</time>
      </trkpt>
      <trkpt lat="49.82767" lon="4.65252">
        <ele>251</ele>
        <time>2022-05-17T13:47:56.561Z</time>
      </trkpt>
      <trkpt lat="49.82775" lon="4.65259">
        <ele>251</ele>
        <time>2022-05-17T13:47:57.549Z</time>
      </trkpt>
      <trkpt lat="49.82779" lon="4.65264">
        <ele>250</ele>
        <time>2022-05-17T13:47:58.544Z</time>
      </trkpt>
      <trkpt lat="49.82779" lon="4.65264">
        <ele>250</ele>
        <time>2022-05-17T13:47:59.552Z</time>
      </trkpt>
      <trkpt lat="49.82788" lon="4.65272">
        <ele>250</ele>
        <time>2022-05-17T13:48:00.541Z</time>
      </trkpt>
      <trkpt lat="49.82793" lon="4.65277">
        <ele>250</ele>
        <time>2022-05-17T13:48:01.558Z</time>
      </trkpt>
      <trkpt lat="49.82793" lon="4.65277">
        <ele>250</ele>
        <time>2022-05-17T13:48:02.563Z</time>
      </trkpt>
      <trkpt lat="49.82802" lon="4.65284">
        <ele>250</ele>
        <time>2022-05-17T13:48:03.558Z</time>
      </trkpt>
      <trkpt lat="49.82807" lon="4.65288">
        <ele>250</ele>
        <time>2022-05-17T13:48:04.550Z</time>
      </trkpt>
      <trkpt lat="49.82807" lon="4.65288">
        <ele>250</ele>
        <time>2022-05-17T13:48:05.560Z</time>
      </trkpt>
      <trkpt lat="49.82815" lon="4.65297">
        <ele>250</ele>
        <time>2022-05-17T13:48:06.542Z</time>
      </trkpt>
      <trkpt lat="49.82819" lon="4.653">
        <ele>250</ele>
        <time>2022-05-17T13:48:07.536Z</time>
      </trkpt>
      <trkpt lat="49.82819" lon="4.653">
        <ele>250</ele>
        <time>2022-05-17T13:48:08.542Z</time>
      </trkpt>
      <trkpt lat="49.82827" lon="4.65307">
        <ele>250</ele>
        <time>2022-05-17T13:48:09.541Z</time>
      </trkpt>
      <trkpt lat="49.82827" lon="4.65307">
        <ele>250</ele>
        <time>2022-05-17T13:48:10.546Z</time>
      </trkpt>
      <trkpt lat="49.82835" lon="4.65313">
        <ele>250</ele>
        <time>2022-05-17T13:48:11.525Z</time>
      </trkpt>
      <trkpt lat="49.82835" lon="4.65313">
        <ele>250</ele>
        <time>2022-05-17T13:48:12.530Z</time>
      </trkpt>
      <trkpt lat="49.82842" lon="4.65319">
        <ele>250</ele>
        <time>2022-05-17T13:48:13.561Z</time>
      </trkpt>
      <trkpt lat="49.82842" lon="4.65319">
        <ele>250</ele>
        <time>2022-05-17T13:48:14.527Z</time>
      </trkpt>
      <trkpt lat="49.82849" lon="4.65326">
        <ele>249</ele>
        <time>2022-05-17T13:48:15.548Z</time>
      </trkpt>
      <trkpt lat="49.82849" lon="4.65326">
        <ele>249</ele>
        <time>2022-05-17T13:48:16.554Z</time>
      </trkpt>
      <trkpt lat="49.82858" lon="4.65333">
        <ele>249</ele>
        <time>2022-05-17T13:48:17.542Z</time>
      </trkpt>
      <trkpt lat="49.82862" lon="4.65337">
        <ele>248</ele>
        <time>2022-05-17T13:48:18.550Z</time>
      </trkpt>
      <trkpt lat="49.82867" lon="4.65342">
        <ele>248</ele>
        <time>2022-05-17T13:48:19.539Z</time>
      </trkpt>
      <trkpt lat="49.82867" lon="4.65342">
        <ele>248</ele>
        <time>2022-05-17T13:48:20.524Z</time>
      </trkpt>
      <trkpt lat="49.82877" lon="4.65352">
        <ele>247</ele>
        <time>2022-05-17T13:48:21.548Z</time>
      </trkpt>
      <trkpt lat="49.82882" lon="4.65356">
        <ele>247</ele>
        <time>2022-05-17T13:48:22.540Z</time>
      </trkpt>
      <trkpt lat="49.82888" lon="4.65361">
        <ele>246</ele>
        <time>2022-05-17T13:48:23.546Z</time>
      </trkpt>
      <trkpt lat="49.82888" lon="4.65361">
        <ele>246</ele>
        <time>2022-05-17T13:48:24.551Z</time>
      </trkpt>
      <trkpt lat="49.829" lon="4.65371">
        <ele>245</ele>
        <time>2022-05-17T13:48:25.543Z</time>
      </trkpt>
      <trkpt lat="49.829" lon="4.65371">
        <ele>245</ele>
        <time>2022-05-17T13:48:26.548Z</time>
      </trkpt>
      <trkpt lat="49.82912" lon="4.65383">
        <ele>244</ele>
        <time>2022-05-17T13:48:27.535Z</time>
      </trkpt>
      <trkpt lat="49.82912" lon="4.65383">
        <ele>244</ele>
        <time>2022-05-17T13:48:28.540Z</time>
      </trkpt>
      <trkpt lat="49.82924" lon="4.65393">
        <ele>242</ele>
        <time>2022-05-17T13:48:29.545Z</time>
      </trkpt>
      <trkpt lat="49.82924" lon="4.65393">
        <ele>242</ele>
        <time>2022-05-17T13:48:30.559Z</time>
      </trkpt>
      <trkpt lat="49.82935" lon="4.65401">
        <ele>241</ele>
        <time>2022-05-17T13:48:31.555Z</time>
      </trkpt>
      <trkpt lat="49.82935" lon="4.65401">
        <ele>241</ele>
        <time>2022-05-17T13:48:32.560Z</time>
      </trkpt>
      <trkpt lat="49.82945" lon="4.65403">
        <ele>240</ele>
        <time>2022-05-17T13:48:33.543Z</time>
      </trkpt>
      <trkpt lat="49.8295" lon="4.65403">
        <ele>240</ele>
        <time>2022-05-17T13:48:34.536Z</time>
      </trkpt>
      <trkpt lat="49.82955" lon="4.65402">
        <ele>240</ele>
        <time>2022-05-17T13:48:35.537Z</time>
      </trkpt>
      <trkpt lat="49.8296" lon="4.654">
        <ele>240</ele>
        <time>2022-05-17T13:48:36.545Z</time>
      </trkpt>
      <trkpt lat="49.8296" lon="4.654">
        <ele>240</ele>
        <time>2022-05-17T13:48:37.550Z</time>
      </trkpt>
      <trkpt lat="49.82972" lon="4.65396">
        <ele>239</ele>
        <time>2022-05-17T13:48:38.524Z</time>
      </trkpt>
      <trkpt lat="49.82972" lon="4.65396">
        <ele>239</ele>
        <time>2022-05-17T13:48:39.529Z</time>
      </trkpt>
      <trkpt lat="49.82984" lon="4.65393">
        <ele>238</ele>
        <time>2022-05-17T13:48:40.551Z</time>
      </trkpt>
      <trkpt lat="49.8299" lon="4.65391">
        <ele>238</ele>
        <time>2022-05-17T13:48:41.562Z</time>
      </trkpt>
      <trkpt lat="49.82996" lon="4.65387">
        <ele>237</ele>
        <time>2022-05-17T13:48:42.546Z</time>
      </trkpt>
      <trkpt lat="49.83002" lon="4.65384">
        <ele>237</ele>
        <time>2022-05-17T13:48:43.562Z</time>
      </trkpt>
      <trkpt lat="49.83002" lon="4.65384">
        <ele>237</ele>
        <time>2022-05-17T13:48:44.527Z</time>
      </trkpt>
      <trkpt lat="49.83013" lon="4.65375">
        <ele>236</ele>
        <time>2022-05-17T13:48:45.546Z</time>
      </trkpt>
      <trkpt lat="49.83013" lon="4.65375">
        <ele>236</ele>
        <time>2022-05-17T13:48:46.551Z</time>
      </trkpt>
      <trkpt lat="49.83025" lon="4.65365">
        <ele>236</ele>
        <time>2022-05-17T13:48:47.550Z</time>
      </trkpt>
      <trkpt lat="49.8303" lon="4.65362">
        <ele>236</ele>
        <time>2022-05-17T13:48:48.547Z</time>
      </trkpt>
      <trkpt lat="49.83036" lon="4.6536">
        <ele>235</ele>
        <time>2022-05-17T13:48:49.544Z</time>
      </trkpt>
      <trkpt lat="49.83036" lon="4.6536">
        <ele>235</ele>
        <time>2022-05-17T13:48:50.563Z</time>
      </trkpt>
      <trkpt lat="49.83048" lon="4.65363">
        <ele>235</ele>
        <time>2022-05-17T13:48:51.525Z</time>
      </trkpt>
      <trkpt lat="49.83048" lon="4.65363">
        <ele>235</ele>
        <time>2022-05-17T13:48:52.530Z</time>
      </trkpt>
      <trkpt lat="49.83056" lon="4.65373">
        <ele>234</ele>
        <time>2022-05-17T13:48:53.561Z</time>
      </trkpt>
      <trkpt lat="49.83056" lon="4.65373">
        <ele>234</ele>
        <time>2022-05-17T13:48:54.537Z</time>
      </trkpt>
      <trkpt lat="49.83056" lon="4.65389">
        <ele>234</ele>
        <time>2022-05-17T13:48:55.532Z</time>
      </trkpt>
      <trkpt lat="49.83056" lon="4.65389">
        <ele>234</ele>
        <time>2022-05-17T13:48:56.538Z</time>
      </trkpt>
      <trkpt lat="49.8305" lon="4.65403">
        <ele>234</ele>
        <time>2022-05-17T13:48:57.526Z</time>
      </trkpt>
      <trkpt lat="49.8305" lon="4.65403">
        <ele>234</ele>
        <time>2022-05-17T13:48:58.531Z</time>
      </trkpt>
      <trkpt lat="49.8304" lon="4.65414">
        <ele>233</ele>
        <time>2022-05-17T13:48:59.535Z</time>
      </trkpt>
      <trkpt lat="49.83035" lon="4.6542">
        <ele>233</ele>
        <time>2022-05-17T13:49:00.532Z</time>
      </trkpt>
      <trkpt lat="49.83032" lon="4.65426">
        <ele>233</ele>
        <time>2022-05-17T13:49:01.559Z</time>
      </trkpt>
      <trkpt lat="49.83032" lon="4.65426">
        <ele>233</ele>
        <time>2022-05-17T13:49:02.525Z</time>
      </trkpt>
      <trkpt lat="49.83024" lon="4.65442">
        <ele>232</ele>
        <time>2022-05-17T13:49:03.563Z</time>
      </trkpt>
      <trkpt lat="49.83024" lon="4.65442">
        <ele>232</ele>
        <time>2022-05-17T13:49:04.528Z</time>
      </trkpt>
      <trkpt lat="49.83017" lon="4.65461">
        <ele>232</ele>
        <time>2022-05-17T13:49:05.561Z</time>
      </trkpt>
      <trkpt lat="49.83016" lon="4.65473">
        <ele>231</ele>
        <time>2022-05-17T13:49:06.547Z</time>
      </trkpt>
      <trkpt lat="49.83016" lon="4.65473">
        <ele>231</ele>
        <time>2022-05-17T13:49:07.552Z</time>
      </trkpt>
      <trkpt lat="49.83013" lon="4.65492">
        <ele>230</ele>
        <time>2022-05-17T13:49:08.550Z</time>
      </trkpt>
      <trkpt lat="49.83013" lon="4.65492">
        <ele>230</ele>
        <time>2022-05-17T13:49:09.559Z</time>
      </trkpt>
      <trkpt lat="49.83016" lon="4.65506">
        <ele>229</ele>
        <time>2022-05-17T13:49:10.558Z</time>
      </trkpt>
      <trkpt lat="49.83016" lon="4.65506">
        <ele>229</ele>
        <time>2022-05-17T13:49:11.564Z</time>
      </trkpt>
      <trkpt lat="49.83024" lon="4.65518">
        <ele>229</ele>
        <time>2022-05-17T13:49:12.559Z</time>
      </trkpt>
      <trkpt lat="49.83024" lon="4.65518">
        <ele>229</ele>
        <time>2022-05-17T13:49:13.525Z</time>
      </trkpt>
      <trkpt lat="49.83034" lon="4.65525">
        <ele>228</ele>
        <time>2022-05-17T13:49:14.561Z</time>
      </trkpt>
      <trkpt lat="49.83034" lon="4.65525">
        <ele>228</ele>
        <time>2022-05-17T13:49:15.526Z</time>
      </trkpt>
      <trkpt lat="49.83044" lon="4.65525">
        <ele>228</ele>
        <time>2022-05-17T13:49:16.533Z</time>
      </trkpt>
      <trkpt lat="49.83044" lon="4.65525">
        <ele>228</ele>
        <time>2022-05-17T13:49:17.540Z</time>
      </trkpt>
      <trkpt lat="49.83054" lon="4.65514">
        <ele>227</ele>
        <time>2022-05-17T13:49:18.539Z</time>
      </trkpt>
      <trkpt lat="49.83054" lon="4.65514">
        <ele>227</ele>
        <time>2022-05-17T13:49:19.544Z</time>
      </trkpt>
      <trkpt lat="49.83061" lon="4.65501">
        <ele>226</ele>
        <time>2022-05-17T13:49:20.540Z</time>
      </trkpt>
      <trkpt lat="49.83061" lon="4.65501">
        <ele>226</ele>
        <time>2022-05-17T13:49:21.528Z</time>
      </trkpt>
      <trkpt lat="49.83068" lon="4.65486">
        <ele>226</ele>
        <time>2022-05-17T13:49:22.529Z</time>
      </trkpt>
      <trkpt lat="49.83068" lon="4.65486">
        <ele>226</ele>
        <time>2022-05-17T13:49:23.539Z</time>
      </trkpt>
      <trkpt lat="49.83075" lon="4.65471">
        <ele>225</ele>
        <time>2022-05-17T13:49:24.528Z</time>
      </trkpt>
      <trkpt lat="49.83078" lon="4.65464">
        <ele>225</ele>
        <time>2022-05-17T13:49:25.525Z</time>
      </trkpt>
      <trkpt lat="49.83078" lon="4.65464">
        <ele>225</ele>
        <time>2022-05-17T13:49:26.531Z</time>
      </trkpt>
      <trkpt lat="49.83085" lon="4.65451">
        <ele>224</ele>
        <time>2022-05-17T13:49:27.541Z</time>
      </trkpt>
      <trkpt lat="49.83091" lon="4.65445">
        <ele>224</ele>
        <time>2022-05-17T13:49:28.537Z</time>
      </trkpt>
      <trkpt lat="49.83091" lon="4.65445">
        <ele>224</ele>
        <time>2022-05-17T13:49:29.543Z</time>
      </trkpt>
      <trkpt lat="49.83101" lon="4.65433">
        <ele>223</ele>
        <time>2022-05-17T13:49:30.551Z</time>
      </trkpt>
      <trkpt lat="49.83106" lon="4.65428">
        <ele>223</ele>
        <time>2022-05-17T13:49:31.539Z</time>
      </trkpt>
      <trkpt lat="49.83106" lon="4.65428">
        <ele>223</ele>
        <time>2022-05-17T13:49:32.544Z</time>
      </trkpt>
      <trkpt lat="49.83115" lon="4.65419">
        <ele>223</ele>
        <time>2022-05-17T13:49:33.547Z</time>
      </trkpt>
      <trkpt lat="49.83115" lon="4.65419">
        <ele>223</ele>
        <time>2022-05-17T13:49:34.561Z</time>
      </trkpt>
      <trkpt lat="49.83127" lon="4.65409">
        <ele>222</ele>
        <time>2022-05-17T13:49:35.554Z</time>
      </trkpt>
      <trkpt lat="49.83132" lon="4.65403">
        <ele>222</ele>
        <time>2022-05-17T13:49:36.541Z</time>
      </trkpt>
      <trkpt lat="49.83132" lon="4.65403">
        <ele>222</ele>
        <time>2022-05-17T13:49:37.546Z</time>
      </trkpt>
      <trkpt lat="49.83143" lon="4.65393">
        <ele>222</ele>
        <time>2022-05-17T13:49:38.535Z</time>
      </trkpt>
      <trkpt lat="49.83143" lon="4.65393">
        <ele>222</ele>
        <time>2022-05-17T13:49:39.540Z</time>
      </trkpt>
      <trkpt lat="49.83155" lon="4.65381">
        <ele>222</ele>
        <time>2022-05-17T13:49:40.548Z</time>
      </trkpt>
      <trkpt lat="49.83155" lon="4.65381">
        <ele>222</ele>
        <time>2022-05-17T13:49:41.558Z</time>
      </trkpt>
      <trkpt lat="49.83163" lon="4.65372">
        <ele>222</ele>
        <time>2022-05-17T13:49:42.546Z</time>
      </trkpt>
      <trkpt lat="49.83163" lon="4.65372">
        <ele>222</ele>
        <time>2022-05-17T13:49:43.551Z</time>
      </trkpt>
      <trkpt lat="49.8317" lon="4.65367">
        <ele>221</ele>
        <time>2022-05-17T13:49:44.537Z</time>
      </trkpt>
      <trkpt lat="49.8317" lon="4.65367">
        <ele>221</ele>
        <time>2022-05-17T13:49:45.543Z</time>
      </trkpt>
      <trkpt lat="49.83176" lon="4.65364">
        <ele>221</ele>
        <time>2022-05-17T13:49:46.536Z</time>
      </trkpt>
      <trkpt lat="49.83176" lon="4.65364">
        <ele>221</ele>
        <time>2022-05-17T13:49:47.542Z</time>
      </trkpt>
      <trkpt lat="49.83182" lon="4.65363">
        <ele>221</ele>
        <time>2022-05-17T13:49:48.545Z</time>
      </trkpt>
      <trkpt lat="49.83182" lon="4.65363">
        <ele>221</ele>
        <time>2022-05-17T13:49:49.530Z</time>
      </trkpt>
      <trkpt lat="49.83188" lon="4.65364">
        <ele>220</ele>
        <time>2022-05-17T13:49:50.525Z</time>
      </trkpt>
      <trkpt lat="49.83188" lon="4.65364">
        <ele>220</ele>
        <time>2022-05-17T13:49:51.530Z</time>
      </trkpt>
      <trkpt lat="49.83195" lon="4.65367">
        <ele>220</ele>
        <time>2022-05-17T13:49:52.526Z</time>
      </trkpt>
      <trkpt lat="49.83198" lon="4.65367">
        <ele>220</ele>
        <time>2022-05-17T13:49:53.528Z</time>
      </trkpt>
      <trkpt lat="49.83199" lon="4.65367">
        <ele>220</ele>
        <time>2022-05-17T13:49:54.552Z</time>
      </trkpt>
      <trkpt lat="49.83199" lon="4.65367">
        <ele>220</ele>
        <time>2022-05-17T13:49:55.524Z</time>
      </trkpt>
      <trkpt lat="49.83204" lon="4.65366">
        <ele>219</ele>
        <time>2022-05-17T13:49:56.554Z</time>
      </trkpt>
      <trkpt lat="49.83206" lon="4.65366">
        <ele>219</ele>
        <time>2022-05-17T13:49:57.548Z</time>
      </trkpt>
      <trkpt lat="49.83206" lon="4.65366">
        <ele>219</ele>
        <time>2022-05-17T13:49:58.559Z</time>
      </trkpt>
      <trkpt lat="49.83213" lon="4.65364">
        <ele>219</ele>
        <time>2022-05-17T13:49:59.555Z</time>
      </trkpt>
      <trkpt lat="49.83213" lon="4.65364">
        <ele>219</ele>
        <time>2022-05-17T13:50:00.563Z</time>
      </trkpt>
      <trkpt lat="49.83217" lon="4.65365">
        <ele>218</ele>
        <time>2022-05-17T13:50:01.533Z</time>
      </trkpt>
      <trkpt lat="49.83217" lon="4.65365">
        <ele>218</ele>
        <time>2022-05-17T13:50:02.538Z</time>
      </trkpt>
      <trkpt lat="49.83219" lon="4.65366">
        <ele>218</ele>
        <time>2022-05-17T13:50:03.527Z</time>
      </trkpt>
      <trkpt lat="49.83219" lon="4.65366">
        <ele>218</ele>
        <time>2022-05-17T13:50:04.532Z</time>
      </trkpt>
      <trkpt lat="49.83222" lon="4.65368">
        <ele>218</ele>
        <time>2022-05-17T13:50:05.539Z</time>
      </trkpt>
      <trkpt lat="49.83223" lon="4.65368">
        <ele>218</ele>
        <time>2022-05-17T13:50:06.545Z</time>
      </trkpt>
      <trkpt lat="49.83223" lon="4.65368">
        <ele>218</ele>
        <time>2022-05-17T13:50:07.550Z</time>
      </trkpt>
      <trkpt lat="49.83224" lon="4.65369">
        <ele>218</ele>
        <time>2022-05-17T13:50:08.550Z</time>
      </trkpt>
      <trkpt lat="49.83224" lon="4.65369">
        <ele>218</ele>
        <time>2022-05-17T13:50:09.557Z</time>
      </trkpt>
      <trkpt lat="49.83227" lon="4.65369">
        <ele>218</ele>
        <time>2022-05-17T13:50:10.548Z</time>
      </trkpt>
      <trkpt lat="49.83227" lon="4.65369">
        <ele>218</ele>
        <time>2022-05-17T13:50:11.554Z</time>
      </trkpt>
      <trkpt lat="49.83228" lon="4.6537">
        <ele>218</ele>
        <time>2022-05-17T13:50:12.547Z</time>
      </trkpt>
      <trkpt lat="49.83228" lon="4.6537">
        <ele>218</ele>
        <time>2022-05-17T13:50:13.554Z</time>
      </trkpt>
      <trkpt lat="49.83231" lon="4.6537">
        <ele>218</ele>
        <time>2022-05-17T13:50:14.544Z</time>
      </trkpt>
      <trkpt lat="49.83231" lon="4.6537">
        <ele>218</ele>
        <time>2022-05-17T13:50:15.549Z</time>
      </trkpt>
      <trkpt lat="49.83234" lon="4.65371">
        <ele>219</ele>
        <time>2022-05-17T13:50:16.551Z</time>
      </trkpt>
      <trkpt lat="49.83234" lon="4.65371">
        <ele>219</ele>
        <time>2022-05-17T13:50:17.562Z</time>
      </trkpt>
      <trkpt lat="49.83236" lon="4.65372">
        <ele>219</ele>
        <time>2022-05-17T13:50:18.544Z</time>
      </trkpt>
      <trkpt lat="49.83236" lon="4.65372">
        <ele>219</ele>
        <time>2022-05-17T13:50:19.549Z</time>
      </trkpt>
      <trkpt lat="49.83238" lon="4.65374">
        <ele>220</ele>
        <time>2022-05-17T13:50:20.554Z</time>
      </trkpt>
      <trkpt lat="49.83238" lon="4.65374">
        <ele>220</ele>
        <time>2022-05-17T13:50:21.556Z</time>
      </trkpt>
      <trkpt lat="49.8324" lon="4.65376">
        <ele>221</ele>
        <time>2022-05-17T13:50:22.553Z</time>
      </trkpt>
      <trkpt lat="49.8324" lon="4.65376">
        <ele>221</ele>
        <time>2022-05-17T13:50:23.563Z</time>
      </trkpt>
      <trkpt lat="49.83243" lon="4.65377">
        <ele>221</ele>
        <time>2022-05-17T13:50:24.551Z</time>
      </trkpt>
      <trkpt lat="49.83244" lon="4.65377">
        <ele>221</ele>
        <time>2022-05-17T13:50:25.544Z</time>
      </trkpt>
      <trkpt lat="49.83244" lon="4.65377">
        <ele>221</ele>
        <time>2022-05-17T13:50:26.549Z</time>
      </trkpt>
      <trkpt lat="49.83247" lon="4.65379">
        <ele>221</ele>
        <time>2022-05-17T13:50:27.559Z</time>
      </trkpt>
      <trkpt lat="49.83248" lon="4.65379">
        <ele>222</ele>
        <time>2022-05-17T13:50:28.553Z</time>
      </trkpt>
      <trkpt lat="49.8325" lon="4.6538">
        <ele>222</ele>
        <time>2022-05-17T13:50:29.540Z</time>
      </trkpt>
      <trkpt lat="49.83252" lon="4.65382">
        <ele>222</ele>
        <time>2022-05-17T13:50:30.550Z</time>
      </trkpt>
      <trkpt lat="49.83253" lon="4.65383">
        <ele>222</ele>
        <time>2022-05-17T13:50:31.547Z</time>
      </trkpt>
      <trkpt lat="49.83253" lon="4.65383">
        <ele>222</ele>
        <time>2022-05-17T13:50:32.552Z</time>
      </trkpt>
      <trkpt lat="49.83255" lon="4.65384">
        <ele>223</ele>
        <time>2022-05-17T13:50:33.543Z</time>
      </trkpt>
      <trkpt lat="49.83256" lon="4.65385">
        <ele>223</ele>
        <time>2022-05-17T13:50:34.554Z</time>
      </trkpt>
      <trkpt lat="49.83256" lon="4.65385">
        <ele>223</ele>
        <time>2022-05-17T13:50:35.561Z</time>
      </trkpt>
      <trkpt lat="49.83259" lon="4.65387">
        <ele>223</ele>
        <time>2022-05-17T13:50:36.529Z</time>
      </trkpt>
      <trkpt lat="49.8326" lon="4.65388">
        <ele>224</ele>
        <time>2022-05-17T13:50:37.558Z</time>
      </trkpt>
      <trkpt lat="49.8326" lon="4.65388">
        <ele>224</ele>
        <time>2022-05-17T13:50:38.524Z</time>
      </trkpt>
      <trkpt lat="49.83262" lon="4.6539">
        <ele>224</ele>
        <time>2022-05-17T13:50:39.552Z</time>
      </trkpt>
      <trkpt lat="49.83262" lon="4.6539">
        <ele>224</ele>
        <time>2022-05-17T13:50:40.524Z</time>
      </trkpt>
      <trkpt lat="49.83263" lon="4.65393">
        <ele>225</ele>
        <time>2022-05-17T13:50:41.531Z</time>
      </trkpt>
      <trkpt lat="49.83264" lon="4.65394">
        <ele>225</ele>
        <time>2022-05-17T13:50:42.556Z</time>
      </trkpt>
      <trkpt lat="49.83265" lon="4.65395">
        <ele>225</ele>
        <time>2022-05-17T13:50:43.548Z</time>
      </trkpt>
      <trkpt lat="49.83265" lon="4.65395">
        <ele>225</ele>
        <time>2022-05-17T13:50:44.553Z</time>
      </trkpt>
      <trkpt lat="49.83267" lon="4.65398">
        <ele>226</ele>
        <time>2022-05-17T13:50:45.536Z</time>
      </trkpt>
      <trkpt lat="49.83267" lon="4.65399">
        <ele>226</ele>
        <time>2022-05-17T13:50:46.563Z</time>
      </trkpt>
      <trkpt lat="49.83267" lon="4.65399">
        <ele>226</ele>
        <time>2022-05-17T13:50:47.529Z</time>
      </trkpt>
      <trkpt lat="49.83268" lon="4.65401">
        <ele>226</ele>
        <time>2022-05-17T13:50:48.527Z</time>
      </trkpt>
      <trkpt lat="49.83268" lon="4.65403">
        <ele>227</ele>
        <time>2022-05-17T13:50:49.527Z</time>
      </trkpt>
      <trkpt lat="49.83268" lon="4.65403">
        <ele>227</ele>
        <time>2022-05-17T13:50:50.532Z</time>
      </trkpt>
      <trkpt lat="49.83269" lon="4.65406">
        <ele>227</ele>
        <time>2022-05-17T13:50:51.524Z</time>
      </trkpt>
      <trkpt lat="49.83269" lon="4.65407">
        <ele>228</ele>
        <time>2022-05-17T13:50:52.544Z</time>
      </trkpt>
      <trkpt lat="49.83269" lon="4.65408">
        <ele>228</ele>
        <time>2022-05-17T13:50:53.539Z</time>
      </trkpt>
      <trkpt lat="49.83269" lon="4.65408">
        <ele>228</ele>
        <time>2022-05-17T13:50:54.544Z</time>
      </trkpt>
      <trkpt lat="49.83269" lon="4.65412">
        <ele>228</ele>
        <time>2022-05-17T13:50:55.529Z</time>
      </trkpt>
      <trkpt lat="49.83269" lon="4.65412">
        <ele>228</ele>
        <time>2022-05-17T13:50:56.534Z</time>
      </trkpt>
      <trkpt lat="49.8327" lon="4.65414">
        <ele>229</ele>
        <time>2022-05-17T13:50:57.563Z</time>
      </trkpt>
      <trkpt lat="49.8327" lon="4.65414">
        <ele>229</ele>
        <time>2022-05-17T13:50:58.528Z</time>
      </trkpt>
      <trkpt lat="49.8327" lon="4.65416">
        <ele>229</ele>
        <time>2022-05-17T13:50:59.561Z</time>
      </trkpt>
      <trkpt lat="49.8327" lon="4.65418">
        <ele>229</ele>
        <time>2022-05-17T13:51:00.533Z</time>
      </trkpt>
      <trkpt lat="49.8327" lon="4.65418">
        <ele>229</ele>
        <time>2022-05-17T13:51:01.538Z</time>
      </trkpt>
      <trkpt lat="49.83271" lon="4.65421">
        <ele>230</ele>
        <time>2022-05-17T13:51:02.535Z</time>
      </trkpt>
      <trkpt lat="49.83271" lon="4.65421">
        <ele>230</ele>
        <time>2022-05-17T13:51:03.540Z</time>
      </trkpt>
      <trkpt lat="49.83272" lon="4.65424">
        <ele>230</ele>
        <time>2022-05-17T13:51:04.535Z</time>
      </trkpt>
      <trkpt lat="49.83273" lon="4.65425">
        <ele>230</ele>
        <time>2022-05-17T13:51:05.542Z</time>
      </trkpt>
      <trkpt lat="49.83273" lon="4.65425">
        <ele>230</ele>
        <time>2022-05-17T13:51:06.547Z</time>
      </trkpt>
      <trkpt lat="49.83274" lon="4.65424">
        <ele>231</ele>
        <time>2022-05-17T13:51:07.527Z</time>
      </trkpt>
      <trkpt lat="49.83274" lon="4.65424">
        <ele>231</ele>
        <time>2022-05-17T13:51:08.532Z</time>
      </trkpt>
      <trkpt lat="49.83274" lon="4.65422">
        <ele>230</ele>
        <time>2022-05-17T13:51:09.530Z</time>
      </trkpt>
      <trkpt lat="49.83274" lon="4.65422">
        <ele>230</ele>
        <time>2022-05-17T13:51:10.543Z</time>
      </trkpt>
      <trkpt lat="49.83274" lon="4.65422">
        <ele>230</ele>
        <time>2022-05-17T13:51:11.534Z</time>
      </trkpt>
      <trkpt lat="49.83274" lon="4.65422">
        <ele>230</ele>
        <time>2022-05-17T13:51:12.540Z</time>
      </trkpt>
      <trkpt lat="49.83274" lon="4.65422">
        <ele>230</ele>
        <time>2022-05-17T13:51:13.545Z</time>
      </trkpt>
      <trkpt lat="49.83274" lon="4.65422">
        <ele>230</ele>
        <time>2022-05-17T13:51:14.553Z</time>
      </trkpt>
      <trkpt lat="49.83274" lon="4.65422">
        <ele>230</ele>
        <time>2022-05-17T13:51:15.561Z</time>
      </trkpt>
      <trkpt lat="49.83274" lon="4.65422">
        <ele>230</ele>
        <time>2022-05-17T13:51:16.526Z</time>
      </trkpt>
      <trkpt lat="49.83274" lon="4.65421">
        <ele>230</ele>
        <time>2022-05-17T13:51:17.542Z</time>
      </trkpt>
      <trkpt lat="49.83274" lon="4.65421">
        <ele>230</ele>
        <time>2022-05-17T13:51:18.534Z</time>
      </trkpt>
      <trkpt lat="49.83276" lon="4.65422">
        <ele>230</ele>
        <time>2022-05-17T13:51:19.545Z</time>
      </trkpt>
      <trkpt lat="49.83276" lon="4.65422">
        <ele>230</ele>
        <time>2022-05-17T13:51:20.533Z</time>
      </trkpt>
      <trkpt lat="49.83277" lon="4.65424">
        <ele>231</ele>
        <time>2022-05-17T13:51:21.536Z</time>
      </trkpt>
      <trkpt lat="49.83277" lon="4.65424">
        <ele>231</ele>
        <time>2022-05-17T13:51:22.547Z</time>
      </trkpt>
      <trkpt lat="49.83278" lon="4.65427">
        <ele>231</ele>
        <time>2022-05-17T13:51:23.536Z</time>
      </trkpt>
      <trkpt lat="49.83278" lon="4.65427">
        <ele>231</ele>
        <time>2022-05-17T13:51:24.534Z</time>
      </trkpt>
      <trkpt lat="49.8328" lon="4.65429">
        <ele>231</ele>
        <time>2022-05-17T13:51:25.559Z</time>
      </trkpt>
      <trkpt lat="49.8328" lon="4.65429">
        <ele>231</ele>
        <time>2022-05-17T13:51:26.524Z</time>
      </trkpt>
      <trkpt lat="49.83281" lon="4.65432">
        <ele>231</ele>
        <time>2022-05-17T13:51:27.561Z</time>
      </trkpt>
      <trkpt lat="49.83282" lon="4.65433">
        <ele>232</ele>
        <time>2022-05-17T13:51:28.545Z</time>
      </trkpt>
      <trkpt lat="49.83282" lon="4.65433">
        <ele>232</ele>
        <time>2022-05-17T13:51:29.551Z</time>
      </trkpt>
      <trkpt lat="49.83282" lon="4.65434">
        <ele>232</ele>
        <time>2022-05-17T13:51:30.551Z</time>
      </trkpt>
      <trkpt lat="49.83282" lon="4.65434">
        <ele>232</ele>
        <time>2022-05-17T13:51:31.558Z</time>
      </trkpt>
      <trkpt lat="49.83283" lon="4.65436">
        <ele>232</ele>
        <time>2022-05-17T13:51:32.543Z</time>
      </trkpt>
      <trkpt lat="49.83284" lon="4.65437">
        <ele>232</ele>
        <time>2022-05-17T13:51:33.558Z</time>
      </trkpt>
      <trkpt lat="49.83284" lon="4.65437">
        <ele>232</ele>
        <time>2022-05-17T13:51:34.563Z</time>
      </trkpt>
      <trkpt lat="49.83285" lon="4.65439">
        <ele>232</ele>
        <time>2022-05-17T13:51:35.526Z</time>
      </trkpt>
      <trkpt lat="49.83286" lon="4.6544">
        <ele>232</ele>
        <time>2022-05-17T13:51:36.524Z</time>
      </trkpt>
      <trkpt lat="49.83286" lon="4.6544">
        <ele>232</ele>
        <time>2022-05-17T13:51:37.530Z</time>
      </trkpt>
      <trkpt lat="49.83288" lon="4.65443">
        <ele>232</ele>
        <time>2022-05-17T13:51:38.564Z</time>
      </trkpt>
      <trkpt lat="49.83288" lon="4.65443">
        <ele>232</ele>
        <time>2022-05-17T13:51:39.529Z</time>
      </trkpt>
      <trkpt lat="49.8329" lon="4.65445">
        <ele>232</ele>
        <time>2022-05-17T13:51:40.532Z</time>
      </trkpt>
      <trkpt lat="49.8329" lon="4.65445">
        <ele>232</ele>
        <time>2022-05-17T13:51:41.537Z</time>
      </trkpt>
      <trkpt lat="49.83293" lon="4.65449">
        <ele>232</ele>
        <time>2022-05-17T13:51:42.524Z</time>
      </trkpt>
      <trkpt lat="49.83296" lon="4.6545">
        <ele>232</ele>
        <time>2022-05-17T13:51:43.544Z</time>
      </trkpt>
      <trkpt lat="49.83296" lon="4.6545">
        <ele>232</ele>
        <time>2022-05-17T13:51:44.549Z</time>
      </trkpt>
      <trkpt lat="49.83297" lon="4.65453">
        <ele>232</ele>
        <time>2022-05-17T13:51:45.535Z</time>
      </trkpt>
      <trkpt lat="49.83297" lon="4.65453">
        <ele>232</ele>
        <time>2022-05-17T13:51:46.541Z</time>
      </trkpt>
      <trkpt lat="49.83299" lon="4.65455">
        <ele>232</ele>
        <time>2022-05-17T13:51:47.542Z</time>
      </trkpt>
      <trkpt lat="49.83299" lon="4.65456">
        <ele>232</ele>
        <time>2022-05-17T13:51:48.528Z</time>
      </trkpt>
      <trkpt lat="49.83299" lon="4.65456">
        <ele>232</ele>
        <time>2022-05-17T13:51:49.533Z</time>
      </trkpt>
      <trkpt lat="49.83301" lon="4.65457">
        <ele>232</ele>
        <time>2022-05-17T13:51:50.540Z</time>
      </trkpt>
      <trkpt lat="49.83301" lon="4.65457">
        <ele>232</ele>
        <time>2022-05-17T13:51:51.545Z</time>
      </trkpt>
      <trkpt lat="49.83303" lon="4.65458">
        <ele>232</ele>
        <time>2022-05-17T13:51:52.550Z</time>
      </trkpt>
      <trkpt lat="49.83303" lon="4.65458">
        <ele>232</ele>
        <time>2022-05-17T13:51:53.556Z</time>
      </trkpt>
      <trkpt lat="49.83304" lon="4.65459">
        <ele>233</ele>
        <time>2022-05-17T13:51:54.550Z</time>
      </trkpt>
      <trkpt lat="49.83306" lon="4.65459">
        <ele>233</ele>
        <time>2022-05-17T13:51:55.545Z</time>
      </trkpt>
      <trkpt lat="49.83306" lon="4.65459">
        <ele>233</ele>
        <time>2022-05-17T13:51:56.550Z</time>
      </trkpt>
      <trkpt lat="49.83307" lon="4.6546">
        <ele>233</ele>
        <time>2022-05-17T13:51:57.541Z</time>
      </trkpt>
      <trkpt lat="49.83307" lon="4.6546">
        <ele>233</ele>
        <time>2022-05-17T13:51:58.546Z</time>
      </trkpt>
      <trkpt lat="49.83309" lon="4.65461">
        <ele>233</ele>
        <time>2022-05-17T13:51:59.549Z</time>
      </trkpt>
      <trkpt lat="49.83309" lon="4.65462">
        <ele>233</ele>
        <time>2022-05-17T13:52:00.550Z</time>
      </trkpt>
      <trkpt lat="49.83309" lon="4.65462">
        <ele>233</ele>
        <time>2022-05-17T13:52:01.559Z</time>
      </trkpt>
      <trkpt lat="49.83311" lon="4.65463">
        <ele>233</ele>
        <time>2022-05-17T13:52:02.553Z</time>
      </trkpt>
      <trkpt lat="49.83311" lon="4.65463">
        <ele>233</ele>
        <time>2022-05-17T13:52:03.558Z</time>
      </trkpt>
      <trkpt lat="49.83313" lon="4.65464">
        <ele>234</ele>
        <time>2022-05-17T13:52:04.548Z</time>
      </trkpt>
      <trkpt lat="49.83314" lon="4.65465">
        <ele>234</ele>
        <time>2022-05-17T13:52:05.541Z</time>
      </trkpt>
      <trkpt lat="49.83314" lon="4.65465">
        <ele>234</ele>
        <time>2022-05-17T13:52:06.546Z</time>
      </trkpt>
      <trkpt lat="49.83316" lon="4.65466">
        <ele>234</ele>
        <time>2022-05-17T13:52:07.550Z</time>
      </trkpt>
      <trkpt lat="49.83316" lon="4.65466">
        <ele>234</ele>
        <time>2022-05-17T13:52:08.525Z</time>
      </trkpt>
      <trkpt lat="49.83317" lon="4.65467">
        <ele>234</ele>
        <time>2022-05-17T13:52:09.526Z</time>
      </trkpt>
      <trkpt lat="49.83319" lon="4.65468">
        <ele>234</ele>
        <time>2022-05-17T13:52:10.561Z</time>
      </trkpt>
      <trkpt lat="49.83319" lon="4.65468">
        <ele>234</ele>
        <time>2022-05-17T13:52:11.526Z</time>
      </trkpt>
      <trkpt lat="49.8332" lon="4.65472">
        <ele>234</ele>
        <time>2022-05-17T13:52:12.560Z</time>
      </trkpt>
      <trkpt lat="49.83321" lon="4.65473">
        <ele>234</ele>
        <time>2022-05-17T13:52:13.541Z</time>
      </trkpt>
      <trkpt lat="49.83321" lon="4.65473">
        <ele>234</ele>
        <time>2022-05-17T13:52:14.547Z</time>
      </trkpt>
      <trkpt lat="49.83323" lon="4.65475">
        <ele>234</ele>
        <time>2022-05-17T13:52:15.535Z</time>
      </trkpt>
      <trkpt lat="49.83323" lon="4.65475">
        <ele>234</ele>
        <time>2022-05-17T13:52:16.540Z</time>
      </trkpt>
      <trkpt lat="49.83326" lon="4.65477">
        <ele>235</ele>
        <time>2022-05-17T13:52:17.535Z</time>
      </trkpt>
      <trkpt lat="49.83327" lon="4.65478">
        <ele>235</ele>
        <time>2022-05-17T13:52:18.528Z</time>
      </trkpt>
      <trkpt lat="49.83327" lon="4.65478">
        <ele>235</ele>
        <time>2022-05-17T13:52:19.536Z</time>
      </trkpt>
      <trkpt lat="49.83328" lon="4.65479">
        <ele>235</ele>
        <time>2022-05-17T13:52:20.526Z</time>
      </trkpt>
      <trkpt lat="49.83328" lon="4.65479">
        <ele>235</ele>
        <time>2022-05-17T13:52:21.540Z</time>
      </trkpt>
      <trkpt lat="49.8333" lon="4.6548">
        <ele>235</ele>
        <time>2022-05-17T13:52:22.563Z</time>
      </trkpt>
      <trkpt lat="49.8333" lon="4.6548">
        <ele>235</ele>
        <time>2022-05-17T13:52:23.528Z</time>
      </trkpt>
      <trkpt lat="49.83332" lon="4.65481">
        <ele>236</ele>
        <time>2022-05-17T13:52:24.525Z</time>
      </trkpt>
      <trkpt lat="49.83332" lon="4.65481">
        <ele>236</ele>
        <time>2022-05-17T13:52:25.530Z</time>
      </trkpt>
      <trkpt lat="49.83333" lon="4.65482">
        <ele>236</ele>
        <time>2022-05-17T13:52:26.541Z</time>
      </trkpt>
      <trkpt lat="49.83333" lon="4.65482">
        <ele>236</ele>
        <time>2022-05-17T13:52:27.546Z</time>
      </trkpt>
      <trkpt lat="49.83335" lon="4.65484">
        <ele>236</ele>
        <time>2022-05-17T13:52:28.536Z</time>
      </trkpt>
      <trkpt lat="49.83335" lon="4.65484">
        <ele>236</ele>
        <time>2022-05-17T13:52:29.541Z</time>
      </trkpt>
      <trkpt lat="49.83337" lon="4.65485">
        <ele>236</ele>
        <time>2022-05-17T13:52:30.542Z</time>
      </trkpt>
      <trkpt lat="49.83338" lon="4.65486">
        <ele>236</ele>
        <time>2022-05-17T13:52:31.532Z</time>
      </trkpt>
      <trkpt lat="49.83338" lon="4.65486">
        <ele>236</ele>
        <time>2022-05-17T13:52:32.537Z</time>
      </trkpt>
      <trkpt lat="49.83339" lon="4.65487">
        <ele>236</ele>
        <time>2022-05-17T13:52:33.550Z</time>
      </trkpt>
      <trkpt lat="49.8334" lon="4.65487">
        <ele>237</ele>
        <time>2022-05-17T13:52:34.553Z</time>
      </trkpt>
      <trkpt lat="49.8334" lon="4.65487">
        <ele>237</ele>
        <time>2022-05-17T13:52:35.558Z</time>
      </trkpt>
      <trkpt lat="49.83342" lon="4.65489">
        <ele>237</ele>
        <time>2022-05-17T13:52:36.535Z</time>
      </trkpt>
      <trkpt lat="49.83343" lon="4.6549">
        <ele>237</ele>
        <time>2022-05-17T13:52:37.558Z</time>
      </trkpt>
      <trkpt lat="49.83343" lon="4.6549">
        <ele>237</ele>
        <time>2022-05-17T13:52:38.564Z</time>
      </trkpt>
      <trkpt lat="49.83347" lon="4.65492">
        <ele>237</ele>
        <time>2022-05-17T13:52:39.524Z</time>
      </trkpt>
      <trkpt lat="49.83347" lon="4.65492">
        <ele>237</ele>
        <time>2022-05-17T13:52:40.529Z</time>
      </trkpt>
      <trkpt lat="49.8335" lon="4.65493">
        <ele>237</ele>
        <time>2022-05-17T13:52:41.538Z</time>
      </trkpt>
      <trkpt lat="49.83351" lon="4.65493">
        <ele>237</ele>
        <time>2022-05-17T13:52:42.535Z</time>
      </trkpt>
      <trkpt lat="49.83353" lon="4.65493">
        <ele>237</ele>
        <time>2022-05-17T13:52:43.541Z</time>
      </trkpt>
      <trkpt lat="49.83353" lon="4.65493">
        <ele>237</ele>
        <time>2022-05-17T13:52:44.546Z</time>
      </trkpt>
      <trkpt lat="49.83355" lon="4.65496">
        <ele>238</ele>
        <time>2022-05-17T13:52:45.534Z</time>
      </trkpt>
      <trkpt lat="49.83356" lon="4.65497">
        <ele>238</ele>
        <time>2022-05-17T13:52:46.531Z</time>
      </trkpt>
      <trkpt lat="49.83357" lon="4.65497">
        <ele>238</ele>
        <time>2022-05-17T13:52:47.526Z</time>
      </trkpt>
      <trkpt lat="49.83358" lon="4.65498">
        <ele>238</ele>
        <time>2022-05-17T13:52:48.562Z</time>
      </trkpt>
      <trkpt lat="49.83358" lon="4.65498">
        <ele>238</ele>
        <time>2022-05-17T13:52:49.528Z</time>
      </trkpt>
      <trkpt lat="49.83359" lon="4.65499">
        <ele>238</ele>
        <time>2022-05-17T13:52:50.554Z</time>
      </trkpt>
      <trkpt lat="49.83359" lon="4.65499">
        <ele>238</ele>
        <time>2022-05-17T13:52:51.560Z</time>
      </trkpt>
      <trkpt lat="49.8336" lon="4.65501">
        <ele>239</ele>
        <time>2022-05-17T13:52:52.547Z</time>
      </trkpt>
      <trkpt lat="49.83361" lon="4.65501">
        <ele>239</ele>
        <time>2022-05-17T13:52:53.535Z</time>
      </trkpt>
      <trkpt lat="49.83362" lon="4.65502">
        <ele>239</ele>
        <time>2022-05-17T13:52:54.535Z</time>
      </trkpt>
      <trkpt lat="49.83363" lon="4.65503">
        <ele>239</ele>
        <time>2022-05-17T13:52:55.534Z</time>
      </trkpt>
      <trkpt lat="49.83363" lon="4.65503">
        <ele>239</ele>
        <time>2022-05-17T13:52:56.539Z</time>
      </trkpt>
      <trkpt lat="49.83365" lon="4.65504">
        <ele>239</ele>
        <time>2022-05-17T13:52:57.560Z</time>
      </trkpt>
      <trkpt lat="49.83365" lon="4.65504">
        <ele>239</ele>
        <time>2022-05-17T13:52:58.531Z</time>
      </trkpt>
      <trkpt lat="49.83367" lon="4.65506">
        <ele>239</ele>
        <time>2022-05-17T13:52:59.554Z</time>
      </trkpt>
      <trkpt lat="49.83368" lon="4.65507">
        <ele>239</ele>
        <time>2022-05-17T13:53:00.557Z</time>
      </trkpt>
      <trkpt lat="49.83369" lon="4.65507">
        <ele>239</ele>
        <time>2022-05-17T13:53:01.525Z</time>
      </trkpt>
      <trkpt lat="49.83369" lon="4.65507">
        <ele>239</ele>
        <time>2022-05-17T13:53:02.535Z</time>
      </trkpt>
      <trkpt lat="49.83371" lon="4.65508">
        <ele>240</ele>
        <time>2022-05-17T13:53:03.525Z</time>
      </trkpt>
      <trkpt lat="49.83371" lon="4.65508">
        <ele>240</ele>
        <time>2022-05-17T13:53:04.530Z</time>
      </trkpt>
      <trkpt lat="49.83373" lon="4.6551">
        <ele>240</ele>
        <time>2022-05-17T13:53:05.524Z</time>
      </trkpt>
      <trkpt lat="49.83374" lon="4.65511">
        <ele>240</ele>
        <time>2022-05-17T13:53:06.527Z</time>
      </trkpt>
      <trkpt lat="49.83374" lon="4.65511">
        <ele>240</ele>
        <time>2022-05-17T13:53:07.532Z</time>
      </trkpt>
      <trkpt lat="49.83376" lon="4.65511">
        <ele>240</ele>
        <time>2022-05-17T13:53:08.525Z</time>
      </trkpt>
      <trkpt lat="49.83376" lon="4.65512">
        <ele>240</ele>
        <time>2022-05-17T13:53:09.560Z</time>
      </trkpt>
      <trkpt lat="49.83376" lon="4.65512">
        <ele>240</ele>
        <time>2022-05-17T13:53:10.524Z</time>
      </trkpt>
      <trkpt lat="49.83378" lon="4.65513">
        <ele>241</ele>
        <time>2022-05-17T13:53:11.527Z</time>
      </trkpt>
      <trkpt lat="49.83378" lon="4.65513">
        <ele>241</ele>
        <time>2022-05-17T13:53:12.538Z</time>
      </trkpt>
      <trkpt lat="49.8338" lon="4.65515">
        <ele>241</ele>
        <time>2022-05-17T13:53:13.534Z</time>
      </trkpt>
      <trkpt lat="49.8338" lon="4.65515">
        <ele>241</ele>
        <time>2022-05-17T13:53:14.539Z</time>
      </trkpt>
      <trkpt lat="49.83383" lon="4.65517">
        <ele>241</ele>
        <time>2022-05-17T13:53:15.531Z</time>
      </trkpt>
      <trkpt lat="49.83383" lon="4.65517">
        <ele>241</ele>
        <time>2022-05-17T13:53:16.536Z</time>
      </trkpt>
      <trkpt lat="49.83385" lon="4.65519">
        <ele>242</ele>
        <time>2022-05-17T13:53:17.563Z</time>
      </trkpt>
      <trkpt lat="49.83386" lon="4.6552">
        <ele>242</ele>
        <time>2022-05-17T13:53:18.549Z</time>
      </trkpt>
      <trkpt lat="49.83387" lon="4.65521">
        <ele>242</ele>
        <time>2022-05-17T13:53:19.537Z</time>
      </trkpt>
      <trkpt lat="49.83387" lon="4.65521">
        <ele>242</ele>
        <time>2022-05-17T13:53:20.541Z</time>
      </trkpt>
      <trkpt lat="49.83389" lon="4.65523">
        <ele>242</ele>
        <time>2022-05-17T13:53:21.529Z</time>
      </trkpt>
      <trkpt lat="49.8339" lon="4.65524">
        <ele>242</ele>
        <time>2022-05-17T13:53:22.533Z</time>
      </trkpt>
      <trkpt lat="49.8339" lon="4.65524">
        <ele>242</ele>
        <time>2022-05-17T13:53:23.538Z</time>
      </trkpt>
      <trkpt lat="49.83391" lon="4.65527">
        <ele>242</ele>
        <time>2022-05-17T13:53:24.534Z</time>
      </trkpt>
      <trkpt lat="49.83392" lon="4.65528">
        <ele>242</ele>
        <time>2022-05-17T13:53:25.524Z</time>
      </trkpt>
      <trkpt lat="49.83392" lon="4.65528">
        <ele>242</ele>
        <time>2022-05-17T13:53:26.533Z</time>
      </trkpt>
      <trkpt lat="49.83393" lon="4.6553">
        <ele>243</ele>
        <time>2022-05-17T13:53:27.546Z</time>
      </trkpt>
      <trkpt lat="49.83394" lon="4.65531">
        <ele>243</ele>
        <time>2022-05-17T13:53:28.544Z</time>
      </trkpt>
      <trkpt lat="49.83395" lon="4.65532">
        <ele>243</ele>
        <time>2022-05-17T13:53:29.528Z</time>
      </trkpt>
      <trkpt lat="49.83395" lon="4.65532">
        <ele>243</ele>
        <time>2022-05-17T13:53:30.533Z</time>
      </trkpt>
      <trkpt lat="49.83397" lon="4.65533">
        <ele>243</ele>
        <time>2022-05-17T13:53:31.560Z</time>
      </trkpt>
      <trkpt lat="49.83397" lon="4.65533">
        <ele>243</ele>
        <time>2022-05-17T13:53:32.526Z</time>
      </trkpt>
      <trkpt lat="49.83399" lon="4.65533">
        <ele>243</ele>
        <time>2022-05-17T13:53:33.552Z</time>
      </trkpt>
      <trkpt lat="49.83399" lon="4.65533">
        <ele>243</ele>
        <time>2022-05-17T13:53:34.559Z</time>
      </trkpt>
      <trkpt lat="49.83402" lon="4.65534">
        <ele>244</ele>
        <time>2022-05-17T13:53:35.554Z</time>
      </trkpt>
      <trkpt lat="49.83404" lon="4.65534">
        <ele>244</ele>
        <time>2022-05-17T13:53:36.550Z</time>
      </trkpt>
      <trkpt lat="49.83404" lon="4.65534">
        <ele>244</ele>
        <time>2022-05-17T13:53:37.563Z</time>
      </trkpt>
      <trkpt lat="49.83406" lon="4.65535">
        <ele>244</ele>
        <time>2022-05-17T13:53:38.559Z</time>
      </trkpt>
      <trkpt lat="49.83406" lon="4.65535">
        <ele>244</ele>
        <time>2022-05-17T13:53:39.566Z</time>
      </trkpt>
      <trkpt lat="49.83409" lon="4.65537">
        <ele>244</ele>
        <time>2022-05-17T13:53:40.557Z</time>
      </trkpt>
      <trkpt lat="49.8341" lon="4.65538">
        <ele>245</ele>
        <time>2022-05-17T13:53:41.551Z</time>
      </trkpt>
      <trkpt lat="49.8341" lon="4.65538">
        <ele>245</ele>
        <time>2022-05-17T13:53:42.557Z</time>
      </trkpt>
      <trkpt lat="49.83413" lon="4.6554">
        <ele>245</ele>
        <time>2022-05-17T13:53:43.545Z</time>
      </trkpt>
      <trkpt lat="49.83415" lon="4.65541">
        <ele>245</ele>
        <time>2022-05-17T13:53:44.556Z</time>
      </trkpt>
      <trkpt lat="49.83415" lon="4.65541">
        <ele>245</ele>
        <time>2022-05-17T13:53:45.562Z</time>
      </trkpt>
      <trkpt lat="49.83419" lon="4.65544">
        <ele>245</ele>
        <time>2022-05-17T13:53:46.545Z</time>
      </trkpt>
      <trkpt lat="49.83419" lon="4.65544">
        <ele>245</ele>
        <time>2022-05-17T13:53:47.550Z</time>
      </trkpt>
      <trkpt lat="49.83423" lon="4.65546">
        <ele>246</ele>
        <time>2022-05-17T13:53:48.545Z</time>
      </trkpt>
      <trkpt lat="49.83424" lon="4.65546">
        <ele>246</ele>
        <time>2022-05-17T13:53:49.530Z</time>
      </trkpt>
      <trkpt lat="49.83424" lon="4.65546">
        <ele>246</ele>
        <time>2022-05-17T13:53:50.536Z</time>
      </trkpt>
      <trkpt lat="49.83426" lon="4.65547">
        <ele>246</ele>
        <time>2022-05-17T13:53:51.528Z</time>
      </trkpt>
      <trkpt lat="49.83426" lon="4.65547">
        <ele>246</ele>
        <time>2022-05-17T13:53:52.533Z</time>
      </trkpt>
      <trkpt lat="49.83428" lon="4.65547">
        <ele>246</ele>
        <time>2022-05-17T13:53:53.535Z</time>
      </trkpt>
      <trkpt lat="49.83429" lon="4.65547">
        <ele>246</ele>
        <time>2022-05-17T13:53:54.559Z</time>
      </trkpt>
      <trkpt lat="49.83429" lon="4.65547">
        <ele>246</ele>
        <time>2022-05-17T13:53:55.524Z</time>
      </trkpt>
      <trkpt lat="49.83431" lon="4.65548">
        <ele>247</ele>
        <time>2022-05-17T13:53:56.542Z</time>
      </trkpt>
      <trkpt lat="49.83432" lon="4.65549">
        <ele>247</ele>
        <time>2022-05-17T13:53:57.541Z</time>
      </trkpt>
      <trkpt lat="49.83432" lon="4.65549">
        <ele>247</ele>
        <time>2022-05-17T13:53:58.546Z</time>
      </trkpt>
      <trkpt lat="49.83435" lon="4.65549">
        <ele>247</ele>
        <time>2022-05-17T13:53:59.545Z</time>
      </trkpt>
      <trkpt lat="49.83437" lon="4.6555">
        <ele>247</ele>
        <time>2022-05-17T13:54:00.545Z</time>
      </trkpt>
      <trkpt lat="49.83438" lon="4.6555">
        <ele>248</ele>
        <time>2022-05-17T13:54:01.535Z</time>
      </trkpt>
      <trkpt lat="49.83438" lon="4.6555">
        <ele>248</ele>
        <time>2022-05-17T13:54:02.540Z</time>
      </trkpt>
      <trkpt lat="49.83441" lon="4.65549">
        <ele>248</ele>
        <time>2022-05-17T13:54:03.542Z</time>
      </trkpt>
      <trkpt lat="49.83442" lon="4.6555">
        <ele>248</ele>
        <time>2022-05-17T13:54:04.525Z</time>
      </trkpt>
      <trkpt lat="49.83444" lon="4.6555">
        <ele>248</ele>
        <time>2022-05-17T13:54:05.529Z</time>
      </trkpt>
      <trkpt lat="49.83444" lon="4.6555">
        <ele>248</ele>
        <time>2022-05-17T13:54:06.534Z</time>
      </trkpt>
      <trkpt lat="49.83446" lon="4.65549">
        <ele>248</ele>
        <time>2022-05-17T13:54:07.524Z</time>
      </trkpt>
      <trkpt lat="49.83446" lon="4.65549">
        <ele>248</ele>
        <time>2022-05-17T13:54:08.534Z</time>
      </trkpt>
      <trkpt lat="49.83449" lon="4.65549">
        <ele>249</ele>
        <time>2022-05-17T13:54:09.527Z</time>
      </trkpt>
      <trkpt lat="49.83449" lon="4.65549">
        <ele>249</ele>
        <time>2022-05-17T13:54:10.532Z</time>
      </trkpt>
      <trkpt lat="49.83452" lon="4.65549">
        <ele>249</ele>
        <time>2022-05-17T13:54:11.524Z</time>
      </trkpt>
      <trkpt lat="49.83454" lon="4.65548">
        <ele>249</ele>
        <time>2022-05-17T13:54:12.529Z</time>
      </trkpt>
      <trkpt lat="49.83454" lon="4.65548">
        <ele>249</ele>
        <time>2022-05-17T13:54:13.534Z</time>
      </trkpt>
      <trkpt lat="49.83456" lon="4.65548">
        <ele>250</ele>
        <time>2022-05-17T13:54:14.530Z</time>
      </trkpt>
      <trkpt lat="49.83456" lon="4.65548">
        <ele>250</ele>
        <time>2022-05-17T13:54:15.535Z</time>
      </trkpt>
      <trkpt lat="49.83462" lon="4.6555">
        <ele>250</ele>
        <time>2022-05-17T13:54:16.541Z</time>
      </trkpt>
      <trkpt lat="49.83464" lon="4.6555">
        <ele>250</ele>
        <time>2022-05-17T13:54:17.532Z</time>
      </trkpt>
      <trkpt lat="49.83467" lon="4.6555">
        <ele>250</ele>
        <time>2022-05-17T13:54:18.558Z</time>
      </trkpt>
      <trkpt lat="49.83467" lon="4.6555">
        <ele>250</ele>
        <time>2022-05-17T13:54:19.526Z</time>
      </trkpt>
      <trkpt lat="49.83471" lon="4.65548">
        <ele>250</ele>
        <time>2022-05-17T13:54:20.529Z</time>
      </trkpt>
      <trkpt lat="49.83471" lon="4.65548">
        <ele>250</ele>
        <time>2022-05-17T13:54:21.532Z</time>
      </trkpt>
      <trkpt lat="49.83474" lon="4.65546">
        <ele>250</ele>
        <time>2022-05-17T13:54:22.541Z</time>
      </trkpt>
      <trkpt lat="49.83474" lon="4.65546">
        <ele>250</ele>
        <time>2022-05-17T13:54:23.556Z</time>
      </trkpt>
      <trkpt lat="49.83477" lon="4.65543">
        <ele>251</ele>
        <time>2022-05-17T13:54:24.555Z</time>
      </trkpt>
      <trkpt lat="49.83478" lon="4.65542">
        <ele>251</ele>
        <time>2022-05-17T13:54:25.547Z</time>
      </trkpt>
      <trkpt lat="49.83478" lon="4.65542">
        <ele>251</ele>
        <time>2022-05-17T13:54:26.552Z</time>
      </trkpt>
      <trkpt lat="49.8348" lon="4.6554">
        <ele>251</ele>
        <time>2022-05-17T13:54:27.545Z</time>
      </trkpt>
      <trkpt lat="49.83481" lon="4.65539">
        <ele>251</ele>
        <time>2022-05-17T13:54:28.528Z</time>
      </trkpt>
      <trkpt lat="49.83481" lon="4.65539">
        <ele>251</ele>
        <time>2022-05-17T13:54:29.534Z</time>
      </trkpt>
      <trkpt lat="49.83483" lon="4.65537">
        <ele>251</ele>
        <time>2022-05-17T13:54:30.560Z</time>
      </trkpt>
      <trkpt lat="49.83485" lon="4.65536">
        <ele>251</ele>
        <time>2022-05-17T13:54:31.563Z</time>
      </trkpt>
      <trkpt lat="49.83485" lon="4.65536">
        <ele>251</ele>
        <time>2022-05-17T13:54:32.542Z</time>
      </trkpt>
      <trkpt lat="49.83487" lon="4.65534">
        <ele>252</ele>
        <time>2022-05-17T13:54:33.537Z</time>
      </trkpt>
      <trkpt lat="49.83487" lon="4.65534">
        <ele>252</ele>
        <time>2022-05-17T13:54:34.563Z</time>
      </trkpt>
      <trkpt lat="49.83489" lon="4.65532">
        <ele>252</ele>
        <time>2022-05-17T13:54:35.527Z</time>
      </trkpt>
      <trkpt lat="49.83489" lon="4.65532">
        <ele>252</ele>
        <time>2022-05-17T13:54:36.531Z</time>
      </trkpt>
      <trkpt lat="49.83492" lon="4.6553">
        <ele>252</ele>
        <time>2022-05-17T13:54:37.557Z</time>
      </trkpt>
      <trkpt lat="49.83492" lon="4.6553">
        <ele>252</ele>
        <time>2022-05-17T13:54:38.562Z</time>
      </trkpt>
      <trkpt lat="49.83495" lon="4.65528">
        <ele>252</ele>
        <time>2022-05-17T13:54:39.544Z</time>
      </trkpt>
      <trkpt lat="49.83496" lon="4.65526">
        <ele>252</ele>
        <time>2022-05-17T13:54:40.546Z</time>
      </trkpt>
      <trkpt lat="49.83496" lon="4.65526">
        <ele>252</ele>
        <time>2022-05-17T13:54:41.551Z</time>
      </trkpt>
      <trkpt lat="49.83499" lon="4.65524">
        <ele>253</ele>
        <time>2022-05-17T13:54:42.546Z</time>
      </trkpt>
      <trkpt lat="49.83499" lon="4.65524">
        <ele>253</ele>
        <time>2022-05-17T13:54:43.552Z</time>
      </trkpt>
      <trkpt lat="49.83502" lon="4.65521">
        <ele>253</ele>
        <time>2022-05-17T13:54:44.555Z</time>
      </trkpt>
      <trkpt lat="49.83503" lon="4.65519">
        <ele>253</ele>
        <time>2022-05-17T13:54:45.545Z</time>
      </trkpt>
      <trkpt lat="49.83503" lon="4.65519">
        <ele>253</ele>
        <time>2022-05-17T13:54:46.551Z</time>
      </trkpt>
      <trkpt lat="49.83506" lon="4.65514">
        <ele>253</ele>
        <time>2022-05-17T13:54:47.538Z</time>
      </trkpt>
      <trkpt lat="49.83508" lon="4.65513">
        <ele>253</ele>
        <time>2022-05-17T13:54:48.564Z</time>
      </trkpt>
      <trkpt lat="49.8351" lon="4.65512">
        <ele>253</ele>
        <time>2022-05-17T13:54:49.556Z</time>
      </trkpt>
      <trkpt lat="49.8351" lon="4.65512">
        <ele>253</ele>
        <time>2022-05-17T13:54:50.525Z</time>
      </trkpt>
      <trkpt lat="49.83512" lon="4.65509">
        <ele>254</ele>
        <time>2022-05-17T13:54:51.555Z</time>
      </trkpt>
      <trkpt lat="49.83512" lon="4.65509">
        <ele>254</ele>
        <time>2022-05-17T13:54:52.526Z</time>
      </trkpt>
      <trkpt lat="49.83514" lon="4.65506">
        <ele>254</ele>
        <time>2022-05-17T13:54:53.548Z</time>
      </trkpt>
      <trkpt lat="49.83516" lon="4.65504">
        <ele>254</ele>
        <time>2022-05-17T13:54:54.527Z</time>
      </trkpt>
      <trkpt lat="49.83517" lon="4.65504">
        <ele>254</ele>
        <time>2022-05-17T13:54:55.550Z</time>
      </trkpt>
      <trkpt lat="49.83517" lon="4.65504">
        <ele>254</ele>
        <time>2022-05-17T13:54:56.557Z</time>
      </trkpt>
      <trkpt lat="49.83519" lon="4.65502">
        <ele>255</ele>
        <time>2022-05-17T13:54:57.552Z</time>
      </trkpt>
      <trkpt lat="49.83521" lon="4.655">
        <ele>255</ele>
        <time>2022-05-17T13:54:58.540Z</time>
      </trkpt>
      <trkpt lat="49.83523" lon="4.65499">
        <ele>255</ele>
        <time>2022-05-17T13:54:59.535Z</time>
      </trkpt>
      <trkpt lat="49.83523" lon="4.65499">
        <ele>255</ele>
        <time>2022-05-17T13:55:00.541Z</time>
      </trkpt>
      <trkpt lat="49.83526" lon="4.65496">
        <ele>255</ele>
        <time>2022-05-17T13:55:01.533Z</time>
      </trkpt>
      <trkpt lat="49.83526" lon="4.65496">
        <ele>255</ele>
        <time>2022-05-17T13:55:02.538Z</time>
      </trkpt>
      <trkpt lat="49.8353" lon="4.65493">
        <ele>256</ele>
        <time>2022-05-17T13:55:03.534Z</time>
      </trkpt>
      <trkpt lat="49.8353" lon="4.65493">
        <ele>256</ele>
        <time>2022-05-17T13:55:04.540Z</time>
      </trkpt>
      <trkpt lat="49.83533" lon="4.65491">
        <ele>256</ele>
        <time>2022-05-17T13:55:05.526Z</time>
      </trkpt>
      <trkpt lat="49.83536" lon="4.65488">
        <ele>256</ele>
        <time>2022-05-17T13:55:06.530Z</time>
      </trkpt>
      <trkpt lat="49.83536" lon="4.65488">
        <ele>256</ele>
        <time>2022-05-17T13:55:07.535Z</time>
      </trkpt>
      <trkpt lat="49.8354" lon="4.65485">
        <ele>256</ele>
        <time>2022-05-17T13:55:08.563Z</time>
      </trkpt>
      <trkpt lat="49.83542" lon="4.65483">
        <ele>256</ele>
        <time>2022-05-17T13:55:09.552Z</time>
      </trkpt>
      <trkpt lat="49.83542" lon="4.65483">
        <ele>256</ele>
        <time>2022-05-17T13:55:10.526Z</time>
      </trkpt>
      <trkpt lat="49.83546" lon="4.6548">
        <ele>257</ele>
        <time>2022-05-17T13:55:11.555Z</time>
      </trkpt>
      <trkpt lat="49.83546" lon="4.6548">
        <ele>257</ele>
        <time>2022-05-17T13:55:12.524Z</time>
      </trkpt>
      <trkpt lat="49.8355" lon="4.65476">
        <ele>257</ele>
        <time>2022-05-17T13:55:13.554Z</time>
      </trkpt>
      <trkpt lat="49.8355" lon="4.65476">
        <ele>257</ele>
        <time>2022-05-17T13:55:14.524Z</time>
      </trkpt>
      <trkpt lat="49.83554" lon="4.65473">
        <ele>258</ele>
        <time>2022-05-17T13:55:15.546Z</time>
      </trkpt>
      <trkpt lat="49.83556" lon="4.65472">
        <ele>258</ele>
        <time>2022-05-17T13:55:16.534Z</time>
      </trkpt>
      <trkpt lat="49.83556" lon="4.65472">
        <ele>258</ele>
        <time>2022-05-17T13:55:17.539Z</time>
      </trkpt>
      <trkpt lat="49.83561" lon="4.65468">
        <ele>258</ele>
        <time>2022-05-17T13:55:18.525Z</time>
      </trkpt>
      <trkpt lat="49.83563" lon="4.65466">
        <ele>259</ele>
        <time>2022-05-17T13:55:19.555Z</time>
      </trkpt>
      <trkpt lat="49.83563" lon="4.65466">
        <ele>259</ele>
        <time>2022-05-17T13:55:20.524Z</time>
      </trkpt>
      <trkpt lat="49.83569" lon="4.65463">
        <ele>259</ele>
        <time>2022-05-17T13:55:21.525Z</time>
      </trkpt>
      <trkpt lat="49.83571" lon="4.65461">
        <ele>259</ele>
        <time>2022-05-17T13:55:22.561Z</time>
      </trkpt>
      <trkpt lat="49.83571" lon="4.65461">
        <ele>259</ele>
        <time>2022-05-17T13:55:23.526Z</time>
      </trkpt>
      <trkpt lat="49.83574" lon="4.65459">
        <ele>260</ele>
        <time>2022-05-17T13:55:24.545Z</time>
      </trkpt>
      <trkpt lat="49.83574" lon="4.65459">
        <ele>260</ele>
        <time>2022-05-17T13:55:25.550Z</time>
      </trkpt>
      <trkpt lat="49.83579" lon="4.65458">
        <ele>260</ele>
        <time>2022-05-17T13:55:26.555Z</time>
      </trkpt>
      <trkpt lat="49.83579" lon="4.65458">
        <ele>260</ele>
        <time>2022-05-17T13:55:27.525Z</time>
      </trkpt>
      <trkpt lat="49.83584" lon="4.65456">
        <ele>260</ele>
        <time>2022-05-17T13:55:28.529Z</time>
      </trkpt>
      <trkpt lat="49.83584" lon="4.65456">
        <ele>260</ele>
        <time>2022-05-17T13:55:29.534Z</time>
      </trkpt>
      <trkpt lat="49.83588" lon="4.65454">
        <ele>260</ele>
        <time>2022-05-17T13:55:30.540Z</time>
      </trkpt>
      <trkpt lat="49.83588" lon="4.65454">
        <ele>260</ele>
        <time>2022-05-17T13:55:31.545Z</time>
      </trkpt>
      <trkpt lat="49.83592" lon="4.65453">
        <ele>260</ele>
        <time>2022-05-17T13:55:32.539Z</time>
      </trkpt>
      <trkpt lat="49.83592" lon="4.65453">
        <ele>260</ele>
        <time>2022-05-17T13:55:33.544Z</time>
      </trkpt>
      <trkpt lat="49.83598" lon="4.65452">
        <ele>261</ele>
        <time>2022-05-17T13:55:34.532Z</time>
      </trkpt>
      <trkpt lat="49.83598" lon="4.65452">
        <ele>261</ele>
        <time>2022-05-17T13:55:35.537Z</time>
      </trkpt>
      <trkpt lat="49.83602" lon="4.65452">
        <ele>261</ele>
        <time>2022-05-17T13:55:36.532Z</time>
      </trkpt>
      <trkpt lat="49.83602" lon="4.65452">
        <ele>261</ele>
        <time>2022-05-17T13:55:37.537Z</time>
      </trkpt>
      <trkpt lat="49.83605" lon="4.65451">
        <ele>261</ele>
        <time>2022-05-17T13:55:38.529Z</time>
      </trkpt>
      <trkpt lat="49.83608" lon="4.65449">
        <ele>261</ele>
        <time>2022-05-17T13:55:39.524Z</time>
      </trkpt>
      <trkpt lat="49.83608" lon="4.65449">
        <ele>261</ele>
        <time>2022-05-17T13:55:40.529Z</time>
      </trkpt>
      <trkpt lat="49.83612" lon="4.65448">
        <ele>260</ele>
        <time>2022-05-17T13:55:41.555Z</time>
      </trkpt>
      <trkpt lat="49.83614" lon="4.65447">
        <ele>260</ele>
        <time>2022-05-17T13:55:42.537Z</time>
      </trkpt>
      <trkpt lat="49.83614" lon="4.65447">
        <ele>260</ele>
        <time>2022-05-17T13:55:43.543Z</time>
      </trkpt>
      <trkpt lat="49.83619" lon="4.65445">
        <ele>260</ele>
        <time>2022-05-17T13:55:44.545Z</time>
      </trkpt>
      <trkpt lat="49.83621" lon="4.65443">
        <ele>260</ele>
        <time>2022-05-17T13:55:45.546Z</time>
      </trkpt>
      <trkpt lat="49.83621" lon="4.65443">
        <ele>260</ele>
        <time>2022-05-17T13:55:46.552Z</time>
      </trkpt>
      <trkpt lat="49.83626" lon="4.6544">
        <ele>260</ele>
        <time>2022-05-17T13:55:47.536Z</time>
      </trkpt>
      <trkpt lat="49.83628" lon="4.65439">
        <ele>260</ele>
        <time>2022-05-17T13:55:48.559Z</time>
      </trkpt>
      <trkpt lat="49.83631" lon="4.65438">
        <ele>261</ele>
        <time>2022-05-17T13:55:49.548Z</time>
      </trkpt>
      <trkpt lat="49.83634" lon="4.65437">
        <ele>261</ele>
        <time>2022-05-17T13:55:50.559Z</time>
      </trkpt>
      <trkpt lat="49.83634" lon="4.65437">
        <ele>261</ele>
        <time>2022-05-17T13:55:51.525Z</time>
      </trkpt>
      <trkpt lat="49.83639" lon="4.65434">
        <ele>261</ele>
        <time>2022-05-17T13:55:52.559Z</time>
      </trkpt>
      <trkpt lat="49.83639" lon="4.65434">
        <ele>261</ele>
        <time>2022-05-17T13:55:53.525Z</time>
      </trkpt>
      <trkpt lat="49.83644" lon="4.65431">
        <ele>262</ele>
        <time>2022-05-17T13:55:54.535Z</time>
      </trkpt>
      <trkpt lat="49.83646" lon="4.6543">
        <ele>262</ele>
        <time>2022-05-17T13:55:55.555Z</time>
      </trkpt>
      <trkpt lat="49.83646" lon="4.6543">
        <ele>262</ele>
        <time>2022-05-17T13:55:56.563Z</time>
      </trkpt>
      <trkpt lat="49.83649" lon="4.65428">
        <ele>262</ele>
        <time>2022-05-17T13:55:57.524Z</time>
      </trkpt>
      <trkpt lat="49.8365" lon="4.65427">
        <ele>262</ele>
        <time>2022-05-17T13:55:58.527Z</time>
      </trkpt>
      <trkpt lat="49.8365" lon="4.65427">
        <ele>262</ele>
        <time>2022-05-17T13:55:59.532Z</time>
      </trkpt>
      <trkpt lat="49.83654" lon="4.65426">
        <ele>262</ele>
        <time>2022-05-17T13:56:00.527Z</time>
      </trkpt>
      <trkpt lat="49.83657" lon="4.65425">
        <ele>262</ele>
        <time>2022-05-17T13:56:01.527Z</time>
      </trkpt>
      <trkpt lat="49.83657" lon="4.65425">
        <ele>262</ele>
        <time>2022-05-17T13:56:02.532Z</time>
      </trkpt>
      <trkpt lat="49.83661" lon="4.65423">
        <ele>262</ele>
        <time>2022-05-17T13:56:03.526Z</time>
      </trkpt>
      <trkpt lat="49.83661" lon="4.65423">
        <ele>262</ele>
        <time>2022-05-17T13:56:04.531Z</time>
      </trkpt>
      <trkpt lat="49.83666" lon="4.65421">
        <ele>262</ele>
        <time>2022-05-17T13:56:05.528Z</time>
      </trkpt>
      <trkpt lat="49.83666" lon="4.65421">
        <ele>262</ele>
        <time>2022-05-17T13:56:06.533Z</time>
      </trkpt>
      <trkpt lat="49.8367" lon="4.6542">
        <ele>262</ele>
        <time>2022-05-17T13:56:07.542Z</time>
      </trkpt>
      <trkpt lat="49.8367" lon="4.6542">
        <ele>262</ele>
        <time>2022-05-17T13:56:08.548Z</time>
      </trkpt>
      <trkpt lat="49.83673" lon="4.65419">
        <ele>263</ele>
        <time>2022-05-17T13:56:09.538Z</time>
      </trkpt>
      <trkpt lat="49.83674" lon="4.65419">
        <ele>263</ele>
        <time>2022-05-17T13:56:10.554Z</time>
      </trkpt>
      <trkpt lat="49.83674" lon="4.65419">
        <ele>263</ele>
        <time>2022-05-17T13:56:11.559Z</time>
      </trkpt>
      <trkpt lat="49.83677" lon="4.65418">
        <ele>263</ele>
        <time>2022-05-17T13:56:12.554Z</time>
      </trkpt>
      <trkpt lat="49.8368" lon="4.65419">
        <ele>264</ele>
        <time>2022-05-17T13:56:13.547Z</time>
      </trkpt>
      <trkpt lat="49.8368" lon="4.65419">
        <ele>264</ele>
        <time>2022-05-17T13:56:14.552Z</time>
      </trkpt>
      <trkpt lat="49.83685" lon="4.65418">
        <ele>264</ele>
        <time>2022-05-17T13:56:15.561Z</time>
      </trkpt>
      <trkpt lat="49.83688" lon="4.65419">
        <ele>265</ele>
        <time>2022-05-17T13:56:16.542Z</time>
      </trkpt>
      <trkpt lat="49.8369" lon="4.65419">
        <ele>265</ele>
        <time>2022-05-17T13:56:17.540Z</time>
      </trkpt>
      <trkpt lat="49.8369" lon="4.65419">
        <ele>265</ele>
        <time>2022-05-17T13:56:18.544Z</time>
      </trkpt>
      <trkpt lat="49.83694" lon="4.65418">
        <ele>267</ele>
        <time>2022-05-17T13:56:19.525Z</time>
      </trkpt>
      <trkpt lat="49.83694" lon="4.65418">
        <ele>267</ele>
        <time>2022-05-17T13:56:20.531Z</time>
      </trkpt>
      <trkpt lat="49.83698" lon="4.65416">
        <ele>267</ele>
        <time>2022-05-17T13:56:21.556Z</time>
      </trkpt>
      <trkpt lat="49.837" lon="4.65415">
        <ele>268</ele>
        <time>2022-05-17T13:56:22.555Z</time>
      </trkpt>
      <trkpt lat="49.837" lon="4.65415">
        <ele>268</ele>
        <time>2022-05-17T13:56:23.525Z</time>
      </trkpt>
      <trkpt lat="49.83702" lon="4.65413">
        <ele>269</ele>
        <time>2022-05-17T13:56:24.526Z</time>
      </trkpt>
      <trkpt lat="49.83703" lon="4.65413">
        <ele>269</ele>
        <time>2022-05-17T13:56:25.562Z</time>
      </trkpt>
      <trkpt lat="49.83703" lon="4.65413">
        <ele>269</ele>
        <time>2022-05-17T13:56:26.527Z</time>
      </trkpt>
      <trkpt lat="49.83705" lon="4.65414">
        <ele>270</ele>
        <time>2022-05-17T13:56:27.552Z</time>
      </trkpt>
      <trkpt lat="49.83707" lon="4.65415">
        <ele>270</ele>
        <time>2022-05-17T13:56:28.540Z</time>
      </trkpt>
      <trkpt lat="49.83707" lon="4.65415">
        <ele>270</ele>
        <time>2022-05-17T13:56:29.546Z</time>
      </trkpt>
      <trkpt lat="49.83712" lon="4.65415">
        <ele>270</ele>
        <time>2022-05-17T13:56:30.562Z</time>
      </trkpt>
      <trkpt lat="49.83714" lon="4.65415">
        <ele>271</ele>
        <time>2022-05-17T13:56:31.551Z</time>
      </trkpt>
      <trkpt lat="49.83714" lon="4.65415">
        <ele>271</ele>
        <time>2022-05-17T13:56:32.562Z</time>
      </trkpt>
      <trkpt lat="49.83718" lon="4.65415">
        <ele>271</ele>
        <time>2022-05-17T13:56:33.553Z</time>
      </trkpt>
      <trkpt lat="49.8372" lon="4.65415">
        <ele>271</ele>
        <time>2022-05-17T13:56:34.549Z</time>
      </trkpt>
      <trkpt lat="49.8372" lon="4.65415">
        <ele>271</ele>
        <time>2022-05-17T13:56:35.563Z</time>
      </trkpt>
      <trkpt lat="49.83723" lon="4.65415">
        <ele>271</ele>
        <time>2022-05-17T13:56:36.556Z</time>
      </trkpt>
      <trkpt lat="49.83724" lon="4.65415">
        <ele>272</ele>
        <time>2022-05-17T13:56:37.550Z</time>
      </trkpt>
      <trkpt lat="49.83724" lon="4.65415">
        <ele>272</ele>
        <time>2022-05-17T13:56:38.555Z</time>
      </trkpt>
      <trkpt lat="49.83727" lon="4.65414">
        <ele>272</ele>
        <time>2022-05-17T13:56:39.525Z</time>
      </trkpt>
      <trkpt lat="49.83729" lon="4.65414">
        <ele>273</ele>
        <time>2022-05-17T13:56:40.560Z</time>
      </trkpt>
      <trkpt lat="49.83729" lon="4.65414">
        <ele>273</ele>
        <time>2022-05-17T13:56:41.524Z</time>
      </trkpt>
      <trkpt lat="49.83732" lon="4.65414">
        <ele>273</ele>
        <time>2022-05-17T13:56:42.550Z</time>
      </trkpt>
      <trkpt lat="49.83734" lon="4.65414">
        <ele>273</ele>
        <time>2022-05-17T13:56:43.546Z</time>
      </trkpt>
      <trkpt lat="49.83734" lon="4.65414">
        <ele>273</ele>
        <time>2022-05-17T13:56:44.552Z</time>
      </trkpt>
      <trkpt lat="49.83739" lon="4.65416">
        <ele>273</ele>
        <time>2022-05-17T13:56:45.553Z</time>
      </trkpt>
      <trkpt lat="49.83741" lon="4.65416">
        <ele>273</ele>
        <time>2022-05-17T13:56:46.545Z</time>
      </trkpt>
      <trkpt lat="49.83741" lon="4.65416">
        <ele>273</ele>
        <time>2022-05-17T13:56:47.551Z</time>
      </trkpt>
      <trkpt lat="49.83745" lon="4.65417">
        <ele>274</ele>
        <time>2022-05-17T13:56:48.533Z</time>
      </trkpt>
      <trkpt lat="49.83745" lon="4.65417">
        <ele>274</ele>
        <time>2022-05-17T13:56:49.538Z</time>
      </trkpt>
      <trkpt lat="49.83749" lon="4.65417">
        <ele>274</ele>
        <time>2022-05-17T13:56:50.529Z</time>
      </trkpt>
      <trkpt lat="49.83752" lon="4.65418">
        <ele>274</ele>
        <time>2022-05-17T13:56:51.563Z</time>
      </trkpt>
      <trkpt lat="49.83752" lon="4.65418">
        <ele>274</ele>
        <time>2022-05-17T13:56:52.528Z</time>
      </trkpt>
      <trkpt lat="49.83756" lon="4.65418">
        <ele>274</ele>
        <time>2022-05-17T13:56:53.525Z</time>
      </trkpt>
      <trkpt lat="49.83758" lon="4.65418">
        <ele>274</ele>
        <time>2022-05-17T13:56:54.530Z</time>
      </trkpt>
      <trkpt lat="49.83758" lon="4.65418">
        <ele>274</ele>
        <time>2022-05-17T13:56:55.535Z</time>
      </trkpt>
      <trkpt lat="49.83762" lon="4.65418">
        <ele>274</ele>
        <time>2022-05-17T13:56:56.526Z</time>
      </trkpt>
      <trkpt lat="49.83762" lon="4.65418">
        <ele>274</ele>
        <time>2022-05-17T13:56:57.545Z</time>
      </trkpt>
      <trkpt lat="49.83764" lon="4.65419">
        <ele>274</ele>
        <time>2022-05-17T13:56:58.534Z</time>
      </trkpt>
      <trkpt lat="49.83764" lon="4.65419">
        <ele>274</ele>
        <time>2022-05-17T13:56:59.539Z</time>
      </trkpt>
      <trkpt lat="49.83767" lon="4.65419">
        <ele>274</ele>
        <time>2022-05-17T13:57:00.531Z</time>
      </trkpt>
      <trkpt lat="49.83769" lon="4.65419">
        <ele>274</ele>
        <time>2022-05-17T13:57:01.555Z</time>
      </trkpt>
      <trkpt lat="49.83769" lon="4.65419">
        <ele>274</ele>
        <time>2022-05-17T13:57:02.529Z</time>
      </trkpt>
      <trkpt lat="49.83773" lon="4.65419">
        <ele>275</ele>
        <time>2022-05-17T13:57:03.540Z</time>
      </trkpt>
      <trkpt lat="49.83775" lon="4.65419">
        <ele>276</ele>
        <time>2022-05-17T13:57:04.535Z</time>
      </trkpt>
      <trkpt lat="49.83777" lon="4.65419">
        <ele>276</ele>
        <time>2022-05-17T13:57:05.535Z</time>
      </trkpt>
      <trkpt lat="49.83777" lon="4.65419">
        <ele>276</ele>
        <time>2022-05-17T13:57:06.540Z</time>
      </trkpt>
      <trkpt lat="49.8378" lon="4.65419">
        <ele>276</ele>
        <time>2022-05-17T13:57:07.546Z</time>
      </trkpt>
      <trkpt lat="49.8378" lon="4.65419">
        <ele>276</ele>
        <time>2022-05-17T13:57:08.551Z</time>
      </trkpt>
      <trkpt lat="49.83783" lon="4.6542">
        <ele>276</ele>
        <time>2022-05-17T13:57:09.545Z</time>
      </trkpt>
      <trkpt lat="49.83785" lon="4.65419">
        <ele>277</ele>
        <time>2022-05-17T13:57:10.558Z</time>
      </trkpt>
      <trkpt lat="49.83787" lon="4.65419">
        <ele>276</ele>
        <time>2022-05-17T13:57:11.549Z</time>
      </trkpt>
      <trkpt lat="49.83787" lon="4.65419">
        <ele>276</ele>
        <time>2022-05-17T13:57:12.554Z</time>
      </trkpt>
      <trkpt lat="49.83791" lon="4.65419">
        <ele>278</ele>
        <time>2022-05-17T13:57:13.553Z</time>
      </trkpt>
      <trkpt lat="49.83791" lon="4.65419">
        <ele>278</ele>
        <time>2022-05-17T13:57:14.562Z</time>
      </trkpt>
      <trkpt lat="49.83796" lon="4.65417">
        <ele>280</ele>
        <time>2022-05-17T13:57:15.557Z</time>
      </trkpt>
      <trkpt lat="49.83798" lon="4.65416">
        <ele>280</ele>
        <time>2022-05-17T13:57:16.530Z</time>
      </trkpt>
      <trkpt lat="49.83798" lon="4.65416">
        <ele>280</ele>
        <time>2022-05-17T13:57:17.534Z</time>
      </trkpt>
      <trkpt lat="49.83804" lon="4.65412">
        <ele>280</ele>
        <time>2022-05-17T13:57:18.545Z</time>
      </trkpt>
      <trkpt lat="49.83805" lon="4.65411">
        <ele>280</ele>
        <time>2022-05-17T13:57:19.541Z</time>
      </trkpt>
      <trkpt lat="49.83805" lon="4.65411">
        <ele>280</ele>
        <time>2022-05-17T13:57:20.546Z</time>
      </trkpt>
      <trkpt lat="49.8381" lon="4.6541">
        <ele>281</ele>
        <time>2022-05-17T13:57:21.553Z</time>
      </trkpt>
      <trkpt lat="49.83814" lon="4.65411">
        <ele>281</ele>
        <time>2022-05-17T13:57:22.552Z</time>
      </trkpt>
      <trkpt lat="49.83817" lon="4.65409">
        <ele>282</ele>
        <time>2022-05-17T13:57:23.540Z</time>
      </trkpt>
      <trkpt lat="49.83817" lon="4.65409">
        <ele>282</ele>
        <time>2022-05-17T13:57:24.545Z</time>
      </trkpt>
      <trkpt lat="49.83822" lon="4.65405">
        <ele>281</ele>
        <time>2022-05-17T13:57:25.536Z</time>
      </trkpt>
      <trkpt lat="49.83822" lon="4.65405">
        <ele>281</ele>
        <time>2022-05-17T13:57:26.541Z</time>
      </trkpt>
      <trkpt lat="49.83826" lon="4.65402">
        <ele>281</ele>
        <time>2022-05-17T13:57:27.534Z</time>
      </trkpt>
      <trkpt lat="49.83826" lon="4.65402">
        <ele>281</ele>
        <time>2022-05-17T13:57:28.539Z</time>
      </trkpt>
      <trkpt lat="49.8383" lon="4.65398">
        <ele>281</ele>
        <time>2022-05-17T13:57:29.545Z</time>
      </trkpt>
      <trkpt lat="49.8383" lon="4.65398">
        <ele>281</ele>
        <time>2022-05-17T13:57:30.563Z</time>
      </trkpt>
      <trkpt lat="49.83833" lon="4.65395">
        <ele>282</ele>
        <time>2022-05-17T13:57:31.554Z</time>
      </trkpt>
      <trkpt lat="49.83833" lon="4.65395">
        <ele>282</ele>
        <time>2022-05-17T13:57:32.564Z</time>
      </trkpt>
      <trkpt lat="49.83836" lon="4.65392">
        <ele>282</ele>
        <time>2022-05-17T13:57:33.551Z</time>
      </trkpt>
      <trkpt lat="49.83836" lon="4.65392">
        <ele>282</ele>
        <time>2022-05-17T13:57:34.558Z</time>
      </trkpt>
      <trkpt lat="49.8384" lon="4.65391">
        <ele>282</ele>
        <time>2022-05-17T13:57:35.563Z</time>
      </trkpt>
      <trkpt lat="49.83842" lon="4.65389">
        <ele>282</ele>
        <time>2022-05-17T13:57:36.545Z</time>
      </trkpt>
      <trkpt lat="49.83845" lon="4.65387">
        <ele>283</ele>
        <time>2022-05-17T13:57:37.525Z</time>
      </trkpt>
      <trkpt lat="49.83845" lon="4.65387">
        <ele>283</ele>
        <time>2022-05-17T13:57:38.530Z</time>
      </trkpt>
      <trkpt lat="49.83849" lon="4.65385">
        <ele>283</ele>
        <time>2022-05-17T13:57:39.560Z</time>
      </trkpt>
      <trkpt lat="49.83849" lon="4.65385">
        <ele>283</ele>
        <time>2022-05-17T13:57:40.525Z</time>
      </trkpt>
      <trkpt lat="49.83854" lon="4.65382">
        <ele>283</ele>
        <time>2022-05-17T13:57:41.556Z</time>
      </trkpt>
      <trkpt lat="49.83856" lon="4.6538">
        <ele>283</ele>
        <time>2022-05-17T13:57:42.560Z</time>
      </trkpt>
      <trkpt lat="49.83856" lon="4.6538">
        <ele>283</ele>
        <time>2022-05-17T13:57:43.532Z</time>
      </trkpt>
      <trkpt lat="49.8386" lon="4.65377">
        <ele>283</ele>
        <time>2022-05-17T13:57:44.537Z</time>
      </trkpt>
      <trkpt lat="49.8386" lon="4.65377">
        <ele>283</ele>
        <time>2022-05-17T13:57:45.553Z</time>
      </trkpt>
      <trkpt lat="49.83864" lon="4.65374">
        <ele>283</ele>
        <time>2022-05-17T13:57:46.525Z</time>
      </trkpt>
      <trkpt lat="49.83864" lon="4.65374">
        <ele>283</ele>
        <time>2022-05-17T13:57:47.530Z</time>
      </trkpt>
      <trkpt lat="49.83867" lon="4.65371">
        <ele>283</ele>
        <time>2022-05-17T13:57:48.549Z</time>
      </trkpt>
      <trkpt lat="49.83869" lon="4.65369">
        <ele>283</ele>
        <time>2022-05-17T13:57:49.547Z</time>
      </trkpt>
      <trkpt lat="49.83869" lon="4.65369">
        <ele>283</ele>
        <time>2022-05-17T13:57:50.563Z</time>
      </trkpt>
      <trkpt lat="49.83873" lon="4.65365">
        <ele>284</ele>
        <time>2022-05-17T13:57:51.563Z</time>
      </trkpt>
      <trkpt lat="49.83873" lon="4.65365">
        <ele>284</ele>
        <time>2022-05-17T13:57:52.528Z</time>
      </trkpt>
      <trkpt lat="49.83876" lon="4.65362">
        <ele>284</ele>
        <time>2022-05-17T13:57:53.531Z</time>
      </trkpt>
      <trkpt lat="49.83878" lon="4.6536">
        <ele>284</ele>
        <time>2022-05-17T13:57:54.527Z</time>
      </trkpt>
      <trkpt lat="49.83881" lon="4.65358">
        <ele>285</ele>
        <time>2022-05-17T13:57:55.555Z</time>
      </trkpt>
      <trkpt lat="49.83881" lon="4.65358">
        <ele>285</ele>
        <time>2022-05-17T13:57:56.525Z</time>
      </trkpt>
      <trkpt lat="49.83884" lon="4.65354">
        <ele>285</ele>
        <time>2022-05-17T13:57:57.542Z</time>
      </trkpt>
      <trkpt lat="49.83886" lon="4.65352">
        <ele>285</ele>
        <time>2022-05-17T13:57:58.525Z</time>
      </trkpt>
      <trkpt lat="49.83888" lon="4.65351">
        <ele>285</ele>
        <time>2022-05-17T13:57:59.540Z</time>
      </trkpt>
      <trkpt lat="49.83888" lon="4.65351">
        <ele>285</ele>
        <time>2022-05-17T13:58:00.546Z</time>
      </trkpt>
      <trkpt lat="49.83893" lon="4.65348">
        <ele>285</ele>
        <time>2022-05-17T13:58:01.534Z</time>
      </trkpt>
      <trkpt lat="49.83893" lon="4.65348">
        <ele>285</ele>
        <time>2022-05-17T13:58:02.539Z</time>
      </trkpt>
      <trkpt lat="49.83898" lon="4.65344">
        <ele>286</ele>
        <time>2022-05-17T13:58:03.562Z</time>
      </trkpt>
      <trkpt lat="49.83899" lon="4.65343">
        <ele>286</ele>
        <time>2022-05-17T13:58:04.548Z</time>
      </trkpt>
      <trkpt lat="49.83899" lon="4.65343">
        <ele>286</ele>
        <time>2022-05-17T13:58:05.527Z</time>
      </trkpt>
      <trkpt lat="49.83903" lon="4.65339">
        <ele>286</ele>
        <time>2022-05-17T13:58:06.560Z</time>
      </trkpt>
      <trkpt lat="49.83903" lon="4.65339">
        <ele>286</ele>
        <time>2022-05-17T13:58:07.528Z</time>
      </trkpt>
      <trkpt lat="49.83906" lon="4.65338">
        <ele>286</ele>
        <time>2022-05-17T13:58:08.562Z</time>
      </trkpt>
      <trkpt lat="49.83906" lon="4.65338">
        <ele>286</ele>
        <time>2022-05-17T13:58:09.527Z</time>
      </trkpt>
      <trkpt lat="49.83911" lon="4.65334">
        <ele>286</ele>
        <time>2022-05-17T13:58:10.540Z</time>
      </trkpt>
      <trkpt lat="49.83911" lon="4.65334">
        <ele>286</ele>
        <time>2022-05-17T13:58:11.545Z</time>
      </trkpt>
      <trkpt lat="49.83916" lon="4.65331">
        <ele>287</ele>
        <time>2022-05-17T13:58:12.532Z</time>
      </trkpt>
      <trkpt lat="49.83918" lon="4.6533">
        <ele>287</ele>
        <time>2022-05-17T13:58:13.536Z</time>
      </trkpt>
      <trkpt lat="49.83918" lon="4.6533">
        <ele>287</ele>
        <time>2022-05-17T13:58:14.542Z</time>
      </trkpt>
      <trkpt lat="49.83923" lon="4.65326">
        <ele>287</ele>
        <time>2022-05-17T13:58:15.530Z</time>
      </trkpt>
      <trkpt lat="49.83923" lon="4.65326">
        <ele>287</ele>
        <time>2022-05-17T13:58:16.535Z</time>
      </trkpt>
      <trkpt lat="49.83927" lon="4.65323">
        <ele>287</ele>
        <time>2022-05-17T13:58:17.554Z</time>
      </trkpt>
      <trkpt lat="49.83929" lon="4.65322">
        <ele>288</ele>
        <time>2022-05-17T13:58:18.561Z</time>
      </trkpt>
      <trkpt lat="49.83932" lon="4.65321">
        <ele>288</ele>
        <time>2022-05-17T13:58:19.543Z</time>
      </trkpt>
      <trkpt lat="49.83932" lon="4.65321">
        <ele>288</ele>
        <time>2022-05-17T13:58:20.559Z</time>
      </trkpt>
      <trkpt lat="49.83936" lon="4.65319">
        <ele>288</ele>
        <time>2022-05-17T13:58:21.553Z</time>
      </trkpt>
      <trkpt lat="49.83936" lon="4.65319">
        <ele>288</ele>
        <time>2022-05-17T13:58:22.548Z</time>
      </trkpt>
      <trkpt lat="49.8394" lon="4.65316">
        <ele>288</ele>
        <time>2022-05-17T13:58:23.545Z</time>
      </trkpt>
      <trkpt lat="49.8394" lon="4.65316">
        <ele>288</ele>
        <time>2022-05-17T13:58:24.550Z</time>
      </trkpt>
      <trkpt lat="49.83946" lon="4.65314">
        <ele>288</ele>
        <time>2022-05-17T13:58:25.549Z</time>
      </trkpt>
      <trkpt lat="49.83946" lon="4.65314">
        <ele>288</ele>
        <time>2022-05-17T13:58:26.554Z</time>
      </trkpt>
      <trkpt lat="49.8395" lon="4.65311">
        <ele>288</ele>
        <time>2022-05-17T13:58:27.536Z</time>
      </trkpt>
      <trkpt lat="49.8395" lon="4.65311">
        <ele>288</ele>
        <time>2022-05-17T13:58:28.540Z</time>
      </trkpt>
      <trkpt lat="49.83955" lon="4.65307">
        <ele>289</ele>
        <time>2022-05-17T13:58:29.545Z</time>
      </trkpt>
      <trkpt lat="49.83956" lon="4.65304">
        <ele>289</ele>
        <time>2022-05-17T13:58:30.545Z</time>
      </trkpt>
      <trkpt lat="49.83958" lon="4.65302">
        <ele>289</ele>
        <time>2022-05-17T13:58:31.530Z</time>
      </trkpt>
      <trkpt lat="49.83958" lon="4.65302">
        <ele>289</ele>
        <time>2022-05-17T13:58:32.535Z</time>
      </trkpt>
      <trkpt lat="49.83961" lon="4.65296">
        <ele>289</ele>
        <time>2022-05-17T13:58:33.533Z</time>
      </trkpt>
      <trkpt lat="49.83961" lon="4.65296">
        <ele>289</ele>
        <time>2022-05-17T13:58:34.538Z</time>
      </trkpt>
      <trkpt lat="49.83965" lon="4.6529">
        <ele>289</ele>
        <time>2022-05-17T13:58:35.529Z</time>
      </trkpt>
      <trkpt lat="49.83966" lon="4.65287">
        <ele>289</ele>
        <time>2022-05-17T13:58:36.535Z</time>
      </trkpt>
      <trkpt lat="49.83966" lon="4.65287">
        <ele>289</ele>
        <time>2022-05-17T13:58:37.540Z</time>
      </trkpt>
      <trkpt lat="49.83969" lon="4.65281">
        <ele>289</ele>
        <time>2022-05-17T13:58:38.536Z</time>
      </trkpt>
      <trkpt lat="49.83969" lon="4.65281">
        <ele>289</ele>
        <time>2022-05-17T13:58:39.541Z</time>
      </trkpt>
      <trkpt lat="49.83973" lon="4.65274">
        <ele>289</ele>
        <time>2022-05-17T13:58:40.549Z</time>
      </trkpt>
      <trkpt lat="49.83973" lon="4.65274">
        <ele>289</ele>
        <time>2022-05-17T13:58:41.554Z</time>
      </trkpt>
      <trkpt lat="49.83977" lon="4.65266">
        <ele>290</ele>
        <time>2022-05-17T13:58:42.547Z</time>
      </trkpt>
      <trkpt lat="49.83979" lon="4.65262">
        <ele>290</ele>
        <time>2022-05-17T13:58:43.546Z</time>
      </trkpt>
      <trkpt lat="49.83979" lon="4.65262">
        <ele>290</ele>
        <time>2022-05-17T13:58:44.551Z</time>
      </trkpt>
      <trkpt lat="49.83983" lon="4.65255">
        <ele>290</ele>
        <time>2022-05-17T13:58:45.524Z</time>
      </trkpt>
      <trkpt lat="49.83983" lon="4.65255">
        <ele>290</ele>
        <time>2022-05-17T13:58:46.529Z</time>
      </trkpt>
      <trkpt lat="49.83985" lon="4.65247">
        <ele>290</ele>
        <time>2022-05-17T13:58:47.555Z</time>
      </trkpt>
      <trkpt lat="49.83985" lon="4.65247">
        <ele>290</ele>
        <time>2022-05-17T13:58:48.563Z</time>
      </trkpt>
      <trkpt lat="49.83989" lon="4.65239">
        <ele>290</ele>
        <time>2022-05-17T13:58:49.563Z</time>
      </trkpt>
      <trkpt lat="49.83991" lon="4.65236">
        <ele>290</ele>
        <time>2022-05-17T13:58:50.529Z</time>
      </trkpt>
      <trkpt lat="49.83991" lon="4.65236">
        <ele>290</ele>
        <time>2022-05-17T13:58:51.541Z</time>
      </trkpt>
      <trkpt lat="49.83995" lon="4.65228">
        <ele>290</ele>
        <time>2022-05-17T13:58:52.535Z</time>
      </trkpt>
      <trkpt lat="49.83997" lon="4.65224">
        <ele>290</ele>
        <time>2022-05-17T13:58:53.528Z</time>
      </trkpt>
      <trkpt lat="49.83997" lon="4.65224">
        <ele>290</ele>
        <time>2022-05-17T13:58:54.533Z</time>
      </trkpt>
      <trkpt lat="49.84001" lon="4.65215">
        <ele>291</ele>
        <time>2022-05-17T13:58:55.536Z</time>
      </trkpt>
      <trkpt lat="49.84003" lon="4.65211">
        <ele>291</ele>
        <time>2022-05-17T13:58:56.525Z</time>
      </trkpt>
      <trkpt lat="49.84003" lon="4.65211">
        <ele>291</ele>
        <time>2022-05-17T13:58:57.530Z</time>
      </trkpt>
      <trkpt lat="49.84005" lon="4.65201">
        <ele>291</ele>
        <time>2022-05-17T13:58:58.563Z</time>
      </trkpt>
      <trkpt lat="49.84005" lon="4.65201">
        <ele>291</ele>
        <time>2022-05-17T13:58:59.528Z</time>
      </trkpt>
      <trkpt lat="49.84008" lon="4.65193">
        <ele>291</ele>
        <time>2022-05-17T13:59:00.525Z</time>
      </trkpt>
      <trkpt lat="49.84009" lon="4.65189">
        <ele>291</ele>
        <time>2022-05-17T13:59:01.530Z</time>
      </trkpt>
      <trkpt lat="49.84009" lon="4.65189">
        <ele>291</ele>
        <time>2022-05-17T13:59:02.535Z</time>
      </trkpt>
      <trkpt lat="49.84012" lon="4.65182">
        <ele>292</ele>
        <time>2022-05-17T13:59:03.555Z</time>
      </trkpt>
      <trkpt lat="49.84012" lon="4.65182">
        <ele>292</ele>
        <time>2022-05-17T13:59:04.564Z</time>
      </trkpt>
      <trkpt lat="49.84016" lon="4.65175">
        <ele>292</ele>
        <time>2022-05-17T13:59:05.556Z</time>
      </trkpt>
      <trkpt lat="49.84016" lon="4.65175">
        <ele>292</ele>
        <time>2022-05-17T13:59:06.564Z</time>
      </trkpt>
      <trkpt lat="49.84019" lon="4.65169">
        <ele>293</ele>
        <time>2022-05-17T13:59:07.554Z</time>
      </trkpt>
      <trkpt lat="49.84019" lon="4.65169">
        <ele>293</ele>
        <time>2022-05-17T13:59:08.527Z</time>
      </trkpt>
      <trkpt lat="49.84023" lon="4.65163">
        <ele>293</ele>
        <time>2022-05-17T13:59:09.561Z</time>
      </trkpt>
      <trkpt lat="49.84023" lon="4.65163">
        <ele>293</ele>
        <time>2022-05-17T13:59:10.526Z</time>
      </trkpt>
      <trkpt lat="49.84026" lon="4.65157">
        <ele>293</ele>
        <time>2022-05-17T13:59:11.524Z</time>
      </trkpt>
      <trkpt lat="49.84026" lon="4.65157">
        <ele>293</ele>
        <time>2022-05-17T13:59:12.542Z</time>
      </trkpt>
      <trkpt lat="49.84031" lon="4.6515">
        <ele>294</ele>
        <time>2022-05-17T13:59:13.526Z</time>
      </trkpt>
      <trkpt lat="49.84031" lon="4.6515">
        <ele>294</ele>
        <time>2022-05-17T13:59:14.531Z</time>
      </trkpt>
      <trkpt lat="49.84036" lon="4.65143">
        <ele>293</ele>
        <time>2022-05-17T13:59:15.525Z</time>
      </trkpt>
      <trkpt lat="49.84036" lon="4.65143">
        <ele>293</ele>
        <time>2022-05-17T13:59:16.530Z</time>
      </trkpt>
      <trkpt lat="49.84041" lon="4.65138">
        <ele>293</ele>
        <time>2022-05-17T13:59:17.526Z</time>
      </trkpt>
      <trkpt lat="49.84044" lon="4.65135">
        <ele>293</ele>
        <time>2022-05-17T13:59:18.545Z</time>
      </trkpt>
      <trkpt lat="49.84044" lon="4.65135">
        <ele>293</ele>
        <time>2022-05-17T13:59:19.551Z</time>
      </trkpt>
      <trkpt lat="49.8405" lon="4.6513">
        <ele>293</ele>
        <time>2022-05-17T13:59:20.559Z</time>
      </trkpt>
      <trkpt lat="49.8405" lon="4.6513">
        <ele>293</ele>
        <time>2022-05-17T13:59:21.533Z</time>
      </trkpt>
      <trkpt lat="49.84056" lon="4.65123">
        <ele>293</ele>
        <time>2022-05-17T13:59:22.554Z</time>
      </trkpt>
      <trkpt lat="49.84059" lon="4.6512">
        <ele>293</ele>
        <time>2022-05-17T13:59:23.552Z</time>
      </trkpt>
      <trkpt lat="49.84061" lon="4.65117">
        <ele>293</ele>
        <time>2022-05-17T13:59:24.536Z</time>
      </trkpt>
      <trkpt lat="49.84061" lon="4.65117">
        <ele>293</ele>
        <time>2022-05-17T13:59:25.541Z</time>
      </trkpt>
      <trkpt lat="49.84066" lon="4.65109">
        <ele>293</ele>
        <time>2022-05-17T13:59:26.532Z</time>
      </trkpt>
      <trkpt lat="49.84066" lon="4.65109">
        <ele>293</ele>
        <time>2022-05-17T13:59:27.537Z</time>
      </trkpt>
      <trkpt lat="49.84072" lon="4.651">
        <ele>293</ele>
        <time>2022-05-17T13:59:28.530Z</time>
      </trkpt>
      <trkpt lat="49.84072" lon="4.651">
        <ele>293</ele>
        <time>2022-05-17T13:59:29.535Z</time>
      </trkpt>
      <trkpt lat="49.84078" lon="4.65089">
        <ele>292</ele>
        <time>2022-05-17T13:59:30.530Z</time>
      </trkpt>
      <trkpt lat="49.84082" lon="4.65083">
        <ele>292</ele>
        <time>2022-05-17T13:59:31.552Z</time>
      </trkpt>
      <trkpt lat="49.84082" lon="4.65083">
        <ele>292</ele>
        <time>2022-05-17T13:59:32.560Z</time>
      </trkpt>
      <trkpt lat="49.84088" lon="4.65074">
        <ele>293</ele>
        <time>2022-05-17T13:59:33.536Z</time>
      </trkpt>
      <trkpt lat="49.84091" lon="4.6507">
        <ele>293</ele>
        <time>2022-05-17T13:59:34.555Z</time>
      </trkpt>
      <trkpt lat="49.84091" lon="4.6507">
        <ele>293</ele>
        <time>2022-05-17T13:59:35.562Z</time>
      </trkpt>
      <trkpt lat="49.84097" lon="4.65063">
        <ele>292</ele>
        <time>2022-05-17T13:59:36.546Z</time>
      </trkpt>
      <trkpt lat="49.84097" lon="4.65063">
        <ele>292</ele>
        <time>2022-05-17T13:59:37.552Z</time>
      </trkpt>
      <trkpt lat="49.84102" lon="4.65057">
        <ele>292</ele>
        <time>2022-05-17T13:59:38.545Z</time>
      </trkpt>
      <trkpt lat="49.84102" lon="4.65057">
        <ele>292</ele>
        <time>2022-05-17T13:59:39.549Z</time>
      </trkpt>
      <trkpt lat="49.84107" lon="4.65052">
        <ele>292</ele>
        <time>2022-05-17T13:59:40.555Z</time>
      </trkpt>
      <trkpt lat="49.84107" lon="4.65052">
        <ele>292</ele>
        <time>2022-05-17T13:59:41.526Z</time>
      </trkpt>
      <trkpt lat="49.84113" lon="4.65047">
        <ele>292</ele>
        <time>2022-05-17T13:59:42.556Z</time>
      </trkpt>
      <trkpt lat="49.84116" lon="4.65045">
        <ele>292</ele>
        <time>2022-05-17T13:59:43.559Z</time>
      </trkpt>
      <trkpt lat="49.84116" lon="4.65045">
        <ele>292</ele>
        <time>2022-05-17T13:59:44.524Z</time>
      </trkpt>
      <trkpt lat="49.84122" lon="4.6504">
        <ele>293</ele>
        <time>2022-05-17T13:59:45.553Z</time>
      </trkpt>
      <trkpt lat="49.84122" lon="4.6504">
        <ele>293</ele>
        <time>2022-05-17T13:59:46.560Z</time>
      </trkpt>
      <trkpt lat="49.84129" lon="4.65032">
        <ele>293</ele>
        <time>2022-05-17T13:59:47.551Z</time>
      </trkpt>
      <trkpt lat="49.84133" lon="4.65029">
        <ele>293</ele>
        <time>2022-05-17T13:59:48.532Z</time>
      </trkpt>
      <trkpt lat="49.84133" lon="4.65029">
        <ele>293</ele>
        <time>2022-05-17T13:59:49.538Z</time>
      </trkpt>
      <trkpt lat="49.84138" lon="4.65025">
        <ele>292</ele>
        <time>2022-05-17T13:59:50.554Z</time>
      </trkpt>
      <trkpt lat="49.84138" lon="4.65025">
        <ele>292</ele>
        <time>2022-05-17T13:59:51.560Z</time>
      </trkpt>
      <trkpt lat="49.84144" lon="4.65019">
        <ele>292</ele>
        <time>2022-05-17T13:59:52.558Z</time>
      </trkpt>
      <trkpt lat="49.84144" lon="4.65019">
        <ele>292</ele>
        <time>2022-05-17T13:59:53.563Z</time>
      </trkpt>
      <trkpt lat="49.84152" lon="4.65013">
        <ele>291</ele>
        <time>2022-05-17T13:59:54.547Z</time>
      </trkpt>
      <trkpt lat="49.84156" lon="4.6501">
        <ele>290</ele>
        <time>2022-05-17T13:59:55.534Z</time>
      </trkpt>
      <trkpt lat="49.84156" lon="4.6501">
        <ele>290</ele>
        <time>2022-05-17T13:59:56.539Z</time>
      </trkpt>
      <trkpt lat="49.84166" lon="4.65003">
        <ele>290</ele>
        <time>2022-05-17T13:59:57.563Z</time>
      </trkpt>
      <trkpt lat="49.84171" lon="4.65001">
        <ele>290</ele>
        <time>2022-05-17T13:59:58.543Z</time>
      </trkpt>
      <trkpt lat="49.84171" lon="4.65001">
        <ele>290</ele>
        <time>2022-05-17T13:59:59.549Z</time>
      </trkpt>
      <trkpt lat="49.84178" lon="4.64998">
        <ele>290</ele>
        <time>2022-05-17T14:00:00.557Z</time>
      </trkpt>
      <trkpt lat="49.84178" lon="4.64998">
        <ele>290</ele>
        <time>2022-05-17T14:00:01.526Z</time>
      </trkpt>
      <trkpt lat="49.84185" lon="4.64997">
        <ele>291</ele>
        <time>2022-05-17T14:00:02.525Z</time>
      </trkpt>
      <trkpt lat="49.84189" lon="4.64996">
        <ele>291</ele>
        <time>2022-05-17T14:00:03.561Z</time>
      </trkpt>
      <trkpt lat="49.84189" lon="4.64996">
        <ele>291</ele>
        <time>2022-05-17T14:00:04.527Z</time>
      </trkpt>
      <trkpt lat="49.84196" lon="4.64993">
        <ele>292</ele>
        <time>2022-05-17T14:00:05.555Z</time>
      </trkpt>
      <trkpt lat="49.842" lon="4.64992">
        <ele>291</ele>
        <time>2022-05-17T14:00:06.545Z</time>
      </trkpt>
      <trkpt lat="49.84203" lon="4.64991">
        <ele>291</ele>
        <time>2022-05-17T14:00:07.534Z</time>
      </trkpt>
      <trkpt lat="49.84203" lon="4.64991">
        <ele>291</ele>
        <time>2022-05-17T14:00:08.539Z</time>
      </trkpt>
      <trkpt lat="49.84211" lon="4.6499">
        <ele>291</ele>
        <time>2022-05-17T14:00:09.525Z</time>
      </trkpt>
      <trkpt lat="49.84211" lon="4.6499">
        <ele>291</ele>
        <time>2022-05-17T14:00:10.531Z</time>
      </trkpt>
      <trkpt lat="49.84219" lon="4.64989">
        <ele>290</ele>
        <time>2022-05-17T14:00:11.562Z</time>
      </trkpt>
      <trkpt lat="49.84224" lon="4.64989">
        <ele>289</ele>
        <time>2022-05-17T14:00:12.550Z</time>
      </trkpt>
      <trkpt lat="49.84229" lon="4.64988">
        <ele>288</ele>
        <time>2022-05-17T14:00:13.537Z</time>
      </trkpt>
      <trkpt lat="49.84229" lon="4.64988">
        <ele>288</ele>
        <time>2022-05-17T14:00:14.542Z</time>
      </trkpt>
      <trkpt lat="49.84237" lon="4.64987">
        <ele>288</ele>
        <time>2022-05-17T14:00:15.549Z</time>
      </trkpt>
      <trkpt lat="49.84237" lon="4.64987">
        <ele>288</ele>
        <time>2022-05-17T14:00:16.555Z</time>
      </trkpt>
      <trkpt lat="49.84244" lon="4.64987">
        <ele>288</ele>
        <time>2022-05-17T14:00:17.551Z</time>
      </trkpt>
      <trkpt lat="49.84249" lon="4.64987">
        <ele>287</ele>
        <time>2022-05-17T14:00:18.553Z</time>
      </trkpt>
      <trkpt lat="49.84249" lon="4.64987">
        <ele>287</ele>
        <time>2022-05-17T14:00:19.562Z</time>
      </trkpt>
      <trkpt lat="49.84258" lon="4.64989">
        <ele>287</ele>
        <time>2022-05-17T14:00:20.550Z</time>
      </trkpt>
      <trkpt lat="49.84258" lon="4.64989">
        <ele>287</ele>
        <time>2022-05-17T14:00:21.556Z</time>
      </trkpt>
      <trkpt lat="49.84266" lon="4.64991">
        <ele>287</ele>
        <time>2022-05-17T14:00:22.547Z</time>
      </trkpt>
      <trkpt lat="49.84271" lon="4.64993">
        <ele>286</ele>
        <time>2022-05-17T14:00:23.557Z</time>
      </trkpt>
      <trkpt lat="49.84271" lon="4.64993">
        <ele>286</ele>
        <time>2022-05-17T14:00:24.524Z</time>
      </trkpt>
      <trkpt lat="49.84281" lon="4.64995">
        <ele>285</ele>
        <time>2022-05-17T14:00:25.561Z</time>
      </trkpt>
      <trkpt lat="49.84281" lon="4.64995">
        <ele>285</ele>
        <time>2022-05-17T14:00:26.526Z</time>
      </trkpt>
      <trkpt lat="49.84292" lon="4.64998">
        <ele>285</ele>
        <time>2022-05-17T14:00:27.530Z</time>
      </trkpt>
      <trkpt lat="49.84292" lon="4.64998">
        <ele>285</ele>
        <time>2022-05-17T14:00:28.535Z</time>
      </trkpt>
      <trkpt lat="49.84306" lon="4.65">
        <ele>284</ele>
        <time>2022-05-17T14:00:29.526Z</time>
      </trkpt>
      <trkpt lat="49.84312" lon="4.65001">
        <ele>284</ele>
        <time>2022-05-17T14:00:30.527Z</time>
      </trkpt>
      <trkpt lat="49.84312" lon="4.65001">
        <ele>284</ele>
        <time>2022-05-17T14:00:31.532Z</time>
      </trkpt>
      <trkpt lat="49.84323" lon="4.65003">
        <ele>284</ele>
        <time>2022-05-17T14:00:32.533Z</time>
      </trkpt>
      <trkpt lat="49.84323" lon="4.65003">
        <ele>284</ele>
        <time>2022-05-17T14:00:33.538Z</time>
      </trkpt>
      <trkpt lat="49.84335" lon="4.65004">
        <ele>283</ele>
        <time>2022-05-17T14:00:34.556Z</time>
      </trkpt>
      <trkpt lat="49.84335" lon="4.65004">
        <ele>283</ele>
        <time>2022-05-17T14:00:35.535Z</time>
      </trkpt>
      <trkpt lat="49.84347" lon="4.65004">
        <ele>281</ele>
        <time>2022-05-17T14:00:36.547Z</time>
      </trkpt>
      <trkpt lat="49.84353" lon="4.65004">
        <ele>280</ele>
        <time>2022-05-17T14:00:37.529Z</time>
      </trkpt>
      <trkpt lat="49.84353" lon="4.65004">
        <ele>280</ele>
        <time>2022-05-17T14:00:38.534Z</time>
      </trkpt>
      <trkpt lat="49.84366" lon="4.65004">
        <ele>278</ele>
        <time>2022-05-17T14:00:39.524Z</time>
      </trkpt>
      <trkpt lat="49.84372" lon="4.65004">
        <ele>277</ele>
        <time>2022-05-17T14:00:40.554Z</time>
      </trkpt>
      <trkpt lat="49.84372" lon="4.65004">
        <ele>277</ele>
        <time>2022-05-17T14:00:41.527Z</time>
      </trkpt>
      <trkpt lat="49.84381" lon="4.65003">
        <ele>276</ele>
        <time>2022-05-17T14:00:42.529Z</time>
      </trkpt>
      <trkpt lat="49.84381" lon="4.65003">
        <ele>276</ele>
        <time>2022-05-17T14:00:43.534Z</time>
      </trkpt>
      <trkpt lat="49.84391" lon="4.65001">
        <ele>274</ele>
        <time>2022-05-17T14:00:44.530Z</time>
      </trkpt>
      <trkpt lat="49.84391" lon="4.65001">
        <ele>274</ele>
        <time>2022-05-17T14:00:45.535Z</time>
      </trkpt>
      <trkpt lat="49.84401" lon="4.65">
        <ele>272</ele>
        <time>2022-05-17T14:00:46.533Z</time>
      </trkpt>
      <trkpt lat="49.84401" lon="4.65">
        <ele>272</ele>
        <time>2022-05-17T14:00:47.538Z</time>
      </trkpt>
      <trkpt lat="49.84411" lon="4.64999">
        <ele>270</ele>
        <time>2022-05-17T14:00:48.535Z</time>
      </trkpt>
      <trkpt lat="49.84418" lon="4.64999">
        <ele>268</ele>
        <time>2022-05-17T14:00:49.563Z</time>
      </trkpt>
      <trkpt lat="49.84418" lon="4.64999">
        <ele>268</ele>
        <time>2022-05-17T14:00:50.528Z</time>
      </trkpt>
      <trkpt lat="49.84431" lon="4.64998">
        <ele>267</ele>
        <time>2022-05-17T14:00:51.551Z</time>
      </trkpt>
      <trkpt lat="49.84431" lon="4.64998">
        <ele>267</ele>
        <time>2022-05-17T14:00:52.563Z</time>
      </trkpt>
      <trkpt lat="49.84443" lon="4.64998">
        <ele>265</ele>
        <time>2022-05-17T14:00:53.550Z</time>
      </trkpt>
      <trkpt lat="49.84443" lon="4.64998">
        <ele>265</ele>
        <time>2022-05-17T14:00:54.524Z</time>
      </trkpt>
      <trkpt lat="49.84457" lon="4.64999">
        <ele>265</ele>
        <time>2022-05-17T14:00:55.555Z</time>
      </trkpt>
      <trkpt lat="49.84457" lon="4.64999">
        <ele>265</ele>
        <time>2022-05-17T14:00:56.528Z</time>
      </trkpt>
      <trkpt lat="49.84471" lon="4.65">
        <ele>264</ele>
        <time>2022-05-17T14:00:57.535Z</time>
      </trkpt>
      <trkpt lat="49.84479" lon="4.65001">
        <ele>265</ele>
        <time>2022-05-17T14:00:58.554Z</time>
      </trkpt>
      <trkpt lat="49.84479" lon="4.65001">
        <ele>265</ele>
        <time>2022-05-17T14:00:59.571Z</time>
      </trkpt>
      <trkpt lat="49.84496" lon="4.65003">
        <ele>265</ele>
        <time>2022-05-17T14:01:00.540Z</time>
      </trkpt>
      <trkpt lat="49.84496" lon="4.65003">
        <ele>265</ele>
        <time>2022-05-17T14:01:01.527Z</time>
      </trkpt>
      <trkpt lat="49.84513" lon="4.65003">
        <ele>266</ele>
        <time>2022-05-17T14:01:02.525Z</time>
      </trkpt>
      <trkpt lat="49.84513" lon="4.65003">
        <ele>266</ele>
        <time>2022-05-17T14:01:03.546Z</time>
      </trkpt>
      <trkpt lat="49.84529" lon="4.65">
        <ele>266</ele>
        <time>2022-05-17T14:01:04.555Z</time>
      </trkpt>
      <trkpt lat="49.84536" lon="4.64997">
        <ele>266</ele>
        <time>2022-05-17T14:01:05.547Z</time>
      </trkpt>
      <trkpt lat="49.84536" lon="4.64997">
        <ele>266</ele>
        <time>2022-05-17T14:01:06.551Z</time>
      </trkpt>
      <trkpt lat="49.84549" lon="4.64986">
        <ele>266</ele>
        <time>2022-05-17T14:01:07.558Z</time>
      </trkpt>
      <trkpt lat="49.84555" lon="4.6498">
        <ele>266</ele>
        <time>2022-05-17T14:01:08.532Z</time>
      </trkpt>
      <trkpt lat="49.84555" lon="4.6498">
        <ele>266</ele>
        <time>2022-05-17T14:01:09.537Z</time>
      </trkpt>
      <trkpt lat="49.84564" lon="4.64967">
        <ele>265</ele>
        <time>2022-05-17T14:01:10.539Z</time>
      </trkpt>
      <trkpt lat="49.84569" lon="4.64961">
        <ele>265</ele>
        <time>2022-05-17T14:01:11.538Z</time>
      </trkpt>
      <trkpt lat="49.84569" lon="4.64961">
        <ele>265</ele>
        <time>2022-05-17T14:01:12.543Z</time>
      </trkpt>
      <trkpt lat="49.84576" lon="4.6495">
        <ele>264</ele>
        <time>2022-05-17T14:01:13.526Z</time>
      </trkpt>
      <trkpt lat="49.84576" lon="4.6495">
        <ele>264</ele>
        <time>2022-05-17T14:01:14.531Z</time>
      </trkpt>
      <trkpt lat="49.84583" lon="4.64938">
        <ele>262</ele>
        <time>2022-05-17T14:01:15.563Z</time>
      </trkpt>
      <trkpt lat="49.84587" lon="4.64932">
        <ele>262</ele>
        <time>2022-05-17T14:01:16.554Z</time>
      </trkpt>
      <trkpt lat="49.84587" lon="4.64932">
        <ele>262</ele>
        <time>2022-05-17T14:01:17.559Z</time>
      </trkpt>
      <trkpt lat="49.84593" lon="4.64922">
        <ele>263</ele>
        <time>2022-05-17T14:01:18.545Z</time>
      </trkpt>
      <trkpt lat="49.84595" lon="4.64916">
        <ele>263</ele>
        <time>2022-05-17T14:01:19.546Z</time>
      </trkpt>
      <trkpt lat="49.84595" lon="4.64916">
        <ele>263</ele>
        <time>2022-05-17T14:01:20.560Z</time>
      </trkpt>
      <trkpt lat="49.84599" lon="4.64906">
        <ele>264</ele>
        <time>2022-05-17T14:01:21.563Z</time>
      </trkpt>
      <trkpt lat="49.84599" lon="4.64906">
        <ele>264</ele>
        <time>2022-05-17T14:01:22.559Z</time>
      </trkpt>
      <trkpt lat="49.84601" lon="4.64897">
        <ele>266</ele>
        <time>2022-05-17T14:01:23.563Z</time>
      </trkpt>
      <trkpt lat="49.84602" lon="4.64892">
        <ele>267</ele>
        <time>2022-05-17T14:01:24.561Z</time>
      </trkpt>
      <trkpt lat="49.84602" lon="4.64892">
        <ele>267</ele>
        <time>2022-05-17T14:01:25.528Z</time>
      </trkpt>
      <trkpt lat="49.84603" lon="4.64882">
        <ele>267</ele>
        <time>2022-05-17T14:01:26.559Z</time>
      </trkpt>
      <trkpt lat="49.84603" lon="4.64877">
        <ele>267</ele>
        <time>2022-05-17T14:01:27.545Z</time>
      </trkpt>
      <trkpt lat="49.84603" lon="4.64872">
        <ele>267</ele>
        <time>2022-05-17T14:01:28.528Z</time>
      </trkpt>
      <trkpt lat="49.84603" lon="4.64872">
        <ele>267</ele>
        <time>2022-05-17T14:01:29.533Z</time>
      </trkpt>
      <trkpt lat="49.84602" lon="4.64862">
        <ele>267</ele>
        <time>2022-05-17T14:01:30.543Z</time>
      </trkpt>
      <trkpt lat="49.84602" lon="4.64862">
        <ele>267</ele>
        <time>2022-05-17T14:01:31.549Z</time>
      </trkpt>
      <trkpt lat="49.84603" lon="4.6485">
        <ele>267</ele>
        <time>2022-05-17T14:01:32.544Z</time>
      </trkpt>
      <trkpt lat="49.84603" lon="4.64846">
        <ele>268</ele>
        <time>2022-05-17T14:01:33.532Z</time>
      </trkpt>
      <trkpt lat="49.84603" lon="4.64846">
        <ele>268</ele>
        <time>2022-05-17T14:01:34.540Z</time>
      </trkpt>
      <trkpt lat="49.84604" lon="4.64836">
        <ele>268</ele>
        <time>2022-05-17T14:01:35.563Z</time>
      </trkpt>
      <trkpt lat="49.84604" lon="4.64836">
        <ele>268</ele>
        <time>2022-05-17T14:01:36.530Z</time>
      </trkpt>
      <trkpt lat="49.84605" lon="4.64826">
        <ele>269</ele>
        <time>2022-05-17T14:01:37.553Z</time>
      </trkpt>
      <trkpt lat="49.84606" lon="4.64821">
        <ele>269</ele>
        <time>2022-05-17T14:01:38.551Z</time>
      </trkpt>
      <trkpt lat="49.84606" lon="4.64821">
        <ele>269</ele>
        <time>2022-05-17T14:01:39.557Z</time>
      </trkpt>
      <trkpt lat="49.84606" lon="4.64812">
        <ele>270</ele>
        <time>2022-05-17T14:01:40.542Z</time>
      </trkpt>
      <trkpt lat="49.84606" lon="4.64812">
        <ele>270</ele>
        <time>2022-05-17T14:01:41.547Z</time>
      </trkpt>
      <trkpt lat="49.84606" lon="4.64804">
        <ele>270</ele>
        <time>2022-05-17T14:01:42.535Z</time>
      </trkpt>
      <trkpt lat="49.84606" lon="4.64804">
        <ele>270</ele>
        <time>2022-05-17T14:01:43.541Z</time>
      </trkpt>
      <trkpt lat="49.84607" lon="4.64794">
        <ele>271</ele>
        <time>2022-05-17T14:01:44.545Z</time>
      </trkpt>
      <trkpt lat="49.84607" lon="4.64789">
        <ele>271</ele>
        <time>2022-05-17T14:01:45.559Z</time>
      </trkpt>
      <trkpt lat="49.84607" lon="4.64789">
        <ele>271</ele>
        <time>2022-05-17T14:01:46.535Z</time>
      </trkpt>
      <trkpt lat="49.84609" lon="4.6478">
        <ele>272</ele>
        <time>2022-05-17T14:01:47.526Z</time>
      </trkpt>
      <trkpt lat="49.84609" lon="4.6478">
        <ele>272</ele>
        <time>2022-05-17T14:01:48.531Z</time>
      </trkpt>
      <trkpt lat="49.84611" lon="4.6477">
        <ele>272</ele>
        <time>2022-05-17T14:01:49.526Z</time>
      </trkpt>
      <trkpt lat="49.84611" lon="4.6477">
        <ele>272</ele>
        <time>2022-05-17T14:01:50.532Z</time>
      </trkpt>
      <trkpt lat="49.84612" lon="4.6476">
        <ele>272</ele>
        <time>2022-05-17T14:01:51.529Z</time>
      </trkpt>
      <trkpt lat="49.84612" lon="4.6476">
        <ele>272</ele>
        <time>2022-05-17T14:01:52.534Z</time>
      </trkpt>
      <trkpt lat="49.84613" lon="4.64748">
        <ele>273</ele>
        <time>2022-05-17T14:01:53.532Z</time>
      </trkpt>
      <trkpt lat="49.84614" lon="4.64742">
        <ele>273</ele>
        <time>2022-05-17T14:01:54.553Z</time>
      </trkpt>
      <trkpt lat="49.84615" lon="4.64737">
        <ele>273</ele>
        <time>2022-05-17T14:01:55.557Z</time>
      </trkpt>
      <trkpt lat="49.84615" lon="4.64737">
        <ele>273</ele>
        <time>2022-05-17T14:01:56.527Z</time>
      </trkpt>
      <trkpt lat="49.84616" lon="4.64726">
        <ele>274</ele>
        <time>2022-05-17T14:01:57.562Z</time>
      </trkpt>
      <trkpt lat="49.84616" lon="4.64726">
        <ele>274</ele>
        <time>2022-05-17T14:01:58.528Z</time>
      </trkpt>
      <trkpt lat="49.84617" lon="4.64717">
        <ele>274</ele>
        <time>2022-05-17T14:01:59.555Z</time>
      </trkpt>
      <trkpt lat="49.84618" lon="4.64712">
        <ele>274</ele>
        <time>2022-05-17T14:02:00.552Z</time>
      </trkpt>
      <trkpt lat="49.84618" lon="4.64712">
        <ele>274</ele>
        <time>2022-05-17T14:02:01.560Z</time>
      </trkpt>
      <trkpt lat="49.8462" lon="4.64698">
        <ele>275</ele>
        <time>2022-05-17T14:02:02.560Z</time>
      </trkpt>
      <trkpt lat="49.8462" lon="4.64698">
        <ele>275</ele>
        <time>2022-05-17T14:02:03.527Z</time>
      </trkpt>
      <trkpt lat="49.8462" lon="4.64686">
        <ele>275</ele>
        <time>2022-05-17T14:02:04.558Z</time>
      </trkpt>
      <trkpt lat="49.84621" lon="4.6468">
        <ele>276</ele>
        <time>2022-05-17T14:02:05.563Z</time>
      </trkpt>
      <trkpt lat="49.84621" lon="4.6468">
        <ele>276</ele>
        <time>2022-05-17T14:02:06.528Z</time>
      </trkpt>
      <trkpt lat="49.84623" lon="4.64669">
        <ele>276</ele>
        <time>2022-05-17T14:02:07.537Z</time>
      </trkpt>
      <trkpt lat="49.84623" lon="4.64669">
        <ele>276</ele>
        <time>2022-05-17T14:02:08.542Z</time>
      </trkpt>
      <trkpt lat="49.84623" lon="4.64658">
        <ele>276</ele>
        <time>2022-05-17T14:02:09.530Z</time>
      </trkpt>
      <trkpt lat="49.84623" lon="4.64658">
        <ele>276</ele>
        <time>2022-05-17T14:02:10.535Z</time>
      </trkpt>
      <trkpt lat="49.84624" lon="4.64647">
        <ele>277</ele>
        <time>2022-05-17T14:02:11.539Z</time>
      </trkpt>
      <trkpt lat="49.84624" lon="4.64647">
        <ele>277</ele>
        <time>2022-05-17T14:02:12.543Z</time>
      </trkpt>
      <trkpt lat="49.84625" lon="4.64633">
        <ele>277</ele>
        <time>2022-05-17T14:02:13.552Z</time>
      </trkpt>
      <trkpt lat="49.84627" lon="4.64627">
        <ele>277</ele>
        <time>2022-05-17T14:02:14.563Z</time>
      </trkpt>
      <trkpt lat="49.84627" lon="4.64627">
        <ele>277</ele>
        <time>2022-05-17T14:02:15.528Z</time>
      </trkpt>
      <trkpt lat="49.84628" lon="4.64612">
        <ele>277</ele>
        <time>2022-05-17T14:02:16.557Z</time>
      </trkpt>
      <trkpt lat="49.84628" lon="4.64612">
        <ele>277</ele>
        <time>2022-05-17T14:02:17.524Z</time>
      </trkpt>
      <trkpt lat="49.8463" lon="4.64598">
        <ele>277</ele>
        <time>2022-05-17T14:02:18.524Z</time>
      </trkpt>
      <trkpt lat="49.84631" lon="4.64591">
        <ele>278</ele>
        <time>2022-05-17T14:02:19.559Z</time>
      </trkpt>
      <trkpt lat="49.84631" lon="4.64591">
        <ele>278</ele>
        <time>2022-05-17T14:02:20.532Z</time>
      </trkpt>
      <trkpt lat="49.84633" lon="4.64577">
        <ele>278</ele>
        <time>2022-05-17T14:02:21.560Z</time>
      </trkpt>
      <trkpt lat="49.84634" lon="4.6457">
        <ele>278</ele>
        <time>2022-05-17T14:02:22.557Z</time>
      </trkpt>
      <trkpt lat="49.84634" lon="4.64563">
        <ele>278</ele>
        <time>2022-05-17T14:02:23.545Z</time>
      </trkpt>
      <trkpt lat="49.84635" lon="4.64556">
        <ele>278</ele>
        <time>2022-05-17T14:02:24.533Z</time>
      </trkpt>
      <trkpt lat="49.84635" lon="4.64556">
        <ele>278</ele>
        <time>2022-05-17T14:02:25.538Z</time>
      </trkpt>
      <trkpt lat="49.84637" lon="4.64542">
        <ele>278</ele>
        <time>2022-05-17T14:02:26.535Z</time>
      </trkpt>
      <trkpt lat="49.84637" lon="4.64542">
        <ele>278</ele>
        <time>2022-05-17T14:02:27.540Z</time>
      </trkpt>
      <trkpt lat="49.84639" lon="4.64527">
        <ele>278</ele>
        <time>2022-05-17T14:02:28.537Z</time>
      </trkpt>
      <trkpt lat="49.84639" lon="4.64527">
        <ele>278</ele>
        <time>2022-05-17T14:02:29.542Z</time>
      </trkpt>
      <trkpt lat="49.84641" lon="4.64511">
        <ele>278</ele>
        <time>2022-05-17T14:02:30.552Z</time>
      </trkpt>
      <trkpt lat="49.84642" lon="4.64503">
        <ele>278</ele>
        <time>2022-05-17T14:02:31.563Z</time>
      </trkpt>
      <trkpt lat="49.84641" lon="4.64495">
        <ele>278</ele>
        <time>2022-05-17T14:02:32.552Z</time>
      </trkpt>
      <trkpt lat="49.84641" lon="4.64495">
        <ele>278</ele>
        <time>2022-05-17T14:02:33.563Z</time>
      </trkpt>
      <trkpt lat="49.84643" lon="4.64476">
        <ele>278</ele>
        <time>2022-05-17T14:02:34.562Z</time>
      </trkpt>
      <trkpt lat="49.84643" lon="4.64476">
        <ele>278</ele>
        <time>2022-05-17T14:02:35.529Z</time>
      </trkpt>
      <trkpt lat="49.84645" lon="4.64458">
        <ele>277</ele>
        <time>2022-05-17T14:02:36.548Z</time>
      </trkpt>
      <trkpt lat="49.84645" lon="4.64458">
        <ele>277</ele>
        <time>2022-05-17T14:02:37.553Z</time>
      </trkpt>
      <trkpt lat="49.84647" lon="4.64441">
        <ele>277</ele>
        <time>2022-05-17T14:02:38.556Z</time>
      </trkpt>
      <trkpt lat="49.84647" lon="4.64433">
        <ele>277</ele>
        <time>2022-05-17T14:02:39.557Z</time>
      </trkpt>
      <trkpt lat="49.84647" lon="4.64425">
        <ele>277</ele>
        <time>2022-05-17T14:02:40.555Z</time>
      </trkpt>
      <trkpt lat="49.84648" lon="4.64417">
        <ele>277</ele>
        <time>2022-05-17T14:02:41.525Z</time>
      </trkpt>
      <trkpt lat="49.84648" lon="4.64417">
        <ele>277</ele>
        <time>2022-05-17T14:02:42.530Z</time>
      </trkpt>
      <trkpt lat="49.8465" lon="4.64403">
        <ele>277</ele>
        <time>2022-05-17T14:02:43.528Z</time>
      </trkpt>
      <trkpt lat="49.8465" lon="4.64403">
        <ele>277</ele>
        <time>2022-05-17T14:02:44.535Z</time>
      </trkpt>
      <trkpt lat="49.84652" lon="4.64388">
        <ele>278</ele>
        <time>2022-05-17T14:02:45.527Z</time>
      </trkpt>
      <trkpt lat="49.84652" lon="4.64388">
        <ele>278</ele>
        <time>2022-05-17T14:02:46.533Z</time>
      </trkpt>
      <trkpt lat="49.84654" lon="4.64374">
        <ele>278</ele>
        <time>2022-05-17T14:02:47.563Z</time>
      </trkpt>
      <trkpt lat="49.84654" lon="4.64374">
        <ele>278</ele>
        <time>2022-05-17T14:02:48.528Z</time>
      </trkpt>
      <trkpt lat="49.84654" lon="4.64362">
        <ele>278</ele>
        <time>2022-05-17T14:02:49.525Z</time>
      </trkpt>
      <trkpt lat="49.84654" lon="4.64362">
        <ele>278</ele>
        <time>2022-05-17T14:02:50.531Z</time>
      </trkpt>
      <trkpt lat="49.84654" lon="4.64351">
        <ele>278</ele>
        <time>2022-05-17T14:02:51.550Z</time>
      </trkpt>
      <trkpt lat="49.84654" lon="4.64351">
        <ele>278</ele>
        <time>2022-05-17T14:02:52.557Z</time>
      </trkpt>
      <trkpt lat="49.84655" lon="4.64339">
        <ele>278</ele>
        <time>2022-05-17T14:02:53.549Z</time>
      </trkpt>
      <trkpt lat="49.84656" lon="4.64333">
        <ele>278</ele>
        <time>2022-05-17T14:02:54.535Z</time>
      </trkpt>
      <trkpt lat="49.84656" lon="4.64328">
        <ele>278</ele>
        <time>2022-05-17T14:02:55.562Z</time>
      </trkpt>
      <trkpt lat="49.84656" lon="4.64328">
        <ele>278</ele>
        <time>2022-05-17T14:02:56.527Z</time>
      </trkpt>
      <trkpt lat="49.84657" lon="4.64316">
        <ele>277</ele>
        <time>2022-05-17T14:02:57.555Z</time>
      </trkpt>
      <trkpt lat="49.84657" lon="4.64316">
        <ele>277</ele>
        <time>2022-05-17T14:02:58.561Z</time>
      </trkpt>
      <trkpt lat="49.84659" lon="4.64305">
        <ele>278</ele>
        <time>2022-05-17T14:02:59.524Z</time>
      </trkpt>
      <trkpt lat="49.84659" lon="4.64305">
        <ele>278</ele>
        <time>2022-05-17T14:03:00.530Z</time>
      </trkpt>
      <trkpt lat="49.84662" lon="4.64297">
        <ele>277</ele>
        <time>2022-05-17T14:03:01.554Z</time>
      </trkpt>
      <trkpt lat="49.84662" lon="4.64297">
        <ele>277</ele>
        <time>2022-05-17T14:03:02.563Z</time>
      </trkpt>
      <trkpt lat="49.84666" lon="4.64292">
        <ele>278</ele>
        <time>2022-05-17T14:03:03.546Z</time>
      </trkpt>
      <trkpt lat="49.84666" lon="4.64292">
        <ele>278</ele>
        <time>2022-05-17T14:03:04.551Z</time>
      </trkpt>
      <trkpt lat="49.84673" lon="4.64287">
        <ele>278</ele>
        <time>2022-05-17T14:03:05.556Z</time>
      </trkpt>
      <trkpt lat="49.84673" lon="4.64287">
        <ele>278</ele>
        <time>2022-05-17T14:03:06.527Z</time>
      </trkpt>
      <trkpt lat="49.84681" lon="4.64282">
        <ele>278</ele>
        <time>2022-05-17T14:03:07.534Z</time>
      </trkpt>
      <trkpt lat="49.84681" lon="4.64282">
        <ele>278</ele>
        <time>2022-05-17T14:03:08.539Z</time>
      </trkpt>
      <trkpt lat="49.84691" lon="4.64276">
        <ele>278</ele>
        <time>2022-05-17T14:03:09.528Z</time>
      </trkpt>
      <trkpt lat="49.84691" lon="4.64276">
        <ele>278</ele>
        <time>2022-05-17T14:03:10.533Z</time>
      </trkpt>
      <trkpt lat="49.84701" lon="4.64271">
        <ele>278</ele>
        <time>2022-05-17T14:03:11.555Z</time>
      </trkpt>
      <trkpt lat="49.84705" lon="4.64268">
        <ele>278</ele>
        <time>2022-05-17T14:03:12.543Z</time>
      </trkpt>
      <trkpt lat="49.84705" lon="4.64268">
        <ele>278</ele>
        <time>2022-05-17T14:03:13.549Z</time>
      </trkpt>
      <trkpt lat="49.84714" lon="4.64263">
        <ele>278</ele>
        <time>2022-05-17T14:03:14.532Z</time>
      </trkpt>
      <trkpt lat="49.84714" lon="4.64263">
        <ele>278</ele>
        <time>2022-05-17T14:03:15.537Z</time>
      </trkpt>
      <trkpt lat="49.84725" lon="4.64257">
        <ele>278</ele>
        <time>2022-05-17T14:03:16.540Z</time>
      </trkpt>
      <trkpt lat="49.84725" lon="4.64257">
        <ele>278</ele>
        <time>2022-05-17T14:03:17.544Z</time>
      </trkpt>
      <trkpt lat="49.84735" lon="4.6425">
        <ele>278</ele>
        <time>2022-05-17T14:03:18.537Z</time>
      </trkpt>
      <trkpt lat="49.84735" lon="4.6425">
        <ele>278</ele>
        <time>2022-05-17T14:03:19.541Z</time>
      </trkpt>
      <trkpt lat="49.84747" lon="4.64245">
        <ele>278</ele>
        <time>2022-05-17T14:03:20.545Z</time>
      </trkpt>
      <trkpt lat="49.84747" lon="4.64245">
        <ele>278</ele>
        <time>2022-05-17T14:03:21.524Z</time>
      </trkpt>
      <trkpt lat="49.84758" lon="4.64242">
        <ele>278</ele>
        <time>2022-05-17T14:03:22.526Z</time>
      </trkpt>
      <trkpt lat="49.84765" lon="4.6424">
        <ele>278</ele>
        <time>2022-05-17T14:03:23.525Z</time>
      </trkpt>
      <trkpt lat="49.84765" lon="4.6424">
        <ele>278</ele>
        <time>2022-05-17T14:03:24.530Z</time>
      </trkpt>
      <trkpt lat="49.84777" lon="4.64235">
        <ele>278</ele>
        <time>2022-05-17T14:03:25.556Z</time>
      </trkpt>
      <trkpt lat="49.84777" lon="4.64235">
        <ele>278</ele>
        <time>2022-05-17T14:03:26.524Z</time>
      </trkpt>
      <trkpt lat="49.84788" lon="4.64231">
        <ele>278</ele>
        <time>2022-05-17T14:03:27.553Z</time>
      </trkpt>
      <trkpt lat="49.84795" lon="4.64229">
        <ele>278</ele>
        <time>2022-05-17T14:03:28.555Z</time>
      </trkpt>
      <trkpt lat="49.84795" lon="4.64229">
        <ele>278</ele>
        <time>2022-05-17T14:03:29.561Z</time>
      </trkpt>
      <trkpt lat="49.8481" lon="4.64224">
        <ele>278</ele>
        <time>2022-05-17T14:03:30.535Z</time>
      </trkpt>
      <trkpt lat="49.84817" lon="4.64222">
        <ele>277</ele>
        <time>2022-05-17T14:03:31.536Z</time>
      </trkpt>
      <trkpt lat="49.84824" lon="4.64219">
        <ele>277</ele>
        <time>2022-05-17T14:03:32.541Z</time>
      </trkpt>
      <trkpt lat="49.84824" lon="4.64219">
        <ele>277</ele>
        <time>2022-05-17T14:03:33.548Z</time>
      </trkpt>
      <trkpt lat="49.84837" lon="4.64212">
        <ele>277</ele>
        <time>2022-05-17T14:03:34.549Z</time>
      </trkpt>
      <trkpt lat="49.84837" lon="4.64212">
        <ele>277</ele>
        <time>2022-05-17T14:03:35.553Z</time>
      </trkpt>
      <trkpt lat="49.8485" lon="4.64203">
        <ele>276</ele>
        <time>2022-05-17T14:03:36.554Z</time>
      </trkpt>
      <trkpt lat="49.8485" lon="4.64203">
        <ele>276</ele>
        <time>2022-05-17T14:03:37.559Z</time>
      </trkpt>
      <trkpt lat="49.84862" lon="4.64192">
        <ele>276</ele>
        <time>2022-05-17T14:03:38.546Z</time>
      </trkpt>
      <trkpt lat="49.84862" lon="4.64192">
        <ele>276</ele>
        <time>2022-05-17T14:03:39.550Z</time>
      </trkpt>
      <trkpt lat="49.84873" lon="4.6418">
        <ele>276</ele>
        <time>2022-05-17T14:03:40.540Z</time>
      </trkpt>
      <trkpt lat="49.84873" lon="4.6418">
        <ele>276</ele>
        <time>2022-05-17T14:03:41.545Z</time>
      </trkpt>
      <trkpt lat="49.84881" lon="4.64169">
        <ele>276</ele>
        <time>2022-05-17T14:03:42.526Z</time>
      </trkpt>
      <trkpt lat="49.84881" lon="4.64169">
        <ele>276</ele>
        <time>2022-05-17T14:03:43.533Z</time>
      </trkpt>
      <trkpt lat="49.8489" lon="4.64154">
        <ele>275</ele>
        <time>2022-05-17T14:03:44.525Z</time>
      </trkpt>
      <trkpt lat="49.84894" lon="4.64146">
        <ele>275</ele>
        <time>2022-05-17T14:03:45.552Z</time>
      </trkpt>
      <trkpt lat="49.84894" lon="4.64146">
        <ele>275</ele>
        <time>2022-05-17T14:03:46.527Z</time>
      </trkpt>
      <trkpt lat="49.84903" lon="4.64133">
        <ele>275</ele>
        <time>2022-05-17T14:03:47.557Z</time>
      </trkpt>
      <trkpt lat="49.84903" lon="4.64133">
        <ele>275</ele>
        <time>2022-05-17T14:03:48.530Z</time>
      </trkpt>
      <trkpt lat="49.8491" lon="4.6412">
        <ele>275</ele>
        <time>2022-05-17T14:03:49.525Z</time>
      </trkpt>
      <trkpt lat="49.8491" lon="4.6412">
        <ele>275</ele>
        <time>2022-05-17T14:03:50.531Z</time>
      </trkpt>
      <trkpt lat="49.84917" lon="4.64106">
        <ele>275</ele>
        <time>2022-05-17T14:03:51.532Z</time>
      </trkpt>
      <trkpt lat="49.84917" lon="4.64106">
        <ele>275</ele>
        <time>2022-05-17T14:03:52.538Z</time>
      </trkpt>
      <trkpt lat="49.84924" lon="4.64091">
        <ele>275</ele>
        <time>2022-05-17T14:03:53.548Z</time>
      </trkpt>
      <trkpt lat="49.84928" lon="4.64084">
        <ele>275</ele>
        <time>2022-05-17T14:03:54.542Z</time>
      </trkpt>
      <trkpt lat="49.84928" lon="4.64084">
        <ele>275</ele>
        <time>2022-05-17T14:03:55.547Z</time>
      </trkpt>
      <trkpt lat="49.84935" lon="4.64069">
        <ele>274</ele>
        <time>2022-05-17T14:03:56.544Z</time>
      </trkpt>
      <trkpt lat="49.84935" lon="4.64069">
        <ele>274</ele>
        <time>2022-05-17T14:03:57.549Z</time>
      </trkpt>
      <trkpt lat="49.84941" lon="4.64054">
        <ele>274</ele>
        <time>2022-05-17T14:03:58.529Z</time>
      </trkpt>
      <trkpt lat="49.84944" lon="4.64046">
        <ele>274</ele>
        <time>2022-05-17T14:03:59.560Z</time>
      </trkpt>
      <trkpt lat="49.84946" lon="4.64038">
        <ele>274</ele>
        <time>2022-05-17T14:04:00.550Z</time>
      </trkpt>
      <trkpt lat="49.84946" lon="4.64038">
        <ele>274</ele>
        <time>2022-05-17T14:04:01.554Z</time>
      </trkpt>
      <trkpt lat="49.84952" lon="4.64023">
        <ele>273</ele>
        <time>2022-05-17T14:04:02.555Z</time>
      </trkpt>
      <trkpt lat="49.84952" lon="4.64023">
        <ele>273</ele>
        <time>2022-05-17T14:04:03.562Z</time>
      </trkpt>
      <trkpt lat="49.84959" lon="4.64009">
        <ele>273</ele>
        <time>2022-05-17T14:04:04.549Z</time>
      </trkpt>
      <trkpt lat="49.84959" lon="4.64009">
        <ele>273</ele>
        <time>2022-05-17T14:04:05.554Z</time>
      </trkpt>
      <trkpt lat="49.84965" lon="4.63992">
        <ele>273</ele>
        <time>2022-05-17T14:04:06.550Z</time>
      </trkpt>
      <trkpt lat="49.84965" lon="4.63992">
        <ele>273</ele>
        <time>2022-05-17T14:04:07.556Z</time>
      </trkpt>
      <trkpt lat="49.84971" lon="4.63978">
        <ele>273</ele>
        <time>2022-05-17T14:04:08.533Z</time>
      </trkpt>
      <trkpt lat="49.84971" lon="4.63978">
        <ele>273</ele>
        <time>2022-05-17T14:04:09.537Z</time>
      </trkpt>
      <trkpt lat="49.84976" lon="4.63965">
        <ele>273</ele>
        <time>2022-05-17T14:04:10.535Z</time>
      </trkpt>
      <trkpt lat="49.84979" lon="4.63959">
        <ele>273</ele>
        <time>2022-05-17T14:04:11.527Z</time>
      </trkpt>
      <trkpt lat="49.84982" lon="4.63953">
        <ele>273</ele>
        <time>2022-05-17T14:04:12.555Z</time>
      </trkpt>
      <trkpt lat="49.84982" lon="4.63953">
        <ele>273</ele>
        <time>2022-05-17T14:04:13.562Z</time>
      </trkpt>
      <trkpt lat="49.84988" lon="4.63943">
        <ele>274</ele>
        <time>2022-05-17T14:04:14.525Z</time>
      </trkpt>
      <trkpt lat="49.84988" lon="4.63943">
        <ele>274</ele>
        <time>2022-05-17T14:04:15.547Z</time>
      </trkpt>
      <trkpt lat="49.84997" lon="4.63936">
        <ele>274</ele>
        <time>2022-05-17T14:04:16.541Z</time>
      </trkpt>
      <trkpt lat="49.85002" lon="4.63935">
        <ele>274</ele>
        <time>2022-05-17T14:04:17.535Z</time>
      </trkpt>
      <trkpt lat="49.85008" lon="4.63935">
        <ele>274</ele>
        <time>2022-05-17T14:04:18.526Z</time>
      </trkpt>
      <trkpt lat="49.85014" lon="4.63936">
        <ele>275</ele>
        <time>2022-05-17T14:04:19.542Z</time>
      </trkpt>
      <trkpt lat="49.85014" lon="4.63936">
        <ele>275</ele>
        <time>2022-05-17T14:04:20.556Z</time>
      </trkpt>
      <trkpt lat="49.85025" lon="4.63942">
        <ele>275</ele>
        <time>2022-05-17T14:04:21.556Z</time>
      </trkpt>
      <trkpt lat="49.85033" lon="4.63945">
        <ele>275</ele>
        <time>2022-05-17T14:04:22.530Z</time>
      </trkpt>
      <trkpt lat="49.85033" lon="4.63945">
        <ele>275</ele>
        <time>2022-05-17T14:04:23.536Z</time>
      </trkpt>
      <trkpt lat="49.85047" lon="4.63953">
        <ele>275</ele>
        <time>2022-05-17T14:04:24.554Z</time>
      </trkpt>
      <trkpt lat="49.85054" lon="4.63958">
        <ele>275</ele>
        <time>2022-05-17T14:04:25.547Z</time>
      </trkpt>
      <trkpt lat="49.85054" lon="4.63958">
        <ele>275</ele>
        <time>2022-05-17T14:04:26.552Z</time>
      </trkpt>
      <trkpt lat="49.8507" lon="4.63965">
        <ele>275</ele>
        <time>2022-05-17T14:04:27.558Z</time>
      </trkpt>
      <trkpt lat="49.85078" lon="4.63969">
        <ele>275</ele>
        <time>2022-05-17T14:04:28.555Z</time>
      </trkpt>
      <trkpt lat="49.85086" lon="4.63973">
        <ele>275</ele>
        <time>2022-05-17T14:04:29.525Z</time>
      </trkpt>
      <trkpt lat="49.85086" lon="4.63973">
        <ele>275</ele>
        <time>2022-05-17T14:04:30.531Z</time>
      </trkpt>
      <trkpt lat="49.85102" lon="4.6398">
        <ele>275</ele>
        <time>2022-05-17T14:04:31.559Z</time>
      </trkpt>
      <trkpt lat="49.85102" lon="4.6398">
        <ele>275</ele>
        <time>2022-05-17T14:04:32.528Z</time>
      </trkpt>
      <trkpt lat="49.85117" lon="4.63987">
        <ele>274</ele>
        <time>2022-05-17T14:04:33.528Z</time>
      </trkpt>
      <trkpt lat="49.85124" lon="4.6399">
        <ele>274</ele>
        <time>2022-05-17T14:04:34.525Z</time>
      </trkpt>
      <trkpt lat="49.85124" lon="4.6399">
        <ele>274</ele>
        <time>2022-05-17T14:04:35.530Z</time>
      </trkpt>
      <trkpt lat="49.85137" lon="4.63995">
        <ele>272</ele>
        <time>2022-05-17T14:04:36.528Z</time>
      </trkpt>
      <trkpt lat="49.85137" lon="4.63995">
        <ele>272</ele>
        <time>2022-05-17T14:04:37.533Z</time>
      </trkpt>
      <trkpt lat="49.85148" lon="4.63994">
        <ele>271</ele>
        <time>2022-05-17T14:04:38.536Z</time>
      </trkpt>
      <trkpt lat="49.85151" lon="4.63991">
        <ele>271</ele>
        <time>2022-05-17T14:04:39.562Z</time>
      </trkpt>
      <trkpt lat="49.85151" lon="4.63991">
        <ele>271</ele>
        <time>2022-05-17T14:04:40.528Z</time>
      </trkpt>
      <trkpt lat="49.85157" lon="4.63983">
        <ele>269</ele>
        <time>2022-05-17T14:04:41.553Z</time>
      </trkpt>
      <trkpt lat="49.85159" lon="4.63979">
        <ele>267</ele>
        <time>2022-05-17T14:04:42.561Z</time>
      </trkpt>
      <trkpt lat="49.85159" lon="4.63979">
        <ele>267</ele>
        <time>2022-05-17T14:04:43.528Z</time>
      </trkpt>
      <trkpt lat="49.85161" lon="4.63969">
        <ele>263</ele>
        <time>2022-05-17T14:04:44.541Z</time>
      </trkpt>
      <trkpt lat="49.85161" lon="4.63969">
        <ele>263</ele>
        <time>2022-05-17T14:04:45.545Z</time>
      </trkpt>
      <trkpt lat="49.85162" lon="4.63959">
        <ele>261</ele>
        <time>2022-05-17T14:04:46.528Z</time>
      </trkpt>
      <trkpt lat="49.85162" lon="4.63959">
        <ele>261</ele>
        <time>2022-05-17T14:04:47.533Z</time>
      </trkpt>
      <trkpt lat="49.85163" lon="4.63947">
        <ele>259</ele>
        <time>2022-05-17T14:04:48.548Z</time>
      </trkpt>
      <trkpt lat="49.85163" lon="4.63947">
        <ele>259</ele>
        <time>2022-05-17T14:04:49.553Z</time>
      </trkpt>
      <trkpt lat="49.85164" lon="4.63935">
        <ele>258</ele>
        <time>2022-05-17T14:04:50.540Z</time>
      </trkpt>
      <trkpt lat="49.85164" lon="4.63935">
        <ele>258</ele>
        <time>2022-05-17T14:04:51.545Z</time>
      </trkpt>
      <trkpt lat="49.85164" lon="4.63925">
        <ele>257</ele>
        <time>2022-05-17T14:04:52.536Z</time>
      </trkpt>
      <trkpt lat="49.85164" lon="4.63925">
        <ele>257</ele>
        <time>2022-05-17T14:04:53.541Z</time>
      </trkpt>
      <trkpt lat="49.85164" lon="4.63913">
        <ele>256</ele>
        <time>2022-05-17T14:04:54.538Z</time>
      </trkpt>
      <trkpt lat="49.85164" lon="4.63907">
        <ele>255</ele>
        <time>2022-05-17T14:04:55.527Z</time>
      </trkpt>
      <trkpt lat="49.85164" lon="4.63907">
        <ele>255</ele>
        <time>2022-05-17T14:04:56.532Z</time>
      </trkpt>
      <trkpt lat="49.85165" lon="4.63895">
        <ele>254</ele>
        <time>2022-05-17T14:04:57.560Z</time>
      </trkpt>
      <trkpt lat="49.85165" lon="4.63895">
        <ele>254</ele>
        <time>2022-05-17T14:04:58.525Z</time>
      </trkpt>
      <trkpt lat="49.85166" lon="4.63882">
        <ele>253</ele>
        <time>2022-05-17T14:04:59.555Z</time>
      </trkpt>
      <trkpt lat="49.85166" lon="4.63875">
        <ele>252</ele>
        <time>2022-05-17T14:05:00.556Z</time>
      </trkpt>
      <trkpt lat="49.85166" lon="4.63875">
        <ele>252</ele>
        <time>2022-05-17T14:05:01.527Z</time>
      </trkpt>
      <trkpt lat="49.85166" lon="4.63863">
        <ele>251</ele>
        <time>2022-05-17T14:05:02.546Z</time>
      </trkpt>
      <trkpt lat="49.85166" lon="4.63863">
        <ele>251</ele>
        <time>2022-05-17T14:05:03.555Z</time>
      </trkpt>
      <trkpt lat="49.85167" lon="4.63852">
        <ele>250</ele>
        <time>2022-05-17T14:05:04.552Z</time>
      </trkpt>
      <trkpt lat="49.85167" lon="4.63852">
        <ele>250</ele>
        <time>2022-05-17T14:05:05.557Z</time>
      </trkpt>
      <trkpt lat="49.85166" lon="4.63841">
        <ele>249</ele>
        <time>2022-05-17T14:05:06.539Z</time>
      </trkpt>
      <trkpt lat="49.85166" lon="4.63841">
        <ele>249</ele>
        <time>2022-05-17T14:05:07.555Z</time>
      </trkpt>
      <trkpt lat="49.85165" lon="4.6383">
        <ele>248</ele>
        <time>2022-05-17T14:05:08.528Z</time>
      </trkpt>
      <trkpt lat="49.85165" lon="4.6383">
        <ele>248</ele>
        <time>2022-05-17T14:05:09.534Z</time>
      </trkpt>
      <trkpt lat="49.85164" lon="4.63818">
        <ele>247</ele>
        <time>2022-05-17T14:05:10.531Z</time>
      </trkpt>
      <trkpt lat="49.85164" lon="4.63818">
        <ele>247</ele>
        <time>2022-05-17T14:05:11.536Z</time>
      </trkpt>
      <trkpt lat="49.85164" lon="4.63807">
        <ele>246</ele>
        <time>2022-05-17T14:05:12.525Z</time>
      </trkpt>
      <trkpt lat="49.85164" lon="4.63801">
        <ele>246</ele>
        <time>2022-05-17T14:05:13.562Z</time>
      </trkpt>
      <trkpt lat="49.85164" lon="4.63801">
        <ele>246</ele>
        <time>2022-05-17T14:05:14.527Z</time>
      </trkpt>
      <trkpt lat="49.85165" lon="4.63789">
        <ele>245</ele>
        <time>2022-05-17T14:05:15.538Z</time>
      </trkpt>
      <trkpt lat="49.85165" lon="4.63789">
        <ele>245</ele>
        <time>2022-05-17T14:05:16.543Z</time>
      </trkpt>
      <trkpt lat="49.85165" lon="4.63777">
        <ele>245</ele>
        <time>2022-05-17T14:05:17.540Z</time>
      </trkpt>
      <trkpt lat="49.85165" lon="4.63777">
        <ele>245</ele>
        <time>2022-05-17T14:05:18.545Z</time>
      </trkpt>
      <trkpt lat="49.85165" lon="4.63765">
        <ele>245</ele>
        <time>2022-05-17T14:05:19.533Z</time>
      </trkpt>
      <trkpt lat="49.85165" lon="4.6376">
        <ele>245</ele>
        <time>2022-05-17T14:05:20.539Z</time>
      </trkpt>
      <trkpt lat="49.85165" lon="4.6376">
        <ele>245</ele>
        <time>2022-05-17T14:05:21.541Z</time>
      </trkpt>
      <trkpt lat="49.85165" lon="4.63749">
        <ele>244</ele>
        <time>2022-05-17T14:05:22.549Z</time>
      </trkpt>
      <trkpt lat="49.85166" lon="4.63744">
        <ele>244</ele>
        <time>2022-05-17T14:05:23.545Z</time>
      </trkpt>
      <trkpt lat="49.85166" lon="4.63739">
        <ele>244</ele>
        <time>2022-05-17T14:05:24.561Z</time>
      </trkpt>
      <trkpt lat="49.85166" lon="4.63733">
        <ele>244</ele>
        <time>2022-05-17T14:05:25.525Z</time>
      </trkpt>
      <trkpt lat="49.85166" lon="4.63733">
        <ele>244</ele>
        <time>2022-05-17T14:05:26.532Z</time>
      </trkpt>
      <trkpt lat="49.85167" lon="4.63722">
        <ele>244</ele>
        <time>2022-05-17T14:05:27.538Z</time>
      </trkpt>
      <trkpt lat="49.85167" lon="4.63717">
        <ele>244</ele>
        <time>2022-05-17T14:05:28.551Z</time>
      </trkpt>
      <trkpt lat="49.85167" lon="4.63717">
        <ele>244</ele>
        <time>2022-05-17T14:05:29.557Z</time>
      </trkpt>
      <trkpt lat="49.85167" lon="4.63707">
        <ele>244</ele>
        <time>2022-05-17T14:05:30.555Z</time>
      </trkpt>
      <trkpt lat="49.85167" lon="4.63702">
        <ele>244</ele>
        <time>2022-05-17T14:05:31.552Z</time>
      </trkpt>
      <trkpt lat="49.85167" lon="4.63702">
        <ele>244</ele>
        <time>2022-05-17T14:05:32.557Z</time>
      </trkpt>
      <trkpt lat="49.85168" lon="4.63691">
        <ele>244</ele>
        <time>2022-05-17T14:05:33.545Z</time>
      </trkpt>
      <trkpt lat="49.85168" lon="4.63691">
        <ele>244</ele>
        <time>2022-05-17T14:05:34.551Z</time>
      </trkpt>
      <trkpt lat="49.85168" lon="4.63679">
        <ele>245</ele>
        <time>2022-05-17T14:05:35.543Z</time>
      </trkpt>
      <trkpt lat="49.85168" lon="4.63679">
        <ele>245</ele>
        <time>2022-05-17T14:05:36.548Z</time>
      </trkpt>
      <trkpt lat="49.85167" lon="4.63669">
        <ele>245</ele>
        <time>2022-05-17T14:05:37.536Z</time>
      </trkpt>
      <trkpt lat="49.85167" lon="4.63669">
        <ele>245</ele>
        <time>2022-05-17T14:05:38.541Z</time>
      </trkpt>
      <trkpt lat="49.85165" lon="4.63658">
        <ele>245</ele>
        <time>2022-05-17T14:05:39.525Z</time>
      </trkpt>
      <trkpt lat="49.85165" lon="4.63658">
        <ele>245</ele>
        <time>2022-05-17T14:05:40.539Z</time>
      </trkpt>
      <trkpt lat="49.85164" lon="4.63648">
        <ele>245</ele>
        <time>2022-05-17T14:05:41.544Z</time>
      </trkpt>
      <trkpt lat="49.85164" lon="4.63642">
        <ele>246</ele>
        <time>2022-05-17T14:05:42.531Z</time>
      </trkpt>
      <trkpt lat="49.85164" lon="4.63642">
        <ele>246</ele>
        <time>2022-05-17T14:05:43.536Z</time>
      </trkpt>
      <trkpt lat="49.85163" lon="4.63631">
        <ele>246</ele>
        <time>2022-05-17T14:05:44.550Z</time>
      </trkpt>
      <trkpt lat="49.85163" lon="4.63631">
        <ele>246</ele>
        <time>2022-05-17T14:05:45.555Z</time>
      </trkpt>
      <trkpt lat="49.85163" lon="4.6362">
        <ele>246</ele>
        <time>2022-05-17T14:05:46.562Z</time>
      </trkpt>
      <trkpt lat="49.85163" lon="4.6362">
        <ele>246</ele>
        <time>2022-05-17T14:05:47.528Z</time>
      </trkpt>
      <trkpt lat="49.85164" lon="4.63609">
        <ele>246</ele>
        <time>2022-05-17T14:05:48.554Z</time>
      </trkpt>
      <trkpt lat="49.85164" lon="4.63603">
        <ele>246</ele>
        <time>2022-05-17T14:05:49.546Z</time>
      </trkpt>
      <trkpt lat="49.85164" lon="4.63598">
        <ele>247</ele>
        <time>2022-05-17T14:05:50.534Z</time>
      </trkpt>
      <trkpt lat="49.85164" lon="4.63598">
        <ele>247</ele>
        <time>2022-05-17T14:05:51.539Z</time>
      </trkpt>
      <trkpt lat="49.85164" lon="4.63588">
        <ele>247</ele>
        <time>2022-05-17T14:05:52.562Z</time>
      </trkpt>
      <trkpt lat="49.85164" lon="4.63583">
        <ele>247</ele>
        <time>2022-05-17T14:05:53.529Z</time>
      </trkpt>
      <trkpt lat="49.85164" lon="4.63583">
        <ele>247</ele>
        <time>2022-05-17T14:05:54.534Z</time>
      </trkpt>
      <trkpt lat="49.85164" lon="4.63573">
        <ele>247</ele>
        <time>2022-05-17T14:05:55.555Z</time>
      </trkpt>
      <trkpt lat="49.85164" lon="4.63568">
        <ele>247</ele>
        <time>2022-05-17T14:05:56.547Z</time>
      </trkpt>
      <trkpt lat="49.85164" lon="4.63568">
        <ele>247</ele>
        <time>2022-05-17T14:05:57.552Z</time>
      </trkpt>
      <trkpt lat="49.85163" lon="4.63558">
        <ele>247</ele>
        <time>2022-05-17T14:05:58.555Z</time>
      </trkpt>
      <trkpt lat="49.85163" lon="4.63553">
        <ele>247</ele>
        <time>2022-05-17T14:05:59.547Z</time>
      </trkpt>
      <trkpt lat="49.85163" lon="4.63553">
        <ele>247</ele>
        <time>2022-05-17T14:06:00.527Z</time>
      </trkpt>
      <trkpt lat="49.85164" lon="4.63544">
        <ele>248</ele>
        <time>2022-05-17T14:06:01.545Z</time>
      </trkpt>
      <trkpt lat="49.85164" lon="4.63544">
        <ele>248</ele>
        <time>2022-05-17T14:06:02.550Z</time>
      </trkpt>
      <trkpt lat="49.85164" lon="4.63534">
        <ele>248</ele>
        <time>2022-05-17T14:06:03.542Z</time>
      </trkpt>
      <trkpt lat="49.85164" lon="4.63534">
        <ele>248</ele>
        <time>2022-05-17T14:06:04.547Z</time>
      </trkpt>
      <trkpt lat="49.85164" lon="4.63525">
        <ele>249</ele>
        <time>2022-05-17T14:06:05.528Z</time>
      </trkpt>
      <trkpt lat="49.85164" lon="4.6352">
        <ele>249</ele>
        <time>2022-05-17T14:06:06.541Z</time>
      </trkpt>
      <trkpt lat="49.85164" lon="4.6352">
        <ele>249</ele>
        <time>2022-05-17T14:06:07.547Z</time>
      </trkpt>
      <trkpt lat="49.85165" lon="4.6351">
        <ele>249</ele>
        <time>2022-05-17T14:06:08.534Z</time>
      </trkpt>
      <trkpt lat="49.85165" lon="4.63505">
        <ele>249</ele>
        <time>2022-05-17T14:06:09.525Z</time>
      </trkpt>
      <trkpt lat="49.85165" lon="4.63505">
        <ele>249</ele>
        <time>2022-05-17T14:06:10.530Z</time>
      </trkpt>
      <trkpt lat="49.85166" lon="4.63493">
        <ele>250</ele>
        <time>2022-05-17T14:06:11.563Z</time>
      </trkpt>
      <trkpt lat="49.85166" lon="4.63487">
        <ele>250</ele>
        <time>2022-05-17T14:06:12.530Z</time>
      </trkpt>
      <trkpt lat="49.85166" lon="4.63487">
        <ele>250</ele>
        <time>2022-05-17T14:06:13.536Z</time>
      </trkpt>
      <trkpt lat="49.85165" lon="4.63477">
        <ele>250</ele>
        <time>2022-05-17T14:06:14.528Z</time>
      </trkpt>
      <trkpt lat="49.85165" lon="4.63477">
        <ele>250</ele>
        <time>2022-05-17T14:06:15.533Z</time>
      </trkpt>
      <trkpt lat="49.85165" lon="4.63466">
        <ele>250</ele>
        <time>2022-05-17T14:06:16.563Z</time>
      </trkpt>
      <trkpt lat="49.85165" lon="4.63466">
        <ele>250</ele>
        <time>2022-05-17T14:06:17.528Z</time>
      </trkpt>
      <trkpt lat="49.85165" lon="4.63455">
        <ele>251</ele>
        <time>2022-05-17T14:06:18.555Z</time>
      </trkpt>
      <trkpt lat="49.85165" lon="4.63449">
        <ele>251</ele>
        <time>2022-05-17T14:06:19.558Z</time>
      </trkpt>
      <trkpt lat="49.85165" lon="4.63449">
        <ele>251</ele>
        <time>2022-05-17T14:06:20.533Z</time>
      </trkpt>
      <trkpt lat="49.85164" lon="4.63439">
        <ele>251</ele>
        <time>2022-05-17T14:06:21.553Z</time>
      </trkpt>
      <trkpt lat="49.85164" lon="4.63433">
        <ele>251</ele>
        <time>2022-05-17T14:06:22.562Z</time>
      </trkpt>
      <trkpt lat="49.85164" lon="4.63433">
        <ele>251</ele>
        <time>2022-05-17T14:06:23.529Z</time>
      </trkpt>
      <trkpt lat="49.85164" lon="4.63423">
        <ele>251</ele>
        <time>2022-05-17T14:06:24.553Z</time>
      </trkpt>
      <trkpt lat="49.85164" lon="4.63418">
        <ele>252</ele>
        <time>2022-05-17T14:06:25.560Z</time>
      </trkpt>
      <trkpt lat="49.85164" lon="4.63418">
        <ele>252</ele>
        <time>2022-05-17T14:06:26.528Z</time>
      </trkpt>
      <trkpt lat="49.85166" lon="4.63408">
        <ele>252</ele>
        <time>2022-05-17T14:06:27.524Z</time>
      </trkpt>
      <trkpt lat="49.85166" lon="4.63408">
        <ele>252</ele>
        <time>2022-05-17T14:06:28.529Z</time>
      </trkpt>
      <trkpt lat="49.85165" lon="4.63399">
        <ele>253</ele>
        <time>2022-05-17T14:06:29.551Z</time>
      </trkpt>
      <trkpt lat="49.85165" lon="4.63394">
        <ele>253</ele>
        <time>2022-05-17T14:06:30.550Z</time>
      </trkpt>
      <trkpt lat="49.85165" lon="4.63394">
        <ele>253</ele>
        <time>2022-05-17T14:06:31.555Z</time>
      </trkpt>
      <trkpt lat="49.85165" lon="4.63383">
        <ele>253</ele>
        <time>2022-05-17T14:06:32.552Z</time>
      </trkpt>
      <trkpt lat="49.85165" lon="4.63383">
        <ele>253</ele>
        <time>2022-05-17T14:06:33.558Z</time>
      </trkpt>
      <trkpt lat="49.85163" lon="4.63372">
        <ele>253</ele>
        <time>2022-05-17T14:06:34.563Z</time>
      </trkpt>
      <trkpt lat="49.85163" lon="4.63372">
        <ele>253</ele>
        <time>2022-05-17T14:06:35.528Z</time>
      </trkpt>
      <trkpt lat="49.85163" lon="4.63362">
        <ele>253</ele>
        <time>2022-05-17T14:06:36.560Z</time>
      </trkpt>
      <trkpt lat="49.85163" lon="4.63362">
        <ele>253</ele>
        <time>2022-05-17T14:06:37.526Z</time>
      </trkpt>
      <trkpt lat="49.85163" lon="4.63351">
        <ele>254</ele>
        <time>2022-05-17T14:06:38.532Z</time>
      </trkpt>
      <trkpt lat="49.85163" lon="4.63346">
        <ele>254</ele>
        <time>2022-05-17T14:06:39.535Z</time>
      </trkpt>
      <trkpt lat="49.85163" lon="4.6334">
        <ele>254</ele>
        <time>2022-05-17T14:06:40.530Z</time>
      </trkpt>
      <trkpt lat="49.85163" lon="4.6334">
        <ele>254</ele>
        <time>2022-05-17T14:06:41.535Z</time>
      </trkpt>
      <trkpt lat="49.85162" lon="4.6333">
        <ele>254</ele>
        <time>2022-05-17T14:06:42.563Z</time>
      </trkpt>
      <trkpt lat="49.85162" lon="4.63325">
        <ele>254</ele>
        <time>2022-05-17T14:06:43.532Z</time>
      </trkpt>
      <trkpt lat="49.85162" lon="4.63325">
        <ele>254</ele>
        <time>2022-05-17T14:06:44.537Z</time>
      </trkpt>
      <trkpt lat="49.85162" lon="4.63314">
        <ele>254</ele>
        <time>2022-05-17T14:06:45.526Z</time>
      </trkpt>
      <trkpt lat="49.85162" lon="4.63314">
        <ele>254</ele>
        <time>2022-05-17T14:06:46.531Z</time>
      </trkpt>
      <trkpt lat="49.85162" lon="4.63304">
        <ele>255</ele>
        <time>2022-05-17T14:06:47.525Z</time>
      </trkpt>
      <trkpt lat="49.85162" lon="4.63304">
        <ele>255</ele>
        <time>2022-05-17T14:06:48.530Z</time>
      </trkpt>
      <trkpt lat="49.85162" lon="4.63294">
        <ele>255</ele>
        <time>2022-05-17T14:06:49.558Z</time>
      </trkpt>
      <trkpt lat="49.85162" lon="4.63294">
        <ele>255</ele>
        <time>2022-05-17T14:06:50.528Z</time>
      </trkpt>
      <trkpt lat="49.85161" lon="4.63283">
        <ele>255</ele>
        <time>2022-05-17T14:06:51.545Z</time>
      </trkpt>
      <trkpt lat="49.85161" lon="4.63283">
        <ele>255</ele>
        <time>2022-05-17T14:06:52.551Z</time>
      </trkpt>
      <trkpt lat="49.8516" lon="4.63273">
        <ele>255</ele>
        <time>2022-05-17T14:06:53.537Z</time>
      </trkpt>
      <trkpt lat="49.8516" lon="4.63268">
        <ele>255</ele>
        <time>2022-05-17T14:06:54.538Z</time>
      </trkpt>
      <trkpt lat="49.8516" lon="4.63263">
        <ele>256</ele>
        <time>2022-05-17T14:06:55.563Z</time>
      </trkpt>
      <trkpt lat="49.8516" lon="4.63263">
        <ele>256</ele>
        <time>2022-05-17T14:06:56.528Z</time>
      </trkpt>
      <trkpt lat="49.8516" lon="4.63252">
        <ele>256</ele>
        <time>2022-05-17T14:06:57.553Z</time>
      </trkpt>
      <trkpt lat="49.8516" lon="4.63247">
        <ele>256</ele>
        <time>2022-05-17T14:06:58.552Z</time>
      </trkpt>
      <trkpt lat="49.8516" lon="4.63247">
        <ele>256</ele>
        <time>2022-05-17T14:06:59.557Z</time>
      </trkpt>
      <trkpt lat="49.8516" lon="4.63236">
        <ele>256</ele>
        <time>2022-05-17T14:07:00.524Z</time>
      </trkpt>
      <trkpt lat="49.85161" lon="4.63231">
        <ele>256</ele>
        <time>2022-05-17T14:07:01.561Z</time>
      </trkpt>
      <trkpt lat="49.85161" lon="4.63231">
        <ele>256</ele>
        <time>2022-05-17T14:07:02.530Z</time>
      </trkpt>
      <trkpt lat="49.85161" lon="4.63221">
        <ele>257</ele>
        <time>2022-05-17T14:07:03.534Z</time>
      </trkpt>
      <trkpt lat="49.85161" lon="4.63216">
        <ele>257</ele>
        <time>2022-05-17T14:07:04.525Z</time>
      </trkpt>
      <trkpt lat="49.85161" lon="4.63216">
        <ele>257</ele>
        <time>2022-05-17T14:07:05.530Z</time>
      </trkpt>
      <trkpt lat="49.8516" lon="4.63206">
        <ele>257</ele>
        <time>2022-05-17T14:07:06.560Z</time>
      </trkpt>
      <trkpt lat="49.8516" lon="4.63206">
        <ele>257</ele>
        <time>2022-05-17T14:07:07.526Z</time>
      </trkpt>
      <trkpt lat="49.8516" lon="4.63197">
        <ele>257</ele>
        <time>2022-05-17T14:07:08.559Z</time>
      </trkpt>
      <trkpt lat="49.8516" lon="4.63197">
        <ele>257</ele>
        <time>2022-05-17T14:07:09.542Z</time>
      </trkpt>
      <trkpt lat="49.8516" lon="4.63186">
        <ele>257</ele>
        <time>2022-05-17T14:07:10.552Z</time>
      </trkpt>
      <trkpt lat="49.8516" lon="4.63186">
        <ele>257</ele>
        <time>2022-05-17T14:07:11.557Z</time>
      </trkpt>
      <trkpt lat="49.8516" lon="4.63175">
        <ele>257</ele>
        <time>2022-05-17T14:07:12.552Z</time>
      </trkpt>
      <trkpt lat="49.8516" lon="4.63175">
        <ele>257</ele>
        <time>2022-05-17T14:07:13.557Z</time>
      </trkpt>
      <trkpt lat="49.8516" lon="4.63165">
        <ele>257</ele>
        <time>2022-05-17T14:07:14.555Z</time>
      </trkpt>
      <trkpt lat="49.8516" lon="4.6316">
        <ele>257</ele>
        <time>2022-05-17T14:07:15.544Z</time>
      </trkpt>
      <trkpt lat="49.8516" lon="4.6316">
        <ele>257</ele>
        <time>2022-05-17T14:07:16.550Z</time>
      </trkpt>
      <trkpt lat="49.8516" lon="4.63151">
        <ele>258</ele>
        <time>2022-05-17T14:07:17.540Z</time>
      </trkpt>
      <trkpt lat="49.8516" lon="4.63146">
        <ele>258</ele>
        <time>2022-05-17T14:07:18.555Z</time>
      </trkpt>
      <trkpt lat="49.8516" lon="4.63146">
        <ele>258</ele>
        <time>2022-05-17T14:07:19.524Z</time>
      </trkpt>
      <trkpt lat="49.85161" lon="4.63136">
        <ele>258</ele>
        <time>2022-05-17T14:07:20.560Z</time>
      </trkpt>
      <trkpt lat="49.85161" lon="4.63136">
        <ele>258</ele>
        <time>2022-05-17T14:07:21.534Z</time>
      </trkpt>
      <trkpt lat="49.85161" lon="4.63126">
        <ele>258</ele>
        <time>2022-05-17T14:07:22.540Z</time>
      </trkpt>
      <trkpt lat="49.85161" lon="4.63126">
        <ele>258</ele>
        <time>2022-05-17T14:07:23.545Z</time>
      </trkpt>
      <trkpt lat="49.85161" lon="4.63116">
        <ele>259</ele>
        <time>2022-05-17T14:07:24.533Z</time>
      </trkpt>
      <trkpt lat="49.85161" lon="4.63111">
        <ele>259</ele>
        <time>2022-05-17T14:07:25.540Z</time>
      </trkpt>
      <trkpt lat="49.85161" lon="4.63111">
        <ele>259</ele>
        <time>2022-05-17T14:07:26.545Z</time>
      </trkpt>
      <trkpt lat="49.85162" lon="4.63101">
        <ele>259</ele>
        <time>2022-05-17T14:07:27.532Z</time>
      </trkpt>
      <trkpt lat="49.85162" lon="4.63101">
        <ele>259</ele>
        <time>2022-05-17T14:07:28.537Z</time>
      </trkpt>
      <trkpt lat="49.85162" lon="4.63092">
        <ele>259</ele>
        <time>2022-05-17T14:07:29.535Z</time>
      </trkpt>
      <trkpt lat="49.85162" lon="4.63088">
        <ele>260</ele>
        <time>2022-05-17T14:07:30.526Z</time>
      </trkpt>
      <trkpt lat="49.85162" lon="4.63083">
        <ele>260</ele>
        <time>2022-05-17T14:07:31.529Z</time>
      </trkpt>
      <trkpt lat="49.85162" lon="4.63083">
        <ele>260</ele>
        <time>2022-05-17T14:07:32.534Z</time>
      </trkpt>
      <trkpt lat="49.85163" lon="4.63074">
        <ele>260</ele>
        <time>2022-05-17T14:07:33.533Z</time>
      </trkpt>
      <trkpt lat="49.85163" lon="4.63074">
        <ele>260</ele>
        <time>2022-05-17T14:07:34.537Z</time>
      </trkpt>
      <trkpt lat="49.85163" lon="4.63065">
        <ele>261</ele>
        <time>2022-05-17T14:07:35.559Z</time>
      </trkpt>
      <trkpt lat="49.85163" lon="4.63061">
        <ele>261</ele>
        <time>2022-05-17T14:07:36.555Z</time>
      </trkpt>
      <trkpt lat="49.85162" lon="4.63057">
        <ele>261</ele>
        <time>2022-05-17T14:07:37.535Z</time>
      </trkpt>
      <trkpt lat="49.85162" lon="4.63057">
        <ele>261</ele>
        <time>2022-05-17T14:07:38.540Z</time>
      </trkpt>
      <trkpt lat="49.85162" lon="4.63049">
        <ele>261</ele>
        <time>2022-05-17T14:07:39.554Z</time>
      </trkpt>
      <trkpt lat="49.85162" lon="4.63049">
        <ele>261</ele>
        <time>2022-05-17T14:07:40.529Z</time>
      </trkpt>
      <trkpt lat="49.85161" lon="4.63041">
        <ele>261</ele>
        <time>2022-05-17T14:07:41.540Z</time>
      </trkpt>
      <trkpt lat="49.85161" lon="4.63036">
        <ele>261</ele>
        <time>2022-05-17T14:07:42.526Z</time>
      </trkpt>
      <trkpt lat="49.85161" lon="4.63036">
        <ele>261</ele>
        <time>2022-05-17T14:07:43.527Z</time>
      </trkpt>
      <trkpt lat="49.85162" lon="4.63027">
        <ele>261</ele>
        <time>2022-05-17T14:07:44.549Z</time>
      </trkpt>
      <trkpt lat="49.85162" lon="4.63024">
        <ele>261</ele>
        <time>2022-05-17T14:07:45.548Z</time>
      </trkpt>
      <trkpt lat="49.85162" lon="4.63024">
        <ele>261</ele>
        <time>2022-05-17T14:07:46.529Z</time>
      </trkpt>
      <trkpt lat="49.85162" lon="4.63016">
        <ele>261</ele>
        <time>2022-05-17T14:07:47.538Z</time>
      </trkpt>
      <trkpt lat="49.85162" lon="4.63016">
        <ele>261</ele>
        <time>2022-05-17T14:07:48.543Z</time>
      </trkpt>
      <trkpt lat="49.85162" lon="4.63007">
        <ele>261</ele>
        <time>2022-05-17T14:07:49.545Z</time>
      </trkpt>
      <trkpt lat="49.85162" lon="4.63007">
        <ele>261</ele>
        <time>2022-05-17T14:07:50.561Z</time>
      </trkpt>
      <trkpt lat="49.85162" lon="4.62999">
        <ele>261</ele>
        <time>2022-05-17T14:07:51.559Z</time>
      </trkpt>
      <trkpt lat="49.85162" lon="4.62999">
        <ele>261</ele>
        <time>2022-05-17T14:07:52.525Z</time>
      </trkpt>
      <trkpt lat="49.85162" lon="4.6299">
        <ele>261</ele>
        <time>2022-05-17T14:07:53.552Z</time>
      </trkpt>
      <trkpt lat="49.85162" lon="4.6299">
        <ele>261</ele>
        <time>2022-05-17T14:07:54.557Z</time>
      </trkpt>
      <trkpt lat="49.85162" lon="4.62982">
        <ele>261</ele>
        <time>2022-05-17T14:07:55.554Z</time>
      </trkpt>
      <trkpt lat="49.85162" lon="4.62982">
        <ele>261</ele>
        <time>2022-05-17T14:07:56.524Z</time>
      </trkpt>
      <trkpt lat="49.85162" lon="4.62974">
        <ele>261</ele>
        <time>2022-05-17T14:07:57.555Z</time>
      </trkpt>
      <trkpt lat="49.85162" lon="4.62974">
        <ele>261</ele>
        <time>2022-05-17T14:07:58.562Z</time>
      </trkpt>
      <trkpt lat="49.85163" lon="4.62966">
        <ele>262</ele>
        <time>2022-05-17T14:07:59.555Z</time>
      </trkpt>
      <trkpt lat="49.85163" lon="4.62966">
        <ele>262</ele>
        <time>2022-05-17T14:08:00.532Z</time>
      </trkpt>
      <trkpt lat="49.85163" lon="4.62957">
        <ele>262</ele>
        <time>2022-05-17T14:08:01.560Z</time>
      </trkpt>
      <trkpt lat="49.85163" lon="4.62957">
        <ele>262</ele>
        <time>2022-05-17T14:08:02.528Z</time>
      </trkpt>
      <trkpt lat="49.85163" lon="4.62949">
        <ele>262</ele>
        <time>2022-05-17T14:08:03.553Z</time>
      </trkpt>
      <trkpt lat="49.85162" lon="4.62946">
        <ele>262</ele>
        <time>2022-05-17T14:08:04.551Z</time>
      </trkpt>
      <trkpt lat="49.85162" lon="4.62946">
        <ele>262</ele>
        <time>2022-05-17T14:08:05.527Z</time>
      </trkpt>
      <trkpt lat="49.85162" lon="4.62938">
        <ele>262</ele>
        <time>2022-05-17T14:08:06.550Z</time>
      </trkpt>
      <trkpt lat="49.85163" lon="4.62934">
        <ele>263</ele>
        <time>2022-05-17T14:08:07.541Z</time>
      </trkpt>
      <trkpt lat="49.85163" lon="4.62934">
        <ele>263</ele>
        <time>2022-05-17T14:08:08.546Z</time>
      </trkpt>
      <trkpt lat="49.85163" lon="4.62926">
        <ele>263</ele>
        <time>2022-05-17T14:08:09.542Z</time>
      </trkpt>
      <trkpt lat="49.85163" lon="4.62926">
        <ele>263</ele>
        <time>2022-05-17T14:08:10.524Z</time>
      </trkpt>
      <trkpt lat="49.85163" lon="4.62919">
        <ele>263</ele>
        <time>2022-05-17T14:08:11.562Z</time>
      </trkpt>
      <trkpt lat="49.85163" lon="4.62919">
        <ele>263</ele>
        <time>2022-05-17T14:08:12.527Z</time>
      </trkpt>
      <trkpt lat="49.85163" lon="4.62909">
        <ele>263</ele>
        <time>2022-05-17T14:08:13.555Z</time>
      </trkpt>
      <trkpt lat="49.85163" lon="4.62909">
        <ele>263</ele>
        <time>2022-05-17T14:08:14.562Z</time>
      </trkpt>
      <trkpt lat="49.85164" lon="4.62899">
        <ele>263</ele>
        <time>2022-05-17T14:08:15.533Z</time>
      </trkpt>
      <trkpt lat="49.85163" lon="4.62895">
        <ele>263</ele>
        <time>2022-05-17T14:08:16.530Z</time>
      </trkpt>
      <trkpt lat="49.85163" lon="4.62895">
        <ele>263</ele>
        <time>2022-05-17T14:08:17.536Z</time>
      </trkpt>
      <trkpt lat="49.85163" lon="4.62886">
        <ele>263</ele>
        <time>2022-05-17T14:08:18.526Z</time>
      </trkpt>
      <trkpt lat="49.85163" lon="4.62881">
        <ele>263</ele>
        <time>2022-05-17T14:08:19.563Z</time>
      </trkpt>
      <trkpt lat="49.85163" lon="4.62881">
        <ele>263</ele>
        <time>2022-05-17T14:08:20.542Z</time>
      </trkpt>
      <trkpt lat="49.85162" lon="4.62873">
        <ele>263</ele>
        <time>2022-05-17T14:08:21.556Z</time>
      </trkpt>
      <trkpt lat="49.85162" lon="4.62868">
        <ele>263</ele>
        <time>2022-05-17T14:08:22.555Z</time>
      </trkpt>
      <trkpt lat="49.85164" lon="4.62864">
        <ele>263</ele>
        <time>2022-05-17T14:08:23.550Z</time>
      </trkpt>
      <trkpt lat="49.85165" lon="4.62861">
        <ele>263</ele>
        <time>2022-05-17T14:08:24.530Z</time>
      </trkpt>
      <trkpt lat="49.85165" lon="4.62861">
        <ele>263</ele>
        <time>2022-05-17T14:08:25.535Z</time>
      </trkpt>
      <trkpt lat="49.8517" lon="4.62857">
        <ele>263</ele>
        <time>2022-05-17T14:08:26.527Z</time>
      </trkpt>
      <trkpt lat="49.8517" lon="4.62857">
        <ele>263</ele>
        <time>2022-05-17T14:08:27.543Z</time>
      </trkpt>
      <trkpt lat="49.85174" lon="4.62859">
        <ele>264</ele>
        <time>2022-05-17T14:08:28.542Z</time>
      </trkpt>
      <trkpt lat="49.85174" lon="4.62859">
        <ele>264</ele>
        <time>2022-05-17T14:08:29.548Z</time>
      </trkpt>
      <trkpt lat="49.85179" lon="4.62859">
        <ele>264</ele>
        <time>2022-05-17T14:08:30.545Z</time>
      </trkpt>
      <trkpt lat="49.85179" lon="4.62859">
        <ele>264</ele>
        <time>2022-05-17T14:08:31.555Z</time>
      </trkpt>
      <trkpt lat="49.85183" lon="4.62856">
        <ele>264</ele>
        <time>2022-05-17T14:08:32.559Z</time>
      </trkpt>
      <trkpt lat="49.85186" lon="4.62854">
        <ele>264</ele>
        <time>2022-05-17T14:08:33.543Z</time>
      </trkpt>
      <trkpt lat="49.85186" lon="4.62854">
        <ele>264</ele>
        <time>2022-05-17T14:08:34.548Z</time>
      </trkpt>
      <trkpt lat="49.85191" lon="4.62849">
        <ele>264</ele>
        <time>2022-05-17T14:08:35.542Z</time>
      </trkpt>
      <trkpt lat="49.85194" lon="4.62847">
        <ele>264</ele>
        <time>2022-05-17T14:08:36.537Z</time>
      </trkpt>
      <trkpt lat="49.85194" lon="4.62847">
        <ele>264</ele>
        <time>2022-05-17T14:08:37.542Z</time>
      </trkpt>
      <trkpt lat="49.85199" lon="4.62842">
        <ele>265</ele>
        <time>2022-05-17T14:08:38.535Z</time>
      </trkpt>
      <trkpt lat="49.85201" lon="4.6284">
        <ele>265</ele>
        <time>2022-05-17T14:08:39.559Z</time>
      </trkpt>
      <trkpt lat="49.85201" lon="4.6284">
        <ele>265</ele>
        <time>2022-05-17T14:08:40.527Z</time>
      </trkpt>
      <trkpt lat="49.85206" lon="4.62835">
        <ele>265</ele>
        <time>2022-05-17T14:08:41.558Z</time>
      </trkpt>
      <trkpt lat="49.85209" lon="4.62833">
        <ele>265</ele>
        <time>2022-05-17T14:08:42.528Z</time>
      </trkpt>
      <trkpt lat="49.85209" lon="4.62833">
        <ele>265</ele>
        <time>2022-05-17T14:08:43.533Z</time>
      </trkpt>
      <trkpt lat="49.85215" lon="4.62827">
        <ele>266</ele>
        <time>2022-05-17T14:08:44.528Z</time>
      </trkpt>
      <trkpt lat="49.85215" lon="4.62827">
        <ele>266</ele>
        <time>2022-05-17T14:08:45.536Z</time>
      </trkpt>
      <trkpt lat="49.8522" lon="4.62817">
        <ele>266</ele>
        <time>2022-05-17T14:08:46.564Z</time>
      </trkpt>
      <trkpt lat="49.8522" lon="4.62817">
        <ele>266</ele>
        <time>2022-05-17T14:08:47.529Z</time>
      </trkpt>
      <trkpt lat="49.85225" lon="4.62807">
        <ele>267</ele>
        <time>2022-05-17T14:08:48.554Z</time>
      </trkpt>
      <trkpt lat="49.85225" lon="4.62807">
        <ele>267</ele>
        <time>2022-05-17T14:08:49.559Z</time>
      </trkpt>
      <trkpt lat="49.8523" lon="4.628">
        <ele>268</ele>
        <time>2022-05-17T14:08:50.555Z</time>
      </trkpt>
      <trkpt lat="49.85232" lon="4.62798">
        <ele>268</ele>
        <time>2022-05-17T14:08:51.547Z</time>
      </trkpt>
      <trkpt lat="49.85232" lon="4.62798">
        <ele>268</ele>
        <time>2022-05-17T14:08:52.552Z</time>
      </trkpt>
      <trkpt lat="49.85237" lon="4.62792">
        <ele>269</ele>
        <time>2022-05-17T14:08:53.534Z</time>
      </trkpt>
      <trkpt lat="49.85237" lon="4.62792">
        <ele>269</ele>
        <time>2022-05-17T14:08:54.539Z</time>
      </trkpt>
      <trkpt lat="49.85243" lon="4.62787">
        <ele>269</ele>
        <time>2022-05-17T14:08:55.524Z</time>
      </trkpt>
      <trkpt lat="49.85243" lon="4.62787">
        <ele>269</ele>
        <time>2022-05-17T14:08:56.530Z</time>
      </trkpt>
      <trkpt lat="49.85249" lon="4.62783">
        <ele>270</ele>
        <time>2022-05-17T14:08:57.550Z</time>
      </trkpt>
      <trkpt lat="49.85252" lon="4.62781">
        <ele>270</ele>
        <time>2022-05-17T14:08:58.525Z</time>
      </trkpt>
      <trkpt lat="49.85256" lon="4.62779">
        <ele>270</ele>
        <time>2022-05-17T14:08:59.557Z</time>
      </trkpt>
      <trkpt lat="49.85256" lon="4.62779">
        <ele>270</ele>
        <time>2022-05-17T14:09:00.526Z</time>
      </trkpt>
      <trkpt lat="49.85263" lon="4.62777">
        <ele>270</ele>
        <time>2022-05-17T14:09:01.548Z</time>
      </trkpt>
      <trkpt lat="49.85263" lon="4.62777">
        <ele>270</ele>
        <time>2022-05-17T14:09:02.553Z</time>
      </trkpt>
      <trkpt lat="49.8527" lon="4.62774">
        <ele>271</ele>
        <time>2022-05-17T14:09:03.546Z</time>
      </trkpt>
      <trkpt lat="49.85273" lon="4.62772">
        <ele>271</ele>
        <time>2022-05-17T14:09:04.543Z</time>
      </trkpt>
      <trkpt lat="49.85273" lon="4.62772">
        <ele>271</ele>
        <time>2022-05-17T14:09:05.548Z</time>
      </trkpt>
      <trkpt lat="49.85281" lon="4.62768">
        <ele>271</ele>
        <time>2022-05-17T14:09:06.535Z</time>
      </trkpt>
      <trkpt lat="49.85281" lon="4.62768">
        <ele>271</ele>
        <time>2022-05-17T14:09:07.540Z</time>
      </trkpt>
      <trkpt lat="49.8529" lon="4.62764">
        <ele>272</ele>
        <time>2022-05-17T14:09:08.537Z</time>
      </trkpt>
      <trkpt lat="49.85293" lon="4.62762">
        <ele>272</ele>
        <time>2022-05-17T14:09:09.529Z</time>
      </trkpt>
      <trkpt lat="49.85293" lon="4.62762">
        <ele>272</ele>
        <time>2022-05-17T14:09:10.540Z</time>
      </trkpt>
      <trkpt lat="49.85301" lon="4.62756">
        <ele>273</ele>
        <time>2022-05-17T14:09:11.530Z</time>
      </trkpt>
      <trkpt lat="49.85301" lon="4.62756">
        <ele>273</ele>
        <time>2022-05-17T14:09:12.535Z</time>
      </trkpt>
      <trkpt lat="49.8531" lon="4.62751">
        <ele>273</ele>
        <time>2022-05-17T14:09:13.539Z</time>
      </trkpt>
      <trkpt lat="49.8531" lon="4.62751">
        <ele>273</ele>
        <time>2022-05-17T14:09:14.544Z</time>
      </trkpt>
      <trkpt lat="49.85319" lon="4.62742">
        <ele>274</ele>
        <time>2022-05-17T14:09:15.536Z</time>
      </trkpt>
      <trkpt lat="49.85319" lon="4.62742">
        <ele>274</ele>
        <time>2022-05-17T14:09:16.541Z</time>
      </trkpt>
      <trkpt lat="49.85329" lon="4.62736">
        <ele>274</ele>
        <time>2022-05-17T14:09:17.556Z</time>
      </trkpt>
      <trkpt lat="49.85329" lon="4.62736">
        <ele>274</ele>
        <time>2022-05-17T14:09:18.527Z</time>
      </trkpt>
      <trkpt lat="49.85338" lon="4.62729">
        <ele>275</ele>
        <time>2022-05-17T14:09:19.556Z</time>
      </trkpt>
      <trkpt lat="49.85338" lon="4.62729">
        <ele>275</ele>
        <time>2022-05-17T14:09:20.528Z</time>
      </trkpt>
      <trkpt lat="49.85346" lon="4.62726">
        <ele>276</ele>
        <time>2022-05-17T14:09:21.534Z</time>
      </trkpt>
      <trkpt lat="49.85349" lon="4.62727">
        <ele>276</ele>
        <time>2022-05-17T14:09:22.540Z</time>
      </trkpt>
      <trkpt lat="49.85349" lon="4.62727">
        <ele>276</ele>
        <time>2022-05-17T14:09:23.545Z</time>
      </trkpt>
      <trkpt lat="49.85355" lon="4.62727">
        <ele>277</ele>
        <time>2022-05-17T14:09:24.549Z</time>
      </trkpt>
      <trkpt lat="49.85358" lon="4.62726">
        <ele>277</ele>
        <time>2022-05-17T14:09:25.537Z</time>
      </trkpt>
      <trkpt lat="49.85358" lon="4.62726">
        <ele>277</ele>
        <time>2022-05-17T14:09:26.542Z</time>
      </trkpt>
      <trkpt lat="49.85365" lon="4.62724">
        <ele>277</ele>
        <time>2022-05-17T14:09:27.541Z</time>
      </trkpt>
      <trkpt lat="49.85365" lon="4.62724">
        <ele>277</ele>
        <time>2022-05-17T14:09:28.550Z</time>
      </trkpt>
      <trkpt lat="49.85372" lon="4.62722">
        <ele>278</ele>
        <time>2022-05-17T14:09:29.535Z</time>
      </trkpt>
      <trkpt lat="49.85377" lon="4.62721">
        <ele>279</ele>
        <time>2022-05-17T14:09:30.531Z</time>
      </trkpt>
      <trkpt lat="49.85377" lon="4.62721">
        <ele>279</ele>
        <time>2022-05-17T14:09:31.536Z</time>
      </trkpt>
      <trkpt lat="49.85384" lon="4.62719">
        <ele>279</ele>
        <time>2022-05-17T14:09:32.561Z</time>
      </trkpt>
      <trkpt lat="49.85384" lon="4.62719">
        <ele>279</ele>
        <time>2022-05-17T14:09:33.527Z</time>
      </trkpt>
      <trkpt lat="49.85392" lon="4.62716">
        <ele>279</ele>
        <time>2022-05-17T14:09:34.554Z</time>
      </trkpt>
      <trkpt lat="49.85397" lon="4.62714">
        <ele>279</ele>
        <time>2022-05-17T14:09:35.545Z</time>
      </trkpt>
      <trkpt lat="49.85397" lon="4.62714">
        <ele>279</ele>
        <time>2022-05-17T14:09:36.550Z</time>
      </trkpt>
      <trkpt lat="49.85404" lon="4.62709">
        <ele>280</ele>
        <time>2022-05-17T14:09:37.561Z</time>
      </trkpt>
      <trkpt lat="49.85404" lon="4.62709">
        <ele>280</ele>
        <time>2022-05-17T14:09:38.528Z</time>
      </trkpt>
      <trkpt lat="49.85411" lon="4.62706">
        <ele>280</ele>
        <time>2022-05-17T14:09:39.535Z</time>
      </trkpt>
      <trkpt lat="49.85411" lon="4.62706">
        <ele>280</ele>
        <time>2022-05-17T14:09:40.540Z</time>
      </trkpt>
      <trkpt lat="49.85419" lon="4.62702">
        <ele>279</ele>
        <time>2022-05-17T14:09:41.528Z</time>
      </trkpt>
      <trkpt lat="49.85423" lon="4.627">
        <ele>279</ele>
        <time>2022-05-17T14:09:42.543Z</time>
      </trkpt>
      <trkpt lat="49.85423" lon="4.627">
        <ele>279</ele>
        <time>2022-05-17T14:09:43.548Z</time>
      </trkpt>
      <trkpt lat="49.85431" lon="4.62694">
        <ele>279</ele>
        <time>2022-05-17T14:09:44.536Z</time>
      </trkpt>
      <trkpt lat="49.85431" lon="4.62694">
        <ele>279</ele>
        <time>2022-05-17T14:09:45.530Z</time>
      </trkpt>
      <trkpt lat="49.85441" lon="4.62687">
        <ele>280</ele>
        <time>2022-05-17T14:09:46.560Z</time>
      </trkpt>
      <trkpt lat="49.85441" lon="4.62687">
        <ele>280</ele>
        <time>2022-05-17T14:09:47.530Z</time>
      </trkpt>
      <trkpt lat="49.85447" lon="4.62681">
        <ele>280</ele>
        <time>2022-05-17T14:09:48.527Z</time>
      </trkpt>
      <trkpt lat="49.85451" lon="4.62677">
        <ele>280</ele>
        <time>2022-05-17T14:09:49.558Z</time>
      </trkpt>
      <trkpt lat="49.85451" lon="4.62677">
        <ele>280</ele>
        <time>2022-05-17T14:09:50.530Z</time>
      </trkpt>
      <trkpt lat="49.85458" lon="4.6267">
        <ele>280</ele>
        <time>2022-05-17T14:09:51.528Z</time>
      </trkpt>
      <trkpt lat="49.85462" lon="4.62668">
        <ele>280</ele>
        <time>2022-05-17T14:09:52.558Z</time>
      </trkpt>
      <trkpt lat="49.85462" lon="4.62668">
        <ele>280</ele>
        <time>2022-05-17T14:09:53.530Z</time>
      </trkpt>
      <trkpt lat="49.8547" lon="4.62663">
        <ele>280</ele>
        <time>2022-05-17T14:09:54.559Z</time>
      </trkpt>
      <trkpt lat="49.85474" lon="4.62661">
        <ele>280</ele>
        <time>2022-05-17T14:09:55.531Z</time>
      </trkpt>
      <trkpt lat="49.85474" lon="4.62661">
        <ele>280</ele>
        <time>2022-05-17T14:09:56.536Z</time>
      </trkpt>
      <trkpt lat="49.85483" lon="4.62657">
        <ele>280</ele>
        <time>2022-05-17T14:09:57.530Z</time>
      </trkpt>
      <trkpt lat="49.85483" lon="4.62657">
        <ele>280</ele>
        <time>2022-05-17T14:09:58.536Z</time>
      </trkpt>
      <trkpt lat="49.85493" lon="4.62657">
        <ele>280</ele>
        <time>2022-05-17T14:09:59.533Z</time>
      </trkpt>
      <trkpt lat="49.85493" lon="4.62657">
        <ele>280</ele>
        <time>2022-05-17T14:10:00.538Z</time>
      </trkpt>
      <trkpt lat="49.85502" lon="4.62659">
        <ele>279</ele>
        <time>2022-05-17T14:10:01.530Z</time>
      </trkpt>
      <trkpt lat="49.85502" lon="4.62659">
        <ele>279</ele>
        <time>2022-05-17T14:10:02.535Z</time>
      </trkpt>
      <trkpt lat="49.85511" lon="4.62662">
        <ele>280</ele>
        <time>2022-05-17T14:10:03.538Z</time>
      </trkpt>
      <trkpt lat="49.85511" lon="4.62662">
        <ele>280</ele>
        <time>2022-05-17T14:10:04.543Z</time>
      </trkpt>
      <trkpt lat="49.8552" lon="4.62666">
        <ele>279</ele>
        <time>2022-05-17T14:10:05.533Z</time>
      </trkpt>
      <trkpt lat="49.85525" lon="4.62669">
        <ele>278</ele>
        <time>2022-05-17T14:10:06.532Z</time>
      </trkpt>
      <trkpt lat="49.8553" lon="4.62673">
        <ele>278</ele>
        <time>2022-05-17T14:10:07.529Z</time>
      </trkpt>
      <trkpt lat="49.8553" lon="4.62673">
        <ele>278</ele>
        <time>2022-05-17T14:10:08.537Z</time>
      </trkpt>
      <trkpt lat="49.85542" lon="4.62682">
        <ele>277</ele>
        <time>2022-05-17T14:10:09.527Z</time>
      </trkpt>
      <trkpt lat="49.85542" lon="4.62682">
        <ele>277</ele>
        <time>2022-05-17T14:10:10.543Z</time>
      </trkpt>
      <trkpt lat="49.85555" lon="4.62695">
        <ele>275</ele>
        <time>2022-05-17T14:10:11.541Z</time>
      </trkpt>
      <trkpt lat="49.8556" lon="4.62702">
        <ele>273</ele>
        <time>2022-05-17T14:10:12.542Z</time>
      </trkpt>
      <trkpt lat="49.85565" lon="4.62709">
        <ele>272</ele>
        <time>2022-05-17T14:10:13.527Z</time>
      </trkpt>
      <trkpt lat="49.85565" lon="4.62709">
        <ele>272</ele>
        <time>2022-05-17T14:10:14.532Z</time>
      </trkpt>
      <trkpt lat="49.8557" lon="4.62714">
        <ele>269</ele>
        <time>2022-05-17T14:10:15.540Z</time>
      </trkpt>
      <trkpt lat="49.8557" lon="4.62714">
        <ele>269</ele>
        <time>2022-05-17T14:10:16.545Z</time>
      </trkpt>
      <trkpt lat="49.85571" lon="4.62715">
        <ele>266</ele>
        <time>2022-05-17T14:10:17.557Z</time>
      </trkpt>
      <trkpt lat="49.8557" lon="4.62715">
        <ele>266</ele>
        <time>2022-05-17T14:10:18.546Z</time>
      </trkpt>
      <trkpt lat="49.8557" lon="4.62715">
        <ele>266</ele>
        <time>2022-05-17T14:10:19.552Z</time>
      </trkpt>
      <trkpt lat="49.8557" lon="4.62715">
        <ele>266</ele>
        <time>2022-05-17T14:10:20.532Z</time>
      </trkpt>
      <trkpt lat="49.8557" lon="4.62715">
        <ele>266</ele>
        <time>2022-05-17T14:10:21.536Z</time>
      </trkpt>
      <trkpt lat="49.8557" lon="4.62715">
        <ele>266</ele>
        <time>2022-05-17T14:10:22.534Z</time>
      </trkpt>
      <trkpt lat="49.8557" lon="4.62715">
        <ele>266</ele>
        <time>2022-05-17T14:10:23.540Z</time>
      </trkpt>
      <trkpt lat="49.85574" lon="4.6272">
        <ele>264</ele>
        <time>2022-05-17T14:10:24.547Z</time>
      </trkpt>
      <trkpt lat="49.85574" lon="4.6272">
        <ele>264</ele>
        <time>2022-05-17T14:10:25.538Z</time>
      </trkpt>
      <trkpt lat="49.85578" lon="4.62724">
        <ele>264</ele>
        <time>2022-05-17T14:10:26.533Z</time>
      </trkpt>
      <trkpt lat="49.85578" lon="4.62724">
        <ele>264</ele>
        <time>2022-05-17T14:10:27.550Z</time>
      </trkpt>
      <trkpt lat="49.85583" lon="4.62731">
        <ele>264</ele>
        <time>2022-05-17T14:10:28.542Z</time>
      </trkpt>
      <trkpt lat="49.85583" lon="4.62731">
        <ele>264</ele>
        <time>2022-05-17T14:10:29.537Z</time>
      </trkpt>
      <trkpt lat="49.85587" lon="4.62739">
        <ele>263</ele>
        <time>2022-05-17T14:10:30.540Z</time>
      </trkpt>
      <trkpt lat="49.85587" lon="4.62739">
        <ele>263</ele>
        <time>2022-05-17T14:10:31.546Z</time>
      </trkpt>
      <trkpt lat="49.85593" lon="4.62749">
        <ele>262</ele>
        <time>2022-05-17T14:10:32.555Z</time>
      </trkpt>
      <trkpt lat="49.85593" lon="4.62749">
        <ele>262</ele>
        <time>2022-05-17T14:10:33.560Z</time>
      </trkpt>
      <trkpt lat="49.85599" lon="4.62759">
        <ele>262</ele>
        <time>2022-05-17T14:10:34.528Z</time>
      </trkpt>
      <trkpt lat="49.85599" lon="4.62759">
        <ele>262</ele>
        <time>2022-05-17T14:10:35.532Z</time>
      </trkpt>
      <trkpt lat="49.85608" lon="4.62772">
        <ele>259</ele>
        <time>2022-05-17T14:10:36.527Z</time>
      </trkpt>
      <trkpt lat="49.85608" lon="4.62772">
        <ele>259</ele>
        <time>2022-05-17T14:10:37.532Z</time>
      </trkpt>
      <trkpt lat="49.8562" lon="4.62783">
        <ele>257</ele>
        <time>2022-05-17T14:10:38.545Z</time>
      </trkpt>
      <trkpt lat="49.85627" lon="4.62789">
        <ele>256</ele>
        <time>2022-05-17T14:10:39.555Z</time>
      </trkpt>
      <trkpt lat="49.85627" lon="4.62789">
        <ele>256</ele>
        <time>2022-05-17T14:10:40.525Z</time>
      </trkpt>
      <trkpt lat="49.85643" lon="4.62801">
        <ele>253</ele>
        <time>2022-05-17T14:10:41.537Z</time>
      </trkpt>
      <trkpt lat="49.85643" lon="4.62801">
        <ele>253</ele>
        <time>2022-05-17T14:10:42.542Z</time>
      </trkpt>
      <trkpt lat="49.85658" lon="4.62813">
        <ele>251</ele>
        <time>2022-05-17T14:10:43.544Z</time>
      </trkpt>
      <trkpt lat="49.85658" lon="4.62813">
        <ele>251</ele>
        <time>2022-05-17T14:10:44.554Z</time>
      </trkpt>
      <trkpt lat="49.85671" lon="4.62831">
        <ele>250</ele>
        <time>2022-05-17T14:10:45.529Z</time>
      </trkpt>
      <trkpt lat="49.85676" lon="4.6284">
        <ele>249</ele>
        <time>2022-05-17T14:10:46.554Z</time>
      </trkpt>
      <trkpt lat="49.85676" lon="4.6284">
        <ele>249</ele>
        <time>2022-05-17T14:10:47.560Z</time>
      </trkpt>
      <trkpt lat="49.85685" lon="4.62856">
        <ele>247</ele>
        <time>2022-05-17T14:10:48.533Z</time>
      </trkpt>
      <trkpt lat="49.85685" lon="4.62856">
        <ele>247</ele>
        <time>2022-05-17T14:10:49.545Z</time>
      </trkpt>
      <trkpt lat="49.8569" lon="4.62862">
        <ele>246</ele>
        <time>2022-05-17T14:10:50.537Z</time>
      </trkpt>
      <trkpt lat="49.8569" lon="4.62862">
        <ele>246</ele>
        <time>2022-05-17T14:10:51.542Z</time>
      </trkpt>
      <trkpt lat="49.85694" lon="4.62858">
        <ele>245</ele>
        <time>2022-05-17T14:10:52.551Z</time>
      </trkpt>
      <trkpt lat="49.85694" lon="4.62858">
        <ele>245</ele>
        <time>2022-05-17T14:10:53.558Z</time>
      </trkpt>
      <trkpt lat="49.85697" lon="4.62848">
        <ele>245</ele>
        <time>2022-05-17T14:10:54.563Z</time>
      </trkpt>
      <trkpt lat="49.85697" lon="4.62848">
        <ele>245</ele>
        <time>2022-05-17T14:10:55.528Z</time>
      </trkpt>
      <trkpt lat="49.857" lon="4.62836">
        <ele>245</ele>
        <time>2022-05-17T14:10:56.537Z</time>
      </trkpt>
      <trkpt lat="49.85701" lon="4.62831">
        <ele>246</ele>
        <time>2022-05-17T14:10:57.558Z</time>
      </trkpt>
      <trkpt lat="49.85701" lon="4.62831">
        <ele>246</ele>
        <time>2022-05-17T14:10:58.537Z</time>
      </trkpt>
      <trkpt lat="49.85704" lon="4.62819">
        <ele>245</ele>
        <time>2022-05-17T14:10:59.553Z</time>
      </trkpt>
      <trkpt lat="49.85704" lon="4.62819">
        <ele>245</ele>
        <time>2022-05-17T14:11:00.527Z</time>
      </trkpt>
      <trkpt lat="49.85707" lon="4.62807">
        <ele>245</ele>
        <time>2022-05-17T14:11:01.536Z</time>
      </trkpt>
      <trkpt lat="49.85707" lon="4.62807">
        <ele>245</ele>
        <time>2022-05-17T14:11:02.535Z</time>
      </trkpt>
      <trkpt lat="49.85709" lon="4.62795">
        <ele>245</ele>
        <time>2022-05-17T14:11:03.546Z</time>
      </trkpt>
      <trkpt lat="49.85711" lon="4.62789">
        <ele>245</ele>
        <time>2022-05-17T14:11:04.534Z</time>
      </trkpt>
      <trkpt lat="49.85711" lon="4.62789">
        <ele>245</ele>
        <time>2022-05-17T14:11:05.539Z</time>
      </trkpt>
      <trkpt lat="49.85714" lon="4.62776">
        <ele>245</ele>
        <time>2022-05-17T14:11:06.549Z</time>
      </trkpt>
      <trkpt lat="49.85715" lon="4.62772">
        <ele>245</ele>
        <time>2022-05-17T14:11:07.535Z</time>
      </trkpt>
      <trkpt lat="49.85715" lon="4.62772">
        <ele>245</ele>
        <time>2022-05-17T14:11:08.547Z</time>
      </trkpt>
      <trkpt lat="49.85718" lon="4.62762">
        <ele>245</ele>
        <time>2022-05-17T14:11:09.561Z</time>
      </trkpt>
      <trkpt lat="49.85718" lon="4.62762">
        <ele>245</ele>
        <time>2022-05-17T14:11:10.538Z</time>
      </trkpt>
      <trkpt lat="49.8572" lon="4.62752">
        <ele>245</ele>
        <time>2022-05-17T14:11:11.550Z</time>
      </trkpt>
      <trkpt lat="49.85721" lon="4.62747">
        <ele>245</ele>
        <time>2022-05-17T14:11:12.559Z</time>
      </trkpt>
      <trkpt lat="49.85723" lon="4.62742">
        <ele>245</ele>
        <time>2022-05-17T14:11:13.546Z</time>
      </trkpt>
      <trkpt lat="49.85723" lon="4.62742">
        <ele>245</ele>
        <time>2022-05-17T14:11:14.563Z</time>
      </trkpt>
      <trkpt lat="49.85725" lon="4.62731">
        <ele>245</ele>
        <time>2022-05-17T14:11:15.556Z</time>
      </trkpt>
      <trkpt lat="49.85726" lon="4.62726">
        <ele>246</ele>
        <time>2022-05-17T14:11:16.553Z</time>
      </trkpt>
      <trkpt lat="49.85726" lon="4.62726">
        <ele>246</ele>
        <time>2022-05-17T14:11:17.559Z</time>
      </trkpt>
      <trkpt lat="49.85728" lon="4.62716">
        <ele>246</ele>
        <time>2022-05-17T14:11:18.526Z</time>
      </trkpt>
      <trkpt lat="49.8573" lon="4.62713">
        <ele>246</ele>
        <time>2022-05-17T14:11:19.557Z</time>
      </trkpt>
      <trkpt lat="49.8573" lon="4.62713">
        <ele>246</ele>
        <time>2022-05-17T14:11:20.528Z</time>
      </trkpt>
      <trkpt lat="49.85735" lon="4.62708">
        <ele>246</ele>
        <time>2022-05-17T14:11:21.544Z</time>
      </trkpt>
      <trkpt lat="49.85737" lon="4.62706">
        <ele>247</ele>
        <time>2022-05-17T14:11:22.541Z</time>
      </trkpt>
      <trkpt lat="49.85737" lon="4.62706">
        <ele>247</ele>
        <time>2022-05-17T14:11:23.546Z</time>
      </trkpt>
      <trkpt lat="49.85743" lon="4.62702">
        <ele>247</ele>
        <time>2022-05-17T14:11:24.527Z</time>
      </trkpt>
      <trkpt lat="49.85743" lon="4.62702">
        <ele>247</ele>
        <time>2022-05-17T14:11:25.542Z</time>
      </trkpt>
      <trkpt lat="49.85748" lon="4.62701">
        <ele>247</ele>
        <time>2022-05-17T14:11:26.540Z</time>
      </trkpt>
      <trkpt lat="49.85748" lon="4.62701">
        <ele>247</ele>
        <time>2022-05-17T14:11:27.545Z</time>
      </trkpt>
      <trkpt lat="49.85754" lon="4.627">
        <ele>248</ele>
        <time>2022-05-17T14:11:28.540Z</time>
      </trkpt>
      <trkpt lat="49.85754" lon="4.627">
        <ele>248</ele>
        <time>2022-05-17T14:11:29.545Z</time>
      </trkpt>
      <trkpt lat="49.85759" lon="4.62701">
        <ele>248</ele>
        <time>2022-05-17T14:11:30.559Z</time>
      </trkpt>
      <trkpt lat="49.85762" lon="4.62701">
        <ele>249</ele>
        <time>2022-05-17T14:11:31.548Z</time>
      </trkpt>
      <trkpt lat="49.85762" lon="4.62701">
        <ele>249</ele>
        <time>2022-05-17T14:11:32.553Z</time>
      </trkpt>
      <trkpt lat="49.85766" lon="4.62701">
        <ele>250</ele>
        <time>2022-05-17T14:11:33.545Z</time>
      </trkpt>
      <trkpt lat="49.85767" lon="4.62701">
        <ele>250</ele>
        <time>2022-05-17T14:11:34.546Z</time>
      </trkpt>
      <trkpt lat="49.85767" lon="4.62701">
        <ele>250</ele>
        <time>2022-05-17T14:11:35.551Z</time>
      </trkpt>
      <trkpt lat="49.85772" lon="4.62701">
        <ele>251</ele>
        <time>2022-05-17T14:11:36.540Z</time>
      </trkpt>
      <trkpt lat="49.85775" lon="4.62701">
        <ele>251</ele>
        <time>2022-05-17T14:11:37.543Z</time>
      </trkpt>
      <trkpt lat="49.85775" lon="4.62701">
        <ele>251</ele>
        <time>2022-05-17T14:11:38.548Z</time>
      </trkpt>
      <trkpt lat="49.85779" lon="4.62702">
        <ele>252</ele>
        <time>2022-05-17T14:11:39.539Z</time>
      </trkpt>
      <trkpt lat="49.85779" lon="4.62702">
        <ele>252</ele>
        <time>2022-05-17T14:11:40.544Z</time>
      </trkpt>
      <trkpt lat="49.85781" lon="4.62703">
        <ele>253</ele>
        <time>2022-05-17T14:11:41.549Z</time>
      </trkpt>
      <trkpt lat="49.85782" lon="4.62703">
        <ele>254</ele>
        <time>2022-05-17T14:11:42.553Z</time>
      </trkpt>
      <trkpt lat="49.85782" lon="4.62703">
        <ele>254</ele>
        <time>2022-05-17T14:11:43.558Z</time>
      </trkpt>
      <trkpt lat="49.85785" lon="4.62703">
        <ele>254</ele>
        <time>2022-05-17T14:11:44.532Z</time>
      </trkpt>
      <trkpt lat="49.85786" lon="4.62703">
        <ele>255</ele>
        <time>2022-05-17T14:11:45.527Z</time>
      </trkpt>
      <trkpt lat="49.85786" lon="4.62703">
        <ele>255</ele>
        <time>2022-05-17T14:11:46.532Z</time>
      </trkpt>
      <trkpt lat="49.85788" lon="4.62704">
        <ele>256</ele>
        <time>2022-05-17T14:11:47.526Z</time>
      </trkpt>
      <trkpt lat="49.85788" lon="4.62704">
        <ele>256</ele>
        <time>2022-05-17T14:11:48.542Z</time>
      </trkpt>
      <trkpt lat="49.85791" lon="4.62705">
        <ele>256</ele>
        <time>2022-05-17T14:11:49.532Z</time>
      </trkpt>
      <trkpt lat="49.85791" lon="4.62705">
        <ele>256</ele>
        <time>2022-05-17T14:11:50.538Z</time>
      </trkpt>
      <trkpt lat="49.85793" lon="4.62706">
        <ele>257</ele>
        <time>2022-05-17T14:11:51.546Z</time>
      </trkpt>
      <trkpt lat="49.85793" lon="4.62706">
        <ele>257</ele>
        <time>2022-05-17T14:11:52.551Z</time>
      </trkpt>
      <trkpt lat="49.85795" lon="4.62707">
        <ele>258</ele>
        <time>2022-05-17T14:11:53.524Z</time>
      </trkpt>
      <trkpt lat="49.85795" lon="4.62707">
        <ele>258</ele>
        <time>2022-05-17T14:11:54.531Z</time>
      </trkpt>
      <trkpt lat="49.85798" lon="4.62709">
        <ele>258</ele>
        <time>2022-05-17T14:11:55.532Z</time>
      </trkpt>
      <trkpt lat="49.85798" lon="4.62709">
        <ele>258</ele>
        <time>2022-05-17T14:11:56.542Z</time>
      </trkpt>
      <trkpt lat="49.858" lon="4.62711">
        <ele>259</ele>
        <time>2022-05-17T14:11:57.563Z</time>
      </trkpt>
      <trkpt lat="49.858" lon="4.62711">
        <ele>259</ele>
        <time>2022-05-17T14:11:58.531Z</time>
      </trkpt>
      <trkpt lat="49.85804" lon="4.62713">
        <ele>259</ele>
        <time>2022-05-17T14:11:59.530Z</time>
      </trkpt>
      <trkpt lat="49.85805" lon="4.62714">
        <ele>259</ele>
        <time>2022-05-17T14:12:00.561Z</time>
      </trkpt>
      <trkpt lat="49.85805" lon="4.62714">
        <ele>259</ele>
        <time>2022-05-17T14:12:01.527Z</time>
      </trkpt>
      <trkpt lat="49.85809" lon="4.62715">
        <ele>259</ele>
        <time>2022-05-17T14:12:02.564Z</time>
      </trkpt>
      <trkpt lat="49.8581" lon="4.62716">
        <ele>259</ele>
        <time>2022-05-17T14:12:03.562Z</time>
      </trkpt>
      <trkpt lat="49.85811" lon="4.62718">
        <ele>259</ele>
        <time>2022-05-17T14:12:04.558Z</time>
      </trkpt>
      <trkpt lat="49.85811" lon="4.62718">
        <ele>259</ele>
        <time>2022-05-17T14:12:05.530Z</time>
      </trkpt>
      <trkpt lat="49.85814" lon="4.62722">
        <ele>259</ele>
        <time>2022-05-17T14:12:06.557Z</time>
      </trkpt>
      <trkpt lat="49.85816" lon="4.62725">
        <ele>259</ele>
        <time>2022-05-17T14:12:07.551Z</time>
      </trkpt>
      <trkpt lat="49.85816" lon="4.62725">
        <ele>259</ele>
        <time>2022-05-17T14:12:08.556Z</time>
      </trkpt>
      <trkpt lat="49.85819" lon="4.6273">
        <ele>259</ele>
        <time>2022-05-17T14:12:09.549Z</time>
      </trkpt>
      <trkpt lat="49.85819" lon="4.6273">
        <ele>259</ele>
        <time>2022-05-17T14:12:10.545Z</time>
      </trkpt>
      <trkpt lat="49.85823" lon="4.62736">
        <ele>259</ele>
        <time>2022-05-17T14:12:11.543Z</time>
      </trkpt>
      <trkpt lat="49.85823" lon="4.62736">
        <ele>259</ele>
        <time>2022-05-17T14:12:12.550Z</time>
      </trkpt>
      <trkpt lat="49.85826" lon="4.62743">
        <ele>259</ele>
        <time>2022-05-17T14:12:13.554Z</time>
      </trkpt>
      <trkpt lat="49.85826" lon="4.62743">
        <ele>259</ele>
        <time>2022-05-17T14:12:14.559Z</time>
      </trkpt>
      <trkpt lat="49.85828" lon="4.62751">
        <ele>259</ele>
        <time>2022-05-17T14:12:15.546Z</time>
      </trkpt>
      <trkpt lat="49.8583" lon="4.62755">
        <ele>259</ele>
        <time>2022-05-17T14:12:16.533Z</time>
      </trkpt>
      <trkpt lat="49.8583" lon="4.62755">
        <ele>259</ele>
        <time>2022-05-17T14:12:17.538Z</time>
      </trkpt>
      <trkpt lat="49.85832" lon="4.62763">
        <ele>258</ele>
        <time>2022-05-17T14:12:18.533Z</time>
      </trkpt>
      <trkpt lat="49.85833" lon="4.62767">
        <ele>258</ele>
        <time>2022-05-17T14:12:19.558Z</time>
      </trkpt>
      <trkpt lat="49.85833" lon="4.62767">
        <ele>258</ele>
        <time>2022-05-17T14:12:20.529Z</time>
      </trkpt>
      <trkpt lat="49.85836" lon="4.62776">
        <ele>258</ele>
        <time>2022-05-17T14:12:21.546Z</time>
      </trkpt>
      <trkpt lat="49.85836" lon="4.62776">
        <ele>258</ele>
        <time>2022-05-17T14:12:22.536Z</time>
      </trkpt>
      <trkpt lat="49.85838" lon="4.62786">
        <ele>259</ele>
        <time>2022-05-17T14:12:23.536Z</time>
      </trkpt>
      <trkpt lat="49.85839" lon="4.62791">
        <ele>259</ele>
        <time>2022-05-17T14:12:24.541Z</time>
      </trkpt>
      <trkpt lat="49.85839" lon="4.62791">
        <ele>259</ele>
        <time>2022-05-17T14:12:25.547Z</time>
      </trkpt>
      <trkpt lat="49.85841" lon="4.62802">
        <ele>259</ele>
        <time>2022-05-17T14:12:26.541Z</time>
      </trkpt>
      <trkpt lat="49.85841" lon="4.62802">
        <ele>259</ele>
        <time>2022-05-17T14:12:27.548Z</time>
      </trkpt>
      <trkpt lat="49.85846" lon="4.62813">
        <ele>259</ele>
        <time>2022-05-17T14:12:28.542Z</time>
      </trkpt>
      <trkpt lat="49.85848" lon="4.62819">
        <ele>259</ele>
        <time>2022-05-17T14:12:29.534Z</time>
      </trkpt>
      <trkpt lat="49.85851" lon="4.62825">
        <ele>258</ele>
        <time>2022-05-17T14:12:30.527Z</time>
      </trkpt>
      <trkpt lat="49.85854" lon="4.62831">
        <ele>258</ele>
        <time>2022-05-17T14:12:31.524Z</time>
      </trkpt>
      <trkpt lat="49.85854" lon="4.62831">
        <ele>258</ele>
        <time>2022-05-17T14:12:32.534Z</time>
      </trkpt>
      <trkpt lat="49.85861" lon="4.62841">
        <ele>258</ele>
        <time>2022-05-17T14:12:33.562Z</time>
      </trkpt>
      <trkpt lat="49.85861" lon="4.62841">
        <ele>258</ele>
        <time>2022-05-17T14:12:34.530Z</time>
      </trkpt>
      <trkpt lat="49.8587" lon="4.62851">
        <ele>258</ele>
        <time>2022-05-17T14:12:35.524Z</time>
      </trkpt>
      <trkpt lat="49.85875" lon="4.62856">
        <ele>258</ele>
        <time>2022-05-17T14:12:36.553Z</time>
      </trkpt>
      <trkpt lat="49.85875" lon="4.62856">
        <ele>258</ele>
        <time>2022-05-17T14:12:37.559Z</time>
      </trkpt>
      <trkpt lat="49.85886" lon="4.62864">
        <ele>256</ele>
        <time>2022-05-17T14:12:38.541Z</time>
      </trkpt>
      <trkpt lat="49.85886" lon="4.62864">
        <ele>256</ele>
        <time>2022-05-17T14:12:39.535Z</time>
      </trkpt>
      <trkpt lat="49.85899" lon="4.62867">
        <ele>255</ele>
        <time>2022-05-17T14:12:40.540Z</time>
      </trkpt>
      <trkpt lat="49.85905" lon="4.62867">
        <ele>255</ele>
        <time>2022-05-17T14:12:41.533Z</time>
      </trkpt>
      <trkpt lat="49.85905" lon="4.62867">
        <ele>255</ele>
        <time>2022-05-17T14:12:42.540Z</time>
      </trkpt>
      <trkpt lat="49.85919" lon="4.62867">
        <ele>254</ele>
        <time>2022-05-17T14:12:43.548Z</time>
      </trkpt>
      <trkpt lat="49.85919" lon="4.62867">
        <ele>254</ele>
        <time>2022-05-17T14:12:44.559Z</time>
      </trkpt>
      <trkpt lat="49.85934" lon="4.62867">
        <ele>253</ele>
        <time>2022-05-17T14:12:45.524Z</time>
      </trkpt>
      <trkpt lat="49.85934" lon="4.62867">
        <ele>253</ele>
        <time>2022-05-17T14:12:46.531Z</time>
      </trkpt>
      <trkpt lat="49.85949" lon="4.62863">
        <ele>253</ele>
        <time>2022-05-17T14:12:47.526Z</time>
      </trkpt>
      <trkpt lat="49.85949" lon="4.62863">
        <ele>253</ele>
        <time>2022-05-17T14:12:48.536Z</time>
      </trkpt>
      <trkpt lat="49.85965" lon="4.62859">
        <ele>251</ele>
        <time>2022-05-17T14:12:49.552Z</time>
      </trkpt>
      <trkpt lat="49.85965" lon="4.62859">
        <ele>251</ele>
        <time>2022-05-17T14:12:50.560Z</time>
      </trkpt>
      <trkpt lat="49.85982" lon="4.62855">
        <ele>251</ele>
        <time>2022-05-17T14:12:51.561Z</time>
      </trkpt>
      <trkpt lat="49.85982" lon="4.62855">
        <ele>251</ele>
        <time>2022-05-17T14:12:52.529Z</time>
      </trkpt>
      <trkpt lat="49.86" lon="4.6285">
        <ele>251</ele>
        <time>2022-05-17T14:12:53.563Z</time>
      </trkpt>
      <trkpt lat="49.86009" lon="4.62846">
        <ele>251</ele>
        <time>2022-05-17T14:12:54.550Z</time>
      </trkpt>
      <trkpt lat="49.86009" lon="4.62846">
        <ele>251</ele>
        <time>2022-05-17T14:12:55.556Z</time>
      </trkpt>
      <trkpt lat="49.86027" lon="4.62841">
        <ele>251</ele>
        <time>2022-05-17T14:12:56.529Z</time>
      </trkpt>
      <trkpt lat="49.86027" lon="4.62841">
        <ele>251</ele>
        <time>2022-05-17T14:12:57.536Z</time>
      </trkpt>
      <trkpt lat="49.86044" lon="4.62837">
        <ele>251</ele>
        <time>2022-05-17T14:12:58.557Z</time>
      </trkpt>
      <trkpt lat="49.86051" lon="4.62837">
        <ele>251</ele>
        <time>2022-05-17T14:12:59.558Z</time>
      </trkpt>
      <trkpt lat="49.86051" lon="4.62837">
        <ele>251</ele>
        <time>2022-05-17T14:13:00.531Z</time>
      </trkpt>
      <trkpt lat="49.86065" lon="4.62834">
        <ele>251</ele>
        <time>2022-05-17T14:13:01.533Z</time>
      </trkpt>
      <trkpt lat="49.86065" lon="4.62834">
        <ele>251</ele>
        <time>2022-05-17T14:13:02.541Z</time>
      </trkpt>
      <trkpt lat="49.86077" lon="4.62832">
        <ele>251</ele>
        <time>2022-05-17T14:13:03.541Z</time>
      </trkpt>
      <trkpt lat="49.86083" lon="4.62832">
        <ele>250</ele>
        <time>2022-05-17T14:13:04.533Z</time>
      </trkpt>
      <trkpt lat="49.86089" lon="4.62833">
        <ele>249</ele>
        <time>2022-05-17T14:13:05.544Z</time>
      </trkpt>
      <trkpt lat="49.86089" lon="4.62833">
        <ele>249</ele>
        <time>2022-05-17T14:13:06.551Z</time>
      </trkpt>
      <trkpt lat="49.86101" lon="4.62833">
        <ele>248</ele>
        <time>2022-05-17T14:13:07.554Z</time>
      </trkpt>
      <trkpt lat="49.86101" lon="4.62833">
        <ele>248</ele>
        <time>2022-05-17T14:13:08.561Z</time>
      </trkpt>
      <trkpt lat="49.86113" lon="4.62835">
        <ele>248</ele>
        <time>2022-05-17T14:13:09.537Z</time>
      </trkpt>
      <trkpt lat="49.86113" lon="4.62835">
        <ele>248</ele>
        <time>2022-05-17T14:13:10.531Z</time>
      </trkpt>
      <trkpt lat="49.86128" lon="4.6284">
        <ele>248</ele>
        <time>2022-05-17T14:13:11.540Z</time>
      </trkpt>
      <trkpt lat="49.86135" lon="4.62842">
        <ele>247</ele>
        <time>2022-05-17T14:13:12.533Z</time>
      </trkpt>
      <trkpt lat="49.86135" lon="4.62842">
        <ele>247</ele>
        <time>2022-05-17T14:13:13.540Z</time>
      </trkpt>
      <trkpt lat="49.86148" lon="4.62848">
        <ele>247</ele>
        <time>2022-05-17T14:13:14.558Z</time>
      </trkpt>
      <trkpt lat="49.86154" lon="4.62852">
        <ele>246</ele>
        <time>2022-05-17T14:13:15.561Z</time>
      </trkpt>
      <trkpt lat="49.86154" lon="4.62852">
        <ele>246</ele>
        <time>2022-05-17T14:13:16.530Z</time>
      </trkpt>
      <trkpt lat="49.86167" lon="4.62859">
        <ele>245</ele>
        <time>2022-05-17T14:13:17.545Z</time>
      </trkpt>
      <trkpt lat="49.86173" lon="4.62862">
        <ele>245</ele>
        <time>2022-05-17T14:13:18.534Z</time>
      </trkpt>
      <trkpt lat="49.86173" lon="4.62862">
        <ele>245</ele>
        <time>2022-05-17T14:13:19.540Z</time>
      </trkpt>
      <trkpt lat="49.86184" lon="4.62868">
        <ele>244</ele>
        <time>2022-05-17T14:13:20.548Z</time>
      </trkpt>
      <trkpt lat="49.86184" lon="4.62868">
        <ele>244</ele>
        <time>2022-05-17T14:13:21.542Z</time>
      </trkpt>
      <trkpt lat="49.86195" lon="4.62874">
        <ele>244</ele>
        <time>2022-05-17T14:13:22.558Z</time>
      </trkpt>
      <trkpt lat="49.862" lon="4.62877">
        <ele>243</ele>
        <time>2022-05-17T14:13:23.535Z</time>
      </trkpt>
      <trkpt lat="49.862" lon="4.62877">
        <ele>243</ele>
        <time>2022-05-17T14:13:24.541Z</time>
      </trkpt>
      <trkpt lat="49.8621" lon="4.62881">
        <ele>242</ele>
        <time>2022-05-17T14:13:25.525Z</time>
      </trkpt>
      <trkpt lat="49.86214" lon="4.62884">
        <ele>242</ele>
        <time>2022-05-17T14:13:26.563Z</time>
      </trkpt>
      <trkpt lat="49.86214" lon="4.62884">
        <ele>242</ele>
        <time>2022-05-17T14:13:27.532Z</time>
      </trkpt>
      <trkpt lat="49.86223" lon="4.62889">
        <ele>241</ele>
        <time>2022-05-17T14:13:28.544Z</time>
      </trkpt>
      <trkpt lat="49.86228" lon="4.62891">
        <ele>241</ele>
        <time>2022-05-17T14:13:29.526Z</time>
      </trkpt>
      <trkpt lat="49.86228" lon="4.62891">
        <ele>241</ele>
        <time>2022-05-17T14:13:30.531Z</time>
      </trkpt>
      <trkpt lat="49.86238" lon="4.62896">
        <ele>241</ele>
        <time>2022-05-17T14:13:31.537Z</time>
      </trkpt>
      <trkpt lat="49.86238" lon="4.62896">
        <ele>241</ele>
        <time>2022-05-17T14:13:32.542Z</time>
      </trkpt>
      <trkpt lat="49.86248" lon="4.62902">
        <ele>241</ele>
        <time>2022-05-17T14:13:33.539Z</time>
      </trkpt>
      <trkpt lat="49.86248" lon="4.62902">
        <ele>241</ele>
        <time>2022-05-17T14:13:34.557Z</time>
      </trkpt>
      <trkpt lat="49.86258" lon="4.62907">
        <ele>241</ele>
        <time>2022-05-17T14:13:35.535Z</time>
      </trkpt>
      <trkpt lat="49.86263" lon="4.62909">
        <ele>242</ele>
        <time>2022-05-17T14:13:36.562Z</time>
      </trkpt>
      <trkpt lat="49.86263" lon="4.62909">
        <ele>242</ele>
        <time>2022-05-17T14:13:37.534Z</time>
      </trkpt>
      <trkpt lat="49.86272" lon="4.62914">
        <ele>243</ele>
        <time>2022-05-17T14:13:38.544Z</time>
      </trkpt>
      <trkpt lat="49.86277" lon="4.62916">
        <ele>243</ele>
        <time>2022-05-17T14:13:39.526Z</time>
      </trkpt>
      <trkpt lat="49.86277" lon="4.62916">
        <ele>243</ele>
        <time>2022-05-17T14:13:40.531Z</time>
      </trkpt>
      <trkpt lat="49.86286" lon="4.6292">
        <ele>244</ele>
        <time>2022-05-17T14:13:41.545Z</time>
      </trkpt>
      <trkpt lat="49.86291" lon="4.62922">
        <ele>244</ele>
        <time>2022-05-17T14:13:42.557Z</time>
      </trkpt>
      <trkpt lat="49.86295" lon="4.62925">
        <ele>245</ele>
        <time>2022-05-17T14:13:43.531Z</time>
      </trkpt>
      <trkpt lat="49.86295" lon="4.62925">
        <ele>245</ele>
        <time>2022-05-17T14:13:44.537Z</time>
      </trkpt>
      <trkpt lat="49.86304" lon="4.6293">
        <ele>246</ele>
        <time>2022-05-17T14:13:45.545Z</time>
      </trkpt>
      <trkpt lat="49.86304" lon="4.6293">
        <ele>246</ele>
        <time>2022-05-17T14:13:46.552Z</time>
      </trkpt>
      <trkpt lat="49.86313" lon="4.62935">
        <ele>246</ele>
        <time>2022-05-17T14:13:47.525Z</time>
      </trkpt>
      <trkpt lat="49.86317" lon="4.62937">
        <ele>246</ele>
        <time>2022-05-17T14:13:48.555Z</time>
      </trkpt>
      <trkpt lat="49.86322" lon="4.6294">
        <ele>246</ele>
        <time>2022-05-17T14:13:49.535Z</time>
      </trkpt>
      <trkpt lat="49.86322" lon="4.6294">
        <ele>246</ele>
        <time>2022-05-17T14:13:50.541Z</time>
      </trkpt>
      <trkpt lat="49.86331" lon="4.62944">
        <ele>245</ele>
        <time>2022-05-17T14:13:51.556Z</time>
      </trkpt>
      <trkpt lat="49.86331" lon="4.62944">
        <ele>245</ele>
        <time>2022-05-17T14:13:52.530Z</time>
      </trkpt>
      <trkpt lat="49.8634" lon="4.62949">
        <ele>245</ele>
        <time>2022-05-17T14:13:53.559Z</time>
      </trkpt>
      <trkpt lat="49.86344" lon="4.62951">
        <ele>245</ele>
        <time>2022-05-17T14:13:54.551Z</time>
      </trkpt>
      <trkpt lat="49.86344" lon="4.62951">
        <ele>245</ele>
        <time>2022-05-17T14:13:55.556Z</time>
      </trkpt>
      <trkpt lat="49.86352" lon="4.62953">
        <ele>245</ele>
        <time>2022-05-17T14:13:56.534Z</time>
      </trkpt>
      <trkpt lat="49.86357" lon="4.62953">
        <ele>244</ele>
        <time>2022-05-17T14:13:57.532Z</time>
      </trkpt>
      <trkpt lat="49.86357" lon="4.62953">
        <ele>244</ele>
        <time>2022-05-17T14:13:58.538Z</time>
      </trkpt>
      <trkpt lat="49.86367" lon="4.62954">
        <ele>243</ele>
        <time>2022-05-17T14:13:59.545Z</time>
      </trkpt>
      <trkpt lat="49.86372" lon="4.62954">
        <ele>243</ele>
        <time>2022-05-17T14:14:00.561Z</time>
      </trkpt>
      <trkpt lat="49.86377" lon="4.62953">
        <ele>243</ele>
        <time>2022-05-17T14:14:01.541Z</time>
      </trkpt>
      <trkpt lat="49.86377" lon="4.62953">
        <ele>243</ele>
        <time>2022-05-17T14:14:02.547Z</time>
      </trkpt>
      <trkpt lat="49.86384" lon="4.6295">
        <ele>243</ele>
        <time>2022-05-17T14:14:03.556Z</time>
      </trkpt>
      <trkpt lat="49.86387" lon="4.62947">
        <ele>242</ele>
        <time>2022-05-17T14:14:04.533Z</time>
      </trkpt>
      <trkpt lat="49.86387" lon="4.62947">
        <ele>242</ele>
        <time>2022-05-17T14:14:05.539Z</time>
      </trkpt>
      <trkpt lat="49.86394" lon="4.62944">
        <ele>242</ele>
        <time>2022-05-17T14:14:06.547Z</time>
      </trkpt>
      <trkpt lat="49.86398" lon="4.62943">
        <ele>242</ele>
        <time>2022-05-17T14:14:07.527Z</time>
      </trkpt>
      <trkpt lat="49.86398" lon="4.62943">
        <ele>242</ele>
        <time>2022-05-17T14:14:08.534Z</time>
      </trkpt>
      <trkpt lat="49.86405" lon="4.62935">
        <ele>242</ele>
        <time>2022-05-17T14:14:09.544Z</time>
      </trkpt>
      <trkpt lat="49.86407" lon="4.62929">
        <ele>242</ele>
        <time>2022-05-17T14:14:10.527Z</time>
      </trkpt>
      <trkpt lat="49.86407" lon="4.62929">
        <ele>242</ele>
        <time>2022-05-17T14:14:11.534Z</time>
      </trkpt>
      <trkpt lat="49.86411" lon="4.62918">
        <ele>242</ele>
        <time>2022-05-17T14:14:12.550Z</time>
      </trkpt>
      <trkpt lat="49.86415" lon="4.62913">
        <ele>242</ele>
        <time>2022-05-17T14:14:13.524Z</time>
      </trkpt>
      <trkpt lat="49.86415" lon="4.62913">
        <ele>242</ele>
        <time>2022-05-17T14:14:14.529Z</time>
      </trkpt>
      <trkpt lat="49.8642" lon="4.62905">
        <ele>242</ele>
        <time>2022-05-17T14:14:15.546Z</time>
      </trkpt>
      <trkpt lat="49.86423" lon="4.62899">
        <ele>242</ele>
        <time>2022-05-17T14:14:16.555Z</time>
      </trkpt>
      <trkpt lat="49.86423" lon="4.62899">
        <ele>242</ele>
        <time>2022-05-17T14:14:17.563Z</time>
      </trkpt>
      <trkpt lat="49.86427" lon="4.62889">
        <ele>242</ele>
        <time>2022-05-17T14:14:18.539Z</time>
      </trkpt>
      <trkpt lat="49.86431" lon="4.62885">
        <ele>243</ele>
        <time>2022-05-17T14:14:19.533Z</time>
      </trkpt>
      <trkpt lat="49.86431" lon="4.62885">
        <ele>243</ele>
        <time>2022-05-17T14:14:20.538Z</time>
      </trkpt>
      <trkpt lat="49.8644" lon="4.62875">
        <ele>243</ele>
        <time>2022-05-17T14:14:21.525Z</time>
      </trkpt>
      <trkpt lat="49.86444" lon="4.62871">
        <ele>243</ele>
        <time>2022-05-17T14:14:22.537Z</time>
      </trkpt>
      <trkpt lat="49.86444" lon="4.62871">
        <ele>243</ele>
        <time>2022-05-17T14:14:23.543Z</time>
      </trkpt>
      <trkpt lat="49.8645" lon="4.6286">
        <ele>243</ele>
        <time>2022-05-17T14:14:24.545Z</time>
      </trkpt>
      <trkpt lat="49.8645" lon="4.6286">
        <ele>243</ele>
        <time>2022-05-17T14:14:25.551Z</time>
      </trkpt>
      <trkpt lat="49.86456" lon="4.6285">
        <ele>244</ele>
        <time>2022-05-17T14:14:26.533Z</time>
      </trkpt>
      <trkpt lat="49.86456" lon="4.6285">
        <ele>244</ele>
        <time>2022-05-17T14:14:27.540Z</time>
      </trkpt>
      <trkpt lat="49.86463" lon="4.62838">
        <ele>244</ele>
        <time>2022-05-17T14:14:28.533Z</time>
      </trkpt>
      <trkpt lat="49.86463" lon="4.62838">
        <ele>244</ele>
        <time>2022-05-17T14:14:29.539Z</time>
      </trkpt>
      <trkpt lat="49.8647" lon="4.6283">
        <ele>245</ele>
        <time>2022-05-17T14:14:30.547Z</time>
      </trkpt>
      <trkpt lat="49.86473" lon="4.62824">
        <ele>245</ele>
        <time>2022-05-17T14:14:31.546Z</time>
      </trkpt>
      <trkpt lat="49.86473" lon="4.62824">
        <ele>245</ele>
        <time>2022-05-17T14:14:32.551Z</time>
      </trkpt>
      <trkpt lat="49.8648" lon="4.62813">
        <ele>245</ele>
        <time>2022-05-17T14:14:33.527Z</time>
      </trkpt>
      <trkpt lat="49.86483" lon="4.62808">
        <ele>246</ele>
        <time>2022-05-17T14:14:34.546Z</time>
      </trkpt>
      <trkpt lat="49.86483" lon="4.62808">
        <ele>246</ele>
        <time>2022-05-17T14:14:35.551Z</time>
      </trkpt>
      <trkpt lat="49.86491" lon="4.62798">
        <ele>246</ele>
        <time>2022-05-17T14:14:36.535Z</time>
      </trkpt>
      <trkpt lat="49.86495" lon="4.62793">
        <ele>246</ele>
        <time>2022-05-17T14:14:37.555Z</time>
      </trkpt>
      <trkpt lat="49.86495" lon="4.62793">
        <ele>246</ele>
        <time>2022-05-17T14:14:38.533Z</time>
      </trkpt>
      <trkpt lat="49.86502" lon="4.62781">
        <ele>247</ele>
        <time>2022-05-17T14:14:39.530Z</time>
      </trkpt>
      <trkpt lat="49.86502" lon="4.62781">
        <ele>247</ele>
        <time>2022-05-17T14:14:40.535Z</time>
      </trkpt>
      <trkpt lat="49.86507" lon="4.62771">
        <ele>247</ele>
        <time>2022-05-17T14:14:41.543Z</time>
      </trkpt>
      <trkpt lat="49.86512" lon="4.62764">
        <ele>248</ele>
        <time>2022-05-17T14:14:42.536Z</time>
      </trkpt>
      <trkpt lat="49.86512" lon="4.62764">
        <ele>248</ele>
        <time>2022-05-17T14:14:43.542Z</time>
      </trkpt>
      <trkpt lat="49.86519" lon="4.62755">
        <ele>248</ele>
        <time>2022-05-17T14:14:44.557Z</time>
      </trkpt>
      <trkpt lat="49.86524" lon="4.62753">
        <ele>248</ele>
        <time>2022-05-17T14:14:45.535Z</time>
      </trkpt>
      <trkpt lat="49.86524" lon="4.62753">
        <ele>248</ele>
        <time>2022-05-17T14:14:46.540Z</time>
      </trkpt>
      <trkpt lat="49.86532" lon="4.62756">
        <ele>249</ele>
        <time>2022-05-17T14:14:47.553Z</time>
      </trkpt>
      <trkpt lat="49.86532" lon="4.62756">
        <ele>249</ele>
        <time>2022-05-17T14:14:48.560Z</time>
      </trkpt>
      <trkpt lat="49.86537" lon="4.62762">
        <ele>249</ele>
        <time>2022-05-17T14:14:49.547Z</time>
      </trkpt>
      <trkpt lat="49.86537" lon="4.62762">
        <ele>249</ele>
        <time>2022-05-17T14:14:50.553Z</time>
      </trkpt>
      <trkpt lat="49.86543" lon="4.62765">
        <ele>250</ele>
        <time>2022-05-17T14:14:51.526Z</time>
      </trkpt>
      <trkpt lat="49.86543" lon="4.62765">
        <ele>250</ele>
        <time>2022-05-17T14:14:52.535Z</time>
      </trkpt>
      <trkpt lat="49.86548" lon="4.62764">
        <ele>250</ele>
        <time>2022-05-17T14:14:53.527Z</time>
      </trkpt>
      <trkpt lat="49.86548" lon="4.62764">
        <ele>250</ele>
        <time>2022-05-17T14:14:54.542Z</time>
      </trkpt>
      <trkpt lat="49.86553" lon="4.62763">
        <ele>250</ele>
        <time>2022-05-17T14:14:55.550Z</time>
      </trkpt>
      <trkpt lat="49.86555" lon="4.62762">
        <ele>250</ele>
        <time>2022-05-17T14:14:56.556Z</time>
      </trkpt>
      <trkpt lat="49.86555" lon="4.62762">
        <ele>250</ele>
        <time>2022-05-17T14:14:57.561Z</time>
      </trkpt>
      <trkpt lat="49.86559" lon="4.62757">
        <ele>251</ele>
        <time>2022-05-17T14:14:58.542Z</time>
      </trkpt>
      <trkpt lat="49.86561" lon="4.62755">
        <ele>251</ele>
        <time>2022-05-17T14:14:59.549Z</time>
      </trkpt>
      <trkpt lat="49.86561" lon="4.62755">
        <ele>251</ele>
        <time>2022-05-17T14:15:00.528Z</time>
      </trkpt>
      <trkpt lat="49.86564" lon="4.6275">
        <ele>251</ele>
        <time>2022-05-17T14:15:01.537Z</time>
      </trkpt>
      <trkpt lat="49.86565" lon="4.62748">
        <ele>251</ele>
        <time>2022-05-17T14:15:02.536Z</time>
      </trkpt>
      <trkpt lat="49.86565" lon="4.62748">
        <ele>251</ele>
        <time>2022-05-17T14:15:03.541Z</time>
      </trkpt>
      <trkpt lat="49.86568" lon="4.62742">
        <ele>252</ele>
        <time>2022-05-17T14:15:04.541Z</time>
      </trkpt>
      <trkpt lat="49.8657" lon="4.62739">
        <ele>252</ele>
        <time>2022-05-17T14:15:05.535Z</time>
      </trkpt>
      <trkpt lat="49.8657" lon="4.62739">
        <ele>252</ele>
        <time>2022-05-17T14:15:06.540Z</time>
      </trkpt>
      <trkpt lat="49.86573" lon="4.62731">
        <ele>252</ele>
        <time>2022-05-17T14:15:07.556Z</time>
      </trkpt>
      <trkpt lat="49.86575" lon="4.62728">
        <ele>252</ele>
        <time>2022-05-17T14:15:08.535Z</time>
      </trkpt>
      <trkpt lat="49.86575" lon="4.62728">
        <ele>252</ele>
        <time>2022-05-17T14:15:09.540Z</time>
      </trkpt>
      <trkpt lat="49.86578" lon="4.62718">
        <ele>253</ele>
        <time>2022-05-17T14:15:10.542Z</time>
      </trkpt>
      <trkpt lat="49.86578" lon="4.62718">
        <ele>253</ele>
        <time>2022-05-17T14:15:11.547Z</time>
      </trkpt>
      <trkpt lat="49.86582" lon="4.62708">
        <ele>253</ele>
        <time>2022-05-17T14:15:12.558Z</time>
      </trkpt>
      <trkpt lat="49.86582" lon="4.62708">
        <ele>253</ele>
        <time>2022-05-17T14:15:13.526Z</time>
      </trkpt>
      <trkpt lat="49.86589" lon="4.62695">
        <ele>254</ele>
        <time>2022-05-17T14:15:14.558Z</time>
      </trkpt>
      <trkpt lat="49.86589" lon="4.62695">
        <ele>254</ele>
        <time>2022-05-17T14:15:15.525Z</time>
      </trkpt>
      <trkpt lat="49.86594" lon="4.62686">
        <ele>255</ele>
        <time>2022-05-17T14:15:16.547Z</time>
      </trkpt>
      <trkpt lat="49.86594" lon="4.62686">
        <ele>255</ele>
        <time>2022-05-17T14:15:17.556Z</time>
      </trkpt>
      <trkpt lat="49.86598" lon="4.62675">
        <ele>255</ele>
        <time>2022-05-17T14:15:18.536Z</time>
      </trkpt>
      <trkpt lat="49.86598" lon="4.62675">
        <ele>255</ele>
        <time>2022-05-17T14:15:19.541Z</time>
      </trkpt>
      <trkpt lat="49.86604" lon="4.62663">
        <ele>256</ele>
        <time>2022-05-17T14:15:20.535Z</time>
      </trkpt>
      <trkpt lat="49.86604" lon="4.62663">
        <ele>256</ele>
        <time>2022-05-17T14:15:21.536Z</time>
      </trkpt>
      <trkpt lat="49.8661" lon="4.62654">
        <ele>256</ele>
        <time>2022-05-17T14:15:22.547Z</time>
      </trkpt>
      <trkpt lat="49.8661" lon="4.62654">
        <ele>256</ele>
        <time>2022-05-17T14:15:23.554Z</time>
      </trkpt>
      <trkpt lat="49.86617" lon="4.62652">
        <ele>257</ele>
        <time>2022-05-17T14:15:24.561Z</time>
      </trkpt>
      <trkpt lat="49.8662" lon="4.62651">
        <ele>257</ele>
        <time>2022-05-17T14:15:25.555Z</time>
      </trkpt>
      <trkpt lat="49.86623" lon="4.62652">
        <ele>257</ele>
        <time>2022-05-17T14:15:26.524Z</time>
      </trkpt>
      <trkpt lat="49.86623" lon="4.62652">
        <ele>257</ele>
        <time>2022-05-17T14:15:27.530Z</time>
      </trkpt>
      <trkpt lat="49.86629" lon="4.62654">
        <ele>258</ele>
        <time>2022-05-17T14:15:28.556Z</time>
      </trkpt>
      <trkpt lat="49.86629" lon="4.62654">
        <ele>258</ele>
        <time>2022-05-17T14:15:29.529Z</time>
      </trkpt>
      <trkpt lat="49.86636" lon="4.62656">
        <ele>258</ele>
        <time>2022-05-17T14:15:30.553Z</time>
      </trkpt>
      <trkpt lat="49.8664" lon="4.62657">
        <ele>258</ele>
        <time>2022-05-17T14:15:31.547Z</time>
      </trkpt>
      <trkpt lat="49.8664" lon="4.62657">
        <ele>258</ele>
        <time>2022-05-17T14:15:32.552Z</time>
      </trkpt>
      <trkpt lat="49.86645" lon="4.62659">
        <ele>259</ele>
        <time>2022-05-17T14:15:33.525Z</time>
      </trkpt>
      <trkpt lat="49.86648" lon="4.6266">
        <ele>259</ele>
        <time>2022-05-17T14:15:34.542Z</time>
      </trkpt>
      <trkpt lat="49.86648" lon="4.6266">
        <ele>259</ele>
        <time>2022-05-17T14:15:35.547Z</time>
      </trkpt>
      <trkpt lat="49.86654" lon="4.62663">
        <ele>259</ele>
        <time>2022-05-17T14:15:36.557Z</time>
      </trkpt>
      <trkpt lat="49.86656" lon="4.62664">
        <ele>259</ele>
        <time>2022-05-17T14:15:37.524Z</time>
      </trkpt>
      <trkpt lat="49.86656" lon="4.62664">
        <ele>259</ele>
        <time>2022-05-17T14:15:38.539Z</time>
      </trkpt>
      <trkpt lat="49.86663" lon="4.62668">
        <ele>259</ele>
        <time>2022-05-17T14:15:39.547Z</time>
      </trkpt>
      <trkpt lat="49.86666" lon="4.62669">
        <ele>259</ele>
        <time>2022-05-17T14:15:40.557Z</time>
      </trkpt>
      <trkpt lat="49.86669" lon="4.6267">
        <ele>260</ele>
        <time>2022-05-17T14:15:41.536Z</time>
      </trkpt>
      <trkpt lat="49.86672" lon="4.62672">
        <ele>260</ele>
        <time>2022-05-17T14:15:42.548Z</time>
      </trkpt>
      <trkpt lat="49.86672" lon="4.62672">
        <ele>260</ele>
        <time>2022-05-17T14:15:43.553Z</time>
      </trkpt>
      <trkpt lat="49.86681" lon="4.62673">
        <ele>260</ele>
        <time>2022-05-17T14:15:44.529Z</time>
      </trkpt>
      <trkpt lat="49.86681" lon="4.62673">
        <ele>260</ele>
        <time>2022-05-17T14:15:45.545Z</time>
      </trkpt>
      <trkpt lat="49.86687" lon="4.62671">
        <ele>259</ele>
        <time>2022-05-17T14:15:46.549Z</time>
      </trkpt>
      <trkpt lat="49.86687" lon="4.62671">
        <ele>259</ele>
        <time>2022-05-17T14:15:47.554Z</time>
      </trkpt>
      <trkpt lat="49.86695" lon="4.62669">
        <ele>259</ele>
        <time>2022-05-17T14:15:48.533Z</time>
      </trkpt>
      <trkpt lat="49.86695" lon="4.62669">
        <ele>259</ele>
        <time>2022-05-17T14:15:49.545Z</time>
      </trkpt>
      <trkpt lat="49.86703" lon="4.62667">
        <ele>260</ele>
        <time>2022-05-17T14:15:50.558Z</time>
      </trkpt>
      <trkpt lat="49.86703" lon="4.62667">
        <ele>260</ele>
        <time>2022-05-17T14:15:51.528Z</time>
      </trkpt>
      <trkpt lat="49.8671" lon="4.62667">
        <ele>260</ele>
        <time>2022-05-17T14:15:52.545Z</time>
      </trkpt>
      <trkpt lat="49.8671" lon="4.62667">
        <ele>260</ele>
        <time>2022-05-17T14:15:53.551Z</time>
      </trkpt>
      <trkpt lat="49.86718" lon="4.6267">
        <ele>260</ele>
        <time>2022-05-17T14:15:54.525Z</time>
      </trkpt>
      <trkpt lat="49.86718" lon="4.6267">
        <ele>260</ele>
        <time>2022-05-17T14:15:55.539Z</time>
      </trkpt>
      <trkpt lat="49.86725" lon="4.62673">
        <ele>260</ele>
        <time>2022-05-17T14:15:56.550Z</time>
      </trkpt>
      <trkpt lat="49.86729" lon="4.62675">
        <ele>260</ele>
        <time>2022-05-17T14:15:57.533Z</time>
      </trkpt>
      <trkpt lat="49.86729" lon="4.62675">
        <ele>260</ele>
        <time>2022-05-17T14:15:58.539Z</time>
      </trkpt>
      <trkpt lat="49.86737" lon="4.62677">
        <ele>261</ele>
        <time>2022-05-17T14:15:59.545Z</time>
      </trkpt>
      <trkpt lat="49.86741" lon="4.62679">
        <ele>261</ele>
        <time>2022-05-17T14:16:00.560Z</time>
      </trkpt>
      <trkpt lat="49.86741" lon="4.62679">
        <ele>261</ele>
        <time>2022-05-17T14:16:01.531Z</time>
      </trkpt>
      <trkpt lat="49.86749" lon="4.62682">
        <ele>261</ele>
        <time>2022-05-17T14:16:02.541Z</time>
      </trkpt>
      <trkpt lat="49.86749" lon="4.62682">
        <ele>261</ele>
        <time>2022-05-17T14:16:03.545Z</time>
      </trkpt>
      <trkpt lat="49.86758" lon="4.62685">
        <ele>261</ele>
        <time>2022-05-17T14:16:04.532Z</time>
      </trkpt>
      <trkpt lat="49.86758" lon="4.62685">
        <ele>261</ele>
        <time>2022-05-17T14:16:05.538Z</time>
      </trkpt>
      <trkpt lat="49.86767" lon="4.62688">
        <ele>261</ele>
        <time>2022-05-17T14:16:06.554Z</time>
      </trkpt>
      <trkpt lat="49.86767" lon="4.62688">
        <ele>261</ele>
        <time>2022-05-17T14:16:07.559Z</time>
      </trkpt>
      <trkpt lat="49.86775" lon="4.62687">
        <ele>260</ele>
        <time>2022-05-17T14:16:08.546Z</time>
      </trkpt>
      <trkpt lat="49.86775" lon="4.62687">
        <ele>260</ele>
        <time>2022-05-17T14:16:09.551Z</time>
      </trkpt>
      <trkpt lat="49.86783" lon="4.62678">
        <ele>260</ele>
        <time>2022-05-17T14:16:10.529Z</time>
      </trkpt>
      <trkpt lat="49.86785" lon="4.62671">
        <ele>259</ele>
        <time>2022-05-17T14:16:11.534Z</time>
      </trkpt>
      <trkpt lat="49.86785" lon="4.62671">
        <ele>259</ele>
        <time>2022-05-17T14:16:12.539Z</time>
      </trkpt>
      <trkpt lat="49.86788" lon="4.62653">
        <ele>258</ele>
        <time>2022-05-17T14:16:13.557Z</time>
      </trkpt>
      <trkpt lat="49.86789" lon="4.62645">
        <ele>258</ele>
        <time>2022-05-17T14:16:14.546Z</time>
      </trkpt>
      <trkpt lat="49.86789" lon="4.62645">
        <ele>258</ele>
        <time>2022-05-17T14:16:15.559Z</time>
      </trkpt>
      <trkpt lat="49.86795" lon="4.62627">
        <ele>258</ele>
        <time>2022-05-17T14:16:16.537Z</time>
      </trkpt>
      <trkpt lat="49.86797" lon="4.62619">
        <ele>258</ele>
        <time>2022-05-17T14:16:17.530Z</time>
      </trkpt>
      <trkpt lat="49.86797" lon="4.62619">
        <ele>258</ele>
        <time>2022-05-17T14:16:18.535Z</time>
      </trkpt>
      <trkpt lat="49.86799" lon="4.62605">
        <ele>257</ele>
        <time>2022-05-17T14:16:19.544Z</time>
      </trkpt>
      <trkpt lat="49.868" lon="4.62597">
        <ele>257</ele>
        <time>2022-05-17T14:16:20.539Z</time>
      </trkpt>
      <trkpt lat="49.868" lon="4.62597">
        <ele>257</ele>
        <time>2022-05-17T14:16:21.529Z</time>
      </trkpt>
      <trkpt lat="49.86802" lon="4.62584">
        <ele>256</ele>
        <time>2022-05-17T14:16:22.540Z</time>
      </trkpt>
      <trkpt lat="49.86803" lon="4.62578">
        <ele>256</ele>
        <time>2022-05-17T14:16:23.547Z</time>
      </trkpt>
      <trkpt lat="49.86803" lon="4.62572">
        <ele>256</ele>
        <time>2022-05-17T14:16:24.554Z</time>
      </trkpt>
      <trkpt lat="49.86804" lon="4.62567">
        <ele>256</ele>
        <time>2022-05-17T14:16:25.531Z</time>
      </trkpt>
      <trkpt lat="49.86804" lon="4.62567">
        <ele>256</ele>
        <time>2022-05-17T14:16:26.536Z</time>
      </trkpt>
      <trkpt lat="49.86804" lon="4.62557">
        <ele>255</ele>
        <time>2022-05-17T14:16:27.559Z</time>
      </trkpt>
      <trkpt lat="49.86805" lon="4.62553">
        <ele>255</ele>
        <time>2022-05-17T14:16:28.530Z</time>
      </trkpt>
      <trkpt lat="49.86806" lon="4.6255">
        <ele>255</ele>
        <time>2022-05-17T14:16:29.529Z</time>
      </trkpt>
      <trkpt lat="49.86806" lon="4.6255">
        <ele>255</ele>
        <time>2022-05-17T14:16:30.536Z</time>
      </trkpt>
      <trkpt lat="49.86806" lon="4.62541">
        <ele>255</ele>
        <time>2022-05-17T14:16:31.545Z</time>
      </trkpt>
      <trkpt lat="49.86806" lon="4.62536">
        <ele>255</ele>
        <time>2022-05-17T14:16:32.535Z</time>
      </trkpt>
      <trkpt lat="49.86806" lon="4.62536">
        <ele>255</ele>
        <time>2022-05-17T14:16:33.541Z</time>
      </trkpt>
      <trkpt lat="49.86803" lon="4.62525">
        <ele>255</ele>
        <time>2022-05-17T14:16:34.524Z</time>
      </trkpt>
      <trkpt lat="49.86802" lon="4.6252">
        <ele>255</ele>
        <time>2022-05-17T14:16:35.544Z</time>
      </trkpt>
      <trkpt lat="49.86802" lon="4.6252">
        <ele>255</ele>
        <time>2022-05-17T14:16:36.549Z</time>
      </trkpt>
      <trkpt lat="49.86799" lon="4.62511">
        <ele>255</ele>
        <time>2022-05-17T14:16:37.533Z</time>
      </trkpt>
      <trkpt lat="49.86799" lon="4.62511">
        <ele>255</ele>
        <time>2022-05-17T14:16:38.538Z</time>
      </trkpt>
      <trkpt lat="49.86795" lon="4.625">
        <ele>255</ele>
        <time>2022-05-17T14:16:39.548Z</time>
      </trkpt>
      <trkpt lat="49.86795" lon="4.625">
        <ele>255</ele>
        <time>2022-05-17T14:16:40.532Z</time>
      </trkpt>
      <trkpt lat="49.8679" lon="4.62489">
        <ele>255</ele>
        <time>2022-05-17T14:16:41.544Z</time>
      </trkpt>
      <trkpt lat="49.8679" lon="4.62489">
        <ele>255</ele>
        <time>2022-05-17T14:16:42.549Z</time>
      </trkpt>
      <trkpt lat="49.86784" lon="4.62475">
        <ele>254</ele>
        <time>2022-05-17T14:16:43.543Z</time>
      </trkpt>
      <trkpt lat="49.86784" lon="4.62475">
        <ele>254</ele>
        <time>2022-05-17T14:16:44.549Z</time>
      </trkpt>
      <trkpt lat="49.86775" lon="4.62463">
        <ele>254</ele>
        <time>2022-05-17T14:16:45.546Z</time>
      </trkpt>
      <trkpt lat="49.86768" lon="4.62455">
        <ele>254</ele>
        <time>2022-05-17T14:16:46.545Z</time>
      </trkpt>
      <trkpt lat="49.86768" lon="4.62455">
        <ele>254</ele>
        <time>2022-05-17T14:16:47.563Z</time>
      </trkpt>
      <trkpt lat="49.86756" lon="4.62444">
        <ele>253</ele>
        <time>2022-05-17T14:16:48.535Z</time>
      </trkpt>
      <trkpt lat="49.86756" lon="4.62444">
        <ele>253</ele>
        <time>2022-05-17T14:16:49.545Z</time>
      </trkpt>
      <trkpt lat="49.86745" lon="4.62437">
        <ele>253</ele>
        <time>2022-05-17T14:16:50.546Z</time>
      </trkpt>
      <trkpt lat="49.86745" lon="4.62437">
        <ele>253</ele>
        <time>2022-05-17T14:16:51.551Z</time>
      </trkpt>
      <trkpt lat="49.86733" lon="4.62432">
        <ele>252</ele>
        <time>2022-05-17T14:16:52.561Z</time>
      </trkpt>
      <trkpt lat="49.86727" lon="4.62427">
        <ele>252</ele>
        <time>2022-05-17T14:16:53.561Z</time>
      </trkpt>
      <trkpt lat="49.86727" lon="4.62427">
        <ele>252</ele>
        <time>2022-05-17T14:16:54.530Z</time>
      </trkpt>
      <trkpt lat="49.86718" lon="4.62411">
        <ele>252</ele>
        <time>2022-05-17T14:16:55.544Z</time>
      </trkpt>
      <trkpt lat="49.86715" lon="4.62403">
        <ele>252</ele>
        <time>2022-05-17T14:16:56.538Z</time>
      </trkpt>
      <trkpt lat="49.86715" lon="4.62403">
        <ele>252</ele>
        <time>2022-05-17T14:16:57.543Z</time>
      </trkpt>
      <trkpt lat="49.86715" lon="4.62386">
        <ele>252</ele>
        <time>2022-05-17T14:16:58.554Z</time>
      </trkpt>
      <trkpt lat="49.86715" lon="4.62378">
        <ele>252</ele>
        <time>2022-05-17T14:16:59.525Z</time>
      </trkpt>
      <trkpt lat="49.86715" lon="4.62378">
        <ele>252</ele>
        <time>2022-05-17T14:17:00.532Z</time>
      </trkpt>
      <trkpt lat="49.86713" lon="4.62362">
        <ele>252</ele>
        <time>2022-05-17T14:17:01.549Z</time>
      </trkpt>
      <trkpt lat="49.86713" lon="4.62362">
        <ele>252</ele>
        <time>2022-05-17T14:17:02.542Z</time>
      </trkpt>
      <trkpt lat="49.86712" lon="4.62346">
        <ele>253</ele>
        <time>2022-05-17T14:17:03.556Z</time>
      </trkpt>
      <trkpt lat="49.86712" lon="4.62346">
        <ele>253</ele>
        <time>2022-05-17T14:17:04.561Z</time>
      </trkpt>
      <trkpt lat="49.86714" lon="4.6233">
        <ele>253</ele>
        <time>2022-05-17T14:17:05.534Z</time>
      </trkpt>
      <trkpt lat="49.86716" lon="4.62323">
        <ele>253</ele>
        <time>2022-05-17T14:17:06.556Z</time>
      </trkpt>
      <trkpt lat="49.86717" lon="4.62317">
        <ele>253</ele>
        <time>2022-05-17T14:17:07.524Z</time>
      </trkpt>
      <trkpt lat="49.86717" lon="4.62317">
        <ele>253</ele>
        <time>2022-05-17T14:17:08.530Z</time>
      </trkpt>
      <trkpt lat="49.86721" lon="4.62305">
        <ele>253</ele>
        <time>2022-05-17T14:17:09.559Z</time>
      </trkpt>
      <trkpt lat="49.86721" lon="4.62305">
        <ele>253</ele>
        <time>2022-05-17T14:17:10.530Z</time>
      </trkpt>
      <trkpt lat="49.86724" lon="4.62294">
        <ele>253</ele>
        <time>2022-05-17T14:17:11.534Z</time>
      </trkpt>
      <trkpt lat="49.86724" lon="4.62294">
        <ele>253</ele>
        <time>2022-05-17T14:17:12.548Z</time>
      </trkpt>
      <trkpt lat="49.86729" lon="4.62283">
        <ele>254</ele>
        <time>2022-05-17T14:17:13.541Z</time>
      </trkpt>
      <trkpt lat="49.86729" lon="4.62283">
        <ele>254</ele>
        <time>2022-05-17T14:17:14.548Z</time>
      </trkpt>
      <trkpt lat="49.86735" lon="4.62272">
        <ele>254</ele>
        <time>2022-05-17T14:17:15.556Z</time>
      </trkpt>
      <trkpt lat="49.86735" lon="4.62272">
        <ele>254</ele>
        <time>2022-05-17T14:17:16.562Z</time>
      </trkpt>
      <trkpt lat="49.8674" lon="4.62256">
        <ele>254</ele>
        <time>2022-05-17T14:17:17.537Z</time>
      </trkpt>
      <trkpt lat="49.8674" lon="4.62256">
        <ele>254</ele>
        <time>2022-05-17T14:17:18.542Z</time>
      </trkpt>
      <trkpt lat="49.86745" lon="4.62237">
        <ele>254</ele>
        <time>2022-05-17T14:17:19.524Z</time>
      </trkpt>
      <trkpt lat="49.86747" lon="4.62229">
        <ele>254</ele>
        <time>2022-05-17T14:17:20.545Z</time>
      </trkpt>
      <trkpt lat="49.86747" lon="4.62229">
        <ele>254</ele>
        <time>2022-05-17T14:17:21.529Z</time>
      </trkpt>
      <trkpt lat="49.86752" lon="4.62211">
        <ele>254</ele>
        <time>2022-05-17T14:17:22.540Z</time>
      </trkpt>
      <trkpt lat="49.86755" lon="4.62203">
        <ele>255</ele>
        <time>2022-05-17T14:17:23.548Z</time>
      </trkpt>
      <trkpt lat="49.86758" lon="4.62194">
        <ele>255</ele>
        <time>2022-05-17T14:17:24.561Z</time>
      </trkpt>
      <trkpt lat="49.86758" lon="4.62194">
        <ele>255</ele>
        <time>2022-05-17T14:17:25.532Z</time>
      </trkpt>
      <trkpt lat="49.86765" lon="4.62179">
        <ele>255</ele>
        <time>2022-05-17T14:17:26.543Z</time>
      </trkpt>
      <trkpt lat="49.86765" lon="4.62179">
        <ele>255</ele>
        <time>2022-05-17T14:17:27.549Z</time>
      </trkpt>
      <trkpt lat="49.8677" lon="4.62161">
        <ele>255</ele>
        <time>2022-05-17T14:17:28.547Z</time>
      </trkpt>
      <trkpt lat="49.86773" lon="4.62152">
        <ele>255</ele>
        <time>2022-05-17T14:17:29.562Z</time>
      </trkpt>
      <trkpt lat="49.86773" lon="4.62152">
        <ele>255</ele>
        <time>2022-05-17T14:17:30.533Z</time>
      </trkpt>
      <trkpt lat="49.86777" lon="4.62134">
        <ele>255</ele>
        <time>2022-05-17T14:17:31.546Z</time>
      </trkpt>
      <trkpt lat="49.86777" lon="4.62134">
        <ele>255</ele>
        <time>2022-05-17T14:17:32.551Z</time>
      </trkpt>
      <trkpt lat="49.86783" lon="4.62118">
        <ele>255</ele>
        <time>2022-05-17T14:17:33.558Z</time>
      </trkpt>
      <trkpt lat="49.86786" lon="4.6211">
        <ele>255</ele>
        <time>2022-05-17T14:17:34.559Z</time>
      </trkpt>
      <trkpt lat="49.86786" lon="4.6211">
        <ele>255</ele>
        <time>2022-05-17T14:17:35.530Z</time>
      </trkpt>
      <trkpt lat="49.86792" lon="4.62097">
        <ele>255</ele>
        <time>2022-05-17T14:17:36.545Z</time>
      </trkpt>
      <trkpt lat="49.86794" lon="4.6209">
        <ele>255</ele>
        <time>2022-05-17T14:17:37.544Z</time>
      </trkpt>
      <trkpt lat="49.86794" lon="4.6209">
        <ele>255</ele>
        <time>2022-05-17T14:17:38.549Z</time>
      </trkpt>
      <trkpt lat="49.86798" lon="4.62078">
        <ele>255</ele>
        <time>2022-05-17T14:17:39.530Z</time>
      </trkpt>
      <trkpt lat="49.868" lon="4.62072">
        <ele>255</ele>
        <time>2022-05-17T14:17:40.535Z</time>
      </trkpt>
      <trkpt lat="49.868" lon="4.62072">
        <ele>255</ele>
        <time>2022-05-17T14:17:41.540Z</time>
      </trkpt>
      <trkpt lat="49.86803" lon="4.62058">
        <ele>255</ele>
        <time>2022-05-17T14:17:42.543Z</time>
      </trkpt>
      <trkpt lat="49.86804" lon="4.6205">
        <ele>255</ele>
        <time>2022-05-17T14:17:43.550Z</time>
      </trkpt>
      <trkpt lat="49.86804" lon="4.6205">
        <ele>255</ele>
        <time>2022-05-17T14:17:44.554Z</time>
      </trkpt>
      <trkpt lat="49.86808" lon="4.62037">
        <ele>255</ele>
        <time>2022-05-17T14:17:45.550Z</time>
      </trkpt>
      <trkpt lat="49.86808" lon="4.62037">
        <ele>255</ele>
        <time>2022-05-17T14:17:46.563Z</time>
      </trkpt>
      <trkpt lat="49.86811" lon="4.62027">
        <ele>255</ele>
        <time>2022-05-17T14:17:47.544Z</time>
      </trkpt>
      <trkpt lat="49.86815" lon="4.6202">
        <ele>256</ele>
        <time>2022-05-17T14:17:48.536Z</time>
      </trkpt>
      <trkpt lat="49.86815" lon="4.6202">
        <ele>256</ele>
        <time>2022-05-17T14:17:49.541Z</time>
      </trkpt>
      <trkpt lat="49.8682" lon="4.62008">
        <ele>256</ele>
        <time>2022-05-17T14:17:50.535Z</time>
      </trkpt>
      <trkpt lat="49.86822" lon="4.62002">
        <ele>256</ele>
        <time>2022-05-17T14:17:51.526Z</time>
      </trkpt>
      <trkpt lat="49.86822" lon="4.62002">
        <ele>256</ele>
        <time>2022-05-17T14:17:52.531Z</time>
      </trkpt>
      <trkpt lat="49.86827" lon="4.61993">
        <ele>256</ele>
        <time>2022-05-17T14:17:53.542Z</time>
      </trkpt>
      <trkpt lat="49.86827" lon="4.61993">
        <ele>256</ele>
        <time>2022-05-17T14:17:54.547Z</time>
      </trkpt>
      <trkpt lat="49.86832" lon="4.61984">
        <ele>257</ele>
        <time>2022-05-17T14:17:55.546Z</time>
      </trkpt>
      <trkpt lat="49.86832" lon="4.61984">
        <ele>257</ele>
        <time>2022-05-17T14:17:56.551Z</time>
      </trkpt>
      <trkpt lat="49.86835" lon="4.61966">
        <ele>257</ele>
        <time>2022-05-17T14:17:57.563Z</time>
      </trkpt>
      <trkpt lat="49.86836" lon="4.61956">
        <ele>257</ele>
        <time>2022-05-17T14:17:58.536Z</time>
      </trkpt>
      <trkpt lat="49.86836" lon="4.61948">
        <ele>257</ele>
        <time>2022-05-17T14:17:59.543Z</time>
      </trkpt>
      <trkpt lat="49.86836" lon="4.61948">
        <ele>257</ele>
        <time>2022-05-17T14:18:00.556Z</time>
      </trkpt>
      <trkpt lat="49.86837" lon="4.61932">
        <ele>257</ele>
        <time>2022-05-17T14:18:01.526Z</time>
      </trkpt>
      <trkpt lat="49.86837" lon="4.61932">
        <ele>257</ele>
        <time>2022-05-17T14:18:02.531Z</time>
      </trkpt>
      <trkpt lat="49.86836" lon="4.61919">
        <ele>257</ele>
        <time>2022-05-17T14:18:03.549Z</time>
      </trkpt>
      <trkpt lat="49.86837" lon="4.61913">
        <ele>257</ele>
        <time>2022-05-17T14:18:04.545Z</time>
      </trkpt>
      <trkpt lat="49.86837" lon="4.61913">
        <ele>257</ele>
        <time>2022-05-17T14:18:05.550Z</time>
      </trkpt>
      <trkpt lat="49.86838" lon="4.61901">
        <ele>257</ele>
        <time>2022-05-17T14:18:06.563Z</time>
      </trkpt>
      <trkpt lat="49.86838" lon="4.61901">
        <ele>257</ele>
        <time>2022-05-17T14:18:07.536Z</time>
      </trkpt>
      <trkpt lat="49.86839" lon="4.61888">
        <ele>257</ele>
        <time>2022-05-17T14:18:08.557Z</time>
      </trkpt>
      <trkpt lat="49.86839" lon="4.61888">
        <ele>257</ele>
        <time>2022-05-17T14:18:09.526Z</time>
      </trkpt>
      <trkpt lat="49.86841" lon="4.61877">
        <ele>257</ele>
        <time>2022-05-17T14:18:10.559Z</time>
      </trkpt>
      <trkpt lat="49.86841" lon="4.61877">
        <ele>257</ele>
        <time>2022-05-17T14:18:11.551Z</time>
      </trkpt>
      <trkpt lat="49.86843" lon="4.61866">
        <ele>257</ele>
        <time>2022-05-17T14:18:12.542Z</time>
      </trkpt>
      <trkpt lat="49.86843" lon="4.61866">
        <ele>257</ele>
        <time>2022-05-17T14:18:13.547Z</time>
      </trkpt>
      <trkpt lat="49.86847" lon="4.61856">
        <ele>257</ele>
        <time>2022-05-17T14:18:14.556Z</time>
      </trkpt>
      <trkpt lat="49.86847" lon="4.61856">
        <ele>257</ele>
        <time>2022-05-17T14:18:15.562Z</time>
      </trkpt>
      <trkpt lat="49.86852" lon="4.61846">
        <ele>257</ele>
        <time>2022-05-17T14:18:16.556Z</time>
      </trkpt>
      <trkpt lat="49.86852" lon="4.61846">
        <ele>257</ele>
        <time>2022-05-17T14:18:17.562Z</time>
      </trkpt>
      <trkpt lat="49.86856" lon="4.61834">
        <ele>257</ele>
        <time>2022-05-17T14:18:18.536Z</time>
      </trkpt>
      <trkpt lat="49.86858" lon="4.61824">
        <ele>257</ele>
        <time>2022-05-17T14:18:19.536Z</time>
      </trkpt>
      <trkpt lat="49.86858" lon="4.61824">
        <ele>257</ele>
        <time>2022-05-17T14:18:20.541Z</time>
      </trkpt>
      <trkpt lat="49.86859" lon="4.61808">
        <ele>257</ele>
        <time>2022-05-17T14:18:21.529Z</time>
      </trkpt>
      <trkpt lat="49.8686" lon="4.61801">
        <ele>257</ele>
        <time>2022-05-17T14:18:22.537Z</time>
      </trkpt>
      <trkpt lat="49.8686" lon="4.61801">
        <ele>257</ele>
        <time>2022-05-17T14:18:23.543Z</time>
      </trkpt>
      <trkpt lat="49.86863" lon="4.61789">
        <ele>256</ele>
        <time>2022-05-17T14:18:24.526Z</time>
      </trkpt>
      <trkpt lat="49.86863" lon="4.61789">
        <ele>256</ele>
        <time>2022-05-17T14:18:25.531Z</time>
      </trkpt>
      <trkpt lat="49.86867" lon="4.61775">
        <ele>256</ele>
        <time>2022-05-17T14:18:26.545Z</time>
      </trkpt>
      <trkpt lat="49.86867" lon="4.61775">
        <ele>256</ele>
        <time>2022-05-17T14:18:27.550Z</time>
      </trkpt>
      <trkpt lat="49.86871" lon="4.61764">
        <ele>256</ele>
        <time>2022-05-17T14:18:28.541Z</time>
      </trkpt>
      <trkpt lat="49.86871" lon="4.61764">
        <ele>256</ele>
        <time>2022-05-17T14:18:29.546Z</time>
      </trkpt>
      <trkpt lat="49.86873" lon="4.61752">
        <ele>257</ele>
        <time>2022-05-17T14:18:30.537Z</time>
      </trkpt>
      <trkpt lat="49.86873" lon="4.61746">
        <ele>257</ele>
        <time>2022-05-17T14:18:31.530Z</time>
      </trkpt>
      <trkpt lat="49.86873" lon="4.61746">
        <ele>257</ele>
        <time>2022-05-17T14:18:32.535Z</time>
      </trkpt>
      <trkpt lat="49.86872" lon="4.61732">
        <ele>257</ele>
        <time>2022-05-17T14:18:33.547Z</time>
      </trkpt>
      <trkpt lat="49.86872" lon="4.61732">
        <ele>257</ele>
        <time>2022-05-17T14:18:34.552Z</time>
      </trkpt>
      <trkpt lat="49.86873" lon="4.61719">
        <ele>256</ele>
        <time>2022-05-17T14:18:35.558Z</time>
      </trkpt>
      <trkpt lat="49.86874" lon="4.61713">
        <ele>256</ele>
        <time>2022-05-17T14:18:36.527Z</time>
      </trkpt>
      <trkpt lat="49.86875" lon="4.61706">
        <ele>256</ele>
        <time>2022-05-17T14:18:37.536Z</time>
      </trkpt>
      <trkpt lat="49.86875" lon="4.61706">
        <ele>256</ele>
        <time>2022-05-17T14:18:38.542Z</time>
      </trkpt>
      <trkpt lat="49.86877" lon="4.61691">
        <ele>256</ele>
        <time>2022-05-17T14:18:39.543Z</time>
      </trkpt>
      <trkpt lat="49.86877" lon="4.61691">
        <ele>256</ele>
        <time>2022-05-17T14:18:40.553Z</time>
      </trkpt>
      <trkpt lat="49.86879" lon="4.61678">
        <ele>256</ele>
        <time>2022-05-17T14:18:41.563Z</time>
      </trkpt>
      <trkpt lat="49.8688" lon="4.61671">
        <ele>256</ele>
        <time>2022-05-17T14:18:42.535Z</time>
      </trkpt>
      <trkpt lat="49.8688" lon="4.61671">
        <ele>256</ele>
        <time>2022-05-17T14:18:43.540Z</time>
      </trkpt>
      <trkpt lat="49.86881" lon="4.61658">
        <ele>255</ele>
        <time>2022-05-17T14:18:44.535Z</time>
      </trkpt>
      <trkpt lat="49.86881" lon="4.61658">
        <ele>255</ele>
        <time>2022-05-17T14:18:45.551Z</time>
      </trkpt>
      <trkpt lat="49.86883" lon="4.61646">
        <ele>255</ele>
        <time>2022-05-17T14:18:46.550Z</time>
      </trkpt>
      <trkpt lat="49.86883" lon="4.61646">
        <ele>255</ele>
        <time>2022-05-17T14:18:47.530Z</time>
      </trkpt>
      <trkpt lat="49.86885" lon="4.61632">
        <ele>254</ele>
        <time>2022-05-17T14:18:48.539Z</time>
      </trkpt>
      <trkpt lat="49.86885" lon="4.61632">
        <ele>254</ele>
        <time>2022-05-17T14:18:49.545Z</time>
      </trkpt>
      <trkpt lat="49.86887" lon="4.61617">
        <ele>254</ele>
        <time>2022-05-17T14:18:50.536Z</time>
      </trkpt>
      <trkpt lat="49.86889" lon="4.61609">
        <ele>254</ele>
        <time>2022-05-17T14:18:51.545Z</time>
      </trkpt>
      <trkpt lat="49.86889" lon="4.61609">
        <ele>254</ele>
        <time>2022-05-17T14:18:52.550Z</time>
      </trkpt>
      <trkpt lat="49.86893" lon="4.61596">
        <ele>253</ele>
        <time>2022-05-17T14:18:53.539Z</time>
      </trkpt>
      <trkpt lat="49.86893" lon="4.61596">
        <ele>253</ele>
        <time>2022-05-17T14:18:54.544Z</time>
      </trkpt>
      <trkpt lat="49.86899" lon="4.61585">
        <ele>253</ele>
        <time>2022-05-17T14:18:55.555Z</time>
      </trkpt>
      <trkpt lat="49.86901" lon="4.61581">
        <ele>253</ele>
        <time>2022-05-17T14:18:56.543Z</time>
      </trkpt>
      <trkpt lat="49.86901" lon="4.61581">
        <ele>253</ele>
        <time>2022-05-17T14:18:57.548Z</time>
      </trkpt>
      <trkpt lat="49.86906" lon="4.61571">
        <ele>253</ele>
        <time>2022-05-17T14:18:58.539Z</time>
      </trkpt>
      <trkpt lat="49.86906" lon="4.61571">
        <ele>253</ele>
        <time>2022-05-17T14:18:59.545Z</time>
      </trkpt>
      <trkpt lat="49.86907" lon="4.61559">
        <ele>253</ele>
        <time>2022-05-17T14:19:00.564Z</time>
      </trkpt>
      <trkpt lat="49.86907" lon="4.61559">
        <ele>253</ele>
        <time>2022-05-17T14:19:01.535Z</time>
      </trkpt>
      <trkpt lat="49.86909" lon="4.61544">
        <ele>253</ele>
        <time>2022-05-17T14:19:02.561Z</time>
      </trkpt>
      <trkpt lat="49.8691" lon="4.61536">
        <ele>252</ele>
        <time>2022-05-17T14:19:03.526Z</time>
      </trkpt>
      <trkpt lat="49.8691" lon="4.61536">
        <ele>252</ele>
        <time>2022-05-17T14:19:04.533Z</time>
      </trkpt>
      <trkpt lat="49.86912" lon="4.61519">
        <ele>252</ele>
        <time>2022-05-17T14:19:05.558Z</time>
      </trkpt>
      <trkpt lat="49.86913" lon="4.61511">
        <ele>252</ele>
        <time>2022-05-17T14:19:06.555Z</time>
      </trkpt>
      <trkpt lat="49.86913" lon="4.61511">
        <ele>252</ele>
        <time>2022-05-17T14:19:07.561Z</time>
      </trkpt>
      <trkpt lat="49.86916" lon="4.61495">
        <ele>251</ele>
        <time>2022-05-17T14:19:08.534Z</time>
      </trkpt>
      <trkpt lat="49.86916" lon="4.61495">
        <ele>251</ele>
        <time>2022-05-17T14:19:09.545Z</time>
      </trkpt>
      <trkpt lat="49.8692" lon="4.6148">
        <ele>251</ele>
        <time>2022-05-17T14:19:10.557Z</time>
      </trkpt>
      <trkpt lat="49.8692" lon="4.6148">
        <ele>251</ele>
        <time>2022-05-17T14:19:11.532Z</time>
      </trkpt>
      <trkpt lat="49.86923" lon="4.61465">
        <ele>251</ele>
        <time>2022-05-17T14:19:12.555Z</time>
      </trkpt>
      <trkpt lat="49.86924" lon="4.61457">
        <ele>251</ele>
        <time>2022-05-17T14:19:13.550Z</time>
      </trkpt>
      <trkpt lat="49.86924" lon="4.61457">
        <ele>251</ele>
        <time>2022-05-17T14:19:14.555Z</time>
      </trkpt>
      <trkpt lat="49.86925" lon="4.61438">
        <ele>250</ele>
        <time>2022-05-17T14:19:15.548Z</time>
      </trkpt>
      <trkpt lat="49.86925" lon="4.61438">
        <ele>250</ele>
        <time>2022-05-17T14:19:16.549Z</time>
      </trkpt>
      <trkpt lat="49.86928" lon="4.6142">
        <ele>250</ele>
        <time>2022-05-17T14:19:17.524Z</time>
      </trkpt>
      <trkpt lat="49.86928" lon="4.6142">
        <ele>250</ele>
        <time>2022-05-17T14:19:18.530Z</time>
      </trkpt>
      <trkpt lat="49.86932" lon="4.61403">
        <ele>250</ele>
        <time>2022-05-17T14:19:19.547Z</time>
      </trkpt>
      <trkpt lat="49.86932" lon="4.61403">
        <ele>250</ele>
        <time>2022-05-17T14:19:20.560Z</time>
      </trkpt>
      <trkpt lat="49.8694" lon="4.61387">
        <ele>249</ele>
        <time>2022-05-17T14:19:21.536Z</time>
      </trkpt>
      <trkpt lat="49.8694" lon="4.61387">
        <ele>249</ele>
        <time>2022-05-17T14:19:22.544Z</time>
      </trkpt>
      <trkpt lat="49.86948" lon="4.61373">
        <ele>248</ele>
        <time>2022-05-17T14:19:23.554Z</time>
      </trkpt>
      <trkpt lat="49.86952" lon="4.61366">
        <ele>248</ele>
        <time>2022-05-17T14:19:24.544Z</time>
      </trkpt>
      <trkpt lat="49.86956" lon="4.6136">
        <ele>248</ele>
        <time>2022-05-17T14:19:25.534Z</time>
      </trkpt>
      <trkpt lat="49.86956" lon="4.6136">
        <ele>248</ele>
        <time>2022-05-17T14:19:26.540Z</time>
      </trkpt>
      <trkpt lat="49.86963" lon="4.61346">
        <ele>247</ele>
        <time>2022-05-17T14:19:27.532Z</time>
      </trkpt>
      <trkpt lat="49.86963" lon="4.61346">
        <ele>247</ele>
        <time>2022-05-17T14:19:28.541Z</time>
      </trkpt>
      <trkpt lat="49.8697" lon="4.61334">
        <ele>246</ele>
        <time>2022-05-17T14:19:29.534Z</time>
      </trkpt>
      <trkpt lat="49.86973" lon="4.61327">
        <ele>246</ele>
        <time>2022-05-17T14:19:30.542Z</time>
      </trkpt>
      <trkpt lat="49.86977" lon="4.61321">
        <ele>246</ele>
        <time>2022-05-17T14:19:31.548Z</time>
      </trkpt>
      <trkpt lat="49.86977" lon="4.61321">
        <ele>246</ele>
        <time>2022-05-17T14:19:32.553Z</time>
      </trkpt>
      <trkpt lat="49.86984" lon="4.6131">
        <ele>246</ele>
        <time>2022-05-17T14:19:33.544Z</time>
      </trkpt>
      <trkpt lat="49.86984" lon="4.6131">
        <ele>246</ele>
        <time>2022-05-17T14:19:34.554Z</time>
      </trkpt>
      <trkpt lat="49.86991" lon="4.61301">
        <ele>246</ele>
        <time>2022-05-17T14:19:35.537Z</time>
      </trkpt>
      <trkpt lat="49.86991" lon="4.61301">
        <ele>246</ele>
        <time>2022-05-17T14:19:36.542Z</time>
      </trkpt>
      <trkpt lat="49.86997" lon="4.61291">
        <ele>246</ele>
        <time>2022-05-17T14:19:37.552Z</time>
      </trkpt>
      <trkpt lat="49.87001" lon="4.61285">
        <ele>246</ele>
        <time>2022-05-17T14:19:38.558Z</time>
      </trkpt>
      <trkpt lat="49.87001" lon="4.61285">
        <ele>246</ele>
        <time>2022-05-17T14:19:39.529Z</time>
      </trkpt>
      <trkpt lat="49.87007" lon="4.61275">
        <ele>246</ele>
        <time>2022-05-17T14:19:40.558Z</time>
      </trkpt>
      <trkpt lat="49.87007" lon="4.61275">
        <ele>246</ele>
        <time>2022-05-17T14:19:41.536Z</time>
      </trkpt>
      <trkpt lat="49.87013" lon="4.61263">
        <ele>246</ele>
        <time>2022-05-17T14:19:42.557Z</time>
      </trkpt>
      <trkpt lat="49.87016" lon="4.61258">
        <ele>246</ele>
        <time>2022-05-17T14:19:43.530Z</time>
      </trkpt>
      <trkpt lat="49.87016" lon="4.61258">
        <ele>246</ele>
        <time>2022-05-17T14:19:44.535Z</time>
      </trkpt>
      <trkpt lat="49.87021" lon="4.61248">
        <ele>246</ele>
        <time>2022-05-17T14:19:45.548Z</time>
      </trkpt>
      <trkpt lat="49.87021" lon="4.61248">
        <ele>246</ele>
        <time>2022-05-17T14:19:46.562Z</time>
      </trkpt>
      <trkpt lat="49.87025" lon="4.61236">
        <ele>246</ele>
        <time>2022-05-17T14:19:47.533Z</time>
      </trkpt>
      <trkpt lat="49.87026" lon="4.6123">
        <ele>246</ele>
        <time>2022-05-17T14:19:48.545Z</time>
      </trkpt>
      <trkpt lat="49.87026" lon="4.6123">
        <ele>246</ele>
        <time>2022-05-17T14:19:49.550Z</time>
      </trkpt>
      <trkpt lat="49.8703" lon="4.61216">
        <ele>246</ele>
        <time>2022-05-17T14:19:50.529Z</time>
      </trkpt>
      <trkpt lat="49.87031" lon="4.6121">
        <ele>246</ele>
        <time>2022-05-17T14:19:51.551Z</time>
      </trkpt>
      <trkpt lat="49.87031" lon="4.6121">
        <ele>246</ele>
        <time>2022-05-17T14:19:52.556Z</time>
      </trkpt>
      <trkpt lat="49.87034" lon="4.61195">
        <ele>246</ele>
        <time>2022-05-17T14:19:53.529Z</time>
      </trkpt>
      <trkpt lat="49.87035" lon="4.61188">
        <ele>246</ele>
        <time>2022-05-17T14:19:54.561Z</time>
      </trkpt>
      <trkpt lat="49.87036" lon="4.6118">
        <ele>246</ele>
        <time>2022-05-17T14:19:55.539Z</time>
      </trkpt>
      <trkpt lat="49.87036" lon="4.6118">
        <ele>246</ele>
        <time>2022-05-17T14:19:56.545Z</time>
      </trkpt>
      <trkpt lat="49.8704" lon="4.61167">
        <ele>247</ele>
        <time>2022-05-17T14:19:57.536Z</time>
      </trkpt>
      <trkpt lat="49.8704" lon="4.61167">
        <ele>247</ele>
        <time>2022-05-17T14:19:58.541Z</time>
      </trkpt>
      <trkpt lat="49.87045" lon="4.61153">
        <ele>247</ele>
        <time>2022-05-17T14:19:59.535Z</time>
      </trkpt>
      <trkpt lat="49.87046" lon="4.61145">
        <ele>247</ele>
        <time>2022-05-17T14:20:00.536Z</time>
      </trkpt>
      <trkpt lat="49.87046" lon="4.61145">
        <ele>247</ele>
        <time>2022-05-17T14:20:01.541Z</time>
      </trkpt>
      <trkpt lat="49.87046" lon="4.6113">
        <ele>247</ele>
        <time>2022-05-17T14:20:02.550Z</time>
      </trkpt>
      <trkpt lat="49.87044" lon="4.61124">
        <ele>247</ele>
        <time>2022-05-17T14:20:03.552Z</time>
      </trkpt>
      <trkpt lat="49.87044" lon="4.61124">
        <ele>247</ele>
        <time>2022-05-17T14:20:04.557Z</time>
      </trkpt>
      <trkpt lat="49.87043" lon="4.61111">
        <ele>247</ele>
        <time>2022-05-17T14:20:05.547Z</time>
      </trkpt>
      <trkpt lat="49.87045" lon="4.61105">
        <ele>247</ele>
        <time>2022-05-17T14:20:06.556Z</time>
      </trkpt>
      <trkpt lat="49.87045" lon="4.61105">
        <ele>247</ele>
        <time>2022-05-17T14:20:07.561Z</time>
      </trkpt>
      <trkpt lat="49.87049" lon="4.61094">
        <ele>248</ele>
        <time>2022-05-17T14:20:08.531Z</time>
      </trkpt>
      <trkpt lat="49.87052" lon="4.61088">
        <ele>248</ele>
        <time>2022-05-17T14:20:09.532Z</time>
      </trkpt>
      <trkpt lat="49.87052" lon="4.61088">
        <ele>248</ele>
        <time>2022-05-17T14:20:10.552Z</time>
      </trkpt>
      <trkpt lat="49.8706" lon="4.61075">
        <ele>249</ele>
        <time>2022-05-17T14:20:11.558Z</time>
      </trkpt>
      <trkpt lat="49.8706" lon="4.61075">
        <ele>249</ele>
        <time>2022-05-17T14:20:12.541Z</time>
      </trkpt>
      <trkpt lat="49.87066" lon="4.61061">
        <ele>249</ele>
        <time>2022-05-17T14:20:13.547Z</time>
      </trkpt>
      <trkpt lat="49.87066" lon="4.61061">
        <ele>249</ele>
        <time>2022-05-17T14:20:14.552Z</time>
      </trkpt>
      <trkpt lat="49.87071" lon="4.61047">
        <ele>249</ele>
        <time>2022-05-17T14:20:15.562Z</time>
      </trkpt>
      <trkpt lat="49.87071" lon="4.61047">
        <ele>249</ele>
        <time>2022-05-17T14:20:16.547Z</time>
      </trkpt>
      <trkpt lat="49.87075" lon="4.61032">
        <ele>250</ele>
        <time>2022-05-17T14:20:17.534Z</time>
      </trkpt>
      <trkpt lat="49.87075" lon="4.61032">
        <ele>250</ele>
        <time>2022-05-17T14:20:18.539Z</time>
      </trkpt>
      <trkpt lat="49.87074" lon="4.61014">
        <ele>250</ele>
        <time>2022-05-17T14:20:19.565Z</time>
      </trkpt>
      <trkpt lat="49.87074" lon="4.61005">
        <ele>250</ele>
        <time>2022-05-17T14:20:20.549Z</time>
      </trkpt>
      <trkpt lat="49.87074" lon="4.61005">
        <ele>250</ele>
        <time>2022-05-17T14:20:21.536Z</time>
      </trkpt>
      <trkpt lat="49.87071" lon="4.60989">
        <ele>249</ele>
        <time>2022-05-17T14:20:22.553Z</time>
      </trkpt>
      <trkpt lat="49.87071" lon="4.60989">
        <ele>249</ele>
        <time>2022-05-17T14:20:23.561Z</time>
      </trkpt>
      <trkpt lat="49.87066" lon="4.6097">
        <ele>249</ele>
        <time>2022-05-17T14:20:24.537Z</time>
      </trkpt>
      <trkpt lat="49.87064" lon="4.60961">
        <ele>249</ele>
        <time>2022-05-17T14:20:25.527Z</time>
      </trkpt>
      <trkpt lat="49.87064" lon="4.60961">
        <ele>249</ele>
        <time>2022-05-17T14:20:26.541Z</time>
      </trkpt>
      <trkpt lat="49.87062" lon="4.60944">
        <ele>249</ele>
        <time>2022-05-17T14:20:27.535Z</time>
      </trkpt>
      <trkpt lat="49.87064" lon="4.60936">
        <ele>249</ele>
        <time>2022-05-17T14:20:28.540Z</time>
      </trkpt>
      <trkpt lat="49.87064" lon="4.60936">
        <ele>249</ele>
        <time>2022-05-17T14:20:29.545Z</time>
      </trkpt>
      <trkpt lat="49.87071" lon="4.60926">
        <ele>249</ele>
        <time>2022-05-17T14:20:30.556Z</time>
      </trkpt>
      <trkpt lat="49.87073" lon="4.60923">
        <ele>249</ele>
        <time>2022-05-17T14:20:31.548Z</time>
      </trkpt>
      <trkpt lat="49.87073" lon="4.60923">
        <ele>249</ele>
        <time>2022-05-17T14:20:32.553Z</time>
      </trkpt>
      <trkpt lat="49.8708" lon="4.60917">
        <ele>249</ele>
        <time>2022-05-17T14:20:33.526Z</time>
      </trkpt>
      <trkpt lat="49.8708" lon="4.60917">
        <ele>249</ele>
        <time>2022-05-17T14:20:34.540Z</time>
      </trkpt>
      <trkpt lat="49.87086" lon="4.60906">
        <ele>249</ele>
        <time>2022-05-17T14:20:35.552Z</time>
      </trkpt>
      <trkpt lat="49.87086" lon="4.60906">
        <ele>249</ele>
        <time>2022-05-17T14:20:36.557Z</time>
      </trkpt>
      <trkpt lat="49.87091" lon="4.60895">
        <ele>249</ele>
        <time>2022-05-17T14:20:37.561Z</time>
      </trkpt>
      <trkpt lat="49.87091" lon="4.60895">
        <ele>249</ele>
        <time>2022-05-17T14:20:38.543Z</time>
      </trkpt>
      <trkpt lat="49.87099" lon="4.60886">
        <ele>249</ele>
        <time>2022-05-17T14:20:39.537Z</time>
      </trkpt>
      <trkpt lat="49.87099" lon="4.60886">
        <ele>249</ele>
        <time>2022-05-17T14:20:40.542Z</time>
      </trkpt>
      <trkpt lat="49.87107" lon="4.60879">
        <ele>249</ele>
        <time>2022-05-17T14:20:41.564Z</time>
      </trkpt>
      <trkpt lat="49.87107" lon="4.60879">
        <ele>249</ele>
        <time>2022-05-17T14:20:42.541Z</time>
      </trkpt>
      <trkpt lat="49.87118" lon="4.60872">
        <ele>249</ele>
        <time>2022-05-17T14:20:43.555Z</time>
      </trkpt>
      <trkpt lat="49.87118" lon="4.60872">
        <ele>249</ele>
        <time>2022-05-17T14:20:44.560Z</time>
      </trkpt>
      <trkpt lat="49.87125" lon="4.60862">
        <ele>249</ele>
        <time>2022-05-17T14:20:45.538Z</time>
      </trkpt>
      <trkpt lat="49.87128" lon="4.60855">
        <ele>249</ele>
        <time>2022-05-17T14:20:46.531Z</time>
      </trkpt>
      <trkpt lat="49.87128" lon="4.60855">
        <ele>249</ele>
        <time>2022-05-17T14:20:47.544Z</time>
      </trkpt>
      <trkpt lat="49.8713" lon="4.60838">
        <ele>249</ele>
        <time>2022-05-17T14:20:48.557Z</time>
      </trkpt>
      <trkpt lat="49.8713" lon="4.60829">
        <ele>249</ele>
        <time>2022-05-17T14:20:49.556Z</time>
      </trkpt>
      <trkpt lat="49.8713" lon="4.60829">
        <ele>249</ele>
        <time>2022-05-17T14:20:50.526Z</time>
      </trkpt>
      <trkpt lat="49.8713" lon="4.60813">
        <ele>249</ele>
        <time>2022-05-17T14:20:51.525Z</time>
      </trkpt>
      <trkpt lat="49.87129" lon="4.60806">
        <ele>249</ele>
        <time>2022-05-17T14:20:52.537Z</time>
      </trkpt>
      <trkpt lat="49.87129" lon="4.60806">
        <ele>249</ele>
        <time>2022-05-17T14:20:53.542Z</time>
      </trkpt>
      <trkpt lat="49.87128" lon="4.60793">
        <ele>249</ele>
        <time>2022-05-17T14:20:54.535Z</time>
      </trkpt>
      <trkpt lat="49.87128" lon="4.60793">
        <ele>249</ele>
        <time>2022-05-17T14:20:55.540Z</time>
      </trkpt>
      <trkpt lat="49.87129" lon="4.6078">
        <ele>249</ele>
        <time>2022-05-17T14:20:56.556Z</time>
      </trkpt>
      <trkpt lat="49.87129" lon="4.6078">
        <ele>249</ele>
        <time>2022-05-17T14:20:57.561Z</time>
      </trkpt>
      <trkpt lat="49.87128" lon="4.60769">
        <ele>249</ele>
        <time>2022-05-17T14:20:58.541Z</time>
      </trkpt>
      <trkpt lat="49.87128" lon="4.60769">
        <ele>249</ele>
        <time>2022-05-17T14:20:59.547Z</time>
      </trkpt>
      <trkpt lat="49.87128" lon="4.60758">
        <ele>249</ele>
        <time>2022-05-17T14:21:00.547Z</time>
      </trkpt>
      <trkpt lat="49.87128" lon="4.60758">
        <ele>249</ele>
        <time>2022-05-17T14:21:01.552Z</time>
      </trkpt>
      <trkpt lat="49.87128" lon="4.60748">
        <ele>249</ele>
        <time>2022-05-17T14:21:02.527Z</time>
      </trkpt>
      <trkpt lat="49.87128" lon="4.60748">
        <ele>249</ele>
        <time>2022-05-17T14:21:03.533Z</time>
      </trkpt>
      <trkpt lat="49.87129" lon="4.60736">
        <ele>249</ele>
        <time>2022-05-17T14:21:04.530Z</time>
      </trkpt>
      <trkpt lat="49.87129" lon="4.60736">
        <ele>249</ele>
        <time>2022-05-17T14:21:05.543Z</time>
      </trkpt>
      <trkpt lat="49.87131" lon="4.60725">
        <ele>248</ele>
        <time>2022-05-17T14:21:06.556Z</time>
      </trkpt>
      <trkpt lat="49.87133" lon="4.60719">
        <ele>248</ele>
        <time>2022-05-17T14:21:07.543Z</time>
      </trkpt>
      <trkpt lat="49.87133" lon="4.60719">
        <ele>248</ele>
        <time>2022-05-17T14:21:08.549Z</time>
      </trkpt>
      <trkpt lat="49.87135" lon="4.60709">
        <ele>248</ele>
        <time>2022-05-17T14:21:09.558Z</time>
      </trkpt>
      <trkpt lat="49.87135" lon="4.60709">
        <ele>248</ele>
        <time>2022-05-17T14:21:10.540Z</time>
      </trkpt>
      <trkpt lat="49.87135" lon="4.60701">
        <ele>248</ele>
        <time>2022-05-17T14:21:11.538Z</time>
      </trkpt>
      <trkpt lat="49.87135" lon="4.60701">
        <ele>248</ele>
        <time>2022-05-17T14:21:12.543Z</time>
      </trkpt>
      <trkpt lat="49.87135" lon="4.60691">
        <ele>248</ele>
        <time>2022-05-17T14:21:13.529Z</time>
      </trkpt>
      <trkpt lat="49.87136" lon="4.60687">
        <ele>248</ele>
        <time>2022-05-17T14:21:14.526Z</time>
      </trkpt>
      <trkpt lat="49.87136" lon="4.60687">
        <ele>248</ele>
        <time>2022-05-17T14:21:15.533Z</time>
      </trkpt>
      <trkpt lat="49.87141" lon="4.60684">
        <ele>248</ele>
        <time>2022-05-17T14:21:16.550Z</time>
      </trkpt>
      <trkpt lat="49.87142" lon="4.60681">
        <ele>248</ele>
        <time>2022-05-17T14:21:17.526Z</time>
      </trkpt>
      <trkpt lat="49.87143" lon="4.60678">
        <ele>248</ele>
        <time>2022-05-17T14:21:18.538Z</time>
      </trkpt>
      <trkpt lat="49.87143" lon="4.60678">
        <ele>248</ele>
        <time>2022-05-17T14:21:19.542Z</time>
      </trkpt>
      <trkpt lat="49.87146" lon="4.60671">
        <ele>248</ele>
        <time>2022-05-17T14:21:20.541Z</time>
      </trkpt>
      <trkpt lat="49.87146" lon="4.60671">
        <ele>248</ele>
        <time>2022-05-17T14:21:21.526Z</time>
      </trkpt>
      <trkpt lat="49.8715" lon="4.60663">
        <ele>248</ele>
        <time>2022-05-17T14:21:22.538Z</time>
      </trkpt>
      <trkpt lat="49.87152" lon="4.60659">
        <ele>248</ele>
        <time>2022-05-17T14:21:23.550Z</time>
      </trkpt>
      <trkpt lat="49.87153" lon="4.60654">
        <ele>248</ele>
        <time>2022-05-17T14:21:24.545Z</time>
      </trkpt>
      <trkpt lat="49.87154" lon="4.60648">
        <ele>248</ele>
        <time>2022-05-17T14:21:25.556Z</time>
      </trkpt>
      <trkpt lat="49.87154" lon="4.60648">
        <ele>248</ele>
        <time>2022-05-17T14:21:26.562Z</time>
      </trkpt>
      <trkpt lat="49.87155" lon="4.60637">
        <ele>248</ele>
        <time>2022-05-17T14:21:27.556Z</time>
      </trkpt>
      <trkpt lat="49.87155" lon="4.60637">
        <ele>248</ele>
        <time>2022-05-17T14:21:28.562Z</time>
      </trkpt>
      <trkpt lat="49.87159" lon="4.60627">
        <ele>249</ele>
        <time>2022-05-17T14:21:29.564Z</time>
      </trkpt>
      <trkpt lat="49.8716" lon="4.60623">
        <ele>249</ele>
        <time>2022-05-17T14:21:30.559Z</time>
      </trkpt>
      <trkpt lat="49.8716" lon="4.60623">
        <ele>249</ele>
        <time>2022-05-17T14:21:31.524Z</time>
      </trkpt>
      <trkpt lat="49.87163" lon="4.60615">
        <ele>249</ele>
        <time>2022-05-17T14:21:32.537Z</time>
      </trkpt>
      <trkpt lat="49.87164" lon="4.60611">
        <ele>249</ele>
        <time>2022-05-17T14:21:33.533Z</time>
      </trkpt>
      <trkpt lat="49.87164" lon="4.60611">
        <ele>249</ele>
        <time>2022-05-17T14:21:34.539Z</time>
      </trkpt>
      <trkpt lat="49.87166" lon="4.60602">
        <ele>249</ele>
        <time>2022-05-17T14:21:35.548Z</time>
      </trkpt>
      <trkpt lat="49.87166" lon="4.60597">
        <ele>249</ele>
        <time>2022-05-17T14:21:36.552Z</time>
      </trkpt>
      <trkpt lat="49.87166" lon="4.60597">
        <ele>249</ele>
        <time>2022-05-17T14:21:37.557Z</time>
      </trkpt>
      <trkpt lat="49.87167" lon="4.60585">
        <ele>249</ele>
        <time>2022-05-17T14:21:38.538Z</time>
      </trkpt>
      <trkpt lat="49.87167" lon="4.60585">
        <ele>249</ele>
        <time>2022-05-17T14:21:39.550Z</time>
      </trkpt>
      <trkpt lat="49.8717" lon="4.60574">
        <ele>249</ele>
        <time>2022-05-17T14:21:40.530Z</time>
      </trkpt>
      <trkpt lat="49.8717" lon="4.60574">
        <ele>249</ele>
        <time>2022-05-17T14:21:41.535Z</time>
      </trkpt>
      <trkpt lat="49.87175" lon="4.6057">
        <ele>249</ele>
        <time>2022-05-17T14:21:42.524Z</time>
      </trkpt>
      <trkpt lat="49.87178" lon="4.60569">
        <ele>249</ele>
        <time>2022-05-17T14:21:43.547Z</time>
      </trkpt>
      <trkpt lat="49.87178" lon="4.60569">
        <ele>249</ele>
        <time>2022-05-17T14:21:44.552Z</time>
      </trkpt>
      <trkpt lat="49.8718" lon="4.60564">
        <ele>249</ele>
        <time>2022-05-17T14:21:45.563Z</time>
      </trkpt>
      <trkpt lat="49.8718" lon="4.60564">
        <ele>249</ele>
        <time>2022-05-17T14:21:46.540Z</time>
      </trkpt>
      <trkpt lat="49.87182" lon="4.60554">
        <ele>248</ele>
        <time>2022-05-17T14:21:47.556Z</time>
      </trkpt>
      <trkpt lat="49.87182" lon="4.60554">
        <ele>248</ele>
        <time>2022-05-17T14:21:48.561Z</time>
      </trkpt>
      <trkpt lat="49.87183" lon="4.60544">
        <ele>248</ele>
        <time>2022-05-17T14:21:49.553Z</time>
      </trkpt>
      <trkpt lat="49.87183" lon="4.60544">
        <ele>248</ele>
        <time>2022-05-17T14:21:50.545Z</time>
      </trkpt>
      <trkpt lat="49.87183" lon="4.60532">
        <ele>248</ele>
        <time>2022-05-17T14:21:51.531Z</time>
      </trkpt>
      <trkpt lat="49.87183" lon="4.60532">
        <ele>248</ele>
        <time>2022-05-17T14:21:52.536Z</time>
      </trkpt>
      <trkpt lat="49.87185" lon="4.6052">
        <ele>248</ele>
        <time>2022-05-17T14:21:53.547Z</time>
      </trkpt>
      <trkpt lat="49.87185" lon="4.6052">
        <ele>248</ele>
        <time>2022-05-17T14:21:54.553Z</time>
      </trkpt>
      <trkpt lat="49.87186" lon="4.60507">
        <ele>248</ele>
        <time>2022-05-17T14:21:55.536Z</time>
      </trkpt>
      <trkpt lat="49.87186" lon="4.60507">
        <ele>248</ele>
        <time>2022-05-17T14:21:56.541Z</time>
      </trkpt>
      <trkpt lat="49.87189" lon="4.60495">
        <ele>247</ele>
        <time>2022-05-17T14:21:57.535Z</time>
      </trkpt>
      <trkpt lat="49.8719" lon="4.60488">
        <ele>247</ele>
        <time>2022-05-17T14:21:58.525Z</time>
      </trkpt>
      <trkpt lat="49.8719" lon="4.60488">
        <ele>247</ele>
        <time>2022-05-17T14:21:59.533Z</time>
      </trkpt>
      <trkpt lat="49.87192" lon="4.60476">
        <ele>247</ele>
        <time>2022-05-17T14:22:00.550Z</time>
      </trkpt>
      <trkpt lat="49.87192" lon="4.60476">
        <ele>247</ele>
        <time>2022-05-17T14:22:01.555Z</time>
      </trkpt>
      <trkpt lat="49.87194" lon="4.60463">
        <ele>247</ele>
        <time>2022-05-17T14:22:02.562Z</time>
      </trkpt>
      <trkpt lat="49.87194" lon="4.60463">
        <ele>247</ele>
        <time>2022-05-17T14:22:03.530Z</time>
      </trkpt>
      <trkpt lat="49.87196" lon="4.6045">
        <ele>246</ele>
        <time>2022-05-17T14:22:04.525Z</time>
      </trkpt>
      <trkpt lat="49.87196" lon="4.6045">
        <ele>246</ele>
        <time>2022-05-17T14:22:05.533Z</time>
      </trkpt>
      <trkpt lat="49.87198" lon="4.60436">
        <ele>246</ele>
        <time>2022-05-17T14:22:06.547Z</time>
      </trkpt>
      <trkpt lat="49.87199" lon="4.6043">
        <ele>246</ele>
        <time>2022-05-17T14:22:07.549Z</time>
      </trkpt>
      <trkpt lat="49.87199" lon="4.6043">
        <ele>246</ele>
        <time>2022-05-17T14:22:08.560Z</time>
      </trkpt>
      <trkpt lat="49.87201" lon="4.60417">
        <ele>246</ele>
        <time>2022-05-17T14:22:09.545Z</time>
      </trkpt>
      <trkpt lat="49.87201" lon="4.60417">
        <ele>246</ele>
        <time>2022-05-17T14:22:10.550Z</time>
      </trkpt>
      <trkpt lat="49.87203" lon="4.60404">
        <ele>246</ele>
        <time>2022-05-17T14:22:11.557Z</time>
      </trkpt>
      <trkpt lat="49.87203" lon="4.60404">
        <ele>246</ele>
        <time>2022-05-17T14:22:12.563Z</time>
      </trkpt>
      <trkpt lat="49.87204" lon="4.6039">
        <ele>246</ele>
        <time>2022-05-17T14:22:13.547Z</time>
      </trkpt>
      <trkpt lat="49.87204" lon="4.6039">
        <ele>246</ele>
        <time>2022-05-17T14:22:14.552Z</time>
      </trkpt>
      <trkpt lat="49.87206" lon="4.60376">
        <ele>246</ele>
        <time>2022-05-17T14:22:15.560Z</time>
      </trkpt>
      <trkpt lat="49.87206" lon="4.60376">
        <ele>246</ele>
        <time>2022-05-17T14:22:16.549Z</time>
      </trkpt>
      <trkpt lat="49.87209" lon="4.60363">
        <ele>246</ele>
        <time>2022-05-17T14:22:17.556Z</time>
      </trkpt>
      <trkpt lat="49.87209" lon="4.60363">
        <ele>246</ele>
        <time>2022-05-17T14:22:18.561Z</time>
      </trkpt>
      <trkpt lat="49.87216" lon="4.60352">
        <ele>246</ele>
        <time>2022-05-17T14:22:19.544Z</time>
      </trkpt>
      <trkpt lat="49.87216" lon="4.60352">
        <ele>246</ele>
        <time>2022-05-17T14:22:20.556Z</time>
      </trkpt>
      <trkpt lat="49.87224" lon="4.60347">
        <ele>246</ele>
        <time>2022-05-17T14:22:21.555Z</time>
      </trkpt>
      <trkpt lat="49.87227" lon="4.60346">
        <ele>246</ele>
        <time>2022-05-17T14:22:22.524Z</time>
      </trkpt>
      <trkpt lat="49.8723" lon="4.60345">
        <ele>246</ele>
        <time>2022-05-17T14:22:23.525Z</time>
      </trkpt>
      <trkpt lat="49.87234" lon="4.60343">
        <ele>246</ele>
        <time>2022-05-17T14:22:24.542Z</time>
      </trkpt>
      <trkpt lat="49.87234" lon="4.60343">
        <ele>246</ele>
        <time>2022-05-17T14:22:25.524Z</time>
      </trkpt>
      <trkpt lat="49.87239" lon="4.60341">
        <ele>246</ele>
        <time>2022-05-17T14:22:26.547Z</time>
      </trkpt>
      <trkpt lat="49.87239" lon="4.60341">
        <ele>246</ele>
        <time>2022-05-17T14:22:27.552Z</time>
      </trkpt>
      <trkpt lat="49.87245" lon="4.60339">
        <ele>247</ele>
        <time>2022-05-17T14:22:28.546Z</time>
      </trkpt>
      <trkpt lat="49.87245" lon="4.60339">
        <ele>247</ele>
        <time>2022-05-17T14:22:29.551Z</time>
      </trkpt>
      <trkpt lat="49.87248" lon="4.60335">
        <ele>248</ele>
        <time>2022-05-17T14:22:30.552Z</time>
      </trkpt>
      <trkpt lat="49.87248" lon="4.60335">
        <ele>248</ele>
        <time>2022-05-17T14:22:31.557Z</time>
      </trkpt>
      <trkpt lat="49.8725" lon="4.60329">
        <ele>248</ele>
        <time>2022-05-17T14:22:32.553Z</time>
      </trkpt>
      <trkpt lat="49.87251" lon="4.60324">
        <ele>248</ele>
        <time>2022-05-17T14:22:33.545Z</time>
      </trkpt>
      <trkpt lat="49.87251" lon="4.60324">
        <ele>248</ele>
        <time>2022-05-17T14:22:34.550Z</time>
      </trkpt>
      <trkpt lat="49.87253" lon="4.60314">
        <ele>248</ele>
        <time>2022-05-17T14:22:35.537Z</time>
      </trkpt>
      <trkpt lat="49.87253" lon="4.60314">
        <ele>248</ele>
        <time>2022-05-17T14:22:36.542Z</time>
      </trkpt>
      <trkpt lat="49.87255" lon="4.60304">
        <ele>247</ele>
        <time>2022-05-17T14:22:37.540Z</time>
      </trkpt>
      <trkpt lat="49.87256" lon="4.60299">
        <ele>247</ele>
        <time>2022-05-17T14:22:38.541Z</time>
      </trkpt>
      <trkpt lat="49.87256" lon="4.60299">
        <ele>247</ele>
        <time>2022-05-17T14:22:39.546Z</time>
      </trkpt>
      <trkpt lat="49.87258" lon="4.60286">
        <ele>247</ele>
        <time>2022-05-17T14:22:40.556Z</time>
      </trkpt>
      <trkpt lat="49.87259" lon="4.6028">
        <ele>246</ele>
        <time>2022-05-17T14:22:41.562Z</time>
      </trkpt>
      <trkpt lat="49.87259" lon="4.6028">
        <ele>246</ele>
        <time>2022-05-17T14:22:42.532Z</time>
      </trkpt>
      <trkpt lat="49.87261" lon="4.60267">
        <ele>245</ele>
        <time>2022-05-17T14:22:43.546Z</time>
      </trkpt>
      <trkpt lat="49.87263" lon="4.60261">
        <ele>245</ele>
        <time>2022-05-17T14:22:44.552Z</time>
      </trkpt>
      <trkpt lat="49.87263" lon="4.60261">
        <ele>245</ele>
        <time>2022-05-17T14:22:45.557Z</time>
      </trkpt>
      <trkpt lat="49.87265" lon="4.60247">
        <ele>245</ele>
        <time>2022-05-17T14:22:46.559Z</time>
      </trkpt>
      <trkpt lat="49.87265" lon="4.6024">
        <ele>244</ele>
        <time>2022-05-17T14:22:47.533Z</time>
      </trkpt>
      <trkpt lat="49.87265" lon="4.6024">
        <ele>244</ele>
        <time>2022-05-17T14:22:48.551Z</time>
      </trkpt>
      <trkpt lat="49.87267" lon="4.60226">
        <ele>244</ele>
        <time>2022-05-17T14:22:49.562Z</time>
      </trkpt>
      <trkpt lat="49.87267" lon="4.60226">
        <ele>244</ele>
        <time>2022-05-17T14:22:50.537Z</time>
      </trkpt>
      <trkpt lat="49.87269" lon="4.6021">
        <ele>243</ele>
        <time>2022-05-17T14:22:51.526Z</time>
      </trkpt>
      <trkpt lat="49.87269" lon="4.6021">
        <ele>243</ele>
        <time>2022-05-17T14:22:52.533Z</time>
      </trkpt>
      <trkpt lat="49.87272" lon="4.60194">
        <ele>242</ele>
        <time>2022-05-17T14:22:53.526Z</time>
      </trkpt>
      <trkpt lat="49.87272" lon="4.60194">
        <ele>242</ele>
        <time>2022-05-17T14:22:54.541Z</time>
      </trkpt>
      <trkpt lat="49.87274" lon="4.60177">
        <ele>242</ele>
        <time>2022-05-17T14:22:55.561Z</time>
      </trkpt>
      <trkpt lat="49.87274" lon="4.60177">
        <ele>242</ele>
        <time>2022-05-17T14:22:56.536Z</time>
      </trkpt>
      <trkpt lat="49.87277" lon="4.60159">
        <ele>242</ele>
        <time>2022-05-17T14:22:57.528Z</time>
      </trkpt>
      <trkpt lat="49.87278" lon="4.60149">
        <ele>242</ele>
        <time>2022-05-17T14:22:58.525Z</time>
      </trkpt>
      <trkpt lat="49.87278" lon="4.60149">
        <ele>242</ele>
        <time>2022-05-17T14:22:59.531Z</time>
      </trkpt>
      <trkpt lat="49.87281" lon="4.60128">
        <ele>241</ele>
        <time>2022-05-17T14:23:00.549Z</time>
      </trkpt>
      <trkpt lat="49.87282" lon="4.60118">
        <ele>241</ele>
        <time>2022-05-17T14:23:01.549Z</time>
      </trkpt>
      <trkpt lat="49.87282" lon="4.60118">
        <ele>241</ele>
        <time>2022-05-17T14:23:02.554Z</time>
      </trkpt>
      <trkpt lat="49.87285" lon="4.60096">
        <ele>240</ele>
        <time>2022-05-17T14:23:03.538Z</time>
      </trkpt>
      <trkpt lat="49.87287" lon="4.60085">
        <ele>240</ele>
        <time>2022-05-17T14:23:04.529Z</time>
      </trkpt>
      <trkpt lat="49.87287" lon="4.60085">
        <ele>240</ele>
        <time>2022-05-17T14:23:05.534Z</time>
      </trkpt>
      <trkpt lat="49.8729" lon="4.60064">
        <ele>240</ele>
        <time>2022-05-17T14:23:06.545Z</time>
      </trkpt>
      <trkpt lat="49.87292" lon="4.60054">
        <ele>239</ele>
        <time>2022-05-17T14:23:07.527Z</time>
      </trkpt>
      <trkpt lat="49.87292" lon="4.60054">
        <ele>239</ele>
        <time>2022-05-17T14:23:08.536Z</time>
      </trkpt>
      <trkpt lat="49.87294" lon="4.60035">
        <ele>238</ele>
        <time>2022-05-17T14:23:09.543Z</time>
      </trkpt>
      <trkpt lat="49.87294" lon="4.60035">
        <ele>238</ele>
        <time>2022-05-17T14:23:10.556Z</time>
      </trkpt>
      <trkpt lat="49.87297" lon="4.60017">
        <ele>238</ele>
        <time>2022-05-17T14:23:11.557Z</time>
      </trkpt>
      <trkpt lat="49.87297" lon="4.60017">
        <ele>238</ele>
        <time>2022-05-17T14:23:12.563Z</time>
      </trkpt>
      <trkpt lat="49.873" lon="4.60001">
        <ele>238</ele>
        <time>2022-05-17T14:23:13.526Z</time>
      </trkpt>
      <trkpt lat="49.873" lon="4.60001">
        <ele>238</ele>
        <time>2022-05-17T14:23:14.533Z</time>
      </trkpt>
      <trkpt lat="49.87303" lon="4.59985">
        <ele>238</ele>
        <time>2022-05-17T14:23:15.553Z</time>
      </trkpt>
      <trkpt lat="49.87303" lon="4.59985">
        <ele>238</ele>
        <time>2022-05-17T14:23:16.529Z</time>
      </trkpt>
      <trkpt lat="49.87304" lon="4.59969">
        <ele>238</ele>
        <time>2022-05-17T14:23:17.527Z</time>
      </trkpt>
      <trkpt lat="49.87305" lon="4.59962">
        <ele>238</ele>
        <time>2022-05-17T14:23:18.551Z</time>
      </trkpt>
      <trkpt lat="49.87305" lon="4.59962">
        <ele>238</ele>
        <time>2022-05-17T14:23:19.556Z</time>
      </trkpt>
      <trkpt lat="49.87308" lon="4.59946">
        <ele>238</ele>
        <time>2022-05-17T14:23:20.563Z</time>
      </trkpt>
      <trkpt lat="49.87308" lon="4.59946">
        <ele>238</ele>
        <time>2022-05-17T14:23:21.549Z</time>
      </trkpt>
      <trkpt lat="49.8731" lon="4.5993">
        <ele>237</ele>
        <time>2022-05-17T14:23:22.545Z</time>
      </trkpt>
      <trkpt lat="49.87311" lon="4.59922">
        <ele>237</ele>
        <time>2022-05-17T14:23:23.543Z</time>
      </trkpt>
      <trkpt lat="49.87313" lon="4.59914">
        <ele>237</ele>
        <time>2022-05-17T14:23:24.555Z</time>
      </trkpt>
      <trkpt lat="49.87314" lon="4.59906">
        <ele>237</ele>
        <time>2022-05-17T14:23:25.552Z</time>
      </trkpt>
      <trkpt lat="49.87314" lon="4.59906">
        <ele>237</ele>
        <time>2022-05-17T14:23:26.557Z</time>
      </trkpt>
      <trkpt lat="49.87317" lon="4.5989">
        <ele>237</ele>
        <time>2022-05-17T14:23:27.551Z</time>
      </trkpt>
      <trkpt lat="49.87317" lon="4.5989">
        <ele>237</ele>
        <time>2022-05-17T14:23:28.556Z</time>
      </trkpt>
      <trkpt lat="49.87321" lon="4.59874">
        <ele>237</ele>
        <time>2022-05-17T14:23:29.573Z</time>
      </trkpt>
      <trkpt lat="49.87323" lon="4.59866">
        <ele>236</ele>
        <time>2022-05-17T14:23:30.524Z</time>
      </trkpt>
      <trkpt lat="49.87325" lon="4.59858">
        <ele>236</ele>
        <time>2022-05-17T14:23:31.539Z</time>
      </trkpt>
      <trkpt lat="49.87325" lon="4.59858">
        <ele>236</ele>
        <time>2022-05-17T14:23:32.544Z</time>
      </trkpt>
      <trkpt lat="49.87329" lon="4.59843">
        <ele>236</ele>
        <time>2022-05-17T14:23:33.558Z</time>
      </trkpt>
      <trkpt lat="49.87329" lon="4.59843">
        <ele>236</ele>
        <time>2022-05-17T14:23:34.563Z</time>
      </trkpt>
      <trkpt lat="49.87333" lon="4.59827">
        <ele>236</ele>
        <time>2022-05-17T14:23:35.535Z</time>
      </trkpt>
      <trkpt lat="49.87333" lon="4.59827">
        <ele>236</ele>
        <time>2022-05-17T14:23:36.540Z</time>
      </trkpt>
      <trkpt lat="49.87337" lon="4.59811">
        <ele>236</ele>
        <time>2022-05-17T14:23:37.560Z</time>
      </trkpt>
      <trkpt lat="49.87337" lon="4.59811">
        <ele>236</ele>
        <time>2022-05-17T14:23:38.535Z</time>
      </trkpt>
      <trkpt lat="49.87341" lon="4.59795">
        <ele>236</ele>
        <time>2022-05-17T14:23:39.529Z</time>
      </trkpt>
      <trkpt lat="49.87342" lon="4.59787">
        <ele>236</ele>
        <time>2022-05-17T14:23:40.561Z</time>
      </trkpt>
      <trkpt lat="49.87342" lon="4.59787">
        <ele>236</ele>
        <time>2022-05-17T14:23:41.527Z</time>
      </trkpt>
      <trkpt lat="49.87344" lon="4.59773">
        <ele>237</ele>
        <time>2022-05-17T14:23:42.556Z</time>
      </trkpt>
      <trkpt lat="49.87345" lon="4.59765">
        <ele>237</ele>
        <time>2022-05-17T14:23:43.552Z</time>
      </trkpt>
      <trkpt lat="49.87345" lon="4.59765">
        <ele>237</ele>
        <time>2022-05-17T14:23:44.557Z</time>
      </trkpt>
      <trkpt lat="49.87347" lon="4.59751">
        <ele>237</ele>
        <time>2022-05-17T14:23:45.533Z</time>
      </trkpt>
      <trkpt lat="49.87347" lon="4.59743">
        <ele>237</ele>
        <time>2022-05-17T14:23:46.557Z</time>
      </trkpt>
      <trkpt lat="49.87347" lon="4.59743">
        <ele>237</ele>
        <time>2022-05-17T14:23:47.547Z</time>
      </trkpt>
      <trkpt lat="49.87348" lon="4.59729">
        <ele>237</ele>
        <time>2022-05-17T14:23:48.552Z</time>
      </trkpt>
      <trkpt lat="49.87348" lon="4.59729">
        <ele>237</ele>
        <time>2022-05-17T14:23:49.557Z</time>
      </trkpt>
      <trkpt lat="49.87348" lon="4.59715">
        <ele>237</ele>
        <time>2022-05-17T14:23:50.525Z</time>
      </trkpt>
      <trkpt lat="49.87348" lon="4.59715">
        <ele>237</ele>
        <time>2022-05-17T14:23:51.536Z</time>
      </trkpt>
      <trkpt lat="49.87348" lon="4.59702">
        <ele>237</ele>
        <time>2022-05-17T14:23:52.561Z</time>
      </trkpt>
      <trkpt lat="49.87348" lon="4.59695">
        <ele>237</ele>
        <time>2022-05-17T14:23:53.559Z</time>
      </trkpt>
      <trkpt lat="49.87348" lon="4.59695">
        <ele>237</ele>
        <time>2022-05-17T14:23:54.528Z</time>
      </trkpt>
      <trkpt lat="49.87348" lon="4.59681">
        <ele>237</ele>
        <time>2022-05-17T14:23:55.547Z</time>
      </trkpt>
      <trkpt lat="49.87348" lon="4.59681">
        <ele>237</ele>
        <time>2022-05-17T14:23:56.535Z</time>
      </trkpt>
      <trkpt lat="49.87348" lon="4.59666">
        <ele>238</ele>
        <time>2022-05-17T14:23:57.547Z</time>
      </trkpt>
      <trkpt lat="49.87348" lon="4.59666">
        <ele>238</ele>
        <time>2022-05-17T14:23:58.552Z</time>
      </trkpt>
      <trkpt lat="49.87349" lon="4.59652">
        <ele>238</ele>
        <time>2022-05-17T14:23:59.554Z</time>
      </trkpt>
      <trkpt lat="49.87349" lon="4.59645">
        <ele>237</ele>
        <time>2022-05-17T14:24:00.536Z</time>
      </trkpt>
      <trkpt lat="49.8735" lon="4.59638">
        <ele>237</ele>
        <time>2022-05-17T14:24:01.525Z</time>
      </trkpt>
      <trkpt lat="49.8735" lon="4.59638">
        <ele>237</ele>
        <time>2022-05-17T14:24:02.537Z</time>
      </trkpt>
      <trkpt lat="49.8735" lon="4.59624">
        <ele>237</ele>
        <time>2022-05-17T14:24:03.551Z</time>
      </trkpt>
      <trkpt lat="49.8735" lon="4.59624">
        <ele>237</ele>
        <time>2022-05-17T14:24:04.557Z</time>
      </trkpt>
      <trkpt lat="49.87351" lon="4.59611">
        <ele>237</ele>
        <time>2022-05-17T14:24:05.562Z</time>
      </trkpt>
      <trkpt lat="49.87351" lon="4.59604">
        <ele>237</ele>
        <time>2022-05-17T14:24:06.535Z</time>
      </trkpt>
      <trkpt lat="49.87351" lon="4.59597">
        <ele>237</ele>
        <time>2022-05-17T14:24:07.551Z</time>
      </trkpt>
      <trkpt lat="49.87351" lon="4.59597">
        <ele>237</ele>
        <time>2022-05-17T14:24:08.557Z</time>
      </trkpt>
      <trkpt lat="49.87351" lon="4.59582">
        <ele>237</ele>
        <time>2022-05-17T14:24:09.562Z</time>
      </trkpt>
      <trkpt lat="49.87351" lon="4.59575">
        <ele>237</ele>
        <time>2022-05-17T14:24:10.539Z</time>
      </trkpt>
      <trkpt lat="49.87351" lon="4.59575">
        <ele>237</ele>
        <time>2022-05-17T14:24:11.557Z</time>
      </trkpt>
      <trkpt lat="49.8735" lon="4.5956">
        <ele>236</ele>
        <time>2022-05-17T14:24:12.557Z</time>
      </trkpt>
      <trkpt lat="49.87349" lon="4.59551">
        <ele>236</ele>
        <time>2022-05-17T14:24:13.546Z</time>
      </trkpt>
      <trkpt lat="49.87349" lon="4.59551">
        <ele>236</ele>
        <time>2022-05-17T14:24:14.550Z</time>
      </trkpt>
      <trkpt lat="49.87349" lon="4.59534">
        <ele>236</ele>
        <time>2022-05-17T14:24:15.539Z</time>
      </trkpt>
      <trkpt lat="49.87349" lon="4.59534">
        <ele>236</ele>
        <time>2022-05-17T14:24:16.548Z</time>
      </trkpt>
      <trkpt lat="49.87348" lon="4.59517">
        <ele>236</ele>
        <time>2022-05-17T14:24:17.562Z</time>
      </trkpt>
      <trkpt lat="49.87348" lon="4.59517">
        <ele>236</ele>
        <time>2022-05-17T14:24:18.529Z</time>
      </trkpt>
      <trkpt lat="49.87349" lon="4.59498">
        <ele>235</ele>
        <time>2022-05-17T14:24:19.552Z</time>
      </trkpt>
      <trkpt lat="49.87349" lon="4.59498">
        <ele>235</ele>
        <time>2022-05-17T14:24:20.536Z</time>
      </trkpt>
      <trkpt lat="49.87351" lon="4.59478">
        <ele>235</ele>
        <time>2022-05-17T14:24:21.537Z</time>
      </trkpt>
      <trkpt lat="49.87352" lon="4.59468">
        <ele>235</ele>
        <time>2022-05-17T14:24:22.527Z</time>
      </trkpt>
      <trkpt lat="49.87354" lon="4.59458">
        <ele>235</ele>
        <time>2022-05-17T14:24:23.557Z</time>
      </trkpt>
      <trkpt lat="49.87354" lon="4.59458">
        <ele>235</ele>
        <time>2022-05-17T14:24:24.525Z</time>
      </trkpt>
      <trkpt lat="49.87358" lon="4.59439">
        <ele>234</ele>
        <time>2022-05-17T14:24:25.534Z</time>
      </trkpt>
      <trkpt lat="49.87358" lon="4.59439">
        <ele>234</ele>
        <time>2022-05-17T14:24:26.541Z</time>
      </trkpt>
      <trkpt lat="49.87362" lon="4.5942">
        <ele>234</ele>
        <time>2022-05-17T14:24:27.527Z</time>
      </trkpt>
      <trkpt lat="49.87362" lon="4.5942">
        <ele>234</ele>
        <time>2022-05-17T14:24:28.532Z</time>
      </trkpt>
      <trkpt lat="49.87366" lon="4.59402">
        <ele>234</ele>
        <time>2022-05-17T14:24:29.547Z</time>
      </trkpt>
      <trkpt lat="49.87368" lon="4.59394">
        <ele>234</ele>
        <time>2022-05-17T14:24:30.554Z</time>
      </trkpt>
      <trkpt lat="49.87371" lon="4.59386">
        <ele>234</ele>
        <time>2022-05-17T14:24:31.527Z</time>
      </trkpt>
      <trkpt lat="49.87371" lon="4.59386">
        <ele>234</ele>
        <time>2022-05-17T14:24:32.535Z</time>
      </trkpt>
      <trkpt lat="49.87376" lon="4.59371">
        <ele>233</ele>
        <time>2022-05-17T14:24:33.535Z</time>
      </trkpt>
      <trkpt lat="49.87376" lon="4.59371">
        <ele>233</ele>
        <time>2022-05-17T14:24:34.551Z</time>
      </trkpt>
      <trkpt lat="49.8738" lon="4.59356">
        <ele>233</ele>
        <time>2022-05-17T14:24:35.554Z</time>
      </trkpt>
      <trkpt lat="49.87382" lon="4.59349">
        <ele>233</ele>
        <time>2022-05-17T14:24:36.537Z</time>
      </trkpt>
      <trkpt lat="49.87385" lon="4.59341">
        <ele>233</ele>
        <time>2022-05-17T14:24:37.548Z</time>
      </trkpt>
      <trkpt lat="49.87385" lon="4.59341">
        <ele>233</ele>
        <time>2022-05-17T14:24:38.553Z</time>
      </trkpt>
      <trkpt lat="49.8739" lon="4.59326">
        <ele>233</ele>
        <time>2022-05-17T14:24:39.525Z</time>
      </trkpt>
      <trkpt lat="49.87393" lon="4.59319">
        <ele>233</ele>
        <time>2022-05-17T14:24:40.560Z</time>
      </trkpt>
      <trkpt lat="49.87393" lon="4.59319">
        <ele>233</ele>
        <time>2022-05-17T14:24:41.529Z</time>
      </trkpt>
      <trkpt lat="49.87397" lon="4.59304">
        <ele>232</ele>
        <time>2022-05-17T14:24:42.542Z</time>
      </trkpt>
      <trkpt lat="49.874" lon="4.59296">
        <ele>232</ele>
        <time>2022-05-17T14:24:43.545Z</time>
      </trkpt>
      <trkpt lat="49.874" lon="4.59296">
        <ele>232</ele>
        <time>2022-05-17T14:24:44.561Z</time>
      </trkpt>
      <trkpt lat="49.87406" lon="4.5928">
        <ele>232</ele>
        <time>2022-05-17T14:24:45.542Z</time>
      </trkpt>
      <trkpt lat="49.87408" lon="4.59272">
        <ele>232</ele>
        <time>2022-05-17T14:24:46.539Z</time>
      </trkpt>
      <trkpt lat="49.87411" lon="4.59265">
        <ele>232</ele>
        <time>2022-05-17T14:24:47.563Z</time>
      </trkpt>
      <trkpt lat="49.87414" lon="4.59258">
        <ele>232</ele>
        <time>2022-05-17T14:24:48.530Z</time>
      </trkpt>
      <trkpt lat="49.87414" lon="4.59258">
        <ele>232</ele>
        <time>2022-05-17T14:24:49.535Z</time>
      </trkpt>
      <trkpt lat="49.8742" lon="4.59242">
        <ele>232</ele>
        <time>2022-05-17T14:24:50.551Z</time>
      </trkpt>
      <trkpt lat="49.8742" lon="4.59242">
        <ele>232</ele>
        <time>2022-05-17T14:24:51.556Z</time>
      </trkpt>
      <trkpt lat="49.87424" lon="4.59227">
        <ele>232</ele>
        <time>2022-05-17T14:24:52.545Z</time>
      </trkpt>
      <trkpt lat="49.87426" lon="4.59219">
        <ele>231</ele>
        <time>2022-05-17T14:24:53.538Z</time>
      </trkpt>
      <trkpt lat="49.87426" lon="4.59219">
        <ele>231</ele>
        <time>2022-05-17T14:24:54.543Z</time>
      </trkpt>
      <trkpt lat="49.87432" lon="4.59205">
        <ele>231</ele>
        <time>2022-05-17T14:24:55.553Z</time>
      </trkpt>
      <trkpt lat="49.87432" lon="4.59205">
        <ele>231</ele>
        <time>2022-05-17T14:24:56.558Z</time>
      </trkpt>
      <trkpt lat="49.87437" lon="4.5919">
        <ele>231</ele>
        <time>2022-05-17T14:24:57.540Z</time>
      </trkpt>
      <trkpt lat="49.87437" lon="4.5919">
        <ele>231</ele>
        <time>2022-05-17T14:24:58.546Z</time>
      </trkpt>
      <trkpt lat="49.87441" lon="4.59175">
        <ele>231</ele>
        <time>2022-05-17T14:24:59.562Z</time>
      </trkpt>
      <trkpt lat="49.87444" lon="4.59168">
        <ele>231</ele>
        <time>2022-05-17T14:25:00.555Z</time>
      </trkpt>
      <trkpt lat="49.87444" lon="4.59168">
        <ele>231</ele>
        <time>2022-05-17T14:25:01.532Z</time>
      </trkpt>
      <trkpt lat="49.8745" lon="4.59154">
        <ele>231</ele>
        <time>2022-05-17T14:25:02.527Z</time>
      </trkpt>
      <trkpt lat="49.8745" lon="4.59154">
        <ele>231</ele>
        <time>2022-05-17T14:25:03.532Z</time>
      </trkpt>
      <trkpt lat="49.87455" lon="4.59139">
        <ele>231</ele>
        <time>2022-05-17T14:25:04.563Z</time>
      </trkpt>
      <trkpt lat="49.87455" lon="4.59139">
        <ele>231</ele>
        <time>2022-05-17T14:25:05.532Z</time>
      </trkpt>
      <trkpt lat="49.87461" lon="4.59126">
        <ele>231</ele>
        <time>2022-05-17T14:25:06.542Z</time>
      </trkpt>
      <trkpt lat="49.87461" lon="4.59126">
        <ele>231</ele>
        <time>2022-05-17T14:25:07.549Z</time>
      </trkpt>
      <trkpt lat="49.87467" lon="4.59113">
        <ele>231</ele>
        <time>2022-05-17T14:25:08.535Z</time>
      </trkpt>
      <trkpt lat="49.87467" lon="4.59113">
        <ele>231</ele>
        <time>2022-05-17T14:25:09.540Z</time>
      </trkpt>
      <trkpt lat="49.87473" lon="4.591">
        <ele>232</ele>
        <time>2022-05-17T14:25:10.547Z</time>
      </trkpt>
      <trkpt lat="49.87473" lon="4.591">
        <ele>232</ele>
        <time>2022-05-17T14:25:11.552Z</time>
      </trkpt>
      <trkpt lat="49.87479" lon="4.59088">
        <ele>232</ele>
        <time>2022-05-17T14:25:12.555Z</time>
      </trkpt>
      <trkpt lat="49.87482" lon="4.59081">
        <ele>232</ele>
        <time>2022-05-17T14:25:13.524Z</time>
      </trkpt>
      <trkpt lat="49.87482" lon="4.59081">
        <ele>232</ele>
        <time>2022-05-17T14:25:14.534Z</time>
      </trkpt>
      <trkpt lat="49.87488" lon="4.59069">
        <ele>232</ele>
        <time>2022-05-17T14:25:15.562Z</time>
      </trkpt>
      <trkpt lat="49.87488" lon="4.59069">
        <ele>232</ele>
        <time>2022-05-17T14:25:16.527Z</time>
      </trkpt>
      <trkpt lat="49.87494" lon="4.59059">
        <ele>233</ele>
        <time>2022-05-17T14:25:17.534Z</time>
      </trkpt>
      <trkpt lat="49.87494" lon="4.59059">
        <ele>233</ele>
        <time>2022-05-17T14:25:18.539Z</time>
      </trkpt>
      <trkpt lat="49.875" lon="4.59046">
        <ele>233</ele>
        <time>2022-05-17T14:25:19.546Z</time>
      </trkpt>
      <trkpt lat="49.875" lon="4.59046">
        <ele>233</ele>
        <time>2022-05-17T14:25:20.559Z</time>
      </trkpt>
      <trkpt lat="49.87506" lon="4.59033">
        <ele>233</ele>
        <time>2022-05-17T14:25:21.536Z</time>
      </trkpt>
      <trkpt lat="49.87506" lon="4.59033">
        <ele>233</ele>
        <time>2022-05-17T14:25:22.544Z</time>
      </trkpt>
      <trkpt lat="49.87513" lon="4.59021">
        <ele>233</ele>
        <time>2022-05-17T14:25:23.558Z</time>
      </trkpt>
      <trkpt lat="49.87516" lon="4.59015">
        <ele>233</ele>
        <time>2022-05-17T14:25:24.525Z</time>
      </trkpt>
      <trkpt lat="49.87516" lon="4.59015">
        <ele>233</ele>
        <time>2022-05-17T14:25:25.530Z</time>
      </trkpt>
      <trkpt lat="49.87523" lon="4.59003">
        <ele>234</ele>
        <time>2022-05-17T14:25:26.530Z</time>
      </trkpt>
      <trkpt lat="49.87523" lon="4.59003">
        <ele>234</ele>
        <time>2022-05-17T14:25:27.536Z</time>
      </trkpt>
      <trkpt lat="49.87532" lon="4.58993">
        <ele>234</ele>
        <time>2022-05-17T14:25:28.532Z</time>
      </trkpt>
      <trkpt lat="49.87537" lon="4.58988">
        <ele>234</ele>
        <time>2022-05-17T14:25:29.535Z</time>
      </trkpt>
      <trkpt lat="49.87537" lon="4.58988">
        <ele>234</ele>
        <time>2022-05-17T14:25:30.540Z</time>
      </trkpt>
      <trkpt lat="49.87548" lon="4.58978">
        <ele>234</ele>
        <time>2022-05-17T14:25:31.535Z</time>
      </trkpt>
      <trkpt lat="49.87548" lon="4.58978">
        <ele>234</ele>
        <time>2022-05-17T14:25:32.540Z</time>
      </trkpt>
      <trkpt lat="49.8756" lon="4.58971">
        <ele>233</ele>
        <time>2022-05-17T14:25:33.525Z</time>
      </trkpt>
      <trkpt lat="49.87567" lon="4.58969">
        <ele>233</ele>
        <time>2022-05-17T14:25:34.535Z</time>
      </trkpt>
      <trkpt lat="49.87567" lon="4.58969">
        <ele>233</ele>
        <time>2022-05-17T14:25:35.540Z</time>
      </trkpt>
      <trkpt lat="49.87581" lon="4.58966">
        <ele>233</ele>
        <time>2022-05-17T14:25:36.549Z</time>
      </trkpt>
      <trkpt lat="49.87588" lon="4.58966">
        <ele>233</ele>
        <time>2022-05-17T14:25:37.525Z</time>
      </trkpt>
      <trkpt lat="49.87588" lon="4.58966">
        <ele>233</ele>
        <time>2022-05-17T14:25:38.531Z</time>
      </trkpt>
      <trkpt lat="49.87604" lon="4.58967">
        <ele>233</ele>
        <time>2022-05-17T14:25:39.563Z</time>
      </trkpt>
      <trkpt lat="49.87613" lon="4.58967">
        <ele>232</ele>
        <time>2022-05-17T14:25:40.560Z</time>
      </trkpt>
      <trkpt lat="49.87613" lon="4.58967">
        <ele>232</ele>
        <time>2022-05-17T14:25:41.530Z</time>
      </trkpt>
      <trkpt lat="49.87629" lon="4.58968">
        <ele>231</ele>
        <time>2022-05-17T14:25:42.531Z</time>
      </trkpt>
      <trkpt lat="49.87629" lon="4.58968">
        <ele>231</ele>
        <time>2022-05-17T14:25:43.536Z</time>
      </trkpt>
      <trkpt lat="49.87646" lon="4.58972">
        <ele>230</ele>
        <time>2022-05-17T14:25:44.535Z</time>
      </trkpt>
      <trkpt lat="49.87646" lon="4.58972">
        <ele>230</ele>
        <time>2022-05-17T14:25:45.540Z</time>
      </trkpt>
      <trkpt lat="49.87661" lon="4.58977">
        <ele>230</ele>
        <time>2022-05-17T14:25:46.550Z</time>
      </trkpt>
      <trkpt lat="49.87668" lon="4.5898">
        <ele>229</ele>
        <time>2022-05-17T14:25:47.555Z</time>
      </trkpt>
      <trkpt lat="49.87668" lon="4.5898">
        <ele>229</ele>
        <time>2022-05-17T14:25:48.561Z</time>
      </trkpt>
      <trkpt lat="49.87682" lon="4.58986">
        <ele>228</ele>
        <time>2022-05-17T14:25:49.525Z</time>
      </trkpt>
      <trkpt lat="49.87682" lon="4.58986">
        <ele>228</ele>
        <time>2022-05-17T14:25:50.532Z</time>
      </trkpt>
      <trkpt lat="49.87695" lon="4.58992">
        <ele>228</ele>
        <time>2022-05-17T14:25:51.530Z</time>
      </trkpt>
      <trkpt lat="49.87702" lon="4.58993">
        <ele>227</ele>
        <time>2022-05-17T14:25:52.544Z</time>
      </trkpt>
      <trkpt lat="49.87702" lon="4.58993">
        <ele>227</ele>
        <time>2022-05-17T14:25:53.549Z</time>
      </trkpt>
      <trkpt lat="49.87715" lon="4.58996">
        <ele>227</ele>
        <time>2022-05-17T14:25:54.553Z</time>
      </trkpt>
      <trkpt lat="49.87722" lon="4.58996">
        <ele>227</ele>
        <time>2022-05-17T14:25:55.525Z</time>
      </trkpt>
      <trkpt lat="49.87722" lon="4.58996">
        <ele>227</ele>
        <time>2022-05-17T14:25:56.535Z</time>
      </trkpt>
      <trkpt lat="49.87737" lon="4.58996">
        <ele>226</ele>
        <time>2022-05-17T14:25:57.544Z</time>
      </trkpt>
      <trkpt lat="49.87737" lon="4.58996">
        <ele>226</ele>
        <time>2022-05-17T14:25:58.549Z</time>
      </trkpt>
      <trkpt lat="49.87751" lon="4.58996">
        <ele>226</ele>
        <time>2022-05-17T14:25:59.561Z</time>
      </trkpt>
      <trkpt lat="49.87758" lon="4.58996">
        <ele>226</ele>
        <time>2022-05-17T14:26:00.525Z</time>
      </trkpt>
      <trkpt lat="49.87765" lon="4.58997">
        <ele>225</ele>
        <time>2022-05-17T14:26:01.535Z</time>
      </trkpt>
      <trkpt lat="49.87765" lon="4.58997">
        <ele>225</ele>
        <time>2022-05-17T14:26:02.540Z</time>
      </trkpt>
      <trkpt lat="49.87779" lon="4.58996">
        <ele>224</ele>
        <time>2022-05-17T14:26:03.532Z</time>
      </trkpt>
      <trkpt lat="49.87787" lon="4.58995">
        <ele>225</ele>
        <time>2022-05-17T14:26:04.555Z</time>
      </trkpt>
      <trkpt lat="49.87787" lon="4.58995">
        <ele>225</ele>
        <time>2022-05-17T14:26:05.560Z</time>
      </trkpt>
      <trkpt lat="49.87801" lon="4.58989">
        <ele>225</ele>
        <time>2022-05-17T14:26:06.535Z</time>
      </trkpt>
      <trkpt lat="49.87807" lon="4.58987">
        <ele>225</ele>
        <time>2022-05-17T14:26:07.531Z</time>
      </trkpt>
      <trkpt lat="49.87807" lon="4.58987">
        <ele>225</ele>
        <time>2022-05-17T14:26:08.536Z</time>
      </trkpt>
      <trkpt lat="49.8782" lon="4.58987">
        <ele>224</ele>
        <time>2022-05-17T14:26:09.550Z</time>
      </trkpt>
      <trkpt lat="49.87827" lon="4.58985">
        <ele>225</ele>
        <time>2022-05-17T14:26:10.525Z</time>
      </trkpt>
      <trkpt lat="49.87827" lon="4.58985">
        <ele>225</ele>
        <time>2022-05-17T14:26:11.538Z</time>
      </trkpt>
      <trkpt lat="49.87832" lon="4.58971">
        <ele>225</ele>
        <time>2022-05-17T14:26:12.543Z</time>
      </trkpt>
      <trkpt lat="49.87831" lon="4.58962">
        <ele>225</ele>
        <time>2022-05-17T14:26:13.550Z</time>
      </trkpt>
      <trkpt lat="49.87831" lon="4.58962">
        <ele>225</ele>
        <time>2022-05-17T14:26:14.554Z</time>
      </trkpt>
      <trkpt lat="49.87827" lon="4.58946">
        <ele>225</ele>
        <time>2022-05-17T14:26:15.535Z</time>
      </trkpt>
      <trkpt lat="49.87825" lon="4.58937">
        <ele>225</ele>
        <time>2022-05-17T14:26:16.535Z</time>
      </trkpt>
      <trkpt lat="49.87825" lon="4.58937">
        <ele>225</ele>
        <time>2022-05-17T14:26:17.540Z</time>
      </trkpt>
      <trkpt lat="49.87821" lon="4.5892">
        <ele>225</ele>
        <time>2022-05-17T14:26:18.545Z</time>
      </trkpt>
      <trkpt lat="49.87821" lon="4.5892">
        <ele>225</ele>
        <time>2022-05-17T14:26:19.550Z</time>
      </trkpt>
      <trkpt lat="49.87812" lon="4.58908">
        <ele>225</ele>
        <time>2022-05-17T14:26:20.539Z</time>
      </trkpt>
      <trkpt lat="49.87812" lon="4.58908">
        <ele>225</ele>
        <time>2022-05-17T14:26:21.554Z</time>
      </trkpt>
      <trkpt lat="49.87802" lon="4.58898">
        <ele>224</ele>
        <time>2022-05-17T14:26:22.535Z</time>
      </trkpt>
      <trkpt lat="49.87802" lon="4.58898">
        <ele>224</ele>
        <time>2022-05-17T14:26:23.540Z</time>
      </trkpt>
      <trkpt lat="49.87795" lon="4.58883">
        <ele>224</ele>
        <time>2022-05-17T14:26:24.562Z</time>
      </trkpt>
      <trkpt lat="49.87793" lon="4.58874">
        <ele>224</ele>
        <time>2022-05-17T14:26:25.542Z</time>
      </trkpt>
      <trkpt lat="49.87793" lon="4.58874">
        <ele>224</ele>
        <time>2022-05-17T14:26:26.547Z</time>
      </trkpt>
      <trkpt lat="49.87791" lon="4.58855">
        <ele>224</ele>
        <time>2022-05-17T14:26:27.542Z</time>
      </trkpt>
      <trkpt lat="49.8779" lon="4.58846">
        <ele>224</ele>
        <time>2022-05-17T14:26:28.545Z</time>
      </trkpt>
      <trkpt lat="49.8779" lon="4.58846">
        <ele>224</ele>
        <time>2022-05-17T14:26:29.551Z</time>
      </trkpt>
      <trkpt lat="49.87791" lon="4.58827">
        <ele>225</ele>
        <time>2022-05-17T14:26:30.563Z</time>
      </trkpt>
      <trkpt lat="49.87792" lon="4.58818">
        <ele>225</ele>
        <time>2022-05-17T14:26:31.525Z</time>
      </trkpt>
      <trkpt lat="49.87792" lon="4.58818">
        <ele>225</ele>
        <time>2022-05-17T14:26:32.530Z</time>
      </trkpt>
      <trkpt lat="49.87793" lon="4.58802">
        <ele>225</ele>
        <time>2022-05-17T14:26:33.560Z</time>
      </trkpt>
      <trkpt lat="49.87793" lon="4.58794">
        <ele>226</ele>
        <time>2022-05-17T14:26:34.554Z</time>
      </trkpt>
      <trkpt lat="49.87793" lon="4.58794">
        <ele>226</ele>
        <time>2022-05-17T14:26:35.560Z</time>
      </trkpt>
      <trkpt lat="49.87794" lon="4.58781">
        <ele>226</ele>
        <time>2022-05-17T14:26:36.545Z</time>
      </trkpt>
      <trkpt lat="49.87794" lon="4.58781">
        <ele>226</ele>
        <time>2022-05-17T14:26:37.550Z</time>
      </trkpt>
      <trkpt lat="49.8779" lon="4.58772">
        <ele>227</ele>
        <time>2022-05-17T14:26:38.554Z</time>
      </trkpt>
      <trkpt lat="49.8779" lon="4.58772">
        <ele>227</ele>
        <time>2022-05-17T14:26:39.559Z</time>
      </trkpt>
      <trkpt lat="49.87783" lon="4.58769">
        <ele>227</ele>
        <time>2022-05-17T14:26:40.533Z</time>
      </trkpt>
      <trkpt lat="49.87783" lon="4.58769">
        <ele>227</ele>
        <time>2022-05-17T14:26:41.539Z</time>
      </trkpt>
      <trkpt lat="49.87775" lon="4.58769">
        <ele>227</ele>
        <time>2022-05-17T14:26:42.539Z</time>
      </trkpt>
      <trkpt lat="49.87771" lon="4.58769">
        <ele>227</ele>
        <time>2022-05-17T14:26:43.547Z</time>
      </trkpt>
      <trkpt lat="49.87771" lon="4.58769">
        <ele>227</ele>
        <time>2022-05-17T14:26:44.552Z</time>
      </trkpt>
      <trkpt lat="49.87762" lon="4.58768">
        <ele>227</ele>
        <time>2022-05-17T14:26:45.545Z</time>
      </trkpt>
      <trkpt lat="49.87758" lon="4.58769">
        <ele>227</ele>
        <time>2022-05-17T14:26:46.544Z</time>
      </trkpt>
      <trkpt lat="49.87758" lon="4.58769">
        <ele>227</ele>
        <time>2022-05-17T14:26:47.549Z</time>
      </trkpt>
      <trkpt lat="49.87749" lon="4.58769">
        <ele>227</ele>
        <time>2022-05-17T14:26:48.562Z</time>
      </trkpt>
      <trkpt lat="49.87749" lon="4.58769">
        <ele>227</ele>
        <time>2022-05-17T14:26:49.534Z</time>
      </trkpt>
      <trkpt lat="49.87739" lon="4.58769">
        <ele>227</ele>
        <time>2022-05-17T14:26:50.550Z</time>
      </trkpt>
      <trkpt lat="49.87739" lon="4.58769">
        <ele>227</ele>
        <time>2022-05-17T14:26:51.555Z</time>
      </trkpt>
      <trkpt lat="49.87728" lon="4.58767">
        <ele>227</ele>
        <time>2022-05-17T14:26:52.556Z</time>
      </trkpt>
      <trkpt lat="49.87728" lon="4.58767">
        <ele>227</ele>
        <time>2022-05-17T14:26:53.561Z</time>
      </trkpt>
      <trkpt lat="49.87718" lon="4.58763">
        <ele>227</ele>
        <time>2022-05-17T14:26:54.555Z</time>
      </trkpt>
      <trkpt lat="49.87718" lon="4.58763">
        <ele>227</ele>
        <time>2022-05-17T14:26:55.560Z</time>
      </trkpt>
      <trkpt lat="49.87708" lon="4.58758">
        <ele>227</ele>
        <time>2022-05-17T14:26:56.555Z</time>
      </trkpt>
      <trkpt lat="49.87708" lon="4.58758">
        <ele>227</ele>
        <time>2022-05-17T14:26:57.560Z</time>
      </trkpt>
      <trkpt lat="49.877" lon="4.58751">
        <ele>227</ele>
        <time>2022-05-17T14:26:58.562Z</time>
      </trkpt>
      <trkpt lat="49.877" lon="4.58751">
        <ele>227</ele>
        <time>2022-05-17T14:26:59.532Z</time>
      </trkpt>
      <trkpt lat="49.87693" lon="4.58743">
        <ele>227</ele>
        <time>2022-05-17T14:27:00.544Z</time>
      </trkpt>
      <trkpt lat="49.87693" lon="4.58743">
        <ele>227</ele>
        <time>2022-05-17T14:27:01.549Z</time>
      </trkpt>
      <trkpt lat="49.87687" lon="4.58736">
        <ele>227</ele>
        <time>2022-05-17T14:27:02.545Z</time>
      </trkpt>
      <trkpt lat="49.87687" lon="4.58736">
        <ele>227</ele>
        <time>2022-05-17T14:27:03.557Z</time>
      </trkpt>
      <trkpt lat="49.87681" lon="4.58729">
        <ele>228</ele>
        <time>2022-05-17T14:27:04.550Z</time>
      </trkpt>
      <trkpt lat="49.87679" lon="4.58726">
        <ele>228</ele>
        <time>2022-05-17T14:27:05.535Z</time>
      </trkpt>
      <trkpt lat="49.87679" lon="4.58726">
        <ele>228</ele>
        <time>2022-05-17T14:27:06.540Z</time>
      </trkpt>
      <trkpt lat="49.87674" lon="4.5872">
        <ele>228</ele>
        <time>2022-05-17T14:27:07.545Z</time>
      </trkpt>
      <trkpt lat="49.87674" lon="4.5872">
        <ele>228</ele>
        <time>2022-05-17T14:27:08.550Z</time>
      </trkpt>
      <trkpt lat="49.8767" lon="4.58713">
        <ele>228</ele>
        <time>2022-05-17T14:27:09.562Z</time>
      </trkpt>
      <trkpt lat="49.8767" lon="4.58713">
        <ele>228</ele>
        <time>2022-05-17T14:27:10.535Z</time>
      </trkpt>
      <trkpt lat="49.87666" lon="4.58707">
        <ele>229</ele>
        <time>2022-05-17T14:27:11.535Z</time>
      </trkpt>
      <trkpt lat="49.87664" lon="4.58705">
        <ele>229</ele>
        <time>2022-05-17T14:27:12.563Z</time>
      </trkpt>
      <trkpt lat="49.87664" lon="4.58705">
        <ele>229</ele>
        <time>2022-05-17T14:27:13.534Z</time>
      </trkpt>
      <trkpt lat="49.87661" lon="4.587">
        <ele>230</ele>
        <time>2022-05-17T14:27:14.528Z</time>
      </trkpt>
      <trkpt lat="49.8766" lon="4.58697">
        <ele>230</ele>
        <time>2022-05-17T14:27:15.540Z</time>
      </trkpt>
      <trkpt lat="49.8766" lon="4.58697">
        <ele>230</ele>
        <time>2022-05-17T14:27:16.545Z</time>
      </trkpt>
      <trkpt lat="49.87657" lon="4.58689">
        <ele>231</ele>
        <time>2022-05-17T14:27:17.549Z</time>
      </trkpt>
      <trkpt lat="49.87656" lon="4.58686">
        <ele>232</ele>
        <time>2022-05-17T14:27:18.544Z</time>
      </trkpt>
      <trkpt lat="49.87654" lon="4.58682">
        <ele>232</ele>
        <time>2022-05-17T14:27:19.535Z</time>
      </trkpt>
      <trkpt lat="49.87654" lon="4.58682">
        <ele>232</ele>
        <time>2022-05-17T14:27:20.542Z</time>
      </trkpt>
      <trkpt lat="49.87651" lon="4.58674">
        <ele>233</ele>
        <time>2022-05-17T14:27:21.546Z</time>
      </trkpt>
      <trkpt lat="49.8765" lon="4.58671">
        <ele>233</ele>
        <time>2022-05-17T14:27:22.555Z</time>
      </trkpt>
      <trkpt lat="49.8765" lon="4.58671">
        <ele>233</ele>
        <time>2022-05-17T14:27:23.560Z</time>
      </trkpt>
      <trkpt lat="49.87646" lon="4.58663">
        <ele>233</ele>
        <time>2022-05-17T14:27:24.531Z</time>
      </trkpt>
      <trkpt lat="49.87646" lon="4.58663">
        <ele>233</ele>
        <time>2022-05-17T14:27:25.537Z</time>
      </trkpt>
      <trkpt lat="49.87643" lon="4.58659">
        <ele>234</ele>
        <time>2022-05-17T14:27:26.550Z</time>
      </trkpt>
      <trkpt lat="49.87643" lon="4.58659">
        <ele>234</ele>
        <time>2022-05-17T14:27:27.555Z</time>
      </trkpt>
      <trkpt lat="49.87638" lon="4.5865">
        <ele>234</ele>
        <time>2022-05-17T14:27:28.563Z</time>
      </trkpt>
      <trkpt lat="49.87638" lon="4.5865">
        <ele>234</ele>
        <time>2022-05-17T14:27:29.529Z</time>
      </trkpt>
      <trkpt lat="49.87634" lon="4.58645">
        <ele>235</ele>
        <time>2022-05-17T14:27:30.565Z</time>
      </trkpt>
      <trkpt lat="49.87634" lon="4.58645">
        <ele>235</ele>
        <time>2022-05-17T14:27:31.539Z</time>
      </trkpt>
      <trkpt lat="49.87628" lon="4.5864">
        <ele>236</ele>
        <time>2022-05-17T14:27:32.526Z</time>
      </trkpt>
      <trkpt lat="49.87628" lon="4.5864">
        <ele>236</ele>
        <time>2022-05-17T14:27:33.532Z</time>
      </trkpt>
      <trkpt lat="49.87623" lon="4.58637">
        <ele>237</ele>
        <time>2022-05-17T14:27:34.555Z</time>
      </trkpt>
      <trkpt lat="49.87623" lon="4.58637">
        <ele>237</ele>
        <time>2022-05-17T14:27:35.560Z</time>
      </trkpt>
      <trkpt lat="49.87618" lon="4.58635">
        <ele>238</ele>
        <time>2022-05-17T14:27:36.525Z</time>
      </trkpt>
      <trkpt lat="49.87615" lon="4.58634">
        <ele>238</ele>
        <time>2022-05-17T14:27:37.525Z</time>
      </trkpt>
      <trkpt lat="49.87615" lon="4.58634">
        <ele>238</ele>
        <time>2022-05-17T14:27:38.535Z</time>
      </trkpt>
      <trkpt lat="49.87611" lon="4.58631">
        <ele>239</ele>
        <time>2022-05-17T14:27:39.548Z</time>
      </trkpt>
      <trkpt lat="49.87607" lon="4.58631">
        <ele>239</ele>
        <time>2022-05-17T14:27:40.525Z</time>
      </trkpt>
      <trkpt lat="49.87607" lon="4.58631">
        <ele>239</ele>
        <time>2022-05-17T14:27:41.534Z</time>
      </trkpt>
      <trkpt lat="49.87603" lon="4.58631">
        <ele>240</ele>
        <time>2022-05-17T14:27:42.534Z</time>
      </trkpt>
      <trkpt lat="49.87601" lon="4.5863">
        <ele>240</ele>
        <time>2022-05-17T14:27:43.525Z</time>
      </trkpt>
      <trkpt lat="49.87601" lon="4.5863">
        <ele>240</ele>
        <time>2022-05-17T14:27:44.531Z</time>
      </trkpt>
      <trkpt lat="49.87595" lon="4.58629">
        <ele>241</ele>
        <time>2022-05-17T14:27:45.532Z</time>
      </trkpt>
      <trkpt lat="49.87592" lon="4.58628">
        <ele>241</ele>
        <time>2022-05-17T14:27:46.534Z</time>
      </trkpt>
      <trkpt lat="49.87592" lon="4.58628">
        <ele>241</ele>
        <time>2022-05-17T14:27:47.539Z</time>
      </trkpt>
      <trkpt lat="49.87586" lon="4.58628">
        <ele>242</ele>
        <time>2022-05-17T14:27:48.539Z</time>
      </trkpt>
      <trkpt lat="49.87583" lon="4.58628">
        <ele>243</ele>
        <time>2022-05-17T14:27:49.545Z</time>
      </trkpt>
      <trkpt lat="49.87583" lon="4.58628">
        <ele>243</ele>
        <time>2022-05-17T14:27:50.531Z</time>
      </trkpt>
      <trkpt lat="49.87577" lon="4.58626">
        <ele>243</ele>
        <time>2022-05-17T14:27:51.535Z</time>
      </trkpt>
      <trkpt lat="49.87577" lon="4.58626">
        <ele>243</ele>
        <time>2022-05-17T14:27:52.540Z</time>
      </trkpt>
      <trkpt lat="49.87571" lon="4.58624">
        <ele>244</ele>
        <time>2022-05-17T14:27:53.558Z</time>
      </trkpt>
      <trkpt lat="49.87568" lon="4.58623">
        <ele>244</ele>
        <time>2022-05-17T14:27:54.529Z</time>
      </trkpt>
      <trkpt lat="49.87564" lon="4.58623">
        <ele>244</ele>
        <time>2022-05-17T14:27:55.535Z</time>
      </trkpt>
      <trkpt lat="49.87564" lon="4.58623">
        <ele>244</ele>
        <time>2022-05-17T14:27:56.540Z</time>
      </trkpt>
      <trkpt lat="49.87557" lon="4.58624">
        <ele>246</ele>
        <time>2022-05-17T14:27:57.555Z</time>
      </trkpt>
      <trkpt lat="49.87557" lon="4.58624">
        <ele>246</ele>
        <time>2022-05-17T14:27:58.561Z</time>
      </trkpt>
      <trkpt lat="49.87546" lon="4.58625">
        <ele>247</ele>
        <time>2022-05-17T14:27:59.558Z</time>
      </trkpt>
      <trkpt lat="49.87546" lon="4.58625">
        <ele>247</ele>
        <time>2022-05-17T14:28:00.537Z</time>
      </trkpt>
      <trkpt lat="49.87539" lon="4.58624">
        <ele>248</ele>
        <time>2022-05-17T14:28:01.547Z</time>
      </trkpt>
      <trkpt lat="49.87539" lon="4.58624">
        <ele>248</ele>
        <time>2022-05-17T14:28:02.563Z</time>
      </trkpt>
      <trkpt lat="49.87534" lon="4.58621">
        <ele>249</ele>
        <time>2022-05-17T14:28:03.548Z</time>
      </trkpt>
      <trkpt lat="49.87534" lon="4.58621">
        <ele>249</ele>
        <time>2022-05-17T14:28:04.553Z</time>
      </trkpt>
      <trkpt lat="49.87528" lon="4.58617">
        <ele>250</ele>
        <time>2022-05-17T14:28:05.535Z</time>
      </trkpt>
      <trkpt lat="49.87528" lon="4.58617">
        <ele>250</ele>
        <time>2022-05-17T14:28:06.540Z</time>
      </trkpt>
      <trkpt lat="49.87521" lon="4.58617">
        <ele>251</ele>
        <time>2022-05-17T14:28:07.545Z</time>
      </trkpt>
      <trkpt lat="49.87521" lon="4.58617">
        <ele>251</ele>
        <time>2022-05-17T14:28:08.550Z</time>
      </trkpt>
      <trkpt lat="49.87513" lon="4.5862">
        <ele>252</ele>
        <time>2022-05-17T14:28:09.542Z</time>
      </trkpt>
      <trkpt lat="49.87513" lon="4.5862">
        <ele>252</ele>
        <time>2022-05-17T14:28:10.555Z</time>
      </trkpt>
      <trkpt lat="49.87506" lon="4.5862">
        <ele>254</ele>
        <time>2022-05-17T14:28:11.549Z</time>
      </trkpt>
      <trkpt lat="49.87502" lon="4.58621">
        <ele>255</ele>
        <time>2022-05-17T14:28:12.525Z</time>
      </trkpt>
      <trkpt lat="49.87498" lon="4.58621">
        <ele>255</ele>
        <time>2022-05-17T14:28:13.533Z</time>
      </trkpt>
      <trkpt lat="49.87498" lon="4.58621">
        <ele>255</ele>
        <time>2022-05-17T14:28:14.538Z</time>
      </trkpt>
      <trkpt lat="49.87489" lon="4.58624">
        <ele>257</ele>
        <time>2022-05-17T14:28:15.553Z</time>
      </trkpt>
      <trkpt lat="49.87483" lon="4.58626">
        <ele>257</ele>
        <time>2022-05-17T14:28:16.542Z</time>
      </trkpt>
      <trkpt lat="49.87483" lon="4.58626">
        <ele>257</ele>
        <time>2022-05-17T14:28:17.547Z</time>
      </trkpt>
      <trkpt lat="49.87472" lon="4.58629">
        <ele>259</ele>
        <time>2022-05-17T14:28:18.555Z</time>
      </trkpt>
      <trkpt lat="49.87472" lon="4.58629">
        <ele>259</ele>
        <time>2022-05-17T14:28:19.560Z</time>
      </trkpt>
      <trkpt lat="49.87462" lon="4.58631">
        <ele>260</ele>
        <time>2022-05-17T14:28:20.525Z</time>
      </trkpt>
      <trkpt lat="49.87462" lon="4.58631">
        <ele>260</ele>
        <time>2022-05-17T14:28:21.543Z</time>
      </trkpt>
      <trkpt lat="49.87452" lon="4.58633">
        <ele>261</ele>
        <time>2022-05-17T14:28:22.545Z</time>
      </trkpt>
      <trkpt lat="49.87452" lon="4.58633">
        <ele>261</ele>
        <time>2022-05-17T14:28:23.551Z</time>
      </trkpt>
      <trkpt lat="49.87442" lon="4.58634">
        <ele>262</ele>
        <time>2022-05-17T14:28:24.546Z</time>
      </trkpt>
      <trkpt lat="49.87442" lon="4.58634">
        <ele>262</ele>
        <time>2022-05-17T14:28:25.551Z</time>
      </trkpt>
      <trkpt lat="49.87433" lon="4.58637">
        <ele>263</ele>
        <time>2022-05-17T14:28:26.548Z</time>
      </trkpt>
      <trkpt lat="49.87433" lon="4.58637">
        <ele>263</ele>
        <time>2022-05-17T14:28:27.553Z</time>
      </trkpt>
      <trkpt lat="49.87426" lon="4.5864">
        <ele>264</ele>
        <time>2022-05-17T14:28:28.557Z</time>
      </trkpt>
      <trkpt lat="49.87426" lon="4.5864">
        <ele>264</ele>
        <time>2022-05-17T14:28:29.562Z</time>
      </trkpt>
      <trkpt lat="49.87419" lon="4.58639">
        <ele>264</ele>
        <time>2022-05-17T14:28:30.545Z</time>
      </trkpt>
      <trkpt lat="49.87416" lon="4.58641">
        <ele>264</ele>
        <time>2022-05-17T14:28:31.545Z</time>
      </trkpt>
      <trkpt lat="49.87416" lon="4.58641">
        <ele>264</ele>
        <time>2022-05-17T14:28:32.550Z</time>
      </trkpt>
      <trkpt lat="49.87408" lon="4.58643">
        <ele>265</ele>
        <time>2022-05-17T14:28:33.545Z</time>
      </trkpt>
      <trkpt lat="49.87408" lon="4.58643">
        <ele>265</ele>
        <time>2022-05-17T14:28:34.550Z</time>
      </trkpt>
      <trkpt lat="49.87401" lon="4.58645">
        <ele>266</ele>
        <time>2022-05-17T14:28:35.565Z</time>
      </trkpt>
      <trkpt lat="49.87401" lon="4.58645">
        <ele>266</ele>
        <time>2022-05-17T14:28:36.536Z</time>
      </trkpt>
      <trkpt lat="49.87392" lon="4.58647">
        <ele>267</ele>
        <time>2022-05-17T14:28:37.548Z</time>
      </trkpt>
      <trkpt lat="49.87392" lon="4.58647">
        <ele>267</ele>
        <time>2022-05-17T14:28:38.553Z</time>
      </trkpt>
      <trkpt lat="49.87381" lon="4.58648">
        <ele>266</ele>
        <time>2022-05-17T14:28:39.540Z</time>
      </trkpt>
      <trkpt lat="49.87381" lon="4.58648">
        <ele>266</ele>
        <time>2022-05-17T14:28:40.545Z</time>
      </trkpt>
      <trkpt lat="49.87374" lon="4.58649">
        <ele>267</ele>
        <time>2022-05-17T14:28:41.534Z</time>
      </trkpt>
      <trkpt lat="49.8737" lon="4.58649">
        <ele>268</ele>
        <time>2022-05-17T14:28:42.552Z</time>
      </trkpt>
      <trkpt lat="49.87366" lon="4.5865">
        <ele>268</ele>
        <time>2022-05-17T14:28:43.545Z</time>
      </trkpt>
      <trkpt lat="49.87366" lon="4.5865">
        <ele>268</ele>
        <time>2022-05-17T14:28:44.550Z</time>
      </trkpt>
      <trkpt lat="49.87358" lon="4.58652">
        <ele>269</ele>
        <time>2022-05-17T14:28:45.524Z</time>
      </trkpt>
      <trkpt lat="49.87358" lon="4.58652">
        <ele>269</ele>
        <time>2022-05-17T14:28:46.534Z</time>
      </trkpt>
      <trkpt lat="49.87352" lon="4.58653">
        <ele>270</ele>
        <time>2022-05-17T14:28:47.535Z</time>
      </trkpt>
      <trkpt lat="49.87349" lon="4.58652">
        <ele>271</ele>
        <time>2022-05-17T14:28:48.535Z</time>
      </trkpt>
      <trkpt lat="49.87349" lon="4.58652">
        <ele>271</ele>
        <time>2022-05-17T14:28:49.540Z</time>
      </trkpt>
      <trkpt lat="49.8734" lon="4.58654">
        <ele>271</ele>
        <time>2022-05-17T14:28:50.551Z</time>
      </trkpt>
      <trkpt lat="49.8734" lon="4.58654">
        <ele>271</ele>
        <time>2022-05-17T14:28:51.556Z</time>
      </trkpt>
      <trkpt lat="49.87332" lon="4.58655">
        <ele>272</ele>
        <time>2022-05-17T14:28:52.534Z</time>
      </trkpt>
      <trkpt lat="49.87332" lon="4.58655">
        <ele>272</ele>
        <time>2022-05-17T14:28:53.539Z</time>
      </trkpt>
      <trkpt lat="49.87325" lon="4.58656">
        <ele>273</ele>
        <time>2022-05-17T14:28:54.535Z</time>
      </trkpt>
      <trkpt lat="49.87325" lon="4.58656">
        <ele>273</ele>
        <time>2022-05-17T14:28:55.540Z</time>
      </trkpt>
      <trkpt lat="49.8732" lon="4.5866">
        <ele>274</ele>
        <time>2022-05-17T14:28:56.548Z</time>
      </trkpt>
      <trkpt lat="49.8732" lon="4.5866">
        <ele>274</ele>
        <time>2022-05-17T14:28:57.553Z</time>
      </trkpt>
      <trkpt lat="49.87313" lon="4.58667">
        <ele>276</ele>
        <time>2022-05-17T14:28:58.560Z</time>
      </trkpt>
      <trkpt lat="49.87309" lon="4.58671">
        <ele>276</ele>
        <time>2022-05-17T14:28:59.535Z</time>
      </trkpt>
      <trkpt lat="49.87303" lon="4.58676">
        <ele>276</ele>
        <time>2022-05-17T14:29:00.547Z</time>
      </trkpt>
      <trkpt lat="49.87298" lon="4.5868">
        <ele>277</ele>
        <time>2022-05-17T14:29:01.555Z</time>
      </trkpt>
      <trkpt lat="49.87298" lon="4.5868">
        <ele>277</ele>
        <time>2022-05-17T14:29:02.560Z</time>
      </trkpt>
      <trkpt lat="49.8729" lon="4.58688">
        <ele>278</ele>
        <time>2022-05-17T14:29:03.560Z</time>
      </trkpt>
      <trkpt lat="49.8729" lon="4.58688">
        <ele>278</ele>
        <time>2022-05-17T14:29:04.527Z</time>
      </trkpt>
      <trkpt lat="49.87281" lon="4.58694">
        <ele>279</ele>
        <time>2022-05-17T14:29:05.532Z</time>
      </trkpt>
      <trkpt lat="49.87277" lon="4.58698">
        <ele>279</ele>
        <time>2022-05-17T14:29:06.527Z</time>
      </trkpt>
      <trkpt lat="49.87277" lon="4.58698">
        <ele>279</ele>
        <time>2022-05-17T14:29:07.539Z</time>
      </trkpt>
      <trkpt lat="49.87267" lon="4.58705">
        <ele>280</ele>
        <time>2022-05-17T14:29:08.538Z</time>
      </trkpt>
      <trkpt lat="49.87267" lon="4.58705">
        <ele>280</ele>
        <time>2022-05-17T14:29:09.543Z</time>
      </trkpt>
      <trkpt lat="49.8726" lon="4.5871">
        <ele>280</ele>
        <time>2022-05-17T14:29:10.548Z</time>
      </trkpt>
      <trkpt lat="49.8726" lon="4.5871">
        <ele>280</ele>
        <time>2022-05-17T14:29:11.552Z</time>
      </trkpt>
      <trkpt lat="49.87252" lon="4.58713">
        <ele>281</ele>
        <time>2022-05-17T14:29:12.524Z</time>
      </trkpt>
      <trkpt lat="49.87252" lon="4.58713">
        <ele>281</ele>
        <time>2022-05-17T14:29:13.535Z</time>
      </trkpt>
      <trkpt lat="49.87244" lon="4.5872">
        <ele>281</ele>
        <time>2022-05-17T14:29:14.552Z</time>
      </trkpt>
      <trkpt lat="49.87244" lon="4.5872">
        <ele>281</ele>
        <time>2022-05-17T14:29:15.542Z</time>
      </trkpt>
      <trkpt lat="49.87237" lon="4.58729">
        <ele>281</ele>
        <time>2022-05-17T14:29:16.555Z</time>
      </trkpt>
      <trkpt lat="49.87233" lon="4.58734">
        <ele>282</ele>
        <time>2022-05-17T14:29:17.563Z</time>
      </trkpt>
      <trkpt lat="49.87233" lon="4.58734">
        <ele>282</ele>
        <time>2022-05-17T14:29:18.535Z</time>
      </trkpt>
      <trkpt lat="49.87225" lon="4.58742">
        <ele>282</ele>
        <time>2022-05-17T14:29:19.537Z</time>
      </trkpt>
      <trkpt lat="49.87225" lon="4.58742">
        <ele>282</ele>
        <time>2022-05-17T14:29:20.543Z</time>
      </trkpt>
      <trkpt lat="49.87217" lon="4.58752">
        <ele>282</ele>
        <time>2022-05-17T14:29:21.540Z</time>
      </trkpt>
      <trkpt lat="49.87214" lon="4.58757">
        <ele>282</ele>
        <time>2022-05-17T14:29:22.554Z</time>
      </trkpt>
      <trkpt lat="49.87214" lon="4.58757">
        <ele>282</ele>
        <time>2022-05-17T14:29:23.559Z</time>
      </trkpt>
      <trkpt lat="49.87205" lon="4.58767">
        <ele>281</ele>
        <time>2022-05-17T14:29:24.535Z</time>
      </trkpt>
      <trkpt lat="49.87201" lon="4.58771">
        <ele>281</ele>
        <time>2022-05-17T14:29:25.527Z</time>
      </trkpt>
      <trkpt lat="49.87201" lon="4.58771">
        <ele>281</ele>
        <time>2022-05-17T14:29:26.533Z</time>
      </trkpt>
      <trkpt lat="49.87193" lon="4.58775">
        <ele>281</ele>
        <time>2022-05-17T14:29:27.550Z</time>
      </trkpt>
      <trkpt lat="49.87189" lon="4.58778">
        <ele>281</ele>
        <time>2022-05-17T14:29:28.557Z</time>
      </trkpt>
      <trkpt lat="49.87189" lon="4.58778">
        <ele>281</ele>
        <time>2022-05-17T14:29:29.562Z</time>
      </trkpt>
      <trkpt lat="49.87183" lon="4.58783">
        <ele>281</ele>
        <time>2022-05-17T14:29:30.530Z</time>
      </trkpt>
      <trkpt lat="49.87183" lon="4.58783">
        <ele>281</ele>
        <time>2022-05-17T14:29:31.539Z</time>
      </trkpt>
      <trkpt lat="49.87177" lon="4.58788">
        <ele>282</ele>
        <time>2022-05-17T14:29:32.535Z</time>
      </trkpt>
      <trkpt lat="49.87177" lon="4.58788">
        <ele>282</ele>
        <time>2022-05-17T14:29:33.540Z</time>
      </trkpt>
      <trkpt lat="49.87171" lon="4.58795">
        <ele>282</ele>
        <time>2022-05-17T14:29:34.543Z</time>
      </trkpt>
      <trkpt lat="49.87171" lon="4.58795">
        <ele>282</ele>
        <time>2022-05-17T14:29:35.548Z</time>
      </trkpt>
      <trkpt lat="49.87164" lon="4.58805">
        <ele>283</ele>
        <time>2022-05-17T14:29:36.525Z</time>
      </trkpt>
      <trkpt lat="49.87159" lon="4.58813">
        <ele>283</ele>
        <time>2022-05-17T14:29:37.534Z</time>
      </trkpt>
      <trkpt lat="49.87159" lon="4.58813">
        <ele>283</ele>
        <time>2022-05-17T14:29:38.539Z</time>
      </trkpt>
      <trkpt lat="49.87148" lon="4.58825">
        <ele>283</ele>
        <time>2022-05-17T14:29:39.528Z</time>
      </trkpt>
      <trkpt lat="49.87148" lon="4.58825">
        <ele>283</ele>
        <time>2022-05-17T14:29:40.534Z</time>
      </trkpt>
      <trkpt lat="49.87141" lon="4.58835">
        <ele>283</ele>
        <time>2022-05-17T14:29:41.524Z</time>
      </trkpt>
      <trkpt lat="49.87141" lon="4.58835">
        <ele>283</ele>
        <time>2022-05-17T14:29:42.533Z</time>
      </trkpt>
      <trkpt lat="49.87135" lon="4.58846">
        <ele>283</ele>
        <time>2022-05-17T14:29:43.545Z</time>
      </trkpt>
      <trkpt lat="49.87135" lon="4.58846">
        <ele>283</ele>
        <time>2022-05-17T14:29:44.551Z</time>
      </trkpt>
      <trkpt lat="49.87129" lon="4.58858">
        <ele>283</ele>
        <time>2022-05-17T14:29:45.549Z</time>
      </trkpt>
      <trkpt lat="49.87129" lon="4.58858">
        <ele>283</ele>
        <time>2022-05-17T14:29:46.530Z</time>
      </trkpt>
      <trkpt lat="49.87122" lon="4.5887">
        <ele>283</ele>
        <time>2022-05-17T14:29:47.530Z</time>
      </trkpt>
      <trkpt lat="49.87122" lon="4.5887">
        <ele>283</ele>
        <time>2022-05-17T14:29:48.535Z</time>
      </trkpt>
      <trkpt lat="49.87115" lon="4.58883">
        <ele>283</ele>
        <time>2022-05-17T14:29:49.562Z</time>
      </trkpt>
      <trkpt lat="49.87115" lon="4.58883">
        <ele>283</ele>
        <time>2022-05-17T14:29:50.536Z</time>
      </trkpt>
      <trkpt lat="49.8711" lon="4.58894">
        <ele>284</ele>
        <time>2022-05-17T14:29:51.539Z</time>
      </trkpt>
      <trkpt lat="49.8711" lon="4.58894">
        <ele>284</ele>
        <time>2022-05-17T14:29:52.544Z</time>
      </trkpt>
      <trkpt lat="49.87102" lon="4.58906">
        <ele>283</ele>
        <time>2022-05-17T14:29:53.543Z</time>
      </trkpt>
      <trkpt lat="49.87102" lon="4.58906">
        <ele>283</ele>
        <time>2022-05-17T14:29:54.548Z</time>
      </trkpt>
      <trkpt lat="49.87095" lon="4.58917">
        <ele>283</ele>
        <time>2022-05-17T14:29:55.545Z</time>
      </trkpt>
      <trkpt lat="49.87095" lon="4.58917">
        <ele>283</ele>
        <time>2022-05-17T14:29:56.550Z</time>
      </trkpt>
      <trkpt lat="49.8709" lon="4.58926">
        <ele>283</ele>
        <time>2022-05-17T14:29:57.555Z</time>
      </trkpt>
      <trkpt lat="49.87087" lon="4.58932">
        <ele>283</ele>
        <time>2022-05-17T14:29:58.538Z</time>
      </trkpt>
      <trkpt lat="49.87087" lon="4.58932">
        <ele>283</ele>
        <time>2022-05-17T14:29:59.543Z</time>
      </trkpt>
      <trkpt lat="49.87079" lon="4.5894">
        <ele>284</ele>
        <time>2022-05-17T14:30:00.549Z</time>
      </trkpt>
      <trkpt lat="49.87079" lon="4.5894">
        <ele>284</ele>
        <time>2022-05-17T14:30:01.555Z</time>
      </trkpt>
      <trkpt lat="49.8707" lon="4.58952">
        <ele>283</ele>
        <time>2022-05-17T14:30:02.554Z</time>
      </trkpt>
      <trkpt lat="49.87066" lon="4.58955">
        <ele>283</ele>
        <time>2022-05-17T14:30:03.542Z</time>
      </trkpt>
      <trkpt lat="49.87066" lon="4.58955">
        <ele>283</ele>
        <time>2022-05-17T14:30:04.547Z</time>
      </trkpt>
      <trkpt lat="49.87057" lon="4.58965">
        <ele>283</ele>
        <time>2022-05-17T14:30:05.540Z</time>
      </trkpt>
      <trkpt lat="49.87057" lon="4.58965">
        <ele>283</ele>
        <time>2022-05-17T14:30:06.545Z</time>
      </trkpt>
      <trkpt lat="49.87051" lon="4.58975">
        <ele>283</ele>
        <time>2022-05-17T14:30:07.525Z</time>
      </trkpt>
      <trkpt lat="49.87051" lon="4.58975">
        <ele>283</ele>
        <time>2022-05-17T14:30:08.544Z</time>
      </trkpt>
      <trkpt lat="49.87044" lon="4.58983">
        <ele>283</ele>
        <time>2022-05-17T14:30:09.547Z</time>
      </trkpt>
      <trkpt lat="49.87041" lon="4.58987">
        <ele>283</ele>
        <time>2022-05-17T14:30:10.532Z</time>
      </trkpt>
      <trkpt lat="49.87041" lon="4.58987">
        <ele>283</ele>
        <time>2022-05-17T14:30:11.539Z</time>
      </trkpt>
      <trkpt lat="49.87034" lon="4.58997">
        <ele>283</ele>
        <time>2022-05-17T14:30:12.529Z</time>
      </trkpt>
      <trkpt lat="49.87029" lon="4.59002">
        <ele>283</ele>
        <time>2022-05-17T14:30:13.559Z</time>
      </trkpt>
      <trkpt lat="49.87029" lon="4.59002">
        <ele>283</ele>
        <time>2022-05-17T14:30:14.525Z</time>
      </trkpt>
      <trkpt lat="49.87021" lon="4.59012">
        <ele>281</ele>
        <time>2022-05-17T14:30:15.545Z</time>
      </trkpt>
      <trkpt lat="49.87016" lon="4.59016">
        <ele>279</ele>
        <time>2022-05-17T14:30:16.549Z</time>
      </trkpt>
      <trkpt lat="49.87016" lon="4.59016">
        <ele>279</ele>
        <time>2022-05-17T14:30:17.555Z</time>
      </trkpt>
      <trkpt lat="49.87008" lon="4.59023">
        <ele>278</ele>
        <time>2022-05-17T14:30:18.542Z</time>
      </trkpt>
      <trkpt lat="49.87008" lon="4.59023">
        <ele>278</ele>
        <time>2022-05-17T14:30:19.547Z</time>
      </trkpt>
      <trkpt lat="49.87001" lon="4.59029">
        <ele>277</ele>
        <time>2022-05-17T14:30:20.540Z</time>
      </trkpt>
      <trkpt lat="49.87001" lon="4.59029">
        <ele>277</ele>
        <time>2022-05-17T14:30:21.543Z</time>
      </trkpt>
      <trkpt lat="49.86994" lon="4.59034">
        <ele>275</ele>
        <time>2022-05-17T14:30:22.549Z</time>
      </trkpt>
      <trkpt lat="49.86989" lon="4.59036">
        <ele>274</ele>
        <time>2022-05-17T14:30:23.552Z</time>
      </trkpt>
      <trkpt lat="49.86989" lon="4.59036">
        <ele>274</ele>
        <time>2022-05-17T14:30:24.557Z</time>
      </trkpt>
      <trkpt lat="49.86981" lon="4.59041">
        <ele>272</ele>
        <time>2022-05-17T14:30:25.545Z</time>
      </trkpt>
      <trkpt lat="49.86981" lon="4.59041">
        <ele>272</ele>
        <time>2022-05-17T14:30:26.550Z</time>
      </trkpt>
      <trkpt lat="49.86973" lon="4.59043">
        <ele>272</ele>
        <time>2022-05-17T14:30:27.547Z</time>
      </trkpt>
      <trkpt lat="49.86973" lon="4.59043">
        <ele>272</ele>
        <time>2022-05-17T14:30:28.552Z</time>
      </trkpt>
      <trkpt lat="49.86966" lon="4.59044">
        <ele>271</ele>
        <time>2022-05-17T14:30:29.546Z</time>
      </trkpt>
      <trkpt lat="49.86963" lon="4.59044">
        <ele>270</ele>
        <time>2022-05-17T14:30:30.543Z</time>
      </trkpt>
      <trkpt lat="49.86961" lon="4.59043">
        <ele>270</ele>
        <time>2022-05-17T14:30:31.541Z</time>
      </trkpt>
      <trkpt lat="49.86961" lon="4.59043">
        <ele>270</ele>
        <time>2022-05-17T14:30:32.547Z</time>
      </trkpt>
      <trkpt lat="49.8695" lon="4.59043">
        <ele>267</ele>
        <time>2022-05-17T14:30:33.545Z</time>
      </trkpt>
      <trkpt lat="49.86947" lon="4.59042">
        <ele>267</ele>
        <time>2022-05-17T14:30:34.533Z</time>
      </trkpt>
      <trkpt lat="49.86947" lon="4.59042">
        <ele>267</ele>
        <time>2022-05-17T14:30:35.538Z</time>
      </trkpt>
      <trkpt lat="49.8694" lon="4.59036">
        <ele>266</ele>
        <time>2022-05-17T14:30:36.525Z</time>
      </trkpt>
      <trkpt lat="49.86937" lon="4.59033">
        <ele>265</ele>
        <time>2022-05-17T14:30:37.561Z</time>
      </trkpt>
      <trkpt lat="49.86937" lon="4.59033">
        <ele>265</ele>
        <time>2022-05-17T14:30:38.535Z</time>
      </trkpt>
      <trkpt lat="49.86933" lon="4.59026">
        <ele>264</ele>
        <time>2022-05-17T14:30:39.540Z</time>
      </trkpt>
      <trkpt lat="49.86933" lon="4.59026">
        <ele>264</ele>
        <time>2022-05-17T14:30:40.545Z</time>
      </trkpt>
      <trkpt lat="49.86928" lon="4.5902">
        <ele>263</ele>
        <time>2022-05-17T14:30:41.565Z</time>
      </trkpt>
      <trkpt lat="49.86928" lon="4.5902">
        <ele>263</ele>
        <time>2022-05-17T14:30:42.543Z</time>
      </trkpt>
      <trkpt lat="49.86922" lon="4.59014">
        <ele>263</ele>
        <time>2022-05-17T14:30:43.548Z</time>
      </trkpt>
      <trkpt lat="49.8692" lon="4.59012">
        <ele>262</ele>
        <time>2022-05-17T14:30:44.555Z</time>
      </trkpt>
      <trkpt lat="49.86918" lon="4.59008">
        <ele>262</ele>
        <time>2022-05-17T14:30:45.548Z</time>
      </trkpt>
      <trkpt lat="49.86918" lon="4.59008">
        <ele>262</ele>
        <time>2022-05-17T14:30:46.553Z</time>
      </trkpt>
      <trkpt lat="49.86913" lon="4.59001">
        <ele>261</ele>
        <time>2022-05-17T14:30:47.535Z</time>
      </trkpt>
      <trkpt lat="49.86911" lon="4.58997">
        <ele>260</ele>
        <time>2022-05-17T14:30:48.551Z</time>
      </trkpt>
      <trkpt lat="49.86911" lon="4.58997">
        <ele>260</ele>
        <time>2022-05-17T14:30:49.563Z</time>
      </trkpt>
      <trkpt lat="49.86905" lon="4.58989">
        <ele>259</ele>
        <time>2022-05-17T14:30:50.536Z</time>
      </trkpt>
      <trkpt lat="49.86905" lon="4.58989">
        <ele>259</ele>
        <time>2022-05-17T14:30:51.541Z</time>
      </trkpt>
      <trkpt lat="49.86898" lon="4.58978">
        <ele>258</ele>
        <time>2022-05-17T14:30:52.541Z</time>
      </trkpt>
      <trkpt lat="49.86898" lon="4.58978">
        <ele>258</ele>
        <time>2022-05-17T14:30:53.546Z</time>
      </trkpt>
      <trkpt lat="49.86892" lon="4.58966">
        <ele>258</ele>
        <time>2022-05-17T14:30:54.545Z</time>
      </trkpt>
      <trkpt lat="49.86889" lon="4.58959">
        <ele>257</ele>
        <time>2022-05-17T14:30:55.534Z</time>
      </trkpt>
      <trkpt lat="49.86889" lon="4.58959">
        <ele>257</ele>
        <time>2022-05-17T14:30:56.539Z</time>
      </trkpt>
      <trkpt lat="49.86885" lon="4.5894">
        <ele>255</ele>
        <time>2022-05-17T14:30:57.561Z</time>
      </trkpt>
      <trkpt lat="49.86885" lon="4.5894">
        <ele>255</ele>
        <time>2022-05-17T14:30:58.529Z</time>
      </trkpt>
      <trkpt lat="49.86882" lon="4.58923">
        <ele>254</ele>
        <time>2022-05-17T14:30:59.525Z</time>
      </trkpt>
      <trkpt lat="49.86882" lon="4.58923">
        <ele>254</ele>
        <time>2022-05-17T14:31:00.535Z</time>
      </trkpt>
      <trkpt lat="49.8688" lon="4.58905">
        <ele>253</ele>
        <time>2022-05-17T14:31:01.525Z</time>
      </trkpt>
      <trkpt lat="49.8688" lon="4.58905">
        <ele>253</ele>
        <time>2022-05-17T14:31:02.534Z</time>
      </trkpt>
      <trkpt lat="49.86878" lon="4.58889">
        <ele>252</ele>
        <time>2022-05-17T14:31:03.562Z</time>
      </trkpt>
      <trkpt lat="49.86876" lon="4.58881">
        <ele>251</ele>
        <time>2022-05-17T14:31:04.535Z</time>
      </trkpt>
      <trkpt lat="49.86876" lon="4.58881">
        <ele>251</ele>
        <time>2022-05-17T14:31:05.544Z</time>
      </trkpt>
      <trkpt lat="49.86872" lon="4.58864">
        <ele>250</ele>
        <time>2022-05-17T14:31:06.558Z</time>
      </trkpt>
      <trkpt lat="49.86872" lon="4.58864">
        <ele>250</ele>
        <time>2022-05-17T14:31:07.563Z</time>
      </trkpt>
      <trkpt lat="49.8687" lon="4.58851">
        <ele>250</ele>
        <time>2022-05-17T14:31:08.529Z</time>
      </trkpt>
      <trkpt lat="49.8687" lon="4.58844">
        <ele>249</ele>
        <time>2022-05-17T14:31:09.531Z</time>
      </trkpt>
      <trkpt lat="49.86869" lon="4.58837">
        <ele>249</ele>
        <time>2022-05-17T14:31:10.525Z</time>
      </trkpt>
      <trkpt lat="49.86869" lon="4.58837">
        <ele>249</ele>
        <time>2022-05-17T14:31:11.533Z</time>
      </trkpt>
      <trkpt lat="49.86866" lon="4.58823">
        <ele>248</ele>
        <time>2022-05-17T14:31:12.525Z</time>
      </trkpt>
      <trkpt lat="49.86865" lon="4.58816">
        <ele>248</ele>
        <time>2022-05-17T14:31:13.559Z</time>
      </trkpt>
      <trkpt lat="49.86865" lon="4.58816">
        <ele>248</ele>
        <time>2022-05-17T14:31:14.524Z</time>
      </trkpt>
      <trkpt lat="49.86863" lon="4.58803">
        <ele>248</ele>
        <time>2022-05-17T14:31:15.528Z</time>
      </trkpt>
      <trkpt lat="49.86863" lon="4.58803">
        <ele>248</ele>
        <time>2022-05-17T14:31:16.535Z</time>
      </trkpt>
      <trkpt lat="49.8686" lon="4.58791">
        <ele>248</ele>
        <time>2022-05-17T14:31:17.528Z</time>
      </trkpt>
      <trkpt lat="49.8686" lon="4.58791">
        <ele>248</ele>
        <time>2022-05-17T14:31:18.538Z</time>
      </trkpt>
      <trkpt lat="49.86857" lon="4.58777">
        <ele>247</ele>
        <time>2022-05-17T14:31:19.556Z</time>
      </trkpt>
      <trkpt lat="49.86857" lon="4.58777">
        <ele>247</ele>
        <time>2022-05-17T14:31:20.536Z</time>
      </trkpt>
      <trkpt lat="49.86854" lon="4.58763">
        <ele>247</ele>
        <time>2022-05-17T14:31:21.548Z</time>
      </trkpt>
      <trkpt lat="49.86854" lon="4.58756">
        <ele>247</ele>
        <time>2022-05-17T14:31:22.542Z</time>
      </trkpt>
      <trkpt lat="49.86854" lon="4.58756">
        <ele>247</ele>
        <time>2022-05-17T14:31:23.547Z</time>
      </trkpt>
      <trkpt lat="49.86852" lon="4.58741">
        <ele>246</ele>
        <time>2022-05-17T14:31:24.543Z</time>
      </trkpt>
      <trkpt lat="49.86852" lon="4.58741">
        <ele>246</ele>
        <time>2022-05-17T14:31:25.549Z</time>
      </trkpt>
      <trkpt lat="49.86848" lon="4.58726">
        <ele>246</ele>
        <time>2022-05-17T14:31:26.532Z</time>
      </trkpt>
      <trkpt lat="49.86848" lon="4.58726">
        <ele>246</ele>
        <time>2022-05-17T14:31:27.537Z</time>
      </trkpt>
      <trkpt lat="49.86844" lon="4.58711">
        <ele>245</ele>
        <time>2022-05-17T14:31:28.545Z</time>
      </trkpt>
      <trkpt lat="49.86844" lon="4.58711">
        <ele>245</ele>
        <time>2022-05-17T14:31:29.550Z</time>
      </trkpt>
      <trkpt lat="49.8684" lon="4.58698">
        <ele>245</ele>
        <time>2022-05-17T14:31:30.557Z</time>
      </trkpt>
      <trkpt lat="49.86838" lon="4.58692">
        <ele>244</ele>
        <time>2022-05-17T14:31:31.563Z</time>
      </trkpt>
      <trkpt lat="49.86838" lon="4.58692">
        <ele>244</ele>
        <time>2022-05-17T14:31:32.532Z</time>
      </trkpt>
      <trkpt lat="49.86835" lon="4.5868">
        <ele>244</ele>
        <time>2022-05-17T14:31:33.555Z</time>
      </trkpt>
      <trkpt lat="49.86835" lon="4.5868">
        <ele>244</ele>
        <time>2022-05-17T14:31:34.560Z</time>
      </trkpt>
      <trkpt lat="49.86831" lon="4.58663">
        <ele>244</ele>
        <time>2022-05-17T14:31:35.550Z</time>
      </trkpt>
      <trkpt lat="49.8683" lon="4.58655">
        <ele>243</ele>
        <time>2022-05-17T14:31:36.545Z</time>
      </trkpt>
      <trkpt lat="49.86829" lon="4.58646">
        <ele>243</ele>
        <time>2022-05-17T14:31:37.534Z</time>
      </trkpt>
      <trkpt lat="49.86829" lon="4.58646">
        <ele>243</ele>
        <time>2022-05-17T14:31:38.543Z</time>
      </trkpt>
      <trkpt lat="49.86828" lon="4.58633">
        <ele>243</ele>
        <time>2022-05-17T14:31:39.600Z</time>
      </trkpt>
      <trkpt lat="49.86828" lon="4.58633">
        <ele>243</ele>
        <time>2022-05-17T14:31:40.557Z</time>
      </trkpt>
      <trkpt lat="49.86826" lon="4.58621">
        <ele>242</ele>
        <time>2022-05-17T14:31:41.547Z</time>
      </trkpt>
      <trkpt lat="49.86826" lon="4.58615">
        <ele>242</ele>
        <time>2022-05-17T14:31:42.536Z</time>
      </trkpt>
      <trkpt lat="49.86826" lon="4.58615">
        <ele>242</ele>
        <time>2022-05-17T14:31:43.542Z</time>
      </trkpt>
      <trkpt lat="49.86824" lon="4.58603">
        <ele>242</ele>
        <time>2022-05-17T14:31:44.537Z</time>
      </trkpt>
      <trkpt lat="49.86823" lon="4.58597">
        <ele>241</ele>
        <time>2022-05-17T14:31:45.563Z</time>
      </trkpt>
      <trkpt lat="49.86823" lon="4.58597">
        <ele>241</ele>
        <time>2022-05-17T14:31:46.529Z</time>
      </trkpt>
      <trkpt lat="49.86823" lon="4.58585">
        <ele>241</ele>
        <time>2022-05-17T14:31:47.556Z</time>
      </trkpt>
      <trkpt lat="49.86822" lon="4.58579">
        <ele>241</ele>
        <time>2022-05-17T14:31:48.549Z</time>
      </trkpt>
      <trkpt lat="49.86823" lon="4.58573">
        <ele>240</ele>
        <time>2022-05-17T14:31:49.538Z</time>
      </trkpt>
      <trkpt lat="49.86823" lon="4.58573">
        <ele>240</ele>
        <time>2022-05-17T14:31:50.544Z</time>
      </trkpt>
      <trkpt lat="49.86821" lon="4.58562">
        <ele>240</ele>
        <time>2022-05-17T14:31:51.551Z</time>
      </trkpt>
      <trkpt lat="49.86821" lon="4.58562">
        <ele>240</ele>
        <time>2022-05-17T14:31:52.557Z</time>
      </trkpt>
      <trkpt lat="49.86819" lon="4.5855">
        <ele>240</ele>
        <time>2022-05-17T14:31:53.546Z</time>
      </trkpt>
      <trkpt lat="49.86819" lon="4.5855">
        <ele>240</ele>
        <time>2022-05-17T14:31:54.554Z</time>
      </trkpt>
      <trkpt lat="49.86816" lon="4.58539">
        <ele>240</ele>
        <time>2022-05-17T14:31:55.532Z</time>
      </trkpt>
      <trkpt lat="49.86816" lon="4.58539">
        <ele>240</ele>
        <time>2022-05-17T14:31:56.537Z</time>
      </trkpt>
      <trkpt lat="49.86814" lon="4.58529">
        <ele>240</ele>
        <time>2022-05-17T14:31:57.542Z</time>
      </trkpt>
      <trkpt lat="49.86812" lon="4.58524">
        <ele>240</ele>
        <time>2022-05-17T14:31:58.537Z</time>
      </trkpt>
      <trkpt lat="49.86812" lon="4.58524">
        <ele>240</ele>
        <time>2022-05-17T14:31:59.542Z</time>
      </trkpt>
      <trkpt lat="49.86809" lon="4.58514">
        <ele>240</ele>
        <time>2022-05-17T14:32:00.537Z</time>
      </trkpt>
      <trkpt lat="49.86809" lon="4.58514">
        <ele>240</ele>
        <time>2022-05-17T14:32:01.542Z</time>
      </trkpt>
      <trkpt lat="49.86805" lon="4.58504">
        <ele>240</ele>
        <time>2022-05-17T14:32:02.540Z</time>
      </trkpt>
      <trkpt lat="49.86803" lon="4.585">
        <ele>240</ele>
        <time>2022-05-17T14:32:03.536Z</time>
      </trkpt>
      <trkpt lat="49.86803" lon="4.585">
        <ele>240</ele>
        <time>2022-05-17T14:32:04.541Z</time>
      </trkpt>
      <trkpt lat="49.86799" lon="4.58489">
        <ele>240</ele>
        <time>2022-05-17T14:32:05.540Z</time>
      </trkpt>
      <trkpt lat="49.86799" lon="4.58489">
        <ele>240</ele>
        <time>2022-05-17T14:32:06.546Z</time>
      </trkpt>
      <trkpt lat="49.86796" lon="4.58473">
        <ele>240</ele>
        <time>2022-05-17T14:32:07.557Z</time>
      </trkpt>
      <trkpt lat="49.86796" lon="4.58473">
        <ele>240</ele>
        <time>2022-05-17T14:32:08.556Z</time>
      </trkpt>
      <trkpt lat="49.86792" lon="4.58463">
        <ele>240</ele>
        <time>2022-05-17T14:32:09.541Z</time>
      </trkpt>
      <trkpt lat="49.86791" lon="4.58457">
        <ele>240</ele>
        <time>2022-05-17T14:32:10.548Z</time>
      </trkpt>
      <trkpt lat="49.86791" lon="4.58457">
        <ele>240</ele>
        <time>2022-05-17T14:32:11.553Z</time>
      </trkpt>
      <trkpt lat="49.86789" lon="4.58445">
        <ele>240</ele>
        <time>2022-05-17T14:32:12.536Z</time>
      </trkpt>
      <trkpt lat="49.86788" lon="4.58439">
        <ele>240</ele>
        <time>2022-05-17T14:32:13.549Z</time>
      </trkpt>
      <trkpt lat="49.86788" lon="4.58439">
        <ele>240</ele>
        <time>2022-05-17T14:32:14.555Z</time>
      </trkpt>
      <trkpt lat="49.86787" lon="4.58427">
        <ele>240</ele>
        <time>2022-05-17T14:32:15.546Z</time>
      </trkpt>
      <trkpt lat="49.86787" lon="4.58427">
        <ele>240</ele>
        <time>2022-05-17T14:32:16.551Z</time>
      </trkpt>
      <trkpt lat="49.86785" lon="4.58414">
        <ele>240</ele>
        <time>2022-05-17T14:32:17.532Z</time>
      </trkpt>
      <trkpt lat="49.86785" lon="4.58414">
        <ele>240</ele>
        <time>2022-05-17T14:32:18.538Z</time>
      </trkpt>
      <trkpt lat="49.86786" lon="4.58402">
        <ele>240</ele>
        <time>2022-05-17T14:32:19.561Z</time>
      </trkpt>
      <trkpt lat="49.86786" lon="4.58397">
        <ele>240</ele>
        <time>2022-05-17T14:32:20.564Z</time>
      </trkpt>
      <trkpt lat="49.86786" lon="4.58397">
        <ele>240</ele>
        <time>2022-05-17T14:32:21.547Z</time>
      </trkpt>
      <trkpt lat="49.86785" lon="4.58386">
        <ele>240</ele>
        <time>2022-05-17T14:32:22.537Z</time>
      </trkpt>
      <trkpt lat="49.86784" lon="4.58381">
        <ele>240</ele>
        <time>2022-05-17T14:32:23.547Z</time>
      </trkpt>
      <trkpt lat="49.86783" lon="4.58377">
        <ele>240</ele>
        <time>2022-05-17T14:32:24.556Z</time>
      </trkpt>
      <trkpt lat="49.86782" lon="4.58373">
        <ele>240</ele>
        <time>2022-05-17T14:32:25.540Z</time>
      </trkpt>
      <trkpt lat="49.86782" lon="4.58373">
        <ele>240</ele>
        <time>2022-05-17T14:32:26.545Z</time>
      </trkpt>
      <trkpt lat="49.8678" lon="4.58365">
        <ele>240</ele>
        <time>2022-05-17T14:32:27.558Z</time>
      </trkpt>
      <trkpt lat="49.8678" lon="4.58365">
        <ele>240</ele>
        <time>2022-05-17T14:32:28.524Z</time>
      </trkpt>
      <trkpt lat="49.86777" lon="4.58357">
        <ele>240</ele>
        <time>2022-05-17T14:32:29.551Z</time>
      </trkpt>
      <trkpt lat="49.86777" lon="4.58357">
        <ele>240</ele>
        <time>2022-05-17T14:32:30.561Z</time>
      </trkpt>
      <trkpt lat="49.86773" lon="4.58351">
        <ele>241</ele>
        <time>2022-05-17T14:32:31.552Z</time>
      </trkpt>
      <trkpt lat="49.86773" lon="4.58351">
        <ele>241</ele>
        <time>2022-05-17T14:32:32.526Z</time>
      </trkpt>
      <trkpt lat="49.86771" lon="4.58346">
        <ele>241</ele>
        <time>2022-05-17T14:32:33.547Z</time>
      </trkpt>
      <trkpt lat="49.86771" lon="4.58346">
        <ele>241</ele>
        <time>2022-05-17T14:32:34.553Z</time>
      </trkpt>
      <trkpt lat="49.86769" lon="4.58341">
        <ele>241</ele>
        <time>2022-05-17T14:32:35.542Z</time>
      </trkpt>
      <trkpt lat="49.86769" lon="4.58341">
        <ele>241</ele>
        <time>2022-05-17T14:32:36.547Z</time>
      </trkpt>
      <trkpt lat="49.86767" lon="4.58332">
        <ele>242</ele>
        <time>2022-05-17T14:32:37.546Z</time>
      </trkpt>
      <trkpt lat="49.86767" lon="4.58332">
        <ele>242</ele>
        <time>2022-05-17T14:32:38.563Z</time>
      </trkpt>
      <trkpt lat="49.86764" lon="4.58325">
        <ele>242</ele>
        <time>2022-05-17T14:32:39.553Z</time>
      </trkpt>
      <trkpt lat="49.86764" lon="4.58325">
        <ele>242</ele>
        <time>2022-05-17T14:32:40.532Z</time>
      </trkpt>
      <trkpt lat="49.86763" lon="4.58319">
        <ele>242</ele>
        <time>2022-05-17T14:32:41.535Z</time>
      </trkpt>
      <trkpt lat="49.86761" lon="4.58316">
        <ele>242</ele>
        <time>2022-05-17T14:32:42.546Z</time>
      </trkpt>
      <trkpt lat="49.86761" lon="4.58316">
        <ele>242</ele>
        <time>2022-05-17T14:32:43.551Z</time>
      </trkpt>
      <trkpt lat="49.86757" lon="4.58309">
        <ele>242</ele>
        <time>2022-05-17T14:32:44.545Z</time>
      </trkpt>
      <trkpt lat="49.86757" lon="4.58309">
        <ele>242</ele>
        <time>2022-05-17T14:32:45.550Z</time>
      </trkpt>
      <trkpt lat="49.86754" lon="4.583">
        <ele>242</ele>
        <time>2022-05-17T14:32:46.545Z</time>
      </trkpt>
      <trkpt lat="49.86754" lon="4.583">
        <ele>242</ele>
        <time>2022-05-17T14:32:47.550Z</time>
      </trkpt>
      <trkpt lat="49.86751" lon="4.58291">
        <ele>242</ele>
        <time>2022-05-17T14:32:48.549Z</time>
      </trkpt>
      <trkpt lat="49.86751" lon="4.58291">
        <ele>242</ele>
        <time>2022-05-17T14:32:49.554Z</time>
      </trkpt>
      <trkpt lat="49.86747" lon="4.58281">
        <ele>243</ele>
        <time>2022-05-17T14:32:50.526Z</time>
      </trkpt>
      <trkpt lat="49.86747" lon="4.58281">
        <ele>243</ele>
        <time>2022-05-17T14:32:51.534Z</time>
      </trkpt>
      <trkpt lat="49.86745" lon="4.58272">
        <ele>243</ele>
        <time>2022-05-17T14:32:52.545Z</time>
      </trkpt>
      <trkpt lat="49.86745" lon="4.58272">
        <ele>243</ele>
        <time>2022-05-17T14:32:53.550Z</time>
      </trkpt>
      <trkpt lat="49.86743" lon="4.58263">
        <ele>243</ele>
        <time>2022-05-17T14:32:54.544Z</time>
      </trkpt>
      <trkpt lat="49.86743" lon="4.58263">
        <ele>243</ele>
        <time>2022-05-17T14:32:55.549Z</time>
      </trkpt>
      <trkpt lat="49.86742" lon="4.58255">
        <ele>244</ele>
        <time>2022-05-17T14:32:56.545Z</time>
      </trkpt>
      <trkpt lat="49.86742" lon="4.58255">
        <ele>244</ele>
        <time>2022-05-17T14:32:57.549Z</time>
      </trkpt>
      <trkpt lat="49.86738" lon="4.58244">
        <ele>243</ele>
        <time>2022-05-17T14:32:58.560Z</time>
      </trkpt>
      <trkpt lat="49.86736" lon="4.58238">
        <ele>244</ele>
        <time>2022-05-17T14:32:59.550Z</time>
      </trkpt>
      <trkpt lat="49.86736" lon="4.58238">
        <ele>244</ele>
        <time>2022-05-17T14:33:00.555Z</time>
      </trkpt>
      <trkpt lat="49.86733" lon="4.58226">
        <ele>244</ele>
        <time>2022-05-17T14:33:01.545Z</time>
      </trkpt>
      <trkpt lat="49.86733" lon="4.58226">
        <ele>244</ele>
        <time>2022-05-17T14:33:02.550Z</time>
      </trkpt>
      <trkpt lat="49.86729" lon="4.58215">
        <ele>243</ele>
        <time>2022-05-17T14:33:03.545Z</time>
      </trkpt>
      <trkpt lat="49.86728" lon="4.5821">
        <ele>243</ele>
        <time>2022-05-17T14:33:04.543Z</time>
      </trkpt>
      <trkpt lat="49.86725" lon="4.58205">
        <ele>243</ele>
        <time>2022-05-17T14:33:05.561Z</time>
      </trkpt>
      <trkpt lat="49.86725" lon="4.58205">
        <ele>243</ele>
        <time>2022-05-17T14:33:06.529Z</time>
      </trkpt>
      <trkpt lat="49.86723" lon="4.58191">
        <ele>243</ele>
        <time>2022-05-17T14:33:07.549Z</time>
      </trkpt>
      <trkpt lat="49.86721" lon="4.58181">
        <ele>243</ele>
        <time>2022-05-17T14:33:08.546Z</time>
      </trkpt>
      <trkpt lat="49.86721" lon="4.58181">
        <ele>243</ele>
        <time>2022-05-17T14:33:09.551Z</time>
      </trkpt>
      <trkpt lat="49.86715" lon="4.58162">
        <ele>243</ele>
        <time>2022-05-17T14:33:10.544Z</time>
      </trkpt>
      <trkpt lat="49.86714" lon="4.58154">
        <ele>243</ele>
        <time>2022-05-17T14:33:11.563Z</time>
      </trkpt>
      <trkpt lat="49.86714" lon="4.58154">
        <ele>243</ele>
        <time>2022-05-17T14:33:12.540Z</time>
      </trkpt>
      <trkpt lat="49.86709" lon="4.58138">
        <ele>243</ele>
        <time>2022-05-17T14:33:13.548Z</time>
      </trkpt>
      <trkpt lat="49.86709" lon="4.58138">
        <ele>243</ele>
        <time>2022-05-17T14:33:14.563Z</time>
      </trkpt>
      <trkpt lat="49.86702" lon="4.58125">
        <ele>243</ele>
        <time>2022-05-17T14:33:15.525Z</time>
      </trkpt>
      <trkpt lat="49.86698" lon="4.58119">
        <ele>243</ele>
        <time>2022-05-17T14:33:16.533Z</time>
      </trkpt>
      <trkpt lat="49.86698" lon="4.58119">
        <ele>243</ele>
        <time>2022-05-17T14:33:17.539Z</time>
      </trkpt>
      <trkpt lat="49.86689" lon="4.5811">
        <ele>244</ele>
        <time>2022-05-17T14:33:18.547Z</time>
      </trkpt>
      <trkpt lat="49.86689" lon="4.5811">
        <ele>244</ele>
        <time>2022-05-17T14:33:19.552Z</time>
      </trkpt>
      <trkpt lat="49.86682" lon="4.581">
        <ele>244</ele>
        <time>2022-05-17T14:33:20.562Z</time>
      </trkpt>
      <trkpt lat="49.86682" lon="4.581">
        <ele>244</ele>
        <time>2022-05-17T14:33:21.539Z</time>
      </trkpt>
      <trkpt lat="49.86676" lon="4.5809">
        <ele>244</ele>
        <time>2022-05-17T14:33:22.525Z</time>
      </trkpt>
      <trkpt lat="49.86674" lon="4.58086">
        <ele>244</ele>
        <time>2022-05-17T14:33:23.540Z</time>
      </trkpt>
      <trkpt lat="49.86674" lon="4.58086">
        <ele>244</ele>
        <time>2022-05-17T14:33:24.526Z</time>
      </trkpt>
      <trkpt lat="49.86671" lon="4.58077">
        <ele>244</ele>
        <time>2022-05-17T14:33:25.554Z</time>
      </trkpt>
      <trkpt lat="49.86671" lon="4.58077">
        <ele>244</ele>
        <time>2022-05-17T14:33:26.561Z</time>
      </trkpt>
      <trkpt lat="49.86668" lon="4.58066">
        <ele>243</ele>
        <time>2022-05-17T14:33:27.583Z</time>
      </trkpt>
      <trkpt lat="49.86668" lon="4.58066">
        <ele>243</ele>
        <time>2022-05-17T14:33:28.561Z</time>
      </trkpt>
      <trkpt lat="49.86664" lon="4.58052">
        <ele>243</ele>
        <time>2022-05-17T14:33:29.555Z</time>
      </trkpt>
      <trkpt lat="49.86662" lon="4.58045">
        <ele>243</ele>
        <time>2022-05-17T14:33:30.539Z</time>
      </trkpt>
      <trkpt lat="49.86662" lon="4.58045">
        <ele>243</ele>
        <time>2022-05-17T14:33:31.555Z</time>
      </trkpt>
      <trkpt lat="49.86657" lon="4.58032">
        <ele>243</ele>
        <time>2022-05-17T14:33:32.550Z</time>
      </trkpt>
      <trkpt lat="49.86657" lon="4.58032">
        <ele>243</ele>
        <time>2022-05-17T14:33:33.524Z</time>
      </trkpt>
      <trkpt lat="49.86653" lon="4.58021">
        <ele>244</ele>
        <time>2022-05-17T14:33:34.539Z</time>
      </trkpt>
      <trkpt lat="49.86653" lon="4.58021">
        <ele>244</ele>
        <time>2022-05-17T14:33:35.545Z</time>
      </trkpt>
      <trkpt lat="49.8665" lon="4.58013">
        <ele>244</ele>
        <time>2022-05-17T14:33:36.533Z</time>
      </trkpt>
      <trkpt lat="49.8665" lon="4.58013">
        <ele>244</ele>
        <time>2022-05-17T14:33:37.547Z</time>
      </trkpt>
      <trkpt lat="49.86646" lon="4.58005">
        <ele>244</ele>
        <time>2022-05-17T14:33:38.558Z</time>
      </trkpt>
      <trkpt lat="49.86643" lon="4.57999">
        <ele>244</ele>
        <time>2022-05-17T14:33:39.546Z</time>
      </trkpt>
      <trkpt lat="49.86643" lon="4.57999">
        <ele>244</ele>
        <time>2022-05-17T14:33:40.558Z</time>
      </trkpt>
      <trkpt lat="49.86637" lon="4.5799">
        <ele>244</ele>
        <time>2022-05-17T14:33:41.527Z</time>
      </trkpt>
      <trkpt lat="49.86637" lon="4.5799">
        <ele>244</ele>
        <time>2022-05-17T14:33:42.532Z</time>
      </trkpt>
      <trkpt lat="49.86633" lon="4.57981">
        <ele>245</ele>
        <time>2022-05-17T14:33:43.540Z</time>
      </trkpt>
      <trkpt lat="49.86633" lon="4.57981">
        <ele>245</ele>
        <time>2022-05-17T14:33:44.553Z</time>
      </trkpt>
      <trkpt lat="49.86632" lon="4.57973">
        <ele>245</ele>
        <time>2022-05-17T14:33:45.539Z</time>
      </trkpt>
      <trkpt lat="49.86631" lon="4.57968">
        <ele>245</ele>
        <time>2022-05-17T14:33:46.547Z</time>
      </trkpt>
      <trkpt lat="49.86631" lon="4.57968">
        <ele>245</ele>
        <time>2022-05-17T14:33:47.553Z</time>
      </trkpt>
      <trkpt lat="49.8663" lon="4.5796">
        <ele>246</ele>
        <time>2022-05-17T14:33:48.539Z</time>
      </trkpt>
      <trkpt lat="49.8663" lon="4.57957">
        <ele>246</ele>
        <time>2022-05-17T14:33:49.550Z</time>
      </trkpt>
      <trkpt lat="49.8663" lon="4.57957">
        <ele>246</ele>
        <time>2022-05-17T14:33:50.524Z</time>
      </trkpt>
      <trkpt lat="49.86628" lon="4.57947">
        <ele>246</ele>
        <time>2022-05-17T14:33:51.543Z</time>
      </trkpt>
      <trkpt lat="49.86628" lon="4.57947">
        <ele>246</ele>
        <time>2022-05-17T14:33:52.548Z</time>
      </trkpt>
      <trkpt lat="49.86626" lon="4.57935">
        <ele>246</ele>
        <time>2022-05-17T14:33:53.535Z</time>
      </trkpt>
      <trkpt lat="49.86625" lon="4.57928">
        <ele>246</ele>
        <time>2022-05-17T14:33:54.529Z</time>
      </trkpt>
      <trkpt lat="49.86625" lon="4.57928">
        <ele>246</ele>
        <time>2022-05-17T14:33:55.538Z</time>
      </trkpt>
      <trkpt lat="49.86623" lon="4.57915">
        <ele>246</ele>
        <time>2022-05-17T14:33:56.548Z</time>
      </trkpt>
      <trkpt lat="49.86623" lon="4.57915">
        <ele>246</ele>
        <time>2022-05-17T14:33:57.553Z</time>
      </trkpt>
      <trkpt lat="49.86622" lon="4.57901">
        <ele>246</ele>
        <time>2022-05-17T14:33:58.543Z</time>
      </trkpt>
      <trkpt lat="49.86622" lon="4.57901">
        <ele>246</ele>
        <time>2022-05-17T14:33:59.533Z</time>
      </trkpt>
      <trkpt lat="49.8662" lon="4.57892">
        <ele>246</ele>
        <time>2022-05-17T14:34:00.552Z</time>
      </trkpt>
      <trkpt lat="49.8662" lon="4.57892">
        <ele>246</ele>
        <time>2022-05-17T14:34:01.557Z</time>
      </trkpt>
      <trkpt lat="49.86619" lon="4.5788">
        <ele>246</ele>
        <time>2022-05-17T14:34:02.561Z</time>
      </trkpt>
      <trkpt lat="49.86619" lon="4.5788">
        <ele>246</ele>
        <time>2022-05-17T14:34:03.537Z</time>
      </trkpt>
      <trkpt lat="49.8662" lon="4.57869">
        <ele>246</ele>
        <time>2022-05-17T14:34:04.524Z</time>
      </trkpt>
      <trkpt lat="49.8662" lon="4.57869">
        <ele>246</ele>
        <time>2022-05-17T14:34:05.536Z</time>
      </trkpt>
      <trkpt lat="49.86621" lon="4.57859">
        <ele>246</ele>
        <time>2022-05-17T14:34:06.533Z</time>
      </trkpt>
      <trkpt lat="49.86621" lon="4.57859">
        <ele>246</ele>
        <time>2022-05-17T14:34:07.538Z</time>
      </trkpt>
      <trkpt lat="49.86621" lon="4.5785">
        <ele>246</ele>
        <time>2022-05-17T14:34:08.540Z</time>
      </trkpt>
      <trkpt lat="49.86621" lon="4.5785">
        <ele>246</ele>
        <time>2022-05-17T14:34:09.545Z</time>
      </trkpt>
      <trkpt lat="49.8662" lon="4.57836">
        <ele>246</ele>
        <time>2022-05-17T14:34:10.537Z</time>
      </trkpt>
      <trkpt lat="49.86621" lon="4.5783">
        <ele>245</ele>
        <time>2022-05-17T14:34:11.545Z</time>
      </trkpt>
      <trkpt lat="49.86621" lon="4.5783">
        <ele>245</ele>
        <time>2022-05-17T14:34:12.551Z</time>
      </trkpt>
      <trkpt lat="49.86622" lon="4.5782">
        <ele>245</ele>
        <time>2022-05-17T14:34:13.560Z</time>
      </trkpt>
      <trkpt lat="49.86622" lon="4.5782">
        <ele>245</ele>
        <time>2022-05-17T14:34:14.525Z</time>
      </trkpt>
      <trkpt lat="49.86624" lon="4.57812">
        <ele>245</ele>
        <time>2022-05-17T14:34:15.549Z</time>
      </trkpt>
      <trkpt lat="49.86624" lon="4.57812">
        <ele>245</ele>
        <time>2022-05-17T14:34:16.554Z</time>
      </trkpt>
      <trkpt lat="49.86626" lon="4.57802">
        <ele>244</ele>
        <time>2022-05-17T14:34:17.529Z</time>
      </trkpt>
      <trkpt lat="49.86626" lon="4.57802">
        <ele>244</ele>
        <time>2022-05-17T14:34:18.536Z</time>
      </trkpt>
      <trkpt lat="49.86627" lon="4.57793">
        <ele>244</ele>
        <time>2022-05-17T14:34:19.554Z</time>
      </trkpt>
      <trkpt lat="49.86626" lon="4.57789">
        <ele>244</ele>
        <time>2022-05-17T14:34:20.546Z</time>
      </trkpt>
      <trkpt lat="49.86626" lon="4.57789">
        <ele>244</ele>
        <time>2022-05-17T14:34:21.559Z</time>
      </trkpt>
      <trkpt lat="49.86624" lon="4.57779">
        <ele>243</ele>
        <time>2022-05-17T14:34:22.559Z</time>
      </trkpt>
      <trkpt lat="49.86624" lon="4.57779">
        <ele>243</ele>
        <time>2022-05-17T14:34:23.524Z</time>
      </trkpt>
      <trkpt lat="49.86624" lon="4.57767">
        <ele>243</ele>
        <time>2022-05-17T14:34:24.553Z</time>
      </trkpt>
      <trkpt lat="49.86624" lon="4.57767">
        <ele>243</ele>
        <time>2022-05-17T14:34:25.559Z</time>
      </trkpt>
      <trkpt lat="49.86623" lon="4.57756">
        <ele>243</ele>
        <time>2022-05-17T14:34:26.545Z</time>
      </trkpt>
      <trkpt lat="49.86623" lon="4.57756">
        <ele>243</ele>
        <time>2022-05-17T14:34:27.550Z</time>
      </trkpt>
      <trkpt lat="49.86621" lon="4.57743">
        <ele>243</ele>
        <time>2022-05-17T14:34:28.545Z</time>
      </trkpt>
      <trkpt lat="49.8662" lon="4.57737">
        <ele>243</ele>
        <time>2022-05-17T14:34:29.539Z</time>
      </trkpt>
      <trkpt lat="49.8662" lon="4.57737">
        <ele>243</ele>
        <time>2022-05-17T14:34:30.546Z</time>
      </trkpt>
      <trkpt lat="49.86617" lon="4.57724">
        <ele>242</ele>
        <time>2022-05-17T14:34:31.536Z</time>
      </trkpt>
      <trkpt lat="49.86615" lon="4.57718">
        <ele>242</ele>
        <time>2022-05-17T14:34:32.541Z</time>
      </trkpt>
      <trkpt lat="49.86615" lon="4.57718">
        <ele>242</ele>
        <time>2022-05-17T14:34:33.546Z</time>
      </trkpt>
      <trkpt lat="49.86613" lon="4.57706">
        <ele>242</ele>
        <time>2022-05-17T14:34:34.547Z</time>
      </trkpt>
      <trkpt lat="49.86613" lon="4.57706">
        <ele>242</ele>
        <time>2022-05-17T14:34:35.552Z</time>
      </trkpt>
      <trkpt lat="49.8661" lon="4.57696">
        <ele>242</ele>
        <time>2022-05-17T14:34:36.555Z</time>
      </trkpt>
      <trkpt lat="49.8661" lon="4.57696">
        <ele>242</ele>
        <time>2022-05-17T14:34:37.559Z</time>
      </trkpt>
      <trkpt lat="49.86608" lon="4.57688">
        <ele>242</ele>
        <time>2022-05-17T14:34:38.541Z</time>
      </trkpt>
      <trkpt lat="49.86606" lon="4.57684">
        <ele>242</ele>
        <time>2022-05-17T14:34:39.535Z</time>
      </trkpt>
      <trkpt lat="49.86606" lon="4.57684">
        <ele>242</ele>
        <time>2022-05-17T14:34:40.540Z</time>
      </trkpt>
      <trkpt lat="49.86601" lon="4.57672">
        <ele>241</ele>
        <time>2022-05-17T14:34:41.548Z</time>
      </trkpt>
      <trkpt lat="49.86598" lon="4.57668">
        <ele>241</ele>
        <time>2022-05-17T14:34:42.526Z</time>
      </trkpt>
      <trkpt lat="49.86598" lon="4.57668">
        <ele>241</ele>
        <time>2022-05-17T14:34:43.532Z</time>
      </trkpt>
      <trkpt lat="49.86594" lon="4.57661">
        <ele>241</ele>
        <time>2022-05-17T14:34:44.526Z</time>
      </trkpt>
      <trkpt lat="49.86594" lon="4.57661">
        <ele>241</ele>
        <time>2022-05-17T14:34:45.533Z</time>
      </trkpt>
      <trkpt lat="49.86593" lon="4.57656">
        <ele>241</ele>
        <time>2022-05-17T14:34:46.555Z</time>
      </trkpt>
      <trkpt lat="49.86592" lon="4.57654">
        <ele>242</ele>
        <time>2022-05-17T14:34:47.542Z</time>
      </trkpt>
      <trkpt lat="49.86592" lon="4.57654">
        <ele>242</ele>
        <time>2022-05-17T14:34:48.548Z</time>
      </trkpt>
      <trkpt lat="49.86589" lon="4.57649">
        <ele>242</ele>
        <time>2022-05-17T14:34:49.535Z</time>
      </trkpt>
      <trkpt lat="49.86589" lon="4.57649">
        <ele>242</ele>
        <time>2022-05-17T14:34:50.540Z</time>
      </trkpt>
      <trkpt lat="49.86584" lon="4.57643">
        <ele>242</ele>
        <time>2022-05-17T14:34:51.541Z</time>
      </trkpt>
      <trkpt lat="49.86584" lon="4.57643">
        <ele>242</ele>
        <time>2022-05-17T14:34:52.546Z</time>
      </trkpt>
      <trkpt lat="49.8658" lon="4.57636">
        <ele>242</ele>
        <time>2022-05-17T14:34:53.537Z</time>
      </trkpt>
      <trkpt lat="49.86578" lon="4.57633">
        <ele>242</ele>
        <time>2022-05-17T14:34:54.546Z</time>
      </trkpt>
      <trkpt lat="49.86576" lon="4.57631">
        <ele>242</ele>
        <time>2022-05-17T14:34:55.551Z</time>
      </trkpt>
      <trkpt lat="49.86576" lon="4.57631">
        <ele>242</ele>
        <time>2022-05-17T14:34:56.556Z</time>
      </trkpt>
      <trkpt lat="49.86571" lon="4.57625">
        <ele>242</ele>
        <time>2022-05-17T14:34:57.561Z</time>
      </trkpt>
      <trkpt lat="49.86569" lon="4.57621">
        <ele>242</ele>
        <time>2022-05-17T14:34:58.530Z</time>
      </trkpt>
      <trkpt lat="49.86569" lon="4.57621">
        <ele>242</ele>
        <time>2022-05-17T14:34:59.538Z</time>
      </trkpt>
      <trkpt lat="49.86566" lon="4.57615">
        <ele>242</ele>
        <time>2022-05-17T14:35:00.526Z</time>
      </trkpt>
      <trkpt lat="49.86566" lon="4.57615">
        <ele>242</ele>
        <time>2022-05-17T14:35:01.544Z</time>
      </trkpt>
      <trkpt lat="49.86562" lon="4.57608">
        <ele>242</ele>
        <time>2022-05-17T14:35:02.552Z</time>
      </trkpt>
      <trkpt lat="49.8656" lon="4.57605">
        <ele>242</ele>
        <time>2022-05-17T14:35:03.552Z</time>
      </trkpt>
      <trkpt lat="49.8656" lon="4.57605">
        <ele>242</ele>
        <time>2022-05-17T14:35:04.524Z</time>
      </trkpt>
      <trkpt lat="49.86556" lon="4.576">
        <ele>242</ele>
        <time>2022-05-17T14:35:05.540Z</time>
      </trkpt>
      <trkpt lat="49.86554" lon="4.57597">
        <ele>242</ele>
        <time>2022-05-17T14:35:06.536Z</time>
      </trkpt>
      <trkpt lat="49.86554" lon="4.57597">
        <ele>242</ele>
        <time>2022-05-17T14:35:07.555Z</time>
      </trkpt>
      <trkpt lat="49.86547" lon="4.57595">
        <ele>242</ele>
        <time>2022-05-17T14:35:08.546Z</time>
      </trkpt>
      <trkpt lat="49.86547" lon="4.57595">
        <ele>242</ele>
        <time>2022-05-17T14:35:09.555Z</time>
      </trkpt>
      <trkpt lat="49.8654" lon="4.57597">
        <ele>242</ele>
        <time>2022-05-17T14:35:10.531Z</time>
      </trkpt>
      <trkpt lat="49.86536" lon="4.57601">
        <ele>242</ele>
        <time>2022-05-17T14:35:11.545Z</time>
      </trkpt>
      <trkpt lat="49.86531" lon="4.57604">
        <ele>241</ele>
        <time>2022-05-17T14:35:12.556Z</time>
      </trkpt>
      <trkpt lat="49.86531" lon="4.57604">
        <ele>241</ele>
        <time>2022-05-17T14:35:13.526Z</time>
      </trkpt>
      <trkpt lat="49.86525" lon="4.57614">
        <ele>241</ele>
        <time>2022-05-17T14:35:14.539Z</time>
      </trkpt>
      <trkpt lat="49.86525" lon="4.57614">
        <ele>241</ele>
        <time>2022-05-17T14:35:15.547Z</time>
      </trkpt>
      <trkpt lat="49.86523" lon="4.57626">
        <ele>241</ele>
        <time>2022-05-17T14:35:16.528Z</time>
      </trkpt>
      <trkpt lat="49.86523" lon="4.57626">
        <ele>241</ele>
        <time>2022-05-17T14:35:17.534Z</time>
      </trkpt>
      <trkpt lat="49.86517" lon="4.57639">
        <ele>241</ele>
        <time>2022-05-17T14:35:18.548Z</time>
      </trkpt>
      <trkpt lat="49.86515" lon="4.57645">
        <ele>242</ele>
        <time>2022-05-17T14:35:19.539Z</time>
      </trkpt>
      <trkpt lat="49.86515" lon="4.57645">
        <ele>242</ele>
        <time>2022-05-17T14:35:20.538Z</time>
      </trkpt>
      <trkpt lat="49.86508" lon="4.57656">
        <ele>242</ele>
        <time>2022-05-17T14:35:21.553Z</time>
      </trkpt>
      <trkpt lat="49.86504" lon="4.57663">
        <ele>242</ele>
        <time>2022-05-17T14:35:22.556Z</time>
      </trkpt>
      <trkpt lat="49.86504" lon="4.57663">
        <ele>242</ele>
        <time>2022-05-17T14:35:23.525Z</time>
      </trkpt>
      <trkpt lat="49.86499" lon="4.57677">
        <ele>242</ele>
        <time>2022-05-17T14:35:24.560Z</time>
      </trkpt>
      <trkpt lat="49.86499" lon="4.57677">
        <ele>242</ele>
        <time>2022-05-17T14:35:25.527Z</time>
      </trkpt>
      <trkpt lat="49.86494" lon="4.5769">
        <ele>242</ele>
        <time>2022-05-17T14:35:26.524Z</time>
      </trkpt>
      <trkpt lat="49.86494" lon="4.5769">
        <ele>242</ele>
        <time>2022-05-17T14:35:27.551Z</time>
      </trkpt>
      <trkpt lat="49.86492" lon="4.57702">
        <ele>242</ele>
        <time>2022-05-17T14:35:28.548Z</time>
      </trkpt>
      <trkpt lat="49.8649" lon="4.57709">
        <ele>242</ele>
        <time>2022-05-17T14:35:29.552Z</time>
      </trkpt>
      <trkpt lat="49.86489" lon="4.57715">
        <ele>242</ele>
        <time>2022-05-17T14:35:30.545Z</time>
      </trkpt>
      <trkpt lat="49.86489" lon="4.57715">
        <ele>242</ele>
        <time>2022-05-17T14:35:31.552Z</time>
      </trkpt>
      <trkpt lat="49.86486" lon="4.57726">
        <ele>242</ele>
        <time>2022-05-17T14:35:32.543Z</time>
      </trkpt>
      <trkpt lat="49.86484" lon="4.57731">
        <ele>242</ele>
        <time>2022-05-17T14:35:33.560Z</time>
      </trkpt>
      <trkpt lat="49.86484" lon="4.57731">
        <ele>242</ele>
        <time>2022-05-17T14:35:34.535Z</time>
      </trkpt>
      <trkpt lat="49.86481" lon="4.57743">
        <ele>242</ele>
        <time>2022-05-17T14:35:35.530Z</time>
      </trkpt>
      <trkpt lat="49.8648" lon="4.57749">
        <ele>242</ele>
        <time>2022-05-17T14:35:36.550Z</time>
      </trkpt>
      <trkpt lat="49.8648" lon="4.57749">
        <ele>242</ele>
        <time>2022-05-17T14:35:37.557Z</time>
      </trkpt>
      <trkpt lat="49.86478" lon="4.5776">
        <ele>242</ele>
        <time>2022-05-17T14:35:38.548Z</time>
      </trkpt>
      <trkpt lat="49.86478" lon="4.5776">
        <ele>242</ele>
        <time>2022-05-17T14:35:39.555Z</time>
      </trkpt>
      <trkpt lat="49.86478" lon="4.57771">
        <ele>242</ele>
        <time>2022-05-17T14:35:40.544Z</time>
      </trkpt>
      <trkpt lat="49.86478" lon="4.57771">
        <ele>242</ele>
        <time>2022-05-17T14:35:41.550Z</time>
      </trkpt>
      <trkpt lat="49.86477" lon="4.57783">
        <ele>242</ele>
        <time>2022-05-17T14:35:42.545Z</time>
      </trkpt>
      <trkpt lat="49.86477" lon="4.57783">
        <ele>242</ele>
        <time>2022-05-17T14:35:43.525Z</time>
      </trkpt>
      <trkpt lat="49.86476" lon="4.57799">
        <ele>242</ele>
        <time>2022-05-17T14:35:44.528Z</time>
      </trkpt>
      <trkpt lat="49.86475" lon="4.57807">
        <ele>242</ele>
        <time>2022-05-17T14:35:45.529Z</time>
      </trkpt>
      <trkpt lat="49.86475" lon="4.57807">
        <ele>242</ele>
        <time>2022-05-17T14:35:46.539Z</time>
      </trkpt>
      <trkpt lat="49.86477" lon="4.57823">
        <ele>242</ele>
        <time>2022-05-17T14:35:47.529Z</time>
      </trkpt>
      <trkpt lat="49.86477" lon="4.57823">
        <ele>242</ele>
        <time>2022-05-17T14:35:48.540Z</time>
      </trkpt>
      <trkpt lat="49.86474" lon="4.57837">
        <ele>242</ele>
        <time>2022-05-17T14:35:49.529Z</time>
      </trkpt>
      <trkpt lat="49.86474" lon="4.57837">
        <ele>242</ele>
        <time>2022-05-17T14:35:50.535Z</time>
      </trkpt>
      <trkpt lat="49.86472" lon="4.57852">
        <ele>242</ele>
        <time>2022-05-17T14:35:51.527Z</time>
      </trkpt>
      <trkpt lat="49.86471" lon="4.57859">
        <ele>242</ele>
        <time>2022-05-17T14:35:52.558Z</time>
      </trkpt>
      <trkpt lat="49.86471" lon="4.57859">
        <ele>242</ele>
        <time>2022-05-17T14:35:53.563Z</time>
      </trkpt>
      <trkpt lat="49.86471" lon="4.57871">
        <ele>243</ele>
        <time>2022-05-17T14:35:54.563Z</time>
      </trkpt>
      <trkpt lat="49.86469" lon="4.57875">
        <ele>243</ele>
        <time>2022-05-17T14:35:55.561Z</time>
      </trkpt>
      <trkpt lat="49.86469" lon="4.57875">
        <ele>243</ele>
        <time>2022-05-17T14:35:56.537Z</time>
      </trkpt>
      <trkpt lat="49.86465" lon="4.57884">
        <ele>243</ele>
        <time>2022-05-17T14:35:57.537Z</time>
      </trkpt>
      <trkpt lat="49.86462" lon="4.57889">
        <ele>243</ele>
        <time>2022-05-17T14:35:58.551Z</time>
      </trkpt>
      <trkpt lat="49.86462" lon="4.57889">
        <ele>243</ele>
        <time>2022-05-17T14:35:59.557Z</time>
      </trkpt>
      <trkpt lat="49.86457" lon="4.579">
        <ele>243</ele>
        <time>2022-05-17T14:36:00.532Z</time>
      </trkpt>
      <trkpt lat="49.86457" lon="4.579">
        <ele>243</ele>
        <time>2022-05-17T14:36:01.540Z</time>
      </trkpt>
      <trkpt lat="49.86454" lon="4.57909">
        <ele>243</ele>
        <time>2022-05-17T14:36:02.550Z</time>
      </trkpt>
      <trkpt lat="49.86452" lon="4.57914">
        <ele>243</ele>
        <time>2022-05-17T14:36:03.527Z</time>
      </trkpt>
      <trkpt lat="49.86451" lon="4.57917">
        <ele>244</ele>
        <time>2022-05-17T14:36:04.560Z</time>
      </trkpt>
      <trkpt lat="49.86451" lon="4.57917">
        <ele>244</ele>
        <time>2022-05-17T14:36:05.537Z</time>
      </trkpt>
      <trkpt lat="49.86448" lon="4.57919">
        <ele>244</ele>
        <time>2022-05-17T14:36:06.547Z</time>
      </trkpt>
      <trkpt lat="49.86448" lon="4.57919">
        <ele>244</ele>
        <time>2022-05-17T14:36:07.552Z</time>
      </trkpt>
      <trkpt lat="49.86445" lon="4.57922">
        <ele>244</ele>
        <time>2022-05-17T14:36:08.528Z</time>
      </trkpt>
      <trkpt lat="49.86443" lon="4.57925">
        <ele>244</ele>
        <time>2022-05-17T14:36:09.529Z</time>
      </trkpt>
      <trkpt lat="49.86443" lon="4.57925">
        <ele>244</ele>
        <time>2022-05-17T14:36:10.544Z</time>
      </trkpt>
      <trkpt lat="49.86442" lon="4.57931">
        <ele>244</ele>
        <time>2022-05-17T14:36:11.542Z</time>
      </trkpt>
      <trkpt lat="49.86442" lon="4.57931">
        <ele>244</ele>
        <time>2022-05-17T14:36:12.547Z</time>
      </trkpt>
      <trkpt lat="49.8644" lon="4.57936">
        <ele>244</ele>
        <time>2022-05-17T14:36:13.541Z</time>
      </trkpt>
      <trkpt lat="49.8644" lon="4.57936">
        <ele>244</ele>
        <time>2022-05-17T14:36:14.558Z</time>
      </trkpt>
      <trkpt lat="49.86438" lon="4.57942">
        <ele>245</ele>
        <time>2022-05-17T14:36:15.555Z</time>
      </trkpt>
      <trkpt lat="49.86436" lon="4.57943">
        <ele>245</ele>
        <time>2022-05-17T14:36:16.551Z</time>
      </trkpt>
      <trkpt lat="49.86436" lon="4.57943">
        <ele>245</ele>
        <time>2022-05-17T14:36:17.557Z</time>
      </trkpt>
      <trkpt lat="49.86436" lon="4.57944">
        <ele>245</ele>
        <time>2022-05-17T14:36:18.555Z</time>
      </trkpt>
      <trkpt lat="49.86436" lon="4.57944">
        <ele>245</ele>
        <time>2022-05-17T14:36:19.560Z</time>
      </trkpt>
      <trkpt lat="49.86435" lon="4.57944">
        <ele>245</ele>
        <time>2022-05-17T14:36:20.535Z</time>
      </trkpt>
      <trkpt lat="49.86435" lon="4.57944">
        <ele>245</ele>
        <time>2022-05-17T14:36:21.550Z</time>
      </trkpt>
      <trkpt lat="49.86432" lon="4.57943">
        <ele>246</ele>
        <time>2022-05-17T14:36:22.535Z</time>
      </trkpt>
      <trkpt lat="49.8643" lon="4.57944">
        <ele>246</ele>
        <time>2022-05-17T14:36:23.525Z</time>
      </trkpt>
      <trkpt lat="49.8643" lon="4.57944">
        <ele>246</ele>
        <time>2022-05-17T14:36:24.539Z</time>
      </trkpt>
      <trkpt lat="49.86427" lon="4.57946">
        <ele>246</ele>
        <time>2022-05-17T14:36:25.542Z</time>
      </trkpt>
      <trkpt lat="49.86425" lon="4.57948">
        <ele>246</ele>
        <time>2022-05-17T14:36:26.557Z</time>
      </trkpt>
      <trkpt lat="49.86425" lon="4.57948">
        <ele>246</ele>
        <time>2022-05-17T14:36:27.563Z</time>
      </trkpt>
      <trkpt lat="49.86421" lon="4.5795">
        <ele>246</ele>
        <time>2022-05-17T14:36:28.560Z</time>
      </trkpt>
      <trkpt lat="49.86417" lon="4.5795">
        <ele>247</ele>
        <time>2022-05-17T14:36:29.533Z</time>
      </trkpt>
      <trkpt lat="49.86417" lon="4.5795">
        <ele>247</ele>
        <time>2022-05-17T14:36:30.540Z</time>
      </trkpt>
      <trkpt lat="49.86411" lon="4.57952">
        <ele>247</ele>
        <time>2022-05-17T14:36:31.543Z</time>
      </trkpt>
      <trkpt lat="49.86411" lon="4.57952">
        <ele>247</ele>
        <time>2022-05-17T14:36:32.556Z</time>
      </trkpt>
      <trkpt lat="49.86405" lon="4.57954">
        <ele>247</ele>
        <time>2022-05-17T14:36:33.547Z</time>
      </trkpt>
      <trkpt lat="49.86405" lon="4.57954">
        <ele>247</ele>
        <time>2022-05-17T14:36:34.524Z</time>
      </trkpt>
      <trkpt lat="49.86399" lon="4.57956">
        <ele>247</ele>
        <time>2022-05-17T14:36:35.550Z</time>
      </trkpt>
      <trkpt lat="49.86399" lon="4.57956">
        <ele>247</ele>
        <time>2022-05-17T14:36:36.555Z</time>
      </trkpt>
      <trkpt lat="49.86393" lon="4.5796">
        <ele>247</ele>
        <time>2022-05-17T14:36:37.551Z</time>
      </trkpt>
      <trkpt lat="49.8639" lon="4.57962">
        <ele>248</ele>
        <time>2022-05-17T14:36:38.545Z</time>
      </trkpt>
      <trkpt lat="49.8639" lon="4.57962">
        <ele>248</ele>
        <time>2022-05-17T14:36:39.550Z</time>
      </trkpt>
      <trkpt lat="49.86384" lon="4.57964">
        <ele>248</ele>
        <time>2022-05-17T14:36:40.545Z</time>
      </trkpt>
      <trkpt lat="49.86382" lon="4.57966">
        <ele>248</ele>
        <time>2022-05-17T14:36:41.532Z</time>
      </trkpt>
      <trkpt lat="49.86382" lon="4.57966">
        <ele>248</ele>
        <time>2022-05-17T14:36:42.542Z</time>
      </trkpt>
      <trkpt lat="49.86377" lon="4.57971">
        <ele>249</ele>
        <time>2022-05-17T14:36:43.544Z</time>
      </trkpt>
      <trkpt lat="49.86377" lon="4.57971">
        <ele>249</ele>
        <time>2022-05-17T14:36:44.553Z</time>
      </trkpt>
      <trkpt lat="49.86369" lon="4.57981">
        <ele>248</ele>
        <time>2022-05-17T14:36:45.559Z</time>
      </trkpt>
      <trkpt lat="49.86369" lon="4.57981">
        <ele>248</ele>
        <time>2022-05-17T14:36:46.524Z</time>
      </trkpt>
      <trkpt lat="49.86364" lon="4.57988">
        <ele>248</ele>
        <time>2022-05-17T14:36:47.563Z</time>
      </trkpt>
      <trkpt lat="49.86364" lon="4.57988">
        <ele>248</ele>
        <time>2022-05-17T14:36:48.534Z</time>
      </trkpt>
      <trkpt lat="49.86362" lon="4.57993">
        <ele>249</ele>
        <time>2022-05-17T14:36:49.545Z</time>
      </trkpt>
      <trkpt lat="49.86362" lon="4.57997">
        <ele>248</ele>
        <time>2022-05-17T14:36:50.556Z</time>
      </trkpt>
      <trkpt lat="49.86362" lon="4.57997">
        <ele>248</ele>
        <time>2022-05-17T14:36:51.561Z</time>
      </trkpt>
      <trkpt lat="49.86362" lon="4.58">
        <ele>249</ele>
        <time>2022-05-17T14:36:52.542Z</time>
      </trkpt>
      <trkpt lat="49.86363" lon="4.58001">
        <ele>249</ele>
        <time>2022-05-17T14:36:53.550Z</time>
      </trkpt>
      <trkpt lat="49.86363" lon="4.58001">
        <ele>249</ele>
        <time>2022-05-17T14:36:54.556Z</time>
      </trkpt>
      <trkpt lat="49.86364" lon="4.58003">
        <ele>249</ele>
        <time>2022-05-17T14:36:55.529Z</time>
      </trkpt>
      <trkpt lat="49.86364" lon="4.58003">
        <ele>249</ele>
        <time>2022-05-17T14:36:56.537Z</time>
      </trkpt>
      <trkpt lat="49.86367" lon="4.58007">
        <ele>249</ele>
        <time>2022-05-17T14:36:57.556Z</time>
      </trkpt>
      <trkpt lat="49.86367" lon="4.58007">
        <ele>249</ele>
        <time>2022-05-17T14:36:58.556Z</time>
      </trkpt>
      <trkpt lat="49.86369" lon="4.58013">
        <ele>249</ele>
        <time>2022-05-17T14:36:59.562Z</time>
      </trkpt>
      <trkpt lat="49.86369" lon="4.58013">
        <ele>249</ele>
        <time>2022-05-17T14:37:00.525Z</time>
      </trkpt>
      <trkpt lat="49.86371" lon="4.58017">
        <ele>249</ele>
        <time>2022-05-17T14:37:01.556Z</time>
      </trkpt>
      <trkpt lat="49.86372" lon="4.58019">
        <ele>249</ele>
        <time>2022-05-17T14:37:02.544Z</time>
      </trkpt>
      <trkpt lat="49.86372" lon="4.58019">
        <ele>249</ele>
        <time>2022-05-17T14:37:03.550Z</time>
      </trkpt>
      <trkpt lat="49.86374" lon="4.58023">
        <ele>249</ele>
        <time>2022-05-17T14:37:04.530Z</time>
      </trkpt>
      <trkpt lat="49.86374" lon="4.58026">
        <ele>249</ele>
        <time>2022-05-17T14:37:05.557Z</time>
      </trkpt>
      <trkpt lat="49.86374" lon="4.58026">
        <ele>249</ele>
        <time>2022-05-17T14:37:06.563Z</time>
      </trkpt>
      <trkpt lat="49.86376" lon="4.5803">
        <ele>249</ele>
        <time>2022-05-17T14:37:07.562Z</time>
      </trkpt>
      <trkpt lat="49.86376" lon="4.5803">
        <ele>249</ele>
        <time>2022-05-17T14:37:08.538Z</time>
      </trkpt>
      <trkpt lat="49.86376" lon="4.58032">
        <ele>249</ele>
        <time>2022-05-17T14:37:09.545Z</time>
      </trkpt>
      <trkpt lat="49.86376" lon="4.58032">
        <ele>249</ele>
        <time>2022-05-17T14:37:10.550Z</time>
      </trkpt>
      <trkpt lat="49.86377" lon="4.58033">
        <ele>249</ele>
        <time>2022-05-17T14:37:11.542Z</time>
      </trkpt>
      <trkpt lat="49.86377" lon="4.58033">
        <ele>249</ele>
        <time>2022-05-17T14:37:12.551Z</time>
      </trkpt>
      <trkpt lat="49.86379" lon="4.58036">
        <ele>249</ele>
        <time>2022-05-17T14:37:13.545Z</time>
      </trkpt>
      <trkpt lat="49.8638" lon="4.58037">
        <ele>249</ele>
        <time>2022-05-17T14:37:14.538Z</time>
      </trkpt>
      <trkpt lat="49.8638" lon="4.58037">
        <ele>249</ele>
        <time>2022-05-17T14:37:15.544Z</time>
      </trkpt>
      <trkpt lat="49.86383" lon="4.58042">
        <ele>249</ele>
        <time>2022-05-17T14:37:16.548Z</time>
      </trkpt>
      <trkpt lat="49.86385" lon="4.58044">
        <ele>249</ele>
        <time>2022-05-17T14:37:17.535Z</time>
      </trkpt>
      <trkpt lat="49.86385" lon="4.58044">
        <ele>249</ele>
        <time>2022-05-17T14:37:18.541Z</time>
      </trkpt>
      <trkpt lat="49.86388" lon="4.58048">
        <ele>249</ele>
        <time>2022-05-17T14:37:19.555Z</time>
      </trkpt>
      <trkpt lat="49.86388" lon="4.58048">
        <ele>249</ele>
        <time>2022-05-17T14:37:20.535Z</time>
      </trkpt>
      <trkpt lat="49.86389" lon="4.58054">
        <ele>248</ele>
        <time>2022-05-17T14:37:21.539Z</time>
      </trkpt>
      <trkpt lat="49.8639" lon="4.58056">
        <ele>248</ele>
        <time>2022-05-17T14:37:22.532Z</time>
      </trkpt>
      <trkpt lat="49.8639" lon="4.58056">
        <ele>248</ele>
        <time>2022-05-17T14:37:23.537Z</time>
      </trkpt>
      <trkpt lat="49.86391" lon="4.58061">
        <ele>248</ele>
        <time>2022-05-17T14:37:24.536Z</time>
      </trkpt>
      <trkpt lat="49.86391" lon="4.58061">
        <ele>248</ele>
        <time>2022-05-17T14:37:25.551Z</time>
      </trkpt>
      <trkpt lat="49.86392" lon="4.58063">
        <ele>248</ele>
        <time>2022-05-17T14:37:26.526Z</time>
      </trkpt>
      <trkpt lat="49.86392" lon="4.58063">
        <ele>248</ele>
        <time>2022-05-17T14:37:27.533Z</time>
      </trkpt>
      <trkpt lat="49.86393" lon="4.58064">
        <ele>248</ele>
        <time>2022-05-17T14:37:28.546Z</time>
      </trkpt>
      <trkpt lat="49.86393" lon="4.58064">
        <ele>248</ele>
        <time>2022-05-17T14:37:29.551Z</time>
      </trkpt>
      <trkpt lat="49.86393" lon="4.58064">
        <ele>248</ele>
        <time>2022-05-17T14:37:30.539Z</time>
      </trkpt>
      <trkpt lat="49.86393" lon="4.58064">
        <ele>248</ele>
        <time>2022-05-17T14:37:31.547Z</time>
      </trkpt>
      <trkpt lat="49.86393" lon="4.58064">
        <ele>248</ele>
        <time>2022-05-17T14:37:32.553Z</time>
      </trkpt>
      <trkpt lat="49.86393" lon="4.58064">
        <ele>248</ele>
        <time>2022-05-17T14:37:33.551Z</time>
      </trkpt>
      <trkpt lat="49.86393" lon="4.58064">
        <ele>248</ele>
        <time>2022-05-17T14:37:34.552Z</time>
      </trkpt>
      <trkpt lat="49.86393" lon="4.58064">
        <ele>248</ele>
        <time>2022-05-17T14:37:35.560Z</time>
      </trkpt>
      <trkpt lat="49.86393" lon="4.58064">
        <ele>248</ele>
        <time>2022-05-17T14:37:36.552Z</time>
      </trkpt>
      <trkpt lat="49.86393" lon="4.58064">
        <ele>248</ele>
        <time>2022-05-17T14:37:37.547Z</time>
      </trkpt>
      <trkpt lat="49.86393" lon="4.58064">
        <ele>248</ele>
        <time>2022-05-17T14:37:38.551Z</time>
      </trkpt>
      <trkpt lat="49.86393" lon="4.58064">
        <ele>248</ele>
        <time>2022-05-17T14:37:39.555Z</time>
      </trkpt>
      <trkpt lat="49.86392" lon="4.58078">
        <ele>247</ele>
        <time>2022-05-17T14:37:40.561Z</time>
      </trkpt>
      <trkpt lat="49.86392" lon="4.58077">
        <ele>247</ele>
        <time>2022-05-17T14:37:41.553Z</time>
      </trkpt>
      <trkpt lat="49.86392" lon="4.58077">
        <ele>247</ele>
        <time>2022-05-17T14:37:42.548Z</time>
      </trkpt>
      <trkpt lat="49.86393" lon="4.58077">
        <ele>247</ele>
        <time>2022-05-17T14:37:43.528Z</time>
      </trkpt>
      <trkpt lat="49.86393" lon="4.58077">
        <ele>247</ele>
        <time>2022-05-17T14:37:44.545Z</time>
      </trkpt>
      <trkpt lat="49.86393" lon="4.58077">
        <ele>247</ele>
        <time>2022-05-17T14:37:45.551Z</time>
      </trkpt>
      <trkpt lat="49.86393" lon="4.58077">
        <ele>247</ele>
        <time>2022-05-17T14:37:46.543Z</time>
      </trkpt>
      <trkpt lat="49.86394" lon="4.58079">
        <ele>247</ele>
        <time>2022-05-17T14:37:47.543Z</time>
      </trkpt>
      <trkpt lat="49.86394" lon="4.58079">
        <ele>247</ele>
        <time>2022-05-17T14:37:48.561Z</time>
      </trkpt>
      <trkpt lat="49.86395" lon="4.58081">
        <ele>248</ele>
        <time>2022-05-17T14:37:49.556Z</time>
      </trkpt>
      <trkpt lat="49.86395" lon="4.58081">
        <ele>248</ele>
        <time>2022-05-17T14:37:50.535Z</time>
      </trkpt>
      <trkpt lat="49.86395" lon="4.58083">
        <ele>248</ele>
        <time>2022-05-17T14:37:51.542Z</time>
      </trkpt>
      <trkpt lat="49.86395" lon="4.58083">
        <ele>248</ele>
        <time>2022-05-17T14:37:52.548Z</time>
      </trkpt>
      <trkpt lat="49.86395" lon="4.58084">
        <ele>248</ele>
        <time>2022-05-17T14:37:53.553Z</time>
      </trkpt>
      <trkpt lat="49.86395" lon="4.58084">
        <ele>248</ele>
        <time>2022-05-17T14:37:54.544Z</time>
      </trkpt>
      <trkpt lat="49.86396" lon="4.58085">
        <ele>248</ele>
        <time>2022-05-17T14:37:55.556Z</time>
      </trkpt>
      <trkpt lat="49.86396" lon="4.58085">
        <ele>248</ele>
        <time>2022-05-17T14:37:56.534Z</time>
      </trkpt>
      <trkpt lat="49.86397" lon="4.58086">
        <ele>248</ele>
        <time>2022-05-17T14:37:57.554Z</time>
      </trkpt>
      <trkpt lat="49.86397" lon="4.58086">
        <ele>248</ele>
        <time>2022-05-17T14:37:58.559Z</time>
      </trkpt>
      <trkpt lat="49.86399" lon="4.58086">
        <ele>248</ele>
        <time>2022-05-17T14:37:59.556Z</time>
      </trkpt>
      <trkpt lat="49.86399" lon="4.58086">
        <ele>248</ele>
        <time>2022-05-17T14:38:00.561Z</time>
      </trkpt>
      <trkpt lat="49.86399" lon="4.58087">
        <ele>248</ele>
        <time>2022-05-17T14:38:01.527Z</time>
      </trkpt>
      <trkpt lat="49.86399" lon="4.58087">
        <ele>248</ele>
        <time>2022-05-17T14:38:02.536Z</time>
      </trkpt>
      <trkpt lat="49.864" lon="4.58087">
        <ele>248</ele>
        <time>2022-05-17T14:38:03.542Z</time>
      </trkpt>
      <trkpt lat="49.864" lon="4.58087">
        <ele>248</ele>
        <time>2022-05-17T14:38:04.556Z</time>
      </trkpt>
      <trkpt lat="49.864" lon="4.58087">
        <ele>248</ele>
        <time>2022-05-17T14:38:05.545Z</time>
      </trkpt>
      <trkpt lat="49.864" lon="4.58087">
        <ele>248</ele>
        <time>2022-05-17T14:38:06.560Z</time>
      </trkpt>
      <trkpt lat="49.864" lon="4.58087">
        <ele>248</ele>
        <time>2022-05-17T14:38:07.552Z</time>
      </trkpt>
      <trkpt lat="49.864" lon="4.58087">
        <ele>248</ele>
        <time>2022-05-17T14:38:08.559Z</time>
      </trkpt>
      <trkpt lat="49.864" lon="4.58087">
        <ele>248</ele>
        <time>2022-05-17T14:38:09.555Z</time>
      </trkpt>
      <trkpt lat="49.864" lon="4.58087">
        <ele>248</ele>
        <time>2022-05-17T14:38:10.550Z</time>
      </trkpt>
      <trkpt lat="49.864" lon="4.58087">
        <ele>248</ele>
        <time>2022-05-17T14:38:11.546Z</time>
      </trkpt>
      <trkpt lat="49.864" lon="4.58087">
        <ele>248</ele>
        <time>2022-05-17T14:38:12.562Z</time>
      </trkpt>
      <trkpt lat="49.864" lon="4.58087">
        <ele>248</ele>
        <time>2022-05-17T14:38:13.553Z</time>
      </trkpt>
      <trkpt lat="49.864" lon="4.58087">
        <ele>248</ele>
        <time>2022-05-17T14:38:14.544Z</time>
      </trkpt>
      <trkpt lat="49.864" lon="4.58087">
        <ele>248</ele>
        <time>2022-05-17T14:38:15.562Z</time>
      </trkpt>
      <trkpt lat="49.864" lon="4.58087">
        <ele>248</ele>
        <time>2022-05-17T14:38:16.546Z</time>
      </trkpt>
      <trkpt lat="49.864" lon="4.58087">
        <ele>248</ele>
        <time>2022-05-17T14:38:17.562Z</time>
      </trkpt>
      <trkpt lat="49.864" lon="4.58087">
        <ele>248</ele>
        <time>2022-05-17T14:38:18.545Z</time>
      </trkpt>
      <trkpt lat="49.864" lon="4.58087">
        <ele>248</ele>
        <time>2022-05-17T14:38:19.560Z</time>
      </trkpt>
      <trkpt lat="49.864" lon="4.58087">
        <ele>248</ele>
        <time>2022-05-17T14:38:20.548Z</time>
      </trkpt>
      <trkpt lat="49.864" lon="4.58087">
        <ele>248</ele>
        <time>2022-05-17T14:38:21.528Z</time>
      </trkpt>
      <trkpt lat="49.864" lon="4.58087">
        <ele>248</ele>
        <time>2022-05-17T14:38:22.551Z</time>
      </trkpt>
      <trkpt lat="49.864" lon="4.58087">
        <ele>248</ele>
        <time>2022-05-17T14:38:23.547Z</time>
      </trkpt>
      <trkpt lat="49.864" lon="4.58087">
        <ele>248</ele>
        <time>2022-05-17T14:38:24.550Z</time>
      </trkpt>
      <trkpt lat="49.86408" lon="4.58095">
        <ele>247</ele>
        <time>2022-05-17T14:38:25.552Z</time>
      </trkpt>
      <trkpt lat="49.86408" lon="4.58095">
        <ele>247</ele>
        <time>2022-05-17T14:38:26.544Z</time>
      </trkpt>
      <trkpt lat="49.86409" lon="4.58097">
        <ele>248</ele>
        <time>2022-05-17T14:38:27.525Z</time>
      </trkpt>
      <trkpt lat="49.8641" lon="4.58098">
        <ele>248</ele>
        <time>2022-05-17T14:38:28.538Z</time>
      </trkpt>
      <trkpt lat="49.8641" lon="4.58098">
        <ele>248</ele>
        <time>2022-05-17T14:38:29.554Z</time>
      </trkpt>
      <trkpt lat="49.86411" lon="4.581">
        <ele>248</ele>
        <time>2022-05-17T14:38:30.555Z</time>
      </trkpt>
      <trkpt lat="49.8641" lon="4.58101">
        <ele>248</ele>
        <time>2022-05-17T14:38:31.553Z</time>
      </trkpt>
      <trkpt lat="49.8641" lon="4.58101">
        <ele>248</ele>
        <time>2022-05-17T14:38:32.560Z</time>
      </trkpt>
      <trkpt lat="49.86411" lon="4.58104">
        <ele>248</ele>
        <time>2022-05-17T14:38:33.556Z</time>
      </trkpt>
      <trkpt lat="49.86411" lon="4.58105">
        <ele>248</ele>
        <time>2022-05-17T14:38:34.550Z</time>
      </trkpt>
      <trkpt lat="49.8641" lon="4.58106">
        <ele>248</ele>
        <time>2022-05-17T14:38:35.557Z</time>
      </trkpt>
      <trkpt lat="49.8641" lon="4.58106">
        <ele>248</ele>
        <time>2022-05-17T14:38:36.562Z</time>
      </trkpt>
      <trkpt lat="49.86411" lon="4.58108">
        <ele>248</ele>
        <time>2022-05-17T14:38:37.528Z</time>
      </trkpt>
      <trkpt lat="49.86411" lon="4.58108">
        <ele>248</ele>
        <time>2022-05-17T14:38:38.538Z</time>
      </trkpt>
      <trkpt lat="49.86411" lon="4.58111">
        <ele>248</ele>
        <time>2022-05-17T14:38:39.544Z</time>
      </trkpt>
      <trkpt lat="49.86412" lon="4.58113">
        <ele>248</ele>
        <time>2022-05-17T14:38:40.558Z</time>
      </trkpt>
      <trkpt lat="49.86412" lon="4.58113">
        <ele>248</ele>
        <time>2022-05-17T14:38:41.546Z</time>
      </trkpt>
      <trkpt lat="49.86414" lon="4.58115">
        <ele>248</ele>
        <time>2022-05-17T14:38:42.546Z</time>
      </trkpt>
      <trkpt lat="49.86414" lon="4.58115">
        <ele>248</ele>
        <time>2022-05-17T14:38:43.554Z</time>
      </trkpt>
      <trkpt lat="49.86414" lon="4.58116">
        <ele>248</ele>
        <time>2022-05-17T14:38:44.525Z</time>
      </trkpt>
      <trkpt lat="49.86414" lon="4.58116">
        <ele>248</ele>
        <time>2022-05-17T14:38:45.535Z</time>
      </trkpt>
      <trkpt lat="49.86414" lon="4.58116">
        <ele>248</ele>
        <time>2022-05-17T14:38:46.560Z</time>
      </trkpt>
      <trkpt lat="49.86414" lon="4.58117">
        <ele>248</ele>
        <time>2022-05-17T14:38:47.525Z</time>
      </trkpt>
      <trkpt lat="49.86414" lon="4.58117">
        <ele>248</ele>
        <time>2022-05-17T14:38:48.532Z</time>
      </trkpt>
      <trkpt lat="49.86414" lon="4.58119">
        <ele>248</ele>
        <time>2022-05-17T14:38:49.555Z</time>
      </trkpt>
      <trkpt lat="49.86414" lon="4.58119">
        <ele>248</ele>
        <time>2022-05-17T14:38:50.548Z</time>
      </trkpt>
      <trkpt lat="49.86414" lon="4.5812">
        <ele>248</ele>
        <time>2022-05-17T14:38:51.551Z</time>
      </trkpt>
      <trkpt lat="49.86414" lon="4.5812">
        <ele>248</ele>
        <time>2022-05-17T14:38:52.544Z</time>
      </trkpt>
      <trkpt lat="49.86414" lon="4.5812">
        <ele>248</ele>
        <time>2022-05-17T14:38:53.562Z</time>
      </trkpt>
      <trkpt lat="49.86414" lon="4.5812">
        <ele>248</ele>
        <time>2022-05-17T14:38:54.545Z</time>
      </trkpt>
      <trkpt lat="49.86414" lon="4.5812">
        <ele>248</ele>
        <time>2022-05-17T14:38:55.562Z</time>
      </trkpt>
      <trkpt lat="49.86414" lon="4.5812">
        <ele>248</ele>
        <time>2022-05-17T14:38:56.547Z</time>
      </trkpt>
      <trkpt lat="49.86414" lon="4.5812">
        <ele>248</ele>
        <time>2022-05-17T14:38:57.527Z</time>
      </trkpt>
      <trkpt lat="49.86414" lon="4.5812">
        <ele>248</ele>
        <time>2022-05-17T14:38:58.552Z</time>
      </trkpt>
      <trkpt lat="49.86414" lon="4.5812">
        <ele>248</ele>
        <time>2022-05-17T14:38:59.552Z</time>
      </trkpt>
      <trkpt lat="49.86414" lon="4.5812">
        <ele>248</ele>
        <time>2022-05-17T14:39:00.544Z</time>
      </trkpt>
      <trkpt lat="49.86414" lon="4.5812">
        <ele>248</ele>
        <time>2022-05-17T14:39:01.560Z</time>
      </trkpt>
      <trkpt lat="49.86414" lon="4.5812">
        <ele>248</ele>
        <time>2022-05-17T14:39:02.544Z</time>
      </trkpt>
      <trkpt lat="49.86414" lon="4.5812">
        <ele>248</ele>
        <time>2022-05-17T14:39:03.563Z</time>
      </trkpt>
      <trkpt lat="49.86414" lon="4.5812">
        <ele>248</ele>
        <time>2022-05-17T14:39:04.546Z</time>
      </trkpt>
      <trkpt lat="49.86414" lon="4.5812">
        <ele>248</ele>
        <time>2022-05-17T14:39:05.563Z</time>
      </trkpt>
      <trkpt lat="49.86414" lon="4.5812">
        <ele>248</ele>
        <time>2022-05-17T14:39:06.550Z</time>
      </trkpt>
      <trkpt lat="49.86414" lon="4.5812">
        <ele>248</ele>
        <time>2022-05-17T14:39:07.551Z</time>
      </trkpt>
      <trkpt lat="49.86418" lon="4.58132">
        <ele>248</ele>
        <time>2022-05-17T14:39:08.550Z</time>
      </trkpt>
      <trkpt lat="49.86418" lon="4.58134">
        <ele>248</ele>
        <time>2022-05-17T14:39:09.552Z</time>
      </trkpt>
      <trkpt lat="49.86418" lon="4.58134">
        <ele>248</ele>
        <time>2022-05-17T14:39:10.526Z</time>
      </trkpt>
      <trkpt lat="49.86418" lon="4.58137">
        <ele>248</ele>
        <time>2022-05-17T14:39:11.535Z</time>
      </trkpt>
      <trkpt lat="49.86418" lon="4.58137">
        <ele>248</ele>
        <time>2022-05-17T14:39:12.540Z</time>
      </trkpt>
      <trkpt lat="49.86418" lon="4.58139">
        <ele>248</ele>
        <time>2022-05-17T14:39:13.557Z</time>
      </trkpt>
      <trkpt lat="49.86418" lon="4.58139">
        <ele>248</ele>
        <time>2022-05-17T14:39:14.562Z</time>
      </trkpt>
      <trkpt lat="49.86419" lon="4.58141">
        <ele>248</ele>
        <time>2022-05-17T14:39:15.545Z</time>
      </trkpt>
      <trkpt lat="49.86419" lon="4.58141">
        <ele>248</ele>
        <time>2022-05-17T14:39:16.550Z</time>
      </trkpt>
      <trkpt lat="49.86421" lon="4.58144">
        <ele>248</ele>
        <time>2022-05-17T14:39:17.536Z</time>
      </trkpt>
      <trkpt lat="49.86421" lon="4.58144">
        <ele>248</ele>
        <time>2022-05-17T14:39:18.541Z</time>
      </trkpt>
      <trkpt lat="49.86422" lon="4.58148">
        <ele>248</ele>
        <time>2022-05-17T14:39:19.542Z</time>
      </trkpt>
      <trkpt lat="49.86422" lon="4.58148">
        <ele>248</ele>
        <time>2022-05-17T14:39:20.560Z</time>
      </trkpt>
      <trkpt lat="49.86423" lon="4.58151">
        <ele>248</ele>
        <time>2022-05-17T14:39:21.538Z</time>
      </trkpt>
      <trkpt lat="49.86424" lon="4.58153">
        <ele>248</ele>
        <time>2022-05-17T14:39:22.525Z</time>
      </trkpt>
      <trkpt lat="49.86425" lon="4.58154">
        <ele>248</ele>
        <time>2022-05-17T14:39:23.538Z</time>
      </trkpt>
      <trkpt lat="49.86425" lon="4.58154">
        <ele>248</ele>
        <time>2022-05-17T14:39:24.550Z</time>
      </trkpt>
      <trkpt lat="49.86427" lon="4.58157">
        <ele>248</ele>
        <time>2022-05-17T14:39:25.528Z</time>
      </trkpt>
      <trkpt lat="49.86427" lon="4.58157">
        <ele>248</ele>
        <time>2022-05-17T14:39:26.538Z</time>
      </trkpt>
      <trkpt lat="49.86431" lon="4.58161">
        <ele>248</ele>
        <time>2022-05-17T14:39:27.535Z</time>
      </trkpt>
      <trkpt lat="49.86431" lon="4.58161">
        <ele>248</ele>
        <time>2022-05-17T14:39:28.550Z</time>
      </trkpt>
      <trkpt lat="49.86433" lon="4.58164">
        <ele>248</ele>
        <time>2022-05-17T14:39:29.539Z</time>
      </trkpt>
      <trkpt lat="49.86433" lon="4.58164">
        <ele>248</ele>
        <time>2022-05-17T14:39:30.524Z</time>
      </trkpt>
      <trkpt lat="49.86436" lon="4.58167">
        <ele>248</ele>
        <time>2022-05-17T14:39:31.560Z</time>
      </trkpt>
      <trkpt lat="49.86436" lon="4.58167">
        <ele>248</ele>
        <time>2022-05-17T14:39:32.527Z</time>
      </trkpt>
      <trkpt lat="49.8644" lon="4.58171">
        <ele>248</ele>
        <time>2022-05-17T14:39:33.530Z</time>
      </trkpt>
      <trkpt lat="49.8644" lon="4.58171">
        <ele>248</ele>
        <time>2022-05-17T14:39:34.537Z</time>
      </trkpt>
      <trkpt lat="49.86444" lon="4.58176">
        <ele>249</ele>
        <time>2022-05-17T14:39:35.529Z</time>
      </trkpt>
      <trkpt lat="49.86444" lon="4.58176">
        <ele>249</ele>
        <time>2022-05-17T14:39:36.536Z</time>
      </trkpt>
      <trkpt lat="49.86449" lon="4.5818">
        <ele>249</ele>
        <time>2022-05-17T14:39:37.556Z</time>
      </trkpt>
      <trkpt lat="49.86449" lon="4.5818">
        <ele>249</ele>
        <time>2022-05-17T14:39:38.561Z</time>
      </trkpt>
      <trkpt lat="49.86455" lon="4.58183">
        <ele>249</ele>
        <time>2022-05-17T14:39:39.525Z</time>
      </trkpt>
      <trkpt lat="49.86457" lon="4.58186">
        <ele>249</ele>
        <time>2022-05-17T14:39:40.525Z</time>
      </trkpt>
      <trkpt lat="49.86461" lon="4.58188">
        <ele>249</ele>
        <time>2022-05-17T14:39:41.558Z</time>
      </trkpt>
      <trkpt lat="49.86461" lon="4.58188">
        <ele>249</ele>
        <time>2022-05-17T14:39:42.529Z</time>
      </trkpt>
      <trkpt lat="49.86468" lon="4.5819">
        <ele>249</ele>
        <time>2022-05-17T14:39:43.542Z</time>
      </trkpt>
      <trkpt lat="49.86468" lon="4.5819">
        <ele>249</ele>
        <time>2022-05-17T14:39:44.547Z</time>
      </trkpt>
      <trkpt lat="49.86478" lon="4.58198">
        <ele>250</ele>
        <time>2022-05-17T14:39:45.547Z</time>
      </trkpt>
      <trkpt lat="49.86478" lon="4.58198">
        <ele>250</ele>
        <time>2022-05-17T14:39:46.552Z</time>
      </trkpt>
      <trkpt lat="49.86488" lon="4.58203">
        <ele>250</ele>
        <time>2022-05-17T14:39:47.529Z</time>
      </trkpt>
      <trkpt lat="49.86493" lon="4.58206">
        <ele>250</ele>
        <time>2022-05-17T14:39:48.559Z</time>
      </trkpt>
      <trkpt lat="49.86493" lon="4.58206">
        <ele>250</ele>
        <time>2022-05-17T14:39:49.540Z</time>
      </trkpt>
      <trkpt lat="49.86502" lon="4.58211">
        <ele>249</ele>
        <time>2022-05-17T14:39:50.543Z</time>
      </trkpt>
      <trkpt lat="49.86502" lon="4.58211">
        <ele>249</ele>
        <time>2022-05-17T14:39:51.559Z</time>
      </trkpt>
      <trkpt lat="49.86508" lon="4.58216">
        <ele>249</ele>
        <time>2022-05-17T14:39:52.562Z</time>
      </trkpt>
      <trkpt lat="49.86508" lon="4.58216">
        <ele>249</ele>
        <time>2022-05-17T14:39:53.528Z</time>
      </trkpt>
      <trkpt lat="49.86511" lon="4.58218">
        <ele>249</ele>
        <time>2022-05-17T14:39:54.535Z</time>
      </trkpt>
      <trkpt lat="49.86513" lon="4.58218">
        <ele>249</ele>
        <time>2022-05-17T14:39:55.531Z</time>
      </trkpt>
      <trkpt lat="49.86513" lon="4.58218">
        <ele>249</ele>
        <time>2022-05-17T14:39:56.538Z</time>
      </trkpt>
      <trkpt lat="49.86515" lon="4.58221">
        <ele>249</ele>
        <time>2022-05-17T14:39:57.538Z</time>
      </trkpt>
      <trkpt lat="49.86515" lon="4.58221">
        <ele>249</ele>
        <time>2022-05-17T14:39:58.543Z</time>
      </trkpt>
      <trkpt lat="49.86516" lon="4.58223">
        <ele>249</ele>
        <time>2022-05-17T14:39:59.544Z</time>
      </trkpt>
      <trkpt lat="49.86516" lon="4.58223">
        <ele>249</ele>
        <time>2022-05-17T14:40:00.549Z</time>
      </trkpt>
      <trkpt lat="49.86517" lon="4.58224">
        <ele>249</ele>
        <time>2022-05-17T14:40:01.535Z</time>
      </trkpt>
      <trkpt lat="49.86517" lon="4.58224">
        <ele>249</ele>
        <time>2022-05-17T14:40:02.542Z</time>
      </trkpt>
      <trkpt lat="49.86517" lon="4.58224">
        <ele>249</ele>
        <time>2022-05-17T14:40:03.549Z</time>
      </trkpt>
      <trkpt lat="49.86517" lon="4.58224">
        <ele>249</ele>
        <time>2022-05-17T14:40:04.555Z</time>
      </trkpt>
      <trkpt lat="49.86517" lon="4.58224">
        <ele>249</ele>
        <time>2022-05-17T14:40:05.560Z</time>
      </trkpt>
      <trkpt lat="49.86517" lon="4.58224">
        <ele>249</ele>
        <time>2022-05-17T14:40:06.526Z</time>
      </trkpt>
      <trkpt lat="49.86517" lon="4.58224">
        <ele>249</ele>
        <time>2022-05-17T14:40:07.552Z</time>
      </trkpt>
      <trkpt lat="49.86517" lon="4.58224">
        <ele>249</ele>
        <time>2022-05-17T14:40:08.553Z</time>
      </trkpt>
      <trkpt lat="49.86517" lon="4.58224">
        <ele>249</ele>
        <time>2022-05-17T14:40:09.555Z</time>
      </trkpt>
      <trkpt lat="49.86517" lon="4.58224">
        <ele>249</ele>
        <time>2022-05-17T14:40:10.553Z</time>
      </trkpt>
      <trkpt lat="49.86517" lon="4.58224">
        <ele>249</ele>
        <time>2022-05-17T14:40:11.524Z</time>
      </trkpt>
      <trkpt lat="49.86517" lon="4.58224">
        <ele>249</ele>
        <time>2022-05-17T14:40:12.551Z</time>
      </trkpt>
      <trkpt lat="49.86517" lon="4.58224">
        <ele>249</ele>
        <time>2022-05-17T14:40:13.553Z</time>
      </trkpt>
      <trkpt lat="49.86517" lon="4.58224">
        <ele>249</ele>
        <time>2022-05-17T14:40:14.546Z</time>
      </trkpt>
      <trkpt lat="49.86517" lon="4.58224">
        <ele>249</ele>
        <time>2022-05-17T14:40:15.563Z</time>
      </trkpt>
      <trkpt lat="49.86517" lon="4.58224">
        <ele>249</ele>
        <time>2022-05-17T14:40:16.532Z</time>
      </trkpt>
      <trkpt lat="49.86517" lon="4.58224">
        <ele>249</ele>
        <time>2022-05-17T14:40:17.552Z</time>
      </trkpt>
      <trkpt lat="49.86517" lon="4.58224">
        <ele>249</ele>
        <time>2022-05-17T14:40:18.547Z</time>
      </trkpt>
      <trkpt lat="49.86517" lon="4.58224">
        <ele>249</ele>
        <time>2022-05-17T14:40:19.524Z</time>
      </trkpt>
      <trkpt lat="49.86517" lon="4.58224">
        <ele>249</ele>
        <time>2022-05-17T14:40:20.552Z</time>
      </trkpt>
      <trkpt lat="49.86517" lon="4.58224">
        <ele>249</ele>
        <time>2022-05-17T14:40:21.558Z</time>
      </trkpt>
      <trkpt lat="49.86517" lon="4.58224">
        <ele>249</ele>
        <time>2022-05-17T14:40:22.528Z</time>
      </trkpt>
      <trkpt lat="49.86517" lon="4.58224">
        <ele>249</ele>
        <time>2022-05-17T14:40:23.537Z</time>
      </trkpt>
      <trkpt lat="49.86526" lon="4.58228">
        <ele>249</ele>
        <time>2022-05-17T14:40:24.550Z</time>
      </trkpt>
      <trkpt lat="49.86526" lon="4.58229">
        <ele>249</ele>
        <time>2022-05-17T14:40:25.552Z</time>
      </trkpt>
      <trkpt lat="49.86526" lon="4.58229">
        <ele>249</ele>
        <time>2022-05-17T14:40:26.550Z</time>
      </trkpt>
      <trkpt lat="49.86526" lon="4.58231">
        <ele>249</ele>
        <time>2022-05-17T14:40:27.537Z</time>
      </trkpt>
      <trkpt lat="49.86526" lon="4.58231">
        <ele>249</ele>
        <time>2022-05-17T14:40:28.533Z</time>
      </trkpt>
      <trkpt lat="49.86526" lon="4.58235">
        <ele>249</ele>
        <time>2022-05-17T14:40:29.525Z</time>
      </trkpt>
      <trkpt lat="49.86526" lon="4.58235">
        <ele>249</ele>
        <time>2022-05-17T14:40:30.538Z</time>
      </trkpt>
      <trkpt lat="49.86525" lon="4.58237">
        <ele>248</ele>
        <time>2022-05-17T14:40:31.544Z</time>
      </trkpt>
      <trkpt lat="49.86525" lon="4.58237">
        <ele>248</ele>
        <time>2022-05-17T14:40:32.549Z</time>
      </trkpt>
      <trkpt lat="49.86525" lon="4.58243">
        <ele>248</ele>
        <time>2022-05-17T14:40:33.545Z</time>
      </trkpt>
      <trkpt lat="49.86525" lon="4.58243">
        <ele>248</ele>
        <time>2022-05-17T14:40:34.550Z</time>
      </trkpt>
      <trkpt lat="49.86528" lon="4.58248">
        <ele>248</ele>
        <time>2022-05-17T14:40:35.556Z</time>
      </trkpt>
      <trkpt lat="49.86528" lon="4.58248">
        <ele>248</ele>
        <time>2022-05-17T14:40:36.561Z</time>
      </trkpt>
      <trkpt lat="49.86532" lon="4.58254">
        <ele>248</ele>
        <time>2022-05-17T14:40:37.525Z</time>
      </trkpt>
      <trkpt lat="49.86532" lon="4.58254">
        <ele>248</ele>
        <time>2022-05-17T14:40:38.537Z</time>
      </trkpt>
      <trkpt lat="49.86535" lon="4.58257">
        <ele>247</ele>
        <time>2022-05-17T14:40:39.528Z</time>
      </trkpt>
      <trkpt lat="49.86536" lon="4.58259">
        <ele>247</ele>
        <time>2022-05-17T14:40:40.551Z</time>
      </trkpt>
      <trkpt lat="49.86536" lon="4.58259">
        <ele>247</ele>
        <time>2022-05-17T14:40:41.556Z</time>
      </trkpt>
      <trkpt lat="49.86538" lon="4.58261">
        <ele>247</ele>
        <time>2022-05-17T14:40:42.524Z</time>
      </trkpt>
      <trkpt lat="49.86539" lon="4.58262">
        <ele>247</ele>
        <time>2022-05-17T14:40:43.532Z</time>
      </trkpt>
      <trkpt lat="49.86539" lon="4.58262">
        <ele>247</ele>
        <time>2022-05-17T14:40:44.537Z</time>
      </trkpt>
      <trkpt lat="49.86539" lon="4.58263">
        <ele>247</ele>
        <time>2022-05-17T14:40:45.546Z</time>
      </trkpt>
      <trkpt lat="49.86539" lon="4.58263">
        <ele>246</ele>
        <time>2022-05-17T14:40:46.552Z</time>
      </trkpt>
      <trkpt lat="49.86539" lon="4.58263">
        <ele>246</ele>
        <time>2022-05-17T14:40:47.556Z</time>
      </trkpt>
      <trkpt lat="49.86539" lon="4.58263">
        <ele>246</ele>
        <time>2022-05-17T14:40:48.550Z</time>
      </trkpt>
      <trkpt lat="49.86539" lon="4.58263">
        <ele>246</ele>
        <time>2022-05-17T14:40:49.553Z</time>
      </trkpt>
      <trkpt lat="49.86539" lon="4.58263">
        <ele>246</ele>
        <time>2022-05-17T14:40:50.547Z</time>
      </trkpt>
      <trkpt lat="49.86539" lon="4.58263">
        <ele>246</ele>
        <time>2022-05-17T14:40:51.538Z</time>
      </trkpt>
      <trkpt lat="49.86539" lon="4.58263">
        <ele>246</ele>
        <time>2022-05-17T14:40:52.554Z</time>
      </trkpt>
      <trkpt lat="49.86539" lon="4.58265">
        <ele>246</ele>
        <time>2022-05-17T14:40:53.553Z</time>
      </trkpt>
      <trkpt lat="49.86539" lon="4.58266">
        <ele>246</ele>
        <time>2022-05-17T14:40:54.551Z</time>
      </trkpt>
      <trkpt lat="49.86539" lon="4.58266">
        <ele>246</ele>
        <time>2022-05-17T14:40:55.547Z</time>
      </trkpt>
      <trkpt lat="49.86539" lon="4.58267">
        <ele>246</ele>
        <time>2022-05-17T14:40:56.531Z</time>
      </trkpt>
      <trkpt lat="49.86538" lon="4.58268">
        <ele>246</ele>
        <time>2022-05-17T14:40:57.552Z</time>
      </trkpt>
      <trkpt lat="49.86538" lon="4.58268">
        <ele>246</ele>
        <time>2022-05-17T14:40:58.559Z</time>
      </trkpt>
      <trkpt lat="49.86538" lon="4.5827">
        <ele>246</ele>
        <time>2022-05-17T14:40:59.555Z</time>
      </trkpt>
      <trkpt lat="49.86538" lon="4.5827">
        <ele>246</ele>
        <time>2022-05-17T14:41:00.555Z</time>
      </trkpt>
      <trkpt lat="49.86537" lon="4.58271">
        <ele>246</ele>
        <time>2022-05-17T14:41:01.553Z</time>
      </trkpt>
      <trkpt lat="49.86537" lon="4.58271">
        <ele>246</ele>
        <time>2022-05-17T14:41:02.546Z</time>
      </trkpt>
      <trkpt lat="49.86537" lon="4.58272">
        <ele>246</ele>
        <time>2022-05-17T14:41:03.562Z</time>
      </trkpt>
      <trkpt lat="49.86537" lon="4.58272">
        <ele>246</ele>
        <time>2022-05-17T14:41:04.545Z</time>
      </trkpt>
      <trkpt lat="49.86537" lon="4.58272">
        <ele>246</ele>
        <time>2022-05-17T14:41:05.561Z</time>
      </trkpt>
      <trkpt lat="49.86537" lon="4.58272">
        <ele>246</ele>
        <time>2022-05-17T14:41:06.546Z</time>
      </trkpt>
      <trkpt lat="49.86542" lon="4.58275">
        <ele>245</ele>
        <time>2022-05-17T14:41:07.531Z</time>
      </trkpt>
      <trkpt lat="49.86542" lon="4.58275">
        <ele>245</ele>
        <time>2022-05-17T14:41:08.549Z</time>
      </trkpt>
      <trkpt lat="49.86548" lon="4.58278">
        <ele>245</ele>
        <time>2022-05-17T14:41:09.555Z</time>
      </trkpt>
      <trkpt lat="49.86548" lon="4.58278">
        <ele>245</ele>
        <time>2022-05-17T14:41:10.545Z</time>
      </trkpt>
      <trkpt lat="49.86552" lon="4.58282">
        <ele>244</ele>
        <time>2022-05-17T14:41:11.529Z</time>
      </trkpt>
      <trkpt lat="49.86552" lon="4.58282">
        <ele>244</ele>
        <time>2022-05-17T14:41:12.545Z</time>
      </trkpt>
      <trkpt lat="49.86555" lon="4.58285">
        <ele>244</ele>
        <time>2022-05-17T14:41:13.535Z</time>
      </trkpt>
      <trkpt lat="49.86555" lon="4.58285">
        <ele>244</ele>
        <time>2022-05-17T14:41:14.545Z</time>
      </trkpt>
      <trkpt lat="49.86556" lon="4.58286">
        <ele>244</ele>
        <time>2022-05-17T14:41:15.545Z</time>
      </trkpt>
      <trkpt lat="49.86557" lon="4.58287">
        <ele>244</ele>
        <time>2022-05-17T14:41:16.543Z</time>
      </trkpt>
      <trkpt lat="49.86557" lon="4.58287">
        <ele>244</ele>
        <time>2022-05-17T14:41:17.559Z</time>
      </trkpt>
      <trkpt lat="49.86558" lon="4.58288">
        <ele>244</ele>
        <time>2022-05-17T14:41:18.559Z</time>
      </trkpt>
      <trkpt lat="49.86558" lon="4.58287">
        <ele>244</ele>
        <time>2022-05-17T14:41:19.545Z</time>
      </trkpt>
      <trkpt lat="49.86558" lon="4.58287">
        <ele>244</ele>
        <time>2022-05-17T14:41:20.556Z</time>
      </trkpt>
      <trkpt lat="49.8656" lon="4.58289">
        <ele>244</ele>
        <time>2022-05-17T14:41:21.540Z</time>
      </trkpt>
      <trkpt lat="49.8656" lon="4.58289">
        <ele>244</ele>
        <time>2022-05-17T14:41:22.561Z</time>
      </trkpt>
      <trkpt lat="49.8656" lon="4.58289">
        <ele>244</ele>
        <time>2022-05-17T14:41:23.529Z</time>
      </trkpt>
      <trkpt lat="49.86561" lon="4.58289">
        <ele>244</ele>
        <time>2022-05-17T14:41:24.541Z</time>
      </trkpt>
      <trkpt lat="49.86561" lon="4.58289">
        <ele>244</ele>
        <time>2022-05-17T14:41:25.547Z</time>
      </trkpt>
      <trkpt lat="49.86561" lon="4.58289">
        <ele>244</ele>
        <time>2022-05-17T14:41:26.550Z</time>
      </trkpt>
      <trkpt lat="49.86562" lon="4.58292">
        <ele>244</ele>
        <time>2022-05-17T14:41:27.552Z</time>
      </trkpt>
      <trkpt lat="49.86562" lon="4.58293">
        <ele>244</ele>
        <time>2022-05-17T14:41:28.553Z</time>
      </trkpt>
      <trkpt lat="49.86562" lon="4.58293">
        <ele>244</ele>
        <time>2022-05-17T14:41:29.559Z</time>
      </trkpt>
      <trkpt lat="49.86562" lon="4.58297">
        <ele>244</ele>
        <time>2022-05-17T14:41:30.550Z</time>
      </trkpt>
      <trkpt lat="49.86562" lon="4.58298">
        <ele>244</ele>
        <time>2022-05-17T14:41:31.525Z</time>
      </trkpt>
      <trkpt lat="49.86562" lon="4.58298">
        <ele>244</ele>
        <time>2022-05-17T14:41:32.533Z</time>
      </trkpt>
      <trkpt lat="49.86563" lon="4.58302">
        <ele>244</ele>
        <time>2022-05-17T14:41:33.560Z</time>
      </trkpt>
      <trkpt lat="49.86563" lon="4.58303">
        <ele>244</ele>
        <time>2022-05-17T14:41:34.557Z</time>
      </trkpt>
      <trkpt lat="49.86564" lon="4.58306">
        <ele>244</ele>
        <time>2022-05-17T14:41:35.558Z</time>
      </trkpt>
      <trkpt lat="49.86564" lon="4.58306">
        <ele>244</ele>
        <time>2022-05-17T14:41:36.563Z</time>
      </trkpt>
      <trkpt lat="49.86565" lon="4.5831">
        <ele>244</ele>
        <time>2022-05-17T14:41:37.561Z</time>
      </trkpt>
      <trkpt lat="49.86565" lon="4.5831">
        <ele>244</ele>
        <time>2022-05-17T14:41:38.529Z</time>
      </trkpt>
      <trkpt lat="49.86564" lon="4.58314">
        <ele>244</ele>
        <time>2022-05-17T14:41:39.534Z</time>
      </trkpt>
      <trkpt lat="49.86565" lon="4.58316">
        <ele>245</ele>
        <time>2022-05-17T14:41:40.539Z</time>
      </trkpt>
      <trkpt lat="49.86565" lon="4.58316">
        <ele>245</ele>
        <time>2022-05-17T14:41:41.544Z</time>
      </trkpt>
      <trkpt lat="49.86566" lon="4.58318">
        <ele>245</ele>
        <time>2022-05-17T14:41:42.562Z</time>
      </trkpt>
      <trkpt lat="49.86566" lon="4.5832">
        <ele>245</ele>
        <time>2022-05-17T14:41:43.531Z</time>
      </trkpt>
      <trkpt lat="49.86566" lon="4.5832">
        <ele>245</ele>
        <time>2022-05-17T14:41:44.536Z</time>
      </trkpt>
      <trkpt lat="49.86568" lon="4.58323">
        <ele>245</ele>
        <time>2022-05-17T14:41:45.547Z</time>
      </trkpt>
      <trkpt lat="49.86569" lon="4.58325">
        <ele>246</ele>
        <time>2022-05-17T14:41:46.526Z</time>
      </trkpt>
      <trkpt lat="49.86569" lon="4.58325">
        <ele>246</ele>
        <time>2022-05-17T14:41:47.533Z</time>
      </trkpt>
      <trkpt lat="49.86572" lon="4.5833">
        <ele>246</ele>
        <time>2022-05-17T14:41:48.537Z</time>
      </trkpt>
      <trkpt lat="49.86573" lon="4.58333">
        <ele>246</ele>
        <time>2022-05-17T14:41:49.552Z</time>
      </trkpt>
      <trkpt lat="49.86573" lon="4.58333">
        <ele>246</ele>
        <time>2022-05-17T14:41:50.543Z</time>
      </trkpt>
      <trkpt lat="49.86578" lon="4.5834">
        <ele>246</ele>
        <time>2022-05-17T14:41:51.536Z</time>
      </trkpt>
      <trkpt lat="49.8658" lon="4.58344">
        <ele>246</ele>
        <time>2022-05-17T14:41:52.562Z</time>
      </trkpt>
      <trkpt lat="49.8658" lon="4.58344">
        <ele>246</ele>
        <time>2022-05-17T14:41:53.527Z</time>
      </trkpt>
      <trkpt lat="49.86586" lon="4.58352">
        <ele>246</ele>
        <time>2022-05-17T14:41:54.524Z</time>
      </trkpt>
      <trkpt lat="49.86589" lon="4.58356">
        <ele>246</ele>
        <time>2022-05-17T14:41:55.542Z</time>
      </trkpt>
      <trkpt lat="49.86589" lon="4.58356">
        <ele>246</ele>
        <time>2022-05-17T14:41:56.547Z</time>
      </trkpt>
      <trkpt lat="49.86593" lon="4.58363">
        <ele>246</ele>
        <time>2022-05-17T14:41:57.557Z</time>
      </trkpt>
      <trkpt lat="49.86595" lon="4.58367">
        <ele>245</ele>
        <time>2022-05-17T14:41:58.545Z</time>
      </trkpt>
      <trkpt lat="49.86596" lon="4.5837">
        <ele>245</ele>
        <time>2022-05-17T14:41:59.530Z</time>
      </trkpt>
      <trkpt lat="49.86596" lon="4.5837">
        <ele>245</ele>
        <time>2022-05-17T14:42:00.546Z</time>
      </trkpt>
      <trkpt lat="49.86599" lon="4.58379">
        <ele>245</ele>
        <time>2022-05-17T14:42:01.538Z</time>
      </trkpt>
      <trkpt lat="49.86599" lon="4.58379">
        <ele>245</ele>
        <time>2022-05-17T14:42:02.550Z</time>
      </trkpt>
      <trkpt lat="49.86599" lon="4.58387">
        <ele>245</ele>
        <time>2022-05-17T14:42:03.532Z</time>
      </trkpt>
      <trkpt lat="49.866" lon="4.58392">
        <ele>245</ele>
        <time>2022-05-17T14:42:04.528Z</time>
      </trkpt>
      <trkpt lat="49.866" lon="4.58396">
        <ele>245</ele>
        <time>2022-05-17T14:42:05.529Z</time>
      </trkpt>
      <trkpt lat="49.86601" lon="4.584">
        <ele>245</ele>
        <time>2022-05-17T14:42:06.546Z</time>
      </trkpt>
      <trkpt lat="49.86601" lon="4.584">
        <ele>245</ele>
        <time>2022-05-17T14:42:07.551Z</time>
      </trkpt>
      <trkpt lat="49.86601" lon="4.58409">
        <ele>245</ele>
        <time>2022-05-17T14:42:08.550Z</time>
      </trkpt>
      <trkpt lat="49.86601" lon="4.58409">
        <ele>245</ele>
        <time>2022-05-17T14:42:09.562Z</time>
      </trkpt>
      <trkpt lat="49.86602" lon="4.58416">
        <ele>245</ele>
        <time>2022-05-17T14:42:10.529Z</time>
      </trkpt>
      <trkpt lat="49.86602" lon="4.58416">
        <ele>245</ele>
        <time>2022-05-17T14:42:11.538Z</time>
      </trkpt>
      <trkpt lat="49.86608" lon="4.58427">
        <ele>245</ele>
        <time>2022-05-17T14:42:12.533Z</time>
      </trkpt>
      <trkpt lat="49.86608" lon="4.58427">
        <ele>245</ele>
        <time>2022-05-17T14:42:13.541Z</time>
      </trkpt>
      <trkpt lat="49.86612" lon="4.58433">
        <ele>245</ele>
        <time>2022-05-17T14:42:14.537Z</time>
      </trkpt>
      <trkpt lat="49.86617" lon="4.58437">
        <ele>245</ele>
        <time>2022-05-17T14:42:15.561Z</time>
      </trkpt>
      <trkpt lat="49.86617" lon="4.58437">
        <ele>245</ele>
        <time>2022-05-17T14:42:16.527Z</time>
      </trkpt>
      <trkpt lat="49.86621" lon="4.58445">
        <ele>245</ele>
        <time>2022-05-17T14:42:17.524Z</time>
      </trkpt>
      <trkpt lat="49.86621" lon="4.58445">
        <ele>245</ele>
        <time>2022-05-17T14:42:18.540Z</time>
      </trkpt>
      <trkpt lat="49.86627" lon="4.58451">
        <ele>245</ele>
        <time>2022-05-17T14:42:19.542Z</time>
      </trkpt>
      <trkpt lat="49.86627" lon="4.58451">
        <ele>245</ele>
        <time>2022-05-17T14:42:20.548Z</time>
      </trkpt>
      <trkpt lat="49.86633" lon="4.58459">
        <ele>245</ele>
        <time>2022-05-17T14:42:21.575Z</time>
      </trkpt>
      <trkpt lat="49.86638" lon="4.58463">
        <ele>245</ele>
        <time>2022-05-17T14:42:22.550Z</time>
      </trkpt>
      <trkpt lat="49.86644" lon="4.58468">
        <ele>244</ele>
        <time>2022-05-17T14:42:23.531Z</time>
      </trkpt>
      <trkpt lat="49.86644" lon="4.58468">
        <ele>244</ele>
        <time>2022-05-17T14:42:24.539Z</time>
      </trkpt>
      <trkpt lat="49.86652" lon="4.58477">
        <ele>244</ele>
        <time>2022-05-17T14:42:25.541Z</time>
      </trkpt>
      <trkpt lat="49.86655" lon="4.5848">
        <ele>243</ele>
        <time>2022-05-17T14:42:26.550Z</time>
      </trkpt>
      <trkpt lat="49.86655" lon="4.5848">
        <ele>243</ele>
        <time>2022-05-17T14:42:27.556Z</time>
      </trkpt>
      <trkpt lat="49.86659" lon="4.58489">
        <ele>243</ele>
        <time>2022-05-17T14:42:28.524Z</time>
      </trkpt>
      <trkpt lat="49.86659" lon="4.58489">
        <ele>243</ele>
        <time>2022-05-17T14:42:29.538Z</time>
      </trkpt>
      <trkpt lat="49.8666" lon="4.58501">
        <ele>243</ele>
        <time>2022-05-17T14:42:30.555Z</time>
      </trkpt>
      <trkpt lat="49.86659" lon="4.58506">
        <ele>243</ele>
        <time>2022-05-17T14:42:31.555Z</time>
      </trkpt>
      <trkpt lat="49.86659" lon="4.58506">
        <ele>243</ele>
        <time>2022-05-17T14:42:32.562Z</time>
      </trkpt>
      <trkpt lat="49.86659" lon="4.58517">
        <ele>243</ele>
        <time>2022-05-17T14:42:33.528Z</time>
      </trkpt>
      <trkpt lat="49.86659" lon="4.58523">
        <ele>243</ele>
        <time>2022-05-17T14:42:34.524Z</time>
      </trkpt>
      <trkpt lat="49.86659" lon="4.58529">
        <ele>243</ele>
        <time>2022-05-17T14:42:35.545Z</time>
      </trkpt>
      <trkpt lat="49.86659" lon="4.58529">
        <ele>243</ele>
        <time>2022-05-17T14:42:36.551Z</time>
      </trkpt>
      <trkpt lat="49.86661" lon="4.58541">
        <ele>243</ele>
        <time>2022-05-17T14:42:37.540Z</time>
      </trkpt>
      <trkpt lat="49.86661" lon="4.58541">
        <ele>243</ele>
        <time>2022-05-17T14:42:38.555Z</time>
      </trkpt>
      <trkpt lat="49.86663" lon="4.58551">
        <ele>243</ele>
        <time>2022-05-17T14:42:39.535Z</time>
      </trkpt>
      <trkpt lat="49.86664" lon="4.58558">
        <ele>243</ele>
        <time>2022-05-17T14:42:40.560Z</time>
      </trkpt>
      <trkpt lat="49.86665" lon="4.58562">
        <ele>243</ele>
        <time>2022-05-17T14:42:41.545Z</time>
      </trkpt>
      <trkpt lat="49.86665" lon="4.58562">
        <ele>243</ele>
        <time>2022-05-17T14:42:42.550Z</time>
      </trkpt>
      <trkpt lat="49.86671" lon="4.58575">
        <ele>243</ele>
        <time>2022-05-17T14:42:43.542Z</time>
      </trkpt>
      <trkpt lat="49.86671" lon="4.58575">
        <ele>243</ele>
        <time>2022-05-17T14:42:44.548Z</time>
      </trkpt>
      <trkpt lat="49.86671" lon="4.58586">
        <ele>243</ele>
        <time>2022-05-17T14:42:45.546Z</time>
      </trkpt>
      <trkpt lat="49.86672" lon="4.58591">
        <ele>243</ele>
        <time>2022-05-17T14:42:46.559Z</time>
      </trkpt>
      <trkpt lat="49.86674" lon="4.58596">
        <ele>243</ele>
        <time>2022-05-17T14:42:47.535Z</time>
      </trkpt>
      <trkpt lat="49.86674" lon="4.58596">
        <ele>243</ele>
        <time>2022-05-17T14:42:48.546Z</time>
      </trkpt>
      <trkpt lat="49.86676" lon="4.58607">
        <ele>243</ele>
        <time>2022-05-17T14:42:49.545Z</time>
      </trkpt>
      <trkpt lat="49.86676" lon="4.58607">
        <ele>243</ele>
        <time>2022-05-17T14:42:50.524Z</time>
      </trkpt>
      <trkpt lat="49.8668" lon="4.58619">
        <ele>243</ele>
        <time>2022-05-17T14:42:51.535Z</time>
      </trkpt>
      <trkpt lat="49.8668" lon="4.58619">
        <ele>243</ele>
        <time>2022-05-17T14:42:52.540Z</time>
      </trkpt>
      <trkpt lat="49.8668" lon="4.58632">
        <ele>243</ele>
        <time>2022-05-17T14:42:53.537Z</time>
      </trkpt>
      <trkpt lat="49.8668" lon="4.58632">
        <ele>243</ele>
        <time>2022-05-17T14:42:54.542Z</time>
      </trkpt>
      <trkpt lat="49.86684" lon="4.58646">
        <ele>243</ele>
        <time>2022-05-17T14:42:55.560Z</time>
      </trkpt>
      <trkpt lat="49.86684" lon="4.58646">
        <ele>243</ele>
        <time>2022-05-17T14:42:56.524Z</time>
      </trkpt>
      <trkpt lat="49.86687" lon="4.58657">
        <ele>243</ele>
        <time>2022-05-17T14:42:57.545Z</time>
      </trkpt>
      <trkpt lat="49.86687" lon="4.58657">
        <ele>243</ele>
        <time>2022-05-17T14:42:58.550Z</time>
      </trkpt>
      <trkpt lat="49.86687" lon="4.58668">
        <ele>243</ele>
        <time>2022-05-17T14:42:59.557Z</time>
      </trkpt>
      <trkpt lat="49.86687" lon="4.58668">
        <ele>243</ele>
        <time>2022-05-17T14:43:00.557Z</time>
      </trkpt>
      <trkpt lat="49.86686" lon="4.5868">
        <ele>243</ele>
        <time>2022-05-17T14:43:01.531Z</time>
      </trkpt>
      <trkpt lat="49.86686" lon="4.5868">
        <ele>243</ele>
        <time>2022-05-17T14:43:02.536Z</time>
      </trkpt>
      <trkpt lat="49.86683" lon="4.58691">
        <ele>243</ele>
        <time>2022-05-17T14:43:03.548Z</time>
      </trkpt>
      <trkpt lat="49.86683" lon="4.58691">
        <ele>243</ele>
        <time>2022-05-17T14:43:04.524Z</time>
      </trkpt>
      <trkpt lat="49.86683" lon="4.58698">
        <ele>243</ele>
        <time>2022-05-17T14:43:05.551Z</time>
      </trkpt>
      <trkpt lat="49.86685" lon="4.58701">
        <ele>243</ele>
        <time>2022-05-17T14:43:06.550Z</time>
      </trkpt>
      <trkpt lat="49.86686" lon="4.58705">
        <ele>243</ele>
        <time>2022-05-17T14:43:07.553Z</time>
      </trkpt>
      <trkpt lat="49.86686" lon="4.58705">
        <ele>243</ele>
        <time>2022-05-17T14:43:08.529Z</time>
      </trkpt>
      <trkpt lat="49.86689" lon="4.58711">
        <ele>243</ele>
        <time>2022-05-17T14:43:09.525Z</time>
      </trkpt>
      <trkpt lat="49.8669" lon="4.58716">
        <ele>243</ele>
        <time>2022-05-17T14:43:10.540Z</time>
      </trkpt>
      <trkpt lat="49.8669" lon="4.58721">
        <ele>243</ele>
        <time>2022-05-17T14:43:11.536Z</time>
      </trkpt>
      <trkpt lat="49.8669" lon="4.58721">
        <ele>243</ele>
        <time>2022-05-17T14:43:12.549Z</time>
      </trkpt>
      <trkpt lat="49.8669" lon="4.58733">
        <ele>243</ele>
        <time>2022-05-17T14:43:13.535Z</time>
      </trkpt>
      <trkpt lat="49.8669" lon="4.58733">
        <ele>243</ele>
        <time>2022-05-17T14:43:14.552Z</time>
      </trkpt>
      <trkpt lat="49.86696" lon="4.58746">
        <ele>243</ele>
        <time>2022-05-17T14:43:15.556Z</time>
      </trkpt>
      <trkpt lat="49.86696" lon="4.58746">
        <ele>243</ele>
        <time>2022-05-17T14:43:16.561Z</time>
      </trkpt>
      <trkpt lat="49.86701" lon="4.58755">
        <ele>243</ele>
        <time>2022-05-17T14:43:17.555Z</time>
      </trkpt>
      <trkpt lat="49.86701" lon="4.58755">
        <ele>243</ele>
        <time>2022-05-17T14:43:18.539Z</time>
      </trkpt>
      <trkpt lat="49.86705" lon="4.58763">
        <ele>243</ele>
        <time>2022-05-17T14:43:19.556Z</time>
      </trkpt>
      <trkpt lat="49.86705" lon="4.58763">
        <ele>243</ele>
        <time>2022-05-17T14:43:20.537Z</time>
      </trkpt>
      <trkpt lat="49.86708" lon="4.58773">
        <ele>242</ele>
        <time>2022-05-17T14:43:21.562Z</time>
      </trkpt>
      <trkpt lat="49.8671" lon="4.58778">
        <ele>242</ele>
        <time>2022-05-17T14:43:22.545Z</time>
      </trkpt>
      <trkpt lat="49.86712" lon="4.58783">
        <ele>242</ele>
        <time>2022-05-17T14:43:23.558Z</time>
      </trkpt>
      <trkpt lat="49.86712" lon="4.58783">
        <ele>242</ele>
        <time>2022-05-17T14:43:24.563Z</time>
      </trkpt>
      <trkpt lat="49.86716" lon="4.58792">
        <ele>242</ele>
        <time>2022-05-17T14:43:25.549Z</time>
      </trkpt>
      <trkpt lat="49.86716" lon="4.58792">
        <ele>242</ele>
        <time>2022-05-17T14:43:26.554Z</time>
      </trkpt>
      <trkpt lat="49.86718" lon="4.58804">
        <ele>241</ele>
        <time>2022-05-17T14:43:27.549Z</time>
      </trkpt>
      <trkpt lat="49.86718" lon="4.58804">
        <ele>241</ele>
        <time>2022-05-17T14:43:28.562Z</time>
      </trkpt>
      <trkpt lat="49.8672" lon="4.58817">
        <ele>241</ele>
        <time>2022-05-17T14:43:29.551Z</time>
      </trkpt>
      <trkpt lat="49.8672" lon="4.58817">
        <ele>241</ele>
        <time>2022-05-17T14:43:30.556Z</time>
      </trkpt>
      <trkpt lat="49.86723" lon="4.58829">
        <ele>241</ele>
        <time>2022-05-17T14:43:31.548Z</time>
      </trkpt>
      <trkpt lat="49.86723" lon="4.58829">
        <ele>241</ele>
        <time>2022-05-17T14:43:32.553Z</time>
      </trkpt>
      <trkpt lat="49.86726" lon="4.58839">
        <ele>241</ele>
        <time>2022-05-17T14:43:33.545Z</time>
      </trkpt>
      <trkpt lat="49.86727" lon="4.58844">
        <ele>241</ele>
        <time>2022-05-17T14:43:34.525Z</time>
      </trkpt>
      <trkpt lat="49.86727" lon="4.58844">
        <ele>241</ele>
        <time>2022-05-17T14:43:35.536Z</time>
      </trkpt>
      <trkpt lat="49.8673" lon="4.58859">
        <ele>241</ele>
        <time>2022-05-17T14:43:36.527Z</time>
      </trkpt>
      <trkpt lat="49.8673" lon="4.58859">
        <ele>241</ele>
        <time>2022-05-17T14:43:37.541Z</time>
      </trkpt>
      <trkpt lat="49.86729" lon="4.58874">
        <ele>241</ele>
        <time>2022-05-17T14:43:38.555Z</time>
      </trkpt>
      <trkpt lat="49.86731" lon="4.5888">
        <ele>240</ele>
        <time>2022-05-17T14:43:39.563Z</time>
      </trkpt>
      <trkpt lat="49.86733" lon="4.58886">
        <ele>240</ele>
        <time>2022-05-17T14:43:40.538Z</time>
      </trkpt>
      <trkpt lat="49.86734" lon="4.58892">
        <ele>240</ele>
        <time>2022-05-17T14:43:41.550Z</time>
      </trkpt>
      <trkpt lat="49.86734" lon="4.58892">
        <ele>240</ele>
        <time>2022-05-17T14:43:42.555Z</time>
      </trkpt>
      <trkpt lat="49.86736" lon="4.58902">
        <ele>240</ele>
        <time>2022-05-17T14:43:43.529Z</time>
      </trkpt>
      <trkpt lat="49.86736" lon="4.58902">
        <ele>240</ele>
        <time>2022-05-17T14:43:44.538Z</time>
      </trkpt>
      <trkpt lat="49.86739" lon="4.58915">
        <ele>240</ele>
        <time>2022-05-17T14:43:45.556Z</time>
      </trkpt>
      <trkpt lat="49.86739" lon="4.58915">
        <ele>240</ele>
        <time>2022-05-17T14:43:46.539Z</time>
      </trkpt>
      <trkpt lat="49.86744" lon="4.58929">
        <ele>239</ele>
        <time>2022-05-17T14:43:47.547Z</time>
      </trkpt>
      <trkpt lat="49.86744" lon="4.58929">
        <ele>239</ele>
        <time>2022-05-17T14:43:48.553Z</time>
      </trkpt>
      <trkpt lat="49.86746" lon="4.58941">
        <ele>239</ele>
        <time>2022-05-17T14:43:49.563Z</time>
      </trkpt>
      <trkpt lat="49.86746" lon="4.58941">
        <ele>239</ele>
        <time>2022-05-17T14:43:50.538Z</time>
      </trkpt>
      <trkpt lat="49.86746" lon="4.58948">
        <ele>238</ele>
        <time>2022-05-17T14:43:51.560Z</time>
      </trkpt>
      <trkpt lat="49.86748" lon="4.58951">
        <ele>238</ele>
        <time>2022-05-17T14:43:52.556Z</time>
      </trkpt>
      <trkpt lat="49.86748" lon="4.58951">
        <ele>238</ele>
        <time>2022-05-17T14:43:53.562Z</time>
      </trkpt>
      <trkpt lat="49.8675" lon="4.58956">
        <ele>238</ele>
        <time>2022-05-17T14:43:54.555Z</time>
      </trkpt>
      <trkpt lat="49.8675" lon="4.58959">
        <ele>238</ele>
        <time>2022-05-17T14:43:55.555Z</time>
      </trkpt>
      <trkpt lat="49.8675" lon="4.58959">
        <ele>238</ele>
        <time>2022-05-17T14:43:56.560Z</time>
      </trkpt>
      <trkpt lat="49.8675" lon="4.58966">
        <ele>238</ele>
        <time>2022-05-17T14:43:57.538Z</time>
      </trkpt>
      <trkpt lat="49.8675" lon="4.58966">
        <ele>238</ele>
        <time>2022-05-17T14:43:58.543Z</time>
      </trkpt>
      <trkpt lat="49.86748" lon="4.58972">
        <ele>239</ele>
        <time>2022-05-17T14:43:59.539Z</time>
      </trkpt>
      <trkpt lat="49.86748" lon="4.58972">
        <ele>239</ele>
        <time>2022-05-17T14:44:00.545Z</time>
      </trkpt>
      <trkpt lat="49.86747" lon="4.58977">
        <ele>239</ele>
        <time>2022-05-17T14:44:01.525Z</time>
      </trkpt>
      <trkpt lat="49.86747" lon="4.58977">
        <ele>239</ele>
        <time>2022-05-17T14:44:02.546Z</time>
      </trkpt>
      <trkpt lat="49.86749" lon="4.58984">
        <ele>239</ele>
        <time>2022-05-17T14:44:03.525Z</time>
      </trkpt>
      <trkpt lat="49.86749" lon="4.58984">
        <ele>239</ele>
        <time>2022-05-17T14:44:04.537Z</time>
      </trkpt>
      <trkpt lat="49.8675" lon="4.58991">
        <ele>239</ele>
        <time>2022-05-17T14:44:05.548Z</time>
      </trkpt>
      <trkpt lat="49.86751" lon="4.58995">
        <ele>239</ele>
        <time>2022-05-17T14:44:06.524Z</time>
      </trkpt>
      <trkpt lat="49.86753" lon="4.59">
        <ele>239</ele>
        <time>2022-05-17T14:44:07.537Z</time>
      </trkpt>
      <trkpt lat="49.86753" lon="4.59">
        <ele>239</ele>
        <time>2022-05-17T14:44:08.542Z</time>
      </trkpt>
      <trkpt lat="49.86755" lon="4.59011">
        <ele>238</ele>
        <time>2022-05-17T14:44:09.555Z</time>
      </trkpt>
      <trkpt lat="49.86755" lon="4.59011">
        <ele>238</ele>
        <time>2022-05-17T14:44:10.560Z</time>
      </trkpt>
      <trkpt lat="49.86756" lon="4.59021">
        <ele>238</ele>
        <time>2022-05-17T14:44:11.528Z</time>
      </trkpt>
      <trkpt lat="49.86756" lon="4.59021">
        <ele>238</ele>
        <time>2022-05-17T14:44:12.532Z</time>
      </trkpt>
      <trkpt lat="49.86757" lon="4.5903">
        <ele>238</ele>
        <time>2022-05-17T14:44:13.526Z</time>
      </trkpt>
      <trkpt lat="49.86757" lon="4.5903">
        <ele>238</ele>
        <time>2022-05-17T14:44:14.539Z</time>
      </trkpt>
      <trkpt lat="49.86761" lon="4.59044">
        <ele>238</ele>
        <time>2022-05-17T14:44:15.551Z</time>
      </trkpt>
      <trkpt lat="49.86762" lon="4.59049">
        <ele>238</ele>
        <time>2022-05-17T14:44:16.555Z</time>
      </trkpt>
      <trkpt lat="49.86762" lon="4.59049">
        <ele>238</ele>
        <time>2022-05-17T14:44:17.535Z</time>
      </trkpt>
      <trkpt lat="49.86762" lon="4.59057">
        <ele>238</ele>
        <time>2022-05-17T14:44:18.550Z</time>
      </trkpt>
      <trkpt lat="49.86761" lon="4.59061">
        <ele>238</ele>
        <time>2022-05-17T14:44:19.557Z</time>
      </trkpt>
      <trkpt lat="49.86761" lon="4.59061">
        <ele>238</ele>
        <time>2022-05-17T14:44:20.527Z</time>
      </trkpt>
      <trkpt lat="49.86762" lon="4.5907">
        <ele>237</ele>
        <time>2022-05-17T14:44:21.524Z</time>
      </trkpt>
      <trkpt lat="49.86764" lon="4.59076">
        <ele>237</ele>
        <time>2022-05-17T14:44:22.545Z</time>
      </trkpt>
      <trkpt lat="49.86765" lon="4.59082">
        <ele>237</ele>
        <time>2022-05-17T14:44:23.551Z</time>
      </trkpt>
      <trkpt lat="49.86765" lon="4.59082">
        <ele>237</ele>
        <time>2022-05-17T14:44:24.556Z</time>
      </trkpt>
      <trkpt lat="49.86767" lon="4.59094">
        <ele>237</ele>
        <time>2022-05-17T14:44:25.530Z</time>
      </trkpt>
      <trkpt lat="49.86767" lon="4.59094">
        <ele>237</ele>
        <time>2022-05-17T14:44:26.547Z</time>
      </trkpt>
      <trkpt lat="49.86768" lon="4.59105">
        <ele>237</ele>
        <time>2022-05-17T14:44:27.527Z</time>
      </trkpt>
      <trkpt lat="49.86768" lon="4.59105">
        <ele>237</ele>
        <time>2022-05-17T14:44:28.538Z</time>
      </trkpt>
      <trkpt lat="49.86769" lon="4.59114">
        <ele>236</ele>
        <time>2022-05-17T14:44:29.545Z</time>
      </trkpt>
      <trkpt lat="49.86769" lon="4.59114">
        <ele>236</ele>
        <time>2022-05-17T14:44:30.556Z</time>
      </trkpt>
      <trkpt lat="49.86771" lon="4.59123">
        <ele>236</ele>
        <time>2022-05-17T14:44:31.544Z</time>
      </trkpt>
      <trkpt lat="49.86771" lon="4.59123">
        <ele>236</ele>
        <time>2022-05-17T14:44:32.549Z</time>
      </trkpt>
      <trkpt lat="49.86772" lon="4.59134">
        <ele>236</ele>
        <time>2022-05-17T14:44:33.544Z</time>
      </trkpt>
      <trkpt lat="49.86774" lon="4.5914">
        <ele>236</ele>
        <time>2022-05-17T14:44:34.543Z</time>
      </trkpt>
      <trkpt lat="49.86774" lon="4.5914">
        <ele>236</ele>
        <time>2022-05-17T14:44:35.549Z</time>
      </trkpt>
      <trkpt lat="49.86777" lon="4.59153">
        <ele>235</ele>
        <time>2022-05-17T14:44:36.558Z</time>
      </trkpt>
      <trkpt lat="49.86778" lon="4.59159">
        <ele>234</ele>
        <time>2022-05-17T14:44:37.525Z</time>
      </trkpt>
      <trkpt lat="49.86778" lon="4.59159">
        <ele>234</ele>
        <time>2022-05-17T14:44:38.533Z</time>
      </trkpt>
      <trkpt lat="49.8678" lon="4.5917">
        <ele>234</ele>
        <time>2022-05-17T14:44:39.528Z</time>
      </trkpt>
      <trkpt lat="49.86782" lon="4.59175">
        <ele>234</ele>
        <time>2022-05-17T14:44:40.548Z</time>
      </trkpt>
      <trkpt lat="49.86782" lon="4.59175">
        <ele>234</ele>
        <time>2022-05-17T14:44:41.553Z</time>
      </trkpt>
      <trkpt lat="49.86782" lon="4.59188">
        <ele>233</ele>
        <time>2022-05-17T14:44:42.553Z</time>
      </trkpt>
      <trkpt lat="49.86782" lon="4.59194">
        <ele>233</ele>
        <time>2022-05-17T14:44:43.524Z</time>
      </trkpt>
      <trkpt lat="49.86782" lon="4.59194">
        <ele>233</ele>
        <time>2022-05-17T14:44:44.533Z</time>
      </trkpt>
      <trkpt lat="49.86785" lon="4.59203">
        <ele>233</ele>
        <time>2022-05-17T14:44:45.544Z</time>
      </trkpt>
      <trkpt lat="49.86785" lon="4.59203">
        <ele>233</ele>
        <time>2022-05-17T14:44:46.549Z</time>
      </trkpt>
      <trkpt lat="49.86789" lon="4.59216">
        <ele>232</ele>
        <time>2022-05-17T14:44:47.536Z</time>
      </trkpt>
      <trkpt lat="49.86789" lon="4.59216">
        <ele>232</ele>
        <time>2022-05-17T14:44:48.549Z</time>
      </trkpt>
      <trkpt lat="49.86792" lon="4.59227">
        <ele>232</ele>
        <time>2022-05-17T14:44:49.537Z</time>
      </trkpt>
      <trkpt lat="49.86792" lon="4.59227">
        <ele>232</ele>
        <time>2022-05-17T14:44:50.542Z</time>
      </trkpt>
      <trkpt lat="49.86792" lon="4.59237">
        <ele>232</ele>
        <time>2022-05-17T14:44:51.526Z</time>
      </trkpt>
      <trkpt lat="49.86792" lon="4.59237">
        <ele>232</ele>
        <time>2022-05-17T14:44:52.532Z</time>
      </trkpt>
      <trkpt lat="49.86793" lon="4.59249">
        <ele>232</ele>
        <time>2022-05-17T14:44:53.552Z</time>
      </trkpt>
      <trkpt lat="49.86793" lon="4.59249">
        <ele>232</ele>
        <time>2022-05-17T14:44:54.557Z</time>
      </trkpt>
      <trkpt lat="49.86794" lon="4.5926">
        <ele>232</ele>
        <time>2022-05-17T14:44:55.524Z</time>
      </trkpt>
      <trkpt lat="49.86794" lon="4.5926">
        <ele>232</ele>
        <time>2022-05-17T14:44:56.539Z</time>
      </trkpt>
      <trkpt lat="49.86795" lon="4.5927">
        <ele>231</ele>
        <time>2022-05-17T14:44:57.554Z</time>
      </trkpt>
      <trkpt lat="49.86795" lon="4.5927">
        <ele>231</ele>
        <time>2022-05-17T14:44:58.560Z</time>
      </trkpt>
      <trkpt lat="49.86796" lon="4.59281">
        <ele>231</ele>
        <time>2022-05-17T14:44:59.531Z</time>
      </trkpt>
      <trkpt lat="49.86797" lon="4.59286">
        <ele>231</ele>
        <time>2022-05-17T14:45:00.535Z</time>
      </trkpt>
      <trkpt lat="49.86797" lon="4.59286">
        <ele>231</ele>
        <time>2022-05-17T14:45:01.542Z</time>
      </trkpt>
      <trkpt lat="49.868" lon="4.59296">
        <ele>231</ele>
        <time>2022-05-17T14:45:02.550Z</time>
      </trkpt>
      <trkpt lat="49.868" lon="4.59296">
        <ele>231</ele>
        <time>2022-05-17T14:45:03.556Z</time>
      </trkpt>
      <trkpt lat="49.86806" lon="4.59307">
        <ele>231</ele>
        <time>2022-05-17T14:45:04.535Z</time>
      </trkpt>
      <trkpt lat="49.86806" lon="4.59307">
        <ele>231</ele>
        <time>2022-05-17T14:45:05.543Z</time>
      </trkpt>
      <trkpt lat="49.86809" lon="4.59318">
        <ele>231</ele>
        <time>2022-05-17T14:45:06.524Z</time>
      </trkpt>
      <trkpt lat="49.86809" lon="4.59318">
        <ele>231</ele>
        <time>2022-05-17T14:45:07.529Z</time>
      </trkpt>
      <trkpt lat="49.86812" lon="4.59331">
        <ele>231</ele>
        <time>2022-05-17T14:45:08.526Z</time>
      </trkpt>
      <trkpt lat="49.86812" lon="4.59331">
        <ele>231</ele>
        <time>2022-05-17T14:45:09.542Z</time>
      </trkpt>
      <trkpt lat="49.86814" lon="4.59343">
        <ele>231</ele>
        <time>2022-05-17T14:45:10.561Z</time>
      </trkpt>
      <trkpt lat="49.86814" lon="4.5935">
        <ele>231</ele>
        <time>2022-05-17T14:45:11.537Z</time>
      </trkpt>
      <trkpt lat="49.86814" lon="4.5935">
        <ele>231</ele>
        <time>2022-05-17T14:45:12.543Z</time>
      </trkpt>
      <trkpt lat="49.86814" lon="4.59361">
        <ele>231</ele>
        <time>2022-05-17T14:45:13.540Z</time>
      </trkpt>
      <trkpt lat="49.86815" lon="4.59365">
        <ele>232</ele>
        <time>2022-05-17T14:45:14.559Z</time>
      </trkpt>
      <trkpt lat="49.86815" lon="4.59365">
        <ele>232</ele>
        <time>2022-05-17T14:45:15.524Z</time>
      </trkpt>
      <trkpt lat="49.86815" lon="4.59373">
        <ele>232</ele>
        <time>2022-05-17T14:45:16.551Z</time>
      </trkpt>
      <trkpt lat="49.86816" lon="4.59379">
        <ele>232</ele>
        <time>2022-05-17T14:45:17.563Z</time>
      </trkpt>
      <trkpt lat="49.86816" lon="4.59379">
        <ele>232</ele>
        <time>2022-05-17T14:45:18.528Z</time>
      </trkpt>
      <trkpt lat="49.8682" lon="4.59388">
        <ele>232</ele>
        <time>2022-05-17T14:45:19.555Z</time>
      </trkpt>
      <trkpt lat="49.8682" lon="4.59388">
        <ele>232</ele>
        <time>2022-05-17T14:45:20.526Z</time>
      </trkpt>
      <trkpt lat="49.86826" lon="4.59394">
        <ele>233</ele>
        <time>2022-05-17T14:45:21.537Z</time>
      </trkpt>
      <trkpt lat="49.86828" lon="4.59397">
        <ele>233</ele>
        <time>2022-05-17T14:45:22.557Z</time>
      </trkpt>
      <trkpt lat="49.8683" lon="4.594">
        <ele>233</ele>
        <time>2022-05-17T14:45:23.527Z</time>
      </trkpt>
      <trkpt lat="49.8683" lon="4.594">
        <ele>233</ele>
        <time>2022-05-17T14:45:24.539Z</time>
      </trkpt>
      <trkpt lat="49.86835" lon="4.59406">
        <ele>234</ele>
        <time>2022-05-17T14:45:25.556Z</time>
      </trkpt>
      <trkpt lat="49.86835" lon="4.59406">
        <ele>234</ele>
        <time>2022-05-17T14:45:26.526Z</time>
      </trkpt>
      <trkpt lat="49.86839" lon="4.59412">
        <ele>234</ele>
        <time>2022-05-17T14:45:27.560Z</time>
      </trkpt>
      <trkpt lat="49.86839" lon="4.59412">
        <ele>234</ele>
        <time>2022-05-17T14:45:28.525Z</time>
      </trkpt>
      <trkpt lat="49.86844" lon="4.59418">
        <ele>235</ele>
        <time>2022-05-17T14:45:29.552Z</time>
      </trkpt>
      <trkpt lat="49.86844" lon="4.59418">
        <ele>235</ele>
        <time>2022-05-17T14:45:30.524Z</time>
      </trkpt>
      <trkpt lat="49.8685" lon="4.59425">
        <ele>236</ele>
        <time>2022-05-17T14:45:31.535Z</time>
      </trkpt>
      <trkpt lat="49.8685" lon="4.59425">
        <ele>236</ele>
        <time>2022-05-17T14:45:32.551Z</time>
      </trkpt>
      <trkpt lat="49.86856" lon="4.59432">
        <ele>236</ele>
        <time>2022-05-17T14:45:33.530Z</time>
      </trkpt>
      <trkpt lat="49.86856" lon="4.59432">
        <ele>236</ele>
        <time>2022-05-17T14:45:34.544Z</time>
      </trkpt>
      <trkpt lat="49.86861" lon="4.5944">
        <ele>237</ele>
        <time>2022-05-17T14:45:35.558Z</time>
      </trkpt>
      <trkpt lat="49.86861" lon="4.5944">
        <ele>237</ele>
        <time>2022-05-17T14:45:36.563Z</time>
      </trkpt>
      <trkpt lat="49.86864" lon="4.59446">
        <ele>238</ele>
        <time>2022-05-17T14:45:37.546Z</time>
      </trkpt>
      <trkpt lat="49.86864" lon="4.59446">
        <ele>238</ele>
        <time>2022-05-17T14:45:38.551Z</time>
      </trkpt>
      <trkpt lat="49.86867" lon="4.59454">
        <ele>238</ele>
        <time>2022-05-17T14:45:39.565Z</time>
      </trkpt>
      <trkpt lat="49.8687" lon="4.59459">
        <ele>238</ele>
        <time>2022-05-17T14:45:40.541Z</time>
      </trkpt>
      <trkpt lat="49.8687" lon="4.59459">
        <ele>238</ele>
        <time>2022-05-17T14:45:41.546Z</time>
      </trkpt>
      <trkpt lat="49.86876" lon="4.5947">
        <ele>239</ele>
        <time>2022-05-17T14:45:42.555Z</time>
      </trkpt>
      <trkpt lat="49.8688" lon="4.59475">
        <ele>239</ele>
        <time>2022-05-17T14:45:43.536Z</time>
      </trkpt>
      <trkpt lat="49.8688" lon="4.59475">
        <ele>239</ele>
        <time>2022-05-17T14:45:44.546Z</time>
      </trkpt>
      <trkpt lat="49.86885" lon="4.59485">
        <ele>240</ele>
        <time>2022-05-17T14:45:45.559Z</time>
      </trkpt>
      <trkpt lat="49.86885" lon="4.59485">
        <ele>240</ele>
        <time>2022-05-17T14:45:46.563Z</time>
      </trkpt>
      <trkpt lat="49.86892" lon="4.59496">
        <ele>240</ele>
        <time>2022-05-17T14:45:47.549Z</time>
      </trkpt>
      <trkpt lat="49.86892" lon="4.59496">
        <ele>240</ele>
        <time>2022-05-17T14:45:48.554Z</time>
      </trkpt>
      <trkpt lat="49.86901" lon="4.59507">
        <ele>241</ele>
        <time>2022-05-17T14:45:49.535Z</time>
      </trkpt>
      <trkpt lat="49.86904" lon="4.59512">
        <ele>241</ele>
        <time>2022-05-17T14:45:50.547Z</time>
      </trkpt>
      <trkpt lat="49.86904" lon="4.59512">
        <ele>241</ele>
        <time>2022-05-17T14:45:51.563Z</time>
      </trkpt>
      <trkpt lat="49.86911" lon="4.59522">
        <ele>241</ele>
        <time>2022-05-17T14:45:52.538Z</time>
      </trkpt>
      <trkpt lat="49.86914" lon="4.59527">
        <ele>241</ele>
        <time>2022-05-17T14:45:53.526Z</time>
      </trkpt>
      <trkpt lat="49.86916" lon="4.59533">
        <ele>241</ele>
        <time>2022-05-17T14:45:54.545Z</time>
      </trkpt>
      <trkpt lat="49.86916" lon="4.59533">
        <ele>241</ele>
        <time>2022-05-17T14:45:55.550Z</time>
      </trkpt>
      <trkpt lat="49.86919" lon="4.59543">
        <ele>242</ele>
        <time>2022-05-17T14:45:56.528Z</time>
      </trkpt>
      <trkpt lat="49.86919" lon="4.5955">
        <ele>242</ele>
        <time>2022-05-17T14:45:57.556Z</time>
      </trkpt>
      <trkpt lat="49.86919" lon="4.59555">
        <ele>242</ele>
        <time>2022-05-17T14:45:58.528Z</time>
      </trkpt>
      <trkpt lat="49.86919" lon="4.59555">
        <ele>242</ele>
        <time>2022-05-17T14:45:59.541Z</time>
      </trkpt>
      <trkpt lat="49.86918" lon="4.59567">
        <ele>242</ele>
        <time>2022-05-17T14:46:00.559Z</time>
      </trkpt>
      <trkpt lat="49.86918" lon="4.59567">
        <ele>242</ele>
        <time>2022-05-17T14:46:01.524Z</time>
      </trkpt>
      <trkpt lat="49.86917" lon="4.59579">
        <ele>242</ele>
        <time>2022-05-17T14:46:02.555Z</time>
      </trkpt>
      <trkpt lat="49.86914" lon="4.59584">
        <ele>242</ele>
        <time>2022-05-17T14:46:03.527Z</time>
      </trkpt>
      <trkpt lat="49.86914" lon="4.59584">
        <ele>242</ele>
        <time>2022-05-17T14:46:04.542Z</time>
      </trkpt>
      <trkpt lat="49.8691" lon="4.59596">
        <ele>242</ele>
        <time>2022-05-17T14:46:05.551Z</time>
      </trkpt>
      <trkpt lat="49.86908" lon="4.59602">
        <ele>242</ele>
        <time>2022-05-17T14:46:06.533Z</time>
      </trkpt>
      <trkpt lat="49.86907" lon="4.59609">
        <ele>242</ele>
        <time>2022-05-17T14:46:07.541Z</time>
      </trkpt>
      <trkpt lat="49.86907" lon="4.59609">
        <ele>242</ele>
        <time>2022-05-17T14:46:08.546Z</time>
      </trkpt>
      <trkpt lat="49.86903" lon="4.59622">
        <ele>243</ele>
        <time>2022-05-17T14:46:09.543Z</time>
      </trkpt>
      <trkpt lat="49.86903" lon="4.59622">
        <ele>243</ele>
        <time>2022-05-17T14:46:10.557Z</time>
      </trkpt>
      <trkpt lat="49.869" lon="4.59634">
        <ele>243</ele>
        <time>2022-05-17T14:46:11.531Z</time>
      </trkpt>
      <trkpt lat="49.869" lon="4.59634">
        <ele>243</ele>
        <time>2022-05-17T14:46:12.525Z</time>
      </trkpt>
      <trkpt lat="49.869" lon="4.59642">
        <ele>243</ele>
        <time>2022-05-17T14:46:13.556Z</time>
      </trkpt>
      <trkpt lat="49.869" lon="4.59642">
        <ele>243</ele>
        <time>2022-05-17T14:46:14.561Z</time>
      </trkpt>
      <trkpt lat="49.86899" lon="4.59653">
        <ele>243</ele>
        <time>2022-05-17T14:46:15.534Z</time>
      </trkpt>
      <trkpt lat="49.86899" lon="4.59659">
        <ele>244</ele>
        <time>2022-05-17T14:46:16.537Z</time>
      </trkpt>
      <trkpt lat="49.86899" lon="4.59659">
        <ele>244</ele>
        <time>2022-05-17T14:46:17.542Z</time>
      </trkpt>
      <trkpt lat="49.86898" lon="4.59672">
        <ele>244</ele>
        <time>2022-05-17T14:46:18.556Z</time>
      </trkpt>
      <trkpt lat="49.86897" lon="4.59679">
        <ele>244</ele>
        <time>2022-05-17T14:46:19.527Z</time>
      </trkpt>
      <trkpt lat="49.86897" lon="4.59679">
        <ele>244</ele>
        <time>2022-05-17T14:46:20.541Z</time>
      </trkpt>
      <trkpt lat="49.86896" lon="4.59693">
        <ele>244</ele>
        <time>2022-05-17T14:46:21.527Z</time>
      </trkpt>
      <trkpt lat="49.86897" lon="4.597">
        <ele>244</ele>
        <time>2022-05-17T14:46:22.552Z</time>
      </trkpt>
      <trkpt lat="49.86896" lon="4.59706">
        <ele>244</ele>
        <time>2022-05-17T14:46:23.560Z</time>
      </trkpt>
      <trkpt lat="49.86895" lon="4.59713">
        <ele>244</ele>
        <time>2022-05-17T14:46:24.527Z</time>
      </trkpt>
      <trkpt lat="49.86895" lon="4.59713">
        <ele>244</ele>
        <time>2022-05-17T14:46:25.533Z</time>
      </trkpt>
      <trkpt lat="49.86891" lon="4.59723">
        <ele>244</ele>
        <time>2022-05-17T14:46:26.536Z</time>
      </trkpt>
      <trkpt lat="49.86889" lon="4.59729">
        <ele>244</ele>
        <time>2022-05-17T14:46:27.559Z</time>
      </trkpt>
      <trkpt lat="49.86889" lon="4.59729">
        <ele>244</ele>
        <time>2022-05-17T14:46:28.537Z</time>
      </trkpt>
      <trkpt lat="49.86887" lon="4.59741">
        <ele>244</ele>
        <time>2022-05-17T14:46:29.525Z</time>
      </trkpt>
      <trkpt lat="49.86887" lon="4.59741">
        <ele>244</ele>
        <time>2022-05-17T14:46:30.525Z</time>
      </trkpt>
      <trkpt lat="49.86884" lon="4.59753">
        <ele>244</ele>
        <time>2022-05-17T14:46:31.532Z</time>
      </trkpt>
      <trkpt lat="49.86884" lon="4.59753">
        <ele>244</ele>
        <time>2022-05-17T14:46:32.538Z</time>
      </trkpt>
      <trkpt lat="49.86881" lon="4.59765">
        <ele>244</ele>
        <time>2022-05-17T14:46:33.535Z</time>
      </trkpt>
      <trkpt lat="49.86879" lon="4.5977">
        <ele>244</ele>
        <time>2022-05-17T14:46:34.543Z</time>
      </trkpt>
      <trkpt lat="49.86878" lon="4.59775">
        <ele>244</ele>
        <time>2022-05-17T14:46:35.563Z</time>
      </trkpt>
      <trkpt lat="49.86878" lon="4.59775">
        <ele>244</ele>
        <time>2022-05-17T14:46:36.529Z</time>
      </trkpt>
      <trkpt lat="49.86877" lon="4.59787">
        <ele>244</ele>
        <time>2022-05-17T14:46:37.535Z</time>
      </trkpt>
      <trkpt lat="49.86877" lon="4.59787">
        <ele>244</ele>
        <time>2022-05-17T14:46:38.550Z</time>
      </trkpt>
      <trkpt lat="49.86874" lon="4.59799">
        <ele>244</ele>
        <time>2022-05-17T14:46:39.553Z</time>
      </trkpt>
      <trkpt lat="49.86874" lon="4.59799">
        <ele>244</ele>
        <time>2022-05-17T14:46:40.539Z</time>
      </trkpt>
      <trkpt lat="49.86873" lon="4.59811">
        <ele>243</ele>
        <time>2022-05-17T14:46:41.534Z</time>
      </trkpt>
      <trkpt lat="49.86872" lon="4.59817">
        <ele>243</ele>
        <time>2022-05-17T14:46:42.526Z</time>
      </trkpt>
      <trkpt lat="49.86872" lon="4.59817">
        <ele>243</ele>
        <time>2022-05-17T14:46:43.548Z</time>
      </trkpt>
      <trkpt lat="49.86869" lon="4.59828">
        <ele>243</ele>
        <time>2022-05-17T14:46:44.554Z</time>
      </trkpt>
      <trkpt lat="49.86868" lon="4.59834">
        <ele>243</ele>
        <time>2022-05-17T14:46:45.531Z</time>
      </trkpt>
      <trkpt lat="49.86867" lon="4.59841">
        <ele>243</ele>
        <time>2022-05-17T14:46:46.525Z</time>
      </trkpt>
      <trkpt lat="49.86867" lon="4.59841">
        <ele>243</ele>
        <time>2022-05-17T14:46:47.529Z</time>
      </trkpt>
      <trkpt lat="49.86863" lon="4.59854">
        <ele>243</ele>
        <time>2022-05-17T14:46:48.534Z</time>
      </trkpt>
      <trkpt lat="49.86862" lon="4.59859">
        <ele>243</ele>
        <time>2022-05-17T14:46:49.525Z</time>
      </trkpt>
      <trkpt lat="49.8686" lon="4.59868">
        <ele>243</ele>
        <time>2022-05-17T14:46:50.557Z</time>
      </trkpt>
      <trkpt lat="49.8686" lon="4.59868">
        <ele>243</ele>
        <time>2022-05-17T14:46:51.562Z</time>
      </trkpt>
      <trkpt lat="49.86856" lon="4.5988">
        <ele>243</ele>
        <time>2022-05-17T14:46:52.530Z</time>
      </trkpt>
      <trkpt lat="49.86856" lon="4.5988">
        <ele>243</ele>
        <time>2022-05-17T14:46:53.540Z</time>
      </trkpt>
      <trkpt lat="49.86852" lon="4.59891">
        <ele>243</ele>
        <time>2022-05-17T14:46:54.525Z</time>
      </trkpt>
      <trkpt lat="49.86852" lon="4.59891">
        <ele>243</ele>
        <time>2022-05-17T14:46:55.539Z</time>
      </trkpt>
      <trkpt lat="49.86848" lon="4.59902">
        <ele>243</ele>
        <time>2022-05-17T14:46:56.558Z</time>
      </trkpt>
      <trkpt lat="49.86848" lon="4.59902">
        <ele>243</ele>
        <time>2022-05-17T14:46:57.563Z</time>
      </trkpt>
      <trkpt lat="49.86844" lon="4.59912">
        <ele>243</ele>
        <time>2022-05-17T14:46:58.559Z</time>
      </trkpt>
      <trkpt lat="49.86844" lon="4.59912">
        <ele>243</ele>
        <time>2022-05-17T14:46:59.535Z</time>
      </trkpt>
      <trkpt lat="49.86841" lon="4.59924">
        <ele>243</ele>
        <time>2022-05-17T14:47:00.526Z</time>
      </trkpt>
      <trkpt lat="49.86839" lon="4.59929">
        <ele>243</ele>
        <time>2022-05-17T14:47:01.531Z</time>
      </trkpt>
      <trkpt lat="49.86839" lon="4.59929">
        <ele>243</ele>
        <time>2022-05-17T14:47:02.538Z</time>
      </trkpt>
      <trkpt lat="49.86837" lon="4.59939">
        <ele>243</ele>
        <time>2022-05-17T14:47:03.556Z</time>
      </trkpt>
      <trkpt lat="49.86836" lon="4.59943">
        <ele>243</ele>
        <time>2022-05-17T14:47:04.545Z</time>
      </trkpt>
      <trkpt lat="49.86834" lon="4.59947">
        <ele>243</ele>
        <time>2022-05-17T14:47:05.542Z</time>
      </trkpt>
      <trkpt lat="49.86834" lon="4.59947">
        <ele>243</ele>
        <time>2022-05-17T14:47:06.548Z</time>
      </trkpt>
      <trkpt lat="49.86831" lon="4.59957">
        <ele>243</ele>
        <time>2022-05-17T14:47:07.545Z</time>
      </trkpt>
      <trkpt lat="49.86831" lon="4.59957">
        <ele>243</ele>
        <time>2022-05-17T14:47:08.551Z</time>
      </trkpt>
      <trkpt lat="49.86828" lon="4.59967">
        <ele>243</ele>
        <time>2022-05-17T14:47:09.524Z</time>
      </trkpt>
      <trkpt lat="49.86828" lon="4.59967">
        <ele>243</ele>
        <time>2022-05-17T14:47:10.530Z</time>
      </trkpt>
      <trkpt lat="49.86823" lon="4.59979">
        <ele>243</ele>
        <time>2022-05-17T14:47:11.535Z</time>
      </trkpt>
      <trkpt lat="49.86823" lon="4.59979">
        <ele>243</ele>
        <time>2022-05-17T14:47:12.550Z</time>
      </trkpt>
      <trkpt lat="49.86819" lon="4.5999">
        <ele>243</ele>
        <time>2022-05-17T14:47:13.526Z</time>
      </trkpt>
      <trkpt lat="49.86817" lon="4.59996">
        <ele>243</ele>
        <time>2022-05-17T14:47:14.548Z</time>
      </trkpt>
      <trkpt lat="49.86817" lon="4.59996">
        <ele>243</ele>
        <time>2022-05-17T14:47:15.562Z</time>
      </trkpt>
      <trkpt lat="49.86812" lon="4.60007">
        <ele>243</ele>
        <time>2022-05-17T14:47:16.563Z</time>
      </trkpt>
      <trkpt lat="49.8681" lon="4.60012">
        <ele>243</ele>
        <time>2022-05-17T14:47:17.563Z</time>
      </trkpt>
      <trkpt lat="49.8681" lon="4.60012">
        <ele>243</ele>
        <time>2022-05-17T14:47:18.529Z</time>
      </trkpt>
      <trkpt lat="49.86805" lon="4.60022">
        <ele>243</ele>
        <time>2022-05-17T14:47:19.545Z</time>
      </trkpt>
      <trkpt lat="49.86805" lon="4.60022">
        <ele>243</ele>
        <time>2022-05-17T14:47:20.551Z</time>
      </trkpt>
      <trkpt lat="49.86799" lon="4.60035">
        <ele>244</ele>
        <time>2022-05-17T14:47:21.549Z</time>
      </trkpt>
      <trkpt lat="49.86797" lon="4.60042">
        <ele>244</ele>
        <time>2022-05-17T14:47:22.542Z</time>
      </trkpt>
      <trkpt lat="49.86796" lon="4.60048">
        <ele>244</ele>
        <time>2022-05-17T14:47:23.537Z</time>
      </trkpt>
      <trkpt lat="49.86796" lon="4.60048">
        <ele>244</ele>
        <time>2022-05-17T14:47:24.553Z</time>
      </trkpt>
      <trkpt lat="49.86792" lon="4.60059">
        <ele>244</ele>
        <time>2022-05-17T14:47:25.545Z</time>
      </trkpt>
      <trkpt lat="49.86792" lon="4.60059">
        <ele>244</ele>
        <time>2022-05-17T14:47:26.550Z</time>
      </trkpt>
      <trkpt lat="49.86788" lon="4.6007">
        <ele>244</ele>
        <time>2022-05-17T14:47:27.542Z</time>
      </trkpt>
      <trkpt lat="49.86788" lon="4.6007">
        <ele>244</ele>
        <time>2022-05-17T14:47:28.557Z</time>
      </trkpt>
      <trkpt lat="49.86784" lon="4.60079">
        <ele>244</ele>
        <time>2022-05-17T14:47:29.525Z</time>
      </trkpt>
      <trkpt lat="49.86784" lon="4.60079">
        <ele>244</ele>
        <time>2022-05-17T14:47:30.533Z</time>
      </trkpt>
      <trkpt lat="49.86781" lon="4.60089">
        <ele>245</ele>
        <time>2022-05-17T14:47:31.554Z</time>
      </trkpt>
      <trkpt lat="49.86781" lon="4.60089">
        <ele>245</ele>
        <time>2022-05-17T14:47:32.559Z</time>
      </trkpt>
      <trkpt lat="49.86777" lon="4.60097">
        <ele>245</ele>
        <time>2022-05-17T14:47:33.532Z</time>
      </trkpt>
      <trkpt lat="49.86777" lon="4.60097">
        <ele>245</ele>
        <time>2022-05-17T14:47:34.542Z</time>
      </trkpt>
      <trkpt lat="49.86772" lon="4.60102">
        <ele>246</ele>
        <time>2022-05-17T14:47:35.525Z</time>
      </trkpt>
      <trkpt lat="49.8677" lon="4.60104">
        <ele>246</ele>
        <time>2022-05-17T14:47:36.563Z</time>
      </trkpt>
      <trkpt lat="49.8677" lon="4.60104">
        <ele>246</ele>
        <time>2022-05-17T14:47:37.534Z</time>
      </trkpt>
      <trkpt lat="49.86764" lon="4.60108">
        <ele>247</ele>
        <time>2022-05-17T14:47:38.531Z</time>
      </trkpt>
      <trkpt lat="49.86761" lon="4.6011">
        <ele>247</ele>
        <time>2022-05-17T14:47:39.526Z</time>
      </trkpt>
      <trkpt lat="49.86761" lon="4.6011">
        <ele>247</ele>
        <time>2022-05-17T14:47:40.538Z</time>
      </trkpt>
      <trkpt lat="49.86756" lon="4.60116">
        <ele>248</ele>
        <time>2022-05-17T14:47:41.536Z</time>
      </trkpt>
      <trkpt lat="49.86756" lon="4.60116">
        <ele>248</ele>
        <time>2022-05-17T14:47:42.541Z</time>
      </trkpt>
      <trkpt lat="49.8675" lon="4.6012">
        <ele>249</ele>
        <time>2022-05-17T14:47:43.543Z</time>
      </trkpt>
      <trkpt lat="49.8675" lon="4.6012">
        <ele>249</ele>
        <time>2022-05-17T14:47:44.549Z</time>
      </trkpt>
      <trkpt lat="49.86744" lon="4.60126">
        <ele>250</ele>
        <time>2022-05-17T14:47:45.563Z</time>
      </trkpt>
      <trkpt lat="49.86744" lon="4.60126">
        <ele>250</ele>
        <time>2022-05-17T14:47:46.560Z</time>
      </trkpt>
      <trkpt lat="49.8674" lon="4.60136">
        <ele>250</ele>
        <time>2022-05-17T14:47:47.527Z</time>
      </trkpt>
      <trkpt lat="49.8674" lon="4.60136">
        <ele>250</ele>
        <time>2022-05-17T14:47:48.542Z</time>
      </trkpt>
      <trkpt lat="49.8674" lon="4.60144">
        <ele>251</ele>
        <time>2022-05-17T14:47:49.555Z</time>
      </trkpt>
      <trkpt lat="49.8674" lon="4.60144">
        <ele>251</ele>
        <time>2022-05-17T14:47:50.527Z</time>
      </trkpt>
      <trkpt lat="49.86742" lon="4.60152">
        <ele>251</ele>
        <time>2022-05-17T14:47:51.547Z</time>
      </trkpt>
      <trkpt lat="49.86742" lon="4.60152">
        <ele>251</ele>
        <time>2022-05-17T14:47:52.528Z</time>
      </trkpt>
      <trkpt lat="49.86745" lon="4.60161">
        <ele>251</ele>
        <time>2022-05-17T14:47:53.545Z</time>
      </trkpt>
      <trkpt lat="49.86745" lon="4.60161">
        <ele>251</ele>
        <time>2022-05-17T14:47:54.560Z</time>
      </trkpt>
      <trkpt lat="49.86746" lon="4.60171">
        <ele>252</ele>
        <time>2022-05-17T14:47:55.551Z</time>
      </trkpt>
      <trkpt lat="49.86746" lon="4.60171">
        <ele>252</ele>
        <time>2022-05-17T14:47:56.558Z</time>
      </trkpt>
      <trkpt lat="49.86745" lon="4.60182">
        <ele>252</ele>
        <time>2022-05-17T14:47:57.525Z</time>
      </trkpt>
      <trkpt lat="49.86741" lon="4.60187">
        <ele>252</ele>
        <time>2022-05-17T14:47:58.542Z</time>
      </trkpt>
      <trkpt lat="49.86739" lon="4.60192">
        <ele>252</ele>
        <time>2022-05-17T14:47:59.533Z</time>
      </trkpt>
      <trkpt lat="49.86737" lon="4.60197">
        <ele>252</ele>
        <time>2022-05-17T14:48:00.545Z</time>
      </trkpt>
      <trkpt lat="49.86737" lon="4.60197">
        <ele>252</ele>
        <time>2022-05-17T14:48:01.554Z</time>
      </trkpt>
      <trkpt lat="49.86735" lon="4.60207">
        <ele>252</ele>
        <time>2022-05-17T14:48:02.542Z</time>
      </trkpt>
      <trkpt lat="49.86735" lon="4.60207">
        <ele>252</ele>
        <time>2022-05-17T14:48:03.547Z</time>
      </trkpt>
      <trkpt lat="49.86733" lon="4.60217">
        <ele>253</ele>
        <time>2022-05-17T14:48:04.525Z</time>
      </trkpt>
      <trkpt lat="49.86732" lon="4.60221">
        <ele>253</ele>
        <time>2022-05-17T14:48:05.547Z</time>
      </trkpt>
      <trkpt lat="49.86732" lon="4.60221">
        <ele>253</ele>
        <time>2022-05-17T14:48:06.552Z</time>
      </trkpt>
      <trkpt lat="49.86732" lon="4.60229">
        <ele>254</ele>
        <time>2022-05-17T14:48:07.536Z</time>
      </trkpt>
      <trkpt lat="49.86732" lon="4.60229">
        <ele>254</ele>
        <time>2022-05-17T14:48:08.541Z</time>
      </trkpt>
      <trkpt lat="49.86731" lon="4.60238">
        <ele>254</ele>
        <time>2022-05-17T14:48:09.536Z</time>
      </trkpt>
      <trkpt lat="49.86731" lon="4.60238">
        <ele>254</ele>
        <time>2022-05-17T14:48:10.550Z</time>
      </trkpt>
      <trkpt lat="49.86728" lon="4.60248">
        <ele>255</ele>
        <time>2022-05-17T14:48:11.537Z</time>
      </trkpt>
      <trkpt lat="49.86728" lon="4.60248">
        <ele>255</ele>
        <time>2022-05-17T14:48:12.552Z</time>
      </trkpt>
      <trkpt lat="49.86728" lon="4.60259">
        <ele>255</ele>
        <time>2022-05-17T14:48:13.544Z</time>
      </trkpt>
      <trkpt lat="49.86728" lon="4.60259">
        <ele>255</ele>
        <time>2022-05-17T14:48:14.549Z</time>
      </trkpt>
      <trkpt lat="49.86729" lon="4.60268">
        <ele>256</ele>
        <time>2022-05-17T14:48:15.551Z</time>
      </trkpt>
      <trkpt lat="49.86729" lon="4.60268">
        <ele>256</ele>
        <time>2022-05-17T14:48:16.559Z</time>
      </trkpt>
      <trkpt lat="49.8673" lon="4.60276">
        <ele>257</ele>
        <time>2022-05-17T14:48:17.546Z</time>
      </trkpt>
      <trkpt lat="49.8673" lon="4.60276">
        <ele>257</ele>
        <time>2022-05-17T14:48:18.551Z</time>
      </trkpt>
      <trkpt lat="49.86735" lon="4.6028">
        <ele>257</ele>
        <time>2022-05-17T14:48:19.539Z</time>
      </trkpt>
      <trkpt lat="49.86735" lon="4.6028">
        <ele>257</ele>
        <time>2022-05-17T14:48:20.555Z</time>
      </trkpt>
      <trkpt lat="49.86739" lon="4.60284">
        <ele>257</ele>
        <time>2022-05-17T14:48:21.532Z</time>
      </trkpt>
      <trkpt lat="49.86741" lon="4.60286">
        <ele>257</ele>
        <time>2022-05-17T14:48:22.531Z</time>
      </trkpt>
      <trkpt lat="49.86742" lon="4.6029">
        <ele>257</ele>
        <time>2022-05-17T14:48:23.533Z</time>
      </trkpt>
      <trkpt lat="49.86742" lon="4.6029">
        <ele>257</ele>
        <time>2022-05-17T14:48:24.539Z</time>
      </trkpt>
      <trkpt lat="49.86743" lon="4.60298">
        <ele>256</ele>
        <time>2022-05-17T14:48:25.535Z</time>
      </trkpt>
      <trkpt lat="49.86743" lon="4.60298">
        <ele>256</ele>
        <time>2022-05-17T14:48:26.540Z</time>
      </trkpt>
      <trkpt lat="49.86747" lon="4.603">
        <ele>256</ele>
        <time>2022-05-17T14:48:27.532Z</time>
      </trkpt>
      <trkpt lat="49.86747" lon="4.603">
        <ele>256</ele>
        <time>2022-05-17T14:48:28.540Z</time>
      </trkpt>
      <trkpt lat="49.86751" lon="4.60299">
        <ele>255</ele>
        <time>2022-05-17T14:48:29.536Z</time>
      </trkpt>
      <trkpt lat="49.86751" lon="4.60299">
        <ele>255</ele>
        <time>2022-05-17T14:48:30.564Z</time>
      </trkpt>
      <trkpt lat="49.8675" lon="4.60298">
        <ele>254</ele>
        <time>2022-05-17T14:48:31.531Z</time>
      </trkpt>
      <trkpt lat="49.8675" lon="4.60298">
        <ele>254</ele>
        <time>2022-05-17T14:48:32.537Z</time>
      </trkpt>
      <trkpt lat="49.86748" lon="4.603">
        <ele>254</ele>
        <time>2022-05-17T14:48:33.535Z</time>
      </trkpt>
      <trkpt lat="49.86748" lon="4.603">
        <ele>254</ele>
        <time>2022-05-17T14:48:34.540Z</time>
      </trkpt>
      <trkpt lat="49.86745" lon="4.603">
        <ele>254</ele>
        <time>2022-05-17T14:48:35.546Z</time>
      </trkpt>
      <trkpt lat="49.86745" lon="4.603">
        <ele>254</ele>
        <time>2022-05-17T14:48:36.551Z</time>
      </trkpt>
      <trkpt lat="49.86742" lon="4.60299">
        <ele>253</ele>
        <time>2022-05-17T14:48:37.554Z</time>
      </trkpt>
      <trkpt lat="49.86742" lon="4.60299">
        <ele>253</ele>
        <time>2022-05-17T14:48:38.557Z</time>
      </trkpt>
      <trkpt lat="49.86739" lon="4.603">
        <ele>254</ele>
        <time>2022-05-17T14:48:39.552Z</time>
      </trkpt>
      <trkpt lat="49.86737" lon="4.60301">
        <ele>253</ele>
        <time>2022-05-17T14:48:40.565Z</time>
      </trkpt>
      <trkpt lat="49.86737" lon="4.60301">
        <ele>253</ele>
        <time>2022-05-17T14:48:41.543Z</time>
      </trkpt>
      <trkpt lat="49.86733" lon="4.60306">
        <ele>253</ele>
        <time>2022-05-17T14:48:42.532Z</time>
      </trkpt>
      <trkpt lat="49.86733" lon="4.60306">
        <ele>253</ele>
        <time>2022-05-17T14:48:43.548Z</time>
      </trkpt>
      <trkpt lat="49.86728" lon="4.60315">
        <ele>253</ele>
        <time>2022-05-17T14:48:44.531Z</time>
      </trkpt>
      <trkpt lat="49.86728" lon="4.60315">
        <ele>253</ele>
        <time>2022-05-17T14:48:45.537Z</time>
      </trkpt>
      <trkpt lat="49.86724" lon="4.60325">
        <ele>253</ele>
        <time>2022-05-17T14:48:46.532Z</time>
      </trkpt>
      <trkpt lat="49.86724" lon="4.60325">
        <ele>253</ele>
        <time>2022-05-17T14:48:47.537Z</time>
      </trkpt>
      <trkpt lat="49.86721" lon="4.60335">
        <ele>254</ele>
        <time>2022-05-17T14:48:48.562Z</time>
      </trkpt>
      <trkpt lat="49.86721" lon="4.60335">
        <ele>254</ele>
        <time>2022-05-17T14:48:49.527Z</time>
      </trkpt>
      <trkpt lat="49.8672" lon="4.60343">
        <ele>254</ele>
        <time>2022-05-17T14:48:50.546Z</time>
      </trkpt>
      <trkpt lat="49.8672" lon="4.60343">
        <ele>254</ele>
        <time>2022-05-17T14:48:51.551Z</time>
      </trkpt>
      <trkpt lat="49.86718" lon="4.60352">
        <ele>254</ele>
        <time>2022-05-17T14:48:52.527Z</time>
      </trkpt>
      <trkpt lat="49.86716" lon="4.60356">
        <ele>254</ele>
        <time>2022-05-17T14:48:53.529Z</time>
      </trkpt>
      <trkpt lat="49.86716" lon="4.60356">
        <ele>254</ele>
        <time>2022-05-17T14:48:54.540Z</time>
      </trkpt>
      <trkpt lat="49.86711" lon="4.6037">
        <ele>255</ele>
        <time>2022-05-17T14:48:55.562Z</time>
      </trkpt>
      <trkpt lat="49.86711" lon="4.6037">
        <ele>255</ele>
        <time>2022-05-17T14:48:56.527Z</time>
      </trkpt>
      <trkpt lat="49.86706" lon="4.60383">
        <ele>255</ele>
        <time>2022-05-17T14:48:57.524Z</time>
      </trkpt>
      <trkpt lat="49.86705" lon="4.60389">
        <ele>256</ele>
        <time>2022-05-17T14:48:58.530Z</time>
      </trkpt>
      <trkpt lat="49.86705" lon="4.60389">
        <ele>256</ele>
        <time>2022-05-17T14:48:59.560Z</time>
      </trkpt>
      <trkpt lat="49.86702" lon="4.60398">
        <ele>256</ele>
        <time>2022-05-17T14:49:00.532Z</time>
      </trkpt>
      <trkpt lat="49.86702" lon="4.60403">
        <ele>256</ele>
        <time>2022-05-17T14:49:01.541Z</time>
      </trkpt>
      <trkpt lat="49.86702" lon="4.60403">
        <ele>256</ele>
        <time>2022-05-17T14:49:02.547Z</time>
      </trkpt>
      <trkpt lat="49.867" lon="4.60411">
        <ele>257</ele>
        <time>2022-05-17T14:49:03.548Z</time>
      </trkpt>
      <trkpt lat="49.867" lon="4.60411">
        <ele>257</ele>
        <time>2022-05-17T14:49:04.553Z</time>
      </trkpt>
      <trkpt lat="49.86699" lon="4.60415">
        <ele>257</ele>
        <time>2022-05-17T14:49:05.554Z</time>
      </trkpt>
      <trkpt lat="49.86699" lon="4.60415">
        <ele>257</ele>
        <time>2022-05-17T14:49:06.560Z</time>
      </trkpt>
      <trkpt lat="49.86697" lon="4.60418">
        <ele>258</ele>
        <time>2022-05-17T14:49:07.534Z</time>
      </trkpt>
      <trkpt lat="49.86696" lon="4.60421">
        <ele>258</ele>
        <time>2022-05-17T14:49:08.544Z</time>
      </trkpt>
      <trkpt lat="49.86696" lon="4.60421">
        <ele>258</ele>
        <time>2022-05-17T14:49:09.549Z</time>
      </trkpt>
      <trkpt lat="49.86693" lon="4.60428">
        <ele>259</ele>
        <time>2022-05-17T14:49:10.563Z</time>
      </trkpt>
      <trkpt lat="49.86692" lon="4.60432">
        <ele>259</ele>
        <time>2022-05-17T14:49:11.536Z</time>
      </trkpt>
      <trkpt lat="49.86692" lon="4.60432">
        <ele>259</ele>
        <time>2022-05-17T14:49:12.541Z</time>
      </trkpt>
      <trkpt lat="49.8669" lon="4.60442">
        <ele>259</ele>
        <time>2022-05-17T14:49:13.556Z</time>
      </trkpt>
      <trkpt lat="49.8669" lon="4.60442">
        <ele>259</ele>
        <time>2022-05-17T14:49:14.561Z</time>
      </trkpt>
      <trkpt lat="49.86687" lon="4.60453">
        <ele>259</ele>
        <time>2022-05-17T14:49:15.551Z</time>
      </trkpt>
      <trkpt lat="49.86687" lon="4.60453">
        <ele>259</ele>
        <time>2022-05-17T14:49:16.560Z</time>
      </trkpt>
      <trkpt lat="49.86684" lon="4.60465">
        <ele>260</ele>
        <time>2022-05-17T14:49:17.524Z</time>
      </trkpt>
      <trkpt lat="49.86684" lon="4.60465">
        <ele>260</ele>
        <time>2022-05-17T14:49:18.529Z</time>
      </trkpt>
      <trkpt lat="49.8668" lon="4.60478">
        <ele>260</ele>
        <time>2022-05-17T14:49:19.525Z</time>
      </trkpt>
      <trkpt lat="49.8668" lon="4.60478">
        <ele>260</ele>
        <time>2022-05-17T14:49:20.552Z</time>
      </trkpt>
      <trkpt lat="49.86678" lon="4.60493">
        <ele>261</ele>
        <time>2022-05-17T14:49:21.525Z</time>
      </trkpt>
      <trkpt lat="49.86677" lon="4.605">
        <ele>261</ele>
        <time>2022-05-17T14:49:22.531Z</time>
      </trkpt>
      <trkpt lat="49.86675" lon="4.60508">
        <ele>261</ele>
        <time>2022-05-17T14:49:23.543Z</time>
      </trkpt>
      <trkpt lat="49.86675" lon="4.60508">
        <ele>261</ele>
        <time>2022-05-17T14:49:24.549Z</time>
      </trkpt>
      <trkpt lat="49.86672" lon="4.60523">
        <ele>261</ele>
        <time>2022-05-17T14:49:25.546Z</time>
      </trkpt>
      <trkpt lat="49.86672" lon="4.60523">
        <ele>261</ele>
        <time>2022-05-17T14:49:26.526Z</time>
      </trkpt>
      <trkpt lat="49.86667" lon="4.60536">
        <ele>262</ele>
        <time>2022-05-17T14:49:27.541Z</time>
      </trkpt>
      <trkpt lat="49.86667" lon="4.60536">
        <ele>262</ele>
        <time>2022-05-17T14:49:28.530Z</time>
      </trkpt>
      <trkpt lat="49.86662" lon="4.6055">
        <ele>262</ele>
        <time>2022-05-17T14:49:29.543Z</time>
      </trkpt>
      <trkpt lat="49.86659" lon="4.60555">
        <ele>262</ele>
        <time>2022-05-17T14:49:30.524Z</time>
      </trkpt>
      <trkpt lat="49.86659" lon="4.60555">
        <ele>262</ele>
        <time>2022-05-17T14:49:31.538Z</time>
      </trkpt>
      <trkpt lat="49.86655" lon="4.60566">
        <ele>262</ele>
        <time>2022-05-17T14:49:32.552Z</time>
      </trkpt>
      <trkpt lat="49.86655" lon="4.60566">
        <ele>262</ele>
        <time>2022-05-17T14:49:33.562Z</time>
      </trkpt>
      <trkpt lat="49.86655" lon="4.60574">
        <ele>262</ele>
        <time>2022-05-17T14:49:34.536Z</time>
      </trkpt>
      <trkpt lat="49.86655" lon="4.60574">
        <ele>262</ele>
        <time>2022-05-17T14:49:35.550Z</time>
      </trkpt>
      <trkpt lat="49.86653" lon="4.60582">
        <ele>262</ele>
        <time>2022-05-17T14:49:36.533Z</time>
      </trkpt>
      <trkpt lat="49.86652" lon="4.60587">
        <ele>262</ele>
        <time>2022-05-17T14:49:37.555Z</time>
      </trkpt>
      <trkpt lat="49.86652" lon="4.60587">
        <ele>262</ele>
        <time>2022-05-17T14:49:38.563Z</time>
      </trkpt>
      <trkpt lat="49.86649" lon="4.60598">
        <ele>263</ele>
        <time>2022-05-17T14:49:39.539Z</time>
      </trkpt>
      <trkpt lat="49.86648" lon="4.60605">
        <ele>263</ele>
        <time>2022-05-17T14:49:40.527Z</time>
      </trkpt>
      <trkpt lat="49.86646" lon="4.60612">
        <ele>263</ele>
        <time>2022-05-17T14:49:41.525Z</time>
      </trkpt>
      <trkpt lat="49.86646" lon="4.60612">
        <ele>263</ele>
        <time>2022-05-17T14:49:42.533Z</time>
      </trkpt>
      <trkpt lat="49.86644" lon="4.60629">
        <ele>263</ele>
        <time>2022-05-17T14:49:43.525Z</time>
      </trkpt>
      <trkpt lat="49.86644" lon="4.60629">
        <ele>263</ele>
        <time>2022-05-17T14:49:44.538Z</time>
      </trkpt>
      <trkpt lat="49.86642" lon="4.60644">
        <ele>264</ele>
        <time>2022-05-17T14:49:45.527Z</time>
      </trkpt>
      <trkpt lat="49.86642" lon="4.60644">
        <ele>264</ele>
        <time>2022-05-17T14:49:46.541Z</time>
      </trkpt>
      <trkpt lat="49.86639" lon="4.6066">
        <ele>264</ele>
        <time>2022-05-17T14:49:47.546Z</time>
      </trkpt>
      <trkpt lat="49.86639" lon="4.6066">
        <ele>264</ele>
        <time>2022-05-17T14:49:48.560Z</time>
      </trkpt>
      <trkpt lat="49.8664" lon="4.60674">
        <ele>264</ele>
        <time>2022-05-17T14:49:49.563Z</time>
      </trkpt>
      <trkpt lat="49.8664" lon="4.60674">
        <ele>264</ele>
        <time>2022-05-17T14:49:50.561Z</time>
      </trkpt>
      <trkpt lat="49.8664" lon="4.60687">
        <ele>264</ele>
        <time>2022-05-17T14:49:51.545Z</time>
      </trkpt>
      <trkpt lat="49.8664" lon="4.60687">
        <ele>264</ele>
        <time>2022-05-17T14:49:52.551Z</time>
      </trkpt>
      <trkpt lat="49.86638" lon="4.60698">
        <ele>264</ele>
        <time>2022-05-17T14:49:53.532Z</time>
      </trkpt>
      <trkpt lat="49.86638" lon="4.60698">
        <ele>264</ele>
        <time>2022-05-17T14:49:54.547Z</time>
      </trkpt>
      <trkpt lat="49.86633" lon="4.6071">
        <ele>264</ele>
        <time>2022-05-17T14:49:55.528Z</time>
      </trkpt>
      <trkpt lat="49.86633" lon="4.6071">
        <ele>264</ele>
        <time>2022-05-17T14:49:56.554Z</time>
      </trkpt>
      <trkpt lat="49.86631" lon="4.60723">
        <ele>263</ele>
        <time>2022-05-17T14:49:57.545Z</time>
      </trkpt>
      <trkpt lat="49.86629" lon="4.6073">
        <ele>263</ele>
        <time>2022-05-17T14:49:58.558Z</time>
      </trkpt>
      <trkpt lat="49.86629" lon="4.6073">
        <ele>263</ele>
        <time>2022-05-17T14:49:59.563Z</time>
      </trkpt>
      <trkpt lat="49.86631" lon="4.60741">
        <ele>262</ele>
        <time>2022-05-17T14:50:00.550Z</time>
      </trkpt>
      <trkpt lat="49.86633" lon="4.60746">
        <ele>261</ele>
        <time>2022-05-17T14:50:01.563Z</time>
      </trkpt>
      <trkpt lat="49.86633" lon="4.60746">
        <ele>261</ele>
        <time>2022-05-17T14:50:02.528Z</time>
      </trkpt>
      <trkpt lat="49.86633" lon="4.60759">
        <ele>260</ele>
        <time>2022-05-17T14:50:03.532Z</time>
      </trkpt>
      <trkpt lat="49.86633" lon="4.60759">
        <ele>260</ele>
        <time>2022-05-17T14:50:04.546Z</time>
      </trkpt>
      <trkpt lat="49.8663" lon="4.60774">
        <ele>260</ele>
        <time>2022-05-17T14:50:05.525Z</time>
      </trkpt>
      <trkpt lat="49.8663" lon="4.60774">
        <ele>260</ele>
        <time>2022-05-17T14:50:06.530Z</time>
      </trkpt>
      <trkpt lat="49.86625" lon="4.60786">
        <ele>259</ele>
        <time>2022-05-17T14:50:07.563Z</time>
      </trkpt>
      <trkpt lat="49.86623" lon="4.60792">
        <ele>259</ele>
        <time>2022-05-17T14:50:08.550Z</time>
      </trkpt>
      <trkpt lat="49.86623" lon="4.60792">
        <ele>259</ele>
        <time>2022-05-17T14:50:09.524Z</time>
      </trkpt>
      <trkpt lat="49.86621" lon="4.60802">
        <ele>259</ele>
        <time>2022-05-17T14:50:10.525Z</time>
      </trkpt>
      <trkpt lat="49.86621" lon="4.60802">
        <ele>259</ele>
        <time>2022-05-17T14:50:11.539Z</time>
      </trkpt>
      <trkpt lat="49.86619" lon="4.60813">
        <ele>259</ele>
        <time>2022-05-17T14:50:12.528Z</time>
      </trkpt>
      <trkpt lat="49.86619" lon="4.60819">
        <ele>258</ele>
        <time>2022-05-17T14:50:13.528Z</time>
      </trkpt>
      <trkpt lat="49.86619" lon="4.60819">
        <ele>258</ele>
        <time>2022-05-17T14:50:14.525Z</time>
      </trkpt>
      <trkpt lat="49.86621" lon="4.60829">
        <ele>257</ele>
        <time>2022-05-17T14:50:15.544Z</time>
      </trkpt>
      <trkpt lat="49.86621" lon="4.60834">
        <ele>257</ele>
        <time>2022-05-17T14:50:16.526Z</time>
      </trkpt>
      <trkpt lat="49.8662" lon="4.60841">
        <ele>256</ele>
        <time>2022-05-17T14:50:17.551Z</time>
      </trkpt>
      <trkpt lat="49.8662" lon="4.60841">
        <ele>256</ele>
        <time>2022-05-17T14:50:18.562Z</time>
      </trkpt>
      <trkpt lat="49.86617" lon="4.60854">
        <ele>255</ele>
        <time>2022-05-17T14:50:19.565Z</time>
      </trkpt>
      <trkpt lat="49.86616" lon="4.6086">
        <ele>255</ele>
        <time>2022-05-17T14:50:20.547Z</time>
      </trkpt>
      <trkpt lat="49.86616" lon="4.6086">
        <ele>255</ele>
        <time>2022-05-17T14:50:21.547Z</time>
      </trkpt>
      <trkpt lat="49.86616" lon="4.60872">
        <ele>254</ele>
        <time>2022-05-17T14:50:22.541Z</time>
      </trkpt>
      <trkpt lat="49.86615" lon="4.60878">
        <ele>254</ele>
        <time>2022-05-17T14:50:23.555Z</time>
      </trkpt>
      <trkpt lat="49.86614" lon="4.60883">
        <ele>253</ele>
        <time>2022-05-17T14:50:24.534Z</time>
      </trkpt>
      <trkpt lat="49.86614" lon="4.60883">
        <ele>253</ele>
        <time>2022-05-17T14:50:25.541Z</time>
      </trkpt>
      <trkpt lat="49.86614" lon="4.60896">
        <ele>253</ele>
        <time>2022-05-17T14:50:26.539Z</time>
      </trkpt>
      <trkpt lat="49.86614" lon="4.60896">
        <ele>253</ele>
        <time>2022-05-17T14:50:27.544Z</time>
      </trkpt>
      <trkpt lat="49.86614" lon="4.60915">
        <ele>252</ele>
        <time>2022-05-17T14:50:28.564Z</time>
      </trkpt>
      <trkpt lat="49.86614" lon="4.60915">
        <ele>252</ele>
        <time>2022-05-17T14:50:29.527Z</time>
      </trkpt>
      <trkpt lat="49.86612" lon="4.60929">
        <ele>252</ele>
        <time>2022-05-17T14:50:30.554Z</time>
      </trkpt>
      <trkpt lat="49.8661" lon="4.60937">
        <ele>252</ele>
        <time>2022-05-17T14:50:31.539Z</time>
      </trkpt>
      <trkpt lat="49.8661" lon="4.60937">
        <ele>252</ele>
        <time>2022-05-17T14:50:32.549Z</time>
      </trkpt>
      <trkpt lat="49.86607" lon="4.60953">
        <ele>251</ele>
        <time>2022-05-17T14:50:33.535Z</time>
      </trkpt>
      <trkpt lat="49.86607" lon="4.60953">
        <ele>251</ele>
        <time>2022-05-17T14:50:34.541Z</time>
      </trkpt>
      <trkpt lat="49.86604" lon="4.60968">
        <ele>251</ele>
        <time>2022-05-17T14:50:35.556Z</time>
      </trkpt>
      <trkpt lat="49.86602" lon="4.60975">
        <ele>251</ele>
        <time>2022-05-17T14:50:36.548Z</time>
      </trkpt>
      <trkpt lat="49.86602" lon="4.60975">
        <ele>251</ele>
        <time>2022-05-17T14:50:37.553Z</time>
      </trkpt>
      <trkpt lat="49.86597" lon="4.60988">
        <ele>250</ele>
        <time>2022-05-17T14:50:38.538Z</time>
      </trkpt>
      <trkpt lat="49.86597" lon="4.60988">
        <ele>250</ele>
        <time>2022-05-17T14:50:39.562Z</time>
      </trkpt>
      <trkpt lat="49.86593" lon="4.61003">
        <ele>250</ele>
        <time>2022-05-17T14:50:40.531Z</time>
      </trkpt>
      <trkpt lat="49.8659" lon="4.61008">
        <ele>249</ele>
        <time>2022-05-17T14:50:41.525Z</time>
      </trkpt>
      <trkpt lat="49.8659" lon="4.61008">
        <ele>249</ele>
        <time>2022-05-17T14:50:42.530Z</time>
      </trkpt>
      <trkpt lat="49.86587" lon="4.61017">
        <ele>249</ele>
        <time>2022-05-17T14:50:43.544Z</time>
      </trkpt>
      <trkpt lat="49.86587" lon="4.61017">
        <ele>249</ele>
        <time>2022-05-17T14:50:44.560Z</time>
      </trkpt>
      <trkpt lat="49.86588" lon="4.61027">
        <ele>249</ele>
        <time>2022-05-17T14:50:45.553Z</time>
      </trkpt>
      <trkpt lat="49.86588" lon="4.61027">
        <ele>249</ele>
        <time>2022-05-17T14:50:46.530Z</time>
      </trkpt>
      <trkpt lat="49.86589" lon="4.61039">
        <ele>248</ele>
        <time>2022-05-17T14:50:47.527Z</time>
      </trkpt>
      <trkpt lat="49.86589" lon="4.61039">
        <ele>248</ele>
        <time>2022-05-17T14:50:48.535Z</time>
      </trkpt>
      <trkpt lat="49.86587" lon="4.6105">
        <ele>248</ele>
        <time>2022-05-17T14:50:49.540Z</time>
      </trkpt>
      <trkpt lat="49.86586" lon="4.61056">
        <ele>247</ele>
        <time>2022-05-17T14:50:50.563Z</time>
      </trkpt>
      <trkpt lat="49.86586" lon="4.61063">
        <ele>247</ele>
        <time>2022-05-17T14:50:51.535Z</time>
      </trkpt>
      <trkpt lat="49.86586" lon="4.61063">
        <ele>247</ele>
        <time>2022-05-17T14:50:52.543Z</time>
      </trkpt>
      <trkpt lat="49.86584" lon="4.61075">
        <ele>246</ele>
        <time>2022-05-17T14:50:53.534Z</time>
      </trkpt>
      <trkpt lat="49.86584" lon="4.61075">
        <ele>246</ele>
        <time>2022-05-17T14:50:54.540Z</time>
      </trkpt>
      <trkpt lat="49.86582" lon="4.61085">
        <ele>245</ele>
        <time>2022-05-17T14:50:55.536Z</time>
      </trkpt>
      <trkpt lat="49.86582" lon="4.61085">
        <ele>245</ele>
        <time>2022-05-17T14:50:56.544Z</time>
      </trkpt>
      <trkpt lat="49.86579" lon="4.61093">
        <ele>245</ele>
        <time>2022-05-17T14:50:57.556Z</time>
      </trkpt>
      <trkpt lat="49.86579" lon="4.61093">
        <ele>245</ele>
        <time>2022-05-17T14:50:58.537Z</time>
      </trkpt>
      <trkpt lat="49.86583" lon="4.61106">
        <ele>244</ele>
        <time>2022-05-17T14:50:59.548Z</time>
      </trkpt>
      <trkpt lat="49.86584" lon="4.61111">
        <ele>244</ele>
        <time>2022-05-17T14:51:00.563Z</time>
      </trkpt>
      <trkpt lat="49.86584" lon="4.61111">
        <ele>244</ele>
        <time>2022-05-17T14:51:01.528Z</time>
      </trkpt>
      <trkpt lat="49.86584" lon="4.61123">
        <ele>243</ele>
        <time>2022-05-17T14:51:02.527Z</time>
      </trkpt>
      <trkpt lat="49.86584" lon="4.61129">
        <ele>243</ele>
        <time>2022-05-17T14:51:03.557Z</time>
      </trkpt>
      <trkpt lat="49.86584" lon="4.61129">
        <ele>243</ele>
        <time>2022-05-17T14:51:04.562Z</time>
      </trkpt>
      <trkpt lat="49.86582" lon="4.6114">
        <ele>242</ele>
        <time>2022-05-17T14:51:05.539Z</time>
      </trkpt>
      <trkpt lat="49.86582" lon="4.6114">
        <ele>242</ele>
        <time>2022-05-17T14:51:06.555Z</time>
      </trkpt>
      <trkpt lat="49.8658" lon="4.61153">
        <ele>242</ele>
        <time>2022-05-17T14:51:07.565Z</time>
      </trkpt>
      <trkpt lat="49.8658" lon="4.61153">
        <ele>242</ele>
        <time>2022-05-17T14:51:08.541Z</time>
      </trkpt>
      <trkpt lat="49.86579" lon="4.61164">
        <ele>241</ele>
        <time>2022-05-17T14:51:09.538Z</time>
      </trkpt>
      <trkpt lat="49.86579" lon="4.61164">
        <ele>241</ele>
        <time>2022-05-17T14:51:10.531Z</time>
      </trkpt>
      <trkpt lat="49.86576" lon="4.61175">
        <ele>241</ele>
        <time>2022-05-17T14:51:11.525Z</time>
      </trkpt>
      <trkpt lat="49.86576" lon="4.61175">
        <ele>241</ele>
        <time>2022-05-17T14:51:12.530Z</time>
      </trkpt>
      <trkpt lat="49.86574" lon="4.61184">
        <ele>240</ele>
        <time>2022-05-17T14:51:13.532Z</time>
      </trkpt>
      <trkpt lat="49.86574" lon="4.61184">
        <ele>240</ele>
        <time>2022-05-17T14:51:14.539Z</time>
      </trkpt>
      <trkpt lat="49.86573" lon="4.61196">
        <ele>240</ele>
        <time>2022-05-17T14:51:15.541Z</time>
      </trkpt>
      <trkpt lat="49.86573" lon="4.61196">
        <ele>240</ele>
        <time>2022-05-17T14:51:16.546Z</time>
      </trkpt>
      <trkpt lat="49.86572" lon="4.61207">
        <ele>239</ele>
        <time>2022-05-17T14:51:17.538Z</time>
      </trkpt>
      <trkpt lat="49.86572" lon="4.61207">
        <ele>239</ele>
        <time>2022-05-17T14:51:18.553Z</time>
      </trkpt>
      <trkpt lat="49.86573" lon="4.61219">
        <ele>238</ele>
        <time>2022-05-17T14:51:19.524Z</time>
      </trkpt>
      <trkpt lat="49.86573" lon="4.61219">
        <ele>238</ele>
        <time>2022-05-17T14:51:20.538Z</time>
      </trkpt>
      <trkpt lat="49.86573" lon="4.61232">
        <ele>238</ele>
        <time>2022-05-17T14:51:21.529Z</time>
      </trkpt>
      <trkpt lat="49.86573" lon="4.61232">
        <ele>238</ele>
        <time>2022-05-17T14:51:22.526Z</time>
      </trkpt>
      <trkpt lat="49.86573" lon="4.61243">
        <ele>237</ele>
        <time>2022-05-17T14:51:23.543Z</time>
      </trkpt>
      <trkpt lat="49.86573" lon="4.61243">
        <ele>237</ele>
        <time>2022-05-17T14:51:24.548Z</time>
      </trkpt>
      <trkpt lat="49.86573" lon="4.61254">
        <ele>237</ele>
        <time>2022-05-17T14:51:25.540Z</time>
      </trkpt>
      <trkpt lat="49.86573" lon="4.61254">
        <ele>237</ele>
        <time>2022-05-17T14:51:26.551Z</time>
      </trkpt>
      <trkpt lat="49.86571" lon="4.61264">
        <ele>236</ele>
        <time>2022-05-17T14:51:27.539Z</time>
      </trkpt>
      <trkpt lat="49.86571" lon="4.61264">
        <ele>236</ele>
        <time>2022-05-17T14:51:28.547Z</time>
      </trkpt>
      <trkpt lat="49.86567" lon="4.61279">
        <ele>236</ele>
        <time>2022-05-17T14:51:29.545Z</time>
      </trkpt>
      <trkpt lat="49.86567" lon="4.61279">
        <ele>236</ele>
        <time>2022-05-17T14:51:30.526Z</time>
      </trkpt>
      <trkpt lat="49.86564" lon="4.61294">
        <ele>235</ele>
        <time>2022-05-17T14:51:31.528Z</time>
      </trkpt>
      <trkpt lat="49.86564" lon="4.61294">
        <ele>235</ele>
        <time>2022-05-17T14:51:32.537Z</time>
      </trkpt>
      <trkpt lat="49.86564" lon="4.61307">
        <ele>234</ele>
        <time>2022-05-17T14:51:33.545Z</time>
      </trkpt>
      <trkpt lat="49.86564" lon="4.61307">
        <ele>234</ele>
        <time>2022-05-17T14:51:34.551Z</time>
      </trkpt>
      <trkpt lat="49.86561" lon="4.61323">
        <ele>234</ele>
        <time>2022-05-17T14:51:35.545Z</time>
      </trkpt>
      <trkpt lat="49.86561" lon="4.61323">
        <ele>234</ele>
        <time>2022-05-17T14:51:36.549Z</time>
      </trkpt>
      <trkpt lat="49.86559" lon="4.61336">
        <ele>233</ele>
        <time>2022-05-17T14:51:37.558Z</time>
      </trkpt>
      <trkpt lat="49.86559" lon="4.61336">
        <ele>233</ele>
        <time>2022-05-17T14:51:38.524Z</time>
      </trkpt>
      <trkpt lat="49.8656" lon="4.61348">
        <ele>232</ele>
        <time>2022-05-17T14:51:39.534Z</time>
      </trkpt>
      <trkpt lat="49.8656" lon="4.61348">
        <ele>232</ele>
        <time>2022-05-17T14:51:40.549Z</time>
      </trkpt>
      <trkpt lat="49.86556" lon="4.6136">
        <ele>232</ele>
        <time>2022-05-17T14:51:41.562Z</time>
      </trkpt>
      <trkpt lat="49.86555" lon="4.61366">
        <ele>231</ele>
        <time>2022-05-17T14:51:42.551Z</time>
      </trkpt>
      <trkpt lat="49.86553" lon="4.61372">
        <ele>231</ele>
        <time>2022-05-17T14:51:43.525Z</time>
      </trkpt>
      <trkpt lat="49.86553" lon="4.61372">
        <ele>231</ele>
        <time>2022-05-17T14:51:44.532Z</time>
      </trkpt>
      <trkpt lat="49.8655" lon="4.61384">
        <ele>231</ele>
        <time>2022-05-17T14:51:45.533Z</time>
      </trkpt>
      <trkpt lat="49.8655" lon="4.61384">
        <ele>231</ele>
        <time>2022-05-17T14:51:46.551Z</time>
      </trkpt>
      <trkpt lat="49.86546" lon="4.61396">
        <ele>230</ele>
        <time>2022-05-17T14:51:47.554Z</time>
      </trkpt>
      <trkpt lat="49.86546" lon="4.61396">
        <ele>230</ele>
        <time>2022-05-17T14:51:48.559Z</time>
      </trkpt>
      <trkpt lat="49.86544" lon="4.6141">
        <ele>230</ele>
        <time>2022-05-17T14:51:49.544Z</time>
      </trkpt>
      <trkpt lat="49.86544" lon="4.6141">
        <ele>230</ele>
        <time>2022-05-17T14:51:50.559Z</time>
      </trkpt>
      <trkpt lat="49.86542" lon="4.61422">
        <ele>229</ele>
        <time>2022-05-17T14:51:51.531Z</time>
      </trkpt>
      <trkpt lat="49.86539" lon="4.61428">
        <ele>229</ele>
        <time>2022-05-17T14:51:52.530Z</time>
      </trkpt>
      <trkpt lat="49.86539" lon="4.61428">
        <ele>229</ele>
        <time>2022-05-17T14:51:53.539Z</time>
      </trkpt>
      <trkpt lat="49.86534" lon="4.61439">
        <ele>228</ele>
        <time>2022-05-17T14:51:54.524Z</time>
      </trkpt>
      <trkpt lat="49.86534" lon="4.61439">
        <ele>228</ele>
        <time>2022-05-17T14:51:55.529Z</time>
      </trkpt>
      <trkpt lat="49.86531" lon="4.61453">
        <ele>228</ele>
        <time>2022-05-17T14:51:56.540Z</time>
      </trkpt>
      <trkpt lat="49.86531" lon="4.61458">
        <ele>228</ele>
        <time>2022-05-17T14:51:57.552Z</time>
      </trkpt>
      <trkpt lat="49.86531" lon="4.61458">
        <ele>228</ele>
        <time>2022-05-17T14:51:58.528Z</time>
      </trkpt>
      <trkpt lat="49.86531" lon="4.61472">
        <ele>227</ele>
        <time>2022-05-17T14:51:59.526Z</time>
      </trkpt>
      <trkpt lat="49.86531" lon="4.61472">
        <ele>227</ele>
        <time>2022-05-17T14:52:00.539Z</time>
      </trkpt>
      <trkpt lat="49.86528" lon="4.61489">
        <ele>227</ele>
        <time>2022-05-17T14:52:01.552Z</time>
      </trkpt>
      <trkpt lat="49.86528" lon="4.61489">
        <ele>227</ele>
        <time>2022-05-17T14:52:02.557Z</time>
      </trkpt>
      <trkpt lat="49.86525" lon="4.61502">
        <ele>226</ele>
        <time>2022-05-17T14:52:03.538Z</time>
      </trkpt>
      <trkpt lat="49.86525" lon="4.61502">
        <ele>226</ele>
        <time>2022-05-17T14:52:04.543Z</time>
      </trkpt>
      <trkpt lat="49.86524" lon="4.61516">
        <ele>226</ele>
        <time>2022-05-17T14:52:05.554Z</time>
      </trkpt>
      <trkpt lat="49.86522" lon="4.61522">
        <ele>226</ele>
        <time>2022-05-17T14:52:06.533Z</time>
      </trkpt>
      <trkpt lat="49.86522" lon="4.61522">
        <ele>226</ele>
        <time>2022-05-17T14:52:07.547Z</time>
      </trkpt>
      <trkpt lat="49.86517" lon="4.61531">
        <ele>226</ele>
        <time>2022-05-17T14:52:08.535Z</time>
      </trkpt>
      <trkpt lat="49.86517" lon="4.61531">
        <ele>226</ele>
        <time>2022-05-17T14:52:09.541Z</time>
      </trkpt>
      <trkpt lat="49.86513" lon="4.61543">
        <ele>226</ele>
        <time>2022-05-17T14:52:10.533Z</time>
      </trkpt>
      <trkpt lat="49.86513" lon="4.61543">
        <ele>226</ele>
        <time>2022-05-17T14:52:11.543Z</time>
      </trkpt>
      <trkpt lat="49.86511" lon="4.61555">
        <ele>226</ele>
        <time>2022-05-17T14:52:12.537Z</time>
      </trkpt>
      <trkpt lat="49.86511" lon="4.61555">
        <ele>226</ele>
        <time>2022-05-17T14:52:13.553Z</time>
      </trkpt>
      <trkpt lat="49.86508" lon="4.61567">
        <ele>225</ele>
        <time>2022-05-17T14:52:14.543Z</time>
      </trkpt>
      <trkpt lat="49.86508" lon="4.61567">
        <ele>225</ele>
        <time>2022-05-17T14:52:15.562Z</time>
      </trkpt>
      <trkpt lat="49.86504" lon="4.61578">
        <ele>225</ele>
        <time>2022-05-17T14:52:16.547Z</time>
      </trkpt>
      <trkpt lat="49.86502" lon="4.61584">
        <ele>225</ele>
        <time>2022-05-17T14:52:17.541Z</time>
      </trkpt>
      <trkpt lat="49.865" lon="4.61588">
        <ele>225</ele>
        <time>2022-05-17T14:52:18.525Z</time>
      </trkpt>
      <trkpt lat="49.86498" lon="4.61593">
        <ele>225</ele>
        <time>2022-05-17T14:52:19.558Z</time>
      </trkpt>
      <trkpt lat="49.86498" lon="4.61593">
        <ele>225</ele>
        <time>2022-05-17T14:52:20.539Z</time>
      </trkpt>
      <trkpt lat="49.86495" lon="4.61602">
        <ele>225</ele>
        <time>2022-05-17T14:52:21.542Z</time>
      </trkpt>
      <trkpt lat="49.86494" lon="4.61607">
        <ele>225</ele>
        <time>2022-05-17T14:52:22.550Z</time>
      </trkpt>
      <trkpt lat="49.86494" lon="4.61607">
        <ele>225</ele>
        <time>2022-05-17T14:52:23.555Z</time>
      </trkpt>
      <trkpt lat="49.86491" lon="4.61619">
        <ele>225</ele>
        <time>2022-05-17T14:52:24.528Z</time>
      </trkpt>
      <trkpt lat="49.86491" lon="4.61619">
        <ele>225</ele>
        <time>2022-05-17T14:52:25.541Z</time>
      </trkpt>
      <trkpt lat="49.86488" lon="4.61628">
        <ele>225</ele>
        <time>2022-05-17T14:52:26.555Z</time>
      </trkpt>
      <trkpt lat="49.86488" lon="4.61628">
        <ele>225</ele>
        <time>2022-05-17T14:52:27.560Z</time>
      </trkpt>
      <trkpt lat="49.86483" lon="4.61638">
        <ele>224</ele>
        <time>2022-05-17T14:52:28.537Z</time>
      </trkpt>
      <trkpt lat="49.86481" lon="4.61643">
        <ele>224</ele>
        <time>2022-05-17T14:52:29.548Z</time>
      </trkpt>
      <trkpt lat="49.8648" lon="4.61648">
        <ele>224</ele>
        <time>2022-05-17T14:52:30.527Z</time>
      </trkpt>
      <trkpt lat="49.8648" lon="4.61654">
        <ele>224</ele>
        <time>2022-05-17T14:52:31.538Z</time>
      </trkpt>
      <trkpt lat="49.8648" lon="4.61654">
        <ele>224</ele>
        <time>2022-05-17T14:52:32.544Z</time>
      </trkpt>
      <trkpt lat="49.86482" lon="4.61667">
        <ele>224</ele>
        <time>2022-05-17T14:52:33.552Z</time>
      </trkpt>
      <trkpt lat="49.86483" lon="4.61674">
        <ele>224</ele>
        <time>2022-05-17T14:52:34.525Z</time>
      </trkpt>
      <trkpt lat="49.86485" lon="4.6168">
        <ele>224</ele>
        <time>2022-05-17T14:52:35.550Z</time>
      </trkpt>
      <trkpt lat="49.86485" lon="4.6168">
        <ele>224</ele>
        <time>2022-05-17T14:52:36.555Z</time>
      </trkpt>
      <trkpt lat="49.86484" lon="4.61691">
        <ele>224</ele>
        <time>2022-05-17T14:52:37.563Z</time>
      </trkpt>
      <trkpt lat="49.86484" lon="4.61691">
        <ele>224</ele>
        <time>2022-05-17T14:52:38.528Z</time>
      </trkpt>
      <trkpt lat="49.86485" lon="4.61702">
        <ele>224</ele>
        <time>2022-05-17T14:52:39.550Z</time>
      </trkpt>
      <trkpt lat="49.86485" lon="4.61702">
        <ele>224</ele>
        <time>2022-05-17T14:52:40.558Z</time>
      </trkpt>
      <trkpt lat="49.86485" lon="4.61715">
        <ele>225</ele>
        <time>2022-05-17T14:52:41.544Z</time>
      </trkpt>
      <trkpt lat="49.86485" lon="4.61715">
        <ele>225</ele>
        <time>2022-05-17T14:52:42.551Z</time>
      </trkpt>
      <trkpt lat="49.86482" lon="4.61726">
        <ele>225</ele>
        <time>2022-05-17T14:52:43.559Z</time>
      </trkpt>
      <trkpt lat="49.86482" lon="4.61726">
        <ele>225</ele>
        <time>2022-05-17T14:52:44.524Z</time>
      </trkpt>
      <trkpt lat="49.86482" lon="4.61738">
        <ele>225</ele>
        <time>2022-05-17T14:52:45.551Z</time>
      </trkpt>
      <trkpt lat="49.86482" lon="4.61738">
        <ele>225</ele>
        <time>2022-05-17T14:52:46.556Z</time>
      </trkpt>
      <trkpt lat="49.8648" lon="4.61749">
        <ele>225</ele>
        <time>2022-05-17T14:52:47.553Z</time>
      </trkpt>
      <trkpt lat="49.86479" lon="4.61755">
        <ele>225</ele>
        <time>2022-05-17T14:52:48.549Z</time>
      </trkpt>
      <trkpt lat="49.86479" lon="4.6176">
        <ele>225</ele>
        <time>2022-05-17T14:52:49.539Z</time>
      </trkpt>
      <trkpt lat="49.86479" lon="4.6176">
        <ele>225</ele>
        <time>2022-05-17T14:52:50.551Z</time>
      </trkpt>
      <trkpt lat="49.86477" lon="4.6177">
        <ele>225</ele>
        <time>2022-05-17T14:52:51.558Z</time>
      </trkpt>
      <trkpt lat="49.86477" lon="4.61776">
        <ele>225</ele>
        <time>2022-05-17T14:52:52.525Z</time>
      </trkpt>
      <trkpt lat="49.86477" lon="4.61776">
        <ele>225</ele>
        <time>2022-05-17T14:52:53.530Z</time>
      </trkpt>
      <trkpt lat="49.86476" lon="4.61787">
        <ele>225</ele>
        <time>2022-05-17T14:52:54.554Z</time>
      </trkpt>
      <trkpt lat="49.86476" lon="4.61787">
        <ele>225</ele>
        <time>2022-05-17T14:52:55.559Z</time>
      </trkpt>
      <trkpt lat="49.86475" lon="4.61799">
        <ele>225</ele>
        <time>2022-05-17T14:52:56.526Z</time>
      </trkpt>
      <trkpt lat="49.86475" lon="4.61805">
        <ele>226</ele>
        <time>2022-05-17T14:52:57.547Z</time>
      </trkpt>
      <trkpt lat="49.86475" lon="4.61805">
        <ele>226</ele>
        <time>2022-05-17T14:52:58.552Z</time>
      </trkpt>
      <trkpt lat="49.86474" lon="4.61818">
        <ele>226</ele>
        <time>2022-05-17T14:52:59.540Z</time>
      </trkpt>
      <trkpt lat="49.86474" lon="4.61818">
        <ele>226</ele>
        <time>2022-05-17T14:53:00.555Z</time>
      </trkpt>
      <trkpt lat="49.86472" lon="4.6183">
        <ele>226</ele>
        <time>2022-05-17T14:53:01.564Z</time>
      </trkpt>
      <trkpt lat="49.86472" lon="4.6183">
        <ele>226</ele>
        <time>2022-05-17T14:53:02.528Z</time>
      </trkpt>
      <trkpt lat="49.86465" lon="4.61841">
        <ele>227</ele>
        <time>2022-05-17T14:53:03.541Z</time>
      </trkpt>
      <trkpt lat="49.86461" lon="4.61847">
        <ele>227</ele>
        <time>2022-05-17T14:53:04.561Z</time>
      </trkpt>
      <trkpt lat="49.86461" lon="4.61847">
        <ele>227</ele>
        <time>2022-05-17T14:53:05.526Z</time>
      </trkpt>
      <trkpt lat="49.86456" lon="4.61858">
        <ele>227</ele>
        <time>2022-05-17T14:53:06.532Z</time>
      </trkpt>
      <trkpt lat="49.86456" lon="4.61858">
        <ele>227</ele>
        <time>2022-05-17T14:53:07.544Z</time>
      </trkpt>
      <trkpt lat="49.86452" lon="4.6187">
        <ele>227</ele>
        <time>2022-05-17T14:53:08.534Z</time>
      </trkpt>
      <trkpt lat="49.86452" lon="4.6187">
        <ele>227</ele>
        <time>2022-05-17T14:53:09.541Z</time>
      </trkpt>
      <trkpt lat="49.86451" lon="4.61879">
        <ele>228</ele>
        <time>2022-05-17T14:53:10.539Z</time>
      </trkpt>
      <trkpt lat="49.8645" lon="4.61883">
        <ele>228</ele>
        <time>2022-05-17T14:53:11.562Z</time>
      </trkpt>
      <trkpt lat="49.8645" lon="4.61883">
        <ele>228</ele>
        <time>2022-05-17T14:53:12.527Z</time>
      </trkpt>
      <trkpt lat="49.86447" lon="4.61889">
        <ele>228</ele>
        <time>2022-05-17T14:53:13.539Z</time>
      </trkpt>
      <trkpt lat="49.86447" lon="4.6189">
        <ele>229</ele>
        <time>2022-05-17T14:53:14.547Z</time>
      </trkpt>
      <trkpt lat="49.86447" lon="4.6189">
        <ele>229</ele>
        <time>2022-05-17T14:53:15.552Z</time>
      </trkpt>
      <trkpt lat="49.86445" lon="4.61893">
        <ele>229</ele>
        <time>2022-05-17T14:53:16.546Z</time>
      </trkpt>
      <trkpt lat="49.86445" lon="4.61893">
        <ele>229</ele>
        <time>2022-05-17T14:53:17.551Z</time>
      </trkpt>
      <trkpt lat="49.86445" lon="4.61896">
        <ele>230</ele>
        <time>2022-05-17T14:53:18.535Z</time>
      </trkpt>
      <trkpt lat="49.86444" lon="4.61898">
        <ele>230</ele>
        <time>2022-05-17T14:53:19.554Z</time>
      </trkpt>
      <trkpt lat="49.86443" lon="4.61901">
        <ele>230</ele>
        <time>2022-05-17T14:53:20.529Z</time>
      </trkpt>
      <trkpt lat="49.86443" lon="4.61901">
        <ele>230</ele>
        <time>2022-05-17T14:53:21.556Z</time>
      </trkpt>
      <trkpt lat="49.86443" lon="4.61908">
        <ele>231</ele>
        <time>2022-05-17T14:53:22.542Z</time>
      </trkpt>
      <trkpt lat="49.86443" lon="4.61908">
        <ele>231</ele>
        <time>2022-05-17T14:53:23.547Z</time>
      </trkpt>
      <trkpt lat="49.86445" lon="4.61913">
        <ele>231</ele>
        <time>2022-05-17T14:53:24.533Z</time>
      </trkpt>
      <trkpt lat="49.86445" lon="4.61917">
        <ele>232</ele>
        <time>2022-05-17T14:53:25.538Z</time>
      </trkpt>
      <trkpt lat="49.86444" lon="4.6192">
        <ele>232</ele>
        <time>2022-05-17T14:53:26.535Z</time>
      </trkpt>
      <trkpt lat="49.86444" lon="4.6192">
        <ele>232</ele>
        <time>2022-05-17T14:53:27.542Z</time>
      </trkpt>
      <trkpt lat="49.86443" lon="4.61927">
        <ele>233</ele>
        <time>2022-05-17T14:53:28.531Z</time>
      </trkpt>
      <trkpt lat="49.86443" lon="4.61927">
        <ele>233</ele>
        <time>2022-05-17T14:53:29.548Z</time>
      </trkpt>
      <trkpt lat="49.8644" lon="4.61935">
        <ele>233</ele>
        <time>2022-05-17T14:53:30.533Z</time>
      </trkpt>
      <trkpt lat="49.86439" lon="4.61939">
        <ele>234</ele>
        <time>2022-05-17T14:53:31.538Z</time>
      </trkpt>
      <trkpt lat="49.86439" lon="4.61939">
        <ele>234</ele>
        <time>2022-05-17T14:53:32.558Z</time>
      </trkpt>
      <trkpt lat="49.86433" lon="4.61952">
        <ele>234</ele>
        <time>2022-05-17T14:53:33.557Z</time>
      </trkpt>
      <trkpt lat="49.86431" lon="4.61957">
        <ele>235</ele>
        <time>2022-05-17T14:53:34.529Z</time>
      </trkpt>
      <trkpt lat="49.86429" lon="4.61962">
        <ele>235</ele>
        <time>2022-05-17T14:53:35.526Z</time>
      </trkpt>
      <trkpt lat="49.86429" lon="4.61962">
        <ele>235</ele>
        <time>2022-05-17T14:53:36.542Z</time>
      </trkpt>
      <trkpt lat="49.86424" lon="4.61969">
        <ele>235</ele>
        <time>2022-05-17T14:53:37.533Z</time>
      </trkpt>
      <trkpt lat="49.86424" lon="4.61969">
        <ele>235</ele>
        <time>2022-05-17T14:53:38.530Z</time>
      </trkpt>
      <trkpt lat="49.8642" lon="4.61976">
        <ele>236</ele>
        <time>2022-05-17T14:53:39.553Z</time>
      </trkpt>
      <trkpt lat="49.86419" lon="4.6198">
        <ele>236</ele>
        <time>2022-05-17T14:53:40.552Z</time>
      </trkpt>
      <trkpt lat="49.86419" lon="4.6198">
        <ele>236</ele>
        <time>2022-05-17T14:53:41.557Z</time>
      </trkpt>
      <trkpt lat="49.86418" lon="4.61987">
        <ele>237</ele>
        <time>2022-05-17T14:53:42.528Z</time>
      </trkpt>
      <trkpt lat="49.86418" lon="4.61987">
        <ele>237</ele>
        <time>2022-05-17T14:53:43.542Z</time>
      </trkpt>
      <trkpt lat="49.86417" lon="4.61995">
        <ele>237</ele>
        <time>2022-05-17T14:53:44.532Z</time>
      </trkpt>
      <trkpt lat="49.86417" lon="4.61995">
        <ele>237</ele>
        <time>2022-05-17T14:53:45.546Z</time>
      </trkpt>
      <trkpt lat="49.86417" lon="4.62003">
        <ele>238</ele>
        <time>2022-05-17T14:53:46.550Z</time>
      </trkpt>
      <trkpt lat="49.86416" lon="4.62006">
        <ele>238</ele>
        <time>2022-05-17T14:53:47.535Z</time>
      </trkpt>
      <trkpt lat="49.86415" lon="4.62009">
        <ele>238</ele>
        <time>2022-05-17T14:53:48.555Z</time>
      </trkpt>
      <trkpt lat="49.86415" lon="4.62013">
        <ele>238</ele>
        <time>2022-05-17T14:53:49.554Z</time>
      </trkpt>
      <trkpt lat="49.86415" lon="4.62013">
        <ele>238</ele>
        <time>2022-05-17T14:53:50.532Z</time>
      </trkpt>
      <trkpt lat="49.86415" lon="4.62023">
        <ele>239</ele>
        <time>2022-05-17T14:53:51.561Z</time>
      </trkpt>
      <trkpt lat="49.86415" lon="4.62023">
        <ele>239</ele>
        <time>2022-05-17T14:53:52.528Z</time>
      </trkpt>
      <trkpt lat="49.86415" lon="4.62034">
        <ele>240</ele>
        <time>2022-05-17T14:53:53.541Z</time>
      </trkpt>
      <trkpt lat="49.86415" lon="4.62034">
        <ele>240</ele>
        <time>2022-05-17T14:53:54.546Z</time>
      </trkpt>
      <trkpt lat="49.86412" lon="4.62045">
        <ele>241</ele>
        <time>2022-05-17T14:53:55.539Z</time>
      </trkpt>
      <trkpt lat="49.86412" lon="4.62045">
        <ele>241</ele>
        <time>2022-05-17T14:53:56.561Z</time>
      </trkpt>
      <trkpt lat="49.86408" lon="4.62058">
        <ele>241</ele>
        <time>2022-05-17T14:53:57.535Z</time>
      </trkpt>
      <trkpt lat="49.86408" lon="4.62058">
        <ele>241</ele>
        <time>2022-05-17T14:53:58.551Z</time>
      </trkpt>
      <trkpt lat="49.86404" lon="4.62069">
        <ele>242</ele>
        <time>2022-05-17T14:53:59.563Z</time>
      </trkpt>
      <trkpt lat="49.86404" lon="4.62069">
        <ele>242</ele>
        <time>2022-05-17T14:54:00.539Z</time>
      </trkpt>
      <trkpt lat="49.86405" lon="4.62084">
        <ele>243</ele>
        <time>2022-05-17T14:54:01.555Z</time>
      </trkpt>
      <trkpt lat="49.86405" lon="4.62084">
        <ele>243</ele>
        <time>2022-05-17T14:54:02.527Z</time>
      </trkpt>
      <trkpt lat="49.86405" lon="4.62097">
        <ele>243</ele>
        <time>2022-05-17T14:54:03.545Z</time>
      </trkpt>
      <trkpt lat="49.86405" lon="4.62097">
        <ele>243</ele>
        <time>2022-05-17T14:54:04.551Z</time>
      </trkpt>
      <trkpt lat="49.86403" lon="4.62112">
        <ele>244</ele>
        <time>2022-05-17T14:54:05.556Z</time>
      </trkpt>
      <trkpt lat="49.86403" lon="4.62112">
        <ele>244</ele>
        <time>2022-05-17T14:54:06.562Z</time>
      </trkpt>
      <trkpt lat="49.86399" lon="4.62124">
        <ele>244</ele>
        <time>2022-05-17T14:54:07.563Z</time>
      </trkpt>
      <trkpt lat="49.86399" lon="4.62124">
        <ele>244</ele>
        <time>2022-05-17T14:54:08.544Z</time>
      </trkpt>
      <trkpt lat="49.86398" lon="4.62136">
        <ele>245</ele>
        <time>2022-05-17T14:54:09.535Z</time>
      </trkpt>
      <trkpt lat="49.86397" lon="4.62142">
        <ele>245</ele>
        <time>2022-05-17T14:54:10.534Z</time>
      </trkpt>
      <trkpt lat="49.86397" lon="4.62142">
        <ele>245</ele>
        <time>2022-05-17T14:54:11.539Z</time>
      </trkpt>
      <trkpt lat="49.86396" lon="4.62152">
        <ele>246</ele>
        <time>2022-05-17T14:54:12.537Z</time>
      </trkpt>
      <trkpt lat="49.86395" lon="4.62157">
        <ele>246</ele>
        <time>2022-05-17T14:54:13.529Z</time>
      </trkpt>
      <trkpt lat="49.86395" lon="4.62157">
        <ele>246</ele>
        <time>2022-05-17T14:54:14.547Z</time>
      </trkpt>
      <trkpt lat="49.86393" lon="4.62168">
        <ele>247</ele>
        <time>2022-05-17T14:54:15.545Z</time>
      </trkpt>
      <trkpt lat="49.86393" lon="4.62174">
        <ele>247</ele>
        <time>2022-05-17T14:54:16.527Z</time>
      </trkpt>
      <trkpt lat="49.86393" lon="4.62174">
        <ele>247</ele>
        <time>2022-05-17T14:54:17.533Z</time>
      </trkpt>
      <trkpt lat="49.86393" lon="4.62186">
        <ele>248</ele>
        <time>2022-05-17T14:54:18.535Z</time>
      </trkpt>
      <trkpt lat="49.86393" lon="4.62186">
        <ele>248</ele>
        <time>2022-05-17T14:54:19.550Z</time>
      </trkpt>
      <trkpt lat="49.86394" lon="4.62197">
        <ele>248</ele>
        <time>2022-05-17T14:54:20.527Z</time>
      </trkpt>
      <trkpt lat="49.86394" lon="4.62197">
        <ele>248</ele>
        <time>2022-05-17T14:54:21.554Z</time>
      </trkpt>
      <trkpt lat="49.86393" lon="4.6221">
        <ele>249</ele>
        <time>2022-05-17T14:54:22.547Z</time>
      </trkpt>
      <trkpt lat="49.86391" lon="4.62215">
        <ele>249</ele>
        <time>2022-05-17T14:54:23.537Z</time>
      </trkpt>
      <trkpt lat="49.86391" lon="4.62215">
        <ele>249</ele>
        <time>2022-05-17T14:54:24.545Z</time>
      </trkpt>
      <trkpt lat="49.86387" lon="4.62227">
        <ele>249</ele>
        <time>2022-05-17T14:54:25.546Z</time>
      </trkpt>
      <trkpt lat="49.86387" lon="4.62227">
        <ele>249</ele>
        <time>2022-05-17T14:54:26.554Z</time>
      </trkpt>
      <trkpt lat="49.86385" lon="4.62238">
        <ele>249</ele>
        <time>2022-05-17T14:54:27.549Z</time>
      </trkpt>
      <trkpt lat="49.86383" lon="4.62244">
        <ele>250</ele>
        <time>2022-05-17T14:54:28.542Z</time>
      </trkpt>
      <trkpt lat="49.86383" lon="4.62244">
        <ele>250</ele>
        <time>2022-05-17T14:54:29.551Z</time>
      </trkpt>
      <trkpt lat="49.86379" lon="4.62255">
        <ele>250</ele>
        <time>2022-05-17T14:54:30.550Z</time>
      </trkpt>
      <trkpt lat="49.86376" lon="4.62261">
        <ele>250</ele>
        <time>2022-05-17T14:54:31.555Z</time>
      </trkpt>
      <trkpt lat="49.86376" lon="4.62261">
        <ele>250</ele>
        <time>2022-05-17T14:54:32.529Z</time>
      </trkpt>
      <trkpt lat="49.86372" lon="4.62275">
        <ele>251</ele>
        <time>2022-05-17T14:54:33.525Z</time>
      </trkpt>
      <trkpt lat="49.86372" lon="4.62275">
        <ele>251</ele>
        <time>2022-05-17T14:54:34.531Z</time>
      </trkpt>
      <trkpt lat="49.86369" lon="4.62293">
        <ele>252</ele>
        <time>2022-05-17T14:54:35.525Z</time>
      </trkpt>
      <trkpt lat="49.86369" lon="4.62293">
        <ele>252</ele>
        <time>2022-05-17T14:54:36.548Z</time>
      </trkpt>
      <trkpt lat="49.86366" lon="4.62308">
        <ele>252</ele>
        <time>2022-05-17T14:54:37.524Z</time>
      </trkpt>
      <trkpt lat="49.86364" lon="4.62314">
        <ele>253</ele>
        <time>2022-05-17T14:54:38.527Z</time>
      </trkpt>
      <trkpt lat="49.86364" lon="4.62314">
        <ele>253</ele>
        <time>2022-05-17T14:54:39.551Z</time>
      </trkpt>
      <trkpt lat="49.86361" lon="4.62326">
        <ele>253</ele>
        <time>2022-05-17T14:54:40.527Z</time>
      </trkpt>
      <trkpt lat="49.86361" lon="4.62326">
        <ele>253</ele>
        <time>2022-05-17T14:54:41.549Z</time>
      </trkpt>
      <trkpt lat="49.8636" lon="4.62339">
        <ele>254</ele>
        <time>2022-05-17T14:54:42.533Z</time>
      </trkpt>
      <trkpt lat="49.8636" lon="4.62339">
        <ele>254</ele>
        <time>2022-05-17T14:54:43.554Z</time>
      </trkpt>
      <trkpt lat="49.86356" lon="4.62351">
        <ele>255</ele>
        <time>2022-05-17T14:54:44.556Z</time>
      </trkpt>
      <trkpt lat="49.86356" lon="4.62351">
        <ele>255</ele>
        <time>2022-05-17T14:54:45.564Z</time>
      </trkpt>
      <trkpt lat="49.8635" lon="4.62363">
        <ele>256</ele>
        <time>2022-05-17T14:54:46.565Z</time>
      </trkpt>
      <trkpt lat="49.86346" lon="4.62368">
        <ele>256</ele>
        <time>2022-05-17T14:54:47.548Z</time>
      </trkpt>
      <trkpt lat="49.86346" lon="4.62368">
        <ele>256</ele>
        <time>2022-05-17T14:54:48.555Z</time>
      </trkpt>
      <trkpt lat="49.86341" lon="4.62378">
        <ele>257</ele>
        <time>2022-05-17T14:54:49.547Z</time>
      </trkpt>
      <trkpt lat="49.86341" lon="4.62378">
        <ele>257</ele>
        <time>2022-05-17T14:54:50.555Z</time>
      </trkpt>
      <trkpt lat="49.86338" lon="4.62388">
        <ele>257</ele>
        <time>2022-05-17T14:54:51.554Z</time>
      </trkpt>
      <trkpt lat="49.86336" lon="4.62393">
        <ele>258</ele>
        <time>2022-05-17T14:54:52.554Z</time>
      </trkpt>
      <trkpt lat="49.86336" lon="4.62393">
        <ele>258</ele>
        <time>2022-05-17T14:54:53.561Z</time>
      </trkpt>
      <trkpt lat="49.86333" lon="4.62405">
        <ele>258</ele>
        <time>2022-05-17T14:54:54.551Z</time>
      </trkpt>
      <trkpt lat="49.86331" lon="4.62409">
        <ele>259</ele>
        <time>2022-05-17T14:54:55.524Z</time>
      </trkpt>
      <trkpt lat="49.86331" lon="4.62409">
        <ele>259</ele>
        <time>2022-05-17T14:54:56.531Z</time>
      </trkpt>
      <trkpt lat="49.86325" lon="4.62417">
        <ele>260</ele>
        <time>2022-05-17T14:54:57.534Z</time>
      </trkpt>
      <trkpt lat="49.86325" lon="4.62417">
        <ele>260</ele>
        <time>2022-05-17T14:54:58.550Z</time>
      </trkpt>
      <trkpt lat="49.86319" lon="4.62427">
        <ele>260</ele>
        <time>2022-05-17T14:54:59.561Z</time>
      </trkpt>
      <trkpt lat="49.86316" lon="4.62431">
        <ele>260</ele>
        <time>2022-05-17T14:55:00.532Z</time>
      </trkpt>
      <trkpt lat="49.86316" lon="4.62431">
        <ele>260</ele>
        <time>2022-05-17T14:55:01.549Z</time>
      </trkpt>
      <trkpt lat="49.86312" lon="4.6244">
        <ele>260</ele>
        <time>2022-05-17T14:55:02.533Z</time>
      </trkpt>
      <trkpt lat="49.86312" lon="4.6244">
        <ele>260</ele>
        <time>2022-05-17T14:55:03.549Z</time>
      </trkpt>
      <trkpt lat="49.86308" lon="4.62448">
        <ele>261</ele>
        <time>2022-05-17T14:55:04.547Z</time>
      </trkpt>
      <trkpt lat="49.86306" lon="4.62451">
        <ele>261</ele>
        <time>2022-05-17T14:55:05.555Z</time>
      </trkpt>
      <trkpt lat="49.86306" lon="4.62451">
        <ele>261</ele>
        <time>2022-05-17T14:55:06.562Z</time>
      </trkpt>
      <trkpt lat="49.86306" lon="4.62463">
        <ele>262</ele>
        <time>2022-05-17T14:55:07.528Z</time>
      </trkpt>
      <trkpt lat="49.86306" lon="4.62463">
        <ele>262</ele>
        <time>2022-05-17T14:55:08.536Z</time>
      </trkpt>
      <trkpt lat="49.86302" lon="4.62476">
        <ele>262</ele>
        <time>2022-05-17T14:55:09.539Z</time>
      </trkpt>
      <trkpt lat="49.86302" lon="4.62476">
        <ele>262</ele>
        <time>2022-05-17T14:55:10.548Z</time>
      </trkpt>
      <trkpt lat="49.86299" lon="4.62486">
        <ele>262</ele>
        <time>2022-05-17T14:55:11.561Z</time>
      </trkpt>
      <trkpt lat="49.86299" lon="4.62486">
        <ele>262</ele>
        <time>2022-05-17T14:55:12.527Z</time>
      </trkpt>
      <trkpt lat="49.86296" lon="4.62498">
        <ele>262</ele>
        <time>2022-05-17T14:55:13.550Z</time>
      </trkpt>
      <trkpt lat="49.86295" lon="4.62504">
        <ele>263</ele>
        <time>2022-05-17T14:55:14.552Z</time>
      </trkpt>
      <trkpt lat="49.86292" lon="4.6251">
        <ele>263</ele>
        <time>2022-05-17T14:55:15.541Z</time>
      </trkpt>
      <trkpt lat="49.86292" lon="4.6251">
        <ele>263</ele>
        <time>2022-05-17T14:55:16.556Z</time>
      </trkpt>
      <trkpt lat="49.86287" lon="4.62521">
        <ele>263</ele>
        <time>2022-05-17T14:55:17.531Z</time>
      </trkpt>
      <trkpt lat="49.86287" lon="4.62521">
        <ele>263</ele>
        <time>2022-05-17T14:55:18.554Z</time>
      </trkpt>
      <trkpt lat="49.86282" lon="4.62532">
        <ele>264</ele>
        <time>2022-05-17T14:55:19.538Z</time>
      </trkpt>
      <trkpt lat="49.86282" lon="4.62532">
        <ele>264</ele>
        <time>2022-05-17T14:55:20.554Z</time>
      </trkpt>
      <trkpt lat="49.86279" lon="4.62542">
        <ele>264</ele>
        <time>2022-05-17T14:55:21.526Z</time>
      </trkpt>
      <trkpt lat="49.86279" lon="4.62542">
        <ele>264</ele>
        <time>2022-05-17T14:55:22.548Z</time>
      </trkpt>
      <trkpt lat="49.86275" lon="4.62551">
        <ele>265</ele>
        <time>2022-05-17T14:55:23.530Z</time>
      </trkpt>
      <trkpt lat="49.86275" lon="4.62551">
        <ele>265</ele>
        <time>2022-05-17T14:55:24.537Z</time>
      </trkpt>
      <trkpt lat="49.86273" lon="4.6256">
        <ele>265</ele>
        <time>2022-05-17T14:55:25.562Z</time>
      </trkpt>
      <trkpt lat="49.86273" lon="4.6256">
        <ele>265</ele>
        <time>2022-05-17T14:55:26.528Z</time>
      </trkpt>
      <trkpt lat="49.86271" lon="4.6257">
        <ele>266</ele>
        <time>2022-05-17T14:55:27.525Z</time>
      </trkpt>
      <trkpt lat="49.86271" lon="4.6257">
        <ele>266</ele>
        <time>2022-05-17T14:55:28.540Z</time>
      </trkpt>
      <trkpt lat="49.86269" lon="4.62577">
        <ele>266</ele>
        <time>2022-05-17T14:55:29.528Z</time>
      </trkpt>
      <trkpt lat="49.86268" lon="4.6258">
        <ele>267</ele>
        <time>2022-05-17T14:55:30.544Z</time>
      </trkpt>
      <trkpt lat="49.86268" lon="4.6258">
        <ele>267</ele>
        <time>2022-05-17T14:55:31.549Z</time>
      </trkpt>
      <trkpt lat="49.86264" lon="4.62587">
        <ele>267</ele>
        <time>2022-05-17T14:55:32.538Z</time>
      </trkpt>
      <trkpt lat="49.86264" lon="4.62587">
        <ele>267</ele>
        <time>2022-05-17T14:55:33.553Z</time>
      </trkpt>
      <trkpt lat="49.8626" lon="4.62595">
        <ele>267</ele>
        <time>2022-05-17T14:55:34.525Z</time>
      </trkpt>
      <trkpt lat="49.86258" lon="4.62598">
        <ele>268</ele>
        <time>2022-05-17T14:55:35.541Z</time>
      </trkpt>
      <trkpt lat="49.86258" lon="4.62598">
        <ele>268</ele>
        <time>2022-05-17T14:55:36.546Z</time>
      </trkpt>
      <trkpt lat="49.86255" lon="4.62606">
        <ele>268</ele>
        <time>2022-05-17T14:55:37.528Z</time>
      </trkpt>
      <trkpt lat="49.86255" lon="4.62606">
        <ele>268</ele>
        <time>2022-05-17T14:55:38.539Z</time>
      </trkpt>
      <trkpt lat="49.86252" lon="4.62615">
        <ele>268</ele>
        <time>2022-05-17T14:55:39.554Z</time>
      </trkpt>
      <trkpt lat="49.8625" lon="4.62617">
        <ele>269</ele>
        <time>2022-05-17T14:55:40.546Z</time>
      </trkpt>
      <trkpt lat="49.8625" lon="4.62617">
        <ele>269</ele>
        <time>2022-05-17T14:55:41.551Z</time>
      </trkpt>
      <trkpt lat="49.86248" lon="4.62623">
        <ele>269</ele>
        <time>2022-05-17T14:55:42.542Z</time>
      </trkpt>
      <trkpt lat="49.86247" lon="4.62625">
        <ele>269</ele>
        <time>2022-05-17T14:55:43.560Z</time>
      </trkpt>
      <trkpt lat="49.86247" lon="4.62625">
        <ele>269</ele>
        <time>2022-05-17T14:55:44.525Z</time>
      </trkpt>
      <trkpt lat="49.86245" lon="4.62627">
        <ele>269</ele>
        <time>2022-05-17T14:55:45.537Z</time>
      </trkpt>
      <trkpt lat="49.86243" lon="4.62629">
        <ele>269</ele>
        <time>2022-05-17T14:55:46.546Z</time>
      </trkpt>
      <trkpt lat="49.86243" lon="4.62629">
        <ele>269</ele>
        <time>2022-05-17T14:55:47.551Z</time>
      </trkpt>
      <trkpt lat="49.86241" lon="4.62636">
        <ele>269</ele>
        <time>2022-05-17T14:55:48.561Z</time>
      </trkpt>
      <trkpt lat="49.86239" lon="4.6264">
        <ele>270</ele>
        <time>2022-05-17T14:55:49.552Z</time>
      </trkpt>
      <trkpt lat="49.86239" lon="4.6264">
        <ele>270</ele>
        <time>2022-05-17T14:55:50.557Z</time>
      </trkpt>
      <trkpt lat="49.86235" lon="4.62649">
        <ele>270</ele>
        <time>2022-05-17T14:55:51.535Z</time>
      </trkpt>
      <trkpt lat="49.86235" lon="4.62654">
        <ele>270</ele>
        <time>2022-05-17T14:55:52.540Z</time>
      </trkpt>
      <trkpt lat="49.86235" lon="4.62654">
        <ele>270</ele>
        <time>2022-05-17T14:55:53.554Z</time>
      </trkpt>
      <trkpt lat="49.86234" lon="4.6266">
        <ele>270</ele>
        <time>2022-05-17T14:55:54.533Z</time>
      </trkpt>
      <trkpt lat="49.86234" lon="4.62661">
        <ele>270</ele>
        <time>2022-05-17T14:55:55.562Z</time>
      </trkpt>
      <trkpt lat="49.86234" lon="4.62661">
        <ele>270</ele>
        <time>2022-05-17T14:55:56.526Z</time>
      </trkpt>
      <trkpt lat="49.86232" lon="4.62663">
        <ele>271</ele>
        <time>2022-05-17T14:55:57.559Z</time>
      </trkpt>
      <trkpt lat="49.86232" lon="4.62664">
        <ele>271</ele>
        <time>2022-05-17T14:55:58.551Z</time>
      </trkpt>
      <trkpt lat="49.86232" lon="4.62664">
        <ele>271</ele>
        <time>2022-05-17T14:55:59.526Z</time>
      </trkpt>
      <trkpt lat="49.86231" lon="4.62664">
        <ele>271</ele>
        <time>2022-05-17T14:56:00.547Z</time>
      </trkpt>
      <trkpt lat="49.8623" lon="4.62664">
        <ele>270</ele>
        <time>2022-05-17T14:56:01.552Z</time>
      </trkpt>
      <trkpt lat="49.8623" lon="4.62664">
        <ele>270</ele>
        <time>2022-05-17T14:56:02.559Z</time>
      </trkpt>
      <trkpt lat="49.86229" lon="4.62666">
        <ele>270</ele>
        <time>2022-05-17T14:56:03.525Z</time>
      </trkpt>
      <trkpt lat="49.86228" lon="4.62668">
        <ele>270</ele>
        <time>2022-05-17T14:56:04.557Z</time>
      </trkpt>
      <trkpt lat="49.86227" lon="4.6267">
        <ele>270</ele>
        <time>2022-05-17T14:56:05.544Z</time>
      </trkpt>
      <trkpt lat="49.86227" lon="4.62672">
        <ele>270</ele>
        <time>2022-05-17T14:56:06.560Z</time>
      </trkpt>
      <trkpt lat="49.86227" lon="4.62672">
        <ele>270</ele>
        <time>2022-05-17T14:56:07.553Z</time>
      </trkpt>
      <trkpt lat="49.86225" lon="4.62678">
        <ele>270</ele>
        <time>2022-05-17T14:56:08.525Z</time>
      </trkpt>
      <trkpt lat="49.86225" lon="4.62678">
        <ele>270</ele>
        <time>2022-05-17T14:56:09.540Z</time>
      </trkpt>
      <trkpt lat="49.86225" lon="4.62682">
        <ele>270</ele>
        <time>2022-05-17T14:56:10.560Z</time>
      </trkpt>
      <trkpt lat="49.86226" lon="4.62686">
        <ele>270</ele>
        <time>2022-05-17T14:56:11.544Z</time>
      </trkpt>
      <trkpt lat="49.86226" lon="4.62686">
        <ele>270</ele>
        <time>2022-05-17T14:56:12.549Z</time>
      </trkpt>
      <trkpt lat="49.86223" lon="4.6269">
        <ele>269</ele>
        <time>2022-05-17T14:56:13.525Z</time>
      </trkpt>
      <trkpt lat="49.86222" lon="4.62691">
        <ele>269</ele>
        <time>2022-05-17T14:56:14.536Z</time>
      </trkpt>
      <trkpt lat="49.86222" lon="4.62691">
        <ele>269</ele>
        <time>2022-05-17T14:56:15.550Z</time>
      </trkpt>
      <trkpt lat="49.86221" lon="4.62695">
        <ele>269</ele>
        <time>2022-05-17T14:56:16.548Z</time>
      </trkpt>
      <trkpt lat="49.86221" lon="4.62695">
        <ele>269</ele>
        <time>2022-05-17T14:56:17.552Z</time>
      </trkpt>
      <trkpt lat="49.8622" lon="4.627">
        <ele>269</ele>
        <time>2022-05-17T14:56:18.555Z</time>
      </trkpt>
      <trkpt lat="49.8622" lon="4.627">
        <ele>269</ele>
        <time>2022-05-17T14:56:19.561Z</time>
      </trkpt>
      <trkpt lat="49.86216" lon="4.62706">
        <ele>270</ele>
        <time>2022-05-17T14:56:20.528Z</time>
      </trkpt>
      <trkpt lat="49.86216" lon="4.62706">
        <ele>270</ele>
        <time>2022-05-17T14:56:21.541Z</time>
      </trkpt>
      <trkpt lat="49.86212" lon="4.62713">
        <ele>270</ele>
        <time>2022-05-17T14:56:22.546Z</time>
      </trkpt>
      <trkpt lat="49.86212" lon="4.62713">
        <ele>270</ele>
        <time>2022-05-17T14:56:23.551Z</time>
      </trkpt>
      <trkpt lat="49.86206" lon="4.62717">
        <ele>270</ele>
        <time>2022-05-17T14:56:24.548Z</time>
      </trkpt>
      <trkpt lat="49.86204" lon="4.62719">
        <ele>270</ele>
        <time>2022-05-17T14:56:25.525Z</time>
      </trkpt>
      <trkpt lat="49.86204" lon="4.62719">
        <ele>270</ele>
        <time>2022-05-17T14:56:26.541Z</time>
      </trkpt>
      <trkpt lat="49.86201" lon="4.62726">
        <ele>270</ele>
        <time>2022-05-17T14:56:27.553Z</time>
      </trkpt>
      <trkpt lat="49.86199" lon="4.6273">
        <ele>270</ele>
        <time>2022-05-17T14:56:28.527Z</time>
      </trkpt>
      <trkpt lat="49.86199" lon="4.6273">
        <ele>270</ele>
        <time>2022-05-17T14:56:29.540Z</time>
      </trkpt>
      <trkpt lat="49.86196" lon="4.62738">
        <ele>270</ele>
        <time>2022-05-17T14:56:30.560Z</time>
      </trkpt>
      <trkpt lat="49.86196" lon="4.62742">
        <ele>270</ele>
        <time>2022-05-17T14:56:31.556Z</time>
      </trkpt>
      <trkpt lat="49.86196" lon="4.62742">
        <ele>270</ele>
        <time>2022-05-17T14:56:32.561Z</time>
      </trkpt>
      <trkpt lat="49.86196" lon="4.62748">
        <ele>270</ele>
        <time>2022-05-17T14:56:33.534Z</time>
      </trkpt>
      <trkpt lat="49.86196" lon="4.62748">
        <ele>270</ele>
        <time>2022-05-17T14:56:34.549Z</time>
      </trkpt>
      <trkpt lat="49.86195" lon="4.62752">
        <ele>270</ele>
        <time>2022-05-17T14:56:35.543Z</time>
      </trkpt>
      <trkpt lat="49.86195" lon="4.62752">
        <ele>270</ele>
        <time>2022-05-17T14:56:36.556Z</time>
      </trkpt>
      <trkpt lat="49.86192" lon="4.62754">
        <ele>270</ele>
        <time>2022-05-17T14:56:37.528Z</time>
      </trkpt>
      <trkpt lat="49.86192" lon="4.62754">
        <ele>270</ele>
        <time>2022-05-17T14:56:38.533Z</time>
      </trkpt>
      <trkpt lat="49.86183" lon="4.62759">
        <ele>270</ele>
        <time>2022-05-17T14:56:39.530Z</time>
      </trkpt>
      <trkpt lat="49.86183" lon="4.62759">
        <ele>270</ele>
        <time>2022-05-17T14:56:40.544Z</time>
      </trkpt>
      <trkpt lat="49.8618" lon="4.62764">
        <ele>270</ele>
        <time>2022-05-17T14:56:41.562Z</time>
      </trkpt>
      <trkpt lat="49.8618" lon="4.62764">
        <ele>270</ele>
        <time>2022-05-17T14:56:42.527Z</time>
      </trkpt>
      <trkpt lat="49.86176" lon="4.62768">
        <ele>270</ele>
        <time>2022-05-17T14:56:43.525Z</time>
      </trkpt>
      <trkpt lat="49.86176" lon="4.62768">
        <ele>270</ele>
        <time>2022-05-17T14:56:44.541Z</time>
      </trkpt>
      <trkpt lat="49.86172" lon="4.62774">
        <ele>269</ele>
        <time>2022-05-17T14:56:45.527Z</time>
      </trkpt>
      <trkpt lat="49.8617" lon="4.62777">
        <ele>269</ele>
        <time>2022-05-17T14:56:46.556Z</time>
      </trkpt>
      <trkpt lat="49.86169" lon="4.62778">
        <ele>269</ele>
        <time>2022-05-17T14:56:47.528Z</time>
      </trkpt>
      <trkpt lat="49.86169" lon="4.62778">
        <ele>269</ele>
        <time>2022-05-17T14:56:48.539Z</time>
      </trkpt>
      <trkpt lat="49.86165" lon="4.62781">
        <ele>268</ele>
        <time>2022-05-17T14:56:49.557Z</time>
      </trkpt>
      <trkpt lat="49.86165" lon="4.62781">
        <ele>268</ele>
        <time>2022-05-17T14:56:50.529Z</time>
      </trkpt>
      <trkpt lat="49.86161" lon="4.62783">
        <ele>268</ele>
        <time>2022-05-17T14:56:51.545Z</time>
      </trkpt>
      <trkpt lat="49.86161" lon="4.62783">
        <ele>268</ele>
        <time>2022-05-17T14:56:52.553Z</time>
      </trkpt>
      <trkpt lat="49.86157" lon="4.62786">
        <ele>267</ele>
        <time>2022-05-17T14:56:53.547Z</time>
      </trkpt>
      <trkpt lat="49.86157" lon="4.62786">
        <ele>267</ele>
        <time>2022-05-17T14:56:54.562Z</time>
      </trkpt>
      <trkpt lat="49.86157" lon="4.62792">
        <ele>267</ele>
        <time>2022-05-17T14:56:55.530Z</time>
      </trkpt>
      <trkpt lat="49.86158" lon="4.62795">
        <ele>267</ele>
        <time>2022-05-17T14:56:56.536Z</time>
      </trkpt>
      <trkpt lat="49.86158" lon="4.62795">
        <ele>267</ele>
        <time>2022-05-17T14:56:57.551Z</time>
      </trkpt>
      <trkpt lat="49.86157" lon="4.62801">
        <ele>267</ele>
        <time>2022-05-17T14:56:58.529Z</time>
      </trkpt>
      <trkpt lat="49.86157" lon="4.62803">
        <ele>267</ele>
        <time>2022-05-17T14:56:59.536Z</time>
      </trkpt>
      <trkpt lat="49.86157" lon="4.62803">
        <ele>267</ele>
        <time>2022-05-17T14:57:00.552Z</time>
      </trkpt>
      <trkpt lat="49.86158" lon="4.6281">
        <ele>267</ele>
        <time>2022-05-17T14:57:01.525Z</time>
      </trkpt>
      <trkpt lat="49.86159" lon="4.62813">
        <ele>267</ele>
        <time>2022-05-17T14:57:02.561Z</time>
      </trkpt>
      <trkpt lat="49.86159" lon="4.62813">
        <ele>267</ele>
        <time>2022-05-17T14:57:03.526Z</time>
      </trkpt>
      <trkpt lat="49.86161" lon="4.62822">
        <ele>267</ele>
        <time>2022-05-17T14:57:04.546Z</time>
      </trkpt>
      <trkpt lat="49.86161" lon="4.62822">
        <ele>267</ele>
        <time>2022-05-17T14:57:05.551Z</time>
      </trkpt>
      <trkpt lat="49.86159" lon="4.62831">
        <ele>266</ele>
        <time>2022-05-17T14:57:06.561Z</time>
      </trkpt>
      <trkpt lat="49.86159" lon="4.62831">
        <ele>266</ele>
        <time>2022-05-17T14:57:07.526Z</time>
      </trkpt>
      <trkpt lat="49.86154" lon="4.62836">
        <ele>265</ele>
        <time>2022-05-17T14:57:08.547Z</time>
      </trkpt>
      <trkpt lat="49.86152" lon="4.62837">
        <ele>265</ele>
        <time>2022-05-17T14:57:09.533Z</time>
      </trkpt>
      <trkpt lat="49.86152" lon="4.62837">
        <ele>265</ele>
        <time>2022-05-17T14:57:10.546Z</time>
      </trkpt>
      <trkpt lat="49.86145" lon="4.62842">
        <ele>263</ele>
        <time>2022-05-17T14:57:11.534Z</time>
      </trkpt>
      <trkpt lat="49.86145" lon="4.62842">
        <ele>263</ele>
        <time>2022-05-17T14:57:12.542Z</time>
      </trkpt>
      <trkpt lat="49.86139" lon="4.62842">
        <ele>261</ele>
        <time>2022-05-17T14:57:13.544Z</time>
      </trkpt>
      <trkpt lat="49.86139" lon="4.62842">
        <ele>261</ele>
        <time>2022-05-17T14:57:14.557Z</time>
      </trkpt>
      <trkpt lat="49.86135" lon="4.62842">
        <ele>259</ele>
        <time>2022-05-17T14:57:15.554Z</time>
      </trkpt>
      <trkpt lat="49.86135" lon="4.62842">
        <ele>259</ele>
        <time>2022-05-17T14:57:16.549Z</time>
      </trkpt>
      <trkpt lat="49.86131" lon="4.62841">
        <ele>257</ele>
        <time>2022-05-17T14:57:17.553Z</time>
      </trkpt>
      <trkpt lat="49.86131" lon="4.62841">
        <ele>257</ele>
        <time>2022-05-17T14:57:18.558Z</time>
      </trkpt>
      <trkpt lat="49.86126" lon="4.6284">
        <ele>256</ele>
        <time>2022-05-17T14:57:19.536Z</time>
      </trkpt>
      <trkpt lat="49.86126" lon="4.6284">
        <ele>256</ele>
        <time>2022-05-17T14:57:20.550Z</time>
      </trkpt>
      <trkpt lat="49.86122" lon="4.62838">
        <ele>255</ele>
        <time>2022-05-17T14:57:21.526Z</time>
      </trkpt>
      <trkpt lat="49.86122" lon="4.62838">
        <ele>255</ele>
        <time>2022-05-17T14:57:22.558Z</time>
      </trkpt>
      <trkpt lat="49.86117" lon="4.62837">
        <ele>254</ele>
        <time>2022-05-17T14:57:23.530Z</time>
      </trkpt>
      <trkpt lat="49.86117" lon="4.62837">
        <ele>254</ele>
        <time>2022-05-17T14:57:24.539Z</time>
      </trkpt>
      <trkpt lat="49.86113" lon="4.62834">
        <ele>253</ele>
        <time>2022-05-17T14:57:25.525Z</time>
      </trkpt>
      <trkpt lat="49.86111" lon="4.62832">
        <ele>252</ele>
        <time>2022-05-17T14:57:26.535Z</time>
      </trkpt>
      <trkpt lat="49.86111" lon="4.62832">
        <ele>252</ele>
        <time>2022-05-17T14:57:27.546Z</time>
      </trkpt>
      <trkpt lat="49.86107" lon="4.6283">
        <ele>251</ele>
        <time>2022-05-17T14:57:28.533Z</time>
      </trkpt>
      <trkpt lat="49.86105" lon="4.62831">
        <ele>251</ele>
        <time>2022-05-17T14:57:29.553Z</time>
      </trkpt>
      <trkpt lat="49.86105" lon="4.62831">
        <ele>251</ele>
        <time>2022-05-17T14:57:30.527Z</time>
      </trkpt>
      <trkpt lat="49.86101" lon="4.62831">
        <ele>250</ele>
        <time>2022-05-17T14:57:31.553Z</time>
      </trkpt>
      <trkpt lat="49.86101" lon="4.62831">
        <ele>250</ele>
        <time>2022-05-17T14:57:32.559Z</time>
      </trkpt>
      <trkpt lat="49.86098" lon="4.62832">
        <ele>249</ele>
        <time>2022-05-17T14:57:33.561Z</time>
      </trkpt>
      <trkpt lat="49.86098" lon="4.62832">
        <ele>249</ele>
        <time>2022-05-17T14:57:34.527Z</time>
      </trkpt>
      <trkpt lat="49.86094" lon="4.62837">
        <ele>249</ele>
        <time>2022-05-17T14:57:35.563Z</time>
      </trkpt>
      <trkpt lat="49.86094" lon="4.62837">
        <ele>249</ele>
        <time>2022-05-17T14:57:36.529Z</time>
      </trkpt>
      <trkpt lat="49.8609" lon="4.62839">
        <ele>248</ele>
        <time>2022-05-17T14:57:37.545Z</time>
      </trkpt>
      <trkpt lat="49.8609" lon="4.62839">
        <ele>248</ele>
        <time>2022-05-17T14:57:38.550Z</time>
      </trkpt>
      <trkpt lat="49.86086" lon="4.62838">
        <ele>248</ele>
        <time>2022-05-17T14:57:39.531Z</time>
      </trkpt>
      <trkpt lat="49.86086" lon="4.62838">
        <ele>248</ele>
        <time>2022-05-17T14:57:40.542Z</time>
      </trkpt>
      <trkpt lat="49.86082" lon="4.62837">
        <ele>247</ele>
        <time>2022-05-17T14:57:41.556Z</time>
      </trkpt>
      <trkpt lat="49.86082" lon="4.62837">
        <ele>247</ele>
        <time>2022-05-17T14:57:42.537Z</time>
      </trkpt>
    </trkseg>
  </trk>
</gpx>